<?xml version="1.0" encoding="UTF-8" standalone="no" ?>
<gpx xmlns="http://www.topografix.com/GPX/1/1" xmlns:xsi="http://www.w3.org/2001/XMLSchema-instance" xsi:schemaLocation="http://www.topografix.com/GPX/1/1 http://www.topografix.com/GPX/1/1/gpx.xsd" version="1.1" creator="VisuGPX - https://www.visugpx.com">
  <metadata>
    <name>2018-07-06 Bike ride-Chatillon-Limas 39k</name>
    <desc><![CDATA[2018-07-06 Bike ride-Chatillon-Limas 39k]]></desc>
  </metadata>
  <wpt lat="45.92454" lon="4.7371">
    <ele>174</ele>
    <name><![CDATA[2018-07-06 11:10 (Start)]]></name>
  </wpt>
  <wpt lat="45.92459" lon="4.73708">
    <ele>174</ele>
    <name><![CDATA[2018-07-06 11:10 (End)]]></name>
  </wpt>
  <trk>
    <name><![CDATA[2018-07-06 11:10]]></name>
    <trkseg>
      <trkpt lat="45.92454" lon="4.7371">
        <ele>174</ele>
        <time>2018-07-06T09:10:33.587Z</time>
      </trkpt>
      <trkpt lat="45.92462" lon="4.73709">
        <ele>174</ele>
        <time>2018-07-06T09:11:02Z</time>
      </trkpt>
      <trkpt lat="45.92463" lon="4.73708">
        <ele>174</ele>
        <time>2018-07-06T09:11:03Z</time>
      </trkpt>
      <trkpt lat="45.92465" lon="4.73697">
        <ele>174</ele>
        <time>2018-07-06T09:11:07Z</time>
      </trkpt>
      <trkpt lat="45.92466" lon="4.73685">
        <ele>174</ele>
        <time>2018-07-06T09:11:08Z</time>
      </trkpt>
      <trkpt lat="45.92467" lon="4.73675">
        <ele>174</ele>
        <time>2018-07-06T09:11:11Z</time>
      </trkpt>
      <trkpt lat="45.92468" lon="4.73665">
        <ele>174</ele>
        <time>2018-07-06T09:11:12Z</time>
      </trkpt>
      <trkpt lat="45.9247" lon="4.73657">
        <ele>174</ele>
        <time>2018-07-06T09:11:14Z</time>
      </trkpt>
      <trkpt lat="45.92471" lon="4.73649">
        <ele>174</ele>
        <time>2018-07-06T09:11:15Z</time>
      </trkpt>
      <trkpt lat="45.92471" lon="4.73638">
        <ele>174</ele>
        <time>2018-07-06T09:11:17Z</time>
      </trkpt>
      <trkpt lat="45.9247" lon="4.73632">
        <ele>174</ele>
        <time>2018-07-06T09:11:18Z</time>
      </trkpt>
      <trkpt lat="45.92469" lon="4.73625">
        <ele>174</ele>
        <time>2018-07-06T09:11:19Z</time>
      </trkpt>
      <trkpt lat="45.92468" lon="4.73618">
        <ele>174</ele>
        <time>2018-07-06T09:11:20Z</time>
      </trkpt>
      <trkpt lat="45.92467" lon="4.73605">
        <ele>174</ele>
        <time>2018-07-06T09:11:22Z</time>
      </trkpt>
      <trkpt lat="45.92466" lon="4.73599">
        <ele>174</ele>
        <time>2018-07-06T09:11:23Z</time>
      </trkpt>
      <trkpt lat="45.92466" lon="4.73592">
        <ele>174</ele>
        <time>2018-07-06T09:11:24Z</time>
      </trkpt>
      <trkpt lat="45.92467" lon="4.73585">
        <ele>174</ele>
        <time>2018-07-06T09:11:25Z</time>
      </trkpt>
      <trkpt lat="45.92466" lon="4.73572">
        <ele>173</ele>
        <time>2018-07-06T09:11:27Z</time>
      </trkpt>
      <trkpt lat="45.92466" lon="4.73567">
        <ele>173</ele>
        <time>2018-07-06T09:11:28Z</time>
      </trkpt>
      <trkpt lat="45.92465" lon="4.73556">
        <ele>173</ele>
        <time>2018-07-06T09:11:30Z</time>
      </trkpt>
      <trkpt lat="45.92465" lon="4.73553">
        <ele>173</ele>
        <time>2018-07-06T09:11:31Z</time>
      </trkpt>
      <trkpt lat="45.92462" lon="4.73548">
        <ele>173</ele>
        <time>2018-07-06T09:11:33Z</time>
      </trkpt>
      <trkpt lat="45.92456" lon="4.73544">
        <ele>174</ele>
        <time>2018-07-06T09:11:34Z</time>
      </trkpt>
      <trkpt lat="45.92448" lon="4.73545">
        <ele>174</ele>
        <time>2018-07-06T09:11:36Z</time>
      </trkpt>
      <trkpt lat="45.92445" lon="4.73547">
        <ele>174</ele>
        <time>2018-07-06T09:11:37Z</time>
      </trkpt>
      <trkpt lat="45.92437" lon="4.73553">
        <ele>174</ele>
        <time>2018-07-06T09:11:39Z</time>
      </trkpt>
      <trkpt lat="45.92433" lon="4.73557">
        <ele>174</ele>
        <time>2018-07-06T09:11:40Z</time>
      </trkpt>
      <trkpt lat="45.92428" lon="4.7356">
        <ele>174</ele>
        <time>2018-07-06T09:11:41Z</time>
      </trkpt>
      <trkpt lat="45.92424" lon="4.73562">
        <ele>174</ele>
        <time>2018-07-06T09:11:42Z</time>
      </trkpt>
      <trkpt lat="45.92416" lon="4.73566">
        <ele>173</ele>
        <time>2018-07-06T09:11:44Z</time>
      </trkpt>
      <trkpt lat="45.92412" lon="4.73568">
        <ele>173</ele>
        <time>2018-07-06T09:11:45Z</time>
      </trkpt>
      <trkpt lat="45.92407" lon="4.7357">
        <ele>173</ele>
        <time>2018-07-06T09:11:46Z</time>
      </trkpt>
      <trkpt lat="45.92403" lon="4.73572">
        <ele>173</ele>
        <time>2018-07-06T09:11:47Z</time>
      </trkpt>
      <trkpt lat="45.92398" lon="4.73574">
        <ele>173</ele>
        <time>2018-07-06T09:11:48Z</time>
      </trkpt>
      <trkpt lat="45.92393" lon="4.73577">
        <ele>173</ele>
        <time>2018-07-06T09:11:49Z</time>
      </trkpt>
      <trkpt lat="45.92388" lon="4.7358">
        <ele>173</ele>
        <time>2018-07-06T09:11:50Z</time>
      </trkpt>
      <trkpt lat="45.92383" lon="4.73583">
        <ele>173</ele>
        <time>2018-07-06T09:11:51Z</time>
      </trkpt>
      <trkpt lat="45.92378" lon="4.73585">
        <ele>173</ele>
        <time>2018-07-06T09:11:52Z</time>
      </trkpt>
      <trkpt lat="45.92373" lon="4.73588">
        <ele>173</ele>
        <time>2018-07-06T09:11:53Z</time>
      </trkpt>
      <trkpt lat="45.92367" lon="4.73591">
        <ele>173</ele>
        <time>2018-07-06T09:11:54Z</time>
      </trkpt>
      <trkpt lat="45.92362" lon="4.73594">
        <ele>173</ele>
        <time>2018-07-06T09:11:55Z</time>
      </trkpt>
      <trkpt lat="45.92357" lon="4.73597">
        <ele>173</ele>
        <time>2018-07-06T09:11:56Z</time>
      </trkpt>
      <trkpt lat="45.92352" lon="4.73599">
        <ele>173</ele>
        <time>2018-07-06T09:11:57Z</time>
      </trkpt>
      <trkpt lat="45.92346" lon="4.73602">
        <ele>173</ele>
        <time>2018-07-06T09:11:58Z</time>
      </trkpt>
      <trkpt lat="45.92341" lon="4.73604">
        <ele>173</ele>
        <time>2018-07-06T09:11:59Z</time>
      </trkpt>
      <trkpt lat="45.92335" lon="4.73607">
        <ele>173</ele>
        <time>2018-07-06T09:12:00Z</time>
      </trkpt>
      <trkpt lat="45.9233" lon="4.7361">
        <ele>172</ele>
        <time>2018-07-06T09:12:01Z</time>
      </trkpt>
      <trkpt lat="45.92324" lon="4.73613">
        <ele>172</ele>
        <time>2018-07-06T09:12:02Z</time>
      </trkpt>
      <trkpt lat="45.92321" lon="4.73616">
        <ele>172</ele>
        <time>2018-07-06T09:12:03Z</time>
      </trkpt>
      <trkpt lat="45.92316" lon="4.7362">
        <ele>172</ele>
        <time>2018-07-06T09:12:04Z</time>
      </trkpt>
      <trkpt lat="45.92311" lon="4.73623">
        <ele>172</ele>
        <time>2018-07-06T09:12:05Z</time>
      </trkpt>
      <trkpt lat="45.92306" lon="4.73626">
        <ele>172</ele>
        <time>2018-07-06T09:12:06Z</time>
      </trkpt>
      <trkpt lat="45.92301" lon="4.73629">
        <ele>172</ele>
        <time>2018-07-06T09:12:07Z</time>
      </trkpt>
      <trkpt lat="45.92297" lon="4.73633">
        <ele>172</ele>
        <time>2018-07-06T09:12:08Z</time>
      </trkpt>
      <trkpt lat="45.92291" lon="4.73636">
        <ele>172</ele>
        <time>2018-07-06T09:12:09Z</time>
      </trkpt>
      <trkpt lat="45.92286" lon="4.73639">
        <ele>172</ele>
        <time>2018-07-06T09:12:10Z</time>
      </trkpt>
      <trkpt lat="45.9228" lon="4.73642">
        <ele>172</ele>
        <time>2018-07-06T09:12:11Z</time>
      </trkpt>
      <trkpt lat="45.92274" lon="4.73645">
        <ele>172</ele>
        <time>2018-07-06T09:12:12Z</time>
      </trkpt>
      <trkpt lat="45.92269" lon="4.73648">
        <ele>172</ele>
        <time>2018-07-06T09:12:13Z</time>
      </trkpt>
      <trkpt lat="45.92263" lon="4.73651">
        <ele>171</ele>
        <time>2018-07-06T09:12:14Z</time>
      </trkpt>
      <trkpt lat="45.92258" lon="4.73655">
        <ele>171</ele>
        <time>2018-07-06T09:12:15Z</time>
      </trkpt>
      <trkpt lat="45.92252" lon="4.73658">
        <ele>171</ele>
        <time>2018-07-06T09:12:16Z</time>
      </trkpt>
      <trkpt lat="45.92246" lon="4.73661">
        <ele>171</ele>
        <time>2018-07-06T09:12:17Z</time>
      </trkpt>
      <trkpt lat="45.92241" lon="4.73665">
        <ele>171</ele>
        <time>2018-07-06T09:12:18Z</time>
      </trkpt>
      <trkpt lat="45.92236" lon="4.73668">
        <ele>171</ele>
        <time>2018-07-06T09:12:19Z</time>
      </trkpt>
      <trkpt lat="45.9223" lon="4.73672">
        <ele>171</ele>
        <time>2018-07-06T09:12:20Z</time>
      </trkpt>
      <trkpt lat="45.92224" lon="4.73676">
        <ele>171</ele>
        <time>2018-07-06T09:12:21Z</time>
      </trkpt>
      <trkpt lat="45.92218" lon="4.73679">
        <ele>171</ele>
        <time>2018-07-06T09:12:22Z</time>
      </trkpt>
      <trkpt lat="45.92212" lon="4.73682">
        <ele>171</ele>
        <time>2018-07-06T09:12:23Z</time>
      </trkpt>
      <trkpt lat="45.92207" lon="4.73686">
        <ele>171</ele>
        <time>2018-07-06T09:12:24Z</time>
      </trkpt>
      <trkpt lat="45.92201" lon="4.73689">
        <ele>171</ele>
        <time>2018-07-06T09:12:25Z</time>
      </trkpt>
      <trkpt lat="45.92196" lon="4.73693">
        <ele>171</ele>
        <time>2018-07-06T09:12:26Z</time>
      </trkpt>
      <trkpt lat="45.9219" lon="4.73696">
        <ele>171</ele>
        <time>2018-07-06T09:12:27Z</time>
      </trkpt>
      <trkpt lat="45.92185" lon="4.73699">
        <ele>171</ele>
        <time>2018-07-06T09:12:28Z</time>
      </trkpt>
      <trkpt lat="45.9218" lon="4.73701">
        <ele>171</ele>
        <time>2018-07-06T09:12:29Z</time>
      </trkpt>
      <trkpt lat="45.92174" lon="4.73704">
        <ele>171</ele>
        <time>2018-07-06T09:12:30Z</time>
      </trkpt>
      <trkpt lat="45.9217" lon="4.73707">
        <ele>171</ele>
        <time>2018-07-06T09:12:31Z</time>
      </trkpt>
      <trkpt lat="45.92163" lon="4.7371">
        <ele>171</ele>
        <time>2018-07-06T09:12:32Z</time>
      </trkpt>
      <trkpt lat="45.92158" lon="4.73711">
        <ele>171</ele>
        <time>2018-07-06T09:12:33Z</time>
      </trkpt>
      <trkpt lat="45.92152" lon="4.73714">
        <ele>171</ele>
        <time>2018-07-06T09:12:34Z</time>
      </trkpt>
      <trkpt lat="45.92146" lon="4.73716">
        <ele>171</ele>
        <time>2018-07-06T09:12:35Z</time>
      </trkpt>
      <trkpt lat="45.9214" lon="4.73718">
        <ele>171</ele>
        <time>2018-07-06T09:12:36Z</time>
      </trkpt>
      <trkpt lat="45.92134" lon="4.73719">
        <ele>171</ele>
        <time>2018-07-06T09:12:37Z</time>
      </trkpt>
      <trkpt lat="45.92127" lon="4.7372">
        <ele>171</ele>
        <time>2018-07-06T09:12:38Z</time>
      </trkpt>
      <trkpt lat="45.92121" lon="4.73722">
        <ele>171</ele>
        <time>2018-07-06T09:12:39Z</time>
      </trkpt>
      <trkpt lat="45.92114" lon="4.73724">
        <ele>171</ele>
        <time>2018-07-06T09:12:40Z</time>
      </trkpt>
      <trkpt lat="45.92107" lon="4.73726">
        <ele>171</ele>
        <time>2018-07-06T09:12:41Z</time>
      </trkpt>
      <trkpt lat="45.921" lon="4.73727">
        <ele>171</ele>
        <time>2018-07-06T09:12:42Z</time>
      </trkpt>
      <trkpt lat="45.92093" lon="4.73728">
        <ele>171</ele>
        <time>2018-07-06T09:12:43Z</time>
      </trkpt>
      <trkpt lat="45.92085" lon="4.7373">
        <ele>171</ele>
        <time>2018-07-06T09:12:44Z</time>
      </trkpt>
      <trkpt lat="45.92079" lon="4.73731">
        <ele>171</ele>
        <time>2018-07-06T09:12:45Z</time>
      </trkpt>
      <trkpt lat="45.92072" lon="4.73732">
        <ele>171</ele>
        <time>2018-07-06T09:12:46Z</time>
      </trkpt>
      <trkpt lat="45.92065" lon="4.73733">
        <ele>171</ele>
        <time>2018-07-06T09:12:47Z</time>
      </trkpt>
      <trkpt lat="45.92058" lon="4.73733">
        <ele>171</ele>
        <time>2018-07-06T09:12:48Z</time>
      </trkpt>
      <trkpt lat="45.92052" lon="4.73733">
        <ele>171</ele>
        <time>2018-07-06T09:12:49Z</time>
      </trkpt>
      <trkpt lat="45.92045" lon="4.73733">
        <ele>171</ele>
        <time>2018-07-06T09:12:50Z</time>
      </trkpt>
      <trkpt lat="45.92039" lon="4.73734">
        <ele>171</ele>
        <time>2018-07-06T09:12:51Z</time>
      </trkpt>
      <trkpt lat="45.92033" lon="4.73734">
        <ele>171</ele>
        <time>2018-07-06T09:12:52Z</time>
      </trkpt>
      <trkpt lat="45.92026" lon="4.73735">
        <ele>171</ele>
        <time>2018-07-06T09:12:53Z</time>
      </trkpt>
      <trkpt lat="45.9202" lon="4.73735">
        <ele>171</ele>
        <time>2018-07-06T09:12:54Z</time>
      </trkpt>
      <trkpt lat="45.92013" lon="4.73736">
        <ele>171</ele>
        <time>2018-07-06T09:12:55Z</time>
      </trkpt>
      <trkpt lat="45.92006" lon="4.73736">
        <ele>171</ele>
        <time>2018-07-06T09:12:56Z</time>
      </trkpt>
      <trkpt lat="45.92" lon="4.73736">
        <ele>171</ele>
        <time>2018-07-06T09:12:57Z</time>
      </trkpt>
      <trkpt lat="45.91994" lon="4.73736">
        <ele>171</ele>
        <time>2018-07-06T09:12:58Z</time>
      </trkpt>
      <trkpt lat="45.91987" lon="4.73735">
        <ele>171</ele>
        <time>2018-07-06T09:12:59Z</time>
      </trkpt>
      <trkpt lat="45.91981" lon="4.73735">
        <ele>171</ele>
        <time>2018-07-06T09:13:00Z</time>
      </trkpt>
      <trkpt lat="45.91975" lon="4.73736">
        <ele>171</ele>
        <time>2018-07-06T09:13:01Z</time>
      </trkpt>
      <trkpt lat="45.91969" lon="4.73736">
        <ele>171</ele>
        <time>2018-07-06T09:13:02Z</time>
      </trkpt>
      <trkpt lat="45.91962" lon="4.73736">
        <ele>171</ele>
        <time>2018-07-06T09:13:03Z</time>
      </trkpt>
      <trkpt lat="45.91956" lon="4.73736">
        <ele>170</ele>
        <time>2018-07-06T09:13:04Z</time>
      </trkpt>
      <trkpt lat="45.91949" lon="4.73736">
        <ele>170</ele>
        <time>2018-07-06T09:13:05Z</time>
      </trkpt>
      <trkpt lat="45.91942" lon="4.73736">
        <ele>170</ele>
        <time>2018-07-06T09:13:06Z</time>
      </trkpt>
      <trkpt lat="45.91935" lon="4.73736">
        <ele>170</ele>
        <time>2018-07-06T09:13:07Z</time>
      </trkpt>
      <trkpt lat="45.91929" lon="4.73736">
        <ele>170</ele>
        <time>2018-07-06T09:13:08Z</time>
      </trkpt>
      <trkpt lat="45.91922" lon="4.73736">
        <ele>170</ele>
        <time>2018-07-06T09:13:09Z</time>
      </trkpt>
      <trkpt lat="45.91916" lon="4.73736">
        <ele>171</ele>
        <time>2018-07-06T09:13:10Z</time>
      </trkpt>
      <trkpt lat="45.91909" lon="4.73735">
        <ele>171</ele>
        <time>2018-07-06T09:13:11Z</time>
      </trkpt>
      <trkpt lat="45.91902" lon="4.73735">
        <ele>171</ele>
        <time>2018-07-06T09:13:12Z</time>
      </trkpt>
      <trkpt lat="45.91896" lon="4.73735">
        <ele>171</ele>
        <time>2018-07-06T09:13:13Z</time>
      </trkpt>
      <trkpt lat="45.91889" lon="4.73735">
        <ele>171</ele>
        <time>2018-07-06T09:13:14Z</time>
      </trkpt>
      <trkpt lat="45.91883" lon="4.73735">
        <ele>171</ele>
        <time>2018-07-06T09:13:15Z</time>
      </trkpt>
      <trkpt lat="45.91877" lon="4.73736">
        <ele>171</ele>
        <time>2018-07-06T09:13:16Z</time>
      </trkpt>
      <trkpt lat="45.9187" lon="4.73736">
        <ele>171</ele>
        <time>2018-07-06T09:13:17Z</time>
      </trkpt>
      <trkpt lat="45.91864" lon="4.73737">
        <ele>171</ele>
        <time>2018-07-06T09:13:18Z</time>
      </trkpt>
      <trkpt lat="45.91858" lon="4.73737">
        <ele>171</ele>
        <time>2018-07-06T09:13:19Z</time>
      </trkpt>
      <trkpt lat="45.91851" lon="4.73736">
        <ele>172</ele>
        <time>2018-07-06T09:13:20Z</time>
      </trkpt>
      <trkpt lat="45.91844" lon="4.73734">
        <ele>172</ele>
        <time>2018-07-06T09:13:21Z</time>
      </trkpt>
      <trkpt lat="45.91837" lon="4.73735">
        <ele>172</ele>
        <time>2018-07-06T09:13:22Z</time>
      </trkpt>
      <trkpt lat="45.9183" lon="4.73735">
        <ele>172</ele>
        <time>2018-07-06T09:13:23Z</time>
      </trkpt>
      <trkpt lat="45.91824" lon="4.73736">
        <ele>172</ele>
        <time>2018-07-06T09:13:24Z</time>
      </trkpt>
      <trkpt lat="45.91818" lon="4.73735">
        <ele>172</ele>
        <time>2018-07-06T09:13:25Z</time>
      </trkpt>
      <trkpt lat="45.91811" lon="4.73735">
        <ele>172</ele>
        <time>2018-07-06T09:13:26Z</time>
      </trkpt>
      <trkpt lat="45.91804" lon="4.73736">
        <ele>172</ele>
        <time>2018-07-06T09:13:27Z</time>
      </trkpt>
      <trkpt lat="45.91798" lon="4.73736">
        <ele>172</ele>
        <time>2018-07-06T09:13:28Z</time>
      </trkpt>
      <trkpt lat="45.91791" lon="4.73737">
        <ele>173</ele>
        <time>2018-07-06T09:13:29Z</time>
      </trkpt>
      <trkpt lat="45.91785" lon="4.73736">
        <ele>173</ele>
        <time>2018-07-06T09:13:30Z</time>
      </trkpt>
      <trkpt lat="45.91778" lon="4.73736">
        <ele>173</ele>
        <time>2018-07-06T09:13:31Z</time>
      </trkpt>
      <trkpt lat="45.91772" lon="4.73736">
        <ele>173</ele>
        <time>2018-07-06T09:13:32Z</time>
      </trkpt>
      <trkpt lat="45.91765" lon="4.73736">
        <ele>173</ele>
        <time>2018-07-06T09:13:33Z</time>
      </trkpt>
      <trkpt lat="45.91759" lon="4.73737">
        <ele>173</ele>
        <time>2018-07-06T09:13:34Z</time>
      </trkpt>
      <trkpt lat="45.91754" lon="4.73737">
        <ele>173</ele>
        <time>2018-07-06T09:13:35Z</time>
      </trkpt>
      <trkpt lat="45.91748" lon="4.73737">
        <ele>173</ele>
        <time>2018-07-06T09:13:36Z</time>
      </trkpt>
      <trkpt lat="45.91741" lon="4.73737">
        <ele>173</ele>
        <time>2018-07-06T09:13:37Z</time>
      </trkpt>
      <trkpt lat="45.91734" lon="4.73738">
        <ele>173</ele>
        <time>2018-07-06T09:13:38Z</time>
      </trkpt>
      <trkpt lat="45.91728" lon="4.73738">
        <ele>173</ele>
        <time>2018-07-06T09:13:39Z</time>
      </trkpt>
      <trkpt lat="45.91721" lon="4.73738">
        <ele>173</ele>
        <time>2018-07-06T09:13:40Z</time>
      </trkpt>
      <trkpt lat="45.91714" lon="4.73739">
        <ele>173</ele>
        <time>2018-07-06T09:13:41Z</time>
      </trkpt>
      <trkpt lat="45.9171" lon="4.73738">
        <ele>173</ele>
        <time>2018-07-06T09:13:42Z</time>
      </trkpt>
      <trkpt lat="45.91703" lon="4.73738">
        <ele>172</ele>
        <time>2018-07-06T09:13:43Z</time>
      </trkpt>
      <trkpt lat="45.91696" lon="4.73738">
        <ele>172</ele>
        <time>2018-07-06T09:13:44Z</time>
      </trkpt>
      <trkpt lat="45.91689" lon="4.73739">
        <ele>172</ele>
        <time>2018-07-06T09:13:45Z</time>
      </trkpt>
      <trkpt lat="45.91684" lon="4.73739">
        <ele>172</ele>
        <time>2018-07-06T09:13:46Z</time>
      </trkpt>
      <trkpt lat="45.91677" lon="4.73739">
        <ele>172</ele>
        <time>2018-07-06T09:13:47Z</time>
      </trkpt>
      <trkpt lat="45.9167" lon="4.7374">
        <ele>172</ele>
        <time>2018-07-06T09:13:48Z</time>
      </trkpt>
      <trkpt lat="45.91664" lon="4.7374">
        <ele>172</ele>
        <time>2018-07-06T09:13:49Z</time>
      </trkpt>
      <trkpt lat="45.91657" lon="4.73739">
        <ele>172</ele>
        <time>2018-07-06T09:13:50Z</time>
      </trkpt>
      <trkpt lat="45.91651" lon="4.73739">
        <ele>172</ele>
        <time>2018-07-06T09:13:51Z</time>
      </trkpt>
      <trkpt lat="45.91645" lon="4.73739">
        <ele>172</ele>
        <time>2018-07-06T09:13:52Z</time>
      </trkpt>
      <trkpt lat="45.91639" lon="4.73742">
        <ele>172</ele>
        <time>2018-07-06T09:13:53Z</time>
      </trkpt>
      <trkpt lat="45.91633" lon="4.73742">
        <ele>172</ele>
        <time>2018-07-06T09:13:54Z</time>
      </trkpt>
      <trkpt lat="45.91627" lon="4.73741">
        <ele>172</ele>
        <time>2018-07-06T09:13:55Z</time>
      </trkpt>
      <trkpt lat="45.9162" lon="4.7374">
        <ele>173</ele>
        <time>2018-07-06T09:13:56Z</time>
      </trkpt>
      <trkpt lat="45.91614" lon="4.73739">
        <ele>173</ele>
        <time>2018-07-06T09:13:57Z</time>
      </trkpt>
      <trkpt lat="45.91609" lon="4.73736">
        <ele>173</ele>
        <time>2018-07-06T09:13:58Z</time>
      </trkpt>
      <trkpt lat="45.91603" lon="4.73737">
        <ele>173</ele>
        <time>2018-07-06T09:13:59Z</time>
      </trkpt>
      <trkpt lat="45.91597" lon="4.73737">
        <ele>173</ele>
        <time>2018-07-06T09:14:00Z</time>
      </trkpt>
      <trkpt lat="45.9159" lon="4.73737">
        <ele>173</ele>
        <time>2018-07-06T09:14:01Z</time>
      </trkpt>
      <trkpt lat="45.91585" lon="4.73738">
        <ele>173</ele>
        <time>2018-07-06T09:14:02Z</time>
      </trkpt>
      <trkpt lat="45.9158" lon="4.73737">
        <ele>173</ele>
        <time>2018-07-06T09:14:03Z</time>
      </trkpt>
      <trkpt lat="45.91574" lon="4.73738">
        <ele>173</ele>
        <time>2018-07-06T09:14:04Z</time>
      </trkpt>
      <trkpt lat="45.91568" lon="4.73737">
        <ele>173</ele>
        <time>2018-07-06T09:14:05Z</time>
      </trkpt>
      <trkpt lat="45.91562" lon="4.73737">
        <ele>173</ele>
        <time>2018-07-06T09:14:06Z</time>
      </trkpt>
      <trkpt lat="45.91555" lon="4.73737">
        <ele>174</ele>
        <time>2018-07-06T09:14:07Z</time>
      </trkpt>
      <trkpt lat="45.91549" lon="4.73738">
        <ele>174</ele>
        <time>2018-07-06T09:14:08Z</time>
      </trkpt>
      <trkpt lat="45.91543" lon="4.73738">
        <ele>174</ele>
        <time>2018-07-06T09:14:09Z</time>
      </trkpt>
      <trkpt lat="45.91536" lon="4.7374">
        <ele>174</ele>
        <time>2018-07-06T09:14:10Z</time>
      </trkpt>
      <trkpt lat="45.91528" lon="4.73741">
        <ele>174</ele>
        <time>2018-07-06T09:14:11Z</time>
      </trkpt>
      <trkpt lat="45.91522" lon="4.73741">
        <ele>174</ele>
        <time>2018-07-06T09:14:12Z</time>
      </trkpt>
      <trkpt lat="45.91517" lon="4.73741">
        <ele>174</ele>
        <time>2018-07-06T09:14:13Z</time>
      </trkpt>
      <trkpt lat="45.91511" lon="4.73741">
        <ele>174</ele>
        <time>2018-07-06T09:14:14Z</time>
      </trkpt>
      <trkpt lat="45.91504" lon="4.7374">
        <ele>174</ele>
        <time>2018-07-06T09:14:15Z</time>
      </trkpt>
      <trkpt lat="45.91499" lon="4.7374">
        <ele>174</ele>
        <time>2018-07-06T09:14:16Z</time>
      </trkpt>
      <trkpt lat="45.91493" lon="4.73739">
        <ele>174</ele>
        <time>2018-07-06T09:14:17Z</time>
      </trkpt>
      <trkpt lat="45.91487" lon="4.73739">
        <ele>174</ele>
        <time>2018-07-06T09:14:18Z</time>
      </trkpt>
      <trkpt lat="45.9148" lon="4.73739">
        <ele>174</ele>
        <time>2018-07-06T09:14:19Z</time>
      </trkpt>
      <trkpt lat="45.91474" lon="4.73739">
        <ele>174</ele>
        <time>2018-07-06T09:14:20Z</time>
      </trkpt>
      <trkpt lat="45.91467" lon="4.7374">
        <ele>174</ele>
        <time>2018-07-06T09:14:21Z</time>
      </trkpt>
      <trkpt lat="45.9146" lon="4.73739">
        <ele>174</ele>
        <time>2018-07-06T09:14:22Z</time>
      </trkpt>
      <trkpt lat="45.91452" lon="4.73741">
        <ele>173</ele>
        <time>2018-07-06T09:14:23Z</time>
      </trkpt>
      <trkpt lat="45.91446" lon="4.73742">
        <ele>173</ele>
        <time>2018-07-06T09:14:24Z</time>
      </trkpt>
      <trkpt lat="45.9144" lon="4.73742">
        <ele>173</ele>
        <time>2018-07-06T09:14:25Z</time>
      </trkpt>
      <trkpt lat="45.91434" lon="4.73742">
        <ele>173</ele>
        <time>2018-07-06T09:14:26Z</time>
      </trkpt>
      <trkpt lat="45.91427" lon="4.73742">
        <ele>173</ele>
        <time>2018-07-06T09:14:27Z</time>
      </trkpt>
      <trkpt lat="45.91421" lon="4.73742">
        <ele>173</ele>
        <time>2018-07-06T09:14:28Z</time>
      </trkpt>
      <trkpt lat="45.91415" lon="4.73742">
        <ele>172</ele>
        <time>2018-07-06T09:14:29Z</time>
      </trkpt>
      <trkpt lat="45.91409" lon="4.73741">
        <ele>172</ele>
        <time>2018-07-06T09:14:30Z</time>
      </trkpt>
      <trkpt lat="45.91404" lon="4.73741">
        <ele>173</ele>
        <time>2018-07-06T09:14:31Z</time>
      </trkpt>
      <trkpt lat="45.91397" lon="4.73742">
        <ele>173</ele>
        <time>2018-07-06T09:14:32Z</time>
      </trkpt>
      <trkpt lat="45.91391" lon="4.73741">
        <ele>173</ele>
        <time>2018-07-06T09:14:33Z</time>
      </trkpt>
      <trkpt lat="45.91384" lon="4.7374">
        <ele>173</ele>
        <time>2018-07-06T09:14:34Z</time>
      </trkpt>
      <trkpt lat="45.91377" lon="4.73742">
        <ele>173</ele>
        <time>2018-07-06T09:14:35Z</time>
      </trkpt>
      <trkpt lat="45.91371" lon="4.73743">
        <ele>173</ele>
        <time>2018-07-06T09:14:36Z</time>
      </trkpt>
      <trkpt lat="45.91366" lon="4.73743">
        <ele>173</ele>
        <time>2018-07-06T09:14:37Z</time>
      </trkpt>
      <trkpt lat="45.91359" lon="4.73743">
        <ele>173</ele>
        <time>2018-07-06T09:14:38Z</time>
      </trkpt>
      <trkpt lat="45.91353" lon="4.73744">
        <ele>173</ele>
        <time>2018-07-06T09:14:39Z</time>
      </trkpt>
      <trkpt lat="45.91346" lon="4.73744">
        <ele>173</ele>
        <time>2018-07-06T09:14:40Z</time>
      </trkpt>
      <trkpt lat="45.91339" lon="4.73744">
        <ele>173</ele>
        <time>2018-07-06T09:14:41Z</time>
      </trkpt>
      <trkpt lat="45.91334" lon="4.73746">
        <ele>173</ele>
        <time>2018-07-06T09:14:42Z</time>
      </trkpt>
      <trkpt lat="45.91327" lon="4.73746">
        <ele>173</ele>
        <time>2018-07-06T09:14:43Z</time>
      </trkpt>
      <trkpt lat="45.9132" lon="4.73746">
        <ele>173</ele>
        <time>2018-07-06T09:14:44Z</time>
      </trkpt>
      <trkpt lat="45.91312" lon="4.73746">
        <ele>174</ele>
        <time>2018-07-06T09:14:45Z</time>
      </trkpt>
      <trkpt lat="45.91305" lon="4.73745">
        <ele>174</ele>
        <time>2018-07-06T09:14:46Z</time>
      </trkpt>
      <trkpt lat="45.91299" lon="4.73748">
        <ele>174</ele>
        <time>2018-07-06T09:14:47Z</time>
      </trkpt>
      <trkpt lat="45.91292" lon="4.73749">
        <ele>174</ele>
        <time>2018-07-06T09:14:48Z</time>
      </trkpt>
      <trkpt lat="45.91285" lon="4.73749">
        <ele>174</ele>
        <time>2018-07-06T09:14:49Z</time>
      </trkpt>
      <trkpt lat="45.91279" lon="4.73748">
        <ele>174</ele>
        <time>2018-07-06T09:14:50Z</time>
      </trkpt>
      <trkpt lat="45.91273" lon="4.73749">
        <ele>174</ele>
        <time>2018-07-06T09:14:51Z</time>
      </trkpt>
      <trkpt lat="45.91263" lon="4.73747">
        <ele>175</ele>
        <time>2018-07-06T09:14:52Z</time>
      </trkpt>
      <trkpt lat="45.91257" lon="4.73746">
        <ele>175</ele>
        <time>2018-07-06T09:14:53Z</time>
      </trkpt>
      <trkpt lat="45.91249" lon="4.73745">
        <ele>175</ele>
        <time>2018-07-06T09:14:54Z</time>
      </trkpt>
      <trkpt lat="45.91242" lon="4.73745">
        <ele>175</ele>
        <time>2018-07-06T09:14:55Z</time>
      </trkpt>
      <trkpt lat="45.91235" lon="4.73745">
        <ele>175</ele>
        <time>2018-07-06T09:14:56Z</time>
      </trkpt>
      <trkpt lat="45.91229" lon="4.73746">
        <ele>175</ele>
        <time>2018-07-06T09:14:57Z</time>
      </trkpt>
      <trkpt lat="45.91223" lon="4.73747">
        <ele>175</ele>
        <time>2018-07-06T09:14:58Z</time>
      </trkpt>
      <trkpt lat="45.91216" lon="4.73748">
        <ele>175</ele>
        <time>2018-07-06T09:14:59Z</time>
      </trkpt>
      <trkpt lat="45.9121" lon="4.73748">
        <ele>175</ele>
        <time>2018-07-06T09:15:00Z</time>
      </trkpt>
      <trkpt lat="45.91204" lon="4.73748">
        <ele>175</ele>
        <time>2018-07-06T09:15:01Z</time>
      </trkpt>
      <trkpt lat="45.91198" lon="4.73747">
        <ele>175</ele>
        <time>2018-07-06T09:15:02Z</time>
      </trkpt>
      <trkpt lat="45.91192" lon="4.73745">
        <ele>175</ele>
        <time>2018-07-06T09:15:03Z</time>
      </trkpt>
      <trkpt lat="45.91187" lon="4.73743">
        <ele>175</ele>
        <time>2018-07-06T09:15:04Z</time>
      </trkpt>
      <trkpt lat="45.91183" lon="4.73742">
        <ele>175</ele>
        <time>2018-07-06T09:15:05Z</time>
      </trkpt>
      <trkpt lat="45.91177" lon="4.7374">
        <ele>175</ele>
        <time>2018-07-06T09:15:06Z</time>
      </trkpt>
      <trkpt lat="45.91172" lon="4.7374">
        <ele>175</ele>
        <time>2018-07-06T09:15:07Z</time>
      </trkpt>
      <trkpt lat="45.91166" lon="4.73738">
        <ele>175</ele>
        <time>2018-07-06T09:15:08Z</time>
      </trkpt>
      <trkpt lat="45.9116" lon="4.73736">
        <ele>175</ele>
        <time>2018-07-06T09:15:09Z</time>
      </trkpt>
      <trkpt lat="45.91155" lon="4.73731">
        <ele>175</ele>
        <time>2018-07-06T09:15:10Z</time>
      </trkpt>
      <trkpt lat="45.91151" lon="4.73726">
        <ele>175</ele>
        <time>2018-07-06T09:15:11Z</time>
      </trkpt>
      <trkpt lat="45.91147" lon="4.73718">
        <ele>174</ele>
        <time>2018-07-06T09:15:12Z</time>
      </trkpt>
      <trkpt lat="45.91144" lon="4.73711">
        <ele>174</ele>
        <time>2018-07-06T09:15:13Z</time>
      </trkpt>
      <trkpt lat="45.91141" lon="4.73704">
        <ele>174</ele>
        <time>2018-07-06T09:15:14Z</time>
      </trkpt>
      <trkpt lat="45.91138" lon="4.73696">
        <ele>174</ele>
        <time>2018-07-06T09:15:15Z</time>
      </trkpt>
      <trkpt lat="45.91135" lon="4.73691">
        <ele>174</ele>
        <time>2018-07-06T09:15:16Z</time>
      </trkpt>
      <trkpt lat="45.91133" lon="4.73684">
        <ele>174</ele>
        <time>2018-07-06T09:15:17Z</time>
      </trkpt>
      <trkpt lat="45.91129" lon="4.73677">
        <ele>174</ele>
        <time>2018-07-06T09:15:18Z</time>
      </trkpt>
      <trkpt lat="45.91126" lon="4.7367">
        <ele>174</ele>
        <time>2018-07-06T09:15:19Z</time>
      </trkpt>
      <trkpt lat="45.91124" lon="4.73662">
        <ele>174</ele>
        <time>2018-07-06T09:15:20Z</time>
      </trkpt>
      <trkpt lat="45.91121" lon="4.73656">
        <ele>174</ele>
        <time>2018-07-06T09:15:21Z</time>
      </trkpt>
      <trkpt lat="45.9112" lon="4.7365">
        <ele>174</ele>
        <time>2018-07-06T09:15:22Z</time>
      </trkpt>
      <trkpt lat="45.91114" lon="4.7364">
        <ele>174</ele>
        <time>2018-07-06T09:15:23Z</time>
      </trkpt>
      <trkpt lat="45.9111" lon="4.73633">
        <ele>174</ele>
        <time>2018-07-06T09:15:24Z</time>
      </trkpt>
      <trkpt lat="45.91106" lon="4.73625">
        <ele>174</ele>
        <time>2018-07-06T09:15:25Z</time>
      </trkpt>
      <trkpt lat="45.91103" lon="4.73616">
        <ele>174</ele>
        <time>2018-07-06T09:15:26Z</time>
      </trkpt>
      <trkpt lat="45.911" lon="4.73609">
        <ele>174</ele>
        <time>2018-07-06T09:15:27Z</time>
      </trkpt>
      <trkpt lat="45.91097" lon="4.73601">
        <ele>174</ele>
        <time>2018-07-06T09:15:28Z</time>
      </trkpt>
      <trkpt lat="45.91092" lon="4.73594">
        <ele>174</ele>
        <time>2018-07-06T09:15:29Z</time>
      </trkpt>
      <trkpt lat="45.91088" lon="4.73586">
        <ele>174</ele>
        <time>2018-07-06T09:15:30Z</time>
      </trkpt>
      <trkpt lat="45.91085" lon="4.73579">
        <ele>174</ele>
        <time>2018-07-06T09:15:31Z</time>
      </trkpt>
      <trkpt lat="45.91084" lon="4.73573">
        <ele>174</ele>
        <time>2018-07-06T09:15:32Z</time>
      </trkpt>
      <trkpt lat="45.91081" lon="4.73567">
        <ele>174</ele>
        <time>2018-07-06T09:15:33Z</time>
      </trkpt>
      <trkpt lat="45.91078" lon="4.73561">
        <ele>174</ele>
        <time>2018-07-06T09:15:34Z</time>
      </trkpt>
      <trkpt lat="45.91077" lon="4.73554">
        <ele>174</ele>
        <time>2018-07-06T09:15:35Z</time>
      </trkpt>
      <trkpt lat="45.91074" lon="4.73547">
        <ele>174</ele>
        <time>2018-07-06T09:15:36Z</time>
      </trkpt>
      <trkpt lat="45.91072" lon="4.73541">
        <ele>175</ele>
        <time>2018-07-06T09:15:37Z</time>
      </trkpt>
      <trkpt lat="45.9107" lon="4.73534">
        <ele>175</ele>
        <time>2018-07-06T09:15:38Z</time>
      </trkpt>
      <trkpt lat="45.91067" lon="4.73527">
        <ele>175</ele>
        <time>2018-07-06T09:15:39Z</time>
      </trkpt>
      <trkpt lat="45.91064" lon="4.7352">
        <ele>175</ele>
        <time>2018-07-06T09:15:40Z</time>
      </trkpt>
      <trkpt lat="45.91061" lon="4.73513">
        <ele>175</ele>
        <time>2018-07-06T09:15:41Z</time>
      </trkpt>
      <trkpt lat="45.91058" lon="4.73506">
        <ele>175</ele>
        <time>2018-07-06T09:15:42Z</time>
      </trkpt>
      <trkpt lat="45.91055" lon="4.735">
        <ele>175</ele>
        <time>2018-07-06T09:15:43Z</time>
      </trkpt>
      <trkpt lat="45.91052" lon="4.73493">
        <ele>175</ele>
        <time>2018-07-06T09:15:44Z</time>
      </trkpt>
      <trkpt lat="45.91049" lon="4.73487">
        <ele>175</ele>
        <time>2018-07-06T09:15:45Z</time>
      </trkpt>
      <trkpt lat="45.91046" lon="4.73481">
        <ele>175</ele>
        <time>2018-07-06T09:15:46Z</time>
      </trkpt>
      <trkpt lat="45.91044" lon="4.73476">
        <ele>175</ele>
        <time>2018-07-06T09:15:47Z</time>
      </trkpt>
      <trkpt lat="45.91041" lon="4.7347">
        <ele>175</ele>
        <time>2018-07-06T09:15:48Z</time>
      </trkpt>
      <trkpt lat="45.91039" lon="4.73464">
        <ele>175</ele>
        <time>2018-07-06T09:15:49Z</time>
      </trkpt>
      <trkpt lat="45.91035" lon="4.73457">
        <ele>175</ele>
        <time>2018-07-06T09:15:50Z</time>
      </trkpt>
      <trkpt lat="45.91033" lon="4.73452">
        <ele>175</ele>
        <time>2018-07-06T09:15:51Z</time>
      </trkpt>
      <trkpt lat="45.91032" lon="4.73445">
        <ele>175</ele>
        <time>2018-07-06T09:15:52Z</time>
      </trkpt>
      <trkpt lat="45.91032" lon="4.73438">
        <ele>175</ele>
        <time>2018-07-06T09:15:53Z</time>
      </trkpt>
      <trkpt lat="45.91029" lon="4.73432">
        <ele>175</ele>
        <time>2018-07-06T09:15:54Z</time>
      </trkpt>
      <trkpt lat="45.91028" lon="4.73425">
        <ele>175</ele>
        <time>2018-07-06T09:15:55Z</time>
      </trkpt>
      <trkpt lat="45.91024" lon="4.73419">
        <ele>175</ele>
        <time>2018-07-06T09:15:56Z</time>
      </trkpt>
      <trkpt lat="45.91019" lon="4.73417">
        <ele>175</ele>
        <time>2018-07-06T09:15:57Z</time>
      </trkpt>
      <trkpt lat="45.91014" lon="4.73417">
        <ele>175</ele>
        <time>2018-07-06T09:15:58Z</time>
      </trkpt>
      <trkpt lat="45.91008" lon="4.73419">
        <ele>175</ele>
        <time>2018-07-06T09:15:59Z</time>
      </trkpt>
      <trkpt lat="45.91006" lon="4.73424">
        <ele>175</ele>
        <time>2018-07-06T09:16:00Z</time>
      </trkpt>
      <trkpt lat="45.91003" lon="4.7343">
        <ele>175</ele>
        <time>2018-07-06T09:16:01Z</time>
      </trkpt>
      <trkpt lat="45.91" lon="4.73436">
        <ele>175</ele>
        <time>2018-07-06T09:16:02Z</time>
      </trkpt>
      <trkpt lat="45.90996" lon="4.73444">
        <ele>175</ele>
        <time>2018-07-06T09:16:03Z</time>
      </trkpt>
      <trkpt lat="45.90991" lon="4.73449">
        <ele>175</ele>
        <time>2018-07-06T09:16:04Z</time>
      </trkpt>
      <trkpt lat="45.90984" lon="4.73451">
        <ele>175</ele>
        <time>2018-07-06T09:16:05Z</time>
      </trkpt>
      <trkpt lat="45.90978" lon="4.73454">
        <ele>175</ele>
        <time>2018-07-06T09:16:06Z</time>
      </trkpt>
      <trkpt lat="45.90971" lon="4.73456">
        <ele>175</ele>
        <time>2018-07-06T09:16:07Z</time>
      </trkpt>
      <trkpt lat="45.90965" lon="4.73458">
        <ele>175</ele>
        <time>2018-07-06T09:16:08Z</time>
      </trkpt>
      <trkpt lat="45.9096" lon="4.73461">
        <ele>175</ele>
        <time>2018-07-06T09:16:09Z</time>
      </trkpt>
      <trkpt lat="45.90954" lon="4.73463">
        <ele>175</ele>
        <time>2018-07-06T09:16:10Z</time>
      </trkpt>
      <trkpt lat="45.90949" lon="4.73467">
        <ele>175</ele>
        <time>2018-07-06T09:16:11Z</time>
      </trkpt>
      <trkpt lat="45.90943" lon="4.73469">
        <ele>175</ele>
        <time>2018-07-06T09:16:12Z</time>
      </trkpt>
      <trkpt lat="45.90939" lon="4.73473">
        <ele>175</ele>
        <time>2018-07-06T09:16:13Z</time>
      </trkpt>
      <trkpt lat="45.90933" lon="4.73475">
        <ele>175</ele>
        <time>2018-07-06T09:16:14Z</time>
      </trkpt>
      <trkpt lat="45.90928" lon="4.73477">
        <ele>175</ele>
        <time>2018-07-06T09:16:15Z</time>
      </trkpt>
      <trkpt lat="45.90921" lon="4.7348">
        <ele>175</ele>
        <time>2018-07-06T09:16:16Z</time>
      </trkpt>
      <trkpt lat="45.90915" lon="4.73483">
        <ele>175</ele>
        <time>2018-07-06T09:16:17Z</time>
      </trkpt>
      <trkpt lat="45.90908" lon="4.73486">
        <ele>175</ele>
        <time>2018-07-06T09:16:18Z</time>
      </trkpt>
      <trkpt lat="45.90902" lon="4.73488">
        <ele>175</ele>
        <time>2018-07-06T09:16:19Z</time>
      </trkpt>
      <trkpt lat="45.90896" lon="4.73491">
        <ele>175</ele>
        <time>2018-07-06T09:16:20Z</time>
      </trkpt>
      <trkpt lat="45.90889" lon="4.73494">
        <ele>175</ele>
        <time>2018-07-06T09:16:21Z</time>
      </trkpt>
      <trkpt lat="45.90883" lon="4.73496">
        <ele>175</ele>
        <time>2018-07-06T09:16:22Z</time>
      </trkpt>
      <trkpt lat="45.90878" lon="4.73499">
        <ele>175</ele>
        <time>2018-07-06T09:16:23Z</time>
      </trkpt>
      <trkpt lat="45.90871" lon="4.73501">
        <ele>174</ele>
        <time>2018-07-06T09:16:24Z</time>
      </trkpt>
      <trkpt lat="45.90865" lon="4.73503">
        <ele>174</ele>
        <time>2018-07-06T09:16:25Z</time>
      </trkpt>
      <trkpt lat="45.90861" lon="4.73507">
        <ele>174</ele>
        <time>2018-07-06T09:16:26Z</time>
      </trkpt>
      <trkpt lat="45.90855" lon="4.73509">
        <ele>174</ele>
        <time>2018-07-06T09:16:27Z</time>
      </trkpt>
      <trkpt lat="45.90849" lon="4.73512">
        <ele>174</ele>
        <time>2018-07-06T09:16:28Z</time>
      </trkpt>
      <trkpt lat="45.90843" lon="4.73513">
        <ele>174</ele>
        <time>2018-07-06T09:16:29Z</time>
      </trkpt>
      <trkpt lat="45.90837" lon="4.73515">
        <ele>174</ele>
        <time>2018-07-06T09:16:30Z</time>
      </trkpt>
      <trkpt lat="45.9083" lon="4.73518">
        <ele>175</ele>
        <time>2018-07-06T09:16:31Z</time>
      </trkpt>
      <trkpt lat="45.90825" lon="4.73521">
        <ele>175</ele>
        <time>2018-07-06T09:16:32Z</time>
      </trkpt>
      <trkpt lat="45.90819" lon="4.73523">
        <ele>175</ele>
        <time>2018-07-06T09:16:33Z</time>
      </trkpt>
      <trkpt lat="45.90813" lon="4.73526">
        <ele>175</ele>
        <time>2018-07-06T09:16:34Z</time>
      </trkpt>
      <trkpt lat="45.90807" lon="4.73528">
        <ele>175</ele>
        <time>2018-07-06T09:16:35Z</time>
      </trkpt>
      <trkpt lat="45.908" lon="4.73532">
        <ele>175</ele>
        <time>2018-07-06T09:16:36Z</time>
      </trkpt>
      <trkpt lat="45.90794" lon="4.73535">
        <ele>176</ele>
        <time>2018-07-06T09:16:37Z</time>
      </trkpt>
      <trkpt lat="45.9079" lon="4.73539">
        <ele>176</ele>
        <time>2018-07-06T09:16:38Z</time>
      </trkpt>
      <trkpt lat="45.90784" lon="4.73542">
        <ele>176</ele>
        <time>2018-07-06T09:16:39Z</time>
      </trkpt>
      <trkpt lat="45.90778" lon="4.73545">
        <ele>176</ele>
        <time>2018-07-06T09:16:40Z</time>
      </trkpt>
      <trkpt lat="45.90772" lon="4.73547">
        <ele>176</ele>
        <time>2018-07-06T09:16:41Z</time>
      </trkpt>
      <trkpt lat="45.90765" lon="4.7355">
        <ele>176</ele>
        <time>2018-07-06T09:16:42Z</time>
      </trkpt>
      <trkpt lat="45.90759" lon="4.73553">
        <ele>177</ele>
        <time>2018-07-06T09:16:43Z</time>
      </trkpt>
      <trkpt lat="45.90753" lon="4.73555">
        <ele>177</ele>
        <time>2018-07-06T09:16:44Z</time>
      </trkpt>
      <trkpt lat="45.90747" lon="4.73556">
        <ele>178</ele>
        <time>2018-07-06T09:16:45Z</time>
      </trkpt>
      <trkpt lat="45.90741" lon="4.73558">
        <ele>178</ele>
        <time>2018-07-06T09:16:46Z</time>
      </trkpt>
      <trkpt lat="45.90735" lon="4.73561">
        <ele>178</ele>
        <time>2018-07-06T09:16:47Z</time>
      </trkpt>
      <trkpt lat="45.9073" lon="4.73563">
        <ele>178</ele>
        <time>2018-07-06T09:16:48Z</time>
      </trkpt>
      <trkpt lat="45.90725" lon="4.73565">
        <ele>178</ele>
        <time>2018-07-06T09:16:49Z</time>
      </trkpt>
      <trkpt lat="45.9072" lon="4.73566">
        <ele>178</ele>
        <time>2018-07-06T09:16:50Z</time>
      </trkpt>
      <trkpt lat="45.90715" lon="4.73568">
        <ele>178</ele>
        <time>2018-07-06T09:16:51Z</time>
      </trkpt>
      <trkpt lat="45.9071" lon="4.73571">
        <ele>178</ele>
        <time>2018-07-06T09:16:52Z</time>
      </trkpt>
      <trkpt lat="45.90705" lon="4.73574">
        <ele>178</ele>
        <time>2018-07-06T09:16:53Z</time>
      </trkpt>
      <trkpt lat="45.90701" lon="4.73576">
        <ele>178</ele>
        <time>2018-07-06T09:16:54Z</time>
      </trkpt>
      <trkpt lat="45.90696" lon="4.73577">
        <ele>178</ele>
        <time>2018-07-06T09:16:55Z</time>
      </trkpt>
      <trkpt lat="45.90691" lon="4.73578">
        <ele>179</ele>
        <time>2018-07-06T09:16:56Z</time>
      </trkpt>
      <trkpt lat="45.90686" lon="4.73581">
        <ele>179</ele>
        <time>2018-07-06T09:16:57Z</time>
      </trkpt>
      <trkpt lat="45.90681" lon="4.73583">
        <ele>179</ele>
        <time>2018-07-06T09:16:58Z</time>
      </trkpt>
      <trkpt lat="45.90676" lon="4.73584">
        <ele>180</ele>
        <time>2018-07-06T09:16:59Z</time>
      </trkpt>
      <trkpt lat="45.90668" lon="4.73586">
        <ele>180</ele>
        <time>2018-07-06T09:17:01Z</time>
      </trkpt>
      <trkpt lat="45.90663" lon="4.73588">
        <ele>180</ele>
        <time>2018-07-06T09:17:02Z</time>
      </trkpt>
      <trkpt lat="45.90658" lon="4.7359">
        <ele>180</ele>
        <time>2018-07-06T09:17:03Z</time>
      </trkpt>
      <trkpt lat="45.90653" lon="4.73592">
        <ele>181</ele>
        <time>2018-07-06T09:17:04Z</time>
      </trkpt>
      <trkpt lat="45.90647" lon="4.73592">
        <ele>181</ele>
        <time>2018-07-06T09:17:05Z</time>
      </trkpt>
      <trkpt lat="45.90643" lon="4.73597">
        <ele>181</ele>
        <time>2018-07-06T09:17:06Z</time>
      </trkpt>
      <trkpt lat="45.90638" lon="4.73597">
        <ele>181</ele>
        <time>2018-07-06T09:17:07Z</time>
      </trkpt>
      <trkpt lat="45.90634" lon="4.736">
        <ele>181</ele>
        <time>2018-07-06T09:17:08Z</time>
      </trkpt>
      <trkpt lat="45.90629" lon="4.73602">
        <ele>181</ele>
        <time>2018-07-06T09:17:09Z</time>
      </trkpt>
      <trkpt lat="45.90623" lon="4.73605">
        <ele>181</ele>
        <time>2018-07-06T09:17:10Z</time>
      </trkpt>
      <trkpt lat="45.90617" lon="4.73607">
        <ele>181</ele>
        <time>2018-07-06T09:17:11Z</time>
      </trkpt>
      <trkpt lat="45.90612" lon="4.73608">
        <ele>181</ele>
        <time>2018-07-06T09:17:12Z</time>
      </trkpt>
      <trkpt lat="45.90607" lon="4.73611">
        <ele>180</ele>
        <time>2018-07-06T09:17:13Z</time>
      </trkpt>
      <trkpt lat="45.90603" lon="4.73613">
        <ele>180</ele>
        <time>2018-07-06T09:17:14Z</time>
      </trkpt>
      <trkpt lat="45.90598" lon="4.73615">
        <ele>180</ele>
        <time>2018-07-06T09:17:15Z</time>
      </trkpt>
      <trkpt lat="45.90594" lon="4.73618">
        <ele>180</ele>
        <time>2018-07-06T09:17:16Z</time>
      </trkpt>
      <trkpt lat="45.90586" lon="4.73622">
        <ele>181</ele>
        <time>2018-07-06T09:17:18Z</time>
      </trkpt>
      <trkpt lat="45.90582" lon="4.73624">
        <ele>179</ele>
        <time>2018-07-06T09:17:19Z</time>
      </trkpt>
      <trkpt lat="45.90577" lon="4.73625">
        <ele>179</ele>
        <time>2018-07-06T09:17:20Z</time>
      </trkpt>
      <trkpt lat="45.9057" lon="4.73627">
        <ele>179</ele>
        <time>2018-07-06T09:17:21Z</time>
      </trkpt>
      <trkpt lat="45.90565" lon="4.73629">
        <ele>179</ele>
        <time>2018-07-06T09:17:22Z</time>
      </trkpt>
      <trkpt lat="45.90559" lon="4.7363">
        <ele>179</ele>
        <time>2018-07-06T09:17:23Z</time>
      </trkpt>
      <trkpt lat="45.90554" lon="4.73634">
        <ele>179</ele>
        <time>2018-07-06T09:17:24Z</time>
      </trkpt>
      <trkpt lat="45.90548" lon="4.73635">
        <ele>178</ele>
        <time>2018-07-06T09:17:25Z</time>
      </trkpt>
      <trkpt lat="45.90543" lon="4.73637">
        <ele>178</ele>
        <time>2018-07-06T09:17:26Z</time>
      </trkpt>
      <trkpt lat="45.90538" lon="4.73639">
        <ele>178</ele>
        <time>2018-07-06T09:17:27Z</time>
      </trkpt>
      <trkpt lat="45.90533" lon="4.73641">
        <ele>178</ele>
        <time>2018-07-06T09:17:28Z</time>
      </trkpt>
      <trkpt lat="45.90528" lon="4.73643">
        <ele>178</ele>
        <time>2018-07-06T09:17:29Z</time>
      </trkpt>
      <trkpt lat="45.90521" lon="4.73646">
        <ele>178</ele>
        <time>2018-07-06T09:17:30Z</time>
      </trkpt>
      <trkpt lat="45.90516" lon="4.73648">
        <ele>178</ele>
        <time>2018-07-06T09:17:31Z</time>
      </trkpt>
      <trkpt lat="45.9051" lon="4.73651">
        <ele>178</ele>
        <time>2018-07-06T09:17:32Z</time>
      </trkpt>
      <trkpt lat="45.90504" lon="4.73653">
        <ele>178</ele>
        <time>2018-07-06T09:17:33Z</time>
      </trkpt>
      <trkpt lat="45.90498" lon="4.73656">
        <ele>177</ele>
        <time>2018-07-06T09:17:34Z</time>
      </trkpt>
      <trkpt lat="45.90493" lon="4.73658">
        <ele>177</ele>
        <time>2018-07-06T09:17:35Z</time>
      </trkpt>
      <trkpt lat="45.90488" lon="4.73659">
        <ele>177</ele>
        <time>2018-07-06T09:17:36Z</time>
      </trkpt>
      <trkpt lat="45.90483" lon="4.73662">
        <ele>177</ele>
        <time>2018-07-06T09:17:37Z</time>
      </trkpt>
      <trkpt lat="45.90477" lon="4.73664">
        <ele>177</ele>
        <time>2018-07-06T09:17:38Z</time>
      </trkpt>
      <trkpt lat="45.90472" lon="4.73667">
        <ele>176</ele>
        <time>2018-07-06T09:17:39Z</time>
      </trkpt>
      <trkpt lat="45.90465" lon="4.7367">
        <ele>176</ele>
        <time>2018-07-06T09:17:40Z</time>
      </trkpt>
      <trkpt lat="45.9046" lon="4.73674">
        <ele>176</ele>
        <time>2018-07-06T09:17:41Z</time>
      </trkpt>
      <trkpt lat="45.90454" lon="4.73677">
        <ele>176</ele>
        <time>2018-07-06T09:17:42Z</time>
      </trkpt>
      <trkpt lat="45.90449" lon="4.73678">
        <ele>176</ele>
        <time>2018-07-06T09:17:43Z</time>
      </trkpt>
      <trkpt lat="45.90443" lon="4.73681">
        <ele>176</ele>
        <time>2018-07-06T09:17:44Z</time>
      </trkpt>
      <trkpt lat="45.90437" lon="4.73683">
        <ele>176</ele>
        <time>2018-07-06T09:17:45Z</time>
      </trkpt>
      <trkpt lat="45.90431" lon="4.73686">
        <ele>176</ele>
        <time>2018-07-06T09:17:46Z</time>
      </trkpt>
      <trkpt lat="45.90425" lon="4.73689">
        <ele>176</ele>
        <time>2018-07-06T09:17:47Z</time>
      </trkpt>
      <trkpt lat="45.90418" lon="4.73692">
        <ele>176</ele>
        <time>2018-07-06T09:17:48Z</time>
      </trkpt>
      <trkpt lat="45.90412" lon="4.73696">
        <ele>177</ele>
        <time>2018-07-06T09:17:49Z</time>
      </trkpt>
      <trkpt lat="45.90405" lon="4.73699">
        <ele>177</ele>
        <time>2018-07-06T09:17:50Z</time>
      </trkpt>
      <trkpt lat="45.90398" lon="4.73701">
        <ele>177</ele>
        <time>2018-07-06T09:17:51Z</time>
      </trkpt>
      <trkpt lat="45.9039" lon="4.73704">
        <ele>177</ele>
        <time>2018-07-06T09:17:52Z</time>
      </trkpt>
      <trkpt lat="45.90384" lon="4.73707">
        <ele>177</ele>
        <time>2018-07-06T09:17:53Z</time>
      </trkpt>
      <trkpt lat="45.90376" lon="4.73709">
        <ele>177</ele>
        <time>2018-07-06T09:17:54Z</time>
      </trkpt>
      <trkpt lat="45.90367" lon="4.73712">
        <ele>177</ele>
        <time>2018-07-06T09:17:55Z</time>
      </trkpt>
      <trkpt lat="45.90359" lon="4.73717">
        <ele>177</ele>
        <time>2018-07-06T09:17:56Z</time>
      </trkpt>
      <trkpt lat="45.90351" lon="4.73719">
        <ele>177</ele>
        <time>2018-07-06T09:17:57Z</time>
      </trkpt>
      <trkpt lat="45.90343" lon="4.73722">
        <ele>177</ele>
        <time>2018-07-06T09:17:58Z</time>
      </trkpt>
      <trkpt lat="45.90337" lon="4.73726">
        <ele>177</ele>
        <time>2018-07-06T09:17:59Z</time>
      </trkpt>
      <trkpt lat="45.90329" lon="4.73728">
        <ele>177</ele>
        <time>2018-07-06T09:18:00Z</time>
      </trkpt>
      <trkpt lat="45.90321" lon="4.73732">
        <ele>177</ele>
        <time>2018-07-06T09:18:01Z</time>
      </trkpt>
      <trkpt lat="45.90314" lon="4.73734">
        <ele>177</ele>
        <time>2018-07-06T09:18:02Z</time>
      </trkpt>
      <trkpt lat="45.90306" lon="4.73738">
        <ele>177</ele>
        <time>2018-07-06T09:18:03Z</time>
      </trkpt>
      <trkpt lat="45.90301" lon="4.73742">
        <ele>177</ele>
        <time>2018-07-06T09:18:04Z</time>
      </trkpt>
      <trkpt lat="45.90293" lon="4.73747">
        <ele>177</ele>
        <time>2018-07-06T09:18:05Z</time>
      </trkpt>
      <trkpt lat="45.90286" lon="4.73751">
        <ele>177</ele>
        <time>2018-07-06T09:18:06Z</time>
      </trkpt>
      <trkpt lat="45.9028" lon="4.73754">
        <ele>177</ele>
        <time>2018-07-06T09:18:07Z</time>
      </trkpt>
      <trkpt lat="45.90273" lon="4.73758">
        <ele>177</ele>
        <time>2018-07-06T09:18:08Z</time>
      </trkpt>
      <trkpt lat="45.90267" lon="4.7376">
        <ele>177</ele>
        <time>2018-07-06T09:18:09Z</time>
      </trkpt>
      <trkpt lat="45.9026" lon="4.73763">
        <ele>177</ele>
        <time>2018-07-06T09:18:10Z</time>
      </trkpt>
      <trkpt lat="45.90254" lon="4.73766">
        <ele>177</ele>
        <time>2018-07-06T09:18:11Z</time>
      </trkpt>
      <trkpt lat="45.90247" lon="4.73769">
        <ele>178</ele>
        <time>2018-07-06T09:18:12Z</time>
      </trkpt>
      <trkpt lat="45.90242" lon="4.73773">
        <ele>177</ele>
        <time>2018-07-06T09:18:13Z</time>
      </trkpt>
      <trkpt lat="45.90236" lon="4.73779">
        <ele>177</ele>
        <time>2018-07-06T09:18:14Z</time>
      </trkpt>
      <trkpt lat="45.90229" lon="4.73782">
        <ele>177</ele>
        <time>2018-07-06T09:18:15Z</time>
      </trkpt>
      <trkpt lat="45.90222" lon="4.73784">
        <ele>177</ele>
        <time>2018-07-06T09:18:16Z</time>
      </trkpt>
      <trkpt lat="45.90215" lon="4.73787">
        <ele>177</ele>
        <time>2018-07-06T09:18:17Z</time>
      </trkpt>
      <trkpt lat="45.90207" lon="4.73789">
        <ele>177</ele>
        <time>2018-07-06T09:18:18Z</time>
      </trkpt>
      <trkpt lat="45.90201" lon="4.73792">
        <ele>177</ele>
        <time>2018-07-06T09:18:19Z</time>
      </trkpt>
      <trkpt lat="45.90195" lon="4.73795">
        <ele>177</ele>
        <time>2018-07-06T09:18:20Z</time>
      </trkpt>
      <trkpt lat="45.90188" lon="4.73797">
        <ele>177</ele>
        <time>2018-07-06T09:18:21Z</time>
      </trkpt>
      <trkpt lat="45.90182" lon="4.73799">
        <ele>177</ele>
        <time>2018-07-06T09:18:22Z</time>
      </trkpt>
      <trkpt lat="45.90176" lon="4.73801">
        <ele>177</ele>
        <time>2018-07-06T09:18:23Z</time>
      </trkpt>
      <trkpt lat="45.90168" lon="4.73804">
        <ele>177</ele>
        <time>2018-07-06T09:18:24Z</time>
      </trkpt>
      <trkpt lat="45.90162" lon="4.73809">
        <ele>176</ele>
        <time>2018-07-06T09:18:25Z</time>
      </trkpt>
      <trkpt lat="45.90155" lon="4.73812">
        <ele>176</ele>
        <time>2018-07-06T09:18:26Z</time>
      </trkpt>
      <trkpt lat="45.9015" lon="4.73814">
        <ele>176</ele>
        <time>2018-07-06T09:18:27Z</time>
      </trkpt>
      <trkpt lat="45.90144" lon="4.73817">
        <ele>177</ele>
        <time>2018-07-06T09:18:28Z</time>
      </trkpt>
      <trkpt lat="45.90137" lon="4.73819">
        <ele>177</ele>
        <time>2018-07-06T09:18:29Z</time>
      </trkpt>
      <trkpt lat="45.9013" lon="4.73821">
        <ele>177</ele>
        <time>2018-07-06T09:18:30Z</time>
      </trkpt>
      <trkpt lat="45.90123" lon="4.73825">
        <ele>177</ele>
        <time>2018-07-06T09:18:31Z</time>
      </trkpt>
      <trkpt lat="45.90117" lon="4.73826">
        <ele>177</ele>
        <time>2018-07-06T09:18:32Z</time>
      </trkpt>
      <trkpt lat="45.9011" lon="4.73829">
        <ele>177</ele>
        <time>2018-07-06T09:18:33Z</time>
      </trkpt>
      <trkpt lat="45.90103" lon="4.73833">
        <ele>177</ele>
        <time>2018-07-06T09:18:34Z</time>
      </trkpt>
      <trkpt lat="45.90096" lon="4.73836">
        <ele>178</ele>
        <time>2018-07-06T09:18:35Z</time>
      </trkpt>
      <trkpt lat="45.9009" lon="4.73838">
        <ele>178</ele>
        <time>2018-07-06T09:18:36Z</time>
      </trkpt>
      <trkpt lat="45.90083" lon="4.73841">
        <ele>178</ele>
        <time>2018-07-06T09:18:37Z</time>
      </trkpt>
      <trkpt lat="45.90076" lon="4.73843">
        <ele>178</ele>
        <time>2018-07-06T09:18:38Z</time>
      </trkpt>
      <trkpt lat="45.90071" lon="4.73846">
        <ele>178</ele>
        <time>2018-07-06T09:18:39Z</time>
      </trkpt>
      <trkpt lat="45.90064" lon="4.7385">
        <ele>178</ele>
        <time>2018-07-06T09:18:40Z</time>
      </trkpt>
      <trkpt lat="45.90058" lon="4.73852">
        <ele>178</ele>
        <time>2018-07-06T09:18:41Z</time>
      </trkpt>
      <trkpt lat="45.90051" lon="4.73855">
        <ele>178</ele>
        <time>2018-07-06T09:18:42Z</time>
      </trkpt>
      <trkpt lat="45.90045" lon="4.73858">
        <ele>178</ele>
        <time>2018-07-06T09:18:43Z</time>
      </trkpt>
      <trkpt lat="45.90039" lon="4.73859">
        <ele>178</ele>
        <time>2018-07-06T09:18:44Z</time>
      </trkpt>
      <trkpt lat="45.90034" lon="4.73862">
        <ele>178</ele>
        <time>2018-07-06T09:18:45Z</time>
      </trkpt>
      <trkpt lat="45.90027" lon="4.73865">
        <ele>178</ele>
        <time>2018-07-06T09:18:46Z</time>
      </trkpt>
      <trkpt lat="45.9002" lon="4.73868">
        <ele>178</ele>
        <time>2018-07-06T09:18:47Z</time>
      </trkpt>
      <trkpt lat="45.90014" lon="4.73867">
        <ele>178</ele>
        <time>2018-07-06T09:18:48Z</time>
      </trkpt>
      <trkpt lat="45.90008" lon="4.7387">
        <ele>178</ele>
        <time>2018-07-06T09:18:49Z</time>
      </trkpt>
      <trkpt lat="45.90003" lon="4.73871">
        <ele>178</ele>
        <time>2018-07-06T09:18:50Z</time>
      </trkpt>
      <trkpt lat="45.89997" lon="4.73873">
        <ele>178</ele>
        <time>2018-07-06T09:18:51Z</time>
      </trkpt>
      <trkpt lat="45.8999" lon="4.73875">
        <ele>178</ele>
        <time>2018-07-06T09:18:52Z</time>
      </trkpt>
      <trkpt lat="45.89983" lon="4.73878">
        <ele>178</ele>
        <time>2018-07-06T09:18:53Z</time>
      </trkpt>
      <trkpt lat="45.89977" lon="4.7388">
        <ele>178</ele>
        <time>2018-07-06T09:18:54Z</time>
      </trkpt>
      <trkpt lat="45.89971" lon="4.73882">
        <ele>178</ele>
        <time>2018-07-06T09:18:55Z</time>
      </trkpt>
      <trkpt lat="45.89966" lon="4.73884">
        <ele>178</ele>
        <time>2018-07-06T09:18:56Z</time>
      </trkpt>
      <trkpt lat="45.89961" lon="4.73887">
        <ele>178</ele>
        <time>2018-07-06T09:18:57Z</time>
      </trkpt>
      <trkpt lat="45.89956" lon="4.73889">
        <ele>178</ele>
        <time>2018-07-06T09:18:58Z</time>
      </trkpt>
      <trkpt lat="45.89949" lon="4.73893">
        <ele>178</ele>
        <time>2018-07-06T09:18:59Z</time>
      </trkpt>
      <trkpt lat="45.89943" lon="4.73894">
        <ele>178</ele>
        <time>2018-07-06T09:19:00Z</time>
      </trkpt>
      <trkpt lat="45.89937" lon="4.73897">
        <ele>178</ele>
        <time>2018-07-06T09:19:01Z</time>
      </trkpt>
      <trkpt lat="45.89931" lon="4.739">
        <ele>178</ele>
        <time>2018-07-06T09:19:02Z</time>
      </trkpt>
      <trkpt lat="45.89924" lon="4.73902">
        <ele>178</ele>
        <time>2018-07-06T09:19:03Z</time>
      </trkpt>
      <trkpt lat="45.89916" lon="4.73905">
        <ele>178</ele>
        <time>2018-07-06T09:19:04Z</time>
      </trkpt>
      <trkpt lat="45.8991" lon="4.73906">
        <ele>178</ele>
        <time>2018-07-06T09:19:05Z</time>
      </trkpt>
      <trkpt lat="45.89904" lon="4.73909">
        <ele>178</ele>
        <time>2018-07-06T09:19:06Z</time>
      </trkpt>
      <trkpt lat="45.89896" lon="4.73911">
        <ele>178</ele>
        <time>2018-07-06T09:19:07Z</time>
      </trkpt>
      <trkpt lat="45.89891" lon="4.73914">
        <ele>179</ele>
        <time>2018-07-06T09:19:08Z</time>
      </trkpt>
      <trkpt lat="45.89885" lon="4.73916">
        <ele>179</ele>
        <time>2018-07-06T09:19:09Z</time>
      </trkpt>
      <trkpt lat="45.8988" lon="4.73917">
        <ele>179</ele>
        <time>2018-07-06T09:19:10Z</time>
      </trkpt>
      <trkpt lat="45.89875" lon="4.73918">
        <ele>179</ele>
        <time>2018-07-06T09:19:11Z</time>
      </trkpt>
      <trkpt lat="45.89872" lon="4.73922">
        <ele>179</ele>
        <time>2018-07-06T09:19:12Z</time>
      </trkpt>
      <trkpt lat="45.89864" lon="4.73923">
        <ele>179</ele>
        <time>2018-07-06T09:19:13Z</time>
      </trkpt>
      <trkpt lat="45.89858" lon="4.73926">
        <ele>179</ele>
        <time>2018-07-06T09:19:14Z</time>
      </trkpt>
      <trkpt lat="45.89851" lon="4.73928">
        <ele>179</ele>
        <time>2018-07-06T09:19:15Z</time>
      </trkpt>
      <trkpt lat="45.89845" lon="4.73931">
        <ele>179</ele>
        <time>2018-07-06T09:19:16Z</time>
      </trkpt>
      <trkpt lat="45.89838" lon="4.73933">
        <ele>179</ele>
        <time>2018-07-06T09:19:17Z</time>
      </trkpt>
      <trkpt lat="45.89831" lon="4.73936">
        <ele>179</ele>
        <time>2018-07-06T09:19:18Z</time>
      </trkpt>
      <trkpt lat="45.89826" lon="4.73938">
        <ele>179</ele>
        <time>2018-07-06T09:19:19Z</time>
      </trkpt>
      <trkpt lat="45.8982" lon="4.73941">
        <ele>179</ele>
        <time>2018-07-06T09:19:20Z</time>
      </trkpt>
      <trkpt lat="45.89814" lon="4.73944">
        <ele>179</ele>
        <time>2018-07-06T09:19:21Z</time>
      </trkpt>
      <trkpt lat="45.89807" lon="4.73947">
        <ele>179</ele>
        <time>2018-07-06T09:19:22Z</time>
      </trkpt>
      <trkpt lat="45.898" lon="4.73952">
        <ele>179</ele>
        <time>2018-07-06T09:19:23Z</time>
      </trkpt>
      <trkpt lat="45.89793" lon="4.73954">
        <ele>179</ele>
        <time>2018-07-06T09:19:24Z</time>
      </trkpt>
      <trkpt lat="45.89787" lon="4.73957">
        <ele>179</ele>
        <time>2018-07-06T09:19:25Z</time>
      </trkpt>
      <trkpt lat="45.89781" lon="4.73959">
        <ele>179</ele>
        <time>2018-07-06T09:19:26Z</time>
      </trkpt>
      <trkpt lat="45.89775" lon="4.73963">
        <ele>179</ele>
        <time>2018-07-06T09:19:27Z</time>
      </trkpt>
      <trkpt lat="45.89768" lon="4.73964">
        <ele>179</ele>
        <time>2018-07-06T09:19:28Z</time>
      </trkpt>
      <trkpt lat="45.89762" lon="4.73967">
        <ele>178</ele>
        <time>2018-07-06T09:19:29Z</time>
      </trkpt>
      <trkpt lat="45.89756" lon="4.73971">
        <ele>178</ele>
        <time>2018-07-06T09:19:30Z</time>
      </trkpt>
      <trkpt lat="45.89749" lon="4.73974">
        <ele>178</ele>
        <time>2018-07-06T09:19:31Z</time>
      </trkpt>
      <trkpt lat="45.89744" lon="4.73976">
        <ele>178</ele>
        <time>2018-07-06T09:19:32Z</time>
      </trkpt>
      <trkpt lat="45.89737" lon="4.73979">
        <ele>178</ele>
        <time>2018-07-06T09:19:33Z</time>
      </trkpt>
      <trkpt lat="45.89731" lon="4.73982">
        <ele>178</ele>
        <time>2018-07-06T09:19:34Z</time>
      </trkpt>
      <trkpt lat="45.89724" lon="4.73985">
        <ele>178</ele>
        <time>2018-07-06T09:19:35Z</time>
      </trkpt>
      <trkpt lat="45.8972" lon="4.73986">
        <ele>178</ele>
        <time>2018-07-06T09:19:36Z</time>
      </trkpt>
      <trkpt lat="45.89712" lon="4.73988">
        <ele>178</ele>
        <time>2018-07-06T09:19:37Z</time>
      </trkpt>
      <trkpt lat="45.89707" lon="4.73992">
        <ele>178</ele>
        <time>2018-07-06T09:19:38Z</time>
      </trkpt>
      <trkpt lat="45.89698" lon="4.73994">
        <ele>178</ele>
        <time>2018-07-06T09:19:39Z</time>
      </trkpt>
      <trkpt lat="45.89691" lon="4.73997">
        <ele>179</ele>
        <time>2018-07-06T09:19:40Z</time>
      </trkpt>
      <trkpt lat="45.89686" lon="4.74001">
        <ele>179</ele>
        <time>2018-07-06T09:19:41Z</time>
      </trkpt>
      <trkpt lat="45.89679" lon="4.74004">
        <ele>179</ele>
        <time>2018-07-06T09:19:42Z</time>
      </trkpt>
      <trkpt lat="45.89673" lon="4.74009">
        <ele>179</ele>
        <time>2018-07-06T09:19:43Z</time>
      </trkpt>
      <trkpt lat="45.89666" lon="4.74012">
        <ele>179</ele>
        <time>2018-07-06T09:19:44Z</time>
      </trkpt>
      <trkpt lat="45.8966" lon="4.74014">
        <ele>179</ele>
        <time>2018-07-06T09:19:45Z</time>
      </trkpt>
      <trkpt lat="45.89654" lon="4.74016">
        <ele>180</ele>
        <time>2018-07-06T09:19:46Z</time>
      </trkpt>
      <trkpt lat="45.89649" lon="4.74019">
        <ele>180</ele>
        <time>2018-07-06T09:19:47Z</time>
      </trkpt>
      <trkpt lat="45.89643" lon="4.74021">
        <ele>180</ele>
        <time>2018-07-06T09:19:48Z</time>
      </trkpt>
      <trkpt lat="45.89637" lon="4.74023">
        <ele>180</ele>
        <time>2018-07-06T09:19:49Z</time>
      </trkpt>
      <trkpt lat="45.89632" lon="4.74024">
        <ele>180</ele>
        <time>2018-07-06T09:19:50Z</time>
      </trkpt>
      <trkpt lat="45.89627" lon="4.74026">
        <ele>180</ele>
        <time>2018-07-06T09:19:51Z</time>
      </trkpt>
      <trkpt lat="45.89622" lon="4.74029">
        <ele>180</ele>
        <time>2018-07-06T09:19:52Z</time>
      </trkpt>
      <trkpt lat="45.89618" lon="4.74031">
        <ele>180</ele>
        <time>2018-07-06T09:19:53Z</time>
      </trkpt>
      <trkpt lat="45.89612" lon="4.74036">
        <ele>180</ele>
        <time>2018-07-06T09:19:54Z</time>
      </trkpt>
      <trkpt lat="45.89607" lon="4.74037">
        <ele>180</ele>
        <time>2018-07-06T09:19:55Z</time>
      </trkpt>
      <trkpt lat="45.896" lon="4.74042">
        <ele>180</ele>
        <time>2018-07-06T09:19:56Z</time>
      </trkpt>
      <trkpt lat="45.89595" lon="4.74045">
        <ele>180</ele>
        <time>2018-07-06T09:19:57Z</time>
      </trkpt>
      <trkpt lat="45.89589" lon="4.74048">
        <ele>180</ele>
        <time>2018-07-06T09:19:58Z</time>
      </trkpt>
      <trkpt lat="45.89583" lon="4.7405">
        <ele>181</ele>
        <time>2018-07-06T09:19:59Z</time>
      </trkpt>
      <trkpt lat="45.89577" lon="4.74053">
        <ele>181</ele>
        <time>2018-07-06T09:20:00Z</time>
      </trkpt>
      <trkpt lat="45.8957" lon="4.74056">
        <ele>181</ele>
        <time>2018-07-06T09:20:01Z</time>
      </trkpt>
      <trkpt lat="45.89564" lon="4.74058">
        <ele>181</ele>
        <time>2018-07-06T09:20:02Z</time>
      </trkpt>
      <trkpt lat="45.89559" lon="4.74059">
        <ele>181</ele>
        <time>2018-07-06T09:20:03Z</time>
      </trkpt>
      <trkpt lat="45.89553" lon="4.74061">
        <ele>181</ele>
        <time>2018-07-06T09:20:04Z</time>
      </trkpt>
      <trkpt lat="45.89548" lon="4.74063">
        <ele>181</ele>
        <time>2018-07-06T09:20:05Z</time>
      </trkpt>
      <trkpt lat="45.89541" lon="4.74064">
        <ele>181</ele>
        <time>2018-07-06T09:20:06Z</time>
      </trkpt>
      <trkpt lat="45.89535" lon="4.74066">
        <ele>181</ele>
        <time>2018-07-06T09:20:07Z</time>
      </trkpt>
      <trkpt lat="45.89531" lon="4.74068">
        <ele>181</ele>
        <time>2018-07-06T09:20:08Z</time>
      </trkpt>
      <trkpt lat="45.89525" lon="4.74069">
        <ele>181</ele>
        <time>2018-07-06T09:20:09Z</time>
      </trkpt>
      <trkpt lat="45.89519" lon="4.74073">
        <ele>181</ele>
        <time>2018-07-06T09:20:10Z</time>
      </trkpt>
      <trkpt lat="45.89512" lon="4.74076">
        <ele>181</ele>
        <time>2018-07-06T09:20:11Z</time>
      </trkpt>
      <trkpt lat="45.89507" lon="4.74078">
        <ele>181</ele>
        <time>2018-07-06T09:20:12Z</time>
      </trkpt>
      <trkpt lat="45.89502" lon="4.7408">
        <ele>181</ele>
        <time>2018-07-06T09:20:13Z</time>
      </trkpt>
      <trkpt lat="45.89497" lon="4.74083">
        <ele>181</ele>
        <time>2018-07-06T09:20:14Z</time>
      </trkpt>
      <trkpt lat="45.89492" lon="4.74085">
        <ele>181</ele>
        <time>2018-07-06T09:20:15Z</time>
      </trkpt>
      <trkpt lat="45.89485" lon="4.74087">
        <ele>182</ele>
        <time>2018-07-06T09:20:16Z</time>
      </trkpt>
      <trkpt lat="45.89478" lon="4.74089">
        <ele>182</ele>
        <time>2018-07-06T09:20:17Z</time>
      </trkpt>
      <trkpt lat="45.89472" lon="4.74092">
        <ele>182</ele>
        <time>2018-07-06T09:20:18Z</time>
      </trkpt>
      <trkpt lat="45.89465" lon="4.74093">
        <ele>182</ele>
        <time>2018-07-06T09:20:19Z</time>
      </trkpt>
      <trkpt lat="45.89459" lon="4.74096">
        <ele>182</ele>
        <time>2018-07-06T09:20:20Z</time>
      </trkpt>
      <trkpt lat="45.89454" lon="4.74099">
        <ele>182</ele>
        <time>2018-07-06T09:20:21Z</time>
      </trkpt>
      <trkpt lat="45.89447" lon="4.74102">
        <ele>182</ele>
        <time>2018-07-06T09:20:22Z</time>
      </trkpt>
      <trkpt lat="45.89441" lon="4.74105">
        <ele>183</ele>
        <time>2018-07-06T09:20:23Z</time>
      </trkpt>
      <trkpt lat="45.89435" lon="4.74108">
        <ele>183</ele>
        <time>2018-07-06T09:20:24Z</time>
      </trkpt>
      <trkpt lat="45.89429" lon="4.7411">
        <ele>183</ele>
        <time>2018-07-06T09:20:25Z</time>
      </trkpt>
      <trkpt lat="45.89423" lon="4.74112">
        <ele>183</ele>
        <time>2018-07-06T09:20:26Z</time>
      </trkpt>
      <trkpt lat="45.89417" lon="4.74114">
        <ele>183</ele>
        <time>2018-07-06T09:20:27Z</time>
      </trkpt>
      <trkpt lat="45.89413" lon="4.74118">
        <ele>184</ele>
        <time>2018-07-06T09:20:28Z</time>
      </trkpt>
      <trkpt lat="45.89407" lon="4.74121">
        <ele>184</ele>
        <time>2018-07-06T09:20:29Z</time>
      </trkpt>
      <trkpt lat="45.89401" lon="4.74124">
        <ele>184</ele>
        <time>2018-07-06T09:20:30Z</time>
      </trkpt>
      <trkpt lat="45.89395" lon="4.74126">
        <ele>184</ele>
        <time>2018-07-06T09:20:31Z</time>
      </trkpt>
      <trkpt lat="45.89389" lon="4.74128">
        <ele>184</ele>
        <time>2018-07-06T09:20:32Z</time>
      </trkpt>
      <trkpt lat="45.89383" lon="4.74132">
        <ele>184</ele>
        <time>2018-07-06T09:20:33Z</time>
      </trkpt>
      <trkpt lat="45.89377" lon="4.74135">
        <ele>184</ele>
        <time>2018-07-06T09:20:34Z</time>
      </trkpt>
      <trkpt lat="45.89372" lon="4.74137">
        <ele>184</ele>
        <time>2018-07-06T09:20:35Z</time>
      </trkpt>
      <trkpt lat="45.89365" lon="4.7414">
        <ele>184</ele>
        <time>2018-07-06T09:20:36Z</time>
      </trkpt>
      <trkpt lat="45.89359" lon="4.74143">
        <ele>184</ele>
        <time>2018-07-06T09:20:37Z</time>
      </trkpt>
      <trkpt lat="45.89353" lon="4.74145">
        <ele>185</ele>
        <time>2018-07-06T09:20:38Z</time>
      </trkpt>
      <trkpt lat="45.89348" lon="4.74147">
        <ele>185</ele>
        <time>2018-07-06T09:20:39Z</time>
      </trkpt>
      <trkpt lat="45.89342" lon="4.7415">
        <ele>185</ele>
        <time>2018-07-06T09:20:40Z</time>
      </trkpt>
      <trkpt lat="45.89336" lon="4.74152">
        <ele>185</ele>
        <time>2018-07-06T09:20:41Z</time>
      </trkpt>
      <trkpt lat="45.89329" lon="4.74153">
        <ele>185</ele>
        <time>2018-07-06T09:20:42Z</time>
      </trkpt>
      <trkpt lat="45.89323" lon="4.74155">
        <ele>185</ele>
        <time>2018-07-06T09:20:43Z</time>
      </trkpt>
      <trkpt lat="45.89317" lon="4.74158">
        <ele>185</ele>
        <time>2018-07-06T09:20:44Z</time>
      </trkpt>
      <trkpt lat="45.89312" lon="4.74159">
        <ele>185</ele>
        <time>2018-07-06T09:20:45Z</time>
      </trkpt>
      <trkpt lat="45.89307" lon="4.7416">
        <ele>185</ele>
        <time>2018-07-06T09:20:46Z</time>
      </trkpt>
      <trkpt lat="45.89303" lon="4.74162">
        <ele>185</ele>
        <time>2018-07-06T09:20:47Z</time>
      </trkpt>
      <trkpt lat="45.89297" lon="4.74163">
        <ele>185</ele>
        <time>2018-07-06T09:20:48Z</time>
      </trkpt>
      <trkpt lat="45.89292" lon="4.74165">
        <ele>185</ele>
        <time>2018-07-06T09:20:49Z</time>
      </trkpt>
      <trkpt lat="45.89287" lon="4.74168">
        <ele>186</ele>
        <time>2018-07-06T09:20:50Z</time>
      </trkpt>
      <trkpt lat="45.89281" lon="4.74171">
        <ele>186</ele>
        <time>2018-07-06T09:20:51Z</time>
      </trkpt>
      <trkpt lat="45.89275" lon="4.74173">
        <ele>186</ele>
        <time>2018-07-06T09:20:52Z</time>
      </trkpt>
      <trkpt lat="45.8927" lon="4.74175">
        <ele>186</ele>
        <time>2018-07-06T09:20:53Z</time>
      </trkpt>
      <trkpt lat="45.89263" lon="4.74177">
        <ele>186</ele>
        <time>2018-07-06T09:20:54Z</time>
      </trkpt>
      <trkpt lat="45.89257" lon="4.7418">
        <ele>185</ele>
        <time>2018-07-06T09:20:55Z</time>
      </trkpt>
      <trkpt lat="45.89252" lon="4.74183">
        <ele>186</ele>
        <time>2018-07-06T09:20:56Z</time>
      </trkpt>
      <trkpt lat="45.89246" lon="4.74186">
        <ele>186</ele>
        <time>2018-07-06T09:20:57Z</time>
      </trkpt>
      <trkpt lat="45.89238" lon="4.74189">
        <ele>186</ele>
        <time>2018-07-06T09:20:58Z</time>
      </trkpt>
      <trkpt lat="45.8923" lon="4.74191">
        <ele>186</ele>
        <time>2018-07-06T09:20:59Z</time>
      </trkpt>
      <trkpt lat="45.89223" lon="4.74194">
        <ele>186</ele>
        <time>2018-07-06T09:21:00Z</time>
      </trkpt>
      <trkpt lat="45.89218" lon="4.74197">
        <ele>186</ele>
        <time>2018-07-06T09:21:01Z</time>
      </trkpt>
      <trkpt lat="45.89213" lon="4.742">
        <ele>186</ele>
        <time>2018-07-06T09:21:02Z</time>
      </trkpt>
      <trkpt lat="45.89205" lon="4.74204">
        <ele>186</ele>
        <time>2018-07-06T09:21:03Z</time>
      </trkpt>
      <trkpt lat="45.89201" lon="4.74207">
        <ele>186</ele>
        <time>2018-07-06T09:21:04Z</time>
      </trkpt>
      <trkpt lat="45.89194" lon="4.74207">
        <ele>186</ele>
        <time>2018-07-06T09:21:05Z</time>
      </trkpt>
      <trkpt lat="45.89186" lon="4.74207">
        <ele>186</ele>
        <time>2018-07-06T09:21:06Z</time>
      </trkpt>
      <trkpt lat="45.89184" lon="4.74211">
        <ele>186</ele>
        <time>2018-07-06T09:21:07Z</time>
      </trkpt>
      <trkpt lat="45.89178" lon="4.74212">
        <ele>186</ele>
        <time>2018-07-06T09:21:08Z</time>
      </trkpt>
      <trkpt lat="45.89172" lon="4.74217">
        <ele>186</ele>
        <time>2018-07-06T09:21:09Z</time>
      </trkpt>
      <trkpt lat="45.89164" lon="4.74218">
        <ele>186</ele>
        <time>2018-07-06T09:21:10Z</time>
      </trkpt>
      <trkpt lat="45.89155" lon="4.74219">
        <ele>186</ele>
        <time>2018-07-06T09:21:11Z</time>
      </trkpt>
      <trkpt lat="45.89148" lon="4.74221">
        <ele>186</ele>
        <time>2018-07-06T09:21:12Z</time>
      </trkpt>
      <trkpt lat="45.89142" lon="4.74225">
        <ele>186</ele>
        <time>2018-07-06T09:21:13Z</time>
      </trkpt>
      <trkpt lat="45.89135" lon="4.74228">
        <ele>186</ele>
        <time>2018-07-06T09:21:14Z</time>
      </trkpt>
      <trkpt lat="45.8913" lon="4.7423">
        <ele>186</ele>
        <time>2018-07-06T09:21:15Z</time>
      </trkpt>
      <trkpt lat="45.89125" lon="4.74232">
        <ele>186</ele>
        <time>2018-07-06T09:21:16Z</time>
      </trkpt>
      <trkpt lat="45.89119" lon="4.74234">
        <ele>186</ele>
        <time>2018-07-06T09:21:17Z</time>
      </trkpt>
      <trkpt lat="45.89114" lon="4.74236">
        <ele>186</ele>
        <time>2018-07-06T09:21:18Z</time>
      </trkpt>
      <trkpt lat="45.89109" lon="4.74237">
        <ele>186</ele>
        <time>2018-07-06T09:21:19Z</time>
      </trkpt>
      <trkpt lat="45.89105" lon="4.74241">
        <ele>186</ele>
        <time>2018-07-06T09:21:20Z</time>
      </trkpt>
      <trkpt lat="45.89099" lon="4.74242">
        <ele>186</ele>
        <time>2018-07-06T09:21:21Z</time>
      </trkpt>
      <trkpt lat="45.89093" lon="4.74244">
        <ele>186</ele>
        <time>2018-07-06T09:21:22Z</time>
      </trkpt>
      <trkpt lat="45.89087" lon="4.74246">
        <ele>186</ele>
        <time>2018-07-06T09:21:23Z</time>
      </trkpt>
      <trkpt lat="45.89081" lon="4.74248">
        <ele>186</ele>
        <time>2018-07-06T09:21:24Z</time>
      </trkpt>
      <trkpt lat="45.89073" lon="4.74249">
        <ele>186</ele>
        <time>2018-07-06T09:21:25Z</time>
      </trkpt>
      <trkpt lat="45.89069" lon="4.7425">
        <ele>186</ele>
        <time>2018-07-06T09:21:26Z</time>
      </trkpt>
      <trkpt lat="45.89063" lon="4.74252">
        <ele>186</ele>
        <time>2018-07-06T09:21:27Z</time>
      </trkpt>
      <trkpt lat="45.89058" lon="4.74256">
        <ele>187</ele>
        <time>2018-07-06T09:21:28Z</time>
      </trkpt>
      <trkpt lat="45.89052" lon="4.74259">
        <ele>187</ele>
        <time>2018-07-06T09:21:29Z</time>
      </trkpt>
      <trkpt lat="45.89047" lon="4.74262">
        <ele>187</ele>
        <time>2018-07-06T09:21:30Z</time>
      </trkpt>
      <trkpt lat="45.89043" lon="4.74264">
        <ele>187</ele>
        <time>2018-07-06T09:21:31Z</time>
      </trkpt>
      <trkpt lat="45.89035" lon="4.74265">
        <ele>187</ele>
        <time>2018-07-06T09:21:34Z</time>
      </trkpt>
      <trkpt lat="45.89033" lon="4.74264">
        <ele>187</ele>
        <time>2018-07-06T09:21:35Z</time>
      </trkpt>
      <trkpt lat="45.89026" lon="4.74264">
        <ele>187</ele>
        <time>2018-07-06T09:21:39Z</time>
      </trkpt>
      <trkpt lat="45.89016" lon="4.74264">
        <ele>187</ele>
        <time>2018-07-06T09:21:40Z</time>
      </trkpt>
      <trkpt lat="45.8901" lon="4.74264">
        <ele>187</ele>
        <time>2018-07-06T09:21:43.094Z</time>
      </trkpt>
      <trkpt lat="45.89005" lon="4.74266">
        <ele>187</ele>
        <time>2018-07-06T09:21:42Z</time>
      </trkpt>
      <trkpt lat="45.88998" lon="4.74272">
        <ele>187</ele>
        <time>2018-07-06T09:21:43Z</time>
      </trkpt>
      <trkpt lat="45.8899" lon="4.74277">
        <ele>187</ele>
        <time>2018-07-06T09:21:44Z</time>
      </trkpt>
      <trkpt lat="45.88984" lon="4.74277">
        <ele>187</ele>
        <time>2018-07-06T09:21:45Z</time>
      </trkpt>
      <trkpt lat="45.8898" lon="4.74278">
        <ele>187</ele>
        <time>2018-07-06T09:21:46Z</time>
      </trkpt>
      <trkpt lat="45.88975" lon="4.74276">
        <ele>187</ele>
        <time>2018-07-06T09:21:48Z</time>
      </trkpt>
      <trkpt lat="45.8897" lon="4.74274">
        <ele>187</ele>
        <time>2018-07-06T09:21:49Z</time>
      </trkpt>
      <trkpt lat="45.88963" lon="4.74272">
        <ele>187</ele>
        <time>2018-07-06T09:21:51Z</time>
      </trkpt>
      <trkpt lat="45.88958" lon="4.74271">
        <ele>187</ele>
        <time>2018-07-06T09:21:52Z</time>
      </trkpt>
      <trkpt lat="45.88956" lon="4.74271">
        <ele>187</ele>
        <time>2018-07-06T09:21:53Z</time>
      </trkpt>
      <trkpt lat="45.88948" lon="4.74266">
        <ele>187</ele>
        <time>2018-07-06T09:21:54Z</time>
      </trkpt>
      <trkpt lat="45.8894" lon="4.74265">
        <ele>187</ele>
        <time>2018-07-06T09:21:55Z</time>
      </trkpt>
      <trkpt lat="45.88937" lon="4.74265">
        <ele>187</ele>
        <time>2018-07-06T09:21:56Z</time>
      </trkpt>
      <trkpt lat="45.88933" lon="4.74263">
        <ele>187</ele>
        <time>2018-07-06T09:21:57Z</time>
      </trkpt>
      <trkpt lat="45.88928" lon="4.7426">
        <ele>187</ele>
        <time>2018-07-06T09:21:58Z</time>
      </trkpt>
      <trkpt lat="45.88922" lon="4.7426">
        <ele>187</ele>
        <time>2018-07-06T09:21:59Z</time>
      </trkpt>
      <trkpt lat="45.88916" lon="4.74258">
        <ele>187</ele>
        <time>2018-07-06T09:22:00Z</time>
      </trkpt>
      <trkpt lat="45.88911" lon="4.74256">
        <ele>187</ele>
        <time>2018-07-06T09:22:01Z</time>
      </trkpt>
      <trkpt lat="45.88906" lon="4.74254">
        <ele>187</ele>
        <time>2018-07-06T09:22:02Z</time>
      </trkpt>
      <trkpt lat="45.88898" lon="4.74251">
        <ele>187</ele>
        <time>2018-07-06T09:22:04Z</time>
      </trkpt>
      <trkpt lat="45.88892" lon="4.74248">
        <ele>187</ele>
        <time>2018-07-06T09:22:05Z</time>
      </trkpt>
      <trkpt lat="45.88891" lon="4.74241">
        <ele>187</ele>
        <time>2018-07-06T09:22:06Z</time>
      </trkpt>
      <trkpt lat="45.88887" lon="4.74237">
        <ele>187</ele>
        <time>2018-07-06T09:22:07Z</time>
      </trkpt>
      <trkpt lat="45.88881" lon="4.74234">
        <ele>187</ele>
        <time>2018-07-06T09:22:08Z</time>
      </trkpt>
      <trkpt lat="45.88878" lon="4.74231">
        <ele>187</ele>
        <time>2018-07-06T09:22:09Z</time>
      </trkpt>
      <trkpt lat="45.88872" lon="4.74228">
        <ele>187</ele>
        <time>2018-07-06T09:22:10Z</time>
      </trkpt>
      <trkpt lat="45.88867" lon="4.74224">
        <ele>187</ele>
        <time>2018-07-06T09:22:11Z</time>
      </trkpt>
      <trkpt lat="45.8886" lon="4.7422">
        <ele>187</ele>
        <time>2018-07-06T09:22:13Z</time>
      </trkpt>
      <trkpt lat="45.88857" lon="4.74215">
        <ele>187</ele>
        <time>2018-07-06T09:22:14Z</time>
      </trkpt>
      <trkpt lat="45.88853" lon="4.74212">
        <ele>187</ele>
        <time>2018-07-06T09:22:15Z</time>
      </trkpt>
      <trkpt lat="45.88847" lon="4.74209">
        <ele>187</ele>
        <time>2018-07-06T09:22:16Z</time>
      </trkpt>
      <trkpt lat="45.88842" lon="4.74207">
        <ele>187</ele>
        <time>2018-07-06T09:22:17Z</time>
      </trkpt>
      <trkpt lat="45.88836" lon="4.74204">
        <ele>187</ele>
        <time>2018-07-06T09:22:18Z</time>
      </trkpt>
      <trkpt lat="45.8883" lon="4.74201">
        <ele>187</ele>
        <time>2018-07-06T09:22:19Z</time>
      </trkpt>
      <trkpt lat="45.88824" lon="4.74198">
        <ele>187</ele>
        <time>2018-07-06T09:22:20Z</time>
      </trkpt>
      <trkpt lat="45.88818" lon="4.74196">
        <ele>187</ele>
        <time>2018-07-06T09:22:21Z</time>
      </trkpt>
      <trkpt lat="45.88813" lon="4.74193">
        <ele>187</ele>
        <time>2018-07-06T09:22:22Z</time>
      </trkpt>
      <trkpt lat="45.88808" lon="4.7419">
        <ele>187</ele>
        <time>2018-07-06T09:22:23Z</time>
      </trkpt>
      <trkpt lat="45.88803" lon="4.74188">
        <ele>187</ele>
        <time>2018-07-06T09:22:24Z</time>
      </trkpt>
      <trkpt lat="45.88798" lon="4.74186">
        <ele>187</ele>
        <time>2018-07-06T09:22:25Z</time>
      </trkpt>
      <trkpt lat="45.88794" lon="4.74183">
        <ele>188</ele>
        <time>2018-07-06T09:22:26Z</time>
      </trkpt>
      <trkpt lat="45.88789" lon="4.7418">
        <ele>188</ele>
        <time>2018-07-06T09:22:27Z</time>
      </trkpt>
      <trkpt lat="45.88784" lon="4.74178">
        <ele>188</ele>
        <time>2018-07-06T09:22:28Z</time>
      </trkpt>
      <trkpt lat="45.8878" lon="4.74175">
        <ele>188</ele>
        <time>2018-07-06T09:22:29Z</time>
      </trkpt>
      <trkpt lat="45.88776" lon="4.74172">
        <ele>188</ele>
        <time>2018-07-06T09:22:30Z</time>
      </trkpt>
      <trkpt lat="45.88771" lon="4.74169">
        <ele>188</ele>
        <time>2018-07-06T09:22:31Z</time>
      </trkpt>
      <trkpt lat="45.88766" lon="4.74166">
        <ele>187</ele>
        <time>2018-07-06T09:22:32Z</time>
      </trkpt>
      <trkpt lat="45.88761" lon="4.74161">
        <ele>187</ele>
        <time>2018-07-06T09:22:33Z</time>
      </trkpt>
      <trkpt lat="45.88757" lon="4.74158">
        <ele>187</ele>
        <time>2018-07-06T09:22:34Z</time>
      </trkpt>
      <trkpt lat="45.88753" lon="4.74154">
        <ele>187</ele>
        <time>2018-07-06T09:22:35Z</time>
      </trkpt>
      <trkpt lat="45.88749" lon="4.74151">
        <ele>188</ele>
        <time>2018-07-06T09:22:36Z</time>
      </trkpt>
      <trkpt lat="45.88744" lon="4.74146">
        <ele>188</ele>
        <time>2018-07-06T09:22:37Z</time>
      </trkpt>
      <trkpt lat="45.88739" lon="4.74143">
        <ele>188</ele>
        <time>2018-07-06T09:22:38Z</time>
      </trkpt>
      <trkpt lat="45.88734" lon="4.74141">
        <ele>188</ele>
        <time>2018-07-06T09:22:39Z</time>
      </trkpt>
      <trkpt lat="45.8873" lon="4.74137">
        <ele>188</ele>
        <time>2018-07-06T09:22:40Z</time>
      </trkpt>
      <trkpt lat="45.88727" lon="4.7413">
        <ele>188</ele>
        <time>2018-07-06T09:22:41Z</time>
      </trkpt>
      <trkpt lat="45.88722" lon="4.74124">
        <ele>188</ele>
        <time>2018-07-06T09:22:42Z</time>
      </trkpt>
      <trkpt lat="45.88716" lon="4.74121">
        <ele>188</ele>
        <time>2018-07-06T09:22:43Z</time>
      </trkpt>
      <trkpt lat="45.88713" lon="4.74117">
        <ele>188</ele>
        <time>2018-07-06T09:22:44Z</time>
      </trkpt>
      <trkpt lat="45.88707" lon="4.74114">
        <ele>188</ele>
        <time>2018-07-06T09:22:45Z</time>
      </trkpt>
      <trkpt lat="45.88702" lon="4.74111">
        <ele>188</ele>
        <time>2018-07-06T09:22:46Z</time>
      </trkpt>
      <trkpt lat="45.88696" lon="4.74109">
        <ele>188</ele>
        <time>2018-07-06T09:22:47Z</time>
      </trkpt>
      <trkpt lat="45.8869" lon="4.74109">
        <ele>188</ele>
        <time>2018-07-06T09:22:48Z</time>
      </trkpt>
      <trkpt lat="45.88686" lon="4.7411">
        <ele>188</ele>
        <time>2018-07-06T09:22:49Z</time>
      </trkpt>
      <trkpt lat="45.88681" lon="4.7411">
        <ele>188</ele>
        <time>2018-07-06T09:22:50Z</time>
      </trkpt>
      <trkpt lat="45.88676" lon="4.74109">
        <ele>188</ele>
        <time>2018-07-06T09:22:51Z</time>
      </trkpt>
      <trkpt lat="45.88673" lon="4.74102">
        <ele>188</ele>
        <time>2018-07-06T09:22:52Z</time>
      </trkpt>
      <trkpt lat="45.88672" lon="4.74091">
        <ele>188</ele>
        <time>2018-07-06T09:22:54Z</time>
      </trkpt>
      <trkpt lat="45.8867" lon="4.74084">
        <ele>188</ele>
        <time>2018-07-06T09:22:55Z</time>
      </trkpt>
      <trkpt lat="45.88669" lon="4.74075">
        <ele>188</ele>
        <time>2018-07-06T09:22:56Z</time>
      </trkpt>
      <trkpt lat="45.88667" lon="4.74067">
        <ele>187</ele>
        <time>2018-07-06T09:22:57Z</time>
      </trkpt>
      <trkpt lat="45.88665" lon="4.7406">
        <ele>187</ele>
        <time>2018-07-06T09:22:58Z</time>
      </trkpt>
      <trkpt lat="45.88663" lon="4.74052">
        <ele>187</ele>
        <time>2018-07-06T09:22:59Z</time>
      </trkpt>
      <trkpt lat="45.88661" lon="4.74044">
        <ele>187</ele>
        <time>2018-07-06T09:23:00Z</time>
      </trkpt>
      <trkpt lat="45.8866" lon="4.74036">
        <ele>187</ele>
        <time>2018-07-06T09:23:01Z</time>
      </trkpt>
      <trkpt lat="45.88658" lon="4.74027">
        <ele>187</ele>
        <time>2018-07-06T09:23:02Z</time>
      </trkpt>
      <trkpt lat="45.88655" lon="4.74018">
        <ele>187</ele>
        <time>2018-07-06T09:23:03Z</time>
      </trkpt>
      <trkpt lat="45.88651" lon="4.74008">
        <ele>187</ele>
        <time>2018-07-06T09:23:04Z</time>
      </trkpt>
      <trkpt lat="45.8865" lon="4.74">
        <ele>187</ele>
        <time>2018-07-06T09:23:05Z</time>
      </trkpt>
      <trkpt lat="45.88648" lon="4.7399">
        <ele>186</ele>
        <time>2018-07-06T09:23:06Z</time>
      </trkpt>
      <trkpt lat="45.88646" lon="4.73983">
        <ele>187</ele>
        <time>2018-07-06T09:23:07Z</time>
      </trkpt>
      <trkpt lat="45.88645" lon="4.73975">
        <ele>187</ele>
        <time>2018-07-06T09:23:08Z</time>
      </trkpt>
      <trkpt lat="45.88645" lon="4.73968">
        <ele>187</ele>
        <time>2018-07-06T09:23:09Z</time>
      </trkpt>
      <trkpt lat="45.88644" lon="4.73959">
        <ele>187</ele>
        <time>2018-07-06T09:23:10Z</time>
      </trkpt>
      <trkpt lat="45.88644" lon="4.73951">
        <ele>187</ele>
        <time>2018-07-06T09:23:11Z</time>
      </trkpt>
      <trkpt lat="45.88644" lon="4.73942">
        <ele>187</ele>
        <time>2018-07-06T09:23:12Z</time>
      </trkpt>
      <trkpt lat="45.88644" lon="4.73934">
        <ele>187</ele>
        <time>2018-07-06T09:23:13Z</time>
      </trkpt>
      <trkpt lat="45.88644" lon="4.73924">
        <ele>187</ele>
        <time>2018-07-06T09:23:14Z</time>
      </trkpt>
      <trkpt lat="45.88642" lon="4.73916">
        <ele>187</ele>
        <time>2018-07-06T09:23:15Z</time>
      </trkpt>
      <trkpt lat="45.88643" lon="4.73907">
        <ele>187</ele>
        <time>2018-07-06T09:23:16Z</time>
      </trkpt>
      <trkpt lat="45.88643" lon="4.73899">
        <ele>187</ele>
        <time>2018-07-06T09:23:17Z</time>
      </trkpt>
      <trkpt lat="45.88643" lon="4.73889">
        <ele>187</ele>
        <time>2018-07-06T09:23:18Z</time>
      </trkpt>
      <trkpt lat="45.88643" lon="4.73882">
        <ele>187</ele>
        <time>2018-07-06T09:23:19Z</time>
      </trkpt>
      <trkpt lat="45.88647" lon="4.73871">
        <ele>187</ele>
        <time>2018-07-06T09:23:20Z</time>
      </trkpt>
      <trkpt lat="45.88649" lon="4.73863">
        <ele>187</ele>
        <time>2018-07-06T09:23:21Z</time>
      </trkpt>
      <trkpt lat="45.8865" lon="4.73855">
        <ele>187</ele>
        <time>2018-07-06T09:23:22Z</time>
      </trkpt>
      <trkpt lat="45.8865" lon="4.73846">
        <ele>187</ele>
        <time>2018-07-06T09:23:23Z</time>
      </trkpt>
      <trkpt lat="45.88654" lon="4.73841">
        <ele>187</ele>
        <time>2018-07-06T09:23:24Z</time>
      </trkpt>
      <trkpt lat="45.88652" lon="4.73836">
        <ele>187</ele>
        <time>2018-07-06T09:23:25Z</time>
      </trkpt>
      <trkpt lat="45.88653" lon="4.73828">
        <ele>187</ele>
        <time>2018-07-06T09:23:26Z</time>
      </trkpt>
      <trkpt lat="45.88653" lon="4.7382">
        <ele>187</ele>
        <time>2018-07-06T09:23:27Z</time>
      </trkpt>
      <trkpt lat="45.8865" lon="4.73813">
        <ele>187</ele>
        <time>2018-07-06T09:23:28Z</time>
      </trkpt>
      <trkpt lat="45.88649" lon="4.73805">
        <ele>187</ele>
        <time>2018-07-06T09:23:29Z</time>
      </trkpt>
      <trkpt lat="45.88649" lon="4.73797">
        <ele>187</ele>
        <time>2018-07-06T09:23:30Z</time>
      </trkpt>
      <trkpt lat="45.8865" lon="4.7379">
        <ele>187</ele>
        <time>2018-07-06T09:23:31Z</time>
      </trkpt>
      <trkpt lat="45.88646" lon="4.73781">
        <ele>187</ele>
        <time>2018-07-06T09:23:32Z</time>
      </trkpt>
      <trkpt lat="45.88646" lon="4.73769">
        <ele>187</ele>
        <time>2018-07-06T09:23:34Z</time>
      </trkpt>
      <trkpt lat="45.88646" lon="4.73763">
        <ele>187</ele>
        <time>2018-07-06T09:23:35Z</time>
      </trkpt>
      <trkpt lat="45.88647" lon="4.73756">
        <ele>187</ele>
        <time>2018-07-06T09:23:36Z</time>
      </trkpt>
      <trkpt lat="45.88646" lon="4.7375">
        <ele>187</ele>
        <time>2018-07-06T09:23:37Z</time>
      </trkpt>
      <trkpt lat="45.88645" lon="4.73738">
        <ele>187</ele>
        <time>2018-07-06T09:23:39Z</time>
      </trkpt>
      <trkpt lat="45.88645" lon="4.73732">
        <ele>186</ele>
        <time>2018-07-06T09:23:40Z</time>
      </trkpt>
      <trkpt lat="45.88646" lon="4.73721">
        <ele>186</ele>
        <time>2018-07-06T09:23:42Z</time>
      </trkpt>
      <trkpt lat="45.88647" lon="4.73715">
        <ele>186</ele>
        <time>2018-07-06T09:23:43Z</time>
      </trkpt>
      <trkpt lat="45.88648" lon="4.73704">
        <ele>186</ele>
        <time>2018-07-06T09:23:45Z</time>
      </trkpt>
      <trkpt lat="45.88649" lon="4.73698">
        <ele>186</ele>
        <time>2018-07-06T09:23:46Z</time>
      </trkpt>
      <trkpt lat="45.88649" lon="4.73687">
        <ele>186</ele>
        <time>2018-07-06T09:23:48Z</time>
      </trkpt>
      <trkpt lat="45.88649" lon="4.73682">
        <ele>186</ele>
        <time>2018-07-06T09:23:49Z</time>
      </trkpt>
      <trkpt lat="45.88649" lon="4.7367">
        <ele>186</ele>
        <time>2018-07-06T09:23:51Z</time>
      </trkpt>
      <trkpt lat="45.88649" lon="4.73664">
        <ele>186</ele>
        <time>2018-07-06T09:23:52Z</time>
      </trkpt>
      <trkpt lat="45.8865" lon="4.73652">
        <ele>186</ele>
        <time>2018-07-06T09:23:54Z</time>
      </trkpt>
      <trkpt lat="45.88649" lon="4.73647">
        <ele>186</ele>
        <time>2018-07-06T09:23:55Z</time>
      </trkpt>
      <trkpt lat="45.88648" lon="4.73638">
        <ele>186</ele>
        <time>2018-07-06T09:23:56Z</time>
      </trkpt>
      <trkpt lat="45.88648" lon="4.73631">
        <ele>186</ele>
        <time>2018-07-06T09:23:57Z</time>
      </trkpt>
      <trkpt lat="45.88647" lon="4.73624">
        <ele>186</ele>
        <time>2018-07-06T09:23:58Z</time>
      </trkpt>
      <trkpt lat="45.88647" lon="4.73616">
        <ele>186</ele>
        <time>2018-07-06T09:23:59Z</time>
      </trkpt>
      <trkpt lat="45.88648" lon="4.73607">
        <ele>186</ele>
        <time>2018-07-06T09:24:00Z</time>
      </trkpt>
      <trkpt lat="45.8865" lon="4.73598">
        <ele>185</ele>
        <time>2018-07-06T09:24:01Z</time>
      </trkpt>
      <trkpt lat="45.8865" lon="4.73588">
        <ele>185</ele>
        <time>2018-07-06T09:24:02Z</time>
      </trkpt>
      <trkpt lat="45.88648" lon="4.73579">
        <ele>185</ele>
        <time>2018-07-06T09:24:03Z</time>
      </trkpt>
      <trkpt lat="45.88648" lon="4.73568">
        <ele>185</ele>
        <time>2018-07-06T09:24:04Z</time>
      </trkpt>
      <trkpt lat="45.88647" lon="4.73557">
        <ele>185</ele>
        <time>2018-07-06T09:24:05Z</time>
      </trkpt>
      <trkpt lat="45.88647" lon="4.73547">
        <ele>185</ele>
        <time>2018-07-06T09:24:06Z</time>
      </trkpt>
      <trkpt lat="45.88645" lon="4.73535">
        <ele>185</ele>
        <time>2018-07-06T09:24:07Z</time>
      </trkpt>
      <trkpt lat="45.88648" lon="4.73525">
        <ele>185</ele>
        <time>2018-07-06T09:24:08Z</time>
      </trkpt>
      <trkpt lat="45.8865" lon="4.73515">
        <ele>185</ele>
        <time>2018-07-06T09:24:09Z</time>
      </trkpt>
      <trkpt lat="45.88652" lon="4.73507">
        <ele>184</ele>
        <time>2018-07-06T09:24:10Z</time>
      </trkpt>
      <trkpt lat="45.88654" lon="4.73499">
        <ele>184</ele>
        <time>2018-07-06T09:24:11Z</time>
      </trkpt>
      <trkpt lat="45.88656" lon="4.73492">
        <ele>184</ele>
        <time>2018-07-06T09:24:12Z</time>
      </trkpt>
      <trkpt lat="45.88654" lon="4.73485">
        <ele>184</ele>
        <time>2018-07-06T09:24:13Z</time>
      </trkpt>
      <trkpt lat="45.88651" lon="4.73478">
        <ele>184</ele>
        <time>2018-07-06T09:24:14Z</time>
      </trkpt>
      <trkpt lat="45.88648" lon="4.73474">
        <ele>184</ele>
        <time>2018-07-06T09:24:15Z</time>
      </trkpt>
      <trkpt lat="45.88642" lon="4.73472">
        <ele>184</ele>
        <time>2018-07-06T09:24:16Z</time>
      </trkpt>
      <trkpt lat="45.88638" lon="4.7347">
        <ele>184</ele>
        <time>2018-07-06T09:24:17Z</time>
      </trkpt>
      <trkpt lat="45.88633" lon="4.7346">
        <ele>184</ele>
        <time>2018-07-06T09:24:19Z</time>
      </trkpt>
      <trkpt lat="45.88633" lon="4.73453">
        <ele>184</ele>
        <time>2018-07-06T09:24:20Z</time>
      </trkpt>
      <trkpt lat="45.88633" lon="4.73445">
        <ele>184</ele>
        <time>2018-07-06T09:24:21Z</time>
      </trkpt>
      <trkpt lat="45.88634" lon="4.73437">
        <ele>184</ele>
        <time>2018-07-06T09:24:22Z</time>
      </trkpt>
      <trkpt lat="45.88635" lon="4.73428">
        <ele>184</ele>
        <time>2018-07-06T09:24:23Z</time>
      </trkpt>
      <trkpt lat="45.88633" lon="4.73422">
        <ele>184</ele>
        <time>2018-07-06T09:24:24Z</time>
      </trkpt>
      <trkpt lat="45.88632" lon="4.73413">
        <ele>183</ele>
        <time>2018-07-06T09:24:25Z</time>
      </trkpt>
      <trkpt lat="45.88629" lon="4.73405">
        <ele>183</ele>
        <time>2018-07-06T09:24:26Z</time>
      </trkpt>
      <trkpt lat="45.88626" lon="4.73398">
        <ele>183</ele>
        <time>2018-07-06T09:24:27Z</time>
      </trkpt>
      <trkpt lat="45.88622" lon="4.73391">
        <ele>183</ele>
        <time>2018-07-06T09:24:28Z</time>
      </trkpt>
      <trkpt lat="45.88615" lon="4.73388">
        <ele>183</ele>
        <time>2018-07-06T09:24:30Z</time>
      </trkpt>
      <trkpt lat="45.88609" lon="4.73387">
        <ele>183</ele>
        <time>2018-07-06T09:24:31Z</time>
      </trkpt>
      <trkpt lat="45.88603" lon="4.73391">
        <ele>183</ele>
        <time>2018-07-06T09:24:32Z</time>
      </trkpt>
      <trkpt lat="45.88597" lon="4.73392">
        <ele>183</ele>
        <time>2018-07-06T09:24:33Z</time>
      </trkpt>
      <trkpt lat="45.88592" lon="4.73395">
        <ele>183</ele>
        <time>2018-07-06T09:24:34Z</time>
      </trkpt>
      <trkpt lat="45.88586" lon="4.73395">
        <ele>183</ele>
        <time>2018-07-06T09:24:35Z</time>
      </trkpt>
      <trkpt lat="45.8858" lon="4.73396">
        <ele>183</ele>
        <time>2018-07-06T09:24:36Z</time>
      </trkpt>
      <trkpt lat="45.88575" lon="4.73397">
        <ele>183</ele>
        <time>2018-07-06T09:24:37Z</time>
      </trkpt>
      <trkpt lat="45.8857" lon="4.73399">
        <ele>183</ele>
        <time>2018-07-06T09:24:38Z</time>
      </trkpt>
      <trkpt lat="45.88566" lon="4.73399">
        <ele>183</ele>
        <time>2018-07-06T09:24:39Z</time>
      </trkpt>
      <trkpt lat="45.88561" lon="4.734">
        <ele>183</ele>
        <time>2018-07-06T09:24:40Z</time>
      </trkpt>
      <trkpt lat="45.88557" lon="4.73403">
        <ele>183</ele>
        <time>2018-07-06T09:24:41Z</time>
      </trkpt>
      <trkpt lat="45.88553" lon="4.73403">
        <ele>183</ele>
        <time>2018-07-06T09:24:42Z</time>
      </trkpt>
      <trkpt lat="45.88548" lon="4.73404">
        <ele>183</ele>
        <time>2018-07-06T09:24:43Z</time>
      </trkpt>
      <trkpt lat="45.88543" lon="4.73406">
        <ele>183</ele>
        <time>2018-07-06T09:24:44Z</time>
      </trkpt>
      <trkpt lat="45.88538" lon="4.73408">
        <ele>183</ele>
        <time>2018-07-06T09:24:45Z</time>
      </trkpt>
      <trkpt lat="45.88533" lon="4.7341">
        <ele>183</ele>
        <time>2018-07-06T09:24:46Z</time>
      </trkpt>
      <trkpt lat="45.88527" lon="4.73411">
        <ele>183</ele>
        <time>2018-07-06T09:24:47Z</time>
      </trkpt>
      <trkpt lat="45.88521" lon="4.73412">
        <ele>184</ele>
        <time>2018-07-06T09:24:48Z</time>
      </trkpt>
      <trkpt lat="45.88515" lon="4.73413">
        <ele>184</ele>
        <time>2018-07-06T09:24:49Z</time>
      </trkpt>
      <trkpt lat="45.88509" lon="4.73414">
        <ele>184</ele>
        <time>2018-07-06T09:24:50Z</time>
      </trkpt>
      <trkpt lat="45.88504" lon="4.73416">
        <ele>184</ele>
        <time>2018-07-06T09:24:51Z</time>
      </trkpt>
      <trkpt lat="45.88498" lon="4.73418">
        <ele>184</ele>
        <time>2018-07-06T09:24:52Z</time>
      </trkpt>
      <trkpt lat="45.88492" lon="4.7342">
        <ele>184</ele>
        <time>2018-07-06T09:24:53Z</time>
      </trkpt>
      <trkpt lat="45.88487" lon="4.73422">
        <ele>184</ele>
        <time>2018-07-06T09:24:54Z</time>
      </trkpt>
      <trkpt lat="45.88481" lon="4.73424">
        <ele>184</ele>
        <time>2018-07-06T09:24:55Z</time>
      </trkpt>
      <trkpt lat="45.88476" lon="4.73426">
        <ele>184</ele>
        <time>2018-07-06T09:24:56Z</time>
      </trkpt>
      <trkpt lat="45.88471" lon="4.73427">
        <ele>184</ele>
        <time>2018-07-06T09:24:57Z</time>
      </trkpt>
      <trkpt lat="45.88466" lon="4.73429">
        <ele>184</ele>
        <time>2018-07-06T09:24:58Z</time>
      </trkpt>
      <trkpt lat="45.8846" lon="4.7343">
        <ele>184</ele>
        <time>2018-07-06T09:24:59Z</time>
      </trkpt>
      <trkpt lat="45.88455" lon="4.73431">
        <ele>184</ele>
        <time>2018-07-06T09:25:00Z</time>
      </trkpt>
      <trkpt lat="45.8845" lon="4.73433">
        <ele>184</ele>
        <time>2018-07-06T09:25:01Z</time>
      </trkpt>
      <trkpt lat="45.88444" lon="4.73435">
        <ele>184</ele>
        <time>2018-07-06T09:25:02Z</time>
      </trkpt>
      <trkpt lat="45.88439" lon="4.73436">
        <ele>184</ele>
        <time>2018-07-06T09:25:03Z</time>
      </trkpt>
      <trkpt lat="45.88433" lon="4.73438">
        <ele>184</ele>
        <time>2018-07-06T09:25:04Z</time>
      </trkpt>
      <trkpt lat="45.88428" lon="4.7344">
        <ele>184</ele>
        <time>2018-07-06T09:25:05Z</time>
      </trkpt>
      <trkpt lat="45.88423" lon="4.73442">
        <ele>184</ele>
        <time>2018-07-06T09:25:06Z</time>
      </trkpt>
      <trkpt lat="45.88417" lon="4.73444">
        <ele>184</ele>
        <time>2018-07-06T09:25:07Z</time>
      </trkpt>
      <trkpt lat="45.88411" lon="4.73447">
        <ele>184</ele>
        <time>2018-07-06T09:25:08Z</time>
      </trkpt>
      <trkpt lat="45.88405" lon="4.73448">
        <ele>184</ele>
        <time>2018-07-06T09:25:09Z</time>
      </trkpt>
      <trkpt lat="45.884" lon="4.7345">
        <ele>184</ele>
        <time>2018-07-06T09:25:10Z</time>
      </trkpt>
      <trkpt lat="45.88394" lon="4.73452">
        <ele>184</ele>
        <time>2018-07-06T09:25:11Z</time>
      </trkpt>
      <trkpt lat="45.88388" lon="4.73452">
        <ele>184</ele>
        <time>2018-07-06T09:25:12Z</time>
      </trkpt>
      <trkpt lat="45.88384" lon="4.73454">
        <ele>184</ele>
        <time>2018-07-06T09:25:13Z</time>
      </trkpt>
      <trkpt lat="45.88379" lon="4.73454">
        <ele>184</ele>
        <time>2018-07-06T09:25:14Z</time>
      </trkpt>
      <trkpt lat="45.88374" lon="4.73456">
        <ele>184</ele>
        <time>2018-07-06T09:25:15Z</time>
      </trkpt>
      <trkpt lat="45.8837" lon="4.73458">
        <ele>184</ele>
        <time>2018-07-06T09:25:16Z</time>
      </trkpt>
      <trkpt lat="45.88364" lon="4.73459">
        <ele>184</ele>
        <time>2018-07-06T09:25:17Z</time>
      </trkpt>
      <trkpt lat="45.88359" lon="4.7346">
        <ele>184</ele>
        <time>2018-07-06T09:25:18Z</time>
      </trkpt>
      <trkpt lat="45.88354" lon="4.73462">
        <ele>184</ele>
        <time>2018-07-06T09:25:19Z</time>
      </trkpt>
      <trkpt lat="45.88348" lon="4.73465">
        <ele>184</ele>
        <time>2018-07-06T09:25:20Z</time>
      </trkpt>
      <trkpt lat="45.88343" lon="4.73467">
        <ele>184</ele>
        <time>2018-07-06T09:25:21Z</time>
      </trkpt>
      <trkpt lat="45.88337" lon="4.73469">
        <ele>184</ele>
        <time>2018-07-06T09:25:22Z</time>
      </trkpt>
      <trkpt lat="45.88331" lon="4.73471">
        <ele>184</ele>
        <time>2018-07-06T09:25:23Z</time>
      </trkpt>
      <trkpt lat="45.88326" lon="4.73471">
        <ele>184</ele>
        <time>2018-07-06T09:25:24Z</time>
      </trkpt>
      <trkpt lat="45.88322" lon="4.73472">
        <ele>184</ele>
        <time>2018-07-06T09:25:25Z</time>
      </trkpt>
      <trkpt lat="45.88317" lon="4.73473">
        <ele>184</ele>
        <time>2018-07-06T09:25:26Z</time>
      </trkpt>
      <trkpt lat="45.8831" lon="4.73478">
        <ele>184</ele>
        <time>2018-07-06T09:25:27Z</time>
      </trkpt>
      <trkpt lat="45.88305" lon="4.7348">
        <ele>184</ele>
        <time>2018-07-06T09:25:28Z</time>
      </trkpt>
      <trkpt lat="45.883" lon="4.73483">
        <ele>184</ele>
        <time>2018-07-06T09:25:29Z</time>
      </trkpt>
      <trkpt lat="45.88296" lon="4.73485">
        <ele>184</ele>
        <time>2018-07-06T09:25:30Z</time>
      </trkpt>
      <trkpt lat="45.88291" lon="4.73489">
        <ele>184</ele>
        <time>2018-07-06T09:25:31Z</time>
      </trkpt>
      <trkpt lat="45.88286" lon="4.73493">
        <ele>184</ele>
        <time>2018-07-06T09:25:32Z</time>
      </trkpt>
      <trkpt lat="45.88281" lon="4.73498">
        <ele>184</ele>
        <time>2018-07-06T09:25:33Z</time>
      </trkpt>
      <trkpt lat="45.88276" lon="4.73501">
        <ele>185</ele>
        <time>2018-07-06T09:25:34Z</time>
      </trkpt>
      <trkpt lat="45.8827" lon="4.73504">
        <ele>185</ele>
        <time>2018-07-06T09:25:35Z</time>
      </trkpt>
      <trkpt lat="45.88265" lon="4.73508">
        <ele>185</ele>
        <time>2018-07-06T09:25:36Z</time>
      </trkpt>
      <trkpt lat="45.88259" lon="4.73511">
        <ele>185</ele>
        <time>2018-07-06T09:25:37Z</time>
      </trkpt>
      <trkpt lat="45.88253" lon="4.73513">
        <ele>185</ele>
        <time>2018-07-06T09:25:38Z</time>
      </trkpt>
      <trkpt lat="45.88248" lon="4.73516">
        <ele>185</ele>
        <time>2018-07-06T09:25:39Z</time>
      </trkpt>
      <trkpt lat="45.88244" lon="4.73519">
        <ele>185</ele>
        <time>2018-07-06T09:25:40Z</time>
      </trkpt>
      <trkpt lat="45.8824" lon="4.73522">
        <ele>185</ele>
        <time>2018-07-06T09:25:41Z</time>
      </trkpt>
      <trkpt lat="45.88235" lon="4.73525">
        <ele>185</ele>
        <time>2018-07-06T09:25:42Z</time>
      </trkpt>
      <trkpt lat="45.8823" lon="4.73527">
        <ele>185</ele>
        <time>2018-07-06T09:25:43Z</time>
      </trkpt>
      <trkpt lat="45.88225" lon="4.73531">
        <ele>185</ele>
        <time>2018-07-06T09:25:44Z</time>
      </trkpt>
      <trkpt lat="45.8822" lon="4.73533">
        <ele>185</ele>
        <time>2018-07-06T09:25:45Z</time>
      </trkpt>
      <trkpt lat="45.88215" lon="4.73537">
        <ele>185</ele>
        <time>2018-07-06T09:25:46Z</time>
      </trkpt>
      <trkpt lat="45.88209" lon="4.7354">
        <ele>185</ele>
        <time>2018-07-06T09:25:47Z</time>
      </trkpt>
      <trkpt lat="45.88204" lon="4.73545">
        <ele>186</ele>
        <time>2018-07-06T09:25:48Z</time>
      </trkpt>
      <trkpt lat="45.882" lon="4.73548">
        <ele>186</ele>
        <time>2018-07-06T09:25:49Z</time>
      </trkpt>
      <trkpt lat="45.88195" lon="4.73551">
        <ele>186</ele>
        <time>2018-07-06T09:25:50Z</time>
      </trkpt>
      <trkpt lat="45.8819" lon="4.73554">
        <ele>186</ele>
        <time>2018-07-06T09:25:51Z</time>
      </trkpt>
      <trkpt lat="45.88185" lon="4.73558">
        <ele>186</ele>
        <time>2018-07-06T09:25:52Z</time>
      </trkpt>
      <trkpt lat="45.88181" lon="4.73561">
        <ele>186</ele>
        <time>2018-07-06T09:25:53Z</time>
      </trkpt>
      <trkpt lat="45.88176" lon="4.73565">
        <ele>186</ele>
        <time>2018-07-06T09:25:54Z</time>
      </trkpt>
      <trkpt lat="45.8817" lon="4.73569">
        <ele>186</ele>
        <time>2018-07-06T09:25:55Z</time>
      </trkpt>
      <trkpt lat="45.88165" lon="4.73573">
        <ele>186</ele>
        <time>2018-07-06T09:25:56Z</time>
      </trkpt>
      <trkpt lat="45.88161" lon="4.73577">
        <ele>186</ele>
        <time>2018-07-06T09:25:57Z</time>
      </trkpt>
      <trkpt lat="45.88158" lon="4.73581">
        <ele>186</ele>
        <time>2018-07-06T09:25:58Z</time>
      </trkpt>
      <trkpt lat="45.88153" lon="4.73584">
        <ele>187</ele>
        <time>2018-07-06T09:25:59Z</time>
      </trkpt>
      <trkpt lat="45.88148" lon="4.73587">
        <ele>187</ele>
        <time>2018-07-06T09:26:00Z</time>
      </trkpt>
      <trkpt lat="45.88143" lon="4.7359">
        <ele>187</ele>
        <time>2018-07-06T09:26:01Z</time>
      </trkpt>
      <trkpt lat="45.88138" lon="4.73592">
        <ele>187</ele>
        <time>2018-07-06T09:26:02Z</time>
      </trkpt>
      <trkpt lat="45.88134" lon="4.73594">
        <ele>187</ele>
        <time>2018-07-06T09:26:03Z</time>
      </trkpt>
      <trkpt lat="45.88129" lon="4.73598">
        <ele>187</ele>
        <time>2018-07-06T09:26:04Z</time>
      </trkpt>
      <trkpt lat="45.88125" lon="4.73602">
        <ele>187</ele>
        <time>2018-07-06T09:26:05Z</time>
      </trkpt>
      <trkpt lat="45.8812" lon="4.73604">
        <ele>188</ele>
        <time>2018-07-06T09:26:06Z</time>
      </trkpt>
      <trkpt lat="45.88115" lon="4.73607">
        <ele>188</ele>
        <time>2018-07-06T09:26:07Z</time>
      </trkpt>
      <trkpt lat="45.88111" lon="4.73609">
        <ele>188</ele>
        <time>2018-07-06T09:26:08Z</time>
      </trkpt>
      <trkpt lat="45.88106" lon="4.73611">
        <ele>188</ele>
        <time>2018-07-06T09:26:09Z</time>
      </trkpt>
      <trkpt lat="45.88101" lon="4.73613">
        <ele>188</ele>
        <time>2018-07-06T09:26:10Z</time>
      </trkpt>
      <trkpt lat="45.88096" lon="4.73615">
        <ele>188</ele>
        <time>2018-07-06T09:26:11Z</time>
      </trkpt>
      <trkpt lat="45.88091" lon="4.73617">
        <ele>188</ele>
        <time>2018-07-06T09:26:12Z</time>
      </trkpt>
      <trkpt lat="45.88085" lon="4.7362">
        <ele>188</ele>
        <time>2018-07-06T09:26:13Z</time>
      </trkpt>
      <trkpt lat="45.8808" lon="4.73624">
        <ele>189</ele>
        <time>2018-07-06T09:26:14Z</time>
      </trkpt>
      <trkpt lat="45.88075" lon="4.73628">
        <ele>189</ele>
        <time>2018-07-06T09:26:15Z</time>
      </trkpt>
      <trkpt lat="45.88072" lon="4.73633">
        <ele>189</ele>
        <time>2018-07-06T09:26:16Z</time>
      </trkpt>
      <trkpt lat="45.88067" lon="4.73636">
        <ele>189</ele>
        <time>2018-07-06T09:26:17Z</time>
      </trkpt>
      <trkpt lat="45.88063" lon="4.7364">
        <ele>189</ele>
        <time>2018-07-06T09:26:18Z</time>
      </trkpt>
      <trkpt lat="45.88057" lon="4.73642">
        <ele>189</ele>
        <time>2018-07-06T09:26:19Z</time>
      </trkpt>
      <trkpt lat="45.88053" lon="4.73645">
        <ele>189</ele>
        <time>2018-07-06T09:26:20Z</time>
      </trkpt>
      <trkpt lat="45.88048" lon="4.73648">
        <ele>189</ele>
        <time>2018-07-06T09:26:21Z</time>
      </trkpt>
      <trkpt lat="45.88044" lon="4.73652">
        <ele>189</ele>
        <time>2018-07-06T09:26:22Z</time>
      </trkpt>
      <trkpt lat="45.8804" lon="4.73656">
        <ele>189</ele>
        <time>2018-07-06T09:26:23Z</time>
      </trkpt>
      <trkpt lat="45.88035" lon="4.73655">
        <ele>189</ele>
        <time>2018-07-06T09:26:24Z</time>
      </trkpt>
      <trkpt lat="45.8803" lon="4.73657">
        <ele>189</ele>
        <time>2018-07-06T09:26:25Z</time>
      </trkpt>
      <trkpt lat="45.88026" lon="4.7366">
        <ele>189</ele>
        <time>2018-07-06T09:26:26Z</time>
      </trkpt>
      <trkpt lat="45.88021" lon="4.73662">
        <ele>189</ele>
        <time>2018-07-06T09:26:27Z</time>
      </trkpt>
      <trkpt lat="45.88016" lon="4.73663">
        <ele>189</ele>
        <time>2018-07-06T09:26:28Z</time>
      </trkpt>
      <trkpt lat="45.88009" lon="4.73659">
        <ele>190</ele>
        <time>2018-07-06T09:26:29Z</time>
      </trkpt>
      <trkpt lat="45.88003" lon="4.73657">
        <ele>190</ele>
        <time>2018-07-06T09:26:30Z</time>
      </trkpt>
      <trkpt lat="45.87998" lon="4.73655">
        <ele>190</ele>
        <time>2018-07-06T09:26:31Z</time>
      </trkpt>
      <trkpt lat="45.87992" lon="4.73654">
        <ele>190</ele>
        <time>2018-07-06T09:26:32Z</time>
      </trkpt>
      <trkpt lat="45.87985" lon="4.73653">
        <ele>190</ele>
        <time>2018-07-06T09:26:33Z</time>
      </trkpt>
      <trkpt lat="45.87979" lon="4.7365">
        <ele>190</ele>
        <time>2018-07-06T09:26:34Z</time>
      </trkpt>
      <trkpt lat="45.87974" lon="4.73648">
        <ele>190</ele>
        <time>2018-07-06T09:26:35Z</time>
      </trkpt>
      <trkpt lat="45.87968" lon="4.73645">
        <ele>189</ele>
        <time>2018-07-06T09:26:36Z</time>
      </trkpt>
      <trkpt lat="45.87964" lon="4.73644">
        <ele>189</ele>
        <time>2018-07-06T09:26:37Z</time>
      </trkpt>
      <trkpt lat="45.87958" lon="4.73644">
        <ele>190</ele>
        <time>2018-07-06T09:26:38Z</time>
      </trkpt>
      <trkpt lat="45.87952" lon="4.73642">
        <ele>190</ele>
        <time>2018-07-06T09:26:39Z</time>
      </trkpt>
      <trkpt lat="45.87947" lon="4.7364">
        <ele>190</ele>
        <time>2018-07-06T09:26:40Z</time>
      </trkpt>
      <trkpt lat="45.87941" lon="4.73638">
        <ele>190</ele>
        <time>2018-07-06T09:26:41Z</time>
      </trkpt>
      <trkpt lat="45.87936" lon="4.73637">
        <ele>190</ele>
        <time>2018-07-06T09:26:42Z</time>
      </trkpt>
      <trkpt lat="45.8793" lon="4.73636">
        <ele>190</ele>
        <time>2018-07-06T09:26:43Z</time>
      </trkpt>
      <trkpt lat="45.87925" lon="4.73634">
        <ele>190</ele>
        <time>2018-07-06T09:26:44Z</time>
      </trkpt>
      <trkpt lat="45.87919" lon="4.73632">
        <ele>190</ele>
        <time>2018-07-06T09:26:45Z</time>
      </trkpt>
      <trkpt lat="45.87914" lon="4.73629">
        <ele>190</ele>
        <time>2018-07-06T09:26:46Z</time>
      </trkpt>
      <trkpt lat="45.87908" lon="4.73628">
        <ele>190</ele>
        <time>2018-07-06T09:26:47Z</time>
      </trkpt>
      <trkpt lat="45.87902" lon="4.73627">
        <ele>190</ele>
        <time>2018-07-06T09:26:48Z</time>
      </trkpt>
      <trkpt lat="45.87897" lon="4.73626">
        <ele>190</ele>
        <time>2018-07-06T09:26:49Z</time>
      </trkpt>
      <trkpt lat="45.87892" lon="4.73624">
        <ele>190</ele>
        <time>2018-07-06T09:26:50Z</time>
      </trkpt>
      <trkpt lat="45.87887" lon="4.73623">
        <ele>190</ele>
        <time>2018-07-06T09:26:51Z</time>
      </trkpt>
      <trkpt lat="45.87883" lon="4.73623">
        <ele>190</ele>
        <time>2018-07-06T09:26:52Z</time>
      </trkpt>
      <trkpt lat="45.87877" lon="4.73623">
        <ele>190</ele>
        <time>2018-07-06T09:26:53Z</time>
      </trkpt>
      <trkpt lat="45.87871" lon="4.73624">
        <ele>190</ele>
        <time>2018-07-06T09:26:54Z</time>
      </trkpt>
      <trkpt lat="45.87867" lon="4.73625">
        <ele>190</ele>
        <time>2018-07-06T09:26:55Z</time>
      </trkpt>
      <trkpt lat="45.87863" lon="4.73627">
        <ele>190</ele>
        <time>2018-07-06T09:26:56Z</time>
      </trkpt>
      <trkpt lat="45.87858" lon="4.73632">
        <ele>190</ele>
        <time>2018-07-06T09:26:57Z</time>
      </trkpt>
      <trkpt lat="45.87854" lon="4.73635">
        <ele>191</ele>
        <time>2018-07-06T09:26:58Z</time>
      </trkpt>
      <trkpt lat="45.87849" lon="4.7364">
        <ele>191</ele>
        <time>2018-07-06T09:26:59Z</time>
      </trkpt>
      <trkpt lat="45.87845" lon="4.73641">
        <ele>191</ele>
        <time>2018-07-06T09:27:00Z</time>
      </trkpt>
      <trkpt lat="45.87839" lon="4.73641">
        <ele>191</ele>
        <time>2018-07-06T09:27:01Z</time>
      </trkpt>
      <trkpt lat="45.87833" lon="4.73634">
        <ele>191</ele>
        <time>2018-07-06T09:27:03Z</time>
      </trkpt>
      <trkpt lat="45.8783" lon="4.73627">
        <ele>190</ele>
        <time>2018-07-06T09:27:04Z</time>
      </trkpt>
      <trkpt lat="45.87827" lon="4.7362">
        <ele>190</ele>
        <time>2018-07-06T09:27:05Z</time>
      </trkpt>
      <trkpt lat="45.87825" lon="4.73612">
        <ele>190</ele>
        <time>2018-07-06T09:27:06Z</time>
      </trkpt>
      <trkpt lat="45.87822" lon="4.736">
        <ele>190</ele>
        <time>2018-07-06T09:27:08Z</time>
      </trkpt>
      <trkpt lat="45.8782" lon="4.73593">
        <ele>190</ele>
        <time>2018-07-06T09:27:09Z</time>
      </trkpt>
      <trkpt lat="45.87814" lon="4.73586">
        <ele>190</ele>
        <time>2018-07-06T09:27:10Z</time>
      </trkpt>
      <trkpt lat="45.87809" lon="4.73578">
        <ele>189</ele>
        <time>2018-07-06T09:27:11Z</time>
      </trkpt>
      <trkpt lat="45.87806" lon="4.73572">
        <ele>189</ele>
        <time>2018-07-06T09:27:12Z</time>
      </trkpt>
      <trkpt lat="45.87803" lon="4.73564">
        <ele>189</ele>
        <time>2018-07-06T09:27:13Z</time>
      </trkpt>
      <trkpt lat="45.87799" lon="4.73558">
        <ele>189</ele>
        <time>2018-07-06T09:27:14Z</time>
      </trkpt>
      <trkpt lat="45.87796" lon="4.73552">
        <ele>189</ele>
        <time>2018-07-06T09:27:15Z</time>
      </trkpt>
      <trkpt lat="45.87794" lon="4.73545">
        <ele>189</ele>
        <time>2018-07-06T09:27:16Z</time>
      </trkpt>
      <trkpt lat="45.87792" lon="4.73537">
        <ele>189</ele>
        <time>2018-07-06T09:27:17Z</time>
      </trkpt>
      <trkpt lat="45.8779" lon="4.7353">
        <ele>189</ele>
        <time>2018-07-06T09:27:18Z</time>
      </trkpt>
      <trkpt lat="45.87786" lon="4.73523">
        <ele>189</ele>
        <time>2018-07-06T09:27:19Z</time>
      </trkpt>
      <trkpt lat="45.87783" lon="4.73515">
        <ele>189</ele>
        <time>2018-07-06T09:27:20Z</time>
      </trkpt>
      <trkpt lat="45.87779" lon="4.73509">
        <ele>189</ele>
        <time>2018-07-06T09:27:21Z</time>
      </trkpt>
      <trkpt lat="45.87775" lon="4.735">
        <ele>188</ele>
        <time>2018-07-06T09:27:22Z</time>
      </trkpt>
      <trkpt lat="45.8777" lon="4.73494">
        <ele>189</ele>
        <time>2018-07-06T09:27:23Z</time>
      </trkpt>
      <trkpt lat="45.87766" lon="4.73485">
        <ele>189</ele>
        <time>2018-07-06T09:27:24Z</time>
      </trkpt>
      <trkpt lat="45.87762" lon="4.73477">
        <ele>188</ele>
        <time>2018-07-06T09:27:25Z</time>
      </trkpt>
      <trkpt lat="45.87758" lon="4.7347">
        <ele>188</ele>
        <time>2018-07-06T09:27:26Z</time>
      </trkpt>
      <trkpt lat="45.87755" lon="4.73462">
        <ele>188</ele>
        <time>2018-07-06T09:27:27Z</time>
      </trkpt>
      <trkpt lat="45.87753" lon="4.73454">
        <ele>188</ele>
        <time>2018-07-06T09:27:28Z</time>
      </trkpt>
      <trkpt lat="45.87749" lon="4.73446">
        <ele>189</ele>
        <time>2018-07-06T09:27:29Z</time>
      </trkpt>
      <trkpt lat="45.87746" lon="4.73441">
        <ele>189</ele>
        <time>2018-07-06T09:27:30Z</time>
      </trkpt>
      <trkpt lat="45.87742" lon="4.73432">
        <ele>188</ele>
        <time>2018-07-06T09:27:31Z</time>
      </trkpt>
      <trkpt lat="45.87738" lon="4.73425">
        <ele>188</ele>
        <time>2018-07-06T09:27:32Z</time>
      </trkpt>
      <trkpt lat="45.87734" lon="4.73417">
        <ele>188</ele>
        <time>2018-07-06T09:27:33Z</time>
      </trkpt>
      <trkpt lat="45.87731" lon="4.73409">
        <ele>188</ele>
        <time>2018-07-06T09:27:34Z</time>
      </trkpt>
      <trkpt lat="45.87728" lon="4.73402">
        <ele>188</ele>
        <time>2018-07-06T09:27:35Z</time>
      </trkpt>
      <trkpt lat="45.87725" lon="4.73395">
        <ele>188</ele>
        <time>2018-07-06T09:27:36Z</time>
      </trkpt>
      <trkpt lat="45.87721" lon="4.73387">
        <ele>188</ele>
        <time>2018-07-06T09:27:37Z</time>
      </trkpt>
      <trkpt lat="45.87718" lon="4.73379">
        <ele>187</ele>
        <time>2018-07-06T09:27:38Z</time>
      </trkpt>
      <trkpt lat="45.87715" lon="4.73372">
        <ele>187</ele>
        <time>2018-07-06T09:27:39Z</time>
      </trkpt>
      <trkpt lat="45.87711" lon="4.73365">
        <ele>187</ele>
        <time>2018-07-06T09:27:40Z</time>
      </trkpt>
      <trkpt lat="45.87709" lon="4.73359">
        <ele>187</ele>
        <time>2018-07-06T09:27:41Z</time>
      </trkpt>
      <trkpt lat="45.87705" lon="4.73353">
        <ele>187</ele>
        <time>2018-07-06T09:27:42Z</time>
      </trkpt>
      <trkpt lat="45.87702" lon="4.73345">
        <ele>187</ele>
        <time>2018-07-06T09:27:43Z</time>
      </trkpt>
      <trkpt lat="45.87698" lon="4.73338">
        <ele>187</ele>
        <time>2018-07-06T09:27:44Z</time>
      </trkpt>
      <trkpt lat="45.87695" lon="4.73331">
        <ele>188</ele>
        <time>2018-07-06T09:27:45Z</time>
      </trkpt>
      <trkpt lat="45.87691" lon="4.73324">
        <ele>188</ele>
        <time>2018-07-06T09:27:46Z</time>
      </trkpt>
      <trkpt lat="45.87689" lon="4.73318">
        <ele>188</ele>
        <time>2018-07-06T09:27:47Z</time>
      </trkpt>
      <trkpt lat="45.87685" lon="4.73311">
        <ele>188</ele>
        <time>2018-07-06T09:27:48Z</time>
      </trkpt>
      <trkpt lat="45.87682" lon="4.73305">
        <ele>188</ele>
        <time>2018-07-06T09:27:49Z</time>
      </trkpt>
      <trkpt lat="45.87679" lon="4.73298">
        <ele>188</ele>
        <time>2018-07-06T09:27:50Z</time>
      </trkpt>
      <trkpt lat="45.87676" lon="4.73292">
        <ele>188</ele>
        <time>2018-07-06T09:27:51Z</time>
      </trkpt>
      <trkpt lat="45.87673" lon="4.73285">
        <ele>188</ele>
        <time>2018-07-06T09:27:52Z</time>
      </trkpt>
      <trkpt lat="45.87669" lon="4.73278">
        <ele>188</ele>
        <time>2018-07-06T09:27:53Z</time>
      </trkpt>
      <trkpt lat="45.87665" lon="4.73272">
        <ele>189</ele>
        <time>2018-07-06T09:27:54Z</time>
      </trkpt>
      <trkpt lat="45.87662" lon="4.73264">
        <ele>189</ele>
        <time>2018-07-06T09:27:55Z</time>
      </trkpt>
      <trkpt lat="45.87659" lon="4.73257">
        <ele>189</ele>
        <time>2018-07-06T09:27:56Z</time>
      </trkpt>
      <trkpt lat="45.87655" lon="4.73248">
        <ele>189</ele>
        <time>2018-07-06T09:27:57Z</time>
      </trkpt>
      <trkpt lat="45.87652" lon="4.73241">
        <ele>188</ele>
        <time>2018-07-06T09:27:58Z</time>
      </trkpt>
      <trkpt lat="45.87648" lon="4.73233">
        <ele>188</ele>
        <time>2018-07-06T09:27:59Z</time>
      </trkpt>
      <trkpt lat="45.87643" lon="4.73225">
        <ele>188</ele>
        <time>2018-07-06T09:28:00Z</time>
      </trkpt>
      <trkpt lat="45.8764" lon="4.73219">
        <ele>188</ele>
        <time>2018-07-06T09:28:01Z</time>
      </trkpt>
      <trkpt lat="45.87637" lon="4.73212">
        <ele>188</ele>
        <time>2018-07-06T09:28:02Z</time>
      </trkpt>
      <trkpt lat="45.87633" lon="4.73206">
        <ele>188</ele>
        <time>2018-07-06T09:28:03Z</time>
      </trkpt>
      <trkpt lat="45.8763" lon="4.73199">
        <ele>188</ele>
        <time>2018-07-06T09:28:04Z</time>
      </trkpt>
      <trkpt lat="45.87626" lon="4.73192">
        <ele>188</ele>
        <time>2018-07-06T09:28:05Z</time>
      </trkpt>
      <trkpt lat="45.87623" lon="4.73184">
        <ele>188</ele>
        <time>2018-07-06T09:28:06Z</time>
      </trkpt>
      <trkpt lat="45.87619" lon="4.73178">
        <ele>187</ele>
        <time>2018-07-06T09:28:07Z</time>
      </trkpt>
      <trkpt lat="45.87617" lon="4.7317">
        <ele>187</ele>
        <time>2018-07-06T09:28:08Z</time>
      </trkpt>
      <trkpt lat="45.87614" lon="4.73163">
        <ele>187</ele>
        <time>2018-07-06T09:28:09Z</time>
      </trkpt>
      <trkpt lat="45.87611" lon="4.73155">
        <ele>187</ele>
        <time>2018-07-06T09:28:10Z</time>
      </trkpt>
      <trkpt lat="45.87607" lon="4.73147">
        <ele>187</ele>
        <time>2018-07-06T09:28:11Z</time>
      </trkpt>
      <trkpt lat="45.87604" lon="4.73139">
        <ele>187</ele>
        <time>2018-07-06T09:28:12Z</time>
      </trkpt>
      <trkpt lat="45.87599" lon="4.73131">
        <ele>187</ele>
        <time>2018-07-06T09:28:13Z</time>
      </trkpt>
      <trkpt lat="45.87595" lon="4.73124">
        <ele>188</ele>
        <time>2018-07-06T09:28:14Z</time>
      </trkpt>
      <trkpt lat="45.8759" lon="4.73115">
        <ele>188</ele>
        <time>2018-07-06T09:28:15Z</time>
      </trkpt>
      <trkpt lat="45.87586" lon="4.73107">
        <ele>188</ele>
        <time>2018-07-06T09:28:16Z</time>
      </trkpt>
      <trkpt lat="45.8758" lon="4.73101">
        <ele>188</ele>
        <time>2018-07-06T09:28:17Z</time>
      </trkpt>
      <trkpt lat="45.87576" lon="4.73093">
        <ele>188</ele>
        <time>2018-07-06T09:28:18Z</time>
      </trkpt>
      <trkpt lat="45.87572" lon="4.73085">
        <ele>188</ele>
        <time>2018-07-06T09:28:19Z</time>
      </trkpt>
      <trkpt lat="45.87568" lon="4.73077">
        <ele>188</ele>
        <time>2018-07-06T09:28:20Z</time>
      </trkpt>
      <trkpt lat="45.87567" lon="4.7307">
        <ele>188</ele>
        <time>2018-07-06T09:28:21Z</time>
      </trkpt>
      <trkpt lat="45.87565" lon="4.73064">
        <ele>188</ele>
        <time>2018-07-06T09:28:22Z</time>
      </trkpt>
      <trkpt lat="45.87561" lon="4.73057">
        <ele>188</ele>
        <time>2018-07-06T09:28:23Z</time>
      </trkpt>
      <trkpt lat="45.87559" lon="4.7305">
        <ele>188</ele>
        <time>2018-07-06T09:28:24Z</time>
      </trkpt>
      <trkpt lat="45.87554" lon="4.73044">
        <ele>188</ele>
        <time>2018-07-06T09:28:25Z</time>
      </trkpt>
      <trkpt lat="45.87551" lon="4.73037">
        <ele>188</ele>
        <time>2018-07-06T09:28:26Z</time>
      </trkpt>
      <trkpt lat="45.87547" lon="4.73031">
        <ele>188</ele>
        <time>2018-07-06T09:28:27Z</time>
      </trkpt>
      <trkpt lat="45.87545" lon="4.73024">
        <ele>188</ele>
        <time>2018-07-06T09:28:28Z</time>
      </trkpt>
      <trkpt lat="45.87541" lon="4.73019">
        <ele>187</ele>
        <time>2018-07-06T09:28:29Z</time>
      </trkpt>
      <trkpt lat="45.87539" lon="4.73013">
        <ele>187</ele>
        <time>2018-07-06T09:28:30Z</time>
      </trkpt>
      <trkpt lat="45.87536" lon="4.73005">
        <ele>187</ele>
        <time>2018-07-06T09:28:31Z</time>
      </trkpt>
      <trkpt lat="45.87534" lon="4.72999">
        <ele>187</ele>
        <time>2018-07-06T09:28:32Z</time>
      </trkpt>
      <trkpt lat="45.8753" lon="4.72993">
        <ele>187</ele>
        <time>2018-07-06T09:28:33Z</time>
      </trkpt>
      <trkpt lat="45.87526" lon="4.72987">
        <ele>187</ele>
        <time>2018-07-06T09:28:34Z</time>
      </trkpt>
      <trkpt lat="45.87524" lon="4.72981">
        <ele>187</ele>
        <time>2018-07-06T09:28:35Z</time>
      </trkpt>
      <trkpt lat="45.8752" lon="4.72975">
        <ele>187</ele>
        <time>2018-07-06T09:28:36Z</time>
      </trkpt>
      <trkpt lat="45.87517" lon="4.7297">
        <ele>187</ele>
        <time>2018-07-06T09:28:37Z</time>
      </trkpt>
      <trkpt lat="45.87514" lon="4.72964">
        <ele>187</ele>
        <time>2018-07-06T09:28:38Z</time>
      </trkpt>
      <trkpt lat="45.87511" lon="4.72959">
        <ele>187</ele>
        <time>2018-07-06T09:28:39Z</time>
      </trkpt>
      <trkpt lat="45.87508" lon="4.72953">
        <ele>187</ele>
        <time>2018-07-06T09:28:40Z</time>
      </trkpt>
      <trkpt lat="45.87503" lon="4.72948">
        <ele>187</ele>
        <time>2018-07-06T09:28:41Z</time>
      </trkpt>
      <trkpt lat="45.87499" lon="4.72945">
        <ele>188</ele>
        <time>2018-07-06T09:28:42Z</time>
      </trkpt>
      <trkpt lat="45.87494" lon="4.72941">
        <ele>188</ele>
        <time>2018-07-06T09:28:43Z</time>
      </trkpt>
      <trkpt lat="45.87489" lon="4.72938">
        <ele>188</ele>
        <time>2018-07-06T09:28:44Z</time>
      </trkpt>
      <trkpt lat="45.87484" lon="4.72934">
        <ele>188</ele>
        <time>2018-07-06T09:28:45Z</time>
      </trkpt>
      <trkpt lat="45.87481" lon="4.72929">
        <ele>188</ele>
        <time>2018-07-06T09:28:46Z</time>
      </trkpt>
      <trkpt lat="45.87478" lon="4.72924">
        <ele>188</ele>
        <time>2018-07-06T09:28:47Z</time>
      </trkpt>
      <trkpt lat="45.87474" lon="4.72913">
        <ele>188</ele>
        <time>2018-07-06T09:28:49Z</time>
      </trkpt>
      <trkpt lat="45.87471" lon="4.72906">
        <ele>188</ele>
        <time>2018-07-06T09:28:50Z</time>
      </trkpt>
      <trkpt lat="45.8747" lon="4.72894">
        <ele>188</ele>
        <time>2018-07-06T09:28:52Z</time>
      </trkpt>
      <trkpt lat="45.87469" lon="4.72888">
        <ele>188</ele>
        <time>2018-07-06T09:28:53Z</time>
      </trkpt>
      <trkpt lat="45.87467" lon="4.72881">
        <ele>188</ele>
        <time>2018-07-06T09:28:54Z</time>
      </trkpt>
      <trkpt lat="45.87464" lon="4.72873">
        <ele>188</ele>
        <time>2018-07-06T09:28:55Z</time>
      </trkpt>
      <trkpt lat="45.87462" lon="4.72867">
        <ele>188</ele>
        <time>2018-07-06T09:28:56Z</time>
      </trkpt>
      <trkpt lat="45.8746" lon="4.72859">
        <ele>188</ele>
        <time>2018-07-06T09:28:57Z</time>
      </trkpt>
      <trkpt lat="45.87456" lon="4.72852">
        <ele>188</ele>
        <time>2018-07-06T09:28:58Z</time>
      </trkpt>
      <trkpt lat="45.87452" lon="4.72847">
        <ele>188</ele>
        <time>2018-07-06T09:28:59Z</time>
      </trkpt>
      <trkpt lat="45.87448" lon="4.72839">
        <ele>188</ele>
        <time>2018-07-06T09:29:00Z</time>
      </trkpt>
      <trkpt lat="45.87446" lon="4.72833">
        <ele>189</ele>
        <time>2018-07-06T09:29:01Z</time>
      </trkpt>
      <trkpt lat="45.87444" lon="4.72826">
        <ele>189</ele>
        <time>2018-07-06T09:29:02Z</time>
      </trkpt>
      <trkpt lat="45.87441" lon="4.72819">
        <ele>189</ele>
        <time>2018-07-06T09:29:03Z</time>
      </trkpt>
      <trkpt lat="45.87438" lon="4.72812">
        <ele>189</ele>
        <time>2018-07-06T09:29:04Z</time>
      </trkpt>
      <trkpt lat="45.87432" lon="4.72807">
        <ele>189</ele>
        <time>2018-07-06T09:29:05Z</time>
      </trkpt>
      <trkpt lat="45.87429" lon="4.728">
        <ele>189</ele>
        <time>2018-07-06T09:29:06Z</time>
      </trkpt>
      <trkpt lat="45.87426" lon="4.72794">
        <ele>189</ele>
        <time>2018-07-06T09:29:07Z</time>
      </trkpt>
      <trkpt lat="45.87423" lon="4.72788">
        <ele>189</ele>
        <time>2018-07-06T09:29:08Z</time>
      </trkpt>
      <trkpt lat="45.87419" lon="4.72781">
        <ele>189</ele>
        <time>2018-07-06T09:29:09Z</time>
      </trkpt>
      <trkpt lat="45.87416" lon="4.72775">
        <ele>189</ele>
        <time>2018-07-06T09:29:10Z</time>
      </trkpt>
      <trkpt lat="45.87413" lon="4.7277">
        <ele>189</ele>
        <time>2018-07-06T09:29:11Z</time>
      </trkpt>
      <trkpt lat="45.87411" lon="4.72764">
        <ele>189</ele>
        <time>2018-07-06T09:29:12Z</time>
      </trkpt>
      <trkpt lat="45.87408" lon="4.72756">
        <ele>189</ele>
        <time>2018-07-06T09:29:13Z</time>
      </trkpt>
      <trkpt lat="45.87404" lon="4.72752">
        <ele>189</ele>
        <time>2018-07-06T09:29:14Z</time>
      </trkpt>
      <trkpt lat="45.87399" lon="4.72748">
        <ele>189</ele>
        <time>2018-07-06T09:29:15Z</time>
      </trkpt>
      <trkpt lat="45.87396" lon="4.72743">
        <ele>189</ele>
        <time>2018-07-06T09:29:16Z</time>
      </trkpt>
      <trkpt lat="45.87391" lon="4.72739">
        <ele>190</ele>
        <time>2018-07-06T09:29:17Z</time>
      </trkpt>
      <trkpt lat="45.87389" lon="4.72733">
        <ele>190</ele>
        <time>2018-07-06T09:29:18Z</time>
      </trkpt>
      <trkpt lat="45.87384" lon="4.72728">
        <ele>190</ele>
        <time>2018-07-06T09:29:19Z</time>
      </trkpt>
      <trkpt lat="45.87381" lon="4.72722">
        <ele>190</ele>
        <time>2018-07-06T09:29:20Z</time>
      </trkpt>
      <trkpt lat="45.8738" lon="4.72715">
        <ele>190</ele>
        <time>2018-07-06T09:29:21Z</time>
      </trkpt>
      <trkpt lat="45.87378" lon="4.72709">
        <ele>190</ele>
        <time>2018-07-06T09:29:22Z</time>
      </trkpt>
      <trkpt lat="45.87376" lon="4.727">
        <ele>190</ele>
        <time>2018-07-06T09:29:23Z</time>
      </trkpt>
      <trkpt lat="45.87372" lon="4.72694">
        <ele>190</ele>
        <time>2018-07-06T09:29:24Z</time>
      </trkpt>
      <trkpt lat="45.87368" lon="4.72686">
        <ele>190</ele>
        <time>2018-07-06T09:29:25Z</time>
      </trkpt>
      <trkpt lat="45.87363" lon="4.72681">
        <ele>190</ele>
        <time>2018-07-06T09:29:26Z</time>
      </trkpt>
      <trkpt lat="45.87359" lon="4.72674">
        <ele>190</ele>
        <time>2018-07-06T09:29:27Z</time>
      </trkpt>
      <trkpt lat="45.87354" lon="4.72669">
        <ele>190</ele>
        <time>2018-07-06T09:29:28Z</time>
      </trkpt>
      <trkpt lat="45.87349" lon="4.72665">
        <ele>190</ele>
        <time>2018-07-06T09:29:29Z</time>
      </trkpt>
      <trkpt lat="45.87343" lon="4.7266">
        <ele>190</ele>
        <time>2018-07-06T09:29:30Z</time>
      </trkpt>
      <trkpt lat="45.87339" lon="4.72655">
        <ele>190</ele>
        <time>2018-07-06T09:29:31Z</time>
      </trkpt>
      <trkpt lat="45.87335" lon="4.72651">
        <ele>190</ele>
        <time>2018-07-06T09:29:32Z</time>
      </trkpt>
      <trkpt lat="45.87331" lon="4.72645">
        <ele>192</ele>
        <time>2018-07-06T09:29:33Z</time>
      </trkpt>
      <trkpt lat="45.87331" lon="4.7264">
        <ele>192</ele>
        <time>2018-07-06T09:29:34Z</time>
      </trkpt>
      <trkpt lat="45.87327" lon="4.72634">
        <ele>193</ele>
        <time>2018-07-06T09:29:35Z</time>
      </trkpt>
      <trkpt lat="45.87323" lon="4.7263">
        <ele>193</ele>
        <time>2018-07-06T09:29:36Z</time>
      </trkpt>
      <trkpt lat="45.87318" lon="4.72626">
        <ele>193</ele>
        <time>2018-07-06T09:29:37Z</time>
      </trkpt>
      <trkpt lat="45.87314" lon="4.72621">
        <ele>193</ele>
        <time>2018-07-06T09:29:38Z</time>
      </trkpt>
      <trkpt lat="45.8731" lon="4.72617">
        <ele>193</ele>
        <time>2018-07-06T09:29:39Z</time>
      </trkpt>
      <trkpt lat="45.87305" lon="4.72612">
        <ele>193</ele>
        <time>2018-07-06T09:29:40Z</time>
      </trkpt>
      <trkpt lat="45.87302" lon="4.72606">
        <ele>194</ele>
        <time>2018-07-06T09:29:41Z</time>
      </trkpt>
      <trkpt lat="45.87297" lon="4.72601">
        <ele>194</ele>
        <time>2018-07-06T09:29:42Z</time>
      </trkpt>
      <trkpt lat="45.87294" lon="4.72595">
        <ele>194</ele>
        <time>2018-07-06T09:29:43Z</time>
      </trkpt>
      <trkpt lat="45.87289" lon="4.72591">
        <ele>194</ele>
        <time>2018-07-06T09:29:44Z</time>
      </trkpt>
      <trkpt lat="45.87286" lon="4.72585">
        <ele>194</ele>
        <time>2018-07-06T09:29:45Z</time>
      </trkpt>
      <trkpt lat="45.87281" lon="4.72581">
        <ele>194</ele>
        <time>2018-07-06T09:29:46Z</time>
      </trkpt>
      <trkpt lat="45.87276" lon="4.72575">
        <ele>194</ele>
        <time>2018-07-06T09:29:47Z</time>
      </trkpt>
      <trkpt lat="45.87272" lon="4.72569">
        <ele>194</ele>
        <time>2018-07-06T09:29:48Z</time>
      </trkpt>
      <trkpt lat="45.87267" lon="4.72564">
        <ele>194</ele>
        <time>2018-07-06T09:29:49Z</time>
      </trkpt>
      <trkpt lat="45.87263" lon="4.72554">
        <ele>194</ele>
        <time>2018-07-06T09:29:52Z</time>
      </trkpt>
      <trkpt lat="45.87261" lon="4.72552">
        <ele>194</ele>
        <time>2018-07-06T09:29:53Z</time>
      </trkpt>
      <trkpt lat="45.87258" lon="4.72548">
        <ele>194</ele>
        <time>2018-07-06T09:29:55Z</time>
      </trkpt>
      <trkpt lat="45.87254" lon="4.72539">
        <ele>194</ele>
        <time>2018-07-06T09:29:56Z</time>
      </trkpt>
      <trkpt lat="45.8725" lon="4.72529">
        <ele>193</ele>
        <time>2018-07-06T09:30:01Z</time>
      </trkpt>
      <trkpt lat="45.87246" lon="4.72519">
        <ele>196</ele>
        <time>2018-07-06T09:30:02Z</time>
      </trkpt>
      <trkpt lat="45.87243" lon="4.7251">
        <ele>195</ele>
        <time>2018-07-06T09:30:04Z</time>
      </trkpt>
      <trkpt lat="45.8724" lon="4.72505">
        <ele>195</ele>
        <time>2018-07-06T09:30:05Z</time>
      </trkpt>
      <trkpt lat="45.87234" lon="4.72496">
        <ele>194</ele>
        <time>2018-07-06T09:30:07Z</time>
      </trkpt>
      <trkpt lat="45.87232" lon="4.72492">
        <ele>194</ele>
        <time>2018-07-06T09:30:08Z</time>
      </trkpt>
      <trkpt lat="45.87228" lon="4.72486">
        <ele>194</ele>
        <time>2018-07-06T09:30:09Z</time>
      </trkpt>
      <trkpt lat="45.87224" lon="4.72481">
        <ele>194</ele>
        <time>2018-07-06T09:30:10Z</time>
      </trkpt>
      <trkpt lat="45.87217" lon="4.72473">
        <ele>194</ele>
        <time>2018-07-06T09:30:12Z</time>
      </trkpt>
      <trkpt lat="45.87212" lon="4.72467">
        <ele>194</ele>
        <time>2018-07-06T09:30:13Z</time>
      </trkpt>
      <trkpt lat="45.87209" lon="4.72461">
        <ele>194</ele>
        <time>2018-07-06T09:30:14Z</time>
      </trkpt>
      <trkpt lat="45.87207" lon="4.72456">
        <ele>194</ele>
        <time>2018-07-06T09:30:15Z</time>
      </trkpt>
      <trkpt lat="45.87204" lon="4.72451">
        <ele>194</ele>
        <time>2018-07-06T09:30:16Z</time>
      </trkpt>
      <trkpt lat="45.872" lon="4.72447">
        <ele>194</ele>
        <time>2018-07-06T09:30:17Z</time>
      </trkpt>
      <trkpt lat="45.87195" lon="4.72438">
        <ele>194</ele>
        <time>2018-07-06T09:30:19Z</time>
      </trkpt>
      <trkpt lat="45.87189" lon="4.72432">
        <ele>194</ele>
        <time>2018-07-06T09:30:20Z</time>
      </trkpt>
      <trkpt lat="45.87183" lon="4.72426">
        <ele>194</ele>
        <time>2018-07-06T09:30:22Z</time>
      </trkpt>
      <trkpt lat="45.87178" lon="4.7242">
        <ele>194</ele>
        <time>2018-07-06T09:30:23Z</time>
      </trkpt>
      <trkpt lat="45.87172" lon="4.72412">
        <ele>193</ele>
        <time>2018-07-06T09:30:25Z</time>
      </trkpt>
      <trkpt lat="45.87169" lon="4.72407">
        <ele>192</ele>
        <time>2018-07-06T09:30:26Z</time>
      </trkpt>
      <trkpt lat="45.87165" lon="4.72396">
        <ele>196</ele>
        <time>2018-07-06T09:30:28Z</time>
      </trkpt>
      <trkpt lat="45.87163" lon="4.7239">
        <ele>197</ele>
        <time>2018-07-06T09:30:29Z</time>
      </trkpt>
      <trkpt lat="45.87161" lon="4.72379">
        <ele>197</ele>
        <time>2018-07-06T09:30:31Z</time>
      </trkpt>
      <trkpt lat="45.87157" lon="4.72372">
        <ele>197</ele>
        <time>2018-07-06T09:30:32Z</time>
      </trkpt>
      <trkpt lat="45.87154" lon="4.72367">
        <ele>197</ele>
        <time>2018-07-06T09:30:33Z</time>
      </trkpt>
      <trkpt lat="45.87152" lon="4.7236">
        <ele>196</ele>
        <time>2018-07-06T09:30:34Z</time>
      </trkpt>
      <trkpt lat="45.87148" lon="4.72353">
        <ele>196</ele>
        <time>2018-07-06T09:30:35Z</time>
      </trkpt>
      <trkpt lat="45.87145" lon="4.72347">
        <ele>196</ele>
        <time>2018-07-06T09:30:36Z</time>
      </trkpt>
      <trkpt lat="45.87143" lon="4.7234">
        <ele>196</ele>
        <time>2018-07-06T09:30:37Z</time>
      </trkpt>
      <trkpt lat="45.8714" lon="4.72333">
        <ele>194</ele>
        <time>2018-07-06T09:30:38Z</time>
      </trkpt>
      <trkpt lat="45.87138" lon="4.72327">
        <ele>195</ele>
        <time>2018-07-06T09:30:39Z</time>
      </trkpt>
      <trkpt lat="45.87134" lon="4.72319">
        <ele>195</ele>
        <time>2018-07-06T09:30:40Z</time>
      </trkpt>
      <trkpt lat="45.87131" lon="4.72312">
        <ele>196</ele>
        <time>2018-07-06T09:30:41Z</time>
      </trkpt>
      <trkpt lat="45.87128" lon="4.72305">
        <ele>196</ele>
        <time>2018-07-06T09:30:42Z</time>
      </trkpt>
      <trkpt lat="45.87124" lon="4.72298">
        <ele>196</ele>
        <time>2018-07-06T09:30:43Z</time>
      </trkpt>
      <trkpt lat="45.8712" lon="4.72291">
        <ele>196</ele>
        <time>2018-07-06T09:30:44Z</time>
      </trkpt>
      <trkpt lat="45.87117" lon="4.72285">
        <ele>197</ele>
        <time>2018-07-06T09:30:45Z</time>
      </trkpt>
      <trkpt lat="45.87112" lon="4.72279">
        <ele>197</ele>
        <time>2018-07-06T09:30:46Z</time>
      </trkpt>
      <trkpt lat="45.87108" lon="4.72273">
        <ele>197</ele>
        <time>2018-07-06T09:30:47Z</time>
      </trkpt>
      <trkpt lat="45.87103" lon="4.72267">
        <ele>197</ele>
        <time>2018-07-06T09:30:48Z</time>
      </trkpt>
      <trkpt lat="45.87099" lon="4.72262">
        <ele>197</ele>
        <time>2018-07-06T09:30:49Z</time>
      </trkpt>
      <trkpt lat="45.87095" lon="4.72257">
        <ele>198</ele>
        <time>2018-07-06T09:30:50Z</time>
      </trkpt>
      <trkpt lat="45.87091" lon="4.72252">
        <ele>198</ele>
        <time>2018-07-06T09:30:51Z</time>
      </trkpt>
      <trkpt lat="45.87087" lon="4.72247">
        <ele>198</ele>
        <time>2018-07-06T09:30:52Z</time>
      </trkpt>
      <trkpt lat="45.87082" lon="4.72242">
        <ele>199</ele>
        <time>2018-07-06T09:30:53Z</time>
      </trkpt>
      <trkpt lat="45.87078" lon="4.72237">
        <ele>200</ele>
        <time>2018-07-06T09:30:54Z</time>
      </trkpt>
      <trkpt lat="45.87073" lon="4.72231">
        <ele>200</ele>
        <time>2018-07-06T09:30:55Z</time>
      </trkpt>
      <trkpt lat="45.87069" lon="4.72226">
        <ele>200</ele>
        <time>2018-07-06T09:30:56Z</time>
      </trkpt>
      <trkpt lat="45.87063" lon="4.72221">
        <ele>200</ele>
        <time>2018-07-06T09:30:57Z</time>
      </trkpt>
      <trkpt lat="45.87058" lon="4.72216">
        <ele>200</ele>
        <time>2018-07-06T09:30:58Z</time>
      </trkpt>
      <trkpt lat="45.87052" lon="4.72212">
        <ele>200</ele>
        <time>2018-07-06T09:30:59Z</time>
      </trkpt>
      <trkpt lat="45.87046" lon="4.72207">
        <ele>200</ele>
        <time>2018-07-06T09:31:00Z</time>
      </trkpt>
      <trkpt lat="45.87041" lon="4.72203">
        <ele>200</ele>
        <time>2018-07-06T09:31:01Z</time>
      </trkpt>
      <trkpt lat="45.87035" lon="4.72199">
        <ele>201</ele>
        <time>2018-07-06T09:31:02Z</time>
      </trkpt>
      <trkpt lat="45.87029" lon="4.72196">
        <ele>201</ele>
        <time>2018-07-06T09:31:03Z</time>
      </trkpt>
      <trkpt lat="45.87023" lon="4.72192">
        <ele>201</ele>
        <time>2018-07-06T09:31:04Z</time>
      </trkpt>
      <trkpt lat="45.87018" lon="4.72188">
        <ele>201</ele>
        <time>2018-07-06T09:31:05Z</time>
      </trkpt>
      <trkpt lat="45.87012" lon="4.72184">
        <ele>201</ele>
        <time>2018-07-06T09:31:06Z</time>
      </trkpt>
      <trkpt lat="45.87006" lon="4.72179">
        <ele>201</ele>
        <time>2018-07-06T09:31:07Z</time>
      </trkpt>
      <trkpt lat="45.87" lon="4.72176">
        <ele>201</ele>
        <time>2018-07-06T09:31:08Z</time>
      </trkpt>
      <trkpt lat="45.86994" lon="4.72172">
        <ele>204</ele>
        <time>2018-07-06T09:31:09Z</time>
      </trkpt>
      <trkpt lat="45.86988" lon="4.72168">
        <ele>205</ele>
        <time>2018-07-06T09:31:10Z</time>
      </trkpt>
      <trkpt lat="45.86982" lon="4.72164">
        <ele>201</ele>
        <time>2018-07-06T09:31:11Z</time>
      </trkpt>
      <trkpt lat="45.86975" lon="4.7216">
        <ele>201</ele>
        <time>2018-07-06T09:31:12Z</time>
      </trkpt>
      <trkpt lat="45.86969" lon="4.72155">
        <ele>201</ele>
        <time>2018-07-06T09:31:13Z</time>
      </trkpt>
      <trkpt lat="45.86963" lon="4.7215">
        <ele>201</ele>
        <time>2018-07-06T09:31:14Z</time>
      </trkpt>
      <trkpt lat="45.86956" lon="4.72145">
        <ele>201</ele>
        <time>2018-07-06T09:31:15Z</time>
      </trkpt>
      <trkpt lat="45.8695" lon="4.72141">
        <ele>201</ele>
        <time>2018-07-06T09:31:16Z</time>
      </trkpt>
      <trkpt lat="45.86944" lon="4.72138">
        <ele>201</ele>
        <time>2018-07-06T09:31:17Z</time>
      </trkpt>
      <trkpt lat="45.86938" lon="4.72134">
        <ele>201</ele>
        <time>2018-07-06T09:31:18Z</time>
      </trkpt>
      <trkpt lat="45.86932" lon="4.7213">
        <ele>201</ele>
        <time>2018-07-06T09:31:19Z</time>
      </trkpt>
      <trkpt lat="45.86926" lon="4.72127">
        <ele>200</ele>
        <time>2018-07-06T09:31:20Z</time>
      </trkpt>
      <trkpt lat="45.86921" lon="4.72123">
        <ele>200</ele>
        <time>2018-07-06T09:31:21Z</time>
      </trkpt>
      <trkpt lat="45.86915" lon="4.7212">
        <ele>201</ele>
        <time>2018-07-06T09:31:22Z</time>
      </trkpt>
      <trkpt lat="45.86908" lon="4.72117">
        <ele>201</ele>
        <time>2018-07-06T09:31:23Z</time>
      </trkpt>
      <trkpt lat="45.86902" lon="4.72115">
        <ele>201</ele>
        <time>2018-07-06T09:31:24Z</time>
      </trkpt>
      <trkpt lat="45.86897" lon="4.72112">
        <ele>200</ele>
        <time>2018-07-06T09:31:25Z</time>
      </trkpt>
      <trkpt lat="45.8689" lon="4.7211">
        <ele>200</ele>
        <time>2018-07-06T09:31:26Z</time>
      </trkpt>
      <trkpt lat="45.86884" lon="4.72108">
        <ele>200</ele>
        <time>2018-07-06T09:31:27Z</time>
      </trkpt>
      <trkpt lat="45.86878" lon="4.72105">
        <ele>200</ele>
        <time>2018-07-06T09:31:28Z</time>
      </trkpt>
      <trkpt lat="45.86874" lon="4.72103">
        <ele>200</ele>
        <time>2018-07-06T09:31:29Z</time>
      </trkpt>
      <trkpt lat="45.86868" lon="4.721">
        <ele>200</ele>
        <time>2018-07-06T09:31:30Z</time>
      </trkpt>
      <trkpt lat="45.86862" lon="4.72097">
        <ele>199</ele>
        <time>2018-07-06T09:31:31Z</time>
      </trkpt>
      <trkpt lat="45.86855" lon="4.72094">
        <ele>199</ele>
        <time>2018-07-06T09:31:32Z</time>
      </trkpt>
      <trkpt lat="45.86848" lon="4.7209">
        <ele>197</ele>
        <time>2018-07-06T09:31:33Z</time>
      </trkpt>
      <trkpt lat="45.86842" lon="4.72087">
        <ele>196</ele>
        <time>2018-07-06T09:31:34Z</time>
      </trkpt>
      <trkpt lat="45.86835" lon="4.72084">
        <ele>194</ele>
        <time>2018-07-06T09:31:35Z</time>
      </trkpt>
      <trkpt lat="45.86828" lon="4.72082">
        <ele>193</ele>
        <time>2018-07-06T09:31:36Z</time>
      </trkpt>
      <trkpt lat="45.8682" lon="4.72079">
        <ele>193</ele>
        <time>2018-07-06T09:31:37Z</time>
      </trkpt>
      <trkpt lat="45.86811" lon="4.72076">
        <ele>194</ele>
        <time>2018-07-06T09:31:38Z</time>
      </trkpt>
      <trkpt lat="45.86803" lon="4.72074">
        <ele>194</ele>
        <time>2018-07-06T09:31:39Z</time>
      </trkpt>
      <trkpt lat="45.86794" lon="4.72071">
        <ele>194</ele>
        <time>2018-07-06T09:31:40Z</time>
      </trkpt>
      <trkpt lat="45.86787" lon="4.72069">
        <ele>194</ele>
        <time>2018-07-06T09:31:41Z</time>
      </trkpt>
      <trkpt lat="45.86779" lon="4.72065">
        <ele>194</ele>
        <time>2018-07-06T09:31:42Z</time>
      </trkpt>
      <trkpt lat="45.86773" lon="4.72062">
        <ele>195</ele>
        <time>2018-07-06T09:31:43Z</time>
      </trkpt>
      <trkpt lat="45.86767" lon="4.72058">
        <ele>195</ele>
        <time>2018-07-06T09:31:44Z</time>
      </trkpt>
      <trkpt lat="45.8676" lon="4.72056">
        <ele>195</ele>
        <time>2018-07-06T09:31:45Z</time>
      </trkpt>
      <trkpt lat="45.86753" lon="4.72053">
        <ele>195</ele>
        <time>2018-07-06T09:31:46Z</time>
      </trkpt>
      <trkpt lat="45.86746" lon="4.72051">
        <ele>197</ele>
        <time>2018-07-06T09:31:47Z</time>
      </trkpt>
      <trkpt lat="45.86741" lon="4.72047">
        <ele>197</ele>
        <time>2018-07-06T09:31:48Z</time>
      </trkpt>
      <trkpt lat="45.86734" lon="4.72043">
        <ele>197</ele>
        <time>2018-07-06T09:31:49Z</time>
      </trkpt>
      <trkpt lat="45.86728" lon="4.7204">
        <ele>197</ele>
        <time>2018-07-06T09:31:50Z</time>
      </trkpt>
      <trkpt lat="45.8672" lon="4.72035">
        <ele>197</ele>
        <time>2018-07-06T09:31:51Z</time>
      </trkpt>
      <trkpt lat="45.86714" lon="4.7203">
        <ele>197</ele>
        <time>2018-07-06T09:31:52Z</time>
      </trkpt>
      <trkpt lat="45.8671" lon="4.72027">
        <ele>197</ele>
        <time>2018-07-06T09:31:53Z</time>
      </trkpt>
      <trkpt lat="45.86704" lon="4.72022">
        <ele>197</ele>
        <time>2018-07-06T09:31:54Z</time>
      </trkpt>
      <trkpt lat="45.86697" lon="4.72018">
        <ele>197</ele>
        <time>2018-07-06T09:31:55Z</time>
      </trkpt>
      <trkpt lat="45.86692" lon="4.72014">
        <ele>196</ele>
        <time>2018-07-06T09:31:56Z</time>
      </trkpt>
      <trkpt lat="45.86685" lon="4.7201">
        <ele>196</ele>
        <time>2018-07-06T09:31:57Z</time>
      </trkpt>
      <trkpt lat="45.86679" lon="4.72005">
        <ele>196</ele>
        <time>2018-07-06T09:31:58Z</time>
      </trkpt>
      <trkpt lat="45.86672" lon="4.72">
        <ele>195</ele>
        <time>2018-07-06T09:31:59Z</time>
      </trkpt>
      <trkpt lat="45.86666" lon="4.71996">
        <ele>195</ele>
        <time>2018-07-06T09:32:00Z</time>
      </trkpt>
      <trkpt lat="45.8666" lon="4.71991">
        <ele>195</ele>
        <time>2018-07-06T09:32:01Z</time>
      </trkpt>
      <trkpt lat="45.86654" lon="4.71987">
        <ele>195</ele>
        <time>2018-07-06T09:32:02Z</time>
      </trkpt>
      <trkpt lat="45.86647" lon="4.71982">
        <ele>195</ele>
        <time>2018-07-06T09:32:03Z</time>
      </trkpt>
      <trkpt lat="45.86643" lon="4.71977">
        <ele>195</ele>
        <time>2018-07-06T09:32:04Z</time>
      </trkpt>
      <trkpt lat="45.86636" lon="4.71973">
        <ele>195</ele>
        <time>2018-07-06T09:32:05Z</time>
      </trkpt>
      <trkpt lat="45.8663" lon="4.71967">
        <ele>195</ele>
        <time>2018-07-06T09:32:06Z</time>
      </trkpt>
      <trkpt lat="45.86621" lon="4.71962">
        <ele>195</ele>
        <time>2018-07-06T09:32:07Z</time>
      </trkpt>
      <trkpt lat="45.86615" lon="4.71957">
        <ele>194</ele>
        <time>2018-07-06T09:32:08Z</time>
      </trkpt>
      <trkpt lat="45.86609" lon="4.71951">
        <ele>194</ele>
        <time>2018-07-06T09:32:09Z</time>
      </trkpt>
      <trkpt lat="45.86604" lon="4.71947">
        <ele>194</ele>
        <time>2018-07-06T09:32:10Z</time>
      </trkpt>
      <trkpt lat="45.86598" lon="4.71943">
        <ele>194</ele>
        <time>2018-07-06T09:32:11Z</time>
      </trkpt>
      <trkpt lat="45.86592" lon="4.71938">
        <ele>194</ele>
        <time>2018-07-06T09:32:12Z</time>
      </trkpt>
      <trkpt lat="45.86587" lon="4.71933">
        <ele>194</ele>
        <time>2018-07-06T09:32:13Z</time>
      </trkpt>
      <trkpt lat="45.86581" lon="4.71929">
        <ele>195</ele>
        <time>2018-07-06T09:32:14Z</time>
      </trkpt>
      <trkpt lat="45.86574" lon="4.71926">
        <ele>195</ele>
        <time>2018-07-06T09:32:15Z</time>
      </trkpt>
      <trkpt lat="45.86569" lon="4.71921">
        <ele>195</ele>
        <time>2018-07-06T09:32:16Z</time>
      </trkpt>
      <trkpt lat="45.86564" lon="4.71917">
        <ele>195</ele>
        <time>2018-07-06T09:32:17Z</time>
      </trkpt>
      <trkpt lat="45.86558" lon="4.71912">
        <ele>195</ele>
        <time>2018-07-06T09:32:18Z</time>
      </trkpt>
      <trkpt lat="45.86553" lon="4.71906">
        <ele>195</ele>
        <time>2018-07-06T09:32:19Z</time>
      </trkpt>
      <trkpt lat="45.86548" lon="4.71902">
        <ele>195</ele>
        <time>2018-07-06T09:32:20Z</time>
      </trkpt>
      <trkpt lat="45.86543" lon="4.71897">
        <ele>195</ele>
        <time>2018-07-06T09:32:21Z</time>
      </trkpt>
      <trkpt lat="45.86538" lon="4.71892">
        <ele>195</ele>
        <time>2018-07-06T09:32:22Z</time>
      </trkpt>
      <trkpt lat="45.86533" lon="4.71888">
        <ele>195</ele>
        <time>2018-07-06T09:32:23Z</time>
      </trkpt>
      <trkpt lat="45.86528" lon="4.71884">
        <ele>195</ele>
        <time>2018-07-06T09:32:24Z</time>
      </trkpt>
      <trkpt lat="45.86526" lon="4.7188">
        <ele>195</ele>
        <time>2018-07-06T09:32:25Z</time>
      </trkpt>
      <trkpt lat="45.86522" lon="4.71877">
        <ele>195</ele>
        <time>2018-07-06T09:32:26Z</time>
      </trkpt>
      <trkpt lat="45.86517" lon="4.71873">
        <ele>195</ele>
        <time>2018-07-06T09:32:27Z</time>
      </trkpt>
      <trkpt lat="45.86513" lon="4.7187">
        <ele>195</ele>
        <time>2018-07-06T09:32:28Z</time>
      </trkpt>
      <trkpt lat="45.86508" lon="4.71868">
        <ele>195</ele>
        <time>2018-07-06T09:32:29Z</time>
      </trkpt>
      <trkpt lat="45.86503" lon="4.71864">
        <ele>195</ele>
        <time>2018-07-06T09:32:30Z</time>
      </trkpt>
      <trkpt lat="45.86498" lon="4.7186">
        <ele>198</ele>
        <time>2018-07-06T09:32:31Z</time>
      </trkpt>
      <trkpt lat="45.86492" lon="4.71856">
        <ele>198</ele>
        <time>2018-07-06T09:32:32Z</time>
      </trkpt>
      <trkpt lat="45.86487" lon="4.71851">
        <ele>198</ele>
        <time>2018-07-06T09:32:33Z</time>
      </trkpt>
      <trkpt lat="45.86482" lon="4.71847">
        <ele>198</ele>
        <time>2018-07-06T09:32:34Z</time>
      </trkpt>
      <trkpt lat="45.86476" lon="4.71844">
        <ele>198</ele>
        <time>2018-07-06T09:32:35Z</time>
      </trkpt>
      <trkpt lat="45.86473" lon="4.71841">
        <ele>198</ele>
        <time>2018-07-06T09:32:36Z</time>
      </trkpt>
      <trkpt lat="45.86467" lon="4.71839">
        <ele>199</ele>
        <time>2018-07-06T09:32:37Z</time>
      </trkpt>
      <trkpt lat="45.86463" lon="4.71837">
        <ele>199</ele>
        <time>2018-07-06T09:32:38Z</time>
      </trkpt>
      <trkpt lat="45.86457" lon="4.71833">
        <ele>197</ele>
        <time>2018-07-06T09:32:39Z</time>
      </trkpt>
      <trkpt lat="45.86451" lon="4.71829">
        <ele>197</ele>
        <time>2018-07-06T09:32:40Z</time>
      </trkpt>
      <trkpt lat="45.86445" lon="4.71825">
        <ele>197</ele>
        <time>2018-07-06T09:32:41Z</time>
      </trkpt>
      <trkpt lat="45.86439" lon="4.7182">
        <ele>198</ele>
        <time>2018-07-06T09:32:42Z</time>
      </trkpt>
      <trkpt lat="45.86434" lon="4.71816">
        <ele>198</ele>
        <time>2018-07-06T09:32:43Z</time>
      </trkpt>
      <trkpt lat="45.86429" lon="4.71813">
        <ele>198</ele>
        <time>2018-07-06T09:32:44Z</time>
      </trkpt>
      <trkpt lat="45.86425" lon="4.71809">
        <ele>198</ele>
        <time>2018-07-06T09:32:45Z</time>
      </trkpt>
      <trkpt lat="45.8642" lon="4.71804">
        <ele>197</ele>
        <time>2018-07-06T09:32:46Z</time>
      </trkpt>
      <trkpt lat="45.86415" lon="4.718">
        <ele>199</ele>
        <time>2018-07-06T09:32:47Z</time>
      </trkpt>
      <trkpt lat="45.86411" lon="4.71796">
        <ele>199</ele>
        <time>2018-07-06T09:32:48Z</time>
      </trkpt>
      <trkpt lat="45.86406" lon="4.71792">
        <ele>199</ele>
        <time>2018-07-06T09:32:49Z</time>
      </trkpt>
      <trkpt lat="45.86402" lon="4.71788">
        <ele>198</ele>
        <time>2018-07-06T09:32:50Z</time>
      </trkpt>
      <trkpt lat="45.86397" lon="4.71782">
        <ele>198</ele>
        <time>2018-07-06T09:32:51Z</time>
      </trkpt>
      <trkpt lat="45.86394" lon="4.71777">
        <ele>198</ele>
        <time>2018-07-06T09:32:52Z</time>
      </trkpt>
      <trkpt lat="45.86389" lon="4.71774">
        <ele>198</ele>
        <time>2018-07-06T09:32:53Z</time>
      </trkpt>
      <trkpt lat="45.86384" lon="4.7177">
        <ele>198</ele>
        <time>2018-07-06T09:32:54Z</time>
      </trkpt>
      <trkpt lat="45.86376" lon="4.71768">
        <ele>198</ele>
        <time>2018-07-06T09:32:55Z</time>
      </trkpt>
      <trkpt lat="45.8637" lon="4.71763">
        <ele>198</ele>
        <time>2018-07-06T09:32:56Z</time>
      </trkpt>
      <trkpt lat="45.86364" lon="4.7176">
        <ele>198</ele>
        <time>2018-07-06T09:32:57Z</time>
      </trkpt>
      <trkpt lat="45.86358" lon="4.71756">
        <ele>198</ele>
        <time>2018-07-06T09:32:58Z</time>
      </trkpt>
      <trkpt lat="45.86352" lon="4.71751">
        <ele>197</ele>
        <time>2018-07-06T09:32:59Z</time>
      </trkpt>
      <trkpt lat="45.86348" lon="4.71746">
        <ele>195</ele>
        <time>2018-07-06T09:33:00Z</time>
      </trkpt>
      <trkpt lat="45.86342" lon="4.71742">
        <ele>195</ele>
        <time>2018-07-06T09:33:01Z</time>
      </trkpt>
      <trkpt lat="45.86337" lon="4.71737">
        <ele>195</ele>
        <time>2018-07-06T09:33:02Z</time>
      </trkpt>
      <trkpt lat="45.86331" lon="4.71732">
        <ele>196</ele>
        <time>2018-07-06T09:33:03Z</time>
      </trkpt>
      <trkpt lat="45.86327" lon="4.71727">
        <ele>196</ele>
        <time>2018-07-06T09:33:04Z</time>
      </trkpt>
      <trkpt lat="45.86321" lon="4.71722">
        <ele>196</ele>
        <time>2018-07-06T09:33:05Z</time>
      </trkpt>
      <trkpt lat="45.86315" lon="4.71718">
        <ele>196</ele>
        <time>2018-07-06T09:33:06Z</time>
      </trkpt>
      <trkpt lat="45.8631" lon="4.71714">
        <ele>195</ele>
        <time>2018-07-06T09:33:07Z</time>
      </trkpt>
      <trkpt lat="45.86305" lon="4.71709">
        <ele>195</ele>
        <time>2018-07-06T09:33:08Z</time>
      </trkpt>
      <trkpt lat="45.86299" lon="4.71704">
        <ele>195</ele>
        <time>2018-07-06T09:33:09Z</time>
      </trkpt>
      <trkpt lat="45.86293" lon="4.717">
        <ele>195</ele>
        <time>2018-07-06T09:33:10Z</time>
      </trkpt>
      <trkpt lat="45.86287" lon="4.71695">
        <ele>195</ele>
        <time>2018-07-06T09:33:11Z</time>
      </trkpt>
      <trkpt lat="45.86282" lon="4.71691">
        <ele>195</ele>
        <time>2018-07-06T09:33:12Z</time>
      </trkpt>
      <trkpt lat="45.86276" lon="4.71686">
        <ele>195</ele>
        <time>2018-07-06T09:33:13Z</time>
      </trkpt>
      <trkpt lat="45.8627" lon="4.71682">
        <ele>195</ele>
        <time>2018-07-06T09:33:14Z</time>
      </trkpt>
      <trkpt lat="45.86264" lon="4.71678">
        <ele>195</ele>
        <time>2018-07-06T09:33:15Z</time>
      </trkpt>
      <trkpt lat="45.86257" lon="4.71674">
        <ele>195</ele>
        <time>2018-07-06T09:33:16Z</time>
      </trkpt>
      <trkpt lat="45.86251" lon="4.7167">
        <ele>195</ele>
        <time>2018-07-06T09:33:17Z</time>
      </trkpt>
      <trkpt lat="45.86244" lon="4.71666">
        <ele>195</ele>
        <time>2018-07-06T09:33:18Z</time>
      </trkpt>
      <trkpt lat="45.86238" lon="4.71662">
        <ele>195</ele>
        <time>2018-07-06T09:33:19Z</time>
      </trkpt>
      <trkpt lat="45.86235" lon="4.71658">
        <ele>195</ele>
        <time>2018-07-06T09:33:20Z</time>
      </trkpt>
      <trkpt lat="45.8623" lon="4.71653">
        <ele>195</ele>
        <time>2018-07-06T09:33:21Z</time>
      </trkpt>
      <trkpt lat="45.86224" lon="4.71649">
        <ele>195</ele>
        <time>2018-07-06T09:33:22Z</time>
      </trkpt>
      <trkpt lat="45.8622" lon="4.71644">
        <ele>195</ele>
        <time>2018-07-06T09:33:23Z</time>
      </trkpt>
      <trkpt lat="45.86215" lon="4.71635">
        <ele>195</ele>
        <time>2018-07-06T09:33:25Z</time>
      </trkpt>
      <trkpt lat="45.86209" lon="4.71627">
        <ele>195</ele>
        <time>2018-07-06T09:33:26Z</time>
      </trkpt>
      <trkpt lat="45.86208" lon="4.71621">
        <ele>195</ele>
        <time>2018-07-06T09:33:27Z</time>
      </trkpt>
      <trkpt lat="45.86207" lon="4.71614">
        <ele>195</ele>
        <time>2018-07-06T09:33:28Z</time>
      </trkpt>
      <trkpt lat="45.86204" lon="4.71607">
        <ele>195</ele>
        <time>2018-07-06T09:33:29Z</time>
      </trkpt>
      <trkpt lat="45.86201" lon="4.71602">
        <ele>195</ele>
        <time>2018-07-06T09:33:30Z</time>
      </trkpt>
      <trkpt lat="45.86194" lon="4.71594">
        <ele>195</ele>
        <time>2018-07-06T09:33:32Z</time>
      </trkpt>
      <trkpt lat="45.8619" lon="4.71589">
        <ele>195</ele>
        <time>2018-07-06T09:33:33Z</time>
      </trkpt>
      <trkpt lat="45.86187" lon="4.71584">
        <ele>196</ele>
        <time>2018-07-06T09:33:34Z</time>
      </trkpt>
      <trkpt lat="45.86182" lon="4.71578">
        <ele>195</ele>
        <time>2018-07-06T09:33:35Z</time>
      </trkpt>
      <trkpt lat="45.86178" lon="4.71572">
        <ele>195</ele>
        <time>2018-07-06T09:33:36Z</time>
      </trkpt>
      <trkpt lat="45.86175" lon="4.71566">
        <ele>195</ele>
        <time>2018-07-06T09:33:37Z</time>
      </trkpt>
      <trkpt lat="45.86172" lon="4.7156">
        <ele>195</ele>
        <time>2018-07-06T09:33:38Z</time>
      </trkpt>
      <trkpt lat="45.86166" lon="4.71555">
        <ele>196</ele>
        <time>2018-07-06T09:33:39Z</time>
      </trkpt>
      <trkpt lat="45.86163" lon="4.71549">
        <ele>196</ele>
        <time>2018-07-06T09:33:40Z</time>
      </trkpt>
      <trkpt lat="45.86158" lon="4.71544">
        <ele>196</ele>
        <time>2018-07-06T09:33:41Z</time>
      </trkpt>
      <trkpt lat="45.86154" lon="4.71533">
        <ele>195</ele>
        <time>2018-07-06T09:33:43Z</time>
      </trkpt>
      <trkpt lat="45.86152" lon="4.71528">
        <ele>195</ele>
        <time>2018-07-06T09:33:44Z</time>
      </trkpt>
      <trkpt lat="45.8615" lon="4.71521">
        <ele>195</ele>
        <time>2018-07-06T09:33:45Z</time>
      </trkpt>
      <trkpt lat="45.8615" lon="4.71514">
        <ele>195</ele>
        <time>2018-07-06T09:33:46Z</time>
      </trkpt>
      <trkpt lat="45.86147" lon="4.71502">
        <ele>195</ele>
        <time>2018-07-06T09:33:48Z</time>
      </trkpt>
      <trkpt lat="45.86143" lon="4.71494">
        <ele>195</ele>
        <time>2018-07-06T09:33:49Z</time>
      </trkpt>
      <trkpt lat="45.8614" lon="4.71487">
        <ele>195</ele>
        <time>2018-07-06T09:33:50Z</time>
      </trkpt>
      <trkpt lat="45.86137" lon="4.71481">
        <ele>195</ele>
        <time>2018-07-06T09:33:51Z</time>
      </trkpt>
      <trkpt lat="45.86136" lon="4.71474">
        <ele>195</ele>
        <time>2018-07-06T09:33:52Z</time>
      </trkpt>
      <trkpt lat="45.86134" lon="4.71468">
        <ele>195</ele>
        <time>2018-07-06T09:33:53Z</time>
      </trkpt>
      <trkpt lat="45.86133" lon="4.71461">
        <ele>195</ele>
        <time>2018-07-06T09:33:54Z</time>
      </trkpt>
      <trkpt lat="45.8613" lon="4.71455">
        <ele>195</ele>
        <time>2018-07-06T09:33:55Z</time>
      </trkpt>
      <trkpt lat="45.8613" lon="4.71447">
        <ele>195</ele>
        <time>2018-07-06T09:33:56Z</time>
      </trkpt>
      <trkpt lat="45.86127" lon="4.71439">
        <ele>195</ele>
        <time>2018-07-06T09:33:57Z</time>
      </trkpt>
      <trkpt lat="45.86125" lon="4.71432">
        <ele>195</ele>
        <time>2018-07-06T09:33:58Z</time>
      </trkpt>
      <trkpt lat="45.86123" lon="4.71424">
        <ele>195</ele>
        <time>2018-07-06T09:33:59Z</time>
      </trkpt>
      <trkpt lat="45.86122" lon="4.71418">
        <ele>195</ele>
        <time>2018-07-06T09:34:00Z</time>
      </trkpt>
      <trkpt lat="45.8612" lon="4.71411">
        <ele>196</ele>
        <time>2018-07-06T09:34:01Z</time>
      </trkpt>
      <trkpt lat="45.86117" lon="4.71404">
        <ele>196</ele>
        <time>2018-07-06T09:34:02Z</time>
      </trkpt>
      <trkpt lat="45.86117" lon="4.71396">
        <ele>196</ele>
        <time>2018-07-06T09:34:03Z</time>
      </trkpt>
      <trkpt lat="45.86117" lon="4.71388">
        <ele>196</ele>
        <time>2018-07-06T09:34:04Z</time>
      </trkpt>
      <trkpt lat="45.86117" lon="4.71381">
        <ele>196</ele>
        <time>2018-07-06T09:34:05Z</time>
      </trkpt>
      <trkpt lat="45.86117" lon="4.71374">
        <ele>196</ele>
        <time>2018-07-06T09:34:06Z</time>
      </trkpt>
      <trkpt lat="45.86115" lon="4.71368">
        <ele>196</ele>
        <time>2018-07-06T09:34:07Z</time>
      </trkpt>
      <trkpt lat="45.86112" lon="4.71361">
        <ele>196</ele>
        <time>2018-07-06T09:34:08Z</time>
      </trkpt>
      <trkpt lat="45.86113" lon="4.71355">
        <ele>196</ele>
        <time>2018-07-06T09:34:09Z</time>
      </trkpt>
      <trkpt lat="45.86111" lon="4.71343">
        <ele>196</ele>
        <time>2018-07-06T09:34:11Z</time>
      </trkpt>
      <trkpt lat="45.86112" lon="4.71336">
        <ele>196</ele>
        <time>2018-07-06T09:34:12Z</time>
      </trkpt>
      <trkpt lat="45.86111" lon="4.71329">
        <ele>196</ele>
        <time>2018-07-06T09:34:13Z</time>
      </trkpt>
      <trkpt lat="45.86109" lon="4.71322">
        <ele>196</ele>
        <time>2018-07-06T09:34:14Z</time>
      </trkpt>
      <trkpt lat="45.86106" lon="4.71315">
        <ele>196</ele>
        <time>2018-07-06T09:34:15Z</time>
      </trkpt>
      <trkpt lat="45.86105" lon="4.71307">
        <ele>196</ele>
        <time>2018-07-06T09:34:16Z</time>
      </trkpt>
      <trkpt lat="45.86102" lon="4.71296">
        <ele>197</ele>
        <time>2018-07-06T09:34:18Z</time>
      </trkpt>
      <trkpt lat="45.86102" lon="4.7129">
        <ele>197</ele>
        <time>2018-07-06T09:34:19Z</time>
      </trkpt>
      <trkpt lat="45.86102" lon="4.71281">
        <ele>197</ele>
        <time>2018-07-06T09:34:21Z</time>
      </trkpt>
      <trkpt lat="45.861" lon="4.71276">
        <ele>197</ele>
        <time>2018-07-06T09:34:22Z</time>
      </trkpt>
      <trkpt lat="45.86094" lon="4.71266">
        <ele>197</ele>
        <time>2018-07-06T09:34:24Z</time>
      </trkpt>
      <trkpt lat="45.86092" lon="4.71261">
        <ele>197</ele>
        <time>2018-07-06T09:34:25Z</time>
      </trkpt>
      <trkpt lat="45.86089" lon="4.71257">
        <ele>197</ele>
        <time>2018-07-06T09:34:26Z</time>
      </trkpt>
      <trkpt lat="45.86086" lon="4.7125">
        <ele>198</ele>
        <time>2018-07-06T09:34:27Z</time>
      </trkpt>
      <trkpt lat="45.86082" lon="4.71242">
        <ele>198</ele>
        <time>2018-07-06T09:34:28Z</time>
      </trkpt>
      <trkpt lat="45.8608" lon="4.71234">
        <ele>198</ele>
        <time>2018-07-06T09:34:29Z</time>
      </trkpt>
      <trkpt lat="45.86086" lon="4.71225">
        <ele>197</ele>
        <time>2018-07-06T09:34:30Z</time>
      </trkpt>
      <trkpt lat="45.86087" lon="4.71217">
        <ele>197</ele>
        <time>2018-07-06T09:34:31Z</time>
      </trkpt>
      <trkpt lat="45.86086" lon="4.7121">
        <ele>197</ele>
        <time>2018-07-06T09:34:32Z</time>
      </trkpt>
      <trkpt lat="45.86088" lon="4.71204">
        <ele>197</ele>
        <time>2018-07-06T09:34:33Z</time>
      </trkpt>
      <trkpt lat="45.8609" lon="4.71197">
        <ele>197</ele>
        <time>2018-07-06T09:34:34Z</time>
      </trkpt>
      <trkpt lat="45.86093" lon="4.71186">
        <ele>197</ele>
        <time>2018-07-06T09:34:36Z</time>
      </trkpt>
      <trkpt lat="45.86093" lon="4.7118">
        <ele>197</ele>
        <time>2018-07-06T09:34:37Z</time>
      </trkpt>
      <trkpt lat="45.86094" lon="4.71172">
        <ele>197</ele>
        <time>2018-07-06T09:34:38Z</time>
      </trkpt>
      <trkpt lat="45.86093" lon="4.71165">
        <ele>197</ele>
        <time>2018-07-06T09:34:39Z</time>
      </trkpt>
      <trkpt lat="45.86092" lon="4.71157">
        <ele>197</ele>
        <time>2018-07-06T09:34:40Z</time>
      </trkpt>
      <trkpt lat="45.8609" lon="4.71151">
        <ele>197</ele>
        <time>2018-07-06T09:34:41Z</time>
      </trkpt>
      <trkpt lat="45.86089" lon="4.71145">
        <ele>197</ele>
        <time>2018-07-06T09:34:42Z</time>
      </trkpt>
      <trkpt lat="45.86086" lon="4.71139">
        <ele>197</ele>
        <time>2018-07-06T09:34:43Z</time>
      </trkpt>
      <trkpt lat="45.8608" lon="4.71132">
        <ele>197</ele>
        <time>2018-07-06T09:34:45Z</time>
      </trkpt>
      <trkpt lat="45.86075" lon="4.71128">
        <ele>197</ele>
        <time>2018-07-06T09:34:46Z</time>
      </trkpt>
      <trkpt lat="45.86069" lon="4.71124">
        <ele>197</ele>
        <time>2018-07-06T09:34:47Z</time>
      </trkpt>
      <trkpt lat="45.86064" lon="4.71121">
        <ele>197</ele>
        <time>2018-07-06T09:34:48Z</time>
      </trkpt>
      <trkpt lat="45.86059" lon="4.71118">
        <ele>197</ele>
        <time>2018-07-06T09:34:49Z</time>
      </trkpt>
      <trkpt lat="45.86056" lon="4.71114">
        <ele>197</ele>
        <time>2018-07-06T09:34:50Z</time>
      </trkpt>
      <trkpt lat="45.86052" lon="4.71109">
        <ele>197</ele>
        <time>2018-07-06T09:34:51Z</time>
      </trkpt>
      <trkpt lat="45.86049" lon="4.71103">
        <ele>197</ele>
        <time>2018-07-06T09:34:52Z</time>
      </trkpt>
      <trkpt lat="45.86044" lon="4.71096">
        <ele>197</ele>
        <time>2018-07-06T09:34:53Z</time>
      </trkpt>
      <trkpt lat="45.86042" lon="4.71091">
        <ele>197</ele>
        <time>2018-07-06T09:34:54Z</time>
      </trkpt>
      <trkpt lat="45.86039" lon="4.71085">
        <ele>197</ele>
        <time>2018-07-06T09:34:55Z</time>
      </trkpt>
      <trkpt lat="45.86036" lon="4.71078">
        <ele>197</ele>
        <time>2018-07-06T09:34:56Z</time>
      </trkpt>
      <trkpt lat="45.86033" lon="4.7107">
        <ele>197</ele>
        <time>2018-07-06T09:34:57Z</time>
      </trkpt>
      <trkpt lat="45.86031" lon="4.71062">
        <ele>197</ele>
        <time>2018-07-06T09:34:58Z</time>
      </trkpt>
      <trkpt lat="45.86029" lon="4.71054">
        <ele>197</ele>
        <time>2018-07-06T09:34:59Z</time>
      </trkpt>
      <trkpt lat="45.86027" lon="4.71046">
        <ele>197</ele>
        <time>2018-07-06T09:35:00Z</time>
      </trkpt>
      <trkpt lat="45.86025" lon="4.7104">
        <ele>197</ele>
        <time>2018-07-06T09:35:01Z</time>
      </trkpt>
      <trkpt lat="45.86023" lon="4.71033">
        <ele>197</ele>
        <time>2018-07-06T09:35:02Z</time>
      </trkpt>
      <trkpt lat="45.86024" lon="4.71021">
        <ele>197</ele>
        <time>2018-07-06T09:35:04Z</time>
      </trkpt>
      <trkpt lat="45.86022" lon="4.71015">
        <ele>197</ele>
        <time>2018-07-06T09:35:05Z</time>
      </trkpt>
      <trkpt lat="45.86017" lon="4.71004">
        <ele>197</ele>
        <time>2018-07-06T09:35:07Z</time>
      </trkpt>
      <trkpt lat="45.86012" lon="4.70999">
        <ele>197</ele>
        <time>2018-07-06T09:35:08Z</time>
      </trkpt>
      <trkpt lat="45.86009" lon="4.70993">
        <ele>197</ele>
        <time>2018-07-06T09:35:09Z</time>
      </trkpt>
      <trkpt lat="45.86002" lon="4.70989">
        <ele>197</ele>
        <time>2018-07-06T09:35:10Z</time>
      </trkpt>
      <trkpt lat="45.85996" lon="4.70984">
        <ele>197</ele>
        <time>2018-07-06T09:35:11Z</time>
      </trkpt>
      <trkpt lat="45.85991" lon="4.7098">
        <ele>197</ele>
        <time>2018-07-06T09:35:12Z</time>
      </trkpt>
      <trkpt lat="45.85986" lon="4.70975">
        <ele>197</ele>
        <time>2018-07-06T09:35:13Z</time>
      </trkpt>
      <trkpt lat="45.85981" lon="4.70972">
        <ele>197</ele>
        <time>2018-07-06T09:35:14Z</time>
      </trkpt>
      <trkpt lat="45.85976" lon="4.70971">
        <ele>197</ele>
        <time>2018-07-06T09:35:15Z</time>
      </trkpt>
      <trkpt lat="45.8597" lon="4.7097">
        <ele>197</ele>
        <time>2018-07-06T09:35:16Z</time>
      </trkpt>
      <trkpt lat="45.85961" lon="4.70968">
        <ele>197</ele>
        <time>2018-07-06T09:35:18Z</time>
      </trkpt>
      <trkpt lat="45.85955" lon="4.70969">
        <ele>197</ele>
        <time>2018-07-06T09:35:19Z</time>
      </trkpt>
      <trkpt lat="45.8595" lon="4.70969">
        <ele>197</ele>
        <time>2018-07-06T09:35:20Z</time>
      </trkpt>
      <trkpt lat="45.85945" lon="4.70969">
        <ele>197</ele>
        <time>2018-07-06T09:35:21Z</time>
      </trkpt>
      <trkpt lat="45.85939" lon="4.70962">
        <ele>197</ele>
        <time>2018-07-06T09:35:23Z</time>
      </trkpt>
      <trkpt lat="45.85938" lon="4.70957">
        <ele>197</ele>
        <time>2018-07-06T09:35:24Z</time>
      </trkpt>
      <trkpt lat="45.85936" lon="4.70946">
        <ele>197</ele>
        <time>2018-07-06T09:35:26Z</time>
      </trkpt>
      <trkpt lat="45.85939" lon="4.70938">
        <ele>197</ele>
        <time>2018-07-06T09:35:27Z</time>
      </trkpt>
      <trkpt lat="45.8594" lon="4.70932">
        <ele>197</ele>
        <time>2018-07-06T09:35:28Z</time>
      </trkpt>
      <trkpt lat="45.85942" lon="4.70925">
        <ele>197</ele>
        <time>2018-07-06T09:35:29Z</time>
      </trkpt>
      <trkpt lat="45.85944" lon="4.70918">
        <ele>197</ele>
        <time>2018-07-06T09:35:30Z</time>
      </trkpt>
      <trkpt lat="45.85946" lon="4.70912">
        <ele>197</ele>
        <time>2018-07-06T09:35:31Z</time>
      </trkpt>
      <trkpt lat="45.85948" lon="4.70906">
        <ele>197</ele>
        <time>2018-07-06T09:35:32Z</time>
      </trkpt>
      <trkpt lat="45.85948" lon="4.70898">
        <ele>197</ele>
        <time>2018-07-06T09:35:33Z</time>
      </trkpt>
      <trkpt lat="45.8595" lon="4.70891">
        <ele>197</ele>
        <time>2018-07-06T09:35:34Z</time>
      </trkpt>
      <trkpt lat="45.85952" lon="4.70884">
        <ele>197</ele>
        <time>2018-07-06T09:35:35Z</time>
      </trkpt>
      <trkpt lat="45.85953" lon="4.70875">
        <ele>197</ele>
        <time>2018-07-06T09:35:36Z</time>
      </trkpt>
      <trkpt lat="45.85954" lon="4.70867">
        <ele>196</ele>
        <time>2018-07-06T09:35:37Z</time>
      </trkpt>
      <trkpt lat="45.85954" lon="4.70858">
        <ele>196</ele>
        <time>2018-07-06T09:35:38Z</time>
      </trkpt>
      <trkpt lat="45.85955" lon="4.7085">
        <ele>196</ele>
        <time>2018-07-06T09:35:39Z</time>
      </trkpt>
      <trkpt lat="45.85956" lon="4.70843">
        <ele>196</ele>
        <time>2018-07-06T09:35:40Z</time>
      </trkpt>
      <trkpt lat="45.85957" lon="4.70836">
        <ele>196</ele>
        <time>2018-07-06T09:35:41Z</time>
      </trkpt>
      <trkpt lat="45.85957" lon="4.70828">
        <ele>196</ele>
        <time>2018-07-06T09:35:42Z</time>
      </trkpt>
      <trkpt lat="45.85957" lon="4.7082">
        <ele>195</ele>
        <time>2018-07-06T09:35:43Z</time>
      </trkpt>
      <trkpt lat="45.85954" lon="4.70808">
        <ele>195</ele>
        <time>2018-07-06T09:35:45Z</time>
      </trkpt>
      <trkpt lat="45.85951" lon="4.70802">
        <ele>195</ele>
        <time>2018-07-06T09:35:46Z</time>
      </trkpt>
      <trkpt lat="45.85951" lon="4.70797">
        <ele>195</ele>
        <time>2018-07-06T09:35:47Z</time>
      </trkpt>
      <trkpt lat="45.85952" lon="4.70789">
        <ele>195</ele>
        <time>2018-07-06T09:35:48Z</time>
      </trkpt>
      <trkpt lat="45.85953" lon="4.70782">
        <ele>195</ele>
        <time>2018-07-06T09:35:49Z</time>
      </trkpt>
      <trkpt lat="45.85952" lon="4.70772">
        <ele>195</ele>
        <time>2018-07-06T09:35:50Z</time>
      </trkpt>
      <trkpt lat="45.85953" lon="4.70766">
        <ele>195</ele>
        <time>2018-07-06T09:35:51Z</time>
      </trkpt>
      <trkpt lat="45.85953" lon="4.70757">
        <ele>195</ele>
        <time>2018-07-06T09:35:52Z</time>
      </trkpt>
      <trkpt lat="45.85954" lon="4.7075">
        <ele>194</ele>
        <time>2018-07-06T09:35:53Z</time>
      </trkpt>
      <trkpt lat="45.85955" lon="4.70741">
        <ele>194</ele>
        <time>2018-07-06T09:35:54Z</time>
      </trkpt>
      <trkpt lat="45.85955" lon="4.70733">
        <ele>194</ele>
        <time>2018-07-06T09:35:55Z</time>
      </trkpt>
      <trkpt lat="45.85956" lon="4.70726">
        <ele>194</ele>
        <time>2018-07-06T09:35:56Z</time>
      </trkpt>
      <trkpt lat="45.85958" lon="4.70717">
        <ele>194</ele>
        <time>2018-07-06T09:35:57Z</time>
      </trkpt>
      <trkpt lat="45.85959" lon="4.70708">
        <ele>194</ele>
        <time>2018-07-06T09:35:58Z</time>
      </trkpt>
      <trkpt lat="45.85961" lon="4.70701">
        <ele>194</ele>
        <time>2018-07-06T09:35:59Z</time>
      </trkpt>
      <trkpt lat="45.85961" lon="4.70691">
        <ele>194</ele>
        <time>2018-07-06T09:36:00Z</time>
      </trkpt>
      <trkpt lat="45.8596" lon="4.70684">
        <ele>194</ele>
        <time>2018-07-06T09:36:01Z</time>
      </trkpt>
      <trkpt lat="45.8596" lon="4.70678">
        <ele>194</ele>
        <time>2018-07-06T09:36:02Z</time>
      </trkpt>
      <trkpt lat="45.85958" lon="4.70671">
        <ele>194</ele>
        <time>2018-07-06T09:36:03Z</time>
      </trkpt>
      <trkpt lat="45.85956" lon="4.70665">
        <ele>194</ele>
        <time>2018-07-06T09:36:04Z</time>
      </trkpt>
      <trkpt lat="45.85953" lon="4.70659">
        <ele>194</ele>
        <time>2018-07-06T09:36:05Z</time>
      </trkpt>
      <trkpt lat="45.8595" lon="4.70653">
        <ele>194</ele>
        <time>2018-07-06T09:36:06Z</time>
      </trkpt>
      <trkpt lat="45.85945" lon="4.70647">
        <ele>194</ele>
        <time>2018-07-06T09:36:07Z</time>
      </trkpt>
      <trkpt lat="45.85941" lon="4.7064">
        <ele>194</ele>
        <time>2018-07-06T09:36:08Z</time>
      </trkpt>
      <trkpt lat="45.85938" lon="4.70633">
        <ele>194</ele>
        <time>2018-07-06T09:36:09Z</time>
      </trkpt>
      <trkpt lat="45.85933" lon="4.70626">
        <ele>194</ele>
        <time>2018-07-06T09:36:10Z</time>
      </trkpt>
      <trkpt lat="45.85929" lon="4.7062">
        <ele>194</ele>
        <time>2018-07-06T09:36:11Z</time>
      </trkpt>
      <trkpt lat="45.85924" lon="4.70613">
        <ele>194</ele>
        <time>2018-07-06T09:36:12Z</time>
      </trkpt>
      <trkpt lat="45.8592" lon="4.70607">
        <ele>194</ele>
        <time>2018-07-06T09:36:13Z</time>
      </trkpt>
      <trkpt lat="45.85917" lon="4.70601">
        <ele>194</ele>
        <time>2018-07-06T09:36:14Z</time>
      </trkpt>
      <trkpt lat="45.85912" lon="4.70594">
        <ele>195</ele>
        <time>2018-07-06T09:36:15Z</time>
      </trkpt>
      <trkpt lat="45.85907" lon="4.70587">
        <ele>195</ele>
        <time>2018-07-06T09:36:16Z</time>
      </trkpt>
      <trkpt lat="45.85902" lon="4.70582">
        <ele>195</ele>
        <time>2018-07-06T09:36:18Z</time>
      </trkpt>
      <trkpt lat="45.85899" lon="4.70578">
        <ele>195</ele>
        <time>2018-07-06T09:36:19Z</time>
      </trkpt>
      <trkpt lat="45.85891" lon="4.70577">
        <ele>195</ele>
        <time>2018-07-06T09:36:20Z</time>
      </trkpt>
      <trkpt lat="45.85885" lon="4.70576">
        <ele>195</ele>
        <time>2018-07-06T09:36:21Z</time>
      </trkpt>
      <trkpt lat="45.85882" lon="4.70572">
        <ele>195</ele>
        <time>2018-07-06T09:36:23Z</time>
      </trkpt>
      <trkpt lat="45.85877" lon="4.70571">
        <ele>195</ele>
        <time>2018-07-06T09:36:24Z</time>
      </trkpt>
      <trkpt lat="45.85874" lon="4.70568">
        <ele>195</ele>
        <time>2018-07-06T09:36:25Z</time>
      </trkpt>
      <trkpt lat="45.85867" lon="4.70564">
        <ele>195</ele>
        <time>2018-07-06T09:36:26Z</time>
      </trkpt>
      <trkpt lat="45.85863" lon="4.70562">
        <ele>195</ele>
        <time>2018-07-06T09:36:27Z</time>
      </trkpt>
      <trkpt lat="45.85857" lon="4.7056">
        <ele>195</ele>
        <time>2018-07-06T09:36:28Z</time>
      </trkpt>
      <trkpt lat="45.85852" lon="4.70557">
        <ele>195</ele>
        <time>2018-07-06T09:36:29Z</time>
      </trkpt>
      <trkpt lat="45.85845" lon="4.70557">
        <ele>195</ele>
        <time>2018-07-06T09:36:30Z</time>
      </trkpt>
      <trkpt lat="45.85839" lon="4.70555">
        <ele>195</ele>
        <time>2018-07-06T09:36:31Z</time>
      </trkpt>
      <trkpt lat="45.85833" lon="4.70552">
        <ele>195</ele>
        <time>2018-07-06T09:36:32Z</time>
      </trkpt>
      <trkpt lat="45.85826" lon="4.70551">
        <ele>195</ele>
        <time>2018-07-06T09:36:33Z</time>
      </trkpt>
      <trkpt lat="45.8582" lon="4.70547">
        <ele>195</ele>
        <time>2018-07-06T09:36:34Z</time>
      </trkpt>
      <trkpt lat="45.85815" lon="4.70545">
        <ele>195</ele>
        <time>2018-07-06T09:36:35Z</time>
      </trkpt>
      <trkpt lat="45.8581" lon="4.70542">
        <ele>195</ele>
        <time>2018-07-06T09:36:36Z</time>
      </trkpt>
      <trkpt lat="45.85804" lon="4.7054">
        <ele>195</ele>
        <time>2018-07-06T09:36:37Z</time>
      </trkpt>
      <trkpt lat="45.85796" lon="4.70538">
        <ele>195</ele>
        <time>2018-07-06T09:36:38Z</time>
      </trkpt>
      <trkpt lat="45.85791" lon="4.70535">
        <ele>196</ele>
        <time>2018-07-06T09:36:39Z</time>
      </trkpt>
      <trkpt lat="45.85785" lon="4.70532">
        <ele>196</ele>
        <time>2018-07-06T09:36:40Z</time>
      </trkpt>
      <trkpt lat="45.85779" lon="4.70528">
        <ele>196</ele>
        <time>2018-07-06T09:36:41Z</time>
      </trkpt>
      <trkpt lat="45.85775" lon="4.70525">
        <ele>196</ele>
        <time>2018-07-06T09:36:42Z</time>
      </trkpt>
      <trkpt lat="45.8577" lon="4.70522">
        <ele>196</ele>
        <time>2018-07-06T09:36:43Z</time>
      </trkpt>
      <trkpt lat="45.85766" lon="4.70519">
        <ele>196</ele>
        <time>2018-07-06T09:36:44Z</time>
      </trkpt>
      <trkpt lat="45.8576" lon="4.70515">
        <ele>196</ele>
        <time>2018-07-06T09:36:45Z</time>
      </trkpt>
      <trkpt lat="45.85756" lon="4.70511">
        <ele>196</ele>
        <time>2018-07-06T09:36:46Z</time>
      </trkpt>
      <trkpt lat="45.85748" lon="4.70505">
        <ele>196</ele>
        <time>2018-07-06T09:36:48Z</time>
      </trkpt>
      <trkpt lat="45.85747" lon="4.70503">
        <ele>196</ele>
        <time>2018-07-06T09:36:49Z</time>
      </trkpt>
      <trkpt lat="45.85747" lon="4.70496">
        <ele>196</ele>
        <time>2018-07-06T09:36:52Z</time>
      </trkpt>
      <trkpt lat="45.85743" lon="4.70484">
        <ele>196</ele>
        <time>2018-07-06T09:36:53Z</time>
      </trkpt>
      <trkpt lat="45.8574" lon="4.70474">
        <ele>196</ele>
        <time>2018-07-06T09:36:55Z</time>
      </trkpt>
      <trkpt lat="45.85738" lon="4.70469">
        <ele>196</ele>
        <time>2018-07-06T09:36:56Z</time>
      </trkpt>
      <trkpt lat="45.85739" lon="4.70461">
        <ele>196</ele>
        <time>2018-07-06T09:36:57Z</time>
      </trkpt>
      <trkpt lat="45.85738" lon="4.70452">
        <ele>196</ele>
        <time>2018-07-06T09:36:58Z</time>
      </trkpt>
      <trkpt lat="45.85735" lon="4.70446">
        <ele>196</ele>
        <time>2018-07-06T09:36:59Z</time>
      </trkpt>
      <trkpt lat="45.85731" lon="4.7044">
        <ele>196</ele>
        <time>2018-07-06T09:37:00Z</time>
      </trkpt>
      <trkpt lat="45.85728" lon="4.70432">
        <ele>196</ele>
        <time>2018-07-06T09:37:01Z</time>
      </trkpt>
      <trkpt lat="45.85727" lon="4.70425">
        <ele>196</ele>
        <time>2018-07-06T09:37:02Z</time>
      </trkpt>
      <trkpt lat="45.85727" lon="4.70416">
        <ele>196</ele>
        <time>2018-07-06T09:37:03Z</time>
      </trkpt>
      <trkpt lat="45.85725" lon="4.70406">
        <ele>196</ele>
        <time>2018-07-06T09:37:04Z</time>
      </trkpt>
      <trkpt lat="45.85724" lon="4.70398">
        <ele>196</ele>
        <time>2018-07-06T09:37:05Z</time>
      </trkpt>
      <trkpt lat="45.85724" lon="4.7039">
        <ele>196</ele>
        <time>2018-07-06T09:37:06Z</time>
      </trkpt>
      <trkpt lat="45.85723" lon="4.70382">
        <ele>196</ele>
        <time>2018-07-06T09:37:07Z</time>
      </trkpt>
      <trkpt lat="45.85717" lon="4.70374">
        <ele>196</ele>
        <time>2018-07-06T09:37:08Z</time>
      </trkpt>
      <trkpt lat="45.85718" lon="4.70363">
        <ele>196</ele>
        <time>2018-07-06T09:37:09Z</time>
      </trkpt>
      <trkpt lat="45.85713" lon="4.70352">
        <ele>196</ele>
        <time>2018-07-06T09:37:10Z</time>
      </trkpt>
      <trkpt lat="45.85712" lon="4.70343">
        <ele>196</ele>
        <time>2018-07-06T09:37:11Z</time>
      </trkpt>
      <trkpt lat="45.85712" lon="4.70334">
        <ele>196</ele>
        <time>2018-07-06T09:37:12Z</time>
      </trkpt>
      <trkpt lat="45.8571" lon="4.70325">
        <ele>197</ele>
        <time>2018-07-06T09:37:13Z</time>
      </trkpt>
      <trkpt lat="45.8571" lon="4.70316">
        <ele>197</ele>
        <time>2018-07-06T09:37:14Z</time>
      </trkpt>
      <trkpt lat="45.85709" lon="4.70307">
        <ele>197</ele>
        <time>2018-07-06T09:37:15Z</time>
      </trkpt>
      <trkpt lat="45.85708" lon="4.70297">
        <ele>197</ele>
        <time>2018-07-06T09:37:16Z</time>
      </trkpt>
      <trkpt lat="45.85709" lon="4.70289">
        <ele>197</ele>
        <time>2018-07-06T09:37:17Z</time>
      </trkpt>
      <trkpt lat="45.85705" lon="4.70279">
        <ele>197</ele>
        <time>2018-07-06T09:37:18Z</time>
      </trkpt>
      <trkpt lat="45.85705" lon="4.7027">
        <ele>197</ele>
        <time>2018-07-06T09:37:19Z</time>
      </trkpt>
      <trkpt lat="45.85704" lon="4.70261">
        <ele>197</ele>
        <time>2018-07-06T09:37:20Z</time>
      </trkpt>
      <trkpt lat="45.85702" lon="4.7025">
        <ele>197</ele>
        <time>2018-07-06T09:37:21Z</time>
      </trkpt>
      <trkpt lat="45.85702" lon="4.7024">
        <ele>197</ele>
        <time>2018-07-06T09:37:22Z</time>
      </trkpt>
      <trkpt lat="45.85702" lon="4.70232">
        <ele>197</ele>
        <time>2018-07-06T09:37:23Z</time>
      </trkpt>
      <trkpt lat="45.85701" lon="4.70222">
        <ele>197</ele>
        <time>2018-07-06T09:37:24Z</time>
      </trkpt>
      <trkpt lat="45.85694" lon="4.70213">
        <ele>197</ele>
        <time>2018-07-06T09:37:25Z</time>
      </trkpt>
      <trkpt lat="45.85694" lon="4.70205">
        <ele>197</ele>
        <time>2018-07-06T09:37:26Z</time>
      </trkpt>
      <trkpt lat="45.85692" lon="4.70195">
        <ele>197</ele>
        <time>2018-07-06T09:37:27Z</time>
      </trkpt>
      <trkpt lat="45.85692" lon="4.70188">
        <ele>197</ele>
        <time>2018-07-06T09:37:28Z</time>
      </trkpt>
      <trkpt lat="45.85687" lon="4.70179">
        <ele>197</ele>
        <time>2018-07-06T09:37:29Z</time>
      </trkpt>
      <trkpt lat="45.85685" lon="4.70171">
        <ele>197</ele>
        <time>2018-07-06T09:37:30Z</time>
      </trkpt>
      <trkpt lat="45.85683" lon="4.70162">
        <ele>197</ele>
        <time>2018-07-06T09:37:31Z</time>
      </trkpt>
      <trkpt lat="45.85682" lon="4.70154">
        <ele>197</ele>
        <time>2018-07-06T09:37:32Z</time>
      </trkpt>
      <trkpt lat="45.85683" lon="4.70144">
        <ele>197</ele>
        <time>2018-07-06T09:37:33Z</time>
      </trkpt>
      <trkpt lat="45.85682" lon="4.70135">
        <ele>197</ele>
        <time>2018-07-06T09:37:34Z</time>
      </trkpt>
      <trkpt lat="45.85681" lon="4.70126">
        <ele>197</ele>
        <time>2018-07-06T09:37:35Z</time>
      </trkpt>
      <trkpt lat="45.85679" lon="4.70117">
        <ele>197</ele>
        <time>2018-07-06T09:37:36Z</time>
      </trkpt>
      <trkpt lat="45.85682" lon="4.70108">
        <ele>197</ele>
        <time>2018-07-06T09:37:37Z</time>
      </trkpt>
      <trkpt lat="45.85684" lon="4.70099">
        <ele>196</ele>
        <time>2018-07-06T09:37:38Z</time>
      </trkpt>
      <trkpt lat="45.85684" lon="4.7009">
        <ele>196</ele>
        <time>2018-07-06T09:37:39Z</time>
      </trkpt>
      <trkpt lat="45.85678" lon="4.70081">
        <ele>196</ele>
        <time>2018-07-06T09:37:40Z</time>
      </trkpt>
      <trkpt lat="45.85679" lon="4.70075">
        <ele>196</ele>
        <time>2018-07-06T09:37:41Z</time>
      </trkpt>
      <trkpt lat="45.8568" lon="4.70067">
        <ele>196</ele>
        <time>2018-07-06T09:37:42Z</time>
      </trkpt>
      <trkpt lat="45.85682" lon="4.70055">
        <ele>195</ele>
        <time>2018-07-06T09:37:44Z</time>
      </trkpt>
      <trkpt lat="45.8568" lon="4.70052">
        <ele>195</ele>
        <time>2018-07-06T09:37:45Z</time>
      </trkpt>
      <trkpt lat="45.85682" lon="4.70044">
        <ele>195</ele>
        <time>2018-07-06T09:37:46Z</time>
      </trkpt>
      <trkpt lat="45.85683" lon="4.70038">
        <ele>195</ele>
        <time>2018-07-06T09:37:47Z</time>
      </trkpt>
      <trkpt lat="45.85684" lon="4.7003">
        <ele>195</ele>
        <time>2018-07-06T09:37:48Z</time>
      </trkpt>
      <trkpt lat="45.85686" lon="4.70022">
        <ele>195</ele>
        <time>2018-07-06T09:37:49Z</time>
      </trkpt>
      <trkpt lat="45.85686" lon="4.70014">
        <ele>195</ele>
        <time>2018-07-06T09:37:50Z</time>
      </trkpt>
      <trkpt lat="45.85687" lon="4.70006">
        <ele>195</ele>
        <time>2018-07-06T09:37:51Z</time>
      </trkpt>
      <trkpt lat="45.85686" lon="4.69997">
        <ele>195</ele>
        <time>2018-07-06T09:37:52Z</time>
      </trkpt>
      <trkpt lat="45.85687" lon="4.69988">
        <ele>195</ele>
        <time>2018-07-06T09:37:53Z</time>
      </trkpt>
      <trkpt lat="45.85686" lon="4.6998">
        <ele>195</ele>
        <time>2018-07-06T09:37:54Z</time>
      </trkpt>
      <trkpt lat="45.85685" lon="4.69973">
        <ele>195</ele>
        <time>2018-07-06T09:37:55Z</time>
      </trkpt>
      <trkpt lat="45.85684" lon="4.69964">
        <ele>195</ele>
        <time>2018-07-06T09:37:56Z</time>
      </trkpt>
      <trkpt lat="45.85682" lon="4.69955">
        <ele>195</ele>
        <time>2018-07-06T09:37:57Z</time>
      </trkpt>
      <trkpt lat="45.85679" lon="4.69946">
        <ele>195</ele>
        <time>2018-07-06T09:37:58Z</time>
      </trkpt>
      <trkpt lat="45.85676" lon="4.69937">
        <ele>195</ele>
        <time>2018-07-06T09:37:59Z</time>
      </trkpt>
      <trkpt lat="45.85673" lon="4.69928">
        <ele>195</ele>
        <time>2018-07-06T09:38:00Z</time>
      </trkpt>
      <trkpt lat="45.8567" lon="4.69918">
        <ele>195</ele>
        <time>2018-07-06T09:38:01Z</time>
      </trkpt>
      <trkpt lat="45.8567" lon="4.6991">
        <ele>195</ele>
        <time>2018-07-06T09:38:02Z</time>
      </trkpt>
      <trkpt lat="45.85669" lon="4.69901">
        <ele>195</ele>
        <time>2018-07-06T09:38:03Z</time>
      </trkpt>
      <trkpt lat="45.85668" lon="4.69893">
        <ele>195</ele>
        <time>2018-07-06T09:38:04Z</time>
      </trkpt>
      <trkpt lat="45.85666" lon="4.69886">
        <ele>195</ele>
        <time>2018-07-06T09:38:05Z</time>
      </trkpt>
      <trkpt lat="45.85662" lon="4.69879">
        <ele>195</ele>
        <time>2018-07-06T09:38:06Z</time>
      </trkpt>
      <trkpt lat="45.85661" lon="4.69871">
        <ele>195</ele>
        <time>2018-07-06T09:38:07Z</time>
      </trkpt>
      <trkpt lat="45.85661" lon="4.69863">
        <ele>195</ele>
        <time>2018-07-06T09:38:08Z</time>
      </trkpt>
      <trkpt lat="45.85658" lon="4.69853">
        <ele>195</ele>
        <time>2018-07-06T09:38:09Z</time>
      </trkpt>
      <trkpt lat="45.85661" lon="4.69845">
        <ele>195</ele>
        <time>2018-07-06T09:38:10Z</time>
      </trkpt>
      <trkpt lat="45.8566" lon="4.69836">
        <ele>195</ele>
        <time>2018-07-06T09:38:11Z</time>
      </trkpt>
      <trkpt lat="45.8566" lon="4.69827">
        <ele>195</ele>
        <time>2018-07-06T09:38:12Z</time>
      </trkpt>
      <trkpt lat="45.85659" lon="4.69818">
        <ele>195</ele>
        <time>2018-07-06T09:38:13Z</time>
      </trkpt>
      <trkpt lat="45.85658" lon="4.69809">
        <ele>195</ele>
        <time>2018-07-06T09:38:14Z</time>
      </trkpt>
      <trkpt lat="45.85658" lon="4.698">
        <ele>195</ele>
        <time>2018-07-06T09:38:15Z</time>
      </trkpt>
      <trkpt lat="45.85657" lon="4.69793">
        <ele>195</ele>
        <time>2018-07-06T09:38:16Z</time>
      </trkpt>
      <trkpt lat="45.85656" lon="4.69785">
        <ele>195</ele>
        <time>2018-07-06T09:38:17Z</time>
      </trkpt>
      <trkpt lat="45.85656" lon="4.69778">
        <ele>195</ele>
        <time>2018-07-06T09:38:18Z</time>
      </trkpt>
      <trkpt lat="45.85656" lon="4.6977">
        <ele>195</ele>
        <time>2018-07-06T09:38:19Z</time>
      </trkpt>
      <trkpt lat="45.85656" lon="4.69763">
        <ele>195</ele>
        <time>2018-07-06T09:38:20Z</time>
      </trkpt>
      <trkpt lat="45.85655" lon="4.69756">
        <ele>195</ele>
        <time>2018-07-06T09:38:21Z</time>
      </trkpt>
      <trkpt lat="45.85655" lon="4.69749">
        <ele>195</ele>
        <time>2018-07-06T09:38:22Z</time>
      </trkpt>
      <trkpt lat="45.85655" lon="4.69742">
        <ele>195</ele>
        <time>2018-07-06T09:38:23Z</time>
      </trkpt>
      <trkpt lat="45.85654" lon="4.69733">
        <ele>195</ele>
        <time>2018-07-06T09:38:24Z</time>
      </trkpt>
      <trkpt lat="45.85654" lon="4.69725">
        <ele>195</ele>
        <time>2018-07-06T09:38:25Z</time>
      </trkpt>
      <trkpt lat="45.8565" lon="4.69718">
        <ele>196</ele>
        <time>2018-07-06T09:38:26Z</time>
      </trkpt>
      <trkpt lat="45.85648" lon="4.6971">
        <ele>196</ele>
        <time>2018-07-06T09:38:27Z</time>
      </trkpt>
      <trkpt lat="45.85645" lon="4.69704">
        <ele>196</ele>
        <time>2018-07-06T09:38:28Z</time>
      </trkpt>
      <trkpt lat="45.85645" lon="4.69696">
        <ele>196</ele>
        <time>2018-07-06T09:38:29Z</time>
      </trkpt>
      <trkpt lat="45.85644" lon="4.69687">
        <ele>196</ele>
        <time>2018-07-06T09:38:30Z</time>
      </trkpt>
      <trkpt lat="45.85644" lon="4.69679">
        <ele>196</ele>
        <time>2018-07-06T09:38:31Z</time>
      </trkpt>
      <trkpt lat="45.85642" lon="4.69669">
        <ele>196</ele>
        <time>2018-07-06T09:38:32Z</time>
      </trkpt>
      <trkpt lat="45.85643" lon="4.69662">
        <ele>197</ele>
        <time>2018-07-06T09:38:33Z</time>
      </trkpt>
      <trkpt lat="45.85642" lon="4.69653">
        <ele>197</ele>
        <time>2018-07-06T09:38:34Z</time>
      </trkpt>
      <trkpt lat="45.85639" lon="4.69646">
        <ele>197</ele>
        <time>2018-07-06T09:38:35Z</time>
      </trkpt>
      <trkpt lat="45.85641" lon="4.69639">
        <ele>197</ele>
        <time>2018-07-06T09:38:36Z</time>
      </trkpt>
      <trkpt lat="45.85637" lon="4.6963">
        <ele>197</ele>
        <time>2018-07-06T09:38:37Z</time>
      </trkpt>
      <trkpt lat="45.85636" lon="4.69621">
        <ele>197</ele>
        <time>2018-07-06T09:38:38Z</time>
      </trkpt>
      <trkpt lat="45.85636" lon="4.69612">
        <ele>197</ele>
        <time>2018-07-06T09:38:39Z</time>
      </trkpt>
      <trkpt lat="45.85638" lon="4.69606">
        <ele>197</ele>
        <time>2018-07-06T09:38:40Z</time>
      </trkpt>
      <trkpt lat="45.85637" lon="4.69598">
        <ele>197</ele>
        <time>2018-07-06T09:38:41Z</time>
      </trkpt>
      <trkpt lat="45.85636" lon="4.69589">
        <ele>197</ele>
        <time>2018-07-06T09:38:42Z</time>
      </trkpt>
      <trkpt lat="45.85636" lon="4.69582">
        <ele>198</ele>
        <time>2018-07-06T09:38:43Z</time>
      </trkpt>
      <trkpt lat="45.85637" lon="4.69574">
        <ele>198</ele>
        <time>2018-07-06T09:38:44Z</time>
      </trkpt>
      <trkpt lat="45.85637" lon="4.69565">
        <ele>198</ele>
        <time>2018-07-06T09:38:45Z</time>
      </trkpt>
      <trkpt lat="45.85636" lon="4.69558">
        <ele>198</ele>
        <time>2018-07-06T09:38:46Z</time>
      </trkpt>
      <trkpt lat="45.85636" lon="4.6955">
        <ele>198</ele>
        <time>2018-07-06T09:38:47Z</time>
      </trkpt>
      <trkpt lat="45.85637" lon="4.69542">
        <ele>198</ele>
        <time>2018-07-06T09:38:48Z</time>
      </trkpt>
      <trkpt lat="45.8564" lon="4.69534">
        <ele>198</ele>
        <time>2018-07-06T09:38:49Z</time>
      </trkpt>
      <trkpt lat="45.85639" lon="4.69525">
        <ele>198</ele>
        <time>2018-07-06T09:38:50Z</time>
      </trkpt>
      <trkpt lat="45.85639" lon="4.69518">
        <ele>198</ele>
        <time>2018-07-06T09:38:51Z</time>
      </trkpt>
      <trkpt lat="45.85641" lon="4.69511">
        <ele>198</ele>
        <time>2018-07-06T09:38:52Z</time>
      </trkpt>
      <trkpt lat="45.8564" lon="4.69504">
        <ele>198</ele>
        <time>2018-07-06T09:38:53Z</time>
      </trkpt>
      <trkpt lat="45.8564" lon="4.69496">
        <ele>198</ele>
        <time>2018-07-06T09:38:54Z</time>
      </trkpt>
      <trkpt lat="45.85639" lon="4.69488">
        <ele>198</ele>
        <time>2018-07-06T09:38:55Z</time>
      </trkpt>
      <trkpt lat="45.8564" lon="4.69479">
        <ele>198</ele>
        <time>2018-07-06T09:38:56Z</time>
      </trkpt>
      <trkpt lat="45.85631" lon="4.69469">
        <ele>198</ele>
        <time>2018-07-06T09:38:57Z</time>
      </trkpt>
      <trkpt lat="45.85627" lon="4.69459">
        <ele>198</ele>
        <time>2018-07-06T09:38:58Z</time>
      </trkpt>
      <trkpt lat="45.85631" lon="4.69449">
        <ele>198</ele>
        <time>2018-07-06T09:38:59Z</time>
      </trkpt>
      <trkpt lat="45.85631" lon="4.69441">
        <ele>198</ele>
        <time>2018-07-06T09:39:00Z</time>
      </trkpt>
      <trkpt lat="45.85627" lon="4.69432">
        <ele>198</ele>
        <time>2018-07-06T09:39:01Z</time>
      </trkpt>
      <trkpt lat="45.85626" lon="4.69424">
        <ele>198</ele>
        <time>2018-07-06T09:39:02Z</time>
      </trkpt>
      <trkpt lat="45.85626" lon="4.69417">
        <ele>198</ele>
        <time>2018-07-06T09:39:03Z</time>
      </trkpt>
      <trkpt lat="45.85626" lon="4.6941">
        <ele>198</ele>
        <time>2018-07-06T09:39:04Z</time>
      </trkpt>
      <trkpt lat="45.85625" lon="4.69403">
        <ele>198</ele>
        <time>2018-07-06T09:39:05Z</time>
      </trkpt>
      <trkpt lat="45.85625" lon="4.69395">
        <ele>198</ele>
        <time>2018-07-06T09:39:06Z</time>
      </trkpt>
      <trkpt lat="45.85624" lon="4.69388">
        <ele>198</ele>
        <time>2018-07-06T09:39:07Z</time>
      </trkpt>
      <trkpt lat="45.85624" lon="4.6938">
        <ele>198</ele>
        <time>2018-07-06T09:39:08Z</time>
      </trkpt>
      <trkpt lat="45.85625" lon="4.69373">
        <ele>198</ele>
        <time>2018-07-06T09:39:09Z</time>
      </trkpt>
      <trkpt lat="45.85625" lon="4.69365">
        <ele>198</ele>
        <time>2018-07-06T09:39:10Z</time>
      </trkpt>
      <trkpt lat="45.85625" lon="4.69359">
        <ele>198</ele>
        <time>2018-07-06T09:39:11Z</time>
      </trkpt>
      <trkpt lat="45.85624" lon="4.69352">
        <ele>198</ele>
        <time>2018-07-06T09:39:12Z</time>
      </trkpt>
      <trkpt lat="45.85623" lon="4.69344">
        <ele>198</ele>
        <time>2018-07-06T09:39:13Z</time>
      </trkpt>
      <trkpt lat="45.85623" lon="4.69337">
        <ele>198</ele>
        <time>2018-07-06T09:39:14Z</time>
      </trkpt>
      <trkpt lat="45.85622" lon="4.6933">
        <ele>198</ele>
        <time>2018-07-06T09:39:15Z</time>
      </trkpt>
      <trkpt lat="45.8562" lon="4.69322">
        <ele>198</ele>
        <time>2018-07-06T09:39:16Z</time>
      </trkpt>
      <trkpt lat="45.85619" lon="4.69314">
        <ele>198</ele>
        <time>2018-07-06T09:39:17Z</time>
      </trkpt>
      <trkpt lat="45.85616" lon="4.69306">
        <ele>198</ele>
        <time>2018-07-06T09:39:18Z</time>
      </trkpt>
      <trkpt lat="45.85616" lon="4.693">
        <ele>198</ele>
        <time>2018-07-06T09:39:19Z</time>
      </trkpt>
      <trkpt lat="45.85616" lon="4.69293">
        <ele>198</ele>
        <time>2018-07-06T09:39:20Z</time>
      </trkpt>
      <trkpt lat="45.85613" lon="4.69283">
        <ele>198</ele>
        <time>2018-07-06T09:39:21Z</time>
      </trkpt>
      <trkpt lat="45.85615" lon="4.69274">
        <ele>198</ele>
        <time>2018-07-06T09:39:22Z</time>
      </trkpt>
      <trkpt lat="45.85614" lon="4.69268">
        <ele>198</ele>
        <time>2018-07-06T09:39:23Z</time>
      </trkpt>
      <trkpt lat="45.85614" lon="4.6926">
        <ele>198</ele>
        <time>2018-07-06T09:39:24Z</time>
      </trkpt>
      <trkpt lat="45.85614" lon="4.69253">
        <ele>198</ele>
        <time>2018-07-06T09:39:25Z</time>
      </trkpt>
      <trkpt lat="45.85613" lon="4.69246">
        <ele>199</ele>
        <time>2018-07-06T09:39:26Z</time>
      </trkpt>
      <trkpt lat="45.8561" lon="4.6924">
        <ele>199</ele>
        <time>2018-07-06T09:39:27Z</time>
      </trkpt>
      <trkpt lat="45.85609" lon="4.69233">
        <ele>199</ele>
        <time>2018-07-06T09:39:28Z</time>
      </trkpt>
      <trkpt lat="45.85608" lon="4.69226">
        <ele>199</ele>
        <time>2018-07-06T09:39:29Z</time>
      </trkpt>
      <trkpt lat="45.85608" lon="4.69219">
        <ele>199</ele>
        <time>2018-07-06T09:39:30Z</time>
      </trkpt>
      <trkpt lat="45.85607" lon="4.6921">
        <ele>199</ele>
        <time>2018-07-06T09:39:31Z</time>
      </trkpt>
      <trkpt lat="45.85606" lon="4.69202">
        <ele>199</ele>
        <time>2018-07-06T09:39:32Z</time>
      </trkpt>
      <trkpt lat="45.85605" lon="4.69194">
        <ele>199</ele>
        <time>2018-07-06T09:39:33Z</time>
      </trkpt>
      <trkpt lat="45.85604" lon="4.69184">
        <ele>199</ele>
        <time>2018-07-06T09:39:34Z</time>
      </trkpt>
      <trkpt lat="45.85602" lon="4.69175">
        <ele>199</ele>
        <time>2018-07-06T09:39:35Z</time>
      </trkpt>
      <trkpt lat="45.85601" lon="4.69167">
        <ele>199</ele>
        <time>2018-07-06T09:39:36Z</time>
      </trkpt>
      <trkpt lat="45.85601" lon="4.69158">
        <ele>199</ele>
        <time>2018-07-06T09:39:37Z</time>
      </trkpt>
      <trkpt lat="45.85602" lon="4.69148">
        <ele>199</ele>
        <time>2018-07-06T09:39:38Z</time>
      </trkpt>
      <trkpt lat="45.856" lon="4.69141">
        <ele>199</ele>
        <time>2018-07-06T09:39:39Z</time>
      </trkpt>
      <trkpt lat="45.856" lon="4.69134">
        <ele>198</ele>
        <time>2018-07-06T09:39:40Z</time>
      </trkpt>
      <trkpt lat="45.85598" lon="4.69126">
        <ele>198</ele>
        <time>2018-07-06T09:39:41Z</time>
      </trkpt>
      <trkpt lat="45.85597" lon="4.69117">
        <ele>198</ele>
        <time>2018-07-06T09:39:42Z</time>
      </trkpt>
      <trkpt lat="45.85597" lon="4.6911">
        <ele>198</ele>
        <time>2018-07-06T09:39:43Z</time>
      </trkpt>
      <trkpt lat="45.85595" lon="4.69102">
        <ele>199</ele>
        <time>2018-07-06T09:39:44Z</time>
      </trkpt>
      <trkpt lat="45.85593" lon="4.69094">
        <ele>199</ele>
        <time>2018-07-06T09:39:45Z</time>
      </trkpt>
      <trkpt lat="45.85593" lon="4.69086">
        <ele>199</ele>
        <time>2018-07-06T09:39:46Z</time>
      </trkpt>
      <trkpt lat="45.85592" lon="4.69077">
        <ele>199</ele>
        <time>2018-07-06T09:39:47Z</time>
      </trkpt>
      <trkpt lat="45.85591" lon="4.69068">
        <ele>199</ele>
        <time>2018-07-06T09:39:48Z</time>
      </trkpt>
      <trkpt lat="45.8559" lon="4.69059">
        <ele>199</ele>
        <time>2018-07-06T09:39:49Z</time>
      </trkpt>
      <trkpt lat="45.85588" lon="4.6905">
        <ele>199</ele>
        <time>2018-07-06T09:39:50Z</time>
      </trkpt>
      <trkpt lat="45.85588" lon="4.69041">
        <ele>199</ele>
        <time>2018-07-06T09:39:51Z</time>
      </trkpt>
      <trkpt lat="45.85588" lon="4.69032">
        <ele>199</ele>
        <time>2018-07-06T09:39:52Z</time>
      </trkpt>
      <trkpt lat="45.85587" lon="4.69025">
        <ele>199</ele>
        <time>2018-07-06T09:39:53Z</time>
      </trkpt>
      <trkpt lat="45.85586" lon="4.69017">
        <ele>199</ele>
        <time>2018-07-06T09:39:54Z</time>
      </trkpt>
      <trkpt lat="45.85584" lon="4.69009">
        <ele>200</ele>
        <time>2018-07-06T09:39:55Z</time>
      </trkpt>
      <trkpt lat="45.85585" lon="4.69001">
        <ele>200</ele>
        <time>2018-07-06T09:39:56Z</time>
      </trkpt>
      <trkpt lat="45.85586" lon="4.68992">
        <ele>200</ele>
        <time>2018-07-06T09:39:57Z</time>
      </trkpt>
      <trkpt lat="45.85585" lon="4.68984">
        <ele>200</ele>
        <time>2018-07-06T09:39:58Z</time>
      </trkpt>
      <trkpt lat="45.85585" lon="4.68976">
        <ele>200</ele>
        <time>2018-07-06T09:39:59Z</time>
      </trkpt>
      <trkpt lat="45.85584" lon="4.68967">
        <ele>200</ele>
        <time>2018-07-06T09:40:00Z</time>
      </trkpt>
      <trkpt lat="45.8558" lon="4.68958">
        <ele>200</ele>
        <time>2018-07-06T09:40:01Z</time>
      </trkpt>
      <trkpt lat="45.8558" lon="4.6895">
        <ele>200</ele>
        <time>2018-07-06T09:40:02Z</time>
      </trkpt>
      <trkpt lat="45.85579" lon="4.68942">
        <ele>200</ele>
        <time>2018-07-06T09:40:03Z</time>
      </trkpt>
      <trkpt lat="45.85579" lon="4.68933">
        <ele>200</ele>
        <time>2018-07-06T09:40:04Z</time>
      </trkpt>
      <trkpt lat="45.85578" lon="4.68924">
        <ele>200</ele>
        <time>2018-07-06T09:40:05Z</time>
      </trkpt>
      <trkpt lat="45.85578" lon="4.68915">
        <ele>200</ele>
        <time>2018-07-06T09:40:06Z</time>
      </trkpt>
      <trkpt lat="45.85577" lon="4.68906">
        <ele>200</ele>
        <time>2018-07-06T09:40:07Z</time>
      </trkpt>
      <trkpt lat="45.85577" lon="4.68899">
        <ele>200</ele>
        <time>2018-07-06T09:40:08Z</time>
      </trkpt>
      <trkpt lat="45.85579" lon="4.68889">
        <ele>200</ele>
        <time>2018-07-06T09:40:09Z</time>
      </trkpt>
      <trkpt lat="45.85579" lon="4.6888">
        <ele>200</ele>
        <time>2018-07-06T09:40:10Z</time>
      </trkpt>
      <trkpt lat="45.85579" lon="4.68871">
        <ele>200</ele>
        <time>2018-07-06T09:40:11Z</time>
      </trkpt>
      <trkpt lat="45.85578" lon="4.68862">
        <ele>200</ele>
        <time>2018-07-06T09:40:12Z</time>
      </trkpt>
      <trkpt lat="45.85577" lon="4.68854">
        <ele>200</ele>
        <time>2018-07-06T09:40:13Z</time>
      </trkpt>
      <trkpt lat="45.85575" lon="4.68844">
        <ele>200</ele>
        <time>2018-07-06T09:40:14Z</time>
      </trkpt>
      <trkpt lat="45.85574" lon="4.68836">
        <ele>200</ele>
        <time>2018-07-06T09:40:15Z</time>
      </trkpt>
      <trkpt lat="45.85572" lon="4.68827">
        <ele>200</ele>
        <time>2018-07-06T09:40:16Z</time>
      </trkpt>
      <trkpt lat="45.85569" lon="4.6882">
        <ele>200</ele>
        <time>2018-07-06T09:40:17Z</time>
      </trkpt>
      <trkpt lat="45.85569" lon="4.68808">
        <ele>200</ele>
        <time>2018-07-06T09:40:19Z</time>
      </trkpt>
      <trkpt lat="45.85569" lon="4.68805">
        <ele>200</ele>
        <time>2018-07-06T09:40:20Z</time>
      </trkpt>
      <trkpt lat="45.85569" lon="4.68793">
        <ele>200</ele>
        <time>2018-07-06T09:40:24Z</time>
      </trkpt>
      <trkpt lat="45.85569" lon="4.68791">
        <ele>200</ele>
        <time>2018-07-06T09:40:25Z</time>
      </trkpt>
      <trkpt lat="45.85569" lon="4.6878">
        <ele>200</ele>
        <time>2018-07-06T09:40:41Z</time>
      </trkpt>
      <trkpt lat="45.85569" lon="4.68778">
        <ele>200</ele>
        <time>2018-07-06T09:40:42Z</time>
      </trkpt>
      <trkpt lat="45.85568" lon="4.68767">
        <ele>200</ele>
        <time>2018-07-06T09:40:45Z</time>
      </trkpt>
      <trkpt lat="45.85567" lon="4.68763">
        <ele>200</ele>
        <time>2018-07-06T09:40:46Z</time>
      </trkpt>
      <trkpt lat="45.85567" lon="4.68758">
        <ele>200</ele>
        <time>2018-07-06T09:40:47Z</time>
      </trkpt>
      <trkpt lat="45.85565" lon="4.68745">
        <ele>200</ele>
        <time>2018-07-06T09:40:48Z</time>
      </trkpt>
      <trkpt lat="45.85564" lon="4.68733">
        <ele>200</ele>
        <time>2018-07-06T09:40:50Z</time>
      </trkpt>
      <trkpt lat="45.85563" lon="4.68726">
        <ele>200</ele>
        <time>2018-07-06T09:40:51Z</time>
      </trkpt>
      <trkpt lat="45.85562" lon="4.68719">
        <ele>200</ele>
        <time>2018-07-06T09:40:52Z</time>
      </trkpt>
      <trkpt lat="45.85561" lon="4.68712">
        <ele>200</ele>
        <time>2018-07-06T09:40:53Z</time>
      </trkpt>
      <trkpt lat="45.8556" lon="4.68704">
        <ele>200</ele>
        <time>2018-07-06T09:40:54Z</time>
      </trkpt>
      <trkpt lat="45.85558" lon="4.68695">
        <ele>200</ele>
        <time>2018-07-06T09:40:55Z</time>
      </trkpt>
      <trkpt lat="45.85558" lon="4.68687">
        <ele>200</ele>
        <time>2018-07-06T09:40:56Z</time>
      </trkpt>
      <trkpt lat="45.85557" lon="4.68679">
        <ele>200</ele>
        <time>2018-07-06T09:40:57Z</time>
      </trkpt>
      <trkpt lat="45.85555" lon="4.68669">
        <ele>200</ele>
        <time>2018-07-06T09:40:58Z</time>
      </trkpt>
      <trkpt lat="45.85554" lon="4.68658">
        <ele>200</ele>
        <time>2018-07-06T09:40:59Z</time>
      </trkpt>
      <trkpt lat="45.85553" lon="4.68651">
        <ele>201</ele>
        <time>2018-07-06T09:41:00Z</time>
      </trkpt>
      <trkpt lat="45.85552" lon="4.68642">
        <ele>201</ele>
        <time>2018-07-06T09:41:01Z</time>
      </trkpt>
      <trkpt lat="45.85551" lon="4.68636">
        <ele>201</ele>
        <time>2018-07-06T09:41:02Z</time>
      </trkpt>
      <trkpt lat="45.8555" lon="4.6863">
        <ele>201</ele>
        <time>2018-07-06T09:41:03Z</time>
      </trkpt>
      <trkpt lat="45.8555" lon="4.68621">
        <ele>201</ele>
        <time>2018-07-06T09:41:04Z</time>
      </trkpt>
      <trkpt lat="45.85549" lon="4.68614">
        <ele>201</ele>
        <time>2018-07-06T09:41:05Z</time>
      </trkpt>
      <trkpt lat="45.8555" lon="4.68606">
        <ele>201</ele>
        <time>2018-07-06T09:41:06Z</time>
      </trkpt>
      <trkpt lat="45.85551" lon="4.68598">
        <ele>201</ele>
        <time>2018-07-06T09:41:07Z</time>
      </trkpt>
      <trkpt lat="45.8555" lon="4.68588">
        <ele>201</ele>
        <time>2018-07-06T09:41:08Z</time>
      </trkpt>
      <trkpt lat="45.85546" lon="4.6858">
        <ele>201</ele>
        <time>2018-07-06T09:41:09Z</time>
      </trkpt>
      <trkpt lat="45.85548" lon="4.68572">
        <ele>201</ele>
        <time>2018-07-06T09:41:10Z</time>
      </trkpt>
      <trkpt lat="45.85545" lon="4.68562">
        <ele>201</ele>
        <time>2018-07-06T09:41:11Z</time>
      </trkpt>
      <trkpt lat="45.85546" lon="4.68553">
        <ele>201</ele>
        <time>2018-07-06T09:41:12Z</time>
      </trkpt>
      <trkpt lat="45.85544" lon="4.68544">
        <ele>201</ele>
        <time>2018-07-06T09:41:13Z</time>
      </trkpt>
      <trkpt lat="45.85545" lon="4.68538">
        <ele>201</ele>
        <time>2018-07-06T09:41:14Z</time>
      </trkpt>
      <trkpt lat="45.85544" lon="4.6853">
        <ele>201</ele>
        <time>2018-07-06T09:41:15Z</time>
      </trkpt>
      <trkpt lat="45.85544" lon="4.68522">
        <ele>201</ele>
        <time>2018-07-06T09:41:16Z</time>
      </trkpt>
      <trkpt lat="45.85544" lon="4.68513">
        <ele>201</ele>
        <time>2018-07-06T09:41:17Z</time>
      </trkpt>
      <trkpt lat="45.85541" lon="4.68505">
        <ele>201</ele>
        <time>2018-07-06T09:41:18Z</time>
      </trkpt>
      <trkpt lat="45.8554" lon="4.68496">
        <ele>200</ele>
        <time>2018-07-06T09:41:19Z</time>
      </trkpt>
      <trkpt lat="45.85539" lon="4.68488">
        <ele>200</ele>
        <time>2018-07-06T09:41:20Z</time>
      </trkpt>
      <trkpt lat="45.85538" lon="4.68478">
        <ele>200</ele>
        <time>2018-07-06T09:41:21Z</time>
      </trkpt>
      <trkpt lat="45.85538" lon="4.6847">
        <ele>200</ele>
        <time>2018-07-06T09:41:22Z</time>
      </trkpt>
      <trkpt lat="45.85538" lon="4.68461">
        <ele>200</ele>
        <time>2018-07-06T09:41:23Z</time>
      </trkpt>
      <trkpt lat="45.85536" lon="4.68453">
        <ele>200</ele>
        <time>2018-07-06T09:41:24Z</time>
      </trkpt>
      <trkpt lat="45.85534" lon="4.68444">
        <ele>200</ele>
        <time>2018-07-06T09:41:25Z</time>
      </trkpt>
      <trkpt lat="45.85533" lon="4.68435">
        <ele>200</ele>
        <time>2018-07-06T09:41:26Z</time>
      </trkpt>
      <trkpt lat="45.85533" lon="4.68427">
        <ele>200</ele>
        <time>2018-07-06T09:41:27Z</time>
      </trkpt>
      <trkpt lat="45.85532" lon="4.68418">
        <ele>200</ele>
        <time>2018-07-06T09:41:28Z</time>
      </trkpt>
      <trkpt lat="45.85531" lon="4.6841">
        <ele>200</ele>
        <time>2018-07-06T09:41:29Z</time>
      </trkpt>
      <trkpt lat="45.85531" lon="4.68401">
        <ele>200</ele>
        <time>2018-07-06T09:41:30Z</time>
      </trkpt>
      <trkpt lat="45.8553" lon="4.68392">
        <ele>200</ele>
        <time>2018-07-06T09:41:31Z</time>
      </trkpt>
      <trkpt lat="45.85529" lon="4.68385">
        <ele>200</ele>
        <time>2018-07-06T09:41:32Z</time>
      </trkpt>
      <trkpt lat="45.85529" lon="4.68376">
        <ele>201</ele>
        <time>2018-07-06T09:41:33Z</time>
      </trkpt>
      <trkpt lat="45.85528" lon="4.68368">
        <ele>201</ele>
        <time>2018-07-06T09:41:34Z</time>
      </trkpt>
      <trkpt lat="45.85526" lon="4.6836">
        <ele>201</ele>
        <time>2018-07-06T09:41:35Z</time>
      </trkpt>
      <trkpt lat="45.85523" lon="4.68352">
        <ele>201</ele>
        <time>2018-07-06T09:41:36Z</time>
      </trkpt>
      <trkpt lat="45.85522" lon="4.68344">
        <ele>201</ele>
        <time>2018-07-06T09:41:37Z</time>
      </trkpt>
      <trkpt lat="45.85522" lon="4.68336">
        <ele>201</ele>
        <time>2018-07-06T09:41:38Z</time>
      </trkpt>
      <trkpt lat="45.85519" lon="4.68328">
        <ele>202</ele>
        <time>2018-07-06T09:41:39Z</time>
      </trkpt>
      <trkpt lat="45.85519" lon="4.6832">
        <ele>202</ele>
        <time>2018-07-06T09:41:40Z</time>
      </trkpt>
      <trkpt lat="45.85517" lon="4.68312">
        <ele>202</ele>
        <time>2018-07-06T09:41:41Z</time>
      </trkpt>
      <trkpt lat="45.85514" lon="4.68304">
        <ele>202</ele>
        <time>2018-07-06T09:41:42Z</time>
      </trkpt>
      <trkpt lat="45.85513" lon="4.68295">
        <ele>202</ele>
        <time>2018-07-06T09:41:43Z</time>
      </trkpt>
      <trkpt lat="45.85512" lon="4.68287">
        <ele>202</ele>
        <time>2018-07-06T09:41:44Z</time>
      </trkpt>
      <trkpt lat="45.85511" lon="4.68278">
        <ele>202</ele>
        <time>2018-07-06T09:41:45Z</time>
      </trkpt>
      <trkpt lat="45.85511" lon="4.6827">
        <ele>202</ele>
        <time>2018-07-06T09:41:46Z</time>
      </trkpt>
      <trkpt lat="45.85511" lon="4.68262">
        <ele>203</ele>
        <time>2018-07-06T09:41:47Z</time>
      </trkpt>
      <trkpt lat="45.85512" lon="4.68256">
        <ele>203</ele>
        <time>2018-07-06T09:41:48Z</time>
      </trkpt>
      <trkpt lat="45.85511" lon="4.68248">
        <ele>203</ele>
        <time>2018-07-06T09:41:49Z</time>
      </trkpt>
      <trkpt lat="45.85511" lon="4.68236">
        <ele>203</ele>
        <time>2018-07-06T09:41:51Z</time>
      </trkpt>
      <trkpt lat="45.85513" lon="4.68228">
        <ele>203</ele>
        <time>2018-07-06T09:41:52Z</time>
      </trkpt>
      <trkpt lat="45.85512" lon="4.6822">
        <ele>203</ele>
        <time>2018-07-06T09:41:53Z</time>
      </trkpt>
      <trkpt lat="45.8551" lon="4.68212">
        <ele>203</ele>
        <time>2018-07-06T09:41:54Z</time>
      </trkpt>
      <trkpt lat="45.85508" lon="4.68204">
        <ele>203</ele>
        <time>2018-07-06T09:41:55Z</time>
      </trkpt>
      <trkpt lat="45.85507" lon="4.68196">
        <ele>203</ele>
        <time>2018-07-06T09:41:56Z</time>
      </trkpt>
      <trkpt lat="45.85507" lon="4.68189">
        <ele>203</ele>
        <time>2018-07-06T09:41:57Z</time>
      </trkpt>
      <trkpt lat="45.85507" lon="4.68181">
        <ele>204</ele>
        <time>2018-07-06T09:41:58Z</time>
      </trkpt>
      <trkpt lat="45.85506" lon="4.68173">
        <ele>204</ele>
        <time>2018-07-06T09:41:59Z</time>
      </trkpt>
      <trkpt lat="45.85508" lon="4.68165">
        <ele>204</ele>
        <time>2018-07-06T09:42:00Z</time>
      </trkpt>
      <trkpt lat="45.85507" lon="4.68157">
        <ele>203</ele>
        <time>2018-07-06T09:42:01Z</time>
      </trkpt>
      <trkpt lat="45.85505" lon="4.68149">
        <ele>203</ele>
        <time>2018-07-06T09:42:02Z</time>
      </trkpt>
      <trkpt lat="45.85503" lon="4.68141">
        <ele>203</ele>
        <time>2018-07-06T09:42:03Z</time>
      </trkpt>
      <trkpt lat="45.85503" lon="4.68135">
        <ele>203</ele>
        <time>2018-07-06T09:42:04Z</time>
      </trkpt>
      <trkpt lat="45.85502" lon="4.68128">
        <ele>203</ele>
        <time>2018-07-06T09:42:05Z</time>
      </trkpt>
      <trkpt lat="45.85501" lon="4.6812">
        <ele>203</ele>
        <time>2018-07-06T09:42:06Z</time>
      </trkpt>
      <trkpt lat="45.85499" lon="4.68108">
        <ele>204</ele>
        <time>2018-07-06T09:42:08Z</time>
      </trkpt>
      <trkpt lat="45.85499" lon="4.68101">
        <ele>204</ele>
        <time>2018-07-06T09:42:09Z</time>
      </trkpt>
      <trkpt lat="45.85498" lon="4.68089">
        <ele>204</ele>
        <time>2018-07-06T09:42:11Z</time>
      </trkpt>
      <trkpt lat="45.85498" lon="4.68086">
        <ele>204</ele>
        <time>2018-07-06T09:42:12Z</time>
      </trkpt>
      <trkpt lat="45.85499" lon="4.68083">
        <ele>204</ele>
        <time>2018-07-06T09:42:13Z</time>
      </trkpt>
      <trkpt lat="45.855" lon="4.6807">
        <ele>205</ele>
        <time>2018-07-06T09:42:14Z</time>
      </trkpt>
      <trkpt lat="45.85502" lon="4.68057">
        <ele>203</ele>
        <time>2018-07-06T09:42:16Z</time>
      </trkpt>
      <trkpt lat="45.85503" lon="4.68051">
        <ele>203</ele>
        <time>2018-07-06T09:42:17Z</time>
      </trkpt>
      <trkpt lat="45.855" lon="4.68044">
        <ele>203</ele>
        <time>2018-07-06T09:42:18Z</time>
      </trkpt>
      <trkpt lat="45.85498" lon="4.68036">
        <ele>207</ele>
        <time>2018-07-06T09:42:19Z</time>
      </trkpt>
      <trkpt lat="45.85498" lon="4.68031">
        <ele>207</ele>
        <time>2018-07-06T09:42:20Z</time>
      </trkpt>
      <trkpt lat="45.85497" lon="4.68023">
        <ele>207</ele>
        <time>2018-07-06T09:42:21Z</time>
      </trkpt>
      <trkpt lat="45.85494" lon="4.68016">
        <ele>207</ele>
        <time>2018-07-06T09:42:22Z</time>
      </trkpt>
      <trkpt lat="45.85494" lon="4.68009">
        <ele>206</ele>
        <time>2018-07-06T09:42:23Z</time>
      </trkpt>
      <trkpt lat="45.85497" lon="4.67998">
        <ele>207</ele>
        <time>2018-07-06T09:42:25Z</time>
      </trkpt>
      <trkpt lat="45.85499" lon="4.67991">
        <ele>208</ele>
        <time>2018-07-06T09:42:26Z</time>
      </trkpt>
      <trkpt lat="45.85503" lon="4.67985">
        <ele>206</ele>
        <time>2018-07-06T09:42:27Z</time>
      </trkpt>
      <trkpt lat="45.85507" lon="4.67981">
        <ele>206</ele>
        <time>2018-07-06T09:42:28Z</time>
      </trkpt>
      <trkpt lat="45.85511" lon="4.67976">
        <ele>206</ele>
        <time>2018-07-06T09:42:29Z</time>
      </trkpt>
      <trkpt lat="45.85516" lon="4.67971">
        <ele>206</ele>
        <time>2018-07-06T09:42:30Z</time>
      </trkpt>
      <trkpt lat="45.8552" lon="4.67967">
        <ele>206</ele>
        <time>2018-07-06T09:42:31Z</time>
      </trkpt>
      <trkpt lat="45.85525" lon="4.67962">
        <ele>206</ele>
        <time>2018-07-06T09:42:32Z</time>
      </trkpt>
      <trkpt lat="45.8553" lon="4.67958">
        <ele>206</ele>
        <time>2018-07-06T09:42:33Z</time>
      </trkpt>
      <trkpt lat="45.85535" lon="4.67954">
        <ele>206</ele>
        <time>2018-07-06T09:42:34Z</time>
      </trkpt>
      <trkpt lat="45.85539" lon="4.6795">
        <ele>206</ele>
        <time>2018-07-06T09:42:35Z</time>
      </trkpt>
      <trkpt lat="45.85544" lon="4.67947">
        <ele>205</ele>
        <time>2018-07-06T09:42:36Z</time>
      </trkpt>
      <trkpt lat="45.85547" lon="4.67943">
        <ele>205</ele>
        <time>2018-07-06T09:42:37Z</time>
      </trkpt>
      <trkpt lat="45.85551" lon="4.6794">
        <ele>205</ele>
        <time>2018-07-06T09:42:38Z</time>
      </trkpt>
      <trkpt lat="45.85556" lon="4.67936">
        <ele>205</ele>
        <time>2018-07-06T09:42:39Z</time>
      </trkpt>
      <trkpt lat="45.85559" lon="4.67932">
        <ele>205</ele>
        <time>2018-07-06T09:42:40Z</time>
      </trkpt>
      <trkpt lat="45.85566" lon="4.67928">
        <ele>205</ele>
        <time>2018-07-06T09:42:42Z</time>
      </trkpt>
      <trkpt lat="45.8557" lon="4.67924">
        <ele>205</ele>
        <time>2018-07-06T09:42:43Z</time>
      </trkpt>
      <trkpt lat="45.85571" lon="4.67922">
        <ele>205</ele>
        <time>2018-07-06T09:42:44Z</time>
      </trkpt>
      <trkpt lat="45.85573" lon="4.67911">
        <ele>205</ele>
        <time>2018-07-06T09:42:45Z</time>
      </trkpt>
      <trkpt lat="45.85573" lon="4.67904">
        <ele>206</ele>
        <time>2018-07-06T09:42:46Z</time>
      </trkpt>
      <trkpt lat="45.85573" lon="4.67896">
        <ele>206</ele>
        <time>2018-07-06T09:42:47Z</time>
      </trkpt>
      <trkpt lat="45.85575" lon="4.67886">
        <ele>206</ele>
        <time>2018-07-06T09:42:49Z</time>
      </trkpt>
      <trkpt lat="45.85572" lon="4.67878">
        <ele>207</ele>
        <time>2018-07-06T09:42:50Z</time>
      </trkpt>
      <trkpt lat="45.85575" lon="4.67872">
        <ele>207</ele>
        <time>2018-07-06T09:42:51Z</time>
      </trkpt>
      <trkpt lat="45.85575" lon="4.67865">
        <ele>207</ele>
        <time>2018-07-06T09:42:52Z</time>
      </trkpt>
      <trkpt lat="45.85576" lon="4.67856">
        <ele>206</ele>
        <time>2018-07-06T09:42:53Z</time>
      </trkpt>
      <trkpt lat="45.85576" lon="4.67848">
        <ele>206</ele>
        <time>2018-07-06T09:42:54Z</time>
      </trkpt>
      <trkpt lat="45.85578" lon="4.67842">
        <ele>206</ele>
        <time>2018-07-06T09:42:55Z</time>
      </trkpt>
      <trkpt lat="45.85581" lon="4.67835">
        <ele>205</ele>
        <time>2018-07-06T09:42:56Z</time>
      </trkpt>
      <trkpt lat="45.85583" lon="4.67827">
        <ele>205</ele>
        <time>2018-07-06T09:42:57Z</time>
      </trkpt>
      <trkpt lat="45.85584" lon="4.6782">
        <ele>208</ele>
        <time>2018-07-06T09:42:58Z</time>
      </trkpt>
      <trkpt lat="45.85587" lon="4.67813">
        <ele>209</ele>
        <time>2018-07-06T09:42:59Z</time>
      </trkpt>
      <trkpt lat="45.85589" lon="4.67806">
        <ele>209</ele>
        <time>2018-07-06T09:43:00Z</time>
      </trkpt>
      <trkpt lat="45.85588" lon="4.67798">
        <ele>210</ele>
        <time>2018-07-06T09:43:01Z</time>
      </trkpt>
      <trkpt lat="45.8559" lon="4.6779">
        <ele>210</ele>
        <time>2018-07-06T09:43:02Z</time>
      </trkpt>
      <trkpt lat="45.85592" lon="4.67783">
        <ele>210</ele>
        <time>2018-07-06T09:43:03Z</time>
      </trkpt>
      <trkpt lat="45.85593" lon="4.67775">
        <ele>209</ele>
        <time>2018-07-06T09:43:04Z</time>
      </trkpt>
      <trkpt lat="45.85595" lon="4.67768">
        <ele>208</ele>
        <time>2018-07-06T09:43:05Z</time>
      </trkpt>
      <trkpt lat="45.85598" lon="4.67761">
        <ele>208</ele>
        <time>2018-07-06T09:43:06Z</time>
      </trkpt>
      <trkpt lat="45.85601" lon="4.67754">
        <ele>208</ele>
        <time>2018-07-06T09:43:07Z</time>
      </trkpt>
      <trkpt lat="45.85604" lon="4.67747">
        <ele>207</ele>
        <time>2018-07-06T09:43:08Z</time>
      </trkpt>
      <trkpt lat="45.85607" lon="4.67742">
        <ele>208</ele>
        <time>2018-07-06T09:43:09Z</time>
      </trkpt>
      <trkpt lat="45.85611" lon="4.67736">
        <ele>208</ele>
        <time>2018-07-06T09:43:10Z</time>
      </trkpt>
      <trkpt lat="45.85615" lon="4.6773">
        <ele>209</ele>
        <time>2018-07-06T09:43:11Z</time>
      </trkpt>
      <trkpt lat="45.85621" lon="4.67722">
        <ele>209</ele>
        <time>2018-07-06T09:43:12Z</time>
      </trkpt>
      <trkpt lat="45.85625" lon="4.67717">
        <ele>209</ele>
        <time>2018-07-06T09:43:13Z</time>
      </trkpt>
      <trkpt lat="45.8563" lon="4.67712">
        <ele>209</ele>
        <time>2018-07-06T09:43:14Z</time>
      </trkpt>
      <trkpt lat="45.85636" lon="4.67704">
        <ele>210</ele>
        <time>2018-07-06T09:43:15Z</time>
      </trkpt>
      <trkpt lat="45.8564" lon="4.67699">
        <ele>210</ele>
        <time>2018-07-06T09:43:16Z</time>
      </trkpt>
      <trkpt lat="45.85647" lon="4.67693">
        <ele>210</ele>
        <time>2018-07-06T09:43:17Z</time>
      </trkpt>
      <trkpt lat="45.85653" lon="4.67688">
        <ele>210</ele>
        <time>2018-07-06T09:43:18Z</time>
      </trkpt>
      <trkpt lat="45.85657" lon="4.6768">
        <ele>209</ele>
        <time>2018-07-06T09:43:20Z</time>
      </trkpt>
      <trkpt lat="45.85665" lon="4.67675">
        <ele>209</ele>
        <time>2018-07-06T09:43:21Z</time>
      </trkpt>
      <trkpt lat="45.85672" lon="4.67671">
        <ele>212</ele>
        <time>2018-07-06T09:43:22Z</time>
      </trkpt>
      <trkpt lat="45.85679" lon="4.67667">
        <ele>214</ele>
        <time>2018-07-06T09:43:23Z</time>
      </trkpt>
      <trkpt lat="45.85681" lon="4.67664">
        <ele>210</ele>
        <time>2018-07-06T09:43:24Z</time>
      </trkpt>
      <trkpt lat="45.85686" lon="4.67659">
        <ele>210</ele>
        <time>2018-07-06T09:43:25Z</time>
      </trkpt>
      <trkpt lat="45.85692" lon="4.67655">
        <ele>211</ele>
        <time>2018-07-06T09:43:26Z</time>
      </trkpt>
      <trkpt lat="45.85697" lon="4.67653">
        <ele>211</ele>
        <time>2018-07-06T09:43:27Z</time>
      </trkpt>
      <trkpt lat="45.85703" lon="4.67651">
        <ele>211</ele>
        <time>2018-07-06T09:43:28Z</time>
      </trkpt>
      <trkpt lat="45.85708" lon="4.67649">
        <ele>212</ele>
        <time>2018-07-06T09:43:29Z</time>
      </trkpt>
      <trkpt lat="45.85713" lon="4.67649">
        <ele>212</ele>
        <time>2018-07-06T09:43:30Z</time>
      </trkpt>
      <trkpt lat="45.85718" lon="4.67641">
        <ele>212</ele>
        <time>2018-07-06T09:43:31Z</time>
      </trkpt>
      <trkpt lat="45.85723" lon="4.67639">
        <ele>212</ele>
        <time>2018-07-06T09:43:32Z</time>
      </trkpt>
      <trkpt lat="45.85727" lon="4.67634">
        <ele>212</ele>
        <time>2018-07-06T09:43:33Z</time>
      </trkpt>
      <trkpt lat="45.85733" lon="4.67635">
        <ele>213</ele>
        <time>2018-07-06T09:43:34Z</time>
      </trkpt>
      <trkpt lat="45.85739" lon="4.6763">
        <ele>212</ele>
        <time>2018-07-06T09:43:35Z</time>
      </trkpt>
      <trkpt lat="45.85743" lon="4.67625">
        <ele>212</ele>
        <time>2018-07-06T09:43:36Z</time>
      </trkpt>
      <trkpt lat="45.85748" lon="4.67621">
        <ele>211</ele>
        <time>2018-07-06T09:43:37Z</time>
      </trkpt>
      <trkpt lat="45.85754" lon="4.67618">
        <ele>218</ele>
        <time>2018-07-06T09:43:38Z</time>
      </trkpt>
      <trkpt lat="45.85759" lon="4.67613">
        <ele>218</ele>
        <time>2018-07-06T09:43:39Z</time>
      </trkpt>
      <trkpt lat="45.85764" lon="4.67609">
        <ele>218</ele>
        <time>2018-07-06T09:43:40Z</time>
      </trkpt>
      <trkpt lat="45.8577" lon="4.67604">
        <ele>217</ele>
        <time>2018-07-06T09:43:41Z</time>
      </trkpt>
      <trkpt lat="45.85774" lon="4.67598">
        <ele>217</ele>
        <time>2018-07-06T09:43:42Z</time>
      </trkpt>
      <trkpt lat="45.85782" lon="4.67593">
        <ele>218</ele>
        <time>2018-07-06T09:43:43Z</time>
      </trkpt>
      <trkpt lat="45.85788" lon="4.67588">
        <ele>219</ele>
        <time>2018-07-06T09:43:44Z</time>
      </trkpt>
      <trkpt lat="45.85793" lon="4.67582">
        <ele>211</ele>
        <time>2018-07-06T09:43:45Z</time>
      </trkpt>
      <trkpt lat="45.85797" lon="4.67576">
        <ele>212</ele>
        <time>2018-07-06T09:43:46Z</time>
      </trkpt>
      <trkpt lat="45.85799" lon="4.6757">
        <ele>212</ele>
        <time>2018-07-06T09:43:47Z</time>
      </trkpt>
      <trkpt lat="45.85802" lon="4.67563">
        <ele>211</ele>
        <time>2018-07-06T09:43:48Z</time>
      </trkpt>
      <trkpt lat="45.85807" lon="4.67557">
        <ele>212</ele>
        <time>2018-07-06T09:43:49Z</time>
      </trkpt>
      <trkpt lat="45.85811" lon="4.67547">
        <ele>211</ele>
        <time>2018-07-06T09:43:50Z</time>
      </trkpt>
      <trkpt lat="45.85815" lon="4.67542">
        <ele>211</ele>
        <time>2018-07-06T09:43:51Z</time>
      </trkpt>
      <trkpt lat="45.85818" lon="4.67535">
        <ele>210</ele>
        <time>2018-07-06T09:43:52Z</time>
      </trkpt>
      <trkpt lat="45.85825" lon="4.6753">
        <ele>210</ele>
        <time>2018-07-06T09:43:53Z</time>
      </trkpt>
      <trkpt lat="45.85831" lon="4.67524">
        <ele>209</ele>
        <time>2018-07-06T09:43:54Z</time>
      </trkpt>
      <trkpt lat="45.85834" lon="4.67513">
        <ele>214</ele>
        <time>2018-07-06T09:43:55Z</time>
      </trkpt>
      <trkpt lat="45.85836" lon="4.67508">
        <ele>212</ele>
        <time>2018-07-06T09:43:56Z</time>
      </trkpt>
      <trkpt lat="45.85839" lon="4.67501">
        <ele>210</ele>
        <time>2018-07-06T09:43:57Z</time>
      </trkpt>
      <trkpt lat="45.85843" lon="4.67494">
        <ele>210</ele>
        <time>2018-07-06T09:43:58Z</time>
      </trkpt>
      <trkpt lat="45.85848" lon="4.67487">
        <ele>211</ele>
        <time>2018-07-06T09:43:59Z</time>
      </trkpt>
      <trkpt lat="45.8585" lon="4.67478">
        <ele>212</ele>
        <time>2018-07-06T09:44:00Z</time>
      </trkpt>
      <trkpt lat="45.85855" lon="4.67471">
        <ele>213</ele>
        <time>2018-07-06T09:44:01Z</time>
      </trkpt>
      <trkpt lat="45.85855" lon="4.67464">
        <ele>213</ele>
        <time>2018-07-06T09:44:02Z</time>
      </trkpt>
      <trkpt lat="45.85859" lon="4.67457">
        <ele>213</ele>
        <time>2018-07-06T09:44:03Z</time>
      </trkpt>
      <trkpt lat="45.8586" lon="4.67447">
        <ele>213</ele>
        <time>2018-07-06T09:44:04Z</time>
      </trkpt>
      <trkpt lat="45.85861" lon="4.67438">
        <ele>212</ele>
        <time>2018-07-06T09:44:05Z</time>
      </trkpt>
      <trkpt lat="45.85861" lon="4.67429">
        <ele>212</ele>
        <time>2018-07-06T09:44:06Z</time>
      </trkpt>
      <trkpt lat="45.85864" lon="4.6742">
        <ele>212</ele>
        <time>2018-07-06T09:44:07Z</time>
      </trkpt>
      <trkpt lat="45.85867" lon="4.67411">
        <ele>209</ele>
        <time>2018-07-06T09:44:08Z</time>
      </trkpt>
      <trkpt lat="45.85868" lon="4.67401">
        <ele>209</ele>
        <time>2018-07-06T09:44:09Z</time>
      </trkpt>
      <trkpt lat="45.85868" lon="4.67391">
        <ele>209</ele>
        <time>2018-07-06T09:44:10Z</time>
      </trkpt>
      <trkpt lat="45.8587" lon="4.67382">
        <ele>209</ele>
        <time>2018-07-06T09:44:11Z</time>
      </trkpt>
      <trkpt lat="45.85872" lon="4.67373">
        <ele>209</ele>
        <time>2018-07-06T09:44:12Z</time>
      </trkpt>
      <trkpt lat="45.85874" lon="4.67364">
        <ele>209</ele>
        <time>2018-07-06T09:44:13Z</time>
      </trkpt>
      <trkpt lat="45.85876" lon="4.67354">
        <ele>209</ele>
        <time>2018-07-06T09:44:14Z</time>
      </trkpt>
      <trkpt lat="45.85873" lon="4.67344">
        <ele>208</ele>
        <time>2018-07-06T09:44:15Z</time>
      </trkpt>
      <trkpt lat="45.85876" lon="4.67335">
        <ele>208</ele>
        <time>2018-07-06T09:44:16Z</time>
      </trkpt>
      <trkpt lat="45.85875" lon="4.67325">
        <ele>206</ele>
        <time>2018-07-06T09:44:17Z</time>
      </trkpt>
      <trkpt lat="45.85877" lon="4.67317">
        <ele>206</ele>
        <time>2018-07-06T09:44:18Z</time>
      </trkpt>
      <trkpt lat="45.85876" lon="4.67306">
        <ele>206</ele>
        <time>2018-07-06T09:44:19Z</time>
      </trkpt>
      <trkpt lat="45.85876" lon="4.67296">
        <ele>205</ele>
        <time>2018-07-06T09:44:20Z</time>
      </trkpt>
      <trkpt lat="45.85877" lon="4.67287">
        <ele>205</ele>
        <time>2018-07-06T09:44:21Z</time>
      </trkpt>
      <trkpt lat="45.85878" lon="4.67277">
        <ele>205</ele>
        <time>2018-07-06T09:44:22Z</time>
      </trkpt>
      <trkpt lat="45.85879" lon="4.67268">
        <ele>205</ele>
        <time>2018-07-06T09:44:23Z</time>
      </trkpt>
      <trkpt lat="45.85881" lon="4.67258">
        <ele>205</ele>
        <time>2018-07-06T09:44:24Z</time>
      </trkpt>
      <trkpt lat="45.85883" lon="4.67249">
        <ele>204</ele>
        <time>2018-07-06T09:44:25Z</time>
      </trkpt>
      <trkpt lat="45.85883" lon="4.67239">
        <ele>204</ele>
        <time>2018-07-06T09:44:26Z</time>
      </trkpt>
      <trkpt lat="45.85885" lon="4.6723">
        <ele>204</ele>
        <time>2018-07-06T09:44:27Z</time>
      </trkpt>
      <trkpt lat="45.85886" lon="4.67221">
        <ele>204</ele>
        <time>2018-07-06T09:44:28Z</time>
      </trkpt>
      <trkpt lat="45.85887" lon="4.67213">
        <ele>204</ele>
        <time>2018-07-06T09:44:29Z</time>
      </trkpt>
      <trkpt lat="45.85886" lon="4.67203">
        <ele>204</ele>
        <time>2018-07-06T09:44:30Z</time>
      </trkpt>
      <trkpt lat="45.85887" lon="4.67194">
        <ele>204</ele>
        <time>2018-07-06T09:44:31Z</time>
      </trkpt>
      <trkpt lat="45.85886" lon="4.67184">
        <ele>204</ele>
        <time>2018-07-06T09:44:32Z</time>
      </trkpt>
      <trkpt lat="45.85887" lon="4.67175">
        <ele>204</ele>
        <time>2018-07-06T09:44:33Z</time>
      </trkpt>
      <trkpt lat="45.85886" lon="4.67165">
        <ele>204</ele>
        <time>2018-07-06T09:44:34Z</time>
      </trkpt>
      <trkpt lat="45.85888" lon="4.67156">
        <ele>204</ele>
        <time>2018-07-06T09:44:35Z</time>
      </trkpt>
      <trkpt lat="45.85889" lon="4.67146">
        <ele>204</ele>
        <time>2018-07-06T09:44:36Z</time>
      </trkpt>
      <trkpt lat="45.8589" lon="4.67137">
        <ele>204</ele>
        <time>2018-07-06T09:44:37Z</time>
      </trkpt>
      <trkpt lat="45.85892" lon="4.67128">
        <ele>204</ele>
        <time>2018-07-06T09:44:38Z</time>
      </trkpt>
      <trkpt lat="45.85893" lon="4.67118">
        <ele>204</ele>
        <time>2018-07-06T09:44:39Z</time>
      </trkpt>
      <trkpt lat="45.85893" lon="4.67108">
        <ele>204</ele>
        <time>2018-07-06T09:44:40Z</time>
      </trkpt>
      <trkpt lat="45.85895" lon="4.67099">
        <ele>204</ele>
        <time>2018-07-06T09:44:41Z</time>
      </trkpt>
      <trkpt lat="45.85897" lon="4.67089">
        <ele>204</ele>
        <time>2018-07-06T09:44:42Z</time>
      </trkpt>
      <trkpt lat="45.85898" lon="4.67079">
        <ele>204</ele>
        <time>2018-07-06T09:44:43Z</time>
      </trkpt>
      <trkpt lat="45.85898" lon="4.6707">
        <ele>205</ele>
        <time>2018-07-06T09:44:44Z</time>
      </trkpt>
      <trkpt lat="45.85899" lon="4.6706">
        <ele>205</ele>
        <time>2018-07-06T09:44:45Z</time>
      </trkpt>
      <trkpt lat="45.85901" lon="4.67051">
        <ele>205</ele>
        <time>2018-07-06T09:44:46Z</time>
      </trkpt>
      <trkpt lat="45.85902" lon="4.67043">
        <ele>205</ele>
        <time>2018-07-06T09:44:47Z</time>
      </trkpt>
      <trkpt lat="45.85904" lon="4.67034">
        <ele>205</ele>
        <time>2018-07-06T09:44:48Z</time>
      </trkpt>
      <trkpt lat="45.85906" lon="4.67026">
        <ele>205</ele>
        <time>2018-07-06T09:44:49Z</time>
      </trkpt>
      <trkpt lat="45.85907" lon="4.67018">
        <ele>205</ele>
        <time>2018-07-06T09:44:50Z</time>
      </trkpt>
      <trkpt lat="45.85909" lon="4.67011">
        <ele>206</ele>
        <time>2018-07-06T09:44:51Z</time>
      </trkpt>
      <trkpt lat="45.85911" lon="4.67004">
        <ele>206</ele>
        <time>2018-07-06T09:44:52Z</time>
      </trkpt>
      <trkpt lat="45.85913" lon="4.66999">
        <ele>206</ele>
        <time>2018-07-06T09:44:53Z</time>
      </trkpt>
      <trkpt lat="45.85916" lon="4.66993">
        <ele>206</ele>
        <time>2018-07-06T09:44:54Z</time>
      </trkpt>
      <trkpt lat="45.85919" lon="4.66987">
        <ele>207</ele>
        <time>2018-07-06T09:44:55Z</time>
      </trkpt>
      <trkpt lat="45.85922" lon="4.66981">
        <ele>208</ele>
        <time>2018-07-06T09:44:56Z</time>
      </trkpt>
      <trkpt lat="45.85924" lon="4.66974">
        <ele>208</ele>
        <time>2018-07-06T09:44:57Z</time>
      </trkpt>
      <trkpt lat="45.85925" lon="4.66966">
        <ele>209</ele>
        <time>2018-07-06T09:44:58Z</time>
      </trkpt>
      <trkpt lat="45.85924" lon="4.66958">
        <ele>209</ele>
        <time>2018-07-06T09:44:59Z</time>
      </trkpt>
      <trkpt lat="45.85922" lon="4.66949">
        <ele>209</ele>
        <time>2018-07-06T09:45:00Z</time>
      </trkpt>
      <trkpt lat="45.85919" lon="4.6694">
        <ele>208</ele>
        <time>2018-07-06T09:45:01Z</time>
      </trkpt>
      <trkpt lat="45.85921" lon="4.66933">
        <ele>208</ele>
        <time>2018-07-06T09:45:02Z</time>
      </trkpt>
      <trkpt lat="45.8592" lon="4.66926">
        <ele>208</ele>
        <time>2018-07-06T09:45:03Z</time>
      </trkpt>
      <trkpt lat="45.85921" lon="4.66919">
        <ele>207</ele>
        <time>2018-07-06T09:45:04Z</time>
      </trkpt>
      <trkpt lat="45.85923" lon="4.66911">
        <ele>208</ele>
        <time>2018-07-06T09:45:05Z</time>
      </trkpt>
      <trkpt lat="45.85925" lon="4.66903">
        <ele>209</ele>
        <time>2018-07-06T09:45:06Z</time>
      </trkpt>
      <trkpt lat="45.85927" lon="4.66895">
        <ele>209</ele>
        <time>2018-07-06T09:45:07Z</time>
      </trkpt>
      <trkpt lat="45.8593" lon="4.66886">
        <ele>210</ele>
        <time>2018-07-06T09:45:08Z</time>
      </trkpt>
      <trkpt lat="45.85932" lon="4.66878">
        <ele>210</ele>
        <time>2018-07-06T09:45:09Z</time>
      </trkpt>
      <trkpt lat="45.85935" lon="4.66871">
        <ele>210</ele>
        <time>2018-07-06T09:45:10Z</time>
      </trkpt>
      <trkpt lat="45.85935" lon="4.66862">
        <ele>210</ele>
        <time>2018-07-06T09:45:11Z</time>
      </trkpt>
      <trkpt lat="45.85935" lon="4.66855">
        <ele>210</ele>
        <time>2018-07-06T09:45:12Z</time>
      </trkpt>
      <trkpt lat="45.85938" lon="4.66847">
        <ele>210</ele>
        <time>2018-07-06T09:45:13Z</time>
      </trkpt>
      <trkpt lat="45.85941" lon="4.66839">
        <ele>210</ele>
        <time>2018-07-06T09:45:14Z</time>
      </trkpt>
      <trkpt lat="45.85943" lon="4.6683">
        <ele>212</ele>
        <time>2018-07-06T09:45:15Z</time>
      </trkpt>
      <trkpt lat="45.85946" lon="4.66823">
        <ele>212</ele>
        <time>2018-07-06T09:45:16Z</time>
      </trkpt>
      <trkpt lat="45.85948" lon="4.66816">
        <ele>212</ele>
        <time>2018-07-06T09:45:17Z</time>
      </trkpt>
      <trkpt lat="45.8595" lon="4.66808">
        <ele>213</ele>
        <time>2018-07-06T09:45:18Z</time>
      </trkpt>
      <trkpt lat="45.85953" lon="4.668">
        <ele>213</ele>
        <time>2018-07-06T09:45:19Z</time>
      </trkpt>
      <trkpt lat="45.85956" lon="4.66791">
        <ele>213</ele>
        <time>2018-07-06T09:45:20Z</time>
      </trkpt>
      <trkpt lat="45.85957" lon="4.66784">
        <ele>213</ele>
        <time>2018-07-06T09:45:21Z</time>
      </trkpt>
      <trkpt lat="45.85959" lon="4.66776">
        <ele>214</ele>
        <time>2018-07-06T09:45:22Z</time>
      </trkpt>
      <trkpt lat="45.85962" lon="4.66769">
        <ele>214</ele>
        <time>2018-07-06T09:45:23Z</time>
      </trkpt>
      <trkpt lat="45.85965" lon="4.66759">
        <ele>214</ele>
        <time>2018-07-06T09:45:24Z</time>
      </trkpt>
      <trkpt lat="45.85968" lon="4.66753">
        <ele>214</ele>
        <time>2018-07-06T09:45:25Z</time>
      </trkpt>
      <trkpt lat="45.8597" lon="4.66747">
        <ele>216</ele>
        <time>2018-07-06T09:45:26Z</time>
      </trkpt>
      <trkpt lat="45.85975" lon="4.66739">
        <ele>216</ele>
        <time>2018-07-06T09:45:27Z</time>
      </trkpt>
      <trkpt lat="45.85979" lon="4.66731">
        <ele>216</ele>
        <time>2018-07-06T09:45:28Z</time>
      </trkpt>
      <trkpt lat="45.85982" lon="4.66723">
        <ele>215</ele>
        <time>2018-07-06T09:45:29Z</time>
      </trkpt>
      <trkpt lat="45.85988" lon="4.6672">
        <ele>215</ele>
        <time>2018-07-06T09:45:30Z</time>
      </trkpt>
      <trkpt lat="45.8599" lon="4.66713">
        <ele>215</ele>
        <time>2018-07-06T09:45:31Z</time>
      </trkpt>
      <trkpt lat="45.85991" lon="4.66707">
        <ele>215</ele>
        <time>2018-07-06T09:45:32Z</time>
      </trkpt>
      <trkpt lat="45.85997" lon="4.66699">
        <ele>215</ele>
        <time>2018-07-06T09:45:33Z</time>
      </trkpt>
      <trkpt lat="45.86" lon="4.66693">
        <ele>218</ele>
        <time>2018-07-06T09:45:34Z</time>
      </trkpt>
      <trkpt lat="45.86005" lon="4.66686">
        <ele>217</ele>
        <time>2018-07-06T09:45:35Z</time>
      </trkpt>
      <trkpt lat="45.86008" lon="4.6668">
        <ele>216</ele>
        <time>2018-07-06T09:45:36Z</time>
      </trkpt>
      <trkpt lat="45.86011" lon="4.66675">
        <ele>216</ele>
        <time>2018-07-06T09:45:37Z</time>
      </trkpt>
      <trkpt lat="45.86016" lon="4.66668">
        <ele>216</ele>
        <time>2018-07-06T09:45:38Z</time>
      </trkpt>
      <trkpt lat="45.86019" lon="4.66664">
        <ele>213</ele>
        <time>2018-07-06T09:45:39Z</time>
      </trkpt>
      <trkpt lat="45.86022" lon="4.66659">
        <ele>213</ele>
        <time>2018-07-06T09:45:40Z</time>
      </trkpt>
      <trkpt lat="45.86027" lon="4.66654">
        <ele>213</ele>
        <time>2018-07-06T09:45:41Z</time>
      </trkpt>
      <trkpt lat="45.8603" lon="4.66649">
        <ele>213</ele>
        <time>2018-07-06T09:45:42Z</time>
      </trkpt>
      <trkpt lat="45.86035" lon="4.66645">
        <ele>214</ele>
        <time>2018-07-06T09:45:43Z</time>
      </trkpt>
      <trkpt lat="45.86039" lon="4.66641">
        <ele>214</ele>
        <time>2018-07-06T09:45:44Z</time>
      </trkpt>
      <trkpt lat="45.86045" lon="4.66636">
        <ele>214</ele>
        <time>2018-07-06T09:45:45Z</time>
      </trkpt>
      <trkpt lat="45.8605" lon="4.66633">
        <ele>214</ele>
        <time>2018-07-06T09:45:46Z</time>
      </trkpt>
      <trkpt lat="45.86054" lon="4.6663">
        <ele>214</ele>
        <time>2018-07-06T09:45:47Z</time>
      </trkpt>
      <trkpt lat="45.86062" lon="4.66628">
        <ele>214</ele>
        <time>2018-07-06T09:45:48Z</time>
      </trkpt>
      <trkpt lat="45.86066" lon="4.66624">
        <ele>214</ele>
        <time>2018-07-06T09:45:49Z</time>
      </trkpt>
      <trkpt lat="45.86069" lon="4.6662">
        <ele>214</ele>
        <time>2018-07-06T09:45:50Z</time>
      </trkpt>
      <trkpt lat="45.86076" lon="4.66618">
        <ele>214</ele>
        <time>2018-07-06T09:45:51Z</time>
      </trkpt>
      <trkpt lat="45.8608" lon="4.66617">
        <ele>214</ele>
        <time>2018-07-06T09:45:52Z</time>
      </trkpt>
      <trkpt lat="45.86087" lon="4.66613">
        <ele>220</ele>
        <time>2018-07-06T09:45:53Z</time>
      </trkpt>
      <trkpt lat="45.86092" lon="4.66609">
        <ele>219</ele>
        <time>2018-07-06T09:45:54Z</time>
      </trkpt>
      <trkpt lat="45.86099" lon="4.66606">
        <ele>219</ele>
        <time>2018-07-06T09:45:55Z</time>
      </trkpt>
      <trkpt lat="45.86107" lon="4.66602">
        <ele>220</ele>
        <time>2018-07-06T09:45:56Z</time>
      </trkpt>
      <trkpt lat="45.86111" lon="4.66599">
        <ele>220</ele>
        <time>2018-07-06T09:45:57Z</time>
      </trkpt>
      <trkpt lat="45.86114" lon="4.66595">
        <ele>220</ele>
        <time>2018-07-06T09:45:58Z</time>
      </trkpt>
      <trkpt lat="45.86119" lon="4.66592">
        <ele>221</ele>
        <time>2018-07-06T09:45:59Z</time>
      </trkpt>
      <trkpt lat="45.86122" lon="4.66588">
        <ele>221</ele>
        <time>2018-07-06T09:46:00Z</time>
      </trkpt>
      <trkpt lat="45.86128" lon="4.66586">
        <ele>222</ele>
        <time>2018-07-06T09:46:01Z</time>
      </trkpt>
      <trkpt lat="45.86132" lon="4.66582">
        <ele>215</ele>
        <time>2018-07-06T09:46:02Z</time>
      </trkpt>
      <trkpt lat="45.86139" lon="4.66575">
        <ele>215</ele>
        <time>2018-07-06T09:46:03Z</time>
      </trkpt>
      <trkpt lat="45.86146" lon="4.66569">
        <ele>216</ele>
        <time>2018-07-06T09:46:04Z</time>
      </trkpt>
      <trkpt lat="45.86151" lon="4.66565">
        <ele>216</ele>
        <time>2018-07-06T09:46:05Z</time>
      </trkpt>
      <trkpt lat="45.86154" lon="4.66558">
        <ele>215</ele>
        <time>2018-07-06T09:46:06Z</time>
      </trkpt>
      <trkpt lat="45.86158" lon="4.66551">
        <ele>215</ele>
        <time>2018-07-06T09:46:07Z</time>
      </trkpt>
      <trkpt lat="45.86162" lon="4.66544">
        <ele>214</ele>
        <time>2018-07-06T09:46:08Z</time>
      </trkpt>
      <trkpt lat="45.86166" lon="4.66538">
        <ele>214</ele>
        <time>2018-07-06T09:46:09Z</time>
      </trkpt>
      <trkpt lat="45.86169" lon="4.66532">
        <ele>218</ele>
        <time>2018-07-06T09:46:10Z</time>
      </trkpt>
      <trkpt lat="45.86173" lon="4.66527">
        <ele>218</ele>
        <time>2018-07-06T09:46:11Z</time>
      </trkpt>
      <trkpt lat="45.86177" lon="4.6652">
        <ele>217</ele>
        <time>2018-07-06T09:46:13.836Z</time>
      </trkpt>
      <trkpt lat="45.86181" lon="4.66514">
        <ele>216</ele>
        <time>2018-07-06T09:46:13Z</time>
      </trkpt>
      <trkpt lat="45.86184" lon="4.66506">
        <ele>216</ele>
        <time>2018-07-06T09:46:14Z</time>
      </trkpt>
      <trkpt lat="45.86189" lon="4.66499">
        <ele>212</ele>
        <time>2018-07-06T09:46:15Z</time>
      </trkpt>
      <trkpt lat="45.86192" lon="4.66492">
        <ele>213</ele>
        <time>2018-07-06T09:46:16Z</time>
      </trkpt>
      <trkpt lat="45.86196" lon="4.66485">
        <ele>213</ele>
        <time>2018-07-06T09:46:17Z</time>
      </trkpt>
      <trkpt lat="45.86198" lon="4.66479">
        <ele>213</ele>
        <time>2018-07-06T09:46:18Z</time>
      </trkpt>
      <trkpt lat="45.86202" lon="4.66472">
        <ele>213</ele>
        <time>2018-07-06T09:46:19Z</time>
      </trkpt>
      <trkpt lat="45.86207" lon="4.66466">
        <ele>213</ele>
        <time>2018-07-06T09:46:20Z</time>
      </trkpt>
      <trkpt lat="45.8621" lon="4.66458">
        <ele>213</ele>
        <time>2018-07-06T09:46:21Z</time>
      </trkpt>
      <trkpt lat="45.86214" lon="4.66451">
        <ele>213</ele>
        <time>2018-07-06T09:46:22Z</time>
      </trkpt>
      <trkpt lat="45.86219" lon="4.66445">
        <ele>213</ele>
        <time>2018-07-06T09:46:23Z</time>
      </trkpt>
      <trkpt lat="45.86223" lon="4.6644">
        <ele>213</ele>
        <time>2018-07-06T09:46:24Z</time>
      </trkpt>
      <trkpt lat="45.86227" lon="4.66433">
        <ele>214</ele>
        <time>2018-07-06T09:46:25Z</time>
      </trkpt>
      <trkpt lat="45.86229" lon="4.66427">
        <ele>214</ele>
        <time>2018-07-06T09:46:26Z</time>
      </trkpt>
      <trkpt lat="45.86232" lon="4.6642">
        <ele>214</ele>
        <time>2018-07-06T09:46:27Z</time>
      </trkpt>
      <trkpt lat="45.86236" lon="4.66413">
        <ele>213</ele>
        <time>2018-07-06T09:46:28Z</time>
      </trkpt>
      <trkpt lat="45.86241" lon="4.66407">
        <ele>213</ele>
        <time>2018-07-06T09:46:29Z</time>
      </trkpt>
      <trkpt lat="45.86243" lon="4.664">
        <ele>213</ele>
        <time>2018-07-06T09:46:30Z</time>
      </trkpt>
      <trkpt lat="45.86249" lon="4.66393">
        <ele>212</ele>
        <time>2018-07-06T09:46:31Z</time>
      </trkpt>
      <trkpt lat="45.86254" lon="4.66387">
        <ele>216</ele>
        <time>2018-07-06T09:46:32Z</time>
      </trkpt>
      <trkpt lat="45.86257" lon="4.66381">
        <ele>216</ele>
        <time>2018-07-06T09:46:33Z</time>
      </trkpt>
      <trkpt lat="45.86261" lon="4.66374">
        <ele>216</ele>
        <time>2018-07-06T09:46:34Z</time>
      </trkpt>
      <trkpt lat="45.86267" lon="4.66367">
        <ele>216</ele>
        <time>2018-07-06T09:46:35Z</time>
      </trkpt>
      <trkpt lat="45.86271" lon="4.66361">
        <ele>216</ele>
        <time>2018-07-06T09:46:36Z</time>
      </trkpt>
      <trkpt lat="45.86276" lon="4.66357">
        <ele>216</ele>
        <time>2018-07-06T09:46:37Z</time>
      </trkpt>
      <trkpt lat="45.86279" lon="4.66349">
        <ele>216</ele>
        <time>2018-07-06T09:46:38Z</time>
      </trkpt>
      <trkpt lat="45.86283" lon="4.66344">
        <ele>217</ele>
        <time>2018-07-06T09:46:39Z</time>
      </trkpt>
      <trkpt lat="45.86288" lon="4.6634">
        <ele>217</ele>
        <time>2018-07-06T09:46:40Z</time>
      </trkpt>
      <trkpt lat="45.86293" lon="4.66334">
        <ele>218</ele>
        <time>2018-07-06T09:46:41Z</time>
      </trkpt>
      <trkpt lat="45.86295" lon="4.6633">
        <ele>215</ele>
        <time>2018-07-06T09:46:42Z</time>
      </trkpt>
      <trkpt lat="45.863" lon="4.66323">
        <ele>215</ele>
        <time>2018-07-06T09:46:43Z</time>
      </trkpt>
      <trkpt lat="45.86304" lon="4.66318">
        <ele>215</ele>
        <time>2018-07-06T09:46:44Z</time>
      </trkpt>
      <trkpt lat="45.86307" lon="4.66314">
        <ele>216</ele>
        <time>2018-07-06T09:46:45Z</time>
      </trkpt>
      <trkpt lat="45.8631" lon="4.66309">
        <ele>215</ele>
        <time>2018-07-06T09:46:46Z</time>
      </trkpt>
      <trkpt lat="45.86314" lon="4.66303">
        <ele>215</ele>
        <time>2018-07-06T09:46:47Z</time>
      </trkpt>
      <trkpt lat="45.86319" lon="4.66297">
        <ele>215</ele>
        <time>2018-07-06T09:46:48Z</time>
      </trkpt>
      <trkpt lat="45.86325" lon="4.66292">
        <ele>215</ele>
        <time>2018-07-06T09:46:49Z</time>
      </trkpt>
      <trkpt lat="45.8633" lon="4.66287">
        <ele>215</ele>
        <time>2018-07-06T09:46:50Z</time>
      </trkpt>
      <trkpt lat="45.86334" lon="4.66282">
        <ele>219</ele>
        <time>2018-07-06T09:46:51Z</time>
      </trkpt>
      <trkpt lat="45.86339" lon="4.66277">
        <ele>218</ele>
        <time>2018-07-06T09:46:52Z</time>
      </trkpt>
      <trkpt lat="45.86344" lon="4.66273">
        <ele>218</ele>
        <time>2018-07-06T09:46:53Z</time>
      </trkpt>
      <trkpt lat="45.86347" lon="4.66267">
        <ele>217</ele>
        <time>2018-07-06T09:46:54Z</time>
      </trkpt>
      <trkpt lat="45.86354" lon="4.66262">
        <ele>218</ele>
        <time>2018-07-06T09:46:55Z</time>
      </trkpt>
      <trkpt lat="45.86361" lon="4.66258">
        <ele>218</ele>
        <time>2018-07-06T09:46:57Z</time>
      </trkpt>
      <trkpt lat="45.86368" lon="4.66252">
        <ele>219</ele>
        <time>2018-07-06T09:46:58Z</time>
      </trkpt>
      <trkpt lat="45.86375" lon="4.66244">
        <ele>214</ele>
        <time>2018-07-06T09:47:00Z</time>
      </trkpt>
      <trkpt lat="45.8638" lon="4.66239">
        <ele>214</ele>
        <time>2018-07-06T09:47:01Z</time>
      </trkpt>
      <trkpt lat="45.86384" lon="4.66234">
        <ele>214</ele>
        <time>2018-07-06T09:47:02Z</time>
      </trkpt>
      <trkpt lat="45.86388" lon="4.6623">
        <ele>214</ele>
        <time>2018-07-06T09:47:03Z</time>
      </trkpt>
      <trkpt lat="45.86396" lon="4.66231">
        <ele>215</ele>
        <time>2018-07-06T09:47:05Z</time>
      </trkpt>
      <trkpt lat="45.86401" lon="4.66231">
        <ele>215</ele>
        <time>2018-07-06T09:47:06Z</time>
      </trkpt>
      <trkpt lat="45.86406" lon="4.66228">
        <ele>215</ele>
        <time>2018-07-06T09:47:07Z</time>
      </trkpt>
      <trkpt lat="45.86416" lon="4.66222">
        <ele>215</ele>
        <time>2018-07-06T09:47:08Z</time>
      </trkpt>
      <trkpt lat="45.86423" lon="4.66218">
        <ele>218</ele>
        <time>2018-07-06T09:47:10Z</time>
      </trkpt>
      <trkpt lat="45.86429" lon="4.66217">
        <ele>217</ele>
        <time>2018-07-06T09:47:11Z</time>
      </trkpt>
      <trkpt lat="45.86434" lon="4.66218">
        <ele>218</ele>
        <time>2018-07-06T09:47:12Z</time>
      </trkpt>
      <trkpt lat="45.86439" lon="4.66218">
        <ele>218</ele>
        <time>2018-07-06T09:47:13Z</time>
      </trkpt>
      <trkpt lat="45.86446" lon="4.66212">
        <ele>217</ele>
        <time>2018-07-06T09:47:14Z</time>
      </trkpt>
      <trkpt lat="45.86452" lon="4.66212">
        <ele>218</ele>
        <time>2018-07-06T09:47:15Z</time>
      </trkpt>
      <trkpt lat="45.86458" lon="4.66207">
        <ele>217</ele>
        <time>2018-07-06T09:47:17Z</time>
      </trkpt>
      <trkpt lat="45.8646" lon="4.66204">
        <ele>217</ele>
        <time>2018-07-06T09:47:18Z</time>
      </trkpt>
      <trkpt lat="45.86465" lon="4.66206">
        <ele>218</ele>
        <time>2018-07-06T09:47:19Z</time>
      </trkpt>
      <trkpt lat="45.8647" lon="4.66205">
        <ele>218</ele>
        <time>2018-07-06T09:47:20Z</time>
      </trkpt>
      <trkpt lat="45.86477" lon="4.66198">
        <ele>217</ele>
        <time>2018-07-06T09:47:22Z</time>
      </trkpt>
      <trkpt lat="45.86481" lon="4.662">
        <ele>218</ele>
        <time>2018-07-06T09:47:23Z</time>
      </trkpt>
      <trkpt lat="45.86487" lon="4.66197">
        <ele>217</ele>
        <time>2018-07-06T09:47:25Z</time>
      </trkpt>
      <trkpt lat="45.86491" lon="4.66194">
        <ele>217</ele>
        <time>2018-07-06T09:47:26Z</time>
      </trkpt>
      <trkpt lat="45.86499" lon="4.66187">
        <ele>217</ele>
        <time>2018-07-06T09:47:28Z</time>
      </trkpt>
      <trkpt lat="45.86504" lon="4.66185">
        <ele>221</ele>
        <time>2018-07-06T09:47:29Z</time>
      </trkpt>
      <trkpt lat="45.86511" lon="4.66184">
        <ele>222</ele>
        <time>2018-07-06T09:47:31Z</time>
      </trkpt>
      <trkpt lat="45.86519" lon="4.66182">
        <ele>222</ele>
        <time>2018-07-06T09:47:32Z</time>
      </trkpt>
      <trkpt lat="45.86523" lon="4.66179">
        <ele>223</ele>
        <time>2018-07-06T09:47:33Z</time>
      </trkpt>
      <trkpt lat="45.86528" lon="4.66177">
        <ele>223</ele>
        <time>2018-07-06T09:47:34Z</time>
      </trkpt>
      <trkpt lat="45.86535" lon="4.66171">
        <ele>224</ele>
        <time>2018-07-06T09:47:36Z</time>
      </trkpt>
      <trkpt lat="45.86541" lon="4.66168">
        <ele>225</ele>
        <time>2018-07-06T09:47:37Z</time>
      </trkpt>
      <trkpt lat="45.86545" lon="4.66164">
        <ele>218</ele>
        <time>2018-07-06T09:47:38Z</time>
      </trkpt>
      <trkpt lat="45.86549" lon="4.66159">
        <ele>218</ele>
        <time>2018-07-06T09:47:39Z</time>
      </trkpt>
      <trkpt lat="45.86552" lon="4.66155">
        <ele>218</ele>
        <time>2018-07-06T09:47:40Z</time>
      </trkpt>
      <trkpt lat="45.86557" lon="4.66151">
        <ele>218</ele>
        <time>2018-07-06T09:47:41Z</time>
      </trkpt>
      <trkpt lat="45.86564" lon="4.66144">
        <ele>218</ele>
        <time>2018-07-06T09:47:43Z</time>
      </trkpt>
      <trkpt lat="45.86568" lon="4.66141">
        <ele>218</ele>
        <time>2018-07-06T09:47:44Z</time>
      </trkpt>
      <trkpt lat="45.86573" lon="4.66138">
        <ele>218</ele>
        <time>2018-07-06T09:47:45Z</time>
      </trkpt>
      <trkpt lat="45.86578" lon="4.66132">
        <ele>217</ele>
        <time>2018-07-06T09:47:46Z</time>
      </trkpt>
      <trkpt lat="45.86583" lon="4.66127">
        <ele>217</ele>
        <time>2018-07-06T09:47:47Z</time>
      </trkpt>
      <trkpt lat="45.86587" lon="4.66119">
        <ele>222</ele>
        <time>2018-07-06T09:47:48Z</time>
      </trkpt>
      <trkpt lat="45.86593" lon="4.66116">
        <ele>222</ele>
        <time>2018-07-06T09:47:50Z</time>
      </trkpt>
      <trkpt lat="45.86597" lon="4.66117">
        <ele>222</ele>
        <time>2018-07-06T09:47:51Z</time>
      </trkpt>
      <trkpt lat="45.86601" lon="4.66117">
        <ele>223</ele>
        <time>2018-07-06T09:47:52Z</time>
      </trkpt>
      <trkpt lat="45.86607" lon="4.66115">
        <ele>223</ele>
        <time>2018-07-06T09:47:53Z</time>
      </trkpt>
      <trkpt lat="45.8661" lon="4.66109">
        <ele>222</ele>
        <time>2018-07-06T09:47:54Z</time>
      </trkpt>
      <trkpt lat="45.86614" lon="4.66106">
        <ele>222</ele>
        <time>2018-07-06T09:47:55Z</time>
      </trkpt>
      <trkpt lat="45.86619" lon="4.66101">
        <ele>222</ele>
        <time>2018-07-06T09:47:56Z</time>
      </trkpt>
      <trkpt lat="45.86628" lon="4.66095">
        <ele>223</ele>
        <time>2018-07-06T09:47:57Z</time>
      </trkpt>
      <trkpt lat="45.86637" lon="4.66093">
        <ele>223</ele>
        <time>2018-07-06T09:47:59Z</time>
      </trkpt>
      <trkpt lat="45.86642" lon="4.66093">
        <ele>223</ele>
        <time>2018-07-06T09:48:00Z</time>
      </trkpt>
      <trkpt lat="45.86648" lon="4.66092">
        <ele>223</ele>
        <time>2018-07-06T09:48:01Z</time>
      </trkpt>
      <trkpt lat="45.86651" lon="4.66092">
        <ele>222</ele>
        <time>2018-07-06T09:48:02Z</time>
      </trkpt>
      <trkpt lat="45.86656" lon="4.66089">
        <ele>222</ele>
        <time>2018-07-06T09:48:03Z</time>
      </trkpt>
      <trkpt lat="45.86661" lon="4.66086">
        <ele>221</ele>
        <time>2018-07-06T09:48:04Z</time>
      </trkpt>
      <trkpt lat="45.86666" lon="4.66085">
        <ele>220</ele>
        <time>2018-07-06T09:48:05Z</time>
      </trkpt>
      <trkpt lat="45.86672" lon="4.66082">
        <ele>220</ele>
        <time>2018-07-06T09:48:06Z</time>
      </trkpt>
      <trkpt lat="45.86677" lon="4.6608">
        <ele>220</ele>
        <time>2018-07-06T09:48:07Z</time>
      </trkpt>
      <trkpt lat="45.86683" lon="4.66075">
        <ele>221</ele>
        <time>2018-07-06T09:48:08Z</time>
      </trkpt>
      <trkpt lat="45.86691" lon="4.66073">
        <ele>222</ele>
        <time>2018-07-06T09:48:10Z</time>
      </trkpt>
      <trkpt lat="45.86695" lon="4.66072">
        <ele>222</ele>
        <time>2018-07-06T09:48:11Z</time>
      </trkpt>
      <trkpt lat="45.86701" lon="4.66069">
        <ele>223</ele>
        <time>2018-07-06T09:48:12Z</time>
      </trkpt>
      <trkpt lat="45.86708" lon="4.66067">
        <ele>223</ele>
        <time>2018-07-06T09:48:13Z</time>
      </trkpt>
      <trkpt lat="45.86712" lon="4.66064">
        <ele>224</ele>
        <time>2018-07-06T09:48:14Z</time>
      </trkpt>
      <trkpt lat="45.86718" lon="4.66062">
        <ele>224</ele>
        <time>2018-07-06T09:48:15Z</time>
      </trkpt>
      <trkpt lat="45.86721" lon="4.66054">
        <ele>224</ele>
        <time>2018-07-06T09:48:17Z</time>
      </trkpt>
      <trkpt lat="45.86725" lon="4.66052">
        <ele>224</ele>
        <time>2018-07-06T09:48:18Z</time>
      </trkpt>
      <trkpt lat="45.86731" lon="4.66047">
        <ele>224</ele>
        <time>2018-07-06T09:48:20Z</time>
      </trkpt>
      <trkpt lat="45.86734" lon="4.66044">
        <ele>224</ele>
        <time>2018-07-06T09:48:21Z</time>
      </trkpt>
      <trkpt lat="45.8674" lon="4.66041">
        <ele>223</ele>
        <time>2018-07-06T09:48:22Z</time>
      </trkpt>
      <trkpt lat="45.86744" lon="4.66037">
        <ele>223</ele>
        <time>2018-07-06T09:48:23Z</time>
      </trkpt>
      <trkpt lat="45.86747" lon="4.66035">
        <ele>222</ele>
        <time>2018-07-06T09:48:24Z</time>
      </trkpt>
      <trkpt lat="45.86753" lon="4.66031">
        <ele>231</ele>
        <time>2018-07-06T09:48:25Z</time>
      </trkpt>
      <trkpt lat="45.8676" lon="4.66025">
        <ele>230</ele>
        <time>2018-07-06T09:48:26Z</time>
      </trkpt>
      <trkpt lat="45.86763" lon="4.66021">
        <ele>230</ele>
        <time>2018-07-06T09:48:27Z</time>
      </trkpt>
      <trkpt lat="45.86767" lon="4.66019">
        <ele>230</ele>
        <time>2018-07-06T09:48:28Z</time>
      </trkpt>
      <trkpt lat="45.86771" lon="4.66014">
        <ele>230</ele>
        <time>2018-07-06T09:48:29Z</time>
      </trkpt>
      <trkpt lat="45.86777" lon="4.66012">
        <ele>231</ele>
        <time>2018-07-06T09:48:30Z</time>
      </trkpt>
      <trkpt lat="45.86784" lon="4.66006">
        <ele>232</ele>
        <time>2018-07-06T09:48:31Z</time>
      </trkpt>
      <trkpt lat="45.86787" lon="4.65996">
        <ele>222</ele>
        <time>2018-07-06T09:48:33Z</time>
      </trkpt>
      <trkpt lat="45.86791" lon="4.6599">
        <ele>223</ele>
        <time>2018-07-06T09:48:34Z</time>
      </trkpt>
      <trkpt lat="45.86795" lon="4.65986">
        <ele>223</ele>
        <time>2018-07-06T09:48:35Z</time>
      </trkpt>
      <trkpt lat="45.86799" lon="4.65981">
        <ele>223</ele>
        <time>2018-07-06T09:48:36Z</time>
      </trkpt>
      <trkpt lat="45.86802" lon="4.65976">
        <ele>224</ele>
        <time>2018-07-06T09:48:37Z</time>
      </trkpt>
      <trkpt lat="45.86806" lon="4.65971">
        <ele>224</ele>
        <time>2018-07-06T09:48:38Z</time>
      </trkpt>
      <trkpt lat="45.86808" lon="4.65966">
        <ele>223</ele>
        <time>2018-07-06T09:48:39Z</time>
      </trkpt>
      <trkpt lat="45.86812" lon="4.6596">
        <ele>223</ele>
        <time>2018-07-06T09:48:40Z</time>
      </trkpt>
      <trkpt lat="45.86814" lon="4.65953">
        <ele>223</ele>
        <time>2018-07-06T09:48:41Z</time>
      </trkpt>
      <trkpt lat="45.86819" lon="4.65947">
        <ele>222</ele>
        <time>2018-07-06T09:48:42Z</time>
      </trkpt>
      <trkpt lat="45.86822" lon="4.65939">
        <ele>222</ele>
        <time>2018-07-06T09:48:43Z</time>
      </trkpt>
      <trkpt lat="45.86826" lon="4.65931">
        <ele>221</ele>
        <time>2018-07-06T09:48:44Z</time>
      </trkpt>
      <trkpt lat="45.86828" lon="4.65926">
        <ele>221</ele>
        <time>2018-07-06T09:48:45Z</time>
      </trkpt>
      <trkpt lat="45.8683" lon="4.65918">
        <ele>221</ele>
        <time>2018-07-06T09:48:46Z</time>
      </trkpt>
      <trkpt lat="45.86833" lon="4.65912">
        <ele>223</ele>
        <time>2018-07-06T09:48:47Z</time>
      </trkpt>
      <trkpt lat="45.8684" lon="4.65906">
        <ele>224</ele>
        <time>2018-07-06T09:48:48Z</time>
      </trkpt>
      <trkpt lat="45.86844" lon="4.65899">
        <ele>226</ele>
        <time>2018-07-06T09:48:49Z</time>
      </trkpt>
      <trkpt lat="45.86848" lon="4.65892">
        <ele>226</ele>
        <time>2018-07-06T09:48:50Z</time>
      </trkpt>
      <trkpt lat="45.8685" lon="4.65886">
        <ele>227</ele>
        <time>2018-07-06T09:48:51Z</time>
      </trkpt>
      <trkpt lat="45.86853" lon="4.65878">
        <ele>227</ele>
        <time>2018-07-06T09:48:52Z</time>
      </trkpt>
      <trkpt lat="45.86855" lon="4.65871">
        <ele>226</ele>
        <time>2018-07-06T09:48:53Z</time>
      </trkpt>
      <trkpt lat="45.8686" lon="4.65865">
        <ele>226</ele>
        <time>2018-07-06T09:48:54Z</time>
      </trkpt>
      <trkpt lat="45.86862" lon="4.65856">
        <ele>226</ele>
        <time>2018-07-06T09:48:55Z</time>
      </trkpt>
      <trkpt lat="45.86865" lon="4.65849">
        <ele>226</ele>
        <time>2018-07-06T09:48:56Z</time>
      </trkpt>
      <trkpt lat="45.86867" lon="4.65842">
        <ele>226</ele>
        <time>2018-07-06T09:48:57Z</time>
      </trkpt>
      <trkpt lat="45.8687" lon="4.65835">
        <ele>226</ele>
        <time>2018-07-06T09:48:58Z</time>
      </trkpt>
      <trkpt lat="45.86872" lon="4.65828">
        <ele>222</ele>
        <time>2018-07-06T09:48:59Z</time>
      </trkpt>
      <trkpt lat="45.86875" lon="4.65821">
        <ele>222</ele>
        <time>2018-07-06T09:49:00Z</time>
      </trkpt>
      <trkpt lat="45.86876" lon="4.65813">
        <ele>222</ele>
        <time>2018-07-06T09:49:01Z</time>
      </trkpt>
      <trkpt lat="45.86879" lon="4.65805">
        <ele>223</ele>
        <time>2018-07-06T09:49:02Z</time>
      </trkpt>
      <trkpt lat="45.86882" lon="4.65798">
        <ele>223</ele>
        <time>2018-07-06T09:49:03Z</time>
      </trkpt>
      <trkpt lat="45.86884" lon="4.65789">
        <ele>223</ele>
        <time>2018-07-06T09:49:04Z</time>
      </trkpt>
      <trkpt lat="45.86884" lon="4.65783">
        <ele>223</ele>
        <time>2018-07-06T09:49:05Z</time>
      </trkpt>
      <trkpt lat="45.86887" lon="4.65776">
        <ele>223</ele>
        <time>2018-07-06T09:49:06Z</time>
      </trkpt>
      <trkpt lat="45.86888" lon="4.65768">
        <ele>224</ele>
        <time>2018-07-06T09:49:07Z</time>
      </trkpt>
      <trkpt lat="45.8689" lon="4.6576">
        <ele>224</ele>
        <time>2018-07-06T09:49:08Z</time>
      </trkpt>
      <trkpt lat="45.86898" lon="4.65753">
        <ele>225</ele>
        <time>2018-07-06T09:49:09Z</time>
      </trkpt>
      <trkpt lat="45.86897" lon="4.65744">
        <ele>225</ele>
        <time>2018-07-06T09:49:10Z</time>
      </trkpt>
      <trkpt lat="45.86896" lon="4.65738">
        <ele>224</ele>
        <time>2018-07-06T09:49:11Z</time>
      </trkpt>
      <trkpt lat="45.86898" lon="4.65731">
        <ele>224</ele>
        <time>2018-07-06T09:49:12Z</time>
      </trkpt>
      <trkpt lat="45.86898" lon="4.65723">
        <ele>224</ele>
        <time>2018-07-06T09:49:13Z</time>
      </trkpt>
      <trkpt lat="45.86901" lon="4.65717">
        <ele>224</ele>
        <time>2018-07-06T09:49:14Z</time>
      </trkpt>
      <trkpt lat="45.86901" lon="4.65709">
        <ele>224</ele>
        <time>2018-07-06T09:49:15Z</time>
      </trkpt>
      <trkpt lat="45.86901" lon="4.65702">
        <ele>224</ele>
        <time>2018-07-06T09:49:16Z</time>
      </trkpt>
      <trkpt lat="45.86901" lon="4.65695">
        <ele>224</ele>
        <time>2018-07-06T09:49:17Z</time>
      </trkpt>
      <trkpt lat="45.869" lon="4.65686">
        <ele>225</ele>
        <time>2018-07-06T09:49:18Z</time>
      </trkpt>
      <trkpt lat="45.86898" lon="4.65678">
        <ele>225</ele>
        <time>2018-07-06T09:49:19Z</time>
      </trkpt>
      <trkpt lat="45.86896" lon="4.6567">
        <ele>225</ele>
        <time>2018-07-06T09:49:20Z</time>
      </trkpt>
      <trkpt lat="45.86897" lon="4.65663">
        <ele>225</ele>
        <time>2018-07-06T09:49:21Z</time>
      </trkpt>
      <trkpt lat="45.86898" lon="4.65655">
        <ele>225</ele>
        <time>2018-07-06T09:49:22Z</time>
      </trkpt>
      <trkpt lat="45.86894" lon="4.65645">
        <ele>223</ele>
        <time>2018-07-06T09:49:23Z</time>
      </trkpt>
      <trkpt lat="45.86896" lon="4.65636">
        <ele>223</ele>
        <time>2018-07-06T09:49:24Z</time>
      </trkpt>
      <trkpt lat="45.86897" lon="4.65626">
        <ele>223</ele>
        <time>2018-07-06T09:49:25Z</time>
      </trkpt>
      <trkpt lat="45.86898" lon="4.65618">
        <ele>223</ele>
        <time>2018-07-06T09:49:26Z</time>
      </trkpt>
      <trkpt lat="45.869" lon="4.65608">
        <ele>223</ele>
        <time>2018-07-06T09:49:27Z</time>
      </trkpt>
      <trkpt lat="45.86902" lon="4.65599">
        <ele>223</ele>
        <time>2018-07-06T09:49:28Z</time>
      </trkpt>
      <trkpt lat="45.86904" lon="4.65589">
        <ele>224</ele>
        <time>2018-07-06T09:49:29Z</time>
      </trkpt>
      <trkpt lat="45.86905" lon="4.6558">
        <ele>222</ele>
        <time>2018-07-06T09:49:30Z</time>
      </trkpt>
      <trkpt lat="45.86907" lon="4.6557">
        <ele>221</ele>
        <time>2018-07-06T09:49:31Z</time>
      </trkpt>
      <trkpt lat="45.8691" lon="4.6556">
        <ele>220</ele>
        <time>2018-07-06T09:49:32Z</time>
      </trkpt>
      <trkpt lat="45.86913" lon="4.65551">
        <ele>219</ele>
        <time>2018-07-06T09:49:33Z</time>
      </trkpt>
      <trkpt lat="45.86917" lon="4.65542">
        <ele>219</ele>
        <time>2018-07-06T09:49:34Z</time>
      </trkpt>
      <trkpt lat="45.8692" lon="4.65534">
        <ele>229</ele>
        <time>2018-07-06T09:49:35Z</time>
      </trkpt>
      <trkpt lat="45.86923" lon="4.65524">
        <ele>228</ele>
        <time>2018-07-06T09:49:36Z</time>
      </trkpt>
      <trkpt lat="45.86926" lon="4.65516">
        <ele>226</ele>
        <time>2018-07-06T09:49:37Z</time>
      </trkpt>
      <trkpt lat="45.8693" lon="4.65509">
        <ele>225</ele>
        <time>2018-07-06T09:49:38Z</time>
      </trkpt>
      <trkpt lat="45.86931" lon="4.655">
        <ele>220</ele>
        <time>2018-07-06T09:49:39Z</time>
      </trkpt>
      <trkpt lat="45.86936" lon="4.65494">
        <ele>221</ele>
        <time>2018-07-06T09:49:40Z</time>
      </trkpt>
      <trkpt lat="45.86939" lon="4.65488">
        <ele>221</ele>
        <time>2018-07-06T09:49:41Z</time>
      </trkpt>
      <trkpt lat="45.86944" lon="4.65479">
        <ele>222</ele>
        <time>2018-07-06T09:49:42Z</time>
      </trkpt>
      <trkpt lat="45.8695" lon="4.65472">
        <ele>222</ele>
        <time>2018-07-06T09:49:43Z</time>
      </trkpt>
      <trkpt lat="45.86953" lon="4.65465">
        <ele>222</ele>
        <time>2018-07-06T09:49:44Z</time>
      </trkpt>
      <trkpt lat="45.86957" lon="4.65458">
        <ele>222</ele>
        <time>2018-07-06T09:49:45Z</time>
      </trkpt>
      <trkpt lat="45.86962" lon="4.6545">
        <ele>222</ele>
        <time>2018-07-06T09:49:46Z</time>
      </trkpt>
      <trkpt lat="45.86969" lon="4.65443">
        <ele>222</ele>
        <time>2018-07-06T09:49:47Z</time>
      </trkpt>
      <trkpt lat="45.86977" lon="4.65436">
        <ele>222</ele>
        <time>2018-07-06T09:49:48Z</time>
      </trkpt>
      <trkpt lat="45.86982" lon="4.6543">
        <ele>222</ele>
        <time>2018-07-06T09:49:49Z</time>
      </trkpt>
      <trkpt lat="45.86987" lon="4.65424">
        <ele>222</ele>
        <time>2018-07-06T09:49:50Z</time>
      </trkpt>
      <trkpt lat="45.86993" lon="4.65418">
        <ele>221</ele>
        <time>2018-07-06T09:49:51Z</time>
      </trkpt>
      <trkpt lat="45.86997" lon="4.65411">
        <ele>219</ele>
        <time>2018-07-06T09:49:52Z</time>
      </trkpt>
      <trkpt lat="45.87004" lon="4.65405">
        <ele>222</ele>
        <time>2018-07-06T09:49:54.806Z</time>
      </trkpt>
      <trkpt lat="45.8701" lon="4.654">
        <ele>223</ele>
        <time>2018-07-06T09:49:54Z</time>
      </trkpt>
      <trkpt lat="45.87015" lon="4.65394">
        <ele>223</ele>
        <time>2018-07-06T09:49:55Z</time>
      </trkpt>
      <trkpt lat="45.8702" lon="4.65387">
        <ele>223</ele>
        <time>2018-07-06T09:49:56Z</time>
      </trkpt>
      <trkpt lat="45.87026" lon="4.65379">
        <ele>223</ele>
        <time>2018-07-06T09:49:57Z</time>
      </trkpt>
      <trkpt lat="45.8703" lon="4.65374">
        <ele>223</ele>
        <time>2018-07-06T09:49:58Z</time>
      </trkpt>
      <trkpt lat="45.87033" lon="4.65368">
        <ele>223</ele>
        <time>2018-07-06T09:49:59Z</time>
      </trkpt>
      <trkpt lat="45.87037" lon="4.65363">
        <ele>223</ele>
        <time>2018-07-06T09:50:00Z</time>
      </trkpt>
      <trkpt lat="45.8704" lon="4.65356">
        <ele>223</ele>
        <time>2018-07-06T09:50:01Z</time>
      </trkpt>
      <trkpt lat="45.87043" lon="4.6535">
        <ele>223</ele>
        <time>2018-07-06T09:50:02Z</time>
      </trkpt>
      <trkpt lat="45.87046" lon="4.65341">
        <ele>223</ele>
        <time>2018-07-06T09:50:03Z</time>
      </trkpt>
      <trkpt lat="45.8705" lon="4.65335">
        <ele>223</ele>
        <time>2018-07-06T09:50:04Z</time>
      </trkpt>
      <trkpt lat="45.87055" lon="4.65329">
        <ele>218</ele>
        <time>2018-07-06T09:50:05Z</time>
      </trkpt>
      <trkpt lat="45.87059" lon="4.65323">
        <ele>218</ele>
        <time>2018-07-06T09:50:06Z</time>
      </trkpt>
      <trkpt lat="45.87062" lon="4.65315">
        <ele>218</ele>
        <time>2018-07-06T09:50:07Z</time>
      </trkpt>
      <trkpt lat="45.87065" lon="4.65307">
        <ele>217</ele>
        <time>2018-07-06T09:50:08Z</time>
      </trkpt>
      <trkpt lat="45.87069" lon="4.65299">
        <ele>217</ele>
        <time>2018-07-06T09:50:09Z</time>
      </trkpt>
      <trkpt lat="45.87071" lon="4.65291">
        <ele>216</ele>
        <time>2018-07-06T09:50:10Z</time>
      </trkpt>
      <trkpt lat="45.87074" lon="4.65284">
        <ele>216</ele>
        <time>2018-07-06T09:50:11Z</time>
      </trkpt>
      <trkpt lat="45.87078" lon="4.65276">
        <ele>215</ele>
        <time>2018-07-06T09:50:12Z</time>
      </trkpt>
      <trkpt lat="45.8708" lon="4.65269">
        <ele>215</ele>
        <time>2018-07-06T09:50:13Z</time>
      </trkpt>
      <trkpt lat="45.87083" lon="4.65261">
        <ele>214</ele>
        <time>2018-07-06T09:50:14Z</time>
      </trkpt>
      <trkpt lat="45.87089" lon="4.65255">
        <ele>218</ele>
        <time>2018-07-06T09:50:15Z</time>
      </trkpt>
      <trkpt lat="45.87093" lon="4.65252">
        <ele>219</ele>
        <time>2018-07-06T09:50:16Z</time>
      </trkpt>
      <trkpt lat="45.87097" lon="4.65245">
        <ele>217</ele>
        <time>2018-07-06T09:50:17Z</time>
      </trkpt>
      <trkpt lat="45.87102" lon="4.65238">
        <ele>218</ele>
        <time>2018-07-06T09:50:18Z</time>
      </trkpt>
      <trkpt lat="45.8711" lon="4.6523">
        <ele>219</ele>
        <time>2018-07-06T09:50:19Z</time>
      </trkpt>
      <trkpt lat="45.87113" lon="4.65222">
        <ele>220</ele>
        <time>2018-07-06T09:50:20Z</time>
      </trkpt>
      <trkpt lat="45.87117" lon="4.65215">
        <ele>220</ele>
        <time>2018-07-06T09:50:21Z</time>
      </trkpt>
      <trkpt lat="45.87121" lon="4.65209">
        <ele>220</ele>
        <time>2018-07-06T09:50:22Z</time>
      </trkpt>
      <trkpt lat="45.87126" lon="4.65205">
        <ele>220</ele>
        <time>2018-07-06T09:50:23Z</time>
      </trkpt>
      <trkpt lat="45.87132" lon="4.65197">
        <ele>220</ele>
        <time>2018-07-06T09:50:25Z</time>
      </trkpt>
      <trkpt lat="45.87132" lon="4.65193">
        <ele>220</ele>
        <time>2018-07-06T09:50:26Z</time>
      </trkpt>
      <trkpt lat="45.87136" lon="4.65189">
        <ele>220</ele>
        <time>2018-07-06T09:50:27Z</time>
      </trkpt>
      <trkpt lat="45.8714" lon="4.65182">
        <ele>220</ele>
        <time>2018-07-06T09:50:28Z</time>
      </trkpt>
      <trkpt lat="45.87143" lon="4.65178">
        <ele>220</ele>
        <time>2018-07-06T09:50:29Z</time>
      </trkpt>
      <trkpt lat="45.87148" lon="4.65174">
        <ele>220</ele>
        <time>2018-07-06T09:50:30Z</time>
      </trkpt>
      <trkpt lat="45.87154" lon="4.65173">
        <ele>220</ele>
        <time>2018-07-06T09:50:31Z</time>
      </trkpt>
      <trkpt lat="45.87159" lon="4.65166">
        <ele>218</ele>
        <time>2018-07-06T09:50:32Z</time>
      </trkpt>
      <trkpt lat="45.87165" lon="4.65164">
        <ele>219</ele>
        <time>2018-07-06T09:50:33Z</time>
      </trkpt>
      <trkpt lat="45.87172" lon="4.6516">
        <ele>221</ele>
        <time>2018-07-06T09:50:34Z</time>
      </trkpt>
      <trkpt lat="45.87176" lon="4.65157">
        <ele>221</ele>
        <time>2018-07-06T09:50:35Z</time>
      </trkpt>
      <trkpt lat="45.87185" lon="4.6515">
        <ele>222</ele>
        <time>2018-07-06T09:50:36Z</time>
      </trkpt>
      <trkpt lat="45.87187" lon="4.65138">
        <ele>221</ele>
        <time>2018-07-06T09:50:38Z</time>
      </trkpt>
      <trkpt lat="45.87191" lon="4.65134">
        <ele>221</ele>
        <time>2018-07-06T09:50:39Z</time>
      </trkpt>
      <trkpt lat="45.87194" lon="4.65129">
        <ele>221</ele>
        <time>2018-07-06T09:50:40Z</time>
      </trkpt>
      <trkpt lat="45.87203" lon="4.65125">
        <ele>222</ele>
        <time>2018-07-06T09:50:41Z</time>
      </trkpt>
      <trkpt lat="45.87204" lon="4.6512">
        <ele>221</ele>
        <time>2018-07-06T09:50:42Z</time>
      </trkpt>
      <trkpt lat="45.87211" lon="4.65112">
        <ele>221</ele>
        <time>2018-07-06T09:50:43Z</time>
      </trkpt>
      <trkpt lat="45.87215" lon="4.65112">
        <ele>221</ele>
        <time>2018-07-06T09:50:44Z</time>
      </trkpt>
      <trkpt lat="45.87222" lon="4.65107">
        <ele>221</ele>
        <time>2018-07-06T09:50:45Z</time>
      </trkpt>
      <trkpt lat="45.87228" lon="4.65104">
        <ele>221</ele>
        <time>2018-07-06T09:50:46Z</time>
      </trkpt>
      <trkpt lat="45.87233" lon="4.65102">
        <ele>221</ele>
        <time>2018-07-06T09:50:47Z</time>
      </trkpt>
      <trkpt lat="45.87237" lon="4.65098">
        <ele>220</ele>
        <time>2018-07-06T09:50:48Z</time>
      </trkpt>
      <trkpt lat="45.87243" lon="4.65086">
        <ele>219</ele>
        <time>2018-07-06T09:50:49Z</time>
      </trkpt>
      <trkpt lat="45.87247" lon="4.65082">
        <ele>217</ele>
        <time>2018-07-06T09:50:50Z</time>
      </trkpt>
      <trkpt lat="45.87253" lon="4.65077">
        <ele>218</ele>
        <time>2018-07-06T09:50:51Z</time>
      </trkpt>
      <trkpt lat="45.87256" lon="4.65078">
        <ele>219</ele>
        <time>2018-07-06T09:50:52Z</time>
      </trkpt>
      <trkpt lat="45.87263" lon="4.65078">
        <ele>219</ele>
        <time>2018-07-06T09:50:53Z</time>
      </trkpt>
      <trkpt lat="45.87267" lon="4.6507">
        <ele>219</ele>
        <time>2018-07-06T09:50:54Z</time>
      </trkpt>
      <trkpt lat="45.87271" lon="4.65069">
        <ele>220</ele>
        <time>2018-07-06T09:50:55Z</time>
      </trkpt>
      <trkpt lat="45.87274" lon="4.65062">
        <ele>220</ele>
        <time>2018-07-06T09:50:56Z</time>
      </trkpt>
      <trkpt lat="45.87279" lon="4.65057">
        <ele>220</ele>
        <time>2018-07-06T09:50:57Z</time>
      </trkpt>
      <trkpt lat="45.87282" lon="4.65047">
        <ele>219</ele>
        <time>2018-07-06T09:50:58Z</time>
      </trkpt>
      <trkpt lat="45.87287" lon="4.65043">
        <ele>220</ele>
        <time>2018-07-06T09:50:59Z</time>
      </trkpt>
      <trkpt lat="45.87289" lon="4.65042">
        <ele>220</ele>
        <time>2018-07-06T09:51:00Z</time>
      </trkpt>
      <trkpt lat="45.87293" lon="4.65034">
        <ele>219</ele>
        <time>2018-07-06T09:51:01Z</time>
      </trkpt>
      <trkpt lat="45.87298" lon="4.65027">
        <ele>219</ele>
        <time>2018-07-06T09:51:03Z</time>
      </trkpt>
      <trkpt lat="45.87301" lon="4.65022">
        <ele>219</ele>
        <time>2018-07-06T09:51:04Z</time>
      </trkpt>
      <trkpt lat="45.87307" lon="4.65013">
        <ele>219</ele>
        <time>2018-07-06T09:51:05Z</time>
      </trkpt>
      <trkpt lat="45.87312" lon="4.65007">
        <ele>219</ele>
        <time>2018-07-06T09:51:06Z</time>
      </trkpt>
      <trkpt lat="45.87317" lon="4.64998">
        <ele>215</ele>
        <time>2018-07-06T09:51:07Z</time>
      </trkpt>
      <trkpt lat="45.87319" lon="4.64995">
        <ele>216</ele>
        <time>2018-07-06T09:51:08Z</time>
      </trkpt>
      <trkpt lat="45.87322" lon="4.64988">
        <ele>215</ele>
        <time>2018-07-06T09:51:09Z</time>
      </trkpt>
      <trkpt lat="45.87324" lon="4.64982">
        <ele>215</ele>
        <time>2018-07-06T09:51:10Z</time>
      </trkpt>
      <trkpt lat="45.87328" lon="4.64976">
        <ele>215</ele>
        <time>2018-07-06T09:51:11Z</time>
      </trkpt>
      <trkpt lat="45.87331" lon="4.6497">
        <ele>214</ele>
        <time>2018-07-06T09:51:12Z</time>
      </trkpt>
      <trkpt lat="45.87335" lon="4.64965">
        <ele>219</ele>
        <time>2018-07-06T09:51:13Z</time>
      </trkpt>
      <trkpt lat="45.87339" lon="4.64959">
        <ele>218</ele>
        <time>2018-07-06T09:51:14Z</time>
      </trkpt>
      <trkpt lat="45.87343" lon="4.64955">
        <ele>218</ele>
        <time>2018-07-06T09:51:15Z</time>
      </trkpt>
      <trkpt lat="45.87346" lon="4.64948">
        <ele>218</ele>
        <time>2018-07-06T09:51:16Z</time>
      </trkpt>
      <trkpt lat="45.87347" lon="4.64938">
        <ele>217</ele>
        <time>2018-07-06T09:51:17Z</time>
      </trkpt>
      <trkpt lat="45.87351" lon="4.64931">
        <ele>217</ele>
        <time>2018-07-06T09:51:18Z</time>
      </trkpt>
      <trkpt lat="45.87356" lon="4.64926">
        <ele>217</ele>
        <time>2018-07-06T09:51:19Z</time>
      </trkpt>
      <trkpt lat="45.8736" lon="4.64922">
        <ele>217</ele>
        <time>2018-07-06T09:51:20Z</time>
      </trkpt>
      <trkpt lat="45.87365" lon="4.64916">
        <ele>214</ele>
        <time>2018-07-06T09:51:21Z</time>
      </trkpt>
      <trkpt lat="45.87371" lon="4.64909">
        <ele>215</ele>
        <time>2018-07-06T09:51:22Z</time>
      </trkpt>
      <trkpt lat="45.87375" lon="4.649">
        <ele>215</ele>
        <time>2018-07-06T09:51:24Z</time>
      </trkpt>
      <trkpt lat="45.87378" lon="4.64895">
        <ele>215</ele>
        <time>2018-07-06T09:51:25Z</time>
      </trkpt>
      <trkpt lat="45.87383" lon="4.64892">
        <ele>215</ele>
        <time>2018-07-06T09:51:26Z</time>
      </trkpt>
      <trkpt lat="45.87386" lon="4.64887">
        <ele>215</ele>
        <time>2018-07-06T09:51:27Z</time>
      </trkpt>
      <trkpt lat="45.8739" lon="4.64881">
        <ele>215</ele>
        <time>2018-07-06T09:51:28Z</time>
      </trkpt>
      <trkpt lat="45.87395" lon="4.64876">
        <ele>215</ele>
        <time>2018-07-06T09:51:29Z</time>
      </trkpt>
      <trkpt lat="45.874" lon="4.64871">
        <ele>215</ele>
        <time>2018-07-06T09:51:30Z</time>
      </trkpt>
      <trkpt lat="45.87403" lon="4.64866">
        <ele>215</ele>
        <time>2018-07-06T09:51:31Z</time>
      </trkpt>
      <trkpt lat="45.87409" lon="4.64861">
        <ele>215</ele>
        <time>2018-07-06T09:51:32Z</time>
      </trkpt>
      <trkpt lat="45.87413" lon="4.64855">
        <ele>215</ele>
        <time>2018-07-06T09:51:33Z</time>
      </trkpt>
      <trkpt lat="45.87418" lon="4.64849">
        <ele>218</ele>
        <time>2018-07-06T09:51:34Z</time>
      </trkpt>
      <trkpt lat="45.87423" lon="4.64844">
        <ele>218</ele>
        <time>2018-07-06T09:51:35Z</time>
      </trkpt>
      <trkpt lat="45.8742" lon="4.64834">
        <ele>216</ele>
        <time>2018-07-06T09:51:36Z</time>
      </trkpt>
      <trkpt lat="45.87425" lon="4.6483">
        <ele>215</ele>
        <time>2018-07-06T09:51:37Z</time>
      </trkpt>
      <trkpt lat="45.87427" lon="4.64818">
        <ele>215</ele>
        <time>2018-07-06T09:51:39Z</time>
      </trkpt>
      <trkpt lat="45.87431" lon="4.64814">
        <ele>215</ele>
        <time>2018-07-06T09:51:40Z</time>
      </trkpt>
      <trkpt lat="45.87436" lon="4.64812">
        <ele>214</ele>
        <time>2018-07-06T09:51:41Z</time>
      </trkpt>
      <trkpt lat="45.87442" lon="4.64808">
        <ele>214</ele>
        <time>2018-07-06T09:51:42Z</time>
      </trkpt>
      <trkpt lat="45.87444" lon="4.64802">
        <ele>214</ele>
        <time>2018-07-06T09:51:43Z</time>
      </trkpt>
      <trkpt lat="45.8745" lon="4.64797">
        <ele>214</ele>
        <time>2018-07-06T09:51:44Z</time>
      </trkpt>
      <trkpt lat="45.87454" lon="4.64792">
        <ele>214</ele>
        <time>2018-07-06T09:51:45Z</time>
      </trkpt>
      <trkpt lat="45.87457" lon="4.64787">
        <ele>214</ele>
        <time>2018-07-06T09:51:46Z</time>
      </trkpt>
      <trkpt lat="45.87462" lon="4.64781">
        <ele>214</ele>
        <time>2018-07-06T09:51:47Z</time>
      </trkpt>
      <trkpt lat="45.87466" lon="4.64775">
        <ele>214</ele>
        <time>2018-07-06T09:51:48Z</time>
      </trkpt>
      <trkpt lat="45.8747" lon="4.64769">
        <ele>214</ele>
        <time>2018-07-06T09:51:49Z</time>
      </trkpt>
      <trkpt lat="45.87474" lon="4.64762">
        <ele>214</ele>
        <time>2018-07-06T09:51:50Z</time>
      </trkpt>
      <trkpt lat="45.87478" lon="4.64758">
        <ele>214</ele>
        <time>2018-07-06T09:51:51Z</time>
      </trkpt>
      <trkpt lat="45.87483" lon="4.6475">
        <ele>214</ele>
        <time>2018-07-06T09:51:52Z</time>
      </trkpt>
      <trkpt lat="45.87488" lon="4.64744">
        <ele>213</ele>
        <time>2018-07-06T09:51:53Z</time>
      </trkpt>
      <trkpt lat="45.87492" lon="4.6474">
        <ele>213</ele>
        <time>2018-07-06T09:51:54Z</time>
      </trkpt>
      <trkpt lat="45.87498" lon="4.64733">
        <ele>213</ele>
        <time>2018-07-06T09:51:55Z</time>
      </trkpt>
      <trkpt lat="45.87503" lon="4.64726">
        <ele>213</ele>
        <time>2018-07-06T09:51:56Z</time>
      </trkpt>
      <trkpt lat="45.87507" lon="4.6472">
        <ele>213</ele>
        <time>2018-07-06T09:51:57Z</time>
      </trkpt>
      <trkpt lat="45.87509" lon="4.64714">
        <ele>213</ele>
        <time>2018-07-06T09:51:58Z</time>
      </trkpt>
      <trkpt lat="45.87512" lon="4.6471">
        <ele>212</ele>
        <time>2018-07-06T09:51:59Z</time>
      </trkpt>
      <trkpt lat="45.87516" lon="4.64706">
        <ele>212</ele>
        <time>2018-07-06T09:52:00Z</time>
      </trkpt>
      <trkpt lat="45.8752" lon="4.64702">
        <ele>212</ele>
        <time>2018-07-06T09:52:01Z</time>
      </trkpt>
      <trkpt lat="45.87524" lon="4.64696">
        <ele>212</ele>
        <time>2018-07-06T09:52:02Z</time>
      </trkpt>
      <trkpt lat="45.87528" lon="4.64689">
        <ele>212</ele>
        <time>2018-07-06T09:52:03Z</time>
      </trkpt>
      <trkpt lat="45.87531" lon="4.64684">
        <ele>212</ele>
        <time>2018-07-06T09:52:04Z</time>
      </trkpt>
      <trkpt lat="45.87536" lon="4.64679">
        <ele>212</ele>
        <time>2018-07-06T09:52:05Z</time>
      </trkpt>
      <trkpt lat="45.8754" lon="4.64675">
        <ele>212</ele>
        <time>2018-07-06T09:52:06Z</time>
      </trkpt>
      <trkpt lat="45.87545" lon="4.6467">
        <ele>212</ele>
        <time>2018-07-06T09:52:07Z</time>
      </trkpt>
      <trkpt lat="45.87549" lon="4.64665">
        <ele>212</ele>
        <time>2018-07-06T09:52:08Z</time>
      </trkpt>
      <trkpt lat="45.87552" lon="4.64661">
        <ele>212</ele>
        <time>2018-07-06T09:52:09Z</time>
      </trkpt>
      <trkpt lat="45.87556" lon="4.64656">
        <ele>212</ele>
        <time>2018-07-06T09:52:10Z</time>
      </trkpt>
      <trkpt lat="45.87562" lon="4.64647">
        <ele>212</ele>
        <time>2018-07-06T09:52:12Z</time>
      </trkpt>
      <trkpt lat="45.87566" lon="4.64643">
        <ele>212</ele>
        <time>2018-07-06T09:52:13Z</time>
      </trkpt>
      <trkpt lat="45.8757" lon="4.64639">
        <ele>212</ele>
        <time>2018-07-06T09:52:14Z</time>
      </trkpt>
      <trkpt lat="45.87574" lon="4.64634">
        <ele>212</ele>
        <time>2018-07-06T09:52:15Z</time>
      </trkpt>
      <trkpt lat="45.87578" lon="4.64628">
        <ele>212</ele>
        <time>2018-07-06T09:52:16Z</time>
      </trkpt>
      <trkpt lat="45.87581" lon="4.64623">
        <ele>212</ele>
        <time>2018-07-06T09:52:17Z</time>
      </trkpt>
      <trkpt lat="45.87585" lon="4.64618">
        <ele>212</ele>
        <time>2018-07-06T09:52:18Z</time>
      </trkpt>
      <trkpt lat="45.87589" lon="4.64613">
        <ele>212</ele>
        <time>2018-07-06T09:52:19Z</time>
      </trkpt>
      <trkpt lat="45.87593" lon="4.64603">
        <ele>212</ele>
        <time>2018-07-06T09:52:20Z</time>
      </trkpt>
      <trkpt lat="45.87597" lon="4.64599">
        <ele>212</ele>
        <time>2018-07-06T09:52:21Z</time>
      </trkpt>
      <trkpt lat="45.87601" lon="4.64593">
        <ele>212</ele>
        <time>2018-07-06T09:52:22Z</time>
      </trkpt>
      <trkpt lat="45.87605" lon="4.6459">
        <ele>212</ele>
        <time>2018-07-06T09:52:23Z</time>
      </trkpt>
      <trkpt lat="45.87612" lon="4.64583">
        <ele>212</ele>
        <time>2018-07-06T09:52:25Z</time>
      </trkpt>
      <trkpt lat="45.87615" lon="4.64579">
        <ele>212</ele>
        <time>2018-07-06T09:52:26Z</time>
      </trkpt>
      <trkpt lat="45.87621" lon="4.6457">
        <ele>212</ele>
        <time>2018-07-06T09:52:28Z</time>
      </trkpt>
      <trkpt lat="45.87626" lon="4.64564">
        <ele>212</ele>
        <time>2018-07-06T09:52:29Z</time>
      </trkpt>
      <trkpt lat="45.87631" lon="4.64561">
        <ele>212</ele>
        <time>2018-07-06T09:52:30Z</time>
      </trkpt>
      <trkpt lat="45.87634" lon="4.64557">
        <ele>212</ele>
        <time>2018-07-06T09:52:31Z</time>
      </trkpt>
      <trkpt lat="45.87639" lon="4.64552">
        <ele>212</ele>
        <time>2018-07-06T09:52:32Z</time>
      </trkpt>
      <trkpt lat="45.87641" lon="4.64546">
        <ele>212</ele>
        <time>2018-07-06T09:52:33Z</time>
      </trkpt>
      <trkpt lat="45.87647" lon="4.64538">
        <ele>213</ele>
        <time>2018-07-06T09:52:35Z</time>
      </trkpt>
      <trkpt lat="45.87648" lon="4.64533">
        <ele>213</ele>
        <time>2018-07-06T09:52:36Z</time>
      </trkpt>
      <trkpt lat="45.87653" lon="4.64526">
        <ele>213</ele>
        <time>2018-07-06T09:52:38Z</time>
      </trkpt>
      <trkpt lat="45.87656" lon="4.64521">
        <ele>213</ele>
        <time>2018-07-06T09:52:39Z</time>
      </trkpt>
      <trkpt lat="45.87661" lon="4.64517">
        <ele>213</ele>
        <time>2018-07-06T09:52:40Z</time>
      </trkpt>
      <trkpt lat="45.87664" lon="4.64513">
        <ele>213</ele>
        <time>2018-07-06T09:52:41Z</time>
      </trkpt>
      <trkpt lat="45.8767" lon="4.64505">
        <ele>214</ele>
        <time>2018-07-06T09:52:44Z</time>
      </trkpt>
      <trkpt lat="45.87675" lon="4.64501">
        <ele>214</ele>
        <time>2018-07-06T09:52:45Z</time>
      </trkpt>
      <trkpt lat="45.87684" lon="4.645">
        <ele>215</ele>
        <time>2018-07-06T09:52:47Z</time>
      </trkpt>
      <trkpt lat="45.87687" lon="4.64502">
        <ele>215</ele>
        <time>2018-07-06T09:52:48Z</time>
      </trkpt>
      <trkpt lat="45.8769" lon="4.64511">
        <ele>215</ele>
        <time>2018-07-06T09:52:49Z</time>
      </trkpt>
      <trkpt lat="45.87693" lon="4.64517">
        <ele>215</ele>
        <time>2018-07-06T09:52:50Z</time>
      </trkpt>
      <trkpt lat="45.87695" lon="4.64524">
        <ele>215</ele>
        <time>2018-07-06T09:52:52Z</time>
      </trkpt>
      <trkpt lat="45.87702" lon="4.6453">
        <ele>215</ele>
        <time>2018-07-06T09:52:53Z</time>
      </trkpt>
      <trkpt lat="45.87702" lon="4.64529">
        <ele>215</ele>
        <time>2018-07-06T09:53:05Z</time>
      </trkpt>
      <trkpt lat="45.87702" lon="4.6453">
        <ele>216</ele>
        <time>2018-07-06T09:53:06Z</time>
      </trkpt>
      <trkpt lat="45.87704" lon="4.64527">
        <ele>216</ele>
        <time>2018-07-06T09:53:52Z</time>
      </trkpt>
      <trkpt lat="45.87705" lon="4.64528">
        <ele>216</ele>
        <time>2018-07-06T09:53:53Z</time>
      </trkpt>
      <trkpt lat="45.87711" lon="4.64535">
        <ele>216</ele>
        <time>2018-07-06T09:53:59Z</time>
      </trkpt>
      <trkpt lat="45.87713" lon="4.64538">
        <ele>216</ele>
        <time>2018-07-06T09:54:00Z</time>
      </trkpt>
      <trkpt lat="45.87714" lon="4.64541">
        <ele>216</ele>
        <time>2018-07-06T09:54:01Z</time>
      </trkpt>
      <trkpt lat="45.87716" lon="4.64554">
        <ele>216</ele>
        <time>2018-07-06T09:54:02Z</time>
      </trkpt>
      <trkpt lat="45.87718" lon="4.64566">
        <ele>216</ele>
        <time>2018-07-06T09:54:04Z</time>
      </trkpt>
      <trkpt lat="45.87719" lon="4.64572">
        <ele>217</ele>
        <time>2018-07-06T09:54:05Z</time>
      </trkpt>
      <trkpt lat="45.8772" lon="4.64579">
        <ele>217</ele>
        <time>2018-07-06T09:54:06Z</time>
      </trkpt>
      <trkpt lat="45.87723" lon="4.6459">
        <ele>217</ele>
        <time>2018-07-06T09:54:07Z</time>
      </trkpt>
      <trkpt lat="45.87722" lon="4.646">
        <ele>217</ele>
        <time>2018-07-06T09:54:09Z</time>
      </trkpt>
      <trkpt lat="45.87719" lon="4.64608">
        <ele>217</ele>
        <time>2018-07-06T09:54:10Z</time>
      </trkpt>
      <trkpt lat="45.87719" lon="4.64616">
        <ele>217</ele>
        <time>2018-07-06T09:54:12Z</time>
      </trkpt>
      <trkpt lat="45.87717" lon="4.64624">
        <ele>217</ele>
        <time>2018-07-06T09:54:13Z</time>
      </trkpt>
      <trkpt lat="45.87717" lon="4.64627">
        <ele>217</ele>
        <time>2018-07-06T09:54:14Z</time>
      </trkpt>
      <trkpt lat="45.87725" lon="4.64635">
        <ele>217</ele>
        <time>2018-07-06T09:54:15Z</time>
      </trkpt>
      <trkpt lat="45.87725" lon="4.64647">
        <ele>217</ele>
        <time>2018-07-06T09:54:19Z</time>
      </trkpt>
      <trkpt lat="45.87725" lon="4.64651">
        <ele>217</ele>
        <time>2018-07-06T09:54:20Z</time>
      </trkpt>
      <trkpt lat="45.87723" lon="4.64662">
        <ele>217</ele>
        <time>2018-07-06T09:54:21Z</time>
      </trkpt>
      <trkpt lat="45.87722" lon="4.64668">
        <ele>216</ele>
        <time>2018-07-06T09:54:22Z</time>
      </trkpt>
      <trkpt lat="45.87721" lon="4.64679">
        <ele>216</ele>
        <time>2018-07-06T09:54:24Z</time>
      </trkpt>
      <trkpt lat="45.87721" lon="4.64685">
        <ele>216</ele>
        <time>2018-07-06T09:54:25Z</time>
      </trkpt>
      <trkpt lat="45.87721" lon="4.64696">
        <ele>215</ele>
        <time>2018-07-06T09:54:27Z</time>
      </trkpt>
      <trkpt lat="45.87721" lon="4.64702">
        <ele>215</ele>
        <time>2018-07-06T09:54:28Z</time>
      </trkpt>
      <trkpt lat="45.87721" lon="4.64709">
        <ele>215</ele>
        <time>2018-07-06T09:54:29Z</time>
      </trkpt>
      <trkpt lat="45.87721" lon="4.64715">
        <ele>215</ele>
        <time>2018-07-06T09:54:30Z</time>
      </trkpt>
      <trkpt lat="45.87723" lon="4.64723">
        <ele>215</ele>
        <time>2018-07-06T09:54:31Z</time>
      </trkpt>
      <trkpt lat="45.87724" lon="4.6473">
        <ele>215</ele>
        <time>2018-07-06T09:54:32Z</time>
      </trkpt>
      <trkpt lat="45.87726" lon="4.64741">
        <ele>214</ele>
        <time>2018-07-06T09:54:34Z</time>
      </trkpt>
      <trkpt lat="45.87727" lon="4.64747">
        <ele>214</ele>
        <time>2018-07-06T09:54:35Z</time>
      </trkpt>
      <trkpt lat="45.87728" lon="4.64753">
        <ele>213</ele>
        <time>2018-07-06T09:54:36Z</time>
      </trkpt>
      <trkpt lat="45.87732" lon="4.64758">
        <ele>213</ele>
        <time>2018-07-06T09:54:37Z</time>
      </trkpt>
      <trkpt lat="45.87734" lon="4.64764">
        <ele>213</ele>
        <time>2018-07-06T09:54:38Z</time>
      </trkpt>
      <trkpt lat="45.87735" lon="4.6477">
        <ele>213</ele>
        <time>2018-07-06T09:54:39Z</time>
      </trkpt>
      <trkpt lat="45.87735" lon="4.64783">
        <ele>213</ele>
        <time>2018-07-06T09:54:41Z</time>
      </trkpt>
      <trkpt lat="45.87735" lon="4.64789">
        <ele>213</ele>
        <time>2018-07-06T09:54:42Z</time>
      </trkpt>
      <trkpt lat="45.8774" lon="4.64793">
        <ele>214</ele>
        <time>2018-07-06T09:54:43Z</time>
      </trkpt>
      <trkpt lat="45.87744" lon="4.64799">
        <ele>214</ele>
        <time>2018-07-06T09:54:44Z</time>
      </trkpt>
      <trkpt lat="45.87749" lon="4.64805">
        <ele>214</ele>
        <time>2018-07-06T09:54:46Z</time>
      </trkpt>
      <trkpt lat="45.87752" lon="4.6481">
        <ele>214</ele>
        <time>2018-07-06T09:54:47Z</time>
      </trkpt>
      <trkpt lat="45.87755" lon="4.64816">
        <ele>214</ele>
        <time>2018-07-06T09:54:49Z</time>
      </trkpt>
      <trkpt lat="45.87758" lon="4.64822">
        <ele>214</ele>
        <time>2018-07-06T09:54:50Z</time>
      </trkpt>
      <trkpt lat="45.87763" lon="4.64833">
        <ele>214</ele>
        <time>2018-07-06T09:54:54Z</time>
      </trkpt>
      <trkpt lat="45.87764" lon="4.64836">
        <ele>216</ele>
        <time>2018-07-06T09:54:55Z</time>
      </trkpt>
      <trkpt lat="45.87768" lon="4.64846">
        <ele>217</ele>
        <time>2018-07-06T09:54:58Z</time>
      </trkpt>
      <trkpt lat="45.8777" lon="4.64849">
        <ele>217</ele>
        <time>2018-07-06T09:54:59Z</time>
      </trkpt>
      <trkpt lat="45.87774" lon="4.64858">
        <ele>217</ele>
        <time>2018-07-06T09:55:02Z</time>
      </trkpt>
      <trkpt lat="45.87776" lon="4.64861">
        <ele>218</ele>
        <time>2018-07-06T09:55:03Z</time>
      </trkpt>
      <trkpt lat="45.87781" lon="4.64869">
        <ele>218</ele>
        <time>2018-07-06T09:55:06Z</time>
      </trkpt>
      <trkpt lat="45.87783" lon="4.64872">
        <ele>218</ele>
        <time>2018-07-06T09:55:07Z</time>
      </trkpt>
      <trkpt lat="45.87789" lon="4.64881">
        <ele>219</ele>
        <time>2018-07-06T09:55:10Z</time>
      </trkpt>
      <trkpt lat="45.87791" lon="4.64885">
        <ele>219</ele>
        <time>2018-07-06T09:55:11Z</time>
      </trkpt>
      <trkpt lat="45.87796" lon="4.64895">
        <ele>219</ele>
        <time>2018-07-06T09:55:14Z</time>
      </trkpt>
      <trkpt lat="45.87798" lon="4.64898">
        <ele>219</ele>
        <time>2018-07-06T09:55:15Z</time>
      </trkpt>
      <trkpt lat="45.87803" lon="4.64907">
        <ele>220</ele>
        <time>2018-07-06T09:55:18Z</time>
      </trkpt>
      <trkpt lat="45.87804" lon="4.6491">
        <ele>220</ele>
        <time>2018-07-06T09:55:19Z</time>
      </trkpt>
      <trkpt lat="45.87809" lon="4.6492">
        <ele>224</ele>
        <time>2018-07-06T09:55:22Z</time>
      </trkpt>
      <trkpt lat="45.8781" lon="4.64922">
        <ele>224</ele>
        <time>2018-07-06T09:55:23Z</time>
      </trkpt>
      <trkpt lat="45.87814" lon="4.64931">
        <ele>224</ele>
        <time>2018-07-06T09:55:26Z</time>
      </trkpt>
      <trkpt lat="45.87815" lon="4.64934">
        <ele>225</ele>
        <time>2018-07-06T09:55:27Z</time>
      </trkpt>
      <trkpt lat="45.87821" lon="4.64942">
        <ele>225</ele>
        <time>2018-07-06T09:55:31Z</time>
      </trkpt>
      <trkpt lat="45.87823" lon="4.64944">
        <ele>225</ele>
        <time>2018-07-06T09:55:32Z</time>
      </trkpt>
      <trkpt lat="45.87829" lon="4.6495">
        <ele>225</ele>
        <time>2018-07-06T09:55:36Z</time>
      </trkpt>
      <trkpt lat="45.8783" lon="4.64951">
        <ele>225</ele>
        <time>2018-07-06T09:55:37Z</time>
      </trkpt>
      <trkpt lat="45.87836" lon="4.64958">
        <ele>228</ele>
        <time>2018-07-06T09:55:41Z</time>
      </trkpt>
      <trkpt lat="45.87837" lon="4.6496">
        <ele>228</ele>
        <time>2018-07-06T09:55:42Z</time>
      </trkpt>
      <trkpt lat="45.87845" lon="4.64966">
        <ele>229</ele>
        <time>2018-07-06T09:55:47Z</time>
      </trkpt>
      <trkpt lat="45.87847" lon="4.64968">
        <ele>229</ele>
        <time>2018-07-06T09:55:48Z</time>
      </trkpt>
      <trkpt lat="45.87853" lon="4.64972">
        <ele>229</ele>
        <time>2018-07-06T09:55:51Z</time>
      </trkpt>
      <trkpt lat="45.87856" lon="4.64974">
        <ele>229</ele>
        <time>2018-07-06T09:55:52Z</time>
      </trkpt>
      <trkpt lat="45.87863" lon="4.64978">
        <ele>230</ele>
        <time>2018-07-06T09:55:55Z</time>
      </trkpt>
      <trkpt lat="45.87865" lon="4.64979">
        <ele>230</ele>
        <time>2018-07-06T09:55:56Z</time>
      </trkpt>
      <trkpt lat="45.87872" lon="4.64983">
        <ele>230</ele>
        <time>2018-07-06T09:55:59Z</time>
      </trkpt>
      <trkpt lat="45.87874" lon="4.64984">
        <ele>230</ele>
        <time>2018-07-06T09:56:00Z</time>
      </trkpt>
      <trkpt lat="45.87882" lon="4.64986">
        <ele>231</ele>
        <time>2018-07-06T09:56:03Z</time>
      </trkpt>
      <trkpt lat="45.87884" lon="4.64987">
        <ele>231</ele>
        <time>2018-07-06T09:56:04Z</time>
      </trkpt>
      <trkpt lat="45.87892" lon="4.64988">
        <ele>232</ele>
        <time>2018-07-06T09:56:07Z</time>
      </trkpt>
      <trkpt lat="45.87894" lon="4.64988">
        <ele>232</ele>
        <time>2018-07-06T09:56:08Z</time>
      </trkpt>
      <trkpt lat="45.87902" lon="4.64989">
        <ele>233</ele>
        <time>2018-07-06T09:56:13Z</time>
      </trkpt>
      <trkpt lat="45.87904" lon="4.64989">
        <ele>233</ele>
        <time>2018-07-06T09:56:14Z</time>
      </trkpt>
      <trkpt lat="45.87913" lon="4.64988">
        <ele>234</ele>
        <time>2018-07-06T09:56:18Z</time>
      </trkpt>
      <trkpt lat="45.87915" lon="4.64988">
        <ele>234</ele>
        <time>2018-07-06T09:56:19Z</time>
      </trkpt>
      <trkpt lat="45.87921" lon="4.64987">
        <ele>237</ele>
        <time>2018-07-06T09:56:22Z</time>
      </trkpt>
      <trkpt lat="45.87924" lon="4.64986">
        <ele>237</ele>
        <time>2018-07-06T09:56:23Z</time>
      </trkpt>
      <trkpt lat="45.87932" lon="4.64983">
        <ele>237</ele>
        <time>2018-07-06T09:56:27Z</time>
      </trkpt>
      <trkpt lat="45.87934" lon="4.64982">
        <ele>237</ele>
        <time>2018-07-06T09:56:28Z</time>
      </trkpt>
      <trkpt lat="45.87941" lon="4.64976">
        <ele>237</ele>
        <time>2018-07-06T09:56:32Z</time>
      </trkpt>
      <trkpt lat="45.87942" lon="4.64975">
        <ele>237</ele>
        <time>2018-07-06T09:56:33Z</time>
      </trkpt>
      <trkpt lat="45.87948" lon="4.64969">
        <ele>237</ele>
        <time>2018-07-06T09:56:36Z</time>
      </trkpt>
      <trkpt lat="45.8795" lon="4.64967">
        <ele>237</ele>
        <time>2018-07-06T09:56:37Z</time>
      </trkpt>
      <trkpt lat="45.87957" lon="4.64962">
        <ele>237</ele>
        <time>2018-07-06T09:56:40Z</time>
      </trkpt>
      <trkpt lat="45.87959" lon="4.64961">
        <ele>237</ele>
        <time>2018-07-06T09:56:41Z</time>
      </trkpt>
      <trkpt lat="45.87967" lon="4.64956">
        <ele>237</ele>
        <time>2018-07-06T09:56:44Z</time>
      </trkpt>
      <trkpt lat="45.87969" lon="4.64955">
        <ele>237</ele>
        <time>2018-07-06T09:56:45Z</time>
      </trkpt>
      <trkpt lat="45.87977" lon="4.64951">
        <ele>237</ele>
        <time>2018-07-06T09:56:48Z</time>
      </trkpt>
      <trkpt lat="45.87979" lon="4.64949">
        <ele>237</ele>
        <time>2018-07-06T09:56:49Z</time>
      </trkpt>
      <trkpt lat="45.87986" lon="4.64945">
        <ele>237</ele>
        <time>2018-07-06T09:56:52Z</time>
      </trkpt>
      <trkpt lat="45.87987" lon="4.64944">
        <ele>237</ele>
        <time>2018-07-06T09:56:53Z</time>
      </trkpt>
      <trkpt lat="45.87993" lon="4.64938">
        <ele>237</ele>
        <time>2018-07-06T09:56:56Z</time>
      </trkpt>
      <trkpt lat="45.87996" lon="4.64937">
        <ele>237</ele>
        <time>2018-07-06T09:56:57Z</time>
      </trkpt>
      <trkpt lat="45.88002" lon="4.64932">
        <ele>243</ele>
        <time>2018-07-06T09:57:00Z</time>
      </trkpt>
      <trkpt lat="45.88004" lon="4.64931">
        <ele>242</ele>
        <time>2018-07-06T09:57:01Z</time>
      </trkpt>
      <trkpt lat="45.88006" lon="4.64926">
        <ele>241</ele>
        <time>2018-07-06T09:57:20Z</time>
      </trkpt>
      <trkpt lat="45.88007" lon="4.64925">
        <ele>241</ele>
        <time>2018-07-06T09:57:21Z</time>
      </trkpt>
      <trkpt lat="45.88007" lon="4.64922">
        <ele>240</ele>
        <time>2018-07-06T09:58:05Z</time>
      </trkpt>
      <trkpt lat="45.88007" lon="4.64922">
        <ele>240</ele>
        <time>2018-07-06T09:58:06Z</time>
      </trkpt>
      <trkpt lat="45.88007" lon="4.64921">
        <ele>240</ele>
        <time>2018-07-06T09:58:23Z</time>
      </trkpt>
      <trkpt lat="45.88007" lon="4.64921">
        <ele>240</ele>
        <time>2018-07-06T09:58:24Z</time>
      </trkpt>
      <trkpt lat="45.88007" lon="4.64921">
        <ele>240</ele>
        <time>2018-07-06T09:58:25Z</time>
      </trkpt>
      <trkpt lat="45.88008" lon="4.6492">
        <ele>240</ele>
        <time>2018-07-06T09:58:26Z</time>
      </trkpt>
      <trkpt lat="45.88015" lon="4.64914">
        <ele>237</ele>
        <time>2018-07-06T09:58:34Z</time>
      </trkpt>
      <trkpt lat="45.88017" lon="4.64913">
        <ele>237</ele>
        <time>2018-07-06T09:58:35Z</time>
      </trkpt>
      <trkpt lat="45.88024" lon="4.64907">
        <ele>238</ele>
        <time>2018-07-06T09:58:39Z</time>
      </trkpt>
      <trkpt lat="45.88027" lon="4.64905">
        <ele>238</ele>
        <time>2018-07-06T09:58:40Z</time>
      </trkpt>
      <trkpt lat="45.88034" lon="4.64899">
        <ele>238</ele>
        <time>2018-07-06T09:58:43Z</time>
      </trkpt>
      <trkpt lat="45.88035" lon="4.64897">
        <ele>239</ele>
        <time>2018-07-06T09:58:44Z</time>
      </trkpt>
      <trkpt lat="45.88042" lon="4.64893">
        <ele>239</ele>
        <time>2018-07-06T09:58:47Z</time>
      </trkpt>
      <trkpt lat="45.88044" lon="4.64891">
        <ele>239</ele>
        <time>2018-07-06T09:58:48Z</time>
      </trkpt>
      <trkpt lat="45.88051" lon="4.64885">
        <ele>239</ele>
        <time>2018-07-06T09:58:52Z</time>
      </trkpt>
      <trkpt lat="45.88052" lon="4.64884">
        <ele>239</ele>
        <time>2018-07-06T09:58:53Z</time>
      </trkpt>
      <trkpt lat="45.8806" lon="4.64876">
        <ele>239</ele>
        <time>2018-07-06T09:58:57Z</time>
      </trkpt>
      <trkpt lat="45.88062" lon="4.64875">
        <ele>239</ele>
        <time>2018-07-06T09:58:58Z</time>
      </trkpt>
      <trkpt lat="45.88068" lon="4.64871">
        <ele>239</ele>
        <time>2018-07-06T09:59:01Z</time>
      </trkpt>
      <trkpt lat="45.88071" lon="4.6487">
        <ele>239</ele>
        <time>2018-07-06T09:59:02Z</time>
      </trkpt>
      <trkpt lat="45.88078" lon="4.64868">
        <ele>239</ele>
        <time>2018-07-06T09:59:05Z</time>
      </trkpt>
      <trkpt lat="45.88081" lon="4.64867">
        <ele>239</ele>
        <time>2018-07-06T09:59:06Z</time>
      </trkpt>
      <trkpt lat="45.88089" lon="4.64864">
        <ele>246</ele>
        <time>2018-07-06T09:59:10Z</time>
      </trkpt>
      <trkpt lat="45.88091" lon="4.64863">
        <ele>246</ele>
        <time>2018-07-06T09:59:11Z</time>
      </trkpt>
      <trkpt lat="45.88098" lon="4.64861">
        <ele>246</ele>
        <time>2018-07-06T09:59:14Z</time>
      </trkpt>
      <trkpt lat="45.88101" lon="4.6486">
        <ele>246</ele>
        <time>2018-07-06T09:59:15Z</time>
      </trkpt>
      <trkpt lat="45.88108" lon="4.64857">
        <ele>246</ele>
        <time>2018-07-06T09:59:18Z</time>
      </trkpt>
      <trkpt lat="45.8811" lon="4.64857">
        <ele>246</ele>
        <time>2018-07-06T09:59:19Z</time>
      </trkpt>
      <trkpt lat="45.88116" lon="4.64854">
        <ele>247</ele>
        <time>2018-07-06T09:59:22Z</time>
      </trkpt>
      <trkpt lat="45.88119" lon="4.64853">
        <ele>247</ele>
        <time>2018-07-06T09:59:23Z</time>
      </trkpt>
      <trkpt lat="45.88126" lon="4.64849">
        <ele>247</ele>
        <time>2018-07-06T09:59:26Z</time>
      </trkpt>
      <trkpt lat="45.88128" lon="4.64849">
        <ele>247</ele>
        <time>2018-07-06T09:59:27Z</time>
      </trkpt>
      <trkpt lat="45.88135" lon="4.64846">
        <ele>247</ele>
        <time>2018-07-06T09:59:31Z</time>
      </trkpt>
      <trkpt lat="45.88137" lon="4.64845">
        <ele>247</ele>
        <time>2018-07-06T09:59:32Z</time>
      </trkpt>
      <trkpt lat="45.88144" lon="4.64841">
        <ele>247</ele>
        <time>2018-07-06T09:59:36Z</time>
      </trkpt>
      <trkpt lat="45.88146" lon="4.6484">
        <ele>247</ele>
        <time>2018-07-06T09:59:37Z</time>
      </trkpt>
      <trkpt lat="45.88155" lon="4.64839">
        <ele>247</ele>
        <time>2018-07-06T09:59:40Z</time>
      </trkpt>
      <trkpt lat="45.88158" lon="4.64839">
        <ele>246</ele>
        <time>2018-07-06T09:59:41Z</time>
      </trkpt>
      <trkpt lat="45.88165" lon="4.64839">
        <ele>246</ele>
        <time>2018-07-06T09:59:44Z</time>
      </trkpt>
      <trkpt lat="45.88168" lon="4.64839">
        <ele>248</ele>
        <time>2018-07-06T09:59:45Z</time>
      </trkpt>
      <trkpt lat="45.88176" lon="4.64839">
        <ele>250</ele>
        <time>2018-07-06T09:59:49Z</time>
      </trkpt>
      <trkpt lat="45.88179" lon="4.64838">
        <ele>250</ele>
        <time>2018-07-06T09:59:50Z</time>
      </trkpt>
      <trkpt lat="45.88187" lon="4.64836">
        <ele>252</ele>
        <time>2018-07-06T09:59:54Z</time>
      </trkpt>
      <trkpt lat="45.88189" lon="4.64835">
        <ele>253</ele>
        <time>2018-07-06T09:59:55Z</time>
      </trkpt>
      <trkpt lat="45.88196" lon="4.64832">
        <ele>245</ele>
        <time>2018-07-06T09:59:58Z</time>
      </trkpt>
      <trkpt lat="45.88198" lon="4.64832">
        <ele>245</ele>
        <time>2018-07-06T09:59:59Z</time>
      </trkpt>
      <trkpt lat="45.88207" lon="4.64832">
        <ele>246</ele>
        <time>2018-07-06T10:00:02Z</time>
      </trkpt>
      <trkpt lat="45.8821" lon="4.64832">
        <ele>246</ele>
        <time>2018-07-06T10:00:03Z</time>
      </trkpt>
      <trkpt lat="45.88217" lon="4.64832">
        <ele>247</ele>
        <time>2018-07-06T10:00:05Z</time>
      </trkpt>
      <trkpt lat="45.8822" lon="4.64831">
        <ele>248</ele>
        <time>2018-07-06T10:00:06Z</time>
      </trkpt>
      <trkpt lat="45.88227" lon="4.6483">
        <ele>249</ele>
        <time>2018-07-06T10:00:09Z</time>
      </trkpt>
      <trkpt lat="45.88229" lon="4.6483">
        <ele>249</ele>
        <time>2018-07-06T10:00:10Z</time>
      </trkpt>
      <trkpt lat="45.88238" lon="4.64828">
        <ele>251</ele>
        <time>2018-07-06T10:00:14Z</time>
      </trkpt>
      <trkpt lat="45.8824" lon="4.64827">
        <ele>252</ele>
        <time>2018-07-06T10:00:15Z</time>
      </trkpt>
      <trkpt lat="45.88248" lon="4.64825">
        <ele>253</ele>
        <time>2018-07-06T10:00:20Z</time>
      </trkpt>
      <trkpt lat="45.88249" lon="4.64825">
        <ele>253</ele>
        <time>2018-07-06T10:00:21Z</time>
      </trkpt>
      <trkpt lat="45.88257" lon="4.64822">
        <ele>257</ele>
        <time>2018-07-06T10:00:26Z</time>
      </trkpt>
      <trkpt lat="45.88259" lon="4.64821">
        <ele>257</ele>
        <time>2018-07-06T10:00:27Z</time>
      </trkpt>
      <trkpt lat="45.88265" lon="4.64815">
        <ele>257</ele>
        <time>2018-07-06T10:00:31Z</time>
      </trkpt>
      <trkpt lat="45.88266" lon="4.64814">
        <ele>257</ele>
        <time>2018-07-06T10:00:32Z</time>
      </trkpt>
      <trkpt lat="45.88274" lon="4.64809">
        <ele>257</ele>
        <time>2018-07-06T10:00:37Z</time>
      </trkpt>
      <trkpt lat="45.88276" lon="4.64809">
        <ele>257</ele>
        <time>2018-07-06T10:00:38Z</time>
      </trkpt>
      <trkpt lat="45.88283" lon="4.64806">
        <ele>258</ele>
        <time>2018-07-06T10:00:42Z</time>
      </trkpt>
      <trkpt lat="45.88285" lon="4.64806">
        <ele>258</ele>
        <time>2018-07-06T10:00:43Z</time>
      </trkpt>
      <trkpt lat="45.88293" lon="4.64806">
        <ele>259</ele>
        <time>2018-07-06T10:00:47Z</time>
      </trkpt>
      <trkpt lat="45.88295" lon="4.64806">
        <ele>259</ele>
        <time>2018-07-06T10:00:48Z</time>
      </trkpt>
      <trkpt lat="45.88304" lon="4.64804">
        <ele>260</ele>
        <time>2018-07-06T10:00:52Z</time>
      </trkpt>
      <trkpt lat="45.88305" lon="4.64803">
        <ele>260</ele>
        <time>2018-07-06T10:00:53Z</time>
      </trkpt>
      <trkpt lat="45.88313" lon="4.64799">
        <ele>260</ele>
        <time>2018-07-06T10:00:58Z</time>
      </trkpt>
      <trkpt lat="45.88315" lon="4.64799">
        <ele>260</ele>
        <time>2018-07-06T10:00:59Z</time>
      </trkpt>
      <trkpt lat="45.88322" lon="4.64799">
        <ele>261</ele>
        <time>2018-07-06T10:01:03Z</time>
      </trkpt>
      <trkpt lat="45.88324" lon="4.64799">
        <ele>261</ele>
        <time>2018-07-06T10:01:04Z</time>
      </trkpt>
      <trkpt lat="45.88332" lon="4.64798">
        <ele>261</ele>
        <time>2018-07-06T10:01:09Z</time>
      </trkpt>
      <trkpt lat="45.88334" lon="4.64797">
        <ele>267</ele>
        <time>2018-07-06T10:01:10Z</time>
      </trkpt>
      <trkpt lat="45.88342" lon="4.64793">
        <ele>267</ele>
        <time>2018-07-06T10:01:15Z</time>
      </trkpt>
      <trkpt lat="45.88344" lon="4.64792">
        <ele>267</ele>
        <time>2018-07-06T10:01:16Z</time>
      </trkpt>
      <trkpt lat="45.88351" lon="4.6479">
        <ele>267</ele>
        <time>2018-07-06T10:01:20Z</time>
      </trkpt>
      <trkpt lat="45.88353" lon="4.6479">
        <ele>267</ele>
        <time>2018-07-06T10:01:21Z</time>
      </trkpt>
      <trkpt lat="45.88361" lon="4.64788">
        <ele>267</ele>
        <time>2018-07-06T10:01:26Z</time>
      </trkpt>
      <trkpt lat="45.88363" lon="4.64788">
        <ele>267</ele>
        <time>2018-07-06T10:01:27Z</time>
      </trkpt>
      <trkpt lat="45.8837" lon="4.64787">
        <ele>267</ele>
        <time>2018-07-06T10:01:31Z</time>
      </trkpt>
      <trkpt lat="45.88372" lon="4.64787">
        <ele>267</ele>
        <time>2018-07-06T10:01:32Z</time>
      </trkpt>
      <trkpt lat="45.88381" lon="4.64787">
        <ele>267</ele>
        <time>2018-07-06T10:01:36Z</time>
      </trkpt>
      <trkpt lat="45.88383" lon="4.64786">
        <ele>267</ele>
        <time>2018-07-06T10:01:37Z</time>
      </trkpt>
      <trkpt lat="45.88391" lon="4.64785">
        <ele>267</ele>
        <time>2018-07-06T10:01:42Z</time>
      </trkpt>
      <trkpt lat="45.88393" lon="4.64785">
        <ele>267</ele>
        <time>2018-07-06T10:01:43Z</time>
      </trkpt>
      <trkpt lat="45.88401" lon="4.64784">
        <ele>267</ele>
        <time>2018-07-06T10:01:47Z</time>
      </trkpt>
      <trkpt lat="45.88403" lon="4.64784">
        <ele>267</ele>
        <time>2018-07-06T10:01:48Z</time>
      </trkpt>
      <trkpt lat="45.88411" lon="4.64783">
        <ele>267</ele>
        <time>2018-07-06T10:01:52Z</time>
      </trkpt>
      <trkpt lat="45.88413" lon="4.64783">
        <ele>267</ele>
        <time>2018-07-06T10:01:53Z</time>
      </trkpt>
      <trkpt lat="45.88421" lon="4.64782">
        <ele>270</ele>
        <time>2018-07-06T10:01:57Z</time>
      </trkpt>
      <trkpt lat="45.88423" lon="4.64781">
        <ele>270</ele>
        <time>2018-07-06T10:01:58Z</time>
      </trkpt>
      <trkpt lat="45.88431" lon="4.64778">
        <ele>270</ele>
        <time>2018-07-06T10:02:02Z</time>
      </trkpt>
      <trkpt lat="45.88433" lon="4.64778">
        <ele>270</ele>
        <time>2018-07-06T10:02:03Z</time>
      </trkpt>
      <trkpt lat="45.88439" lon="4.64776">
        <ele>270</ele>
        <time>2018-07-06T10:02:06Z</time>
      </trkpt>
      <trkpt lat="45.88442" lon="4.64776">
        <ele>270</ele>
        <time>2018-07-06T10:02:07Z</time>
      </trkpt>
      <trkpt lat="45.88449" lon="4.64775">
        <ele>271</ele>
        <time>2018-07-06T10:02:11Z</time>
      </trkpt>
      <trkpt lat="45.88451" lon="4.64774">
        <ele>271</ele>
        <time>2018-07-06T10:02:12Z</time>
      </trkpt>
      <trkpt lat="45.88459" lon="4.64772">
        <ele>271</ele>
        <time>2018-07-06T10:02:16Z</time>
      </trkpt>
      <trkpt lat="45.88461" lon="4.64772">
        <ele>271</ele>
        <time>2018-07-06T10:02:17Z</time>
      </trkpt>
      <trkpt lat="45.8847" lon="4.64771">
        <ele>271</ele>
        <time>2018-07-06T10:02:21Z</time>
      </trkpt>
      <trkpt lat="45.88472" lon="4.64771">
        <ele>271</ele>
        <time>2018-07-06T10:02:22Z</time>
      </trkpt>
      <trkpt lat="45.88479" lon="4.6477">
        <ele>271</ele>
        <time>2018-07-06T10:02:25Z</time>
      </trkpt>
      <trkpt lat="45.88482" lon="4.6477">
        <ele>271</ele>
        <time>2018-07-06T10:02:26Z</time>
      </trkpt>
      <trkpt lat="45.8849" lon="4.6477">
        <ele>270</ele>
        <time>2018-07-06T10:02:29Z</time>
      </trkpt>
      <trkpt lat="45.88492" lon="4.6477">
        <ele>270</ele>
        <time>2018-07-06T10:02:30Z</time>
      </trkpt>
      <trkpt lat="45.88499" lon="4.6477">
        <ele>270</ele>
        <time>2018-07-06T10:02:33Z</time>
      </trkpt>
      <trkpt lat="45.88501" lon="4.64771">
        <ele>270</ele>
        <time>2018-07-06T10:02:34Z</time>
      </trkpt>
      <trkpt lat="45.88509" lon="4.64771">
        <ele>270</ele>
        <time>2018-07-06T10:02:37Z</time>
      </trkpt>
      <trkpt lat="45.88512" lon="4.64771">
        <ele>270</ele>
        <time>2018-07-06T10:02:38Z</time>
      </trkpt>
      <trkpt lat="45.88519" lon="4.64773">
        <ele>271</ele>
        <time>2018-07-06T10:02:41Z</time>
      </trkpt>
      <trkpt lat="45.88521" lon="4.64774">
        <ele>271</ele>
        <time>2018-07-06T10:02:42Z</time>
      </trkpt>
      <trkpt lat="45.88528" lon="4.64778">
        <ele>271</ele>
        <time>2018-07-06T10:02:45Z</time>
      </trkpt>
      <trkpt lat="45.88531" lon="4.6478">
        <ele>271</ele>
        <time>2018-07-06T10:02:46Z</time>
      </trkpt>
      <trkpt lat="45.88537" lon="4.64785">
        <ele>271</ele>
        <time>2018-07-06T10:02:49Z</time>
      </trkpt>
      <trkpt lat="45.88539" lon="4.64787">
        <ele>272</ele>
        <time>2018-07-06T10:02:50Z</time>
      </trkpt>
      <trkpt lat="45.88544" lon="4.64797">
        <ele>272</ele>
        <time>2018-07-06T10:02:54Z</time>
      </trkpt>
      <trkpt lat="45.88544" lon="4.64799">
        <ele>272</ele>
        <time>2018-07-06T10:02:55Z</time>
      </trkpt>
      <trkpt lat="45.88547" lon="4.6481">
        <ele>273</ele>
        <time>2018-07-06T10:02:59Z</time>
      </trkpt>
      <trkpt lat="45.88547" lon="4.64813">
        <ele>273</ele>
        <time>2018-07-06T10:03:00Z</time>
      </trkpt>
      <trkpt lat="45.88548" lon="4.64825">
        <ele>273</ele>
        <time>2018-07-06T10:03:05Z</time>
      </trkpt>
      <trkpt lat="45.88548" lon="4.64828">
        <ele>273</ele>
        <time>2018-07-06T10:03:06Z</time>
      </trkpt>
      <trkpt lat="45.88548" lon="4.64839">
        <ele>276</ele>
        <time>2018-07-06T10:03:10Z</time>
      </trkpt>
      <trkpt lat="45.88548" lon="4.64842">
        <ele>276</ele>
        <time>2018-07-06T10:03:11Z</time>
      </trkpt>
      <trkpt lat="45.88547" lon="4.64853">
        <ele>277</ele>
        <time>2018-07-06T10:03:15Z</time>
      </trkpt>
      <trkpt lat="45.88546" lon="4.64856">
        <ele>277</ele>
        <time>2018-07-06T10:03:16Z</time>
      </trkpt>
      <trkpt lat="45.88545" lon="4.64866">
        <ele>277</ele>
        <time>2018-07-06T10:03:20Z</time>
      </trkpt>
      <trkpt lat="45.88544" lon="4.64869">
        <ele>277</ele>
        <time>2018-07-06T10:03:21Z</time>
      </trkpt>
      <trkpt lat="45.88543" lon="4.64881">
        <ele>277</ele>
        <time>2018-07-06T10:03:25Z</time>
      </trkpt>
      <trkpt lat="45.88543" lon="4.64884">
        <ele>277</ele>
        <time>2018-07-06T10:03:26Z</time>
      </trkpt>
      <trkpt lat="45.88541" lon="4.64896">
        <ele>277</ele>
        <time>2018-07-06T10:03:30Z</time>
      </trkpt>
      <trkpt lat="45.88541" lon="4.64898">
        <ele>278</ele>
        <time>2018-07-06T10:03:31Z</time>
      </trkpt>
      <trkpt lat="45.88538" lon="4.64908">
        <ele>278</ele>
        <time>2018-07-06T10:03:35Z</time>
      </trkpt>
      <trkpt lat="45.88537" lon="4.64911">
        <ele>278</ele>
        <time>2018-07-06T10:03:36Z</time>
      </trkpt>
      <trkpt lat="45.88535" lon="4.6492">
        <ele>280</ele>
        <time>2018-07-06T10:03:40Z</time>
      </trkpt>
      <trkpt lat="45.88534" lon="4.64923">
        <ele>280</ele>
        <time>2018-07-06T10:03:41Z</time>
      </trkpt>
      <trkpt lat="45.88532" lon="4.64934">
        <ele>281</ele>
        <time>2018-07-06T10:03:45Z</time>
      </trkpt>
      <trkpt lat="45.88531" lon="4.64937">
        <ele>281</ele>
        <time>2018-07-06T10:03:46Z</time>
      </trkpt>
      <trkpt lat="45.8853" lon="4.64947">
        <ele>281</ele>
        <time>2018-07-06T10:03:50Z</time>
      </trkpt>
      <trkpt lat="45.88529" lon="4.6495">
        <ele>281</ele>
        <time>2018-07-06T10:03:51Z</time>
      </trkpt>
      <trkpt lat="45.88529" lon="4.64963">
        <ele>281</ele>
        <time>2018-07-06T10:03:56Z</time>
      </trkpt>
      <trkpt lat="45.88529" lon="4.64965">
        <ele>282</ele>
        <time>2018-07-06T10:03:57Z</time>
      </trkpt>
      <trkpt lat="45.88527" lon="4.64976">
        <ele>282</ele>
        <time>2018-07-06T10:04:01Z</time>
      </trkpt>
      <trkpt lat="45.88526" lon="4.64978">
        <ele>282</ele>
        <time>2018-07-06T10:04:02Z</time>
      </trkpt>
      <trkpt lat="45.88525" lon="4.64989">
        <ele>283</ele>
        <time>2018-07-06T10:04:06Z</time>
      </trkpt>
      <trkpt lat="45.88525" lon="4.64992">
        <ele>283</ele>
        <time>2018-07-06T10:04:07Z</time>
      </trkpt>
      <trkpt lat="45.88524" lon="4.65003">
        <ele>285</ele>
        <time>2018-07-06T10:04:11Z</time>
      </trkpt>
      <trkpt lat="45.88524" lon="4.65006">
        <ele>285</ele>
        <time>2018-07-06T10:04:12Z</time>
      </trkpt>
      <trkpt lat="45.88522" lon="4.65016">
        <ele>285</ele>
        <time>2018-07-06T10:04:16Z</time>
      </trkpt>
      <trkpt lat="45.88521" lon="4.65019">
        <ele>285</ele>
        <time>2018-07-06T10:04:17Z</time>
      </trkpt>
      <trkpt lat="45.88518" lon="4.65029">
        <ele>285</ele>
        <time>2018-07-06T10:04:21Z</time>
      </trkpt>
      <trkpt lat="45.88517" lon="4.65032">
        <ele>285</ele>
        <time>2018-07-06T10:04:22Z</time>
      </trkpt>
      <trkpt lat="45.88514" lon="4.65042">
        <ele>285</ele>
        <time>2018-07-06T10:04:26Z</time>
      </trkpt>
      <trkpt lat="45.88513" lon="4.65044">
        <ele>286</ele>
        <time>2018-07-06T10:04:27Z</time>
      </trkpt>
      <trkpt lat="45.88509" lon="4.65054">
        <ele>286</ele>
        <time>2018-07-06T10:04:31Z</time>
      </trkpt>
      <trkpt lat="45.88508" lon="4.65057">
        <ele>286</ele>
        <time>2018-07-06T10:04:32Z</time>
      </trkpt>
      <trkpt lat="45.88504" lon="4.65068">
        <ele>287</ele>
        <time>2018-07-06T10:04:36Z</time>
      </trkpt>
      <trkpt lat="45.88502" lon="4.6507">
        <ele>288</ele>
        <time>2018-07-06T10:04:37Z</time>
      </trkpt>
      <trkpt lat="45.88497" lon="4.6508">
        <ele>290</ele>
        <time>2018-07-06T10:04:41Z</time>
      </trkpt>
      <trkpt lat="45.88496" lon="4.65083">
        <ele>290</ele>
        <time>2018-07-06T10:04:42Z</time>
      </trkpt>
      <trkpt lat="45.88492" lon="4.65092">
        <ele>291</ele>
        <time>2018-07-06T10:04:46Z</time>
      </trkpt>
      <trkpt lat="45.88491" lon="4.65095">
        <ele>292</ele>
        <time>2018-07-06T10:04:47Z</time>
      </trkpt>
      <trkpt lat="45.88486" lon="4.65103">
        <ele>292</ele>
        <time>2018-07-06T10:04:51Z</time>
      </trkpt>
      <trkpt lat="45.88484" lon="4.65105">
        <ele>293</ele>
        <time>2018-07-06T10:04:52Z</time>
      </trkpt>
      <trkpt lat="45.8848" lon="4.65113">
        <ele>293</ele>
        <time>2018-07-06T10:04:56Z</time>
      </trkpt>
      <trkpt lat="45.88479" lon="4.65115">
        <ele>293</ele>
        <time>2018-07-06T10:04:57Z</time>
      </trkpt>
      <trkpt lat="45.88473" lon="4.65124">
        <ele>294</ele>
        <time>2018-07-06T10:05:01Z</time>
      </trkpt>
      <trkpt lat="45.88472" lon="4.65126">
        <ele>294</ele>
        <time>2018-07-06T10:05:02Z</time>
      </trkpt>
      <trkpt lat="45.88466" lon="4.65134">
        <ele>294</ele>
        <time>2018-07-06T10:05:06Z</time>
      </trkpt>
      <trkpt lat="45.88464" lon="4.65136">
        <ele>294</ele>
        <time>2018-07-06T10:05:07Z</time>
      </trkpt>
      <trkpt lat="45.88458" lon="4.65145">
        <ele>294</ele>
        <time>2018-07-06T10:05:11Z</time>
      </trkpt>
      <trkpt lat="45.88456" lon="4.65146">
        <ele>295</ele>
        <time>2018-07-06T10:05:12Z</time>
      </trkpt>
      <trkpt lat="45.8845" lon="4.65151">
        <ele>295</ele>
        <time>2018-07-06T10:05:15Z</time>
      </trkpt>
      <trkpt lat="45.88448" lon="4.65153">
        <ele>295</ele>
        <time>2018-07-06T10:05:16Z</time>
      </trkpt>
      <trkpt lat="45.88441" lon="4.65161">
        <ele>296</ele>
        <time>2018-07-06T10:05:20Z</time>
      </trkpt>
      <trkpt lat="45.8844" lon="4.65163">
        <ele>296</ele>
        <time>2018-07-06T10:05:21Z</time>
      </trkpt>
      <trkpt lat="45.88432" lon="4.65169">
        <ele>298</ele>
        <time>2018-07-06T10:05:25Z</time>
      </trkpt>
      <trkpt lat="45.8843" lon="4.65171">
        <ele>298</ele>
        <time>2018-07-06T10:05:26Z</time>
      </trkpt>
      <trkpt lat="45.88423" lon="4.65176">
        <ele>298</ele>
        <time>2018-07-06T10:05:30Z</time>
      </trkpt>
      <trkpt lat="45.88421" lon="4.65178">
        <ele>298</ele>
        <time>2018-07-06T10:05:31Z</time>
      </trkpt>
      <trkpt lat="45.88414" lon="4.65184">
        <ele>299</ele>
        <time>2018-07-06T10:05:35Z</time>
      </trkpt>
      <trkpt lat="45.88412" lon="4.65185">
        <ele>299</ele>
        <time>2018-07-06T10:05:36Z</time>
      </trkpt>
      <trkpt lat="45.88406" lon="4.65192">
        <ele>299</ele>
        <time>2018-07-06T10:05:41Z</time>
      </trkpt>
      <trkpt lat="45.88405" lon="4.65193">
        <ele>299</ele>
        <time>2018-07-06T10:05:42Z</time>
      </trkpt>
      <trkpt lat="45.88398" lon="4.65199">
        <ele>300</ele>
        <time>2018-07-06T10:05:46Z</time>
      </trkpt>
      <trkpt lat="45.88396" lon="4.65201">
        <ele>300</ele>
        <time>2018-07-06T10:05:47Z</time>
      </trkpt>
      <trkpt lat="45.8839" lon="4.65207">
        <ele>300</ele>
        <time>2018-07-06T10:05:50Z</time>
      </trkpt>
      <trkpt lat="45.88388" lon="4.65209">
        <ele>300</ele>
        <time>2018-07-06T10:05:51Z</time>
      </trkpt>
      <trkpt lat="45.88381" lon="4.65215">
        <ele>300</ele>
        <time>2018-07-06T10:05:54Z</time>
      </trkpt>
      <trkpt lat="45.88379" lon="4.65217">
        <ele>300</ele>
        <time>2018-07-06T10:05:55Z</time>
      </trkpt>
      <trkpt lat="45.88374" lon="4.65224">
        <ele>300</ele>
        <time>2018-07-06T10:05:58Z</time>
      </trkpt>
      <trkpt lat="45.88371" lon="4.65226">
        <ele>300</ele>
        <time>2018-07-06T10:05:59Z</time>
      </trkpt>
      <trkpt lat="45.88365" lon="4.65232">
        <ele>300</ele>
        <time>2018-07-06T10:06:02Z</time>
      </trkpt>
      <trkpt lat="45.88363" lon="4.65234">
        <ele>300</ele>
        <time>2018-07-06T10:06:03Z</time>
      </trkpt>
      <trkpt lat="45.88356" lon="4.65242">
        <ele>300</ele>
        <time>2018-07-06T10:06:07Z</time>
      </trkpt>
      <trkpt lat="45.88355" lon="4.65244">
        <ele>300</ele>
        <time>2018-07-06T10:06:08Z</time>
      </trkpt>
      <trkpt lat="45.8835" lon="4.6525">
        <ele>301</ele>
        <time>2018-07-06T10:06:11Z</time>
      </trkpt>
      <trkpt lat="45.88348" lon="4.65253">
        <ele>301</ele>
        <time>2018-07-06T10:06:12Z</time>
      </trkpt>
      <trkpt lat="45.88342" lon="4.65259">
        <ele>301</ele>
        <time>2018-07-06T10:06:15Z</time>
      </trkpt>
      <trkpt lat="45.88341" lon="4.65261">
        <ele>301</ele>
        <time>2018-07-06T10:06:16Z</time>
      </trkpt>
      <trkpt lat="45.88334" lon="4.65269">
        <ele>301</ele>
        <time>2018-07-06T10:06:20Z</time>
      </trkpt>
      <trkpt lat="45.88332" lon="4.65271">
        <ele>303</ele>
        <time>2018-07-06T10:06:21Z</time>
      </trkpt>
      <trkpt lat="45.88326" lon="4.65278">
        <ele>304</ele>
        <time>2018-07-06T10:06:25Z</time>
      </trkpt>
      <trkpt lat="45.88324" lon="4.6528">
        <ele>304</ele>
        <time>2018-07-06T10:06:26Z</time>
      </trkpt>
      <trkpt lat="45.88317" lon="4.65287">
        <ele>304</ele>
        <time>2018-07-06T10:06:30Z</time>
      </trkpt>
      <trkpt lat="45.88316" lon="4.65289">
        <ele>304</ele>
        <time>2018-07-06T10:06:31Z</time>
      </trkpt>
      <trkpt lat="45.88309" lon="4.65297">
        <ele>305</ele>
        <time>2018-07-06T10:06:35Z</time>
      </trkpt>
      <trkpt lat="45.88308" lon="4.65299">
        <ele>305</ele>
        <time>2018-07-06T10:06:36Z</time>
      </trkpt>
      <trkpt lat="45.88303" lon="4.65309">
        <ele>305</ele>
        <time>2018-07-06T10:06:40Z</time>
      </trkpt>
      <trkpt lat="45.88302" lon="4.65312">
        <ele>305</ele>
        <time>2018-07-06T10:06:41Z</time>
      </trkpt>
      <trkpt lat="45.88297" lon="4.65322">
        <ele>305</ele>
        <time>2018-07-06T10:06:45Z</time>
      </trkpt>
      <trkpt lat="45.88296" lon="4.65326">
        <ele>305</ele>
        <time>2018-07-06T10:06:46Z</time>
      </trkpt>
      <trkpt lat="45.88292" lon="4.65337">
        <ele>307</ele>
        <time>2018-07-06T10:06:50Z</time>
      </trkpt>
      <trkpt lat="45.88291" lon="4.6534">
        <ele>307</ele>
        <time>2018-07-06T10:06:51Z</time>
      </trkpt>
      <trkpt lat="45.88287" lon="4.6535">
        <ele>308</ele>
        <time>2018-07-06T10:06:55Z</time>
      </trkpt>
      <trkpt lat="45.88286" lon="4.65352">
        <ele>308</ele>
        <time>2018-07-06T10:06:56Z</time>
      </trkpt>
      <trkpt lat="45.88283" lon="4.65363">
        <ele>308</ele>
        <time>2018-07-06T10:07:00Z</time>
      </trkpt>
      <trkpt lat="45.88283" lon="4.65365">
        <ele>308</ele>
        <time>2018-07-06T10:07:01Z</time>
      </trkpt>
      <trkpt lat="45.8828" lon="4.65376">
        <ele>308</ele>
        <time>2018-07-06T10:07:05Z</time>
      </trkpt>
      <trkpt lat="45.88279" lon="4.65379">
        <ele>308</ele>
        <time>2018-07-06T10:07:06Z</time>
      </trkpt>
      <trkpt lat="45.88276" lon="4.65388">
        <ele>308</ele>
        <time>2018-07-06T10:07:09Z</time>
      </trkpt>
      <trkpt lat="45.88275" lon="4.65391">
        <ele>308</ele>
        <time>2018-07-06T10:07:10Z</time>
      </trkpt>
      <trkpt lat="45.88273" lon="4.654">
        <ele>309</ele>
        <time>2018-07-06T10:07:13Z</time>
      </trkpt>
      <trkpt lat="45.88272" lon="4.65403">
        <ele>309</ele>
        <time>2018-07-06T10:07:14Z</time>
      </trkpt>
      <trkpt lat="45.88268" lon="4.65413">
        <ele>309</ele>
        <time>2018-07-06T10:07:18Z</time>
      </trkpt>
      <trkpt lat="45.88267" lon="4.65416">
        <ele>309</ele>
        <time>2018-07-06T10:07:19Z</time>
      </trkpt>
      <trkpt lat="45.88263" lon="4.65427">
        <ele>311</ele>
        <time>2018-07-06T10:07:23Z</time>
      </trkpt>
      <trkpt lat="45.88262" lon="4.6543">
        <ele>311</ele>
        <time>2018-07-06T10:07:24Z</time>
      </trkpt>
      <trkpt lat="45.88258" lon="4.65441">
        <ele>311</ele>
        <time>2018-07-06T10:07:28Z</time>
      </trkpt>
      <trkpt lat="45.88257" lon="4.65443">
        <ele>311</ele>
        <time>2018-07-06T10:07:29Z</time>
      </trkpt>
      <trkpt lat="45.88253" lon="4.65454">
        <ele>311</ele>
        <time>2018-07-06T10:07:33Z</time>
      </trkpt>
      <trkpt lat="45.88251" lon="4.65457">
        <ele>311</ele>
        <time>2018-07-06T10:07:34Z</time>
      </trkpt>
      <trkpt lat="45.88248" lon="4.65465">
        <ele>316</ele>
        <time>2018-07-06T10:07:37Z</time>
      </trkpt>
      <trkpt lat="45.88247" lon="4.65469">
        <ele>316</ele>
        <time>2018-07-06T10:07:38Z</time>
      </trkpt>
      <trkpt lat="45.88245" lon="4.65479">
        <ele>316</ele>
        <time>2018-07-06T10:07:41Z</time>
      </trkpt>
      <trkpt lat="45.88245" lon="4.65482">
        <ele>316</ele>
        <time>2018-07-06T10:07:42Z</time>
      </trkpt>
      <trkpt lat="45.88242" lon="4.65494">
        <ele>316</ele>
        <time>2018-07-06T10:07:46Z</time>
      </trkpt>
      <trkpt lat="45.88242" lon="4.65496">
        <ele>316</ele>
        <time>2018-07-06T10:07:47Z</time>
      </trkpt>
      <trkpt lat="45.88238" lon="4.65508">
        <ele>318</ele>
        <time>2018-07-06T10:07:51Z</time>
      </trkpt>
      <trkpt lat="45.88237" lon="4.65511">
        <ele>318</ele>
        <time>2018-07-06T10:07:52Z</time>
      </trkpt>
      <trkpt lat="45.88234" lon="4.65522">
        <ele>319</ele>
        <time>2018-07-06T10:07:56Z</time>
      </trkpt>
      <trkpt lat="45.88233" lon="4.65525">
        <ele>319</ele>
        <time>2018-07-06T10:07:57Z</time>
      </trkpt>
      <trkpt lat="45.8823" lon="4.65535">
        <ele>320</ele>
        <time>2018-07-06T10:08:01Z</time>
      </trkpt>
      <trkpt lat="45.88229" lon="4.65538">
        <ele>320</ele>
        <time>2018-07-06T10:08:02Z</time>
      </trkpt>
      <trkpt lat="45.88226" lon="4.6555">
        <ele>320</ele>
        <time>2018-07-06T10:08:06Z</time>
      </trkpt>
      <trkpt lat="45.88225" lon="4.65553">
        <ele>320</ele>
        <time>2018-07-06T10:08:07Z</time>
      </trkpt>
      <trkpt lat="45.88221" lon="4.65564">
        <ele>320</ele>
        <time>2018-07-06T10:08:11Z</time>
      </trkpt>
      <trkpt lat="45.8822" lon="4.65567">
        <ele>320</ele>
        <time>2018-07-06T10:08:12Z</time>
      </trkpt>
      <trkpt lat="45.88217" lon="4.65579">
        <ele>321</ele>
        <time>2018-07-06T10:08:16Z</time>
      </trkpt>
      <trkpt lat="45.88216" lon="4.65582">
        <ele>321</ele>
        <time>2018-07-06T10:08:17Z</time>
      </trkpt>
      <trkpt lat="45.88213" lon="4.65591">
        <ele>321</ele>
        <time>2018-07-06T10:08:20Z</time>
      </trkpt>
      <trkpt lat="45.88211" lon="4.65594">
        <ele>321</ele>
        <time>2018-07-06T10:08:21Z</time>
      </trkpt>
      <trkpt lat="45.88207" lon="4.65605">
        <ele>321</ele>
        <time>2018-07-06T10:08:25Z</time>
      </trkpt>
      <trkpt lat="45.88206" lon="4.65607">
        <ele>321</ele>
        <time>2018-07-06T10:08:26Z</time>
      </trkpt>
      <trkpt lat="45.88202" lon="4.65615">
        <ele>321</ele>
        <time>2018-07-06T10:08:29Z</time>
      </trkpt>
      <trkpt lat="45.88201" lon="4.65618">
        <ele>321</ele>
        <time>2018-07-06T10:08:30Z</time>
      </trkpt>
      <trkpt lat="45.88197" lon="4.6563">
        <ele>322</ele>
        <time>2018-07-06T10:08:34Z</time>
      </trkpt>
      <trkpt lat="45.88196" lon="4.65632">
        <ele>322</ele>
        <time>2018-07-06T10:08:35Z</time>
      </trkpt>
      <trkpt lat="45.88193" lon="4.6564">
        <ele>322</ele>
        <time>2018-07-06T10:08:38Z</time>
      </trkpt>
      <trkpt lat="45.88191" lon="4.65643">
        <ele>322</ele>
        <time>2018-07-06T10:08:39Z</time>
      </trkpt>
      <trkpt lat="45.88187" lon="4.65652">
        <ele>322</ele>
        <time>2018-07-06T10:08:42Z</time>
      </trkpt>
      <trkpt lat="45.88186" lon="4.65654">
        <ele>322</ele>
        <time>2018-07-06T10:08:43Z</time>
      </trkpt>
      <trkpt lat="45.88182" lon="4.65663">
        <ele>323</ele>
        <time>2018-07-06T10:08:46Z</time>
      </trkpt>
      <trkpt lat="45.88181" lon="4.65666">
        <ele>323</ele>
        <time>2018-07-06T10:08:47Z</time>
      </trkpt>
      <trkpt lat="45.88176" lon="4.65676">
        <ele>323</ele>
        <time>2018-07-06T10:08:51Z</time>
      </trkpt>
      <trkpt lat="45.88175" lon="4.65679">
        <ele>323</ele>
        <time>2018-07-06T10:08:52Z</time>
      </trkpt>
      <trkpt lat="45.8817" lon="4.65689">
        <ele>322</ele>
        <time>2018-07-06T10:08:56Z</time>
      </trkpt>
      <trkpt lat="45.88169" lon="4.65691">
        <ele>322</ele>
        <time>2018-07-06T10:08:57Z</time>
      </trkpt>
      <trkpt lat="45.88165" lon="4.657">
        <ele>330</ele>
        <time>2018-07-06T10:09:01Z</time>
      </trkpt>
      <trkpt lat="45.88164" lon="4.65702">
        <ele>331</ele>
        <time>2018-07-06T10:09:02Z</time>
      </trkpt>
      <trkpt lat="45.88159" lon="4.65712">
        <ele>331</ele>
        <time>2018-07-06T10:09:06Z</time>
      </trkpt>
      <trkpt lat="45.88158" lon="4.65714">
        <ele>331</ele>
        <time>2018-07-06T10:09:07Z</time>
      </trkpt>
      <trkpt lat="45.88154" lon="4.65724">
        <ele>331</ele>
        <time>2018-07-06T10:09:11Z</time>
      </trkpt>
      <trkpt lat="45.88153" lon="4.65726">
        <ele>331</ele>
        <time>2018-07-06T10:09:12Z</time>
      </trkpt>
      <trkpt lat="45.88147" lon="4.65734">
        <ele>331</ele>
        <time>2018-07-06T10:09:16Z</time>
      </trkpt>
      <trkpt lat="45.88146" lon="4.65736">
        <ele>331</ele>
        <time>2018-07-06T10:09:17Z</time>
      </trkpt>
      <trkpt lat="45.88139" lon="4.65742">
        <ele>332</ele>
        <time>2018-07-06T10:09:21Z</time>
      </trkpt>
      <trkpt lat="45.88137" lon="4.65743">
        <ele>332</ele>
        <time>2018-07-06T10:09:22Z</time>
      </trkpt>
      <trkpt lat="45.8813" lon="4.65749">
        <ele>333</ele>
        <time>2018-07-06T10:09:27Z</time>
      </trkpt>
      <trkpt lat="45.88128" lon="4.6575">
        <ele>332</ele>
        <time>2018-07-06T10:09:28Z</time>
      </trkpt>
      <trkpt lat="45.88123" lon="4.65755">
        <ele>333</ele>
        <time>2018-07-06T10:09:31Z</time>
      </trkpt>
      <trkpt lat="45.88121" lon="4.65758">
        <ele>334</ele>
        <time>2018-07-06T10:09:32Z</time>
      </trkpt>
      <trkpt lat="45.88115" lon="4.65765">
        <ele>334</ele>
        <time>2018-07-06T10:09:35Z</time>
      </trkpt>
      <trkpt lat="45.88113" lon="4.65767">
        <ele>334</ele>
        <time>2018-07-06T10:09:36Z</time>
      </trkpt>
      <trkpt lat="45.88107" lon="4.65775">
        <ele>335</ele>
        <time>2018-07-06T10:09:40Z</time>
      </trkpt>
      <trkpt lat="45.88105" lon="4.65777">
        <ele>335</ele>
        <time>2018-07-06T10:09:41Z</time>
      </trkpt>
      <trkpt lat="45.88097" lon="4.65784">
        <ele>335</ele>
        <time>2018-07-06T10:09:45Z</time>
      </trkpt>
      <trkpt lat="45.88095" lon="4.65786">
        <ele>335</ele>
        <time>2018-07-06T10:09:46Z</time>
      </trkpt>
      <trkpt lat="45.88089" lon="4.65793">
        <ele>334</ele>
        <time>2018-07-06T10:09:50Z</time>
      </trkpt>
      <trkpt lat="45.88087" lon="4.65794">
        <ele>334</ele>
        <time>2018-07-06T10:09:51Z</time>
      </trkpt>
      <trkpt lat="45.8808" lon="4.65801">
        <ele>341</ele>
        <time>2018-07-06T10:09:56Z</time>
      </trkpt>
      <trkpt lat="45.88078" lon="4.65803">
        <ele>341</ele>
        <time>2018-07-06T10:09:57Z</time>
      </trkpt>
      <trkpt lat="45.88073" lon="4.65808">
        <ele>341</ele>
        <time>2018-07-06T10:09:59Z</time>
      </trkpt>
      <trkpt lat="45.8807" lon="4.65811">
        <ele>341</ele>
        <time>2018-07-06T10:10:00Z</time>
      </trkpt>
      <trkpt lat="45.88062" lon="4.65817">
        <ele>341</ele>
        <time>2018-07-06T10:10:03Z</time>
      </trkpt>
      <trkpt lat="45.88059" lon="4.65819">
        <ele>341</ele>
        <time>2018-07-06T10:10:04Z</time>
      </trkpt>
      <trkpt lat="45.88053" lon="4.65823">
        <ele>342</ele>
        <time>2018-07-06T10:10:06Z</time>
      </trkpt>
      <trkpt lat="45.8805" lon="4.65825">
        <ele>342</ele>
        <time>2018-07-06T10:10:07Z</time>
      </trkpt>
      <trkpt lat="45.88044" lon="4.65829">
        <ele>342</ele>
        <time>2018-07-06T10:10:09Z</time>
      </trkpt>
      <trkpt lat="45.88041" lon="4.65831">
        <ele>343</ele>
        <time>2018-07-06T10:10:10Z</time>
      </trkpt>
      <trkpt lat="45.88035" lon="4.65834">
        <ele>338</ele>
        <time>2018-07-06T10:10:12Z</time>
      </trkpt>
      <trkpt lat="45.88032" lon="4.65836">
        <ele>338</ele>
        <time>2018-07-06T10:10:13Z</time>
      </trkpt>
      <trkpt lat="45.88026" lon="4.65838">
        <ele>339</ele>
        <time>2018-07-06T10:10:15Z</time>
      </trkpt>
      <trkpt lat="45.88024" lon="4.6584">
        <ele>339</ele>
        <time>2018-07-06T10:10:16Z</time>
      </trkpt>
      <trkpt lat="45.88016" lon="4.65845">
        <ele>340</ele>
        <time>2018-07-06T10:10:19Z</time>
      </trkpt>
      <trkpt lat="45.88014" lon="4.65847">
        <ele>340</ele>
        <time>2018-07-06T10:10:20Z</time>
      </trkpt>
      <trkpt lat="45.88011" lon="4.65849">
        <ele>340</ele>
        <time>2018-07-06T10:10:21Z</time>
      </trkpt>
      <trkpt lat="45.87994" lon="4.65864">
        <ele>344</ele>
        <time>2018-07-06T10:10:22Z</time>
      </trkpt>
      <trkpt lat="45.87987" lon="4.65873">
        <ele>343</ele>
        <time>2018-07-06T10:10:26Z</time>
      </trkpt>
      <trkpt lat="45.87985" lon="4.65875">
        <ele>343</ele>
        <time>2018-07-06T10:10:27Z</time>
      </trkpt>
      <trkpt lat="45.87979" lon="4.65883">
        <ele>343</ele>
        <time>2018-07-06T10:10:28Z</time>
      </trkpt>
      <trkpt lat="45.87975" lon="4.65886">
        <ele>343</ele>
        <time>2018-07-06T10:10:29Z</time>
      </trkpt>
      <trkpt lat="45.87968" lon="4.65889">
        <ele>343</ele>
        <time>2018-07-06T10:10:31Z</time>
      </trkpt>
      <trkpt lat="45.87966" lon="4.65891">
        <ele>343</ele>
        <time>2018-07-06T10:10:32Z</time>
      </trkpt>
      <trkpt lat="45.87961" lon="4.65898">
        <ele>343</ele>
        <time>2018-07-06T10:10:35Z</time>
      </trkpt>
      <trkpt lat="45.87955" lon="4.65906">
        <ele>343</ele>
        <time>2018-07-06T10:10:36Z</time>
      </trkpt>
      <trkpt lat="45.87951" lon="4.65914">
        <ele>343</ele>
        <time>2018-07-06T10:10:38Z</time>
      </trkpt>
      <trkpt lat="45.87949" lon="4.65919">
        <ele>341</ele>
        <time>2018-07-06T10:10:39Z</time>
      </trkpt>
      <trkpt lat="45.87946" lon="4.65924">
        <ele>341</ele>
        <time>2018-07-06T10:10:40Z</time>
      </trkpt>
      <trkpt lat="45.87943" lon="4.65929">
        <ele>341</ele>
        <time>2018-07-06T10:10:41Z</time>
      </trkpt>
      <trkpt lat="45.87936" lon="4.65937">
        <ele>341</ele>
        <time>2018-07-06T10:10:45Z</time>
      </trkpt>
      <trkpt lat="45.87934" lon="4.6594">
        <ele>341</ele>
        <time>2018-07-06T10:10:46Z</time>
      </trkpt>
      <trkpt lat="45.87931" lon="4.65949">
        <ele>341</ele>
        <time>2018-07-06T10:10:49Z</time>
      </trkpt>
      <trkpt lat="45.87929" lon="4.65952">
        <ele>341</ele>
        <time>2018-07-06T10:10:50Z</time>
      </trkpt>
      <trkpt lat="45.87926" lon="4.65963">
        <ele>341</ele>
        <time>2018-07-06T10:10:53Z</time>
      </trkpt>
      <trkpt lat="45.87925" lon="4.65967">
        <ele>341</ele>
        <time>2018-07-06T10:10:54Z</time>
      </trkpt>
      <trkpt lat="45.87922" lon="4.6598">
        <ele>341</ele>
        <time>2018-07-06T10:10:57Z</time>
      </trkpt>
      <trkpt lat="45.87921" lon="4.65984">
        <ele>342</ele>
        <time>2018-07-06T10:10:58Z</time>
      </trkpt>
      <trkpt lat="45.8792" lon="4.65995">
        <ele>342</ele>
        <time>2018-07-06T10:11:01Z</time>
      </trkpt>
      <trkpt lat="45.87919" lon="4.65998">
        <ele>343</ele>
        <time>2018-07-06T10:11:02Z</time>
      </trkpt>
      <trkpt lat="45.87918" lon="4.66009">
        <ele>342</ele>
        <time>2018-07-06T10:11:05Z</time>
      </trkpt>
      <trkpt lat="45.87918" lon="4.66013">
        <ele>342</ele>
        <time>2018-07-06T10:11:06Z</time>
      </trkpt>
      <trkpt lat="45.87919" lon="4.66024">
        <ele>342</ele>
        <time>2018-07-06T10:11:09Z</time>
      </trkpt>
      <trkpt lat="45.87919" lon="4.66028">
        <ele>342</ele>
        <time>2018-07-06T10:11:10Z</time>
      </trkpt>
      <trkpt lat="45.8792" lon="4.6604">
        <ele>342</ele>
        <time>2018-07-06T10:11:13Z</time>
      </trkpt>
      <trkpt lat="45.8792" lon="4.66043">
        <ele>342</ele>
        <time>2018-07-06T10:11:14Z</time>
      </trkpt>
      <trkpt lat="45.8792" lon="4.66055">
        <ele>342</ele>
        <time>2018-07-06T10:11:17Z</time>
      </trkpt>
      <trkpt lat="45.8792" lon="4.66058">
        <ele>342</ele>
        <time>2018-07-06T10:11:18Z</time>
      </trkpt>
      <trkpt lat="45.87921" lon="4.6607">
        <ele>343</ele>
        <time>2018-07-06T10:11:21Z</time>
      </trkpt>
      <trkpt lat="45.87921" lon="4.66074">
        <ele>343</ele>
        <time>2018-07-06T10:11:22Z</time>
      </trkpt>
      <trkpt lat="45.87921" lon="4.66085">
        <ele>345</ele>
        <time>2018-07-06T10:11:25Z</time>
      </trkpt>
      <trkpt lat="45.87921" lon="4.66089">
        <ele>345</ele>
        <time>2018-07-06T10:11:26Z</time>
      </trkpt>
      <trkpt lat="45.87922" lon="4.661">
        <ele>346</ele>
        <time>2018-07-06T10:11:29Z</time>
      </trkpt>
      <trkpt lat="45.87922" lon="4.66104">
        <ele>346</ele>
        <time>2018-07-06T10:11:30Z</time>
      </trkpt>
      <trkpt lat="45.87922" lon="4.66115">
        <ele>347</ele>
        <time>2018-07-06T10:11:33Z</time>
      </trkpt>
      <trkpt lat="45.87923" lon="4.6612">
        <ele>347</ele>
        <time>2018-07-06T10:11:34Z</time>
      </trkpt>
      <trkpt lat="45.87927" lon="4.66129">
        <ele>348</ele>
        <time>2018-07-06T10:11:37Z</time>
      </trkpt>
      <trkpt lat="45.87929" lon="4.66131">
        <ele>348</ele>
        <time>2018-07-06T10:11:38Z</time>
      </trkpt>
      <trkpt lat="45.87937" lon="4.66135">
        <ele>348</ele>
        <time>2018-07-06T10:11:41Z</time>
      </trkpt>
      <trkpt lat="45.8794" lon="4.66136">
        <ele>348</ele>
        <time>2018-07-06T10:11:42Z</time>
      </trkpt>
      <trkpt lat="45.87947" lon="4.66137">
        <ele>348</ele>
        <time>2018-07-06T10:11:44Z</time>
      </trkpt>
      <trkpt lat="45.8795" lon="4.66138">
        <ele>348</ele>
        <time>2018-07-06T10:11:45Z</time>
      </trkpt>
      <trkpt lat="45.87956" lon="4.66138">
        <ele>348</ele>
        <time>2018-07-06T10:11:47Z</time>
      </trkpt>
      <trkpt lat="45.87959" lon="4.66138">
        <ele>348</ele>
        <time>2018-07-06T10:11:48Z</time>
      </trkpt>
      <trkpt lat="45.87966" lon="4.66139">
        <ele>348</ele>
        <time>2018-07-06T10:11:50Z</time>
      </trkpt>
      <trkpt lat="45.87977" lon="4.66139">
        <ele>348</ele>
        <time>2018-07-06T10:11:51Z</time>
      </trkpt>
      <trkpt lat="45.87984" lon="4.66139">
        <ele>348</ele>
        <time>2018-07-06T10:11:54Z</time>
      </trkpt>
      <trkpt lat="45.87986" lon="4.66139">
        <ele>348</ele>
        <time>2018-07-06T10:11:55Z</time>
      </trkpt>
      <trkpt lat="45.87995" lon="4.66139">
        <ele>348</ele>
        <time>2018-07-06T10:11:58Z</time>
      </trkpt>
      <trkpt lat="45.87998" lon="4.66139">
        <ele>348</ele>
        <time>2018-07-06T10:11:59Z</time>
      </trkpt>
      <trkpt lat="45.88008" lon="4.66139">
        <ele>348</ele>
        <time>2018-07-06T10:12:00Z</time>
      </trkpt>
      <trkpt lat="45.88015" lon="4.66138">
        <ele>348</ele>
        <time>2018-07-06T10:12:02Z</time>
      </trkpt>
      <trkpt lat="45.8802" lon="4.66137">
        <ele>348</ele>
        <time>2018-07-06T10:12:03Z</time>
      </trkpt>
      <trkpt lat="45.88028" lon="4.66137">
        <ele>347</ele>
        <time>2018-07-06T10:12:05Z</time>
      </trkpt>
      <trkpt lat="45.88032" lon="4.66136">
        <ele>347</ele>
        <time>2018-07-06T10:12:06Z</time>
      </trkpt>
      <trkpt lat="45.8804" lon="4.66136">
        <ele>347</ele>
        <time>2018-07-06T10:12:08Z</time>
      </trkpt>
      <trkpt lat="45.88044" lon="4.66136">
        <ele>347</ele>
        <time>2018-07-06T10:12:09Z</time>
      </trkpt>
      <trkpt lat="45.88053" lon="4.66134">
        <ele>347</ele>
        <time>2018-07-06T10:12:12Z</time>
      </trkpt>
      <trkpt lat="45.88056" lon="4.66134">
        <ele>347</ele>
        <time>2018-07-06T10:12:13Z</time>
      </trkpt>
      <trkpt lat="45.88063" lon="4.66133">
        <ele>347</ele>
        <time>2018-07-06T10:12:14Z</time>
      </trkpt>
      <trkpt lat="45.88067" lon="4.66132">
        <ele>347</ele>
        <time>2018-07-06T10:12:15Z</time>
      </trkpt>
      <trkpt lat="45.88075" lon="4.66132">
        <ele>347</ele>
        <time>2018-07-06T10:12:17Z</time>
      </trkpt>
      <trkpt lat="45.88079" lon="4.66132">
        <ele>347</ele>
        <time>2018-07-06T10:12:18Z</time>
      </trkpt>
      <trkpt lat="45.88084" lon="4.66133">
        <ele>348</ele>
        <time>2018-07-06T10:12:19Z</time>
      </trkpt>
      <trkpt lat="45.88088" lon="4.66134">
        <ele>349</ele>
        <time>2018-07-06T10:12:20Z</time>
      </trkpt>
      <trkpt lat="45.88097" lon="4.66134">
        <ele>349</ele>
        <time>2018-07-06T10:12:22Z</time>
      </trkpt>
      <trkpt lat="45.88098" lon="4.66134">
        <ele>349</ele>
        <time>2018-07-06T10:12:23Z</time>
      </trkpt>
      <trkpt lat="45.88106" lon="4.66133">
        <ele>349</ele>
        <time>2018-07-06T10:12:25Z</time>
      </trkpt>
      <trkpt lat="45.88111" lon="4.66134">
        <ele>349</ele>
        <time>2018-07-06T10:12:26Z</time>
      </trkpt>
      <trkpt lat="45.88119" lon="4.66132">
        <ele>349</ele>
        <time>2018-07-06T10:12:28Z</time>
      </trkpt>
      <trkpt lat="45.88124" lon="4.66132">
        <ele>349</ele>
        <time>2018-07-06T10:12:29Z</time>
      </trkpt>
      <trkpt lat="45.88133" lon="4.6613">
        <ele>349</ele>
        <time>2018-07-06T10:12:31Z</time>
      </trkpt>
      <trkpt lat="45.88137" lon="4.6613">
        <ele>349</ele>
        <time>2018-07-06T10:12:32Z</time>
      </trkpt>
      <trkpt lat="45.88145" lon="4.66129">
        <ele>349</ele>
        <time>2018-07-06T10:12:35Z</time>
      </trkpt>
      <trkpt lat="45.88151" lon="4.66126">
        <ele>349</ele>
        <time>2018-07-06T10:12:36Z</time>
      </trkpt>
      <trkpt lat="45.88156" lon="4.66124">
        <ele>349</ele>
        <time>2018-07-06T10:12:37Z</time>
      </trkpt>
      <trkpt lat="45.8816" lon="4.66123">
        <ele>349</ele>
        <time>2018-07-06T10:12:38Z</time>
      </trkpt>
      <trkpt lat="45.88169" lon="4.66123">
        <ele>349</ele>
        <time>2018-07-06T10:12:40Z</time>
      </trkpt>
      <trkpt lat="45.88173" lon="4.66123">
        <ele>349</ele>
        <time>2018-07-06T10:12:41Z</time>
      </trkpt>
      <trkpt lat="45.88181" lon="4.66123">
        <ele>349</ele>
        <time>2018-07-06T10:12:43Z</time>
      </trkpt>
      <trkpt lat="45.88185" lon="4.66124">
        <ele>349</ele>
        <time>2018-07-06T10:12:44Z</time>
      </trkpt>
      <trkpt lat="45.88192" lon="4.66124">
        <ele>349</ele>
        <time>2018-07-06T10:12:47Z</time>
      </trkpt>
      <trkpt lat="45.88194" lon="4.66125">
        <ele>349</ele>
        <time>2018-07-06T10:12:48Z</time>
      </trkpt>
      <trkpt lat="45.88203" lon="4.66126">
        <ele>349</ele>
        <time>2018-07-06T10:12:51Z</time>
      </trkpt>
      <trkpt lat="45.88205" lon="4.66126">
        <ele>349</ele>
        <time>2018-07-06T10:12:52Z</time>
      </trkpt>
      <trkpt lat="45.88213" lon="4.66127">
        <ele>349</ele>
        <time>2018-07-06T10:12:55Z</time>
      </trkpt>
      <trkpt lat="45.88222" lon="4.66127">
        <ele>349</ele>
        <time>2018-07-06T10:12:56Z</time>
      </trkpt>
      <trkpt lat="45.88231" lon="4.66128">
        <ele>349</ele>
        <time>2018-07-06T10:12:59Z</time>
      </trkpt>
      <trkpt lat="45.88233" lon="4.66129">
        <ele>350</ele>
        <time>2018-07-06T10:13:00Z</time>
      </trkpt>
      <trkpt lat="45.88242" lon="4.6613">
        <ele>350</ele>
        <time>2018-07-06T10:13:03Z</time>
      </trkpt>
      <trkpt lat="45.88245" lon="4.66131">
        <ele>350</ele>
        <time>2018-07-06T10:13:04Z</time>
      </trkpt>
      <trkpt lat="45.88251" lon="4.66131">
        <ele>351</ele>
        <time>2018-07-06T10:13:06Z</time>
      </trkpt>
      <trkpt lat="45.88255" lon="4.66132">
        <ele>351</ele>
        <time>2018-07-06T10:13:07Z</time>
      </trkpt>
      <trkpt lat="45.88262" lon="4.66133">
        <ele>351</ele>
        <time>2018-07-06T10:13:09Z</time>
      </trkpt>
      <trkpt lat="45.88265" lon="4.66133">
        <ele>352</ele>
        <time>2018-07-06T10:13:10Z</time>
      </trkpt>
      <trkpt lat="45.88272" lon="4.66134">
        <ele>352</ele>
        <time>2018-07-06T10:13:12Z</time>
      </trkpt>
      <trkpt lat="45.88275" lon="4.66134">
        <ele>352</ele>
        <time>2018-07-06T10:13:13Z</time>
      </trkpt>
      <trkpt lat="45.88282" lon="4.66135">
        <ele>352</ele>
        <time>2018-07-06T10:13:15Z</time>
      </trkpt>
      <trkpt lat="45.88285" lon="4.66135">
        <ele>352</ele>
        <time>2018-07-06T10:13:16Z</time>
      </trkpt>
      <trkpt lat="45.88291" lon="4.66136">
        <ele>352</ele>
        <time>2018-07-06T10:13:18Z</time>
      </trkpt>
      <trkpt lat="45.88295" lon="4.66136">
        <ele>352</ele>
        <time>2018-07-06T10:13:19Z</time>
      </trkpt>
      <trkpt lat="45.883" lon="4.66136">
        <ele>353</ele>
        <time>2018-07-06T10:13:21Z</time>
      </trkpt>
      <trkpt lat="45.8831" lon="4.66137">
        <ele>353</ele>
        <time>2018-07-06T10:13:22Z</time>
      </trkpt>
      <trkpt lat="45.88318" lon="4.66139">
        <ele>354</ele>
        <time>2018-07-06T10:13:24Z</time>
      </trkpt>
      <trkpt lat="45.8832" lon="4.66139">
        <ele>354</ele>
        <time>2018-07-06T10:13:25Z</time>
      </trkpt>
      <trkpt lat="45.88329" lon="4.66141">
        <ele>354</ele>
        <time>2018-07-06T10:13:29Z</time>
      </trkpt>
      <trkpt lat="45.88331" lon="4.66141">
        <ele>354</ele>
        <time>2018-07-06T10:13:30Z</time>
      </trkpt>
      <trkpt lat="45.88339" lon="4.66142">
        <ele>357</ele>
        <time>2018-07-06T10:13:33Z</time>
      </trkpt>
      <trkpt lat="45.88341" lon="4.66142">
        <ele>357</ele>
        <time>2018-07-06T10:13:34Z</time>
      </trkpt>
      <trkpt lat="45.8835" lon="4.66142">
        <ele>357</ele>
        <time>2018-07-06T10:13:37Z</time>
      </trkpt>
      <trkpt lat="45.88352" lon="4.66142">
        <ele>357</ele>
        <time>2018-07-06T10:13:38Z</time>
      </trkpt>
      <trkpt lat="45.88359" lon="4.66143">
        <ele>357</ele>
        <time>2018-07-06T10:13:41Z</time>
      </trkpt>
      <trkpt lat="45.88362" lon="4.66143">
        <ele>357</ele>
        <time>2018-07-06T10:13:42Z</time>
      </trkpt>
      <trkpt lat="45.88369" lon="4.66143">
        <ele>357</ele>
        <time>2018-07-06T10:13:45Z</time>
      </trkpt>
      <trkpt lat="45.88371" lon="4.66143">
        <ele>357</ele>
        <time>2018-07-06T10:13:46Z</time>
      </trkpt>
      <trkpt lat="45.8838" lon="4.66142">
        <ele>357</ele>
        <time>2018-07-06T10:13:50Z</time>
      </trkpt>
      <trkpt lat="45.88382" lon="4.66142">
        <ele>357</ele>
        <time>2018-07-06T10:13:51Z</time>
      </trkpt>
      <trkpt lat="45.8839" lon="4.66142">
        <ele>358</ele>
        <time>2018-07-06T10:13:55Z</time>
      </trkpt>
      <trkpt lat="45.88392" lon="4.66142">
        <ele>358</ele>
        <time>2018-07-06T10:13:56Z</time>
      </trkpt>
      <trkpt lat="45.88401" lon="4.66142">
        <ele>358</ele>
        <time>2018-07-06T10:14:00Z</time>
      </trkpt>
      <trkpt lat="45.88403" lon="4.66143">
        <ele>358</ele>
        <time>2018-07-06T10:14:01Z</time>
      </trkpt>
      <trkpt lat="45.8841" lon="4.66144">
        <ele>359</ele>
        <time>2018-07-06T10:14:04Z</time>
      </trkpt>
      <trkpt lat="45.88412" lon="4.66144">
        <ele>359</ele>
        <time>2018-07-06T10:14:05Z</time>
      </trkpt>
      <trkpt lat="45.8842" lon="4.66146">
        <ele>361</ele>
        <time>2018-07-06T10:14:08Z</time>
      </trkpt>
      <trkpt lat="45.88422" lon="4.66147">
        <ele>361</ele>
        <time>2018-07-06T10:14:09Z</time>
      </trkpt>
      <trkpt lat="45.8843" lon="4.6615">
        <ele>361</ele>
        <time>2018-07-06T10:14:13Z</time>
      </trkpt>
      <trkpt lat="45.88432" lon="4.6615">
        <ele>361</ele>
        <time>2018-07-06T10:14:14Z</time>
      </trkpt>
      <trkpt lat="45.8844" lon="4.66149">
        <ele>361</ele>
        <time>2018-07-06T10:14:18Z</time>
      </trkpt>
      <trkpt lat="45.88441" lon="4.66149">
        <ele>361</ele>
        <time>2018-07-06T10:14:19Z</time>
      </trkpt>
      <trkpt lat="45.88449" lon="4.66149">
        <ele>361</ele>
        <time>2018-07-06T10:14:23Z</time>
      </trkpt>
      <trkpt lat="45.88451" lon="4.66149">
        <ele>361</ele>
        <time>2018-07-06T10:14:24Z</time>
      </trkpt>
      <trkpt lat="45.88459" lon="4.6615">
        <ele>361</ele>
        <time>2018-07-06T10:14:28Z</time>
      </trkpt>
      <trkpt lat="45.88461" lon="4.66151">
        <ele>361</ele>
        <time>2018-07-06T10:14:29Z</time>
      </trkpt>
      <trkpt lat="45.88468" lon="4.66151">
        <ele>362</ele>
        <time>2018-07-06T10:14:32Z</time>
      </trkpt>
      <trkpt lat="45.8847" lon="4.66151">
        <ele>362</ele>
        <time>2018-07-06T10:14:33Z</time>
      </trkpt>
      <trkpt lat="45.88478" lon="4.66155">
        <ele>363</ele>
        <time>2018-07-06T10:14:37Z</time>
      </trkpt>
      <trkpt lat="45.8848" lon="4.66157">
        <ele>363</ele>
        <time>2018-07-06T10:14:38Z</time>
      </trkpt>
      <trkpt lat="45.88487" lon="4.66162">
        <ele>364</ele>
        <time>2018-07-06T10:14:42Z</time>
      </trkpt>
      <trkpt lat="45.88489" lon="4.66163">
        <ele>364</ele>
        <time>2018-07-06T10:14:43Z</time>
      </trkpt>
      <trkpt lat="45.88496" lon="4.66169">
        <ele>368</ele>
        <time>2018-07-06T10:14:48Z</time>
      </trkpt>
      <trkpt lat="45.88497" lon="4.6617">
        <ele>368</ele>
        <time>2018-07-06T10:14:49Z</time>
      </trkpt>
      <trkpt lat="45.88504" lon="4.66177">
        <ele>368</ele>
        <time>2018-07-06T10:14:54Z</time>
      </trkpt>
      <trkpt lat="45.88506" lon="4.66178">
        <ele>368</ele>
        <time>2018-07-06T10:14:55Z</time>
      </trkpt>
      <trkpt lat="45.88513" lon="4.66182">
        <ele>369</ele>
        <time>2018-07-06T10:14:59Z</time>
      </trkpt>
      <trkpt lat="45.88514" lon="4.66184">
        <ele>369</ele>
        <time>2018-07-06T10:15:00Z</time>
      </trkpt>
      <trkpt lat="45.88522" lon="4.6619">
        <ele>369</ele>
        <time>2018-07-06T10:15:04Z</time>
      </trkpt>
      <trkpt lat="45.88523" lon="4.66192">
        <ele>369</ele>
        <time>2018-07-06T10:15:05Z</time>
      </trkpt>
      <trkpt lat="45.8853" lon="4.66197">
        <ele>370</ele>
        <time>2018-07-06T10:15:09Z</time>
      </trkpt>
      <trkpt lat="45.88532" lon="4.66199">
        <ele>370</ele>
        <time>2018-07-06T10:15:10Z</time>
      </trkpt>
      <trkpt lat="45.88538" lon="4.66204">
        <ele>370</ele>
        <time>2018-07-06T10:15:14Z</time>
      </trkpt>
      <trkpt lat="45.8854" lon="4.66205">
        <ele>370</ele>
        <time>2018-07-06T10:15:15Z</time>
      </trkpt>
      <trkpt lat="45.88546" lon="4.66211">
        <ele>370</ele>
        <time>2018-07-06T10:15:19Z</time>
      </trkpt>
      <trkpt lat="45.88548" lon="4.66213">
        <ele>370</ele>
        <time>2018-07-06T10:15:20Z</time>
      </trkpt>
      <trkpt lat="45.88553" lon="4.66221">
        <ele>370</ele>
        <time>2018-07-06T10:15:24Z</time>
      </trkpt>
      <trkpt lat="45.88555" lon="4.66223">
        <ele>370</ele>
        <time>2018-07-06T10:15:25Z</time>
      </trkpt>
      <trkpt lat="45.88561" lon="4.66231">
        <ele>370</ele>
        <time>2018-07-06T10:15:29Z</time>
      </trkpt>
      <trkpt lat="45.88563" lon="4.66233">
        <ele>371</ele>
        <time>2018-07-06T10:15:30Z</time>
      </trkpt>
      <trkpt lat="45.88568" lon="4.6624">
        <ele>371</ele>
        <time>2018-07-06T10:15:33Z</time>
      </trkpt>
      <trkpt lat="45.88571" lon="4.66242">
        <ele>371</ele>
        <time>2018-07-06T10:15:34Z</time>
      </trkpt>
      <trkpt lat="45.88577" lon="4.66248">
        <ele>371</ele>
        <time>2018-07-06T10:15:37Z</time>
      </trkpt>
      <trkpt lat="45.88579" lon="4.6625">
        <ele>373</ele>
        <time>2018-07-06T10:15:38Z</time>
      </trkpt>
      <trkpt lat="45.88584" lon="4.66258">
        <ele>371</ele>
        <time>2018-07-06T10:15:41Z</time>
      </trkpt>
      <trkpt lat="45.88586" lon="4.6626">
        <ele>371</ele>
        <time>2018-07-06T10:15:42Z</time>
      </trkpt>
      <trkpt lat="45.88592" lon="4.66268">
        <ele>372</ele>
        <time>2018-07-06T10:15:45Z</time>
      </trkpt>
      <trkpt lat="45.88594" lon="4.6627">
        <ele>372</ele>
        <time>2018-07-06T10:15:46Z</time>
      </trkpt>
      <trkpt lat="45.886" lon="4.66279">
        <ele>372</ele>
        <time>2018-07-06T10:15:49Z</time>
      </trkpt>
      <trkpt lat="45.88601" lon="4.66282">
        <ele>372</ele>
        <time>2018-07-06T10:15:50Z</time>
      </trkpt>
      <trkpt lat="45.88606" lon="4.66292">
        <ele>373</ele>
        <time>2018-07-06T10:15:53Z</time>
      </trkpt>
      <trkpt lat="45.88608" lon="4.66296">
        <ele>373</ele>
        <time>2018-07-06T10:15:54Z</time>
      </trkpt>
      <trkpt lat="45.88613" lon="4.66306">
        <ele>374</ele>
        <time>2018-07-06T10:15:57Z</time>
      </trkpt>
      <trkpt lat="45.88614" lon="4.66309">
        <ele>374</ele>
        <time>2018-07-06T10:15:58Z</time>
      </trkpt>
      <trkpt lat="45.88618" lon="4.66317">
        <ele>374</ele>
        <time>2018-07-06T10:16:00Z</time>
      </trkpt>
      <trkpt lat="45.8862" lon="4.6632">
        <ele>374</ele>
        <time>2018-07-06T10:16:01Z</time>
      </trkpt>
      <trkpt lat="45.88626" lon="4.6633">
        <ele>374</ele>
        <time>2018-07-06T10:16:04Z</time>
      </trkpt>
      <trkpt lat="45.88627" lon="4.66333">
        <ele>374</ele>
        <time>2018-07-06T10:16:05Z</time>
      </trkpt>
      <trkpt lat="45.88632" lon="4.66343">
        <ele>380</ele>
        <time>2018-07-06T10:16:08Z</time>
      </trkpt>
      <trkpt lat="45.88634" lon="4.66346">
        <ele>380</ele>
        <time>2018-07-06T10:16:09Z</time>
      </trkpt>
      <trkpt lat="45.8864" lon="4.66355">
        <ele>380</ele>
        <time>2018-07-06T10:16:12Z</time>
      </trkpt>
      <trkpt lat="45.88642" lon="4.66358">
        <ele>380</ele>
        <time>2018-07-06T10:16:13Z</time>
      </trkpt>
      <trkpt lat="45.88647" lon="4.66364">
        <ele>380</ele>
        <time>2018-07-06T10:16:15Z</time>
      </trkpt>
      <trkpt lat="45.88649" lon="4.66367">
        <ele>380</ele>
        <time>2018-07-06T10:16:16Z</time>
      </trkpt>
      <trkpt lat="45.88651" lon="4.6637">
        <ele>380</ele>
        <time>2018-07-06T10:16:17Z</time>
      </trkpt>
      <trkpt lat="45.88658" lon="4.66379">
        <ele>381</ele>
        <time>2018-07-06T10:16:18Z</time>
      </trkpt>
      <trkpt lat="45.88665" lon="4.66386">
        <ele>381</ele>
        <time>2018-07-06T10:16:22Z</time>
      </trkpt>
      <trkpt lat="45.88667" lon="4.66388">
        <ele>378</ele>
        <time>2018-07-06T10:16:23Z</time>
      </trkpt>
      <trkpt lat="45.88673" lon="4.66395">
        <ele>378</ele>
        <time>2018-07-06T10:16:26Z</time>
      </trkpt>
      <trkpt lat="45.88675" lon="4.66397">
        <ele>379</ele>
        <time>2018-07-06T10:16:27Z</time>
      </trkpt>
      <trkpt lat="45.88682" lon="4.66403">
        <ele>379</ele>
        <time>2018-07-06T10:16:30Z</time>
      </trkpt>
      <trkpt lat="45.88684" lon="4.66405">
        <ele>379</ele>
        <time>2018-07-06T10:16:31Z</time>
      </trkpt>
      <trkpt lat="45.88691" lon="4.66411">
        <ele>378</ele>
        <time>2018-07-06T10:16:34Z</time>
      </trkpt>
      <trkpt lat="45.88694" lon="4.66413">
        <ele>378</ele>
        <time>2018-07-06T10:16:35Z</time>
      </trkpt>
      <trkpt lat="45.88701" lon="4.66419">
        <ele>383</ele>
        <time>2018-07-06T10:16:38Z</time>
      </trkpt>
      <trkpt lat="45.88703" lon="4.66421">
        <ele>383</ele>
        <time>2018-07-06T10:16:39Z</time>
      </trkpt>
      <trkpt lat="45.88707" lon="4.66425">
        <ele>383</ele>
        <time>2018-07-06T10:16:41Z</time>
      </trkpt>
      <trkpt lat="45.88715" lon="4.66431">
        <ele>383</ele>
        <time>2018-07-06T10:16:42Z</time>
      </trkpt>
      <trkpt lat="45.8872" lon="4.66438">
        <ele>383</ele>
        <time>2018-07-06T10:16:46Z</time>
      </trkpt>
      <trkpt lat="45.88721" lon="4.6644">
        <ele>383</ele>
        <time>2018-07-06T10:16:47Z</time>
      </trkpt>
      <trkpt lat="45.88726" lon="4.66447">
        <ele>384</ele>
        <time>2018-07-06T10:16:50Z</time>
      </trkpt>
      <trkpt lat="45.88728" lon="4.66449">
        <ele>384</ele>
        <time>2018-07-06T10:16:51Z</time>
      </trkpt>
      <trkpt lat="45.88733" lon="4.66457">
        <ele>384</ele>
        <time>2018-07-06T10:16:54Z</time>
      </trkpt>
      <trkpt lat="45.88735" lon="4.66459">
        <ele>384</ele>
        <time>2018-07-06T10:16:55Z</time>
      </trkpt>
      <trkpt lat="45.88741" lon="4.66464">
        <ele>384</ele>
        <time>2018-07-06T10:16:58Z</time>
      </trkpt>
      <trkpt lat="45.88743" lon="4.66466">
        <ele>385</ele>
        <time>2018-07-06T10:16:59Z</time>
      </trkpt>
      <trkpt lat="45.88749" lon="4.66473">
        <ele>385</ele>
        <time>2018-07-06T10:17:02Z</time>
      </trkpt>
      <trkpt lat="45.88751" lon="4.66475">
        <ele>383</ele>
        <time>2018-07-06T10:17:03Z</time>
      </trkpt>
      <trkpt lat="45.88757" lon="4.66484">
        <ele>384</ele>
        <time>2018-07-06T10:17:07Z</time>
      </trkpt>
      <trkpt lat="45.88758" lon="4.66486">
        <ele>384</ele>
        <time>2018-07-06T10:17:08Z</time>
      </trkpt>
      <trkpt lat="45.88763" lon="4.66495">
        <ele>384</ele>
        <time>2018-07-06T10:17:12Z</time>
      </trkpt>
      <trkpt lat="45.88764" lon="4.66497">
        <ele>384</ele>
        <time>2018-07-06T10:17:13Z</time>
      </trkpt>
      <trkpt lat="45.8877" lon="4.66506">
        <ele>389</ele>
        <time>2018-07-06T10:17:17Z</time>
      </trkpt>
      <trkpt lat="45.88771" lon="4.66508">
        <ele>389</ele>
        <time>2018-07-06T10:17:18Z</time>
      </trkpt>
      <trkpt lat="45.88777" lon="4.66515">
        <ele>390</ele>
        <time>2018-07-06T10:17:22Z</time>
      </trkpt>
      <trkpt lat="45.88779" lon="4.66517">
        <ele>390</ele>
        <time>2018-07-06T10:17:23Z</time>
      </trkpt>
      <trkpt lat="45.88785" lon="4.66524">
        <ele>391</ele>
        <time>2018-07-06T10:17:27Z</time>
      </trkpt>
      <trkpt lat="45.88787" lon="4.66526">
        <ele>391</ele>
        <time>2018-07-06T10:17:28Z</time>
      </trkpt>
      <trkpt lat="45.88794" lon="4.66533">
        <ele>391</ele>
        <time>2018-07-06T10:17:32Z</time>
      </trkpt>
      <trkpt lat="45.88795" lon="4.66534">
        <ele>391</ele>
        <time>2018-07-06T10:17:33Z</time>
      </trkpt>
      <trkpt lat="45.88802" lon="4.6654">
        <ele>391</ele>
        <time>2018-07-06T10:17:37Z</time>
      </trkpt>
      <trkpt lat="45.88804" lon="4.66541">
        <ele>391</ele>
        <time>2018-07-06T10:17:38Z</time>
      </trkpt>
      <trkpt lat="45.88812" lon="4.66546">
        <ele>392</ele>
        <time>2018-07-06T10:17:42Z</time>
      </trkpt>
      <trkpt lat="45.88813" lon="4.66547">
        <ele>392</ele>
        <time>2018-07-06T10:17:43Z</time>
      </trkpt>
      <trkpt lat="45.8882" lon="4.66551">
        <ele>392</ele>
        <time>2018-07-06T10:17:47Z</time>
      </trkpt>
      <trkpt lat="45.88822" lon="4.66552">
        <ele>392</ele>
        <time>2018-07-06T10:17:48Z</time>
      </trkpt>
      <trkpt lat="45.8883" lon="4.66555">
        <ele>393</ele>
        <time>2018-07-06T10:17:53Z</time>
      </trkpt>
      <trkpt lat="45.88832" lon="4.66556">
        <ele>393</ele>
        <time>2018-07-06T10:17:54Z</time>
      </trkpt>
      <trkpt lat="45.88839" lon="4.6656">
        <ele>392</ele>
        <time>2018-07-06T10:17:59Z</time>
      </trkpt>
      <trkpt lat="45.88841" lon="4.66561">
        <ele>392</ele>
        <time>2018-07-06T10:18:00Z</time>
      </trkpt>
      <trkpt lat="45.88847" lon="4.66566">
        <ele>392</ele>
        <time>2018-07-06T10:18:04Z</time>
      </trkpt>
      <trkpt lat="45.88849" lon="4.66568">
        <ele>392</ele>
        <time>2018-07-06T10:18:05Z</time>
      </trkpt>
      <trkpt lat="45.88856" lon="4.66575">
        <ele>392</ele>
        <time>2018-07-06T10:18:09Z</time>
      </trkpt>
      <trkpt lat="45.88858" lon="4.66577">
        <ele>392</ele>
        <time>2018-07-06T10:18:10Z</time>
      </trkpt>
      <trkpt lat="45.88864" lon="4.66584">
        <ele>399</ele>
        <time>2018-07-06T10:18:14Z</time>
      </trkpt>
      <trkpt lat="45.88865" lon="4.66586">
        <ele>399</ele>
        <time>2018-07-06T10:18:15Z</time>
      </trkpt>
      <trkpt lat="45.88871" lon="4.66595">
        <ele>399</ele>
        <time>2018-07-06T10:18:19Z</time>
      </trkpt>
      <trkpt lat="45.88873" lon="4.66596">
        <ele>399</ele>
        <time>2018-07-06T10:18:20Z</time>
      </trkpt>
      <trkpt lat="45.8888" lon="4.66603">
        <ele>400</ele>
        <time>2018-07-06T10:18:25Z</time>
      </trkpt>
      <trkpt lat="45.88882" lon="4.66605">
        <ele>400</ele>
        <time>2018-07-06T10:18:26Z</time>
      </trkpt>
      <trkpt lat="45.88888" lon="4.66614">
        <ele>400</ele>
        <time>2018-07-06T10:18:31Z</time>
      </trkpt>
      <trkpt lat="45.88889" lon="4.66616">
        <ele>400</ele>
        <time>2018-07-06T10:18:32Z</time>
      </trkpt>
      <trkpt lat="45.88894" lon="4.66624">
        <ele>401</ele>
        <time>2018-07-06T10:18:36Z</time>
      </trkpt>
      <trkpt lat="45.88895" lon="4.66626">
        <ele>401</ele>
        <time>2018-07-06T10:18:37Z</time>
      </trkpt>
      <trkpt lat="45.889" lon="4.66634">
        <ele>402</ele>
        <time>2018-07-06T10:18:41Z</time>
      </trkpt>
      <trkpt lat="45.88902" lon="4.66635">
        <ele>402</ele>
        <time>2018-07-06T10:18:42Z</time>
      </trkpt>
      <trkpt lat="45.88908" lon="4.66645">
        <ele>403</ele>
        <time>2018-07-06T10:18:47Z</time>
      </trkpt>
      <trkpt lat="45.88909" lon="4.66646">
        <ele>403</ele>
        <time>2018-07-06T10:18:48Z</time>
      </trkpt>
      <trkpt lat="45.88914" lon="4.66654">
        <ele>404</ele>
        <time>2018-07-06T10:18:52Z</time>
      </trkpt>
      <trkpt lat="45.88916" lon="4.66656">
        <ele>404</ele>
        <time>2018-07-06T10:18:53Z</time>
      </trkpt>
      <trkpt lat="45.88923" lon="4.66662">
        <ele>404</ele>
        <time>2018-07-06T10:18:56Z</time>
      </trkpt>
      <trkpt lat="45.88925" lon="4.66664">
        <ele>404</ele>
        <time>2018-07-06T10:18:57Z</time>
      </trkpt>
      <trkpt lat="45.8893" lon="4.66668">
        <ele>407</ele>
        <time>2018-07-06T10:18:59Z</time>
      </trkpt>
      <trkpt lat="45.88939" lon="4.66675">
        <ele>408</ele>
        <time>2018-07-06T10:19:00Z</time>
      </trkpt>
      <trkpt lat="45.88946" lon="4.66682">
        <ele>408</ele>
        <time>2018-07-06T10:19:04Z</time>
      </trkpt>
      <trkpt lat="45.88948" lon="4.66683">
        <ele>408</ele>
        <time>2018-07-06T10:19:05Z</time>
      </trkpt>
      <trkpt lat="45.88954" lon="4.66688">
        <ele>409</ele>
        <time>2018-07-06T10:19:08Z</time>
      </trkpt>
      <trkpt lat="45.88956" lon="4.6669">
        <ele>409</ele>
        <time>2018-07-06T10:19:09Z</time>
      </trkpt>
      <trkpt lat="45.88963" lon="4.66693">
        <ele>409</ele>
        <time>2018-07-06T10:19:12Z</time>
      </trkpt>
      <trkpt lat="45.88966" lon="4.66694">
        <ele>409</ele>
        <time>2018-07-06T10:19:13Z</time>
      </trkpt>
      <trkpt lat="45.88972" lon="4.66697">
        <ele>409</ele>
        <time>2018-07-06T10:19:16Z</time>
      </trkpt>
      <trkpt lat="45.88975" lon="4.66698">
        <ele>409</ele>
        <time>2018-07-06T10:19:17Z</time>
      </trkpt>
      <trkpt lat="45.88982" lon="4.66702">
        <ele>409</ele>
        <time>2018-07-06T10:19:20Z</time>
      </trkpt>
      <trkpt lat="45.88985" lon="4.66703">
        <ele>409</ele>
        <time>2018-07-06T10:19:21Z</time>
      </trkpt>
      <trkpt lat="45.88991" lon="4.66706">
        <ele>409</ele>
        <time>2018-07-06T10:19:23Z</time>
      </trkpt>
      <trkpt lat="45.88994" lon="4.66707">
        <ele>409</ele>
        <time>2018-07-06T10:19:24Z</time>
      </trkpt>
      <trkpt lat="45.89002" lon="4.66711">
        <ele>407</ele>
        <time>2018-07-06T10:19:27Z</time>
      </trkpt>
      <trkpt lat="45.89005" lon="4.66712">
        <ele>407</ele>
        <time>2018-07-06T10:19:28Z</time>
      </trkpt>
      <trkpt lat="45.89012" lon="4.66715">
        <ele>407</ele>
        <time>2018-07-06T10:19:31Z</time>
      </trkpt>
      <trkpt lat="45.89015" lon="4.66716">
        <ele>407</ele>
        <time>2018-07-06T10:19:32Z</time>
      </trkpt>
      <trkpt lat="45.89023" lon="4.6672">
        <ele>407</ele>
        <time>2018-07-06T10:19:35Z</time>
      </trkpt>
      <trkpt lat="45.89024" lon="4.66721">
        <ele>407</ele>
        <time>2018-07-06T10:19:36Z</time>
      </trkpt>
      <trkpt lat="45.89032" lon="4.66724">
        <ele>407</ele>
        <time>2018-07-06T10:19:39Z</time>
      </trkpt>
      <trkpt lat="45.89037" lon="4.66726">
        <ele>407</ele>
        <time>2018-07-06T10:19:40Z</time>
      </trkpt>
      <trkpt lat="45.89044" lon="4.6673">
        <ele>407</ele>
        <time>2018-07-06T10:19:42Z</time>
      </trkpt>
      <trkpt lat="45.89047" lon="4.66732">
        <ele>407</ele>
        <time>2018-07-06T10:19:43Z</time>
      </trkpt>
      <trkpt lat="45.89054" lon="4.66736">
        <ele>407</ele>
        <time>2018-07-06T10:19:46Z</time>
      </trkpt>
      <trkpt lat="45.89057" lon="4.66737">
        <ele>407</ele>
        <time>2018-07-06T10:19:47Z</time>
      </trkpt>
      <trkpt lat="45.89063" lon="4.66741">
        <ele>407</ele>
        <time>2018-07-06T10:19:49Z</time>
      </trkpt>
      <trkpt lat="45.89065" lon="4.66742">
        <ele>407</ele>
        <time>2018-07-06T10:19:50Z</time>
      </trkpt>
      <trkpt lat="45.8907" lon="4.66749">
        <ele>408</ele>
        <time>2018-07-06T10:19:52Z</time>
      </trkpt>
      <trkpt lat="45.89072" lon="4.66752">
        <ele>411</ele>
        <time>2018-07-06T10:19:53Z</time>
      </trkpt>
      <trkpt lat="45.89077" lon="4.6676">
        <ele>411</ele>
        <time>2018-07-06T10:19:56Z</time>
      </trkpt>
      <trkpt lat="45.89079" lon="4.66763">
        <ele>411</ele>
        <time>2018-07-06T10:19:57Z</time>
      </trkpt>
      <trkpt lat="45.89085" lon="4.66767">
        <ele>409</ele>
        <time>2018-07-06T10:20:00Z</time>
      </trkpt>
      <trkpt lat="45.89087" lon="4.66768">
        <ele>409</ele>
        <time>2018-07-06T10:20:01Z</time>
      </trkpt>
      <trkpt lat="45.89095" lon="4.66774">
        <ele>410</ele>
        <time>2018-07-06T10:20:05Z</time>
      </trkpt>
      <trkpt lat="45.89097" lon="4.66776">
        <ele>410</ele>
        <time>2018-07-06T10:20:06Z</time>
      </trkpt>
      <trkpt lat="45.89101" lon="4.66782">
        <ele>410</ele>
        <time>2018-07-06T10:20:08Z</time>
      </trkpt>
      <trkpt lat="45.89104" lon="4.66785">
        <ele>410</ele>
        <time>2018-07-06T10:20:09Z</time>
      </trkpt>
      <trkpt lat="45.89109" lon="4.66791">
        <ele>410</ele>
        <time>2018-07-06T10:20:11Z</time>
      </trkpt>
      <trkpt lat="45.89112" lon="4.66794">
        <ele>410</ele>
        <time>2018-07-06T10:20:12Z</time>
      </trkpt>
      <trkpt lat="45.89119" lon="4.668">
        <ele>410</ele>
        <time>2018-07-06T10:20:15Z</time>
      </trkpt>
      <trkpt lat="45.89121" lon="4.66803">
        <ele>410</ele>
        <time>2018-07-06T10:20:16Z</time>
      </trkpt>
      <trkpt lat="45.89126" lon="4.6681">
        <ele>411</ele>
        <time>2018-07-06T10:20:19Z</time>
      </trkpt>
      <trkpt lat="45.89126" lon="4.66813">
        <ele>411</ele>
        <time>2018-07-06T10:20:20Z</time>
      </trkpt>
      <trkpt lat="45.89125" lon="4.66822">
        <ele>411</ele>
        <time>2018-07-06T10:20:25Z</time>
      </trkpt>
      <trkpt lat="45.89125" lon="4.66822">
        <ele>411</ele>
        <time>2018-07-06T10:20:26Z</time>
      </trkpt>
      <trkpt lat="45.89125" lon="4.66822">
        <ele>411</ele>
        <time>2018-07-06T10:20:27Z</time>
      </trkpt>
      <trkpt lat="45.89125" lon="4.66822">
        <ele>411</ele>
        <time>2018-07-06T10:20:28Z</time>
      </trkpt>
      <trkpt lat="45.89125" lon="4.66823">
        <ele>411</ele>
        <time>2018-07-06T10:21:03Z</time>
      </trkpt>
      <trkpt lat="45.89126" lon="4.66823">
        <ele>411</ele>
        <time>2018-07-06T10:21:04Z</time>
      </trkpt>
      <trkpt lat="45.8912" lon="4.66821">
        <ele>411</ele>
        <time>2018-07-06T10:27:13Z</time>
      </trkpt>
      <trkpt lat="45.8912" lon="4.66821">
        <ele>411</ele>
        <time>2018-07-06T10:27:14Z</time>
      </trkpt>
      <trkpt lat="45.89126" lon="4.66827">
        <ele>411</ele>
        <time>2018-07-06T10:27:47Z</time>
      </trkpt>
      <trkpt lat="45.89129" lon="4.66828">
        <ele>411</ele>
        <time>2018-07-06T10:27:48Z</time>
      </trkpt>
      <trkpt lat="45.89136" lon="4.66831">
        <ele>411</ele>
        <time>2018-07-06T10:27:52Z</time>
      </trkpt>
      <trkpt lat="45.89147" lon="4.66835">
        <ele>414</ele>
        <time>2018-07-06T10:27:53Z</time>
      </trkpt>
      <trkpt lat="45.89153" lon="4.66841">
        <ele>414</ele>
        <time>2018-07-06T10:27:55Z</time>
      </trkpt>
      <trkpt lat="45.89155" lon="4.66843">
        <ele>414</ele>
        <time>2018-07-06T10:27:56Z</time>
      </trkpt>
      <trkpt lat="45.89157" lon="4.66854">
        <ele>414</ele>
        <time>2018-07-06T10:27:58Z</time>
      </trkpt>
      <trkpt lat="45.89157" lon="4.66857">
        <ele>414</ele>
        <time>2018-07-06T10:27:59Z</time>
      </trkpt>
      <trkpt lat="45.89157" lon="4.6687">
        <ele>414</ele>
        <time>2018-07-06T10:28:01Z</time>
      </trkpt>
      <trkpt lat="45.89156" lon="4.66871">
        <ele>414</ele>
        <time>2018-07-06T10:28:02Z</time>
      </trkpt>
      <trkpt lat="45.89155" lon="4.66882">
        <ele>414</ele>
        <time>2018-07-06T10:28:04Z</time>
      </trkpt>
      <trkpt lat="45.89156" lon="4.66886">
        <ele>414</ele>
        <time>2018-07-06T10:28:05Z</time>
      </trkpt>
      <trkpt lat="45.89159" lon="4.66897">
        <ele>415</ele>
        <time>2018-07-06T10:28:07Z</time>
      </trkpt>
      <trkpt lat="45.8916" lon="4.66902">
        <ele>415</ele>
        <time>2018-07-06T10:28:08Z</time>
      </trkpt>
      <trkpt lat="45.89162" lon="4.66908">
        <ele>415</ele>
        <time>2018-07-06T10:28:09Z</time>
      </trkpt>
      <trkpt lat="45.89166" lon="4.66913">
        <ele>415</ele>
        <time>2018-07-06T10:28:10Z</time>
      </trkpt>
      <trkpt lat="45.8917" lon="4.66921">
        <ele>415</ele>
        <time>2018-07-06T10:28:12Z</time>
      </trkpt>
      <trkpt lat="45.8917" lon="4.66927">
        <ele>415</ele>
        <time>2018-07-06T10:28:13Z</time>
      </trkpt>
      <trkpt lat="45.89173" lon="4.66938">
        <ele>415</ele>
        <time>2018-07-06T10:28:15Z</time>
      </trkpt>
      <trkpt lat="45.89173" lon="4.66941">
        <ele>415</ele>
        <time>2018-07-06T10:28:16Z</time>
      </trkpt>
      <trkpt lat="45.89174" lon="4.66949">
        <ele>415</ele>
        <time>2018-07-06T10:28:17Z</time>
      </trkpt>
      <trkpt lat="45.89175" lon="4.66955">
        <ele>415</ele>
        <time>2018-07-06T10:28:18Z</time>
      </trkpt>
      <trkpt lat="45.89176" lon="4.66967">
        <ele>415</ele>
        <time>2018-07-06T10:28:20Z</time>
      </trkpt>
      <trkpt lat="45.89178" lon="4.66972">
        <ele>415</ele>
        <time>2018-07-06T10:28:21Z</time>
      </trkpt>
      <trkpt lat="45.89179" lon="4.66979">
        <ele>414</ele>
        <time>2018-07-06T10:28:22Z</time>
      </trkpt>
      <trkpt lat="45.8918" lon="4.66985">
        <ele>414</ele>
        <time>2018-07-06T10:28:23Z</time>
      </trkpt>
      <trkpt lat="45.89184" lon="4.66996">
        <ele>414</ele>
        <time>2018-07-06T10:28:25Z</time>
      </trkpt>
      <trkpt lat="45.89184" lon="4.67003">
        <ele>412</ele>
        <time>2018-07-06T10:28:26Z</time>
      </trkpt>
      <trkpt lat="45.89188" lon="4.67014">
        <ele>413</ele>
        <time>2018-07-06T10:28:28Z</time>
      </trkpt>
      <trkpt lat="45.8919" lon="4.6702">
        <ele>413</ele>
        <time>2018-07-06T10:28:29Z</time>
      </trkpt>
      <trkpt lat="45.89193" lon="4.6703">
        <ele>413</ele>
        <time>2018-07-06T10:28:31Z</time>
      </trkpt>
      <trkpt lat="45.89194" lon="4.67036">
        <ele>413</ele>
        <time>2018-07-06T10:28:32Z</time>
      </trkpt>
      <trkpt lat="45.89199" lon="4.67047">
        <ele>413</ele>
        <time>2018-07-06T10:28:34Z</time>
      </trkpt>
      <trkpt lat="45.89201" lon="4.67052">
        <ele>413</ele>
        <time>2018-07-06T10:28:35Z</time>
      </trkpt>
      <trkpt lat="45.89202" lon="4.67059">
        <ele>412</ele>
        <time>2018-07-06T10:28:36Z</time>
      </trkpt>
      <trkpt lat="45.89204" lon="4.67067">
        <ele>412</ele>
        <time>2018-07-06T10:28:37Z</time>
      </trkpt>
      <trkpt lat="45.89211" lon="4.67073">
        <ele>413</ele>
        <time>2018-07-06T10:28:39Z</time>
      </trkpt>
      <trkpt lat="45.89211" lon="4.67079">
        <ele>413</ele>
        <time>2018-07-06T10:28:40Z</time>
      </trkpt>
      <trkpt lat="45.89214" lon="4.67086">
        <ele>411</ele>
        <time>2018-07-06T10:28:41Z</time>
      </trkpt>
      <trkpt lat="45.89215" lon="4.67093">
        <ele>411</ele>
        <time>2018-07-06T10:28:42Z</time>
      </trkpt>
      <trkpt lat="45.89218" lon="4.67098">
        <ele>411</ele>
        <time>2018-07-06T10:28:43Z</time>
      </trkpt>
      <trkpt lat="45.89221" lon="4.67104">
        <ele>411</ele>
        <time>2018-07-06T10:28:44Z</time>
      </trkpt>
      <trkpt lat="45.89223" lon="4.6711">
        <ele>411</ele>
        <time>2018-07-06T10:28:45Z</time>
      </trkpt>
      <trkpt lat="45.89225" lon="4.67116">
        <ele>411</ele>
        <time>2018-07-06T10:28:46Z</time>
      </trkpt>
      <trkpt lat="45.89231" lon="4.67126">
        <ele>411</ele>
        <time>2018-07-06T10:28:48Z</time>
      </trkpt>
      <trkpt lat="45.89234" lon="4.6713">
        <ele>411</ele>
        <time>2018-07-06T10:28:49Z</time>
      </trkpt>
      <trkpt lat="45.89236" lon="4.67136">
        <ele>411</ele>
        <time>2018-07-06T10:28:50Z</time>
      </trkpt>
      <trkpt lat="45.89239" lon="4.67142">
        <ele>411</ele>
        <time>2018-07-06T10:28:51Z</time>
      </trkpt>
      <trkpt lat="45.89245" lon="4.67151">
        <ele>411</ele>
        <time>2018-07-06T10:28:53Z</time>
      </trkpt>
      <trkpt lat="45.89248" lon="4.67156">
        <ele>412</ele>
        <time>2018-07-06T10:28:54Z</time>
      </trkpt>
      <trkpt lat="45.89252" lon="4.67162">
        <ele>414</ele>
        <time>2018-07-06T10:28:55Z</time>
      </trkpt>
      <trkpt lat="45.89256" lon="4.67166">
        <ele>414</ele>
        <time>2018-07-06T10:28:56Z</time>
      </trkpt>
      <trkpt lat="45.8926" lon="4.67171">
        <ele>412</ele>
        <time>2018-07-06T10:28:57Z</time>
      </trkpt>
      <trkpt lat="45.89265" lon="4.67174">
        <ele>412</ele>
        <time>2018-07-06T10:28:58Z</time>
      </trkpt>
      <trkpt lat="45.89269" lon="4.67179">
        <ele>412</ele>
        <time>2018-07-06T10:28:59Z</time>
      </trkpt>
      <trkpt lat="45.89275" lon="4.67183">
        <ele>412</ele>
        <time>2018-07-06T10:29:00Z</time>
      </trkpt>
      <trkpt lat="45.89279" lon="4.67186">
        <ele>412</ele>
        <time>2018-07-06T10:29:01Z</time>
      </trkpt>
      <trkpt lat="45.89283" lon="4.67189">
        <ele>412</ele>
        <time>2018-07-06T10:29:02Z</time>
      </trkpt>
      <trkpt lat="45.89288" lon="4.67192">
        <ele>412</ele>
        <time>2018-07-06T10:29:03Z</time>
      </trkpt>
      <trkpt lat="45.89294" lon="4.67195">
        <ele>412</ele>
        <time>2018-07-06T10:29:04Z</time>
      </trkpt>
      <trkpt lat="45.89299" lon="4.67198">
        <ele>412</ele>
        <time>2018-07-06T10:29:05Z</time>
      </trkpt>
      <trkpt lat="45.89305" lon="4.67202">
        <ele>412</ele>
        <time>2018-07-06T10:29:06Z</time>
      </trkpt>
      <trkpt lat="45.89308" lon="4.67203">
        <ele>412</ele>
        <time>2018-07-06T10:29:07Z</time>
      </trkpt>
      <trkpt lat="45.89314" lon="4.67206">
        <ele>412</ele>
        <time>2018-07-06T10:29:08Z</time>
      </trkpt>
      <trkpt lat="45.8932" lon="4.6721">
        <ele>411</ele>
        <time>2018-07-06T10:29:09Z</time>
      </trkpt>
      <trkpt lat="45.89324" lon="4.67214">
        <ele>411</ele>
        <time>2018-07-06T10:29:10Z</time>
      </trkpt>
      <trkpt lat="45.89331" lon="4.67217">
        <ele>411</ele>
        <time>2018-07-06T10:29:11Z</time>
      </trkpt>
      <trkpt lat="45.89336" lon="4.6722">
        <ele>415</ele>
        <time>2018-07-06T10:29:12Z</time>
      </trkpt>
      <trkpt lat="45.89341" lon="4.67223">
        <ele>415</ele>
        <time>2018-07-06T10:29:13Z</time>
      </trkpt>
      <trkpt lat="45.89346" lon="4.67226">
        <ele>415</ele>
        <time>2018-07-06T10:29:14Z</time>
      </trkpt>
      <trkpt lat="45.89352" lon="4.67228">
        <ele>415</ele>
        <time>2018-07-06T10:29:15Z</time>
      </trkpt>
      <trkpt lat="45.89357" lon="4.67236">
        <ele>415</ele>
        <time>2018-07-06T10:29:16Z</time>
      </trkpt>
      <trkpt lat="45.8936" lon="4.67242">
        <ele>415</ele>
        <time>2018-07-06T10:29:17Z</time>
      </trkpt>
      <trkpt lat="45.89363" lon="4.6725">
        <ele>409</ele>
        <time>2018-07-06T10:29:18Z</time>
      </trkpt>
      <trkpt lat="45.89366" lon="4.67259">
        <ele>409</ele>
        <time>2018-07-06T10:29:19Z</time>
      </trkpt>
      <trkpt lat="45.8937" lon="4.67265">
        <ele>409</ele>
        <time>2018-07-06T10:29:20Z</time>
      </trkpt>
      <trkpt lat="45.89373" lon="4.67272">
        <ele>409</ele>
        <time>2018-07-06T10:29:21Z</time>
      </trkpt>
      <trkpt lat="45.89375" lon="4.67276">
        <ele>408</ele>
        <time>2018-07-06T10:29:22Z</time>
      </trkpt>
      <trkpt lat="45.89381" lon="4.67284">
        <ele>408</ele>
        <time>2018-07-06T10:29:23Z</time>
      </trkpt>
      <trkpt lat="45.89384" lon="4.67289">
        <ele>408</ele>
        <time>2018-07-06T10:29:24Z</time>
      </trkpt>
      <trkpt lat="45.89386" lon="4.67296">
        <ele>408</ele>
        <time>2018-07-06T10:29:25Z</time>
      </trkpt>
      <trkpt lat="45.89391" lon="4.67302">
        <ele>408</ele>
        <time>2018-07-06T10:29:26Z</time>
      </trkpt>
      <trkpt lat="45.89397" lon="4.67309">
        <ele>407</ele>
        <time>2018-07-06T10:29:27Z</time>
      </trkpt>
      <trkpt lat="45.89402" lon="4.67314">
        <ele>407</ele>
        <time>2018-07-06T10:29:28Z</time>
      </trkpt>
      <trkpt lat="45.89407" lon="4.67319">
        <ele>407</ele>
        <time>2018-07-06T10:29:29Z</time>
      </trkpt>
      <trkpt lat="45.89412" lon="4.67325">
        <ele>407</ele>
        <time>2018-07-06T10:29:30Z</time>
      </trkpt>
      <trkpt lat="45.89416" lon="4.67331">
        <ele>407</ele>
        <time>2018-07-06T10:29:31Z</time>
      </trkpt>
      <trkpt lat="45.89419" lon="4.67337">
        <ele>407</ele>
        <time>2018-07-06T10:29:32Z</time>
      </trkpt>
      <trkpt lat="45.89425" lon="4.67343">
        <ele>407</ele>
        <time>2018-07-06T10:29:33Z</time>
      </trkpt>
      <trkpt lat="45.89429" lon="4.67348">
        <ele>407</ele>
        <time>2018-07-06T10:29:34Z</time>
      </trkpt>
      <trkpt lat="45.89435" lon="4.67354">
        <ele>407</ele>
        <time>2018-07-06T10:29:35Z</time>
      </trkpt>
      <trkpt lat="45.89442" lon="4.67361">
        <ele>407</ele>
        <time>2018-07-06T10:29:36Z</time>
      </trkpt>
      <trkpt lat="45.89447" lon="4.67366">
        <ele>407</ele>
        <time>2018-07-06T10:29:37Z</time>
      </trkpt>
      <trkpt lat="45.89455" lon="4.67371">
        <ele>407</ele>
        <time>2018-07-06T10:29:38Z</time>
      </trkpt>
      <trkpt lat="45.89462" lon="4.67376">
        <ele>407</ele>
        <time>2018-07-06T10:29:39Z</time>
      </trkpt>
      <trkpt lat="45.89467" lon="4.67381">
        <ele>407</ele>
        <time>2018-07-06T10:29:40Z</time>
      </trkpt>
      <trkpt lat="45.89473" lon="4.67385">
        <ele>407</ele>
        <time>2018-07-06T10:29:41Z</time>
      </trkpt>
      <trkpt lat="45.89479" lon="4.67389">
        <ele>407</ele>
        <time>2018-07-06T10:29:42Z</time>
      </trkpt>
      <trkpt lat="45.89485" lon="4.67394">
        <ele>406</ele>
        <time>2018-07-06T10:29:43Z</time>
      </trkpt>
      <trkpt lat="45.89492" lon="4.67398">
        <ele>406</ele>
        <time>2018-07-06T10:29:44Z</time>
      </trkpt>
      <trkpt lat="45.89499" lon="4.67404">
        <ele>405</ele>
        <time>2018-07-06T10:29:45Z</time>
      </trkpt>
      <trkpt lat="45.89505" lon="4.67407">
        <ele>407</ele>
        <time>2018-07-06T10:29:46Z</time>
      </trkpt>
      <trkpt lat="45.89511" lon="4.67412">
        <ele>407</ele>
        <time>2018-07-06T10:29:47Z</time>
      </trkpt>
      <trkpt lat="45.89518" lon="4.67417">
        <ele>408</ele>
        <time>2018-07-06T10:29:48Z</time>
      </trkpt>
      <trkpt lat="45.89525" lon="4.67419">
        <ele>402</ele>
        <time>2018-07-06T10:29:49Z</time>
      </trkpt>
      <trkpt lat="45.89532" lon="4.67425">
        <ele>402</ele>
        <time>2018-07-06T10:29:50Z</time>
      </trkpt>
      <trkpt lat="45.89538" lon="4.67429">
        <ele>402</ele>
        <time>2018-07-06T10:29:51Z</time>
      </trkpt>
      <trkpt lat="45.89545" lon="4.67432">
        <ele>402</ele>
        <time>2018-07-06T10:29:52Z</time>
      </trkpt>
      <trkpt lat="45.89551" lon="4.67434">
        <ele>402</ele>
        <time>2018-07-06T10:29:53Z</time>
      </trkpt>
      <trkpt lat="45.8956" lon="4.67437">
        <ele>403</ele>
        <time>2018-07-06T10:29:54Z</time>
      </trkpt>
      <trkpt lat="45.89568" lon="4.67438">
        <ele>403</ele>
        <time>2018-07-06T10:29:55Z</time>
      </trkpt>
      <trkpt lat="45.89571" lon="4.6744">
        <ele>403</ele>
        <time>2018-07-06T10:29:56Z</time>
      </trkpt>
      <trkpt lat="45.89578" lon="4.67443">
        <ele>403</ele>
        <time>2018-07-06T10:29:57Z</time>
      </trkpt>
      <trkpt lat="45.89584" lon="4.67445">
        <ele>404</ele>
        <time>2018-07-06T10:29:58Z</time>
      </trkpt>
      <trkpt lat="45.89593" lon="4.67449">
        <ele>404</ele>
        <time>2018-07-06T10:29:59Z</time>
      </trkpt>
      <trkpt lat="45.896" lon="4.67449">
        <ele>404</ele>
        <time>2018-07-06T10:30:00Z</time>
      </trkpt>
      <trkpt lat="45.89607" lon="4.67451">
        <ele>404</ele>
        <time>2018-07-06T10:30:01Z</time>
      </trkpt>
      <trkpt lat="45.89614" lon="4.67454">
        <ele>403</ele>
        <time>2018-07-06T10:30:02Z</time>
      </trkpt>
      <trkpt lat="45.8962" lon="4.67457">
        <ele>403</ele>
        <time>2018-07-06T10:30:03Z</time>
      </trkpt>
      <trkpt lat="45.89626" lon="4.67459">
        <ele>403</ele>
        <time>2018-07-06T10:30:04Z</time>
      </trkpt>
      <trkpt lat="45.89633" lon="4.67461">
        <ele>403</ele>
        <time>2018-07-06T10:30:05Z</time>
      </trkpt>
      <trkpt lat="45.8964" lon="4.67464">
        <ele>403</ele>
        <time>2018-07-06T10:30:06Z</time>
      </trkpt>
      <trkpt lat="45.89646" lon="4.67463">
        <ele>403</ele>
        <time>2018-07-06T10:30:07Z</time>
      </trkpt>
      <trkpt lat="45.89652" lon="4.67468">
        <ele>403</ele>
        <time>2018-07-06T10:30:08Z</time>
      </trkpt>
      <trkpt lat="45.89659" lon="4.67472">
        <ele>402</ele>
        <time>2018-07-06T10:30:09Z</time>
      </trkpt>
      <trkpt lat="45.89667" lon="4.67476">
        <ele>402</ele>
        <time>2018-07-06T10:30:10Z</time>
      </trkpt>
      <trkpt lat="45.89674" lon="4.67481">
        <ele>402</ele>
        <time>2018-07-06T10:30:11Z</time>
      </trkpt>
      <trkpt lat="45.8968" lon="4.67482">
        <ele>402</ele>
        <time>2018-07-06T10:30:12Z</time>
      </trkpt>
      <trkpt lat="45.89686" lon="4.67485">
        <ele>402</ele>
        <time>2018-07-06T10:30:13Z</time>
      </trkpt>
      <trkpt lat="45.89692" lon="4.67487">
        <ele>402</ele>
        <time>2018-07-06T10:30:14Z</time>
      </trkpt>
      <trkpt lat="45.89699" lon="4.67488">
        <ele>402</ele>
        <time>2018-07-06T10:30:15Z</time>
      </trkpt>
      <trkpt lat="45.89708" lon="4.67489">
        <ele>402</ele>
        <time>2018-07-06T10:30:16Z</time>
      </trkpt>
      <trkpt lat="45.89715" lon="4.67491">
        <ele>402</ele>
        <time>2018-07-06T10:30:17Z</time>
      </trkpt>
      <trkpt lat="45.89721" lon="4.67492">
        <ele>402</ele>
        <time>2018-07-06T10:30:18Z</time>
      </trkpt>
      <trkpt lat="45.89728" lon="4.67494">
        <ele>402</ele>
        <time>2018-07-06T10:30:19Z</time>
      </trkpt>
      <trkpt lat="45.89734" lon="4.67495">
        <ele>401</ele>
        <time>2018-07-06T10:30:20Z</time>
      </trkpt>
      <trkpt lat="45.89742" lon="4.67496">
        <ele>400</ele>
        <time>2018-07-06T10:30:21Z</time>
      </trkpt>
      <trkpt lat="45.89748" lon="4.67495">
        <ele>400</ele>
        <time>2018-07-06T10:30:22Z</time>
      </trkpt>
      <trkpt lat="45.89755" lon="4.67496">
        <ele>399</ele>
        <time>2018-07-06T10:30:23Z</time>
      </trkpt>
      <trkpt lat="45.89763" lon="4.67495">
        <ele>399</ele>
        <time>2018-07-06T10:30:24Z</time>
      </trkpt>
      <trkpt lat="45.8977" lon="4.67496">
        <ele>399</ele>
        <time>2018-07-06T10:30:25Z</time>
      </trkpt>
      <trkpt lat="45.89776" lon="4.67493">
        <ele>399</ele>
        <time>2018-07-06T10:30:26Z</time>
      </trkpt>
      <trkpt lat="45.89783" lon="4.67492">
        <ele>399</ele>
        <time>2018-07-06T10:30:27Z</time>
      </trkpt>
      <trkpt lat="45.89791" lon="4.67487">
        <ele>399</ele>
        <time>2018-07-06T10:30:28Z</time>
      </trkpt>
      <trkpt lat="45.89797" lon="4.67482">
        <ele>399</ele>
        <time>2018-07-06T10:30:29Z</time>
      </trkpt>
      <trkpt lat="45.89803" lon="4.67475">
        <ele>399</ele>
        <time>2018-07-06T10:30:30Z</time>
      </trkpt>
      <trkpt lat="45.89808" lon="4.67466">
        <ele>399</ele>
        <time>2018-07-06T10:30:31Z</time>
      </trkpt>
      <trkpt lat="45.89811" lon="4.67454">
        <ele>399</ele>
        <time>2018-07-06T10:30:32Z</time>
      </trkpt>
      <trkpt lat="45.89815" lon="4.67444">
        <ele>399</ele>
        <time>2018-07-06T10:30:33Z</time>
      </trkpt>
      <trkpt lat="45.89817" lon="4.67433">
        <ele>399</ele>
        <time>2018-07-06T10:30:34Z</time>
      </trkpt>
      <trkpt lat="45.8982" lon="4.67422">
        <ele>398</ele>
        <time>2018-07-06T10:30:35Z</time>
      </trkpt>
      <trkpt lat="45.89822" lon="4.67412">
        <ele>401</ele>
        <time>2018-07-06T10:30:36Z</time>
      </trkpt>
      <trkpt lat="45.89822" lon="4.674">
        <ele>402</ele>
        <time>2018-07-06T10:30:37Z</time>
      </trkpt>
      <trkpt lat="45.89823" lon="4.67388">
        <ele>404</ele>
        <time>2018-07-06T10:30:38Z</time>
      </trkpt>
      <trkpt lat="45.89828" lon="4.67379">
        <ele>404</ele>
        <time>2018-07-06T10:30:39Z</time>
      </trkpt>
      <trkpt lat="45.89836" lon="4.67375">
        <ele>398</ele>
        <time>2018-07-06T10:30:40Z</time>
      </trkpt>
      <trkpt lat="45.8984" lon="4.67366">
        <ele>399</ele>
        <time>2018-07-06T10:30:41Z</time>
      </trkpt>
      <trkpt lat="45.89845" lon="4.67357">
        <ele>400</ele>
        <time>2018-07-06T10:30:42Z</time>
      </trkpt>
      <trkpt lat="45.89851" lon="4.67348">
        <ele>400</ele>
        <time>2018-07-06T10:30:43Z</time>
      </trkpt>
      <trkpt lat="45.89858" lon="4.67344">
        <ele>400</ele>
        <time>2018-07-06T10:30:44Z</time>
      </trkpt>
      <trkpt lat="45.89868" lon="4.67343">
        <ele>399</ele>
        <time>2018-07-06T10:30:45Z</time>
      </trkpt>
      <trkpt lat="45.89877" lon="4.6734">
        <ele>399</ele>
        <time>2018-07-06T10:30:46Z</time>
      </trkpt>
      <trkpt lat="45.89884" lon="4.67338">
        <ele>399</ele>
        <time>2018-07-06T10:30:47Z</time>
      </trkpt>
      <trkpt lat="45.89891" lon="4.67342">
        <ele>399</ele>
        <time>2018-07-06T10:30:48Z</time>
      </trkpt>
      <trkpt lat="45.89901" lon="4.67344">
        <ele>399</ele>
        <time>2018-07-06T10:30:49Z</time>
      </trkpt>
      <trkpt lat="45.89908" lon="4.67347">
        <ele>399</ele>
        <time>2018-07-06T10:30:50Z</time>
      </trkpt>
      <trkpt lat="45.89918" lon="4.67351">
        <ele>397</ele>
        <time>2018-07-06T10:30:51Z</time>
      </trkpt>
      <trkpt lat="45.89925" lon="4.67355">
        <ele>396</ele>
        <time>2018-07-06T10:30:52Z</time>
      </trkpt>
      <trkpt lat="45.89933" lon="4.67359">
        <ele>395</ele>
        <time>2018-07-06T10:30:53Z</time>
      </trkpt>
      <trkpt lat="45.89942" lon="4.67362">
        <ele>395</ele>
        <time>2018-07-06T10:30:54Z</time>
      </trkpt>
      <trkpt lat="45.89951" lon="4.67364">
        <ele>395</ele>
        <time>2018-07-06T10:30:55Z</time>
      </trkpt>
      <trkpt lat="45.89959" lon="4.67367">
        <ele>394</ele>
        <time>2018-07-06T10:30:56Z</time>
      </trkpt>
      <trkpt lat="45.89967" lon="4.6737">
        <ele>394</ele>
        <time>2018-07-06T10:30:57Z</time>
      </trkpt>
      <trkpt lat="45.89976" lon="4.67373">
        <ele>394</ele>
        <time>2018-07-06T10:30:58Z</time>
      </trkpt>
      <trkpt lat="45.89984" lon="4.67375">
        <ele>394</ele>
        <time>2018-07-06T10:30:59Z</time>
      </trkpt>
      <trkpt lat="45.89992" lon="4.67378">
        <ele>393</ele>
        <time>2018-07-06T10:31:00Z</time>
      </trkpt>
      <trkpt lat="45.90001" lon="4.67383">
        <ele>396</ele>
        <time>2018-07-06T10:31:01Z</time>
      </trkpt>
      <trkpt lat="45.90009" lon="4.67387">
        <ele>395</ele>
        <time>2018-07-06T10:31:02Z</time>
      </trkpt>
      <trkpt lat="45.90019" lon="4.67396">
        <ele>394</ele>
        <time>2018-07-06T10:31:03Z</time>
      </trkpt>
      <trkpt lat="45.90028" lon="4.67405">
        <ele>394</ele>
        <time>2018-07-06T10:31:04Z</time>
      </trkpt>
      <trkpt lat="45.90035" lon="4.67412">
        <ele>395</ele>
        <time>2018-07-06T10:31:05Z</time>
      </trkpt>
      <trkpt lat="45.90043" lon="4.6742">
        <ele>385</ele>
        <time>2018-07-06T10:31:06Z</time>
      </trkpt>
      <trkpt lat="45.90051" lon="4.67429">
        <ele>385</ele>
        <time>2018-07-06T10:31:07Z</time>
      </trkpt>
      <trkpt lat="45.90056" lon="4.67437">
        <ele>385</ele>
        <time>2018-07-06T10:31:08Z</time>
      </trkpt>
      <trkpt lat="45.90064" lon="4.67445">
        <ele>385</ele>
        <time>2018-07-06T10:31:09Z</time>
      </trkpt>
      <trkpt lat="45.90071" lon="4.67455">
        <ele>383</ele>
        <time>2018-07-06T10:31:10Z</time>
      </trkpt>
      <trkpt lat="45.9008" lon="4.67463">
        <ele>382</ele>
        <time>2018-07-06T10:31:11Z</time>
      </trkpt>
      <trkpt lat="45.90087" lon="4.67472">
        <ele>386</ele>
        <time>2018-07-06T10:31:12Z</time>
      </trkpt>
      <trkpt lat="45.90096" lon="4.67478">
        <ele>385</ele>
        <time>2018-07-06T10:31:13Z</time>
      </trkpt>
      <trkpt lat="45.90104" lon="4.67486">
        <ele>385</ele>
        <time>2018-07-06T10:31:14Z</time>
      </trkpt>
      <trkpt lat="45.90111" lon="4.67496">
        <ele>385</ele>
        <time>2018-07-06T10:31:15Z</time>
      </trkpt>
      <trkpt lat="45.9012" lon="4.67504">
        <ele>378</ele>
        <time>2018-07-06T10:31:16Z</time>
      </trkpt>
      <trkpt lat="45.90126" lon="4.67512">
        <ele>378</ele>
        <time>2018-07-06T10:31:17Z</time>
      </trkpt>
      <trkpt lat="45.9013" lon="4.67522">
        <ele>378</ele>
        <time>2018-07-06T10:31:18Z</time>
      </trkpt>
      <trkpt lat="45.90135" lon="4.67533">
        <ele>378</ele>
        <time>2018-07-06T10:31:19Z</time>
      </trkpt>
      <trkpt lat="45.90142" lon="4.67544">
        <ele>377</ele>
        <time>2018-07-06T10:31:20Z</time>
      </trkpt>
      <trkpt lat="45.90146" lon="4.67555">
        <ele>377</ele>
        <time>2018-07-06T10:31:21Z</time>
      </trkpt>
      <trkpt lat="45.90151" lon="4.67567">
        <ele>376</ele>
        <time>2018-07-06T10:31:22Z</time>
      </trkpt>
      <trkpt lat="45.90156" lon="4.67577">
        <ele>376</ele>
        <time>2018-07-06T10:31:23Z</time>
      </trkpt>
      <trkpt lat="45.90164" lon="4.67585">
        <ele>375</ele>
        <time>2018-07-06T10:31:24Z</time>
      </trkpt>
      <trkpt lat="45.9017" lon="4.67593">
        <ele>376</ele>
        <time>2018-07-06T10:31:25Z</time>
      </trkpt>
      <trkpt lat="45.90175" lon="4.67602">
        <ele>376</ele>
        <time>2018-07-06T10:31:26Z</time>
      </trkpt>
      <trkpt lat="45.90181" lon="4.67609">
        <ele>376</ele>
        <time>2018-07-06T10:31:27Z</time>
      </trkpt>
      <trkpt lat="45.90189" lon="4.67616">
        <ele>376</ele>
        <time>2018-07-06T10:31:28Z</time>
      </trkpt>
      <trkpt lat="45.90196" lon="4.67624">
        <ele>376</ele>
        <time>2018-07-06T10:31:29Z</time>
      </trkpt>
      <trkpt lat="45.90204" lon="4.67634">
        <ele>375</ele>
        <time>2018-07-06T10:31:30Z</time>
      </trkpt>
      <trkpt lat="45.90212" lon="4.67641">
        <ele>375</ele>
        <time>2018-07-06T10:31:31Z</time>
      </trkpt>
      <trkpt lat="45.9022" lon="4.67648">
        <ele>375</ele>
        <time>2018-07-06T10:31:32Z</time>
      </trkpt>
      <trkpt lat="45.90227" lon="4.67655">
        <ele>375</ele>
        <time>2018-07-06T10:31:33Z</time>
      </trkpt>
      <trkpt lat="45.90235" lon="4.67662">
        <ele>375</ele>
        <time>2018-07-06T10:31:34Z</time>
      </trkpt>
      <trkpt lat="45.90242" lon="4.67668">
        <ele>373</ele>
        <time>2018-07-06T10:31:35Z</time>
      </trkpt>
      <trkpt lat="45.9025" lon="4.67673">
        <ele>374</ele>
        <time>2018-07-06T10:31:36Z</time>
      </trkpt>
      <trkpt lat="45.90258" lon="4.67677">
        <ele>374</ele>
        <time>2018-07-06T10:31:37Z</time>
      </trkpt>
      <trkpt lat="45.90265" lon="4.67681">
        <ele>374</ele>
        <time>2018-07-06T10:31:38Z</time>
      </trkpt>
      <trkpt lat="45.90273" lon="4.67685">
        <ele>374</ele>
        <time>2018-07-06T10:31:39Z</time>
      </trkpt>
      <trkpt lat="45.90282" lon="4.67689">
        <ele>374</ele>
        <time>2018-07-06T10:31:40Z</time>
      </trkpt>
      <trkpt lat="45.90289" lon="4.6769">
        <ele>374</ele>
        <time>2018-07-06T10:31:41Z</time>
      </trkpt>
      <trkpt lat="45.90296" lon="4.67695">
        <ele>374</ele>
        <time>2018-07-06T10:31:42Z</time>
      </trkpt>
      <trkpt lat="45.90305" lon="4.67698">
        <ele>374</ele>
        <time>2018-07-06T10:31:43Z</time>
      </trkpt>
      <trkpt lat="45.90313" lon="4.67702">
        <ele>374</ele>
        <time>2018-07-06T10:31:44Z</time>
      </trkpt>
      <trkpt lat="45.90321" lon="4.67704">
        <ele>374</ele>
        <time>2018-07-06T10:31:45Z</time>
      </trkpt>
      <trkpt lat="45.90331" lon="4.67707">
        <ele>374</ele>
        <time>2018-07-06T10:31:46Z</time>
      </trkpt>
      <trkpt lat="45.90339" lon="4.67709">
        <ele>372</ele>
        <time>2018-07-06T10:31:47Z</time>
      </trkpt>
      <trkpt lat="45.90347" lon="4.67712">
        <ele>372</ele>
        <time>2018-07-06T10:31:48Z</time>
      </trkpt>
      <trkpt lat="45.90356" lon="4.67716">
        <ele>371</ele>
        <time>2018-07-06T10:31:49Z</time>
      </trkpt>
      <trkpt lat="45.90364" lon="4.67719">
        <ele>371</ele>
        <time>2018-07-06T10:31:50Z</time>
      </trkpt>
      <trkpt lat="45.90372" lon="4.67723">
        <ele>371</ele>
        <time>2018-07-06T10:31:51Z</time>
      </trkpt>
      <trkpt lat="45.9038" lon="4.67723">
        <ele>370</ele>
        <time>2018-07-06T10:31:52Z</time>
      </trkpt>
      <trkpt lat="45.90389" lon="4.67727">
        <ele>370</ele>
        <time>2018-07-06T10:31:53Z</time>
      </trkpt>
      <trkpt lat="45.90397" lon="4.67731">
        <ele>369</ele>
        <time>2018-07-06T10:31:54Z</time>
      </trkpt>
      <trkpt lat="45.90405" lon="4.67734">
        <ele>368</ele>
        <time>2018-07-06T10:31:55Z</time>
      </trkpt>
      <trkpt lat="45.90412" lon="4.67737">
        <ele>368</ele>
        <time>2018-07-06T10:31:56Z</time>
      </trkpt>
      <trkpt lat="45.90421" lon="4.67741">
        <ele>366</ele>
        <time>2018-07-06T10:31:57Z</time>
      </trkpt>
      <trkpt lat="45.90429" lon="4.67744">
        <ele>366</ele>
        <time>2018-07-06T10:31:58Z</time>
      </trkpt>
      <trkpt lat="45.90437" lon="4.67748">
        <ele>366</ele>
        <time>2018-07-06T10:31:59Z</time>
      </trkpt>
      <trkpt lat="45.90447" lon="4.6775">
        <ele>367</ele>
        <time>2018-07-06T10:32:00Z</time>
      </trkpt>
      <trkpt lat="45.90456" lon="4.67754">
        <ele>364</ele>
        <time>2018-07-06T10:32:01Z</time>
      </trkpt>
      <trkpt lat="45.90465" lon="4.67756">
        <ele>364</ele>
        <time>2018-07-06T10:32:02Z</time>
      </trkpt>
      <trkpt lat="45.90474" lon="4.6776">
        <ele>364</ele>
        <time>2018-07-06T10:32:03Z</time>
      </trkpt>
      <trkpt lat="45.90483" lon="4.67764">
        <ele>364</ele>
        <time>2018-07-06T10:32:04Z</time>
      </trkpt>
      <trkpt lat="45.90489" lon="4.6777">
        <ele>364</ele>
        <time>2018-07-06T10:32:05Z</time>
      </trkpt>
      <trkpt lat="45.90499" lon="4.67772">
        <ele>364</ele>
        <time>2018-07-06T10:32:06Z</time>
      </trkpt>
      <trkpt lat="45.90508" lon="4.67775">
        <ele>365</ele>
        <time>2018-07-06T10:32:07Z</time>
      </trkpt>
      <trkpt lat="45.90517" lon="4.67779">
        <ele>365</ele>
        <time>2018-07-06T10:32:08Z</time>
      </trkpt>
      <trkpt lat="45.90524" lon="4.67781">
        <ele>365</ele>
        <time>2018-07-06T10:32:09Z</time>
      </trkpt>
      <trkpt lat="45.90532" lon="4.67784">
        <ele>365</ele>
        <time>2018-07-06T10:32:10Z</time>
      </trkpt>
      <trkpt lat="45.9054" lon="4.67785">
        <ele>365</ele>
        <time>2018-07-06T10:32:11Z</time>
      </trkpt>
      <trkpt lat="45.90547" lon="4.67788">
        <ele>365</ele>
        <time>2018-07-06T10:32:12Z</time>
      </trkpt>
      <trkpt lat="45.90554" lon="4.6779">
        <ele>365</ele>
        <time>2018-07-06T10:32:13Z</time>
      </trkpt>
      <trkpt lat="45.9056" lon="4.67793">
        <ele>365</ele>
        <time>2018-07-06T10:32:14Z</time>
      </trkpt>
      <trkpt lat="45.90567" lon="4.67794">
        <ele>365</ele>
        <time>2018-07-06T10:32:15Z</time>
      </trkpt>
      <trkpt lat="45.90573" lon="4.67792">
        <ele>365</ele>
        <time>2018-07-06T10:32:16Z</time>
      </trkpt>
      <trkpt lat="45.90579" lon="4.67793">
        <ele>366</ele>
        <time>2018-07-06T10:32:17Z</time>
      </trkpt>
      <trkpt lat="45.90585" lon="4.67795">
        <ele>367</ele>
        <time>2018-07-06T10:32:18Z</time>
      </trkpt>
      <trkpt lat="45.9059" lon="4.67796">
        <ele>367</ele>
        <time>2018-07-06T10:32:19Z</time>
      </trkpt>
      <trkpt lat="45.90595" lon="4.67796">
        <ele>367</ele>
        <time>2018-07-06T10:32:20Z</time>
      </trkpt>
      <trkpt lat="45.90601" lon="4.67795">
        <ele>367</ele>
        <time>2018-07-06T10:32:21Z</time>
      </trkpt>
      <trkpt lat="45.90607" lon="4.67796">
        <ele>367</ele>
        <time>2018-07-06T10:32:22Z</time>
      </trkpt>
      <trkpt lat="45.90613" lon="4.67797">
        <ele>367</ele>
        <time>2018-07-06T10:32:23Z</time>
      </trkpt>
      <trkpt lat="45.90618" lon="4.67796">
        <ele>367</ele>
        <time>2018-07-06T10:32:24Z</time>
      </trkpt>
      <trkpt lat="45.90623" lon="4.67796">
        <ele>367</ele>
        <time>2018-07-06T10:32:25Z</time>
      </trkpt>
      <trkpt lat="45.90629" lon="4.67797">
        <ele>367</ele>
        <time>2018-07-06T10:32:26Z</time>
      </trkpt>
      <trkpt lat="45.90634" lon="4.67798">
        <ele>367</ele>
        <time>2018-07-06T10:32:27Z</time>
      </trkpt>
      <trkpt lat="45.90638" lon="4.67796">
        <ele>367</ele>
        <time>2018-07-06T10:32:28Z</time>
      </trkpt>
      <trkpt lat="45.90643" lon="4.67797">
        <ele>367</ele>
        <time>2018-07-06T10:32:29Z</time>
      </trkpt>
      <trkpt lat="45.90652" lon="4.67795">
        <ele>368</ele>
        <time>2018-07-06T10:32:31Z</time>
      </trkpt>
      <trkpt lat="45.90657" lon="4.67795">
        <ele>368</ele>
        <time>2018-07-06T10:32:32Z</time>
      </trkpt>
      <trkpt lat="45.90662" lon="4.67797">
        <ele>368</ele>
        <time>2018-07-06T10:32:33Z</time>
      </trkpt>
      <trkpt lat="45.90667" lon="4.67798">
        <ele>368</ele>
        <time>2018-07-06T10:32:34Z</time>
      </trkpt>
      <trkpt lat="45.90672" lon="4.67798">
        <ele>368</ele>
        <time>2018-07-06T10:32:35Z</time>
      </trkpt>
      <trkpt lat="45.90678" lon="4.67801">
        <ele>368</ele>
        <time>2018-07-06T10:32:36Z</time>
      </trkpt>
      <trkpt lat="45.90683" lon="4.67803">
        <ele>368</ele>
        <time>2018-07-06T10:32:37Z</time>
      </trkpt>
      <trkpt lat="45.90687" lon="4.67805">
        <ele>368</ele>
        <time>2018-07-06T10:32:38Z</time>
      </trkpt>
      <trkpt lat="45.90693" lon="4.67805">
        <ele>368</ele>
        <time>2018-07-06T10:32:40Z</time>
      </trkpt>
      <trkpt lat="45.90699" lon="4.67806">
        <ele>368</ele>
        <time>2018-07-06T10:32:41Z</time>
      </trkpt>
      <trkpt lat="45.90704" lon="4.67809">
        <ele>368</ele>
        <time>2018-07-06T10:32:42Z</time>
      </trkpt>
      <trkpt lat="45.90708" lon="4.67811">
        <ele>368</ele>
        <time>2018-07-06T10:32:43Z</time>
      </trkpt>
      <trkpt lat="45.90716" lon="4.67816">
        <ele>369</ele>
        <time>2018-07-06T10:32:45Z</time>
      </trkpt>
      <trkpt lat="45.90721" lon="4.67817">
        <ele>369</ele>
        <time>2018-07-06T10:32:46Z</time>
      </trkpt>
      <trkpt lat="45.90728" lon="4.6782">
        <ele>369</ele>
        <time>2018-07-06T10:32:48Z</time>
      </trkpt>
      <trkpt lat="45.90733" lon="4.6782">
        <ele>369</ele>
        <time>2018-07-06T10:32:49Z</time>
      </trkpt>
      <trkpt lat="45.90738" lon="4.67823">
        <ele>369</ele>
        <time>2018-07-06T10:32:50Z</time>
      </trkpt>
      <trkpt lat="45.90744" lon="4.67825">
        <ele>370</ele>
        <time>2018-07-06T10:32:51Z</time>
      </trkpt>
      <trkpt lat="45.90752" lon="4.67828">
        <ele>370</ele>
        <time>2018-07-06T10:32:53Z</time>
      </trkpt>
      <trkpt lat="45.90756" lon="4.6783">
        <ele>370</ele>
        <time>2018-07-06T10:32:54Z</time>
      </trkpt>
      <trkpt lat="45.9076" lon="4.6783">
        <ele>370</ele>
        <time>2018-07-06T10:32:55Z</time>
      </trkpt>
      <trkpt lat="45.90765" lon="4.6783">
        <ele>369</ele>
        <time>2018-07-06T10:32:56Z</time>
      </trkpt>
      <trkpt lat="45.90773" lon="4.67834">
        <ele>371</ele>
        <time>2018-07-06T10:32:58Z</time>
      </trkpt>
      <trkpt lat="45.90778" lon="4.67837">
        <ele>371</ele>
        <time>2018-07-06T10:32:59Z</time>
      </trkpt>
      <trkpt lat="45.90786" lon="4.6784">
        <ele>371</ele>
        <time>2018-07-06T10:33:01Z</time>
      </trkpt>
      <trkpt lat="45.9079" lon="4.67843">
        <ele>371</ele>
        <time>2018-07-06T10:33:02Z</time>
      </trkpt>
      <trkpt lat="45.90795" lon="4.67845">
        <ele>371</ele>
        <time>2018-07-06T10:33:03Z</time>
      </trkpt>
      <trkpt lat="45.908" lon="4.67846">
        <ele>371</ele>
        <time>2018-07-06T10:33:04Z</time>
      </trkpt>
      <trkpt lat="45.90805" lon="4.67848">
        <ele>371</ele>
        <time>2018-07-06T10:33:05Z</time>
      </trkpt>
      <trkpt lat="45.90809" lon="4.67849">
        <ele>371</ele>
        <time>2018-07-06T10:33:06Z</time>
      </trkpt>
      <trkpt lat="45.90813" lon="4.67851">
        <ele>371</ele>
        <time>2018-07-06T10:33:07Z</time>
      </trkpt>
      <trkpt lat="45.90818" lon="4.67853">
        <ele>371</ele>
        <time>2018-07-06T10:33:08Z</time>
      </trkpt>
      <trkpt lat="45.90822" lon="4.67854">
        <ele>371</ele>
        <time>2018-07-06T10:33:09Z</time>
      </trkpt>
      <trkpt lat="45.90826" lon="4.67857">
        <ele>371</ele>
        <time>2018-07-06T10:33:10Z</time>
      </trkpt>
      <trkpt lat="45.90832" lon="4.67859">
        <ele>371</ele>
        <time>2018-07-06T10:33:11Z</time>
      </trkpt>
      <trkpt lat="45.90837" lon="4.67859">
        <ele>370</ele>
        <time>2018-07-06T10:33:12Z</time>
      </trkpt>
      <trkpt lat="45.90842" lon="4.67862">
        <ele>370</ele>
        <time>2018-07-06T10:33:13Z</time>
      </trkpt>
      <trkpt lat="45.90846" lon="4.67863">
        <ele>370</ele>
        <time>2018-07-06T10:33:14Z</time>
      </trkpt>
      <trkpt lat="45.90851" lon="4.67866">
        <ele>370</ele>
        <time>2018-07-06T10:33:15Z</time>
      </trkpt>
      <trkpt lat="45.90856" lon="4.67868">
        <ele>370</ele>
        <time>2018-07-06T10:33:16Z</time>
      </trkpt>
      <trkpt lat="45.9086" lon="4.67869">
        <ele>370</ele>
        <time>2018-07-06T10:33:17Z</time>
      </trkpt>
      <trkpt lat="45.90866" lon="4.67871">
        <ele>370</ele>
        <time>2018-07-06T10:33:18Z</time>
      </trkpt>
      <trkpt lat="45.90871" lon="4.67874">
        <ele>370</ele>
        <time>2018-07-06T10:33:19Z</time>
      </trkpt>
      <trkpt lat="45.90875" lon="4.67874">
        <ele>370</ele>
        <time>2018-07-06T10:33:20Z</time>
      </trkpt>
      <trkpt lat="45.90879" lon="4.67874">
        <ele>370</ele>
        <time>2018-07-06T10:33:21Z</time>
      </trkpt>
      <trkpt lat="45.90885" lon="4.67876">
        <ele>370</ele>
        <time>2018-07-06T10:33:22Z</time>
      </trkpt>
      <trkpt lat="45.9089" lon="4.67878">
        <ele>370</ele>
        <time>2018-07-06T10:33:23Z</time>
      </trkpt>
      <trkpt lat="45.90895" lon="4.6788">
        <ele>370</ele>
        <time>2018-07-06T10:33:24Z</time>
      </trkpt>
      <trkpt lat="45.909" lon="4.67881">
        <ele>370</ele>
        <time>2018-07-06T10:33:25Z</time>
      </trkpt>
      <trkpt lat="45.90904" lon="4.67883">
        <ele>370</ele>
        <time>2018-07-06T10:33:26Z</time>
      </trkpt>
      <trkpt lat="45.90908" lon="4.67885">
        <ele>370</ele>
        <time>2018-07-06T10:33:27Z</time>
      </trkpt>
      <trkpt lat="45.90913" lon="4.67887">
        <ele>370</ele>
        <time>2018-07-06T10:33:28Z</time>
      </trkpt>
      <trkpt lat="45.90918" lon="4.67891">
        <ele>370</ele>
        <time>2018-07-06T10:33:29Z</time>
      </trkpt>
      <trkpt lat="45.90923" lon="4.67891">
        <ele>370</ele>
        <time>2018-07-06T10:33:30Z</time>
      </trkpt>
      <trkpt lat="45.90928" lon="4.67894">
        <ele>370</ele>
        <time>2018-07-06T10:33:31Z</time>
      </trkpt>
      <trkpt lat="45.90934" lon="4.67895">
        <ele>370</ele>
        <time>2018-07-06T10:33:32Z</time>
      </trkpt>
      <trkpt lat="45.90938" lon="4.67895">
        <ele>370</ele>
        <time>2018-07-06T10:33:33Z</time>
      </trkpt>
      <trkpt lat="45.90943" lon="4.67896">
        <ele>370</ele>
        <time>2018-07-06T10:33:34Z</time>
      </trkpt>
      <trkpt lat="45.90949" lon="4.67897">
        <ele>370</ele>
        <time>2018-07-06T10:33:35Z</time>
      </trkpt>
      <trkpt lat="45.90954" lon="4.679">
        <ele>370</ele>
        <time>2018-07-06T10:33:36Z</time>
      </trkpt>
      <trkpt lat="45.90962" lon="4.67904">
        <ele>370</ele>
        <time>2018-07-06T10:33:38Z</time>
      </trkpt>
      <trkpt lat="45.90966" lon="4.67906">
        <ele>370</ele>
        <time>2018-07-06T10:33:39Z</time>
      </trkpt>
      <trkpt lat="45.9097" lon="4.67909">
        <ele>370</ele>
        <time>2018-07-06T10:33:40Z</time>
      </trkpt>
      <trkpt lat="45.90975" lon="4.67911">
        <ele>370</ele>
        <time>2018-07-06T10:33:41Z</time>
      </trkpt>
      <trkpt lat="45.90979" lon="4.67914">
        <ele>370</ele>
        <time>2018-07-06T10:33:42Z</time>
      </trkpt>
      <trkpt lat="45.90984" lon="4.67916">
        <ele>371</ele>
        <time>2018-07-06T10:33:43Z</time>
      </trkpt>
      <trkpt lat="45.9099" lon="4.67918">
        <ele>372</ele>
        <time>2018-07-06T10:33:44Z</time>
      </trkpt>
      <trkpt lat="45.90994" lon="4.67921">
        <ele>372</ele>
        <time>2018-07-06T10:33:45Z</time>
      </trkpt>
      <trkpt lat="45.90999" lon="4.67923">
        <ele>372</ele>
        <time>2018-07-06T10:33:46Z</time>
      </trkpt>
      <trkpt lat="45.91003" lon="4.67926">
        <ele>373</ele>
        <time>2018-07-06T10:33:47Z</time>
      </trkpt>
      <trkpt lat="45.91011" lon="4.67929">
        <ele>373</ele>
        <time>2018-07-06T10:33:49Z</time>
      </trkpt>
      <trkpt lat="45.91015" lon="4.67931">
        <ele>373</ele>
        <time>2018-07-06T10:33:50Z</time>
      </trkpt>
      <trkpt lat="45.91022" lon="4.67935">
        <ele>374</ele>
        <time>2018-07-06T10:33:52Z</time>
      </trkpt>
      <trkpt lat="45.91024" lon="4.67936">
        <ele>374</ele>
        <time>2018-07-06T10:33:53Z</time>
      </trkpt>
      <trkpt lat="45.91031" lon="4.67939">
        <ele>374</ele>
        <time>2018-07-06T10:33:54Z</time>
      </trkpt>
      <trkpt lat="45.91034" lon="4.6794">
        <ele>374</ele>
        <time>2018-07-06T10:33:55Z</time>
      </trkpt>
      <trkpt lat="45.91041" lon="4.67944">
        <ele>374</ele>
        <time>2018-07-06T10:33:57Z</time>
      </trkpt>
      <trkpt lat="45.91043" lon="4.67945">
        <ele>374</ele>
        <time>2018-07-06T10:33:58Z</time>
      </trkpt>
      <trkpt lat="45.91048" lon="4.67946">
        <ele>374</ele>
        <time>2018-07-06T10:34:00Z</time>
      </trkpt>
      <trkpt lat="45.91055" lon="4.67949">
        <ele>375</ele>
        <time>2018-07-06T10:34:01Z</time>
      </trkpt>
      <trkpt lat="45.91063" lon="4.67951">
        <ele>375</ele>
        <time>2018-07-06T10:34:03Z</time>
      </trkpt>
      <trkpt lat="45.91065" lon="4.67952">
        <ele>375</ele>
        <time>2018-07-06T10:34:04Z</time>
      </trkpt>
      <trkpt lat="45.91072" lon="4.67954">
        <ele>375</ele>
        <time>2018-07-06T10:34:07Z</time>
      </trkpt>
      <trkpt lat="45.91075" lon="4.67954">
        <ele>375</ele>
        <time>2018-07-06T10:34:08Z</time>
      </trkpt>
      <trkpt lat="45.91083" lon="4.67955">
        <ele>375</ele>
        <time>2018-07-06T10:34:09Z</time>
      </trkpt>
      <trkpt lat="45.91085" lon="4.67955">
        <ele>376</ele>
        <time>2018-07-06T10:34:10Z</time>
      </trkpt>
      <trkpt lat="45.91092" lon="4.67956">
        <ele>376</ele>
        <time>2018-07-06T10:34:13Z</time>
      </trkpt>
      <trkpt lat="45.91094" lon="4.67956">
        <ele>376</ele>
        <time>2018-07-06T10:34:14Z</time>
      </trkpt>
      <trkpt lat="45.91097" lon="4.67957">
        <ele>376</ele>
        <time>2018-07-06T10:34:15Z</time>
      </trkpt>
      <trkpt lat="45.91105" lon="4.6796">
        <ele>377</ele>
        <time>2018-07-06T10:34:16Z</time>
      </trkpt>
      <trkpt lat="45.91109" lon="4.67961">
        <ele>377</ele>
        <time>2018-07-06T10:34:18Z</time>
      </trkpt>
      <trkpt lat="45.91115" lon="4.67963">
        <ele>377</ele>
        <time>2018-07-06T10:34:19Z</time>
      </trkpt>
      <trkpt lat="45.91121" lon="4.67965">
        <ele>377</ele>
        <time>2018-07-06T10:34:22Z</time>
      </trkpt>
      <trkpt lat="45.91123" lon="4.67966">
        <ele>377</ele>
        <time>2018-07-06T10:34:23Z</time>
      </trkpt>
      <trkpt lat="45.91132" lon="4.67969">
        <ele>377</ele>
        <time>2018-07-06T10:34:26Z</time>
      </trkpt>
      <trkpt lat="45.91133" lon="4.6797">
        <ele>377</ele>
        <time>2018-07-06T10:34:27Z</time>
      </trkpt>
      <trkpt lat="45.91141" lon="4.67972">
        <ele>377</ele>
        <time>2018-07-06T10:34:30Z</time>
      </trkpt>
      <trkpt lat="45.91144" lon="4.67974">
        <ele>378</ele>
        <time>2018-07-06T10:34:31Z</time>
      </trkpt>
      <trkpt lat="45.9115" lon="4.67976">
        <ele>378</ele>
        <time>2018-07-06T10:34:33Z</time>
      </trkpt>
      <trkpt lat="45.91154" lon="4.67978">
        <ele>378</ele>
        <time>2018-07-06T10:34:34Z</time>
      </trkpt>
      <trkpt lat="45.91161" lon="4.67981">
        <ele>379</ele>
        <time>2018-07-06T10:34:36Z</time>
      </trkpt>
      <trkpt lat="45.91164" lon="4.67983">
        <ele>379</ele>
        <time>2018-07-06T10:34:37Z</time>
      </trkpt>
      <trkpt lat="45.91171" lon="4.67988">
        <ele>380</ele>
        <time>2018-07-06T10:34:39Z</time>
      </trkpt>
      <trkpt lat="45.91174" lon="4.6799">
        <ele>380</ele>
        <time>2018-07-06T10:34:40Z</time>
      </trkpt>
      <trkpt lat="45.9118" lon="4.67994">
        <ele>380</ele>
        <time>2018-07-06T10:34:42Z</time>
      </trkpt>
      <trkpt lat="45.9119" lon="4.68001">
        <ele>382</ele>
        <time>2018-07-06T10:34:43Z</time>
      </trkpt>
      <trkpt lat="45.91198" lon="4.68004">
        <ele>383</ele>
        <time>2018-07-06T10:34:46Z</time>
      </trkpt>
      <trkpt lat="45.912" lon="4.68005">
        <ele>383</ele>
        <time>2018-07-06T10:34:47Z</time>
      </trkpt>
      <trkpt lat="45.91208" lon="4.68009">
        <ele>383</ele>
        <time>2018-07-06T10:34:50Z</time>
      </trkpt>
      <trkpt lat="45.9121" lon="4.68011">
        <ele>383</ele>
        <time>2018-07-06T10:34:51Z</time>
      </trkpt>
      <trkpt lat="45.91219" lon="4.68016">
        <ele>384</ele>
        <time>2018-07-06T10:34:54Z</time>
      </trkpt>
      <trkpt lat="45.91221" lon="4.68018">
        <ele>384</ele>
        <time>2018-07-06T10:34:55Z</time>
      </trkpt>
      <trkpt lat="45.91226" lon="4.68021">
        <ele>384</ele>
        <time>2018-07-06T10:34:57Z</time>
      </trkpt>
      <trkpt lat="45.91235" lon="4.68027">
        <ele>384</ele>
        <time>2018-07-06T10:34:58Z</time>
      </trkpt>
      <trkpt lat="45.91244" lon="4.68031">
        <ele>384</ele>
        <time>2018-07-06T10:35:02Z</time>
      </trkpt>
      <trkpt lat="45.91246" lon="4.68033">
        <ele>384</ele>
        <time>2018-07-06T10:35:03Z</time>
      </trkpt>
      <trkpt lat="45.91254" lon="4.68038">
        <ele>385</ele>
        <time>2018-07-06T10:35:06Z</time>
      </trkpt>
      <trkpt lat="45.91257" lon="4.68039">
        <ele>385</ele>
        <time>2018-07-06T10:35:07Z</time>
      </trkpt>
      <trkpt lat="45.9126" lon="4.6804">
        <ele>385</ele>
        <time>2018-07-06T10:35:08Z</time>
      </trkpt>
      <trkpt lat="45.91271" lon="4.68045">
        <ele>385</ele>
        <time>2018-07-06T10:35:09Z</time>
      </trkpt>
      <trkpt lat="45.91278" lon="4.68049">
        <ele>385</ele>
        <time>2018-07-06T10:35:11Z</time>
      </trkpt>
      <trkpt lat="45.91282" lon="4.68051">
        <ele>385</ele>
        <time>2018-07-06T10:35:12Z</time>
      </trkpt>
      <trkpt lat="45.91288" lon="4.68055">
        <ele>385</ele>
        <time>2018-07-06T10:35:14Z</time>
      </trkpt>
      <trkpt lat="45.91292" lon="4.68057">
        <ele>385</ele>
        <time>2018-07-06T10:35:15Z</time>
      </trkpt>
      <trkpt lat="45.91296" lon="4.68058">
        <ele>385</ele>
        <time>2018-07-06T10:35:17Z</time>
      </trkpt>
      <trkpt lat="45.91303" lon="4.6806">
        <ele>385</ele>
        <time>2018-07-06T10:35:18Z</time>
      </trkpt>
      <trkpt lat="45.9131" lon="4.68063">
        <ele>385</ele>
        <time>2018-07-06T10:35:20Z</time>
      </trkpt>
      <trkpt lat="45.91314" lon="4.68065">
        <ele>385</ele>
        <time>2018-07-06T10:35:21Z</time>
      </trkpt>
      <trkpt lat="45.91322" lon="4.68069">
        <ele>385</ele>
        <time>2018-07-06T10:35:23Z</time>
      </trkpt>
      <trkpt lat="45.91326" lon="4.6807">
        <ele>385</ele>
        <time>2018-07-06T10:35:24Z</time>
      </trkpt>
      <trkpt lat="45.91331" lon="4.68072">
        <ele>385</ele>
        <time>2018-07-06T10:35:26Z</time>
      </trkpt>
      <trkpt lat="45.91336" lon="4.68073">
        <ele>385</ele>
        <time>2018-07-06T10:35:27Z</time>
      </trkpt>
      <trkpt lat="45.91343" lon="4.68076">
        <ele>385</ele>
        <time>2018-07-06T10:35:29Z</time>
      </trkpt>
      <trkpt lat="45.91347" lon="4.68077">
        <ele>385</ele>
        <time>2018-07-06T10:35:30Z</time>
      </trkpt>
      <trkpt lat="45.91355" lon="4.68081">
        <ele>385</ele>
        <time>2018-07-06T10:35:32Z</time>
      </trkpt>
      <trkpt lat="45.91358" lon="4.68085">
        <ele>386</ele>
        <time>2018-07-06T10:35:33Z</time>
      </trkpt>
      <trkpt lat="45.91366" lon="4.68088">
        <ele>386</ele>
        <time>2018-07-06T10:35:35Z</time>
      </trkpt>
      <trkpt lat="45.9137" lon="4.6809">
        <ele>386</ele>
        <time>2018-07-06T10:35:36Z</time>
      </trkpt>
      <trkpt lat="45.91378" lon="4.68092">
        <ele>386</ele>
        <time>2018-07-06T10:35:38Z</time>
      </trkpt>
      <trkpt lat="45.91383" lon="4.68092">
        <ele>386</ele>
        <time>2018-07-06T10:35:39Z</time>
      </trkpt>
      <trkpt lat="45.91391" lon="4.68092">
        <ele>386</ele>
        <time>2018-07-06T10:35:41Z</time>
      </trkpt>
      <trkpt lat="45.91395" lon="4.68091">
        <ele>386</ele>
        <time>2018-07-06T10:35:42Z</time>
      </trkpt>
      <trkpt lat="45.91403" lon="4.68089">
        <ele>386</ele>
        <time>2018-07-06T10:35:44Z</time>
      </trkpt>
      <trkpt lat="45.91407" lon="4.68088">
        <ele>386</ele>
        <time>2018-07-06T10:35:45Z</time>
      </trkpt>
      <trkpt lat="45.91415" lon="4.68086">
        <ele>386</ele>
        <time>2018-07-06T10:35:47Z</time>
      </trkpt>
      <trkpt lat="45.9142" lon="4.68086">
        <ele>386</ele>
        <time>2018-07-06T10:35:48Z</time>
      </trkpt>
      <trkpt lat="45.91428" lon="4.68086">
        <ele>385</ele>
        <time>2018-07-06T10:35:50Z</time>
      </trkpt>
      <trkpt lat="45.91432" lon="4.68087">
        <ele>385</ele>
        <time>2018-07-06T10:35:51Z</time>
      </trkpt>
      <trkpt lat="45.91437" lon="4.68088">
        <ele>385</ele>
        <time>2018-07-06T10:35:52Z</time>
      </trkpt>
      <trkpt lat="45.91442" lon="4.68091">
        <ele>385</ele>
        <time>2018-07-06T10:35:53Z</time>
      </trkpt>
      <trkpt lat="45.91446" lon="4.68092">
        <ele>384</ele>
        <time>2018-07-06T10:35:54Z</time>
      </trkpt>
      <trkpt lat="45.91451" lon="4.68094">
        <ele>384</ele>
        <time>2018-07-06T10:35:55Z</time>
      </trkpt>
      <trkpt lat="45.9146" lon="4.68094">
        <ele>384</ele>
        <time>2018-07-06T10:35:57Z</time>
      </trkpt>
      <trkpt lat="45.91464" lon="4.68097">
        <ele>384</ele>
        <time>2018-07-06T10:35:58Z</time>
      </trkpt>
      <trkpt lat="45.91469" lon="4.68099">
        <ele>384</ele>
        <time>2018-07-06T10:35:59Z</time>
      </trkpt>
      <trkpt lat="45.91474" lon="4.68104">
        <ele>384</ele>
        <time>2018-07-06T10:36:00Z</time>
      </trkpt>
      <trkpt lat="45.91481" lon="4.6811">
        <ele>383</ele>
        <time>2018-07-06T10:36:01Z</time>
      </trkpt>
      <trkpt lat="45.91485" lon="4.68112">
        <ele>383</ele>
        <time>2018-07-06T10:36:02Z</time>
      </trkpt>
      <trkpt lat="45.91491" lon="4.68116">
        <ele>383</ele>
        <time>2018-07-06T10:36:03Z</time>
      </trkpt>
      <trkpt lat="45.91496" lon="4.6812">
        <ele>383</ele>
        <time>2018-07-06T10:36:04Z</time>
      </trkpt>
      <trkpt lat="45.91502" lon="4.68124">
        <ele>380</ele>
        <time>2018-07-06T10:36:05Z</time>
      </trkpt>
      <trkpt lat="45.91509" lon="4.68128">
        <ele>380</ele>
        <time>2018-07-06T10:36:06Z</time>
      </trkpt>
      <trkpt lat="45.91516" lon="4.68132">
        <ele>380</ele>
        <time>2018-07-06T10:36:07Z</time>
      </trkpt>
      <trkpt lat="45.91521" lon="4.68134">
        <ele>380</ele>
        <time>2018-07-06T10:36:08Z</time>
      </trkpt>
      <trkpt lat="45.91526" lon="4.68138">
        <ele>379</ele>
        <time>2018-07-06T10:36:09Z</time>
      </trkpt>
      <trkpt lat="45.91534" lon="4.68141">
        <ele>379</ele>
        <time>2018-07-06T10:36:10Z</time>
      </trkpt>
      <trkpt lat="45.9154" lon="4.68146">
        <ele>379</ele>
        <time>2018-07-06T10:36:11Z</time>
      </trkpt>
      <trkpt lat="45.91547" lon="4.6815">
        <ele>379</ele>
        <time>2018-07-06T10:36:12Z</time>
      </trkpt>
      <trkpt lat="45.91555" lon="4.68152">
        <ele>379</ele>
        <time>2018-07-06T10:36:13Z</time>
      </trkpt>
      <trkpt lat="45.91562" lon="4.68156">
        <ele>378</ele>
        <time>2018-07-06T10:36:14Z</time>
      </trkpt>
      <trkpt lat="45.91569" lon="4.6816">
        <ele>378</ele>
        <time>2018-07-06T10:36:15Z</time>
      </trkpt>
      <trkpt lat="45.91576" lon="4.68164">
        <ele>378</ele>
        <time>2018-07-06T10:36:16Z</time>
      </trkpt>
      <trkpt lat="45.91583" lon="4.68169">
        <ele>378</ele>
        <time>2018-07-06T10:36:17Z</time>
      </trkpt>
      <trkpt lat="45.9159" lon="4.68175">
        <ele>377</ele>
        <time>2018-07-06T10:36:18Z</time>
      </trkpt>
      <trkpt lat="45.91598" lon="4.68179">
        <ele>376</ele>
        <time>2018-07-06T10:36:19Z</time>
      </trkpt>
      <trkpt lat="45.91605" lon="4.68185">
        <ele>376</ele>
        <time>2018-07-06T10:36:20Z</time>
      </trkpt>
      <trkpt lat="45.91614" lon="4.6819">
        <ele>375</ele>
        <time>2018-07-06T10:36:21Z</time>
      </trkpt>
      <trkpt lat="45.91621" lon="4.68197">
        <ele>375</ele>
        <time>2018-07-06T10:36:22Z</time>
      </trkpt>
      <trkpt lat="45.91629" lon="4.68203">
        <ele>375</ele>
        <time>2018-07-06T10:36:23Z</time>
      </trkpt>
      <trkpt lat="45.91637" lon="4.68209">
        <ele>375</ele>
        <time>2018-07-06T10:36:24Z</time>
      </trkpt>
      <trkpt lat="45.91645" lon="4.68213">
        <ele>374</ele>
        <time>2018-07-06T10:36:25Z</time>
      </trkpt>
      <trkpt lat="45.91653" lon="4.68217">
        <ele>374</ele>
        <time>2018-07-06T10:36:26Z</time>
      </trkpt>
      <trkpt lat="45.91661" lon="4.68222">
        <ele>374</ele>
        <time>2018-07-06T10:36:27Z</time>
      </trkpt>
      <trkpt lat="45.9167" lon="4.68228">
        <ele>371</ele>
        <time>2018-07-06T10:36:28Z</time>
      </trkpt>
      <trkpt lat="45.91678" lon="4.68233">
        <ele>371</ele>
        <time>2018-07-06T10:36:29Z</time>
      </trkpt>
      <trkpt lat="45.91685" lon="4.68238">
        <ele>371</ele>
        <time>2018-07-06T10:36:30Z</time>
      </trkpt>
      <trkpt lat="45.91692" lon="4.68244">
        <ele>371</ele>
        <time>2018-07-06T10:36:31Z</time>
      </trkpt>
      <trkpt lat="45.917" lon="4.6825">
        <ele>371</ele>
        <time>2018-07-06T10:36:32Z</time>
      </trkpt>
      <trkpt lat="45.91709" lon="4.68252">
        <ele>373</ele>
        <time>2018-07-06T10:36:33Z</time>
      </trkpt>
      <trkpt lat="45.91717" lon="4.68254">
        <ele>373</ele>
        <time>2018-07-06T10:36:34Z</time>
      </trkpt>
      <trkpt lat="45.91725" lon="4.68256">
        <ele>372</ele>
        <time>2018-07-06T10:36:35Z</time>
      </trkpt>
      <trkpt lat="45.91732" lon="4.68259">
        <ele>372</ele>
        <time>2018-07-06T10:36:36Z</time>
      </trkpt>
      <trkpt lat="45.91739" lon="4.68259">
        <ele>371</ele>
        <time>2018-07-06T10:36:37Z</time>
      </trkpt>
      <trkpt lat="45.91745" lon="4.68256">
        <ele>371</ele>
        <time>2018-07-06T10:36:38Z</time>
      </trkpt>
      <trkpt lat="45.91752" lon="4.68261">
        <ele>371</ele>
        <time>2018-07-06T10:36:39Z</time>
      </trkpt>
      <trkpt lat="45.91758" lon="4.68262">
        <ele>371</ele>
        <time>2018-07-06T10:36:40Z</time>
      </trkpt>
      <trkpt lat="45.91765" lon="4.68264">
        <ele>372</ele>
        <time>2018-07-06T10:36:41Z</time>
      </trkpt>
      <trkpt lat="45.9177" lon="4.68266">
        <ele>372</ele>
        <time>2018-07-06T10:36:42Z</time>
      </trkpt>
      <trkpt lat="45.91776" lon="4.68267">
        <ele>372</ele>
        <time>2018-07-06T10:36:43Z</time>
      </trkpt>
      <trkpt lat="45.91782" lon="4.6827">
        <ele>372</ele>
        <time>2018-07-06T10:36:44Z</time>
      </trkpt>
      <trkpt lat="45.91788" lon="4.6827">
        <ele>372</ele>
        <time>2018-07-06T10:36:45Z</time>
      </trkpt>
      <trkpt lat="45.91794" lon="4.68272">
        <ele>372</ele>
        <time>2018-07-06T10:36:46Z</time>
      </trkpt>
      <trkpt lat="45.91799" lon="4.68273">
        <ele>372</ele>
        <time>2018-07-06T10:36:47Z</time>
      </trkpt>
      <trkpt lat="45.91806" lon="4.68277">
        <ele>372</ele>
        <time>2018-07-06T10:36:49Z</time>
      </trkpt>
      <trkpt lat="45.91809" lon="4.6828">
        <ele>373</ele>
        <time>2018-07-06T10:36:50Z</time>
      </trkpt>
      <trkpt lat="45.91814" lon="4.6828">
        <ele>373</ele>
        <time>2018-07-06T10:36:51Z</time>
      </trkpt>
      <trkpt lat="45.91818" lon="4.68284">
        <ele>373</ele>
        <time>2018-07-06T10:36:52Z</time>
      </trkpt>
      <trkpt lat="45.91823" lon="4.68282">
        <ele>373</ele>
        <time>2018-07-06T10:36:53Z</time>
      </trkpt>
      <trkpt lat="45.91828" lon="4.68284">
        <ele>373</ele>
        <time>2018-07-06T10:36:54Z</time>
      </trkpt>
      <trkpt lat="45.91832" lon="4.68283">
        <ele>373</ele>
        <time>2018-07-06T10:36:55Z</time>
      </trkpt>
      <trkpt lat="45.91837" lon="4.68284">
        <ele>374</ele>
        <time>2018-07-06T10:36:56Z</time>
      </trkpt>
      <trkpt lat="45.91843" lon="4.68285">
        <ele>375</ele>
        <time>2018-07-06T10:36:58Z</time>
      </trkpt>
      <trkpt lat="45.91849" lon="4.68286">
        <ele>375</ele>
        <time>2018-07-06T10:36:59Z</time>
      </trkpt>
      <trkpt lat="45.91858" lon="4.68287">
        <ele>375</ele>
        <time>2018-07-06T10:37:01Z</time>
      </trkpt>
      <trkpt lat="45.91862" lon="4.68288">
        <ele>375</ele>
        <time>2018-07-06T10:37:02Z</time>
      </trkpt>
      <trkpt lat="45.9187" lon="4.68289">
        <ele>375</ele>
        <time>2018-07-06T10:37:04Z</time>
      </trkpt>
      <trkpt lat="45.91874" lon="4.6829">
        <ele>376</ele>
        <time>2018-07-06T10:37:05Z</time>
      </trkpt>
      <trkpt lat="45.9188" lon="4.6829">
        <ele>376</ele>
        <time>2018-07-06T10:37:07Z</time>
      </trkpt>
      <trkpt lat="45.91885" lon="4.68289">
        <ele>376</ele>
        <time>2018-07-06T10:37:08Z</time>
      </trkpt>
      <trkpt lat="45.91892" lon="4.6829">
        <ele>376</ele>
        <time>2018-07-06T10:37:10Z</time>
      </trkpt>
      <trkpt lat="45.91896" lon="4.68291">
        <ele>376</ele>
        <time>2018-07-06T10:37:11Z</time>
      </trkpt>
      <trkpt lat="45.919" lon="4.68292">
        <ele>376</ele>
        <time>2018-07-06T10:37:13Z</time>
      </trkpt>
      <trkpt lat="45.91907" lon="4.68293">
        <ele>377</ele>
        <time>2018-07-06T10:37:14Z</time>
      </trkpt>
      <trkpt lat="45.9191" lon="4.68294">
        <ele>377</ele>
        <time>2018-07-06T10:37:16Z</time>
      </trkpt>
      <trkpt lat="45.91916" lon="4.68293">
        <ele>377</ele>
        <time>2018-07-06T10:37:17Z</time>
      </trkpt>
      <trkpt lat="45.91924" lon="4.68293">
        <ele>379</ele>
        <time>2018-07-06T10:37:19Z</time>
      </trkpt>
      <trkpt lat="45.91929" lon="4.68292">
        <ele>379</ele>
        <time>2018-07-06T10:37:20Z</time>
      </trkpt>
      <trkpt lat="45.91935" lon="4.68295">
        <ele>379</ele>
        <time>2018-07-06T10:37:22Z</time>
      </trkpt>
      <trkpt lat="45.91941" lon="4.68294">
        <ele>379</ele>
        <time>2018-07-06T10:37:23Z</time>
      </trkpt>
      <trkpt lat="45.91948" lon="4.68297">
        <ele>379</ele>
        <time>2018-07-06T10:37:27Z</time>
      </trkpt>
      <trkpt lat="45.9195" lon="4.68298">
        <ele>379</ele>
        <time>2018-07-06T10:37:28Z</time>
      </trkpt>
      <trkpt lat="45.91958" lon="4.683">
        <ele>379</ele>
        <time>2018-07-06T10:37:31Z</time>
      </trkpt>
      <trkpt lat="45.9196" lon="4.68301">
        <ele>379</ele>
        <time>2018-07-06T10:37:32Z</time>
      </trkpt>
      <trkpt lat="45.91966" lon="4.68302">
        <ele>379</ele>
        <time>2018-07-06T10:37:34Z</time>
      </trkpt>
      <trkpt lat="45.91969" lon="4.68303">
        <ele>380</ele>
        <time>2018-07-06T10:37:35Z</time>
      </trkpt>
      <trkpt lat="45.91973" lon="4.68304">
        <ele>380</ele>
        <time>2018-07-06T10:37:36Z</time>
      </trkpt>
      <trkpt lat="45.91983" lon="4.68308">
        <ele>380</ele>
        <time>2018-07-06T10:37:37Z</time>
      </trkpt>
      <trkpt lat="45.91988" lon="4.6831">
        <ele>380</ele>
        <time>2018-07-06T10:37:39Z</time>
      </trkpt>
      <trkpt lat="45.91994" lon="4.68311">
        <ele>381</ele>
        <time>2018-07-06T10:37:40Z</time>
      </trkpt>
      <trkpt lat="45.92" lon="4.68314">
        <ele>381</ele>
        <time>2018-07-06T10:37:42Z</time>
      </trkpt>
      <trkpt lat="45.92005" lon="4.68316">
        <ele>381</ele>
        <time>2018-07-06T10:37:43Z</time>
      </trkpt>
      <trkpt lat="45.92013" lon="4.68317">
        <ele>380</ele>
        <time>2018-07-06T10:37:45Z</time>
      </trkpt>
      <trkpt lat="45.92017" lon="4.68317">
        <ele>380</ele>
        <time>2018-07-06T10:37:46Z</time>
      </trkpt>
      <trkpt lat="45.92022" lon="4.68316">
        <ele>380</ele>
        <time>2018-07-06T10:37:47Z</time>
      </trkpt>
      <trkpt lat="45.92026" lon="4.68317">
        <ele>380</ele>
        <time>2018-07-06T10:37:48Z</time>
      </trkpt>
      <trkpt lat="45.92031" lon="4.68317">
        <ele>380</ele>
        <time>2018-07-06T10:37:49Z</time>
      </trkpt>
      <trkpt lat="45.92035" lon="4.68318">
        <ele>380</ele>
        <time>2018-07-06T10:37:50Z</time>
      </trkpt>
      <trkpt lat="45.92044" lon="4.68319">
        <ele>379</ele>
        <time>2018-07-06T10:37:52Z</time>
      </trkpt>
      <trkpt lat="45.92048" lon="4.68321">
        <ele>380</ele>
        <time>2018-07-06T10:37:53Z</time>
      </trkpt>
      <trkpt lat="45.92057" lon="4.68323">
        <ele>380</ele>
        <time>2018-07-06T10:37:55Z</time>
      </trkpt>
      <trkpt lat="45.92062" lon="4.68323">
        <ele>380</ele>
        <time>2018-07-06T10:37:56Z</time>
      </trkpt>
      <trkpt lat="45.92066" lon="4.68324">
        <ele>380</ele>
        <time>2018-07-06T10:37:57Z</time>
      </trkpt>
      <trkpt lat="45.92071" lon="4.68323">
        <ele>380</ele>
        <time>2018-07-06T10:37:58Z</time>
      </trkpt>
      <trkpt lat="45.92076" lon="4.68325">
        <ele>381</ele>
        <time>2018-07-06T10:37:59Z</time>
      </trkpt>
      <trkpt lat="45.9208" lon="4.68327">
        <ele>381</ele>
        <time>2018-07-06T10:38:00Z</time>
      </trkpt>
      <trkpt lat="45.92086" lon="4.68328">
        <ele>381</ele>
        <time>2018-07-06T10:38:01Z</time>
      </trkpt>
      <trkpt lat="45.92089" lon="4.68331">
        <ele>381</ele>
        <time>2018-07-06T10:38:02Z</time>
      </trkpt>
      <trkpt lat="45.92094" lon="4.68332">
        <ele>380</ele>
        <time>2018-07-06T10:38:03Z</time>
      </trkpt>
      <trkpt lat="45.92099" lon="4.68333">
        <ele>379</ele>
        <time>2018-07-06T10:38:04Z</time>
      </trkpt>
      <trkpt lat="45.92104" lon="4.68334">
        <ele>383</ele>
        <time>2018-07-06T10:38:05Z</time>
      </trkpt>
      <trkpt lat="45.92108" lon="4.68339">
        <ele>383</ele>
        <time>2018-07-06T10:38:06Z</time>
      </trkpt>
      <trkpt lat="45.92112" lon="4.68342">
        <ele>383</ele>
        <time>2018-07-06T10:38:07Z</time>
      </trkpt>
      <trkpt lat="45.92116" lon="4.68345">
        <ele>383</ele>
        <time>2018-07-06T10:38:08Z</time>
      </trkpt>
      <trkpt lat="45.92123" lon="4.6835">
        <ele>383</ele>
        <time>2018-07-06T10:38:10Z</time>
      </trkpt>
      <trkpt lat="45.92126" lon="4.68354">
        <ele>383</ele>
        <time>2018-07-06T10:38:11Z</time>
      </trkpt>
      <trkpt lat="45.92133" lon="4.68361">
        <ele>383</ele>
        <time>2018-07-06T10:38:13Z</time>
      </trkpt>
      <trkpt lat="45.92137" lon="4.68364">
        <ele>383</ele>
        <time>2018-07-06T10:38:14Z</time>
      </trkpt>
      <trkpt lat="45.92141" lon="4.68367">
        <ele>383</ele>
        <time>2018-07-06T10:38:15Z</time>
      </trkpt>
      <trkpt lat="45.92145" lon="4.6837">
        <ele>383</ele>
        <time>2018-07-06T10:38:16Z</time>
      </trkpt>
      <trkpt lat="45.9215" lon="4.68373">
        <ele>383</ele>
        <time>2018-07-06T10:38:17Z</time>
      </trkpt>
      <trkpt lat="45.92154" lon="4.68376">
        <ele>384</ele>
        <time>2018-07-06T10:38:18Z</time>
      </trkpt>
      <trkpt lat="45.9216" lon="4.68385">
        <ele>384</ele>
        <time>2018-07-06T10:38:20Z</time>
      </trkpt>
      <trkpt lat="45.92164" lon="4.68389">
        <ele>384</ele>
        <time>2018-07-06T10:38:21Z</time>
      </trkpt>
      <trkpt lat="45.9217" lon="4.68397">
        <ele>384</ele>
        <time>2018-07-06T10:38:23Z</time>
      </trkpt>
      <trkpt lat="45.92174" lon="4.68403">
        <ele>384</ele>
        <time>2018-07-06T10:38:24Z</time>
      </trkpt>
      <trkpt lat="45.92177" lon="4.68407">
        <ele>384</ele>
        <time>2018-07-06T10:38:25Z</time>
      </trkpt>
      <trkpt lat="45.92182" lon="4.68412">
        <ele>384</ele>
        <time>2018-07-06T10:38:26Z</time>
      </trkpt>
      <trkpt lat="45.92186" lon="4.68415">
        <ele>384</ele>
        <time>2018-07-06T10:38:27Z</time>
      </trkpt>
      <trkpt lat="45.92191" lon="4.68419">
        <ele>386</ele>
        <time>2018-07-06T10:38:28Z</time>
      </trkpt>
      <trkpt lat="45.92195" lon="4.68422">
        <ele>386</ele>
        <time>2018-07-06T10:38:29Z</time>
      </trkpt>
      <trkpt lat="45.92201" lon="4.68424">
        <ele>386</ele>
        <time>2018-07-06T10:38:30Z</time>
      </trkpt>
      <trkpt lat="45.92209" lon="4.68429">
        <ele>386</ele>
        <time>2018-07-06T10:38:32Z</time>
      </trkpt>
      <trkpt lat="45.92212" lon="4.68431">
        <ele>386</ele>
        <time>2018-07-06T10:38:33Z</time>
      </trkpt>
      <trkpt lat="45.92219" lon="4.68438">
        <ele>386</ele>
        <time>2018-07-06T10:38:35Z</time>
      </trkpt>
      <trkpt lat="45.92223" lon="4.68441">
        <ele>386</ele>
        <time>2018-07-06T10:38:36Z</time>
      </trkpt>
      <trkpt lat="45.92228" lon="4.68444">
        <ele>386</ele>
        <time>2018-07-06T10:38:37Z</time>
      </trkpt>
      <trkpt lat="45.92232" lon="4.68448">
        <ele>386</ele>
        <time>2018-07-06T10:38:38Z</time>
      </trkpt>
      <trkpt lat="45.92236" lon="4.68453">
        <ele>386</ele>
        <time>2018-07-06T10:38:39Z</time>
      </trkpt>
      <trkpt lat="45.92241" lon="4.68457">
        <ele>386</ele>
        <time>2018-07-06T10:38:40Z</time>
      </trkpt>
      <trkpt lat="45.92248" lon="4.68463">
        <ele>386</ele>
        <time>2018-07-06T10:38:42Z</time>
      </trkpt>
      <trkpt lat="45.92252" lon="4.68468">
        <ele>384</ele>
        <time>2018-07-06T10:38:43Z</time>
      </trkpt>
      <trkpt lat="45.92256" lon="4.68471">
        <ele>384</ele>
        <time>2018-07-06T10:38:44Z</time>
      </trkpt>
      <trkpt lat="45.9226" lon="4.68476">
        <ele>384</ele>
        <time>2018-07-06T10:38:45Z</time>
      </trkpt>
      <trkpt lat="45.92265" lon="4.6848">
        <ele>384</ele>
        <time>2018-07-06T10:38:46Z</time>
      </trkpt>
      <trkpt lat="45.92269" lon="4.68485">
        <ele>384</ele>
        <time>2018-07-06T10:38:47Z</time>
      </trkpt>
      <trkpt lat="45.92273" lon="4.68489">
        <ele>384</ele>
        <time>2018-07-06T10:38:48Z</time>
      </trkpt>
      <trkpt lat="45.92277" lon="4.68494">
        <ele>384</ele>
        <time>2018-07-06T10:38:49Z</time>
      </trkpt>
      <trkpt lat="45.92284" lon="4.68502">
        <ele>387</ele>
        <time>2018-07-06T10:38:51Z</time>
      </trkpt>
      <trkpt lat="45.92287" lon="4.68506">
        <ele>387</ele>
        <time>2018-07-06T10:38:52Z</time>
      </trkpt>
      <trkpt lat="45.92294" lon="4.68514">
        <ele>387</ele>
        <time>2018-07-06T10:38:54Z</time>
      </trkpt>
      <trkpt lat="45.92298" lon="4.68518">
        <ele>387</ele>
        <time>2018-07-06T10:38:55Z</time>
      </trkpt>
      <trkpt lat="45.92305" lon="4.68525">
        <ele>387</ele>
        <time>2018-07-06T10:38:57Z</time>
      </trkpt>
      <trkpt lat="45.92309" lon="4.68529">
        <ele>387</ele>
        <time>2018-07-06T10:38:58Z</time>
      </trkpt>
      <trkpt lat="45.92314" lon="4.68533">
        <ele>387</ele>
        <time>2018-07-06T10:38:59Z</time>
      </trkpt>
      <trkpt lat="45.92318" lon="4.68536">
        <ele>388</ele>
        <time>2018-07-06T10:39:00Z</time>
      </trkpt>
      <trkpt lat="45.92322" lon="4.6854">
        <ele>388</ele>
        <time>2018-07-06T10:39:01Z</time>
      </trkpt>
      <trkpt lat="45.92326" lon="4.68543">
        <ele>388</ele>
        <time>2018-07-06T10:39:02Z</time>
      </trkpt>
      <trkpt lat="45.9233" lon="4.68546">
        <ele>388</ele>
        <time>2018-07-06T10:39:03Z</time>
      </trkpt>
      <trkpt lat="45.92335" lon="4.6855">
        <ele>385</ele>
        <time>2018-07-06T10:39:04Z</time>
      </trkpt>
      <trkpt lat="45.92343" lon="4.68555">
        <ele>385</ele>
        <time>2018-07-06T10:39:06Z</time>
      </trkpt>
      <trkpt lat="45.92348" lon="4.68558">
        <ele>385</ele>
        <time>2018-07-06T10:39:07Z</time>
      </trkpt>
      <trkpt lat="45.92352" lon="4.68562">
        <ele>385</ele>
        <time>2018-07-06T10:39:08Z</time>
      </trkpt>
      <trkpt lat="45.92357" lon="4.68566">
        <ele>385</ele>
        <time>2018-07-06T10:39:09Z</time>
      </trkpt>
      <trkpt lat="45.92362" lon="4.68569">
        <ele>385</ele>
        <time>2018-07-06T10:39:10Z</time>
      </trkpt>
      <trkpt lat="45.92366" lon="4.68569">
        <ele>385</ele>
        <time>2018-07-06T10:39:11Z</time>
      </trkpt>
      <trkpt lat="45.92371" lon="4.68572">
        <ele>384</ele>
        <time>2018-07-06T10:39:12Z</time>
      </trkpt>
      <trkpt lat="45.92376" lon="4.68576">
        <ele>384</ele>
        <time>2018-07-06T10:39:13Z</time>
      </trkpt>
      <trkpt lat="45.92383" lon="4.68578">
        <ele>384</ele>
        <time>2018-07-06T10:39:14Z</time>
      </trkpt>
      <trkpt lat="45.92388" lon="4.68582">
        <ele>383</ele>
        <time>2018-07-06T10:39:15Z</time>
      </trkpt>
      <trkpt lat="45.92394" lon="4.68586">
        <ele>386</ele>
        <time>2018-07-06T10:39:16Z</time>
      </trkpt>
      <trkpt lat="45.92399" lon="4.68589">
        <ele>385</ele>
        <time>2018-07-06T10:39:17Z</time>
      </trkpt>
      <trkpt lat="45.92406" lon="4.68591">
        <ele>385</ele>
        <time>2018-07-06T10:39:18Z</time>
      </trkpt>
      <trkpt lat="45.92411" lon="4.68594">
        <ele>384</ele>
        <time>2018-07-06T10:39:19Z</time>
      </trkpt>
      <trkpt lat="45.92416" lon="4.68598">
        <ele>385</ele>
        <time>2018-07-06T10:39:20Z</time>
      </trkpt>
      <trkpt lat="45.92422" lon="4.68601">
        <ele>381</ele>
        <time>2018-07-06T10:39:21Z</time>
      </trkpt>
      <trkpt lat="45.92428" lon="4.68604">
        <ele>381</ele>
        <time>2018-07-06T10:39:22Z</time>
      </trkpt>
      <trkpt lat="45.92434" lon="4.68607">
        <ele>381</ele>
        <time>2018-07-06T10:39:23Z</time>
      </trkpt>
      <trkpt lat="45.9244" lon="4.68608">
        <ele>381</ele>
        <time>2018-07-06T10:39:24Z</time>
      </trkpt>
      <trkpt lat="45.92447" lon="4.68612">
        <ele>380</ele>
        <time>2018-07-06T10:39:25Z</time>
      </trkpt>
      <trkpt lat="45.92453" lon="4.68617">
        <ele>380</ele>
        <time>2018-07-06T10:39:26Z</time>
      </trkpt>
      <trkpt lat="45.92459" lon="4.6862">
        <ele>380</ele>
        <time>2018-07-06T10:39:27Z</time>
      </trkpt>
      <trkpt lat="45.92466" lon="4.68624">
        <ele>380</ele>
        <time>2018-07-06T10:39:28Z</time>
      </trkpt>
      <trkpt lat="45.92472" lon="4.68627">
        <ele>379</ele>
        <time>2018-07-06T10:39:29Z</time>
      </trkpt>
      <trkpt lat="45.92479" lon="4.6863">
        <ele>379</ele>
        <time>2018-07-06T10:39:30Z</time>
      </trkpt>
      <trkpt lat="45.92486" lon="4.68633">
        <ele>379</ele>
        <time>2018-07-06T10:39:31Z</time>
      </trkpt>
      <trkpt lat="45.92494" lon="4.68635">
        <ele>379</ele>
        <time>2018-07-06T10:39:32Z</time>
      </trkpt>
      <trkpt lat="45.92502" lon="4.68636">
        <ele>375</ele>
        <time>2018-07-06T10:39:33Z</time>
      </trkpt>
      <trkpt lat="45.92508" lon="4.6864">
        <ele>375</ele>
        <time>2018-07-06T10:39:34Z</time>
      </trkpt>
      <trkpt lat="45.92515" lon="4.68641">
        <ele>375</ele>
        <time>2018-07-06T10:39:35Z</time>
      </trkpt>
      <trkpt lat="45.92522" lon="4.68644">
        <ele>375</ele>
        <time>2018-07-06T10:39:36Z</time>
      </trkpt>
      <trkpt lat="45.92528" lon="4.68645">
        <ele>375</ele>
        <time>2018-07-06T10:39:37Z</time>
      </trkpt>
      <trkpt lat="45.92535" lon="4.68648">
        <ele>375</ele>
        <time>2018-07-06T10:39:38Z</time>
      </trkpt>
      <trkpt lat="45.92541" lon="4.6865">
        <ele>374</ele>
        <time>2018-07-06T10:39:39Z</time>
      </trkpt>
      <trkpt lat="45.92547" lon="4.68652">
        <ele>374</ele>
        <time>2018-07-06T10:39:40Z</time>
      </trkpt>
      <trkpt lat="45.92553" lon="4.68651">
        <ele>374</ele>
        <time>2018-07-06T10:39:41Z</time>
      </trkpt>
      <trkpt lat="45.92558" lon="4.68651">
        <ele>374</ele>
        <time>2018-07-06T10:39:42Z</time>
      </trkpt>
      <trkpt lat="45.92563" lon="4.6865">
        <ele>374</ele>
        <time>2018-07-06T10:39:43Z</time>
      </trkpt>
      <trkpt lat="45.9257" lon="4.68645">
        <ele>374</ele>
        <time>2018-07-06T10:39:44Z</time>
      </trkpt>
      <trkpt lat="45.92574" lon="4.68641">
        <ele>374</ele>
        <time>2018-07-06T10:39:45Z</time>
      </trkpt>
      <trkpt lat="45.92582" lon="4.68638">
        <ele>373</ele>
        <time>2018-07-06T10:39:47Z</time>
      </trkpt>
      <trkpt lat="45.92586" lon="4.68635">
        <ele>370</ele>
        <time>2018-07-06T10:39:48Z</time>
      </trkpt>
      <trkpt lat="45.92593" lon="4.6863">
        <ele>370</ele>
        <time>2018-07-06T10:39:51Z</time>
      </trkpt>
      <trkpt lat="45.92597" lon="4.68629">
        <ele>369</ele>
        <time>2018-07-06T10:39:52Z</time>
      </trkpt>
      <trkpt lat="45.92605" lon="4.68628">
        <ele>369</ele>
        <time>2018-07-06T10:39:55Z</time>
      </trkpt>
      <trkpt lat="45.92607" lon="4.68629">
        <ele>369</ele>
        <time>2018-07-06T10:39:56Z</time>
      </trkpt>
      <trkpt lat="45.9261" lon="4.68629">
        <ele>369</ele>
        <time>2018-07-06T10:39:57Z</time>
      </trkpt>
      <trkpt lat="45.92618" lon="4.68627">
        <ele>369</ele>
        <time>2018-07-06T10:39:58Z</time>
      </trkpt>
      <trkpt lat="45.92625" lon="4.68624">
        <ele>368</ele>
        <time>2018-07-06T10:40:00Z</time>
      </trkpt>
      <trkpt lat="45.92629" lon="4.68623">
        <ele>368</ele>
        <time>2018-07-06T10:40:01Z</time>
      </trkpt>
      <trkpt lat="45.92633" lon="4.6862">
        <ele>368</ele>
        <time>2018-07-06T10:40:02Z</time>
      </trkpt>
      <trkpt lat="45.92639" lon="4.6862">
        <ele>368</ele>
        <time>2018-07-06T10:40:03Z</time>
      </trkpt>
      <trkpt lat="45.92644" lon="4.68619">
        <ele>367</ele>
        <time>2018-07-06T10:40:04Z</time>
      </trkpt>
      <trkpt lat="45.92649" lon="4.68617">
        <ele>367</ele>
        <time>2018-07-06T10:40:05Z</time>
      </trkpt>
      <trkpt lat="45.92652" lon="4.68616">
        <ele>367</ele>
        <time>2018-07-06T10:40:06Z</time>
      </trkpt>
      <trkpt lat="45.92658" lon="4.68614">
        <ele>367</ele>
        <time>2018-07-06T10:40:07Z</time>
      </trkpt>
      <trkpt lat="45.92665" lon="4.6861">
        <ele>367</ele>
        <time>2018-07-06T10:40:08Z</time>
      </trkpt>
      <trkpt lat="45.9267" lon="4.68608">
        <ele>364</ele>
        <time>2018-07-06T10:40:09Z</time>
      </trkpt>
      <trkpt lat="45.92676" lon="4.68605">
        <ele>364</ele>
        <time>2018-07-06T10:40:10Z</time>
      </trkpt>
      <trkpt lat="45.92682" lon="4.68603">
        <ele>364</ele>
        <time>2018-07-06T10:40:11Z</time>
      </trkpt>
      <trkpt lat="45.92688" lon="4.686">
        <ele>364</ele>
        <time>2018-07-06T10:40:12Z</time>
      </trkpt>
      <trkpt lat="45.92692" lon="4.68598">
        <ele>364</ele>
        <time>2018-07-06T10:40:13Z</time>
      </trkpt>
      <trkpt lat="45.92697" lon="4.68594">
        <ele>364</ele>
        <time>2018-07-06T10:40:14Z</time>
      </trkpt>
      <trkpt lat="45.92702" lon="4.6859">
        <ele>364</ele>
        <time>2018-07-06T10:40:15Z</time>
      </trkpt>
      <trkpt lat="45.92707" lon="4.68588">
        <ele>364</ele>
        <time>2018-07-06T10:40:16Z</time>
      </trkpt>
      <trkpt lat="45.92712" lon="4.68584">
        <ele>364</ele>
        <time>2018-07-06T10:40:17Z</time>
      </trkpt>
      <trkpt lat="45.92718" lon="4.68582">
        <ele>366</ele>
        <time>2018-07-06T10:40:18Z</time>
      </trkpt>
      <trkpt lat="45.92723" lon="4.68579">
        <ele>366</ele>
        <time>2018-07-06T10:40:19Z</time>
      </trkpt>
      <trkpt lat="45.92729" lon="4.68577">
        <ele>366</ele>
        <time>2018-07-06T10:40:20Z</time>
      </trkpt>
      <trkpt lat="45.92736" lon="4.68576">
        <ele>366</ele>
        <time>2018-07-06T10:40:21Z</time>
      </trkpt>
      <trkpt lat="45.92743" lon="4.68574">
        <ele>366</ele>
        <time>2018-07-06T10:40:22Z</time>
      </trkpt>
      <trkpt lat="45.92749" lon="4.68574">
        <ele>366</ele>
        <time>2018-07-06T10:40:23Z</time>
      </trkpt>
      <trkpt lat="45.92755" lon="4.68573">
        <ele>366</ele>
        <time>2018-07-06T10:40:24Z</time>
      </trkpt>
      <trkpt lat="45.9276" lon="4.68573">
        <ele>365</ele>
        <time>2018-07-06T10:40:25Z</time>
      </trkpt>
      <trkpt lat="45.92766" lon="4.68573">
        <ele>365</ele>
        <time>2018-07-06T10:40:26Z</time>
      </trkpt>
      <trkpt lat="45.92772" lon="4.68574">
        <ele>365</ele>
        <time>2018-07-06T10:40:27Z</time>
      </trkpt>
      <trkpt lat="45.92778" lon="4.68575">
        <ele>365</ele>
        <time>2018-07-06T10:40:28Z</time>
      </trkpt>
      <trkpt lat="45.92785" lon="4.68577">
        <ele>365</ele>
        <time>2018-07-06T10:40:29Z</time>
      </trkpt>
      <trkpt lat="45.92792" lon="4.68578">
        <ele>364</ele>
        <time>2018-07-06T10:40:30Z</time>
      </trkpt>
      <trkpt lat="45.92799" lon="4.68579">
        <ele>364</ele>
        <time>2018-07-06T10:40:31Z</time>
      </trkpt>
      <trkpt lat="45.92805" lon="4.6858">
        <ele>364</ele>
        <time>2018-07-06T10:40:32Z</time>
      </trkpt>
      <trkpt lat="45.92812" lon="4.68581">
        <ele>363</ele>
        <time>2018-07-06T10:40:33Z</time>
      </trkpt>
      <trkpt lat="45.92818" lon="4.68582">
        <ele>363</ele>
        <time>2018-07-06T10:40:34Z</time>
      </trkpt>
      <trkpt lat="45.92826" lon="4.68583">
        <ele>362</ele>
        <time>2018-07-06T10:40:35Z</time>
      </trkpt>
      <trkpt lat="45.92833" lon="4.68584">
        <ele>361</ele>
        <time>2018-07-06T10:40:36Z</time>
      </trkpt>
      <trkpt lat="45.92839" lon="4.68585">
        <ele>360</ele>
        <time>2018-07-06T10:40:37Z</time>
      </trkpt>
      <trkpt lat="45.92845" lon="4.68586">
        <ele>360</ele>
        <time>2018-07-06T10:40:38Z</time>
      </trkpt>
      <trkpt lat="45.92852" lon="4.68588">
        <ele>359</ele>
        <time>2018-07-06T10:40:39Z</time>
      </trkpt>
      <trkpt lat="45.92859" lon="4.6859">
        <ele>359</ele>
        <time>2018-07-06T10:40:40Z</time>
      </trkpt>
      <trkpt lat="45.92866" lon="4.6859">
        <ele>359</ele>
        <time>2018-07-06T10:40:41Z</time>
      </trkpt>
      <trkpt lat="45.92873" lon="4.68588">
        <ele>359</ele>
        <time>2018-07-06T10:40:42Z</time>
      </trkpt>
      <trkpt lat="45.92879" lon="4.68589">
        <ele>358</ele>
        <time>2018-07-06T10:40:43Z</time>
      </trkpt>
      <trkpt lat="45.92886" lon="4.68589">
        <ele>358</ele>
        <time>2018-07-06T10:40:44Z</time>
      </trkpt>
      <trkpt lat="45.92892" lon="4.68589">
        <ele>358</ele>
        <time>2018-07-06T10:40:45Z</time>
      </trkpt>
      <trkpt lat="45.92899" lon="4.6859">
        <ele>358</ele>
        <time>2018-07-06T10:40:46Z</time>
      </trkpt>
      <trkpt lat="45.92906" lon="4.68592">
        <ele>359</ele>
        <time>2018-07-06T10:40:47Z</time>
      </trkpt>
      <trkpt lat="45.92913" lon="4.68592">
        <ele>359</ele>
        <time>2018-07-06T10:40:48Z</time>
      </trkpt>
      <trkpt lat="45.92921" lon="4.68593">
        <ele>359</ele>
        <time>2018-07-06T10:40:49Z</time>
      </trkpt>
      <trkpt lat="45.92928" lon="4.68594">
        <ele>359</ele>
        <time>2018-07-06T10:40:50Z</time>
      </trkpt>
      <trkpt lat="45.92936" lon="4.68596">
        <ele>358</ele>
        <time>2018-07-06T10:40:51Z</time>
      </trkpt>
      <trkpt lat="45.92944" lon="4.68598">
        <ele>358</ele>
        <time>2018-07-06T10:40:52Z</time>
      </trkpt>
      <trkpt lat="45.92952" lon="4.68601">
        <ele>358</ele>
        <time>2018-07-06T10:40:53Z</time>
      </trkpt>
      <trkpt lat="45.92959" lon="4.68602">
        <ele>358</ele>
        <time>2018-07-06T10:40:54Z</time>
      </trkpt>
      <trkpt lat="45.92967" lon="4.68603">
        <ele>358</ele>
        <time>2018-07-06T10:40:55Z</time>
      </trkpt>
      <trkpt lat="45.92975" lon="4.68605">
        <ele>358</ele>
        <time>2018-07-06T10:40:56Z</time>
      </trkpt>
      <trkpt lat="45.92983" lon="4.68607">
        <ele>358</ele>
        <time>2018-07-06T10:40:57Z</time>
      </trkpt>
      <trkpt lat="45.9299" lon="4.68608">
        <ele>358</ele>
        <time>2018-07-06T10:40:58Z</time>
      </trkpt>
      <trkpt lat="45.92998" lon="4.68609">
        <ele>358</ele>
        <time>2018-07-06T10:40:59Z</time>
      </trkpt>
      <trkpt lat="45.93005" lon="4.68612">
        <ele>356</ele>
        <time>2018-07-06T10:41:00Z</time>
      </trkpt>
      <trkpt lat="45.93014" lon="4.68615">
        <ele>356</ele>
        <time>2018-07-06T10:41:01Z</time>
      </trkpt>
      <trkpt lat="45.9302" lon="4.68616">
        <ele>356</ele>
        <time>2018-07-06T10:41:02Z</time>
      </trkpt>
      <trkpt lat="45.93027" lon="4.68618">
        <ele>355</ele>
        <time>2018-07-06T10:41:03Z</time>
      </trkpt>
      <trkpt lat="45.93033" lon="4.6862">
        <ele>355</ele>
        <time>2018-07-06T10:41:04Z</time>
      </trkpt>
      <trkpt lat="45.93042" lon="4.68622">
        <ele>355</ele>
        <time>2018-07-06T10:41:05Z</time>
      </trkpt>
      <trkpt lat="45.93048" lon="4.68626">
        <ele>355</ele>
        <time>2018-07-06T10:41:06Z</time>
      </trkpt>
      <trkpt lat="45.93055" lon="4.68627">
        <ele>354</ele>
        <time>2018-07-06T10:41:07Z</time>
      </trkpt>
      <trkpt lat="45.93062" lon="4.68628">
        <ele>354</ele>
        <time>2018-07-06T10:41:08Z</time>
      </trkpt>
      <trkpt lat="45.93069" lon="4.6863">
        <ele>354</ele>
        <time>2018-07-06T10:41:09Z</time>
      </trkpt>
      <trkpt lat="45.93076" lon="4.68632">
        <ele>354</ele>
        <time>2018-07-06T10:41:10Z</time>
      </trkpt>
      <trkpt lat="45.93084" lon="4.68633">
        <ele>349</ele>
        <time>2018-07-06T10:41:11Z</time>
      </trkpt>
      <trkpt lat="45.93091" lon="4.68635">
        <ele>349</ele>
        <time>2018-07-06T10:41:12Z</time>
      </trkpt>
      <trkpt lat="45.93098" lon="4.68636">
        <ele>349</ele>
        <time>2018-07-06T10:41:13Z</time>
      </trkpt>
      <trkpt lat="45.93105" lon="4.68639">
        <ele>349</ele>
        <time>2018-07-06T10:41:14Z</time>
      </trkpt>
      <trkpt lat="45.93114" lon="4.68641">
        <ele>348</ele>
        <time>2018-07-06T10:41:15Z</time>
      </trkpt>
      <trkpt lat="45.93122" lon="4.68643">
        <ele>348</ele>
        <time>2018-07-06T10:41:16Z</time>
      </trkpt>
      <trkpt lat="45.93129" lon="4.68645">
        <ele>348</ele>
        <time>2018-07-06T10:41:17Z</time>
      </trkpt>
      <trkpt lat="45.93137" lon="4.68647">
        <ele>347</ele>
        <time>2018-07-06T10:41:18Z</time>
      </trkpt>
      <trkpt lat="45.93146" lon="4.68648">
        <ele>347</ele>
        <time>2018-07-06T10:41:19Z</time>
      </trkpt>
      <trkpt lat="45.93155" lon="4.6865">
        <ele>347</ele>
        <time>2018-07-06T10:41:20Z</time>
      </trkpt>
      <trkpt lat="45.93164" lon="4.68652">
        <ele>347</ele>
        <time>2018-07-06T10:41:21Z</time>
      </trkpt>
      <trkpt lat="45.93173" lon="4.68655">
        <ele>345</ele>
        <time>2018-07-06T10:41:22Z</time>
      </trkpt>
      <trkpt lat="45.93181" lon="4.68656">
        <ele>345</ele>
        <time>2018-07-06T10:41:23Z</time>
      </trkpt>
      <trkpt lat="45.9319" lon="4.68657">
        <ele>345</ele>
        <time>2018-07-06T10:41:24Z</time>
      </trkpt>
      <trkpt lat="45.93198" lon="4.68659">
        <ele>345</ele>
        <time>2018-07-06T10:41:25Z</time>
      </trkpt>
      <trkpt lat="45.93206" lon="4.68662">
        <ele>344</ele>
        <time>2018-07-06T10:41:26Z</time>
      </trkpt>
      <trkpt lat="45.93214" lon="4.68665">
        <ele>344</ele>
        <time>2018-07-06T10:41:27Z</time>
      </trkpt>
      <trkpt lat="45.93222" lon="4.68667">
        <ele>345</ele>
        <time>2018-07-06T10:41:28Z</time>
      </trkpt>
      <trkpt lat="45.9323" lon="4.68669">
        <ele>345</ele>
        <time>2018-07-06T10:41:29Z</time>
      </trkpt>
      <trkpt lat="45.93237" lon="4.68671">
        <ele>345</ele>
        <time>2018-07-06T10:41:30Z</time>
      </trkpt>
      <trkpt lat="45.93245" lon="4.68672">
        <ele>344</ele>
        <time>2018-07-06T10:41:31Z</time>
      </trkpt>
      <trkpt lat="45.93252" lon="4.68674">
        <ele>344</ele>
        <time>2018-07-06T10:41:32Z</time>
      </trkpt>
      <trkpt lat="45.93259" lon="4.68674">
        <ele>344</ele>
        <time>2018-07-06T10:41:33Z</time>
      </trkpt>
      <trkpt lat="45.93265" lon="4.68677">
        <ele>344</ele>
        <time>2018-07-06T10:41:34Z</time>
      </trkpt>
      <trkpt lat="45.93273" lon="4.68679">
        <ele>344</ele>
        <time>2018-07-06T10:41:35Z</time>
      </trkpt>
      <trkpt lat="45.9328" lon="4.6868">
        <ele>344</ele>
        <time>2018-07-06T10:41:36Z</time>
      </trkpt>
      <trkpt lat="45.93288" lon="4.68682">
        <ele>344</ele>
        <time>2018-07-06T10:41:37Z</time>
      </trkpt>
      <trkpt lat="45.93296" lon="4.68684">
        <ele>344</ele>
        <time>2018-07-06T10:41:38Z</time>
      </trkpt>
      <trkpt lat="45.93303" lon="4.68686">
        <ele>344</ele>
        <time>2018-07-06T10:41:39Z</time>
      </trkpt>
      <trkpt lat="45.93309" lon="4.68687">
        <ele>344</ele>
        <time>2018-07-06T10:41:40Z</time>
      </trkpt>
      <trkpt lat="45.93316" lon="4.68689">
        <ele>344</ele>
        <time>2018-07-06T10:41:41Z</time>
      </trkpt>
      <trkpt lat="45.93323" lon="4.68689">
        <ele>344</ele>
        <time>2018-07-06T10:41:42Z</time>
      </trkpt>
      <trkpt lat="45.93329" lon="4.68689">
        <ele>344</ele>
        <time>2018-07-06T10:41:43Z</time>
      </trkpt>
      <trkpt lat="45.93335" lon="4.6869">
        <ele>344</ele>
        <time>2018-07-06T10:41:44Z</time>
      </trkpt>
      <trkpt lat="45.9334" lon="4.68693">
        <ele>344</ele>
        <time>2018-07-06T10:41:45Z</time>
      </trkpt>
      <trkpt lat="45.93347" lon="4.68695">
        <ele>344</ele>
        <time>2018-07-06T10:41:46Z</time>
      </trkpt>
      <trkpt lat="45.93354" lon="4.68696">
        <ele>344</ele>
        <time>2018-07-06T10:41:47Z</time>
      </trkpt>
      <trkpt lat="45.93361" lon="4.68697">
        <ele>344</ele>
        <time>2018-07-06T10:41:48Z</time>
      </trkpt>
      <trkpt lat="45.93368" lon="4.68699">
        <ele>344</ele>
        <time>2018-07-06T10:41:49Z</time>
      </trkpt>
      <trkpt lat="45.93375" lon="4.68701">
        <ele>344</ele>
        <time>2018-07-06T10:41:50Z</time>
      </trkpt>
      <trkpt lat="45.93382" lon="4.68703">
        <ele>344</ele>
        <time>2018-07-06T10:41:51Z</time>
      </trkpt>
      <trkpt lat="45.93389" lon="4.68703">
        <ele>344</ele>
        <time>2018-07-06T10:41:52Z</time>
      </trkpt>
      <trkpt lat="45.93396" lon="4.68705">
        <ele>344</ele>
        <time>2018-07-06T10:41:53Z</time>
      </trkpt>
      <trkpt lat="45.93403" lon="4.68706">
        <ele>344</ele>
        <time>2018-07-06T10:41:54Z</time>
      </trkpt>
      <trkpt lat="45.9341" lon="4.68708">
        <ele>344</ele>
        <time>2018-07-06T10:41:55Z</time>
      </trkpt>
      <trkpt lat="45.93417" lon="4.68709">
        <ele>343</ele>
        <time>2018-07-06T10:41:56Z</time>
      </trkpt>
      <trkpt lat="45.93423" lon="4.6871">
        <ele>343</ele>
        <time>2018-07-06T10:41:57Z</time>
      </trkpt>
      <trkpt lat="45.93428" lon="4.68713">
        <ele>343</ele>
        <time>2018-07-06T10:41:58Z</time>
      </trkpt>
      <trkpt lat="45.93435" lon="4.68716">
        <ele>343</ele>
        <time>2018-07-06T10:41:59Z</time>
      </trkpt>
      <trkpt lat="45.93442" lon="4.68717">
        <ele>343</ele>
        <time>2018-07-06T10:42:00Z</time>
      </trkpt>
      <trkpt lat="45.93448" lon="4.68718">
        <ele>343</ele>
        <time>2018-07-06T10:42:01Z</time>
      </trkpt>
      <trkpt lat="45.93456" lon="4.68719">
        <ele>342</ele>
        <time>2018-07-06T10:42:02Z</time>
      </trkpt>
      <trkpt lat="45.93463" lon="4.68719">
        <ele>342</ele>
        <time>2018-07-06T10:42:03Z</time>
      </trkpt>
      <trkpt lat="45.93469" lon="4.6872">
        <ele>342</ele>
        <time>2018-07-06T10:42:04Z</time>
      </trkpt>
      <trkpt lat="45.93476" lon="4.68722">
        <ele>342</ele>
        <time>2018-07-06T10:42:05Z</time>
      </trkpt>
      <trkpt lat="45.93482" lon="4.68724">
        <ele>342</ele>
        <time>2018-07-06T10:42:06Z</time>
      </trkpt>
      <trkpt lat="45.93488" lon="4.68725">
        <ele>342</ele>
        <time>2018-07-06T10:42:07Z</time>
      </trkpt>
      <trkpt lat="45.93493" lon="4.68726">
        <ele>342</ele>
        <time>2018-07-06T10:42:08Z</time>
      </trkpt>
      <trkpt lat="45.935" lon="4.68726">
        <ele>342</ele>
        <time>2018-07-06T10:42:09Z</time>
      </trkpt>
      <trkpt lat="45.93506" lon="4.68727">
        <ele>342</ele>
        <time>2018-07-06T10:42:10Z</time>
      </trkpt>
      <trkpt lat="45.93513" lon="4.6873">
        <ele>342</ele>
        <time>2018-07-06T10:42:11Z</time>
      </trkpt>
      <trkpt lat="45.93519" lon="4.68729">
        <ele>342</ele>
        <time>2018-07-06T10:42:12Z</time>
      </trkpt>
      <trkpt lat="45.93524" lon="4.6873">
        <ele>342</ele>
        <time>2018-07-06T10:42:13Z</time>
      </trkpt>
      <trkpt lat="45.9353" lon="4.68731">
        <ele>342</ele>
        <time>2018-07-06T10:42:14Z</time>
      </trkpt>
      <trkpt lat="45.93537" lon="4.68734">
        <ele>342</ele>
        <time>2018-07-06T10:42:15Z</time>
      </trkpt>
      <trkpt lat="45.93543" lon="4.68737">
        <ele>342</ele>
        <time>2018-07-06T10:42:16Z</time>
      </trkpt>
      <trkpt lat="45.93549" lon="4.68739">
        <ele>342</ele>
        <time>2018-07-06T10:42:17Z</time>
      </trkpt>
      <trkpt lat="45.93556" lon="4.68741">
        <ele>342</ele>
        <time>2018-07-06T10:42:18Z</time>
      </trkpt>
      <trkpt lat="45.93562" lon="4.68742">
        <ele>342</ele>
        <time>2018-07-06T10:42:19Z</time>
      </trkpt>
      <trkpt lat="45.93567" lon="4.68744">
        <ele>343</ele>
        <time>2018-07-06T10:42:20Z</time>
      </trkpt>
      <trkpt lat="45.93573" lon="4.68746">
        <ele>343</ele>
        <time>2018-07-06T10:42:21Z</time>
      </trkpt>
      <trkpt lat="45.9358" lon="4.68748">
        <ele>344</ele>
        <time>2018-07-06T10:42:22Z</time>
      </trkpt>
      <trkpt lat="45.93586" lon="4.68749">
        <ele>344</ele>
        <time>2018-07-06T10:42:23Z</time>
      </trkpt>
      <trkpt lat="45.93592" lon="4.68751">
        <ele>344</ele>
        <time>2018-07-06T10:42:24Z</time>
      </trkpt>
      <trkpt lat="45.93599" lon="4.68753">
        <ele>344</ele>
        <time>2018-07-06T10:42:25Z</time>
      </trkpt>
      <trkpt lat="45.93605" lon="4.68755">
        <ele>344</ele>
        <time>2018-07-06T10:42:26Z</time>
      </trkpt>
      <trkpt lat="45.93611" lon="4.68756">
        <ele>344</ele>
        <time>2018-07-06T10:42:27Z</time>
      </trkpt>
      <trkpt lat="45.93617" lon="4.68756">
        <ele>343</ele>
        <time>2018-07-06T10:42:28Z</time>
      </trkpt>
      <trkpt lat="45.93622" lon="4.68758">
        <ele>343</ele>
        <time>2018-07-06T10:42:29Z</time>
      </trkpt>
      <trkpt lat="45.93627" lon="4.68759">
        <ele>343</ele>
        <time>2018-07-06T10:42:30Z</time>
      </trkpt>
      <trkpt lat="45.93633" lon="4.68763">
        <ele>343</ele>
        <time>2018-07-06T10:42:31Z</time>
      </trkpt>
      <trkpt lat="45.93638" lon="4.68765">
        <ele>343</ele>
        <time>2018-07-06T10:42:32Z</time>
      </trkpt>
      <trkpt lat="45.93644" lon="4.68766">
        <ele>343</ele>
        <time>2018-07-06T10:42:33Z</time>
      </trkpt>
      <trkpt lat="45.93649" lon="4.68768">
        <ele>343</ele>
        <time>2018-07-06T10:42:34Z</time>
      </trkpt>
      <trkpt lat="45.93655" lon="4.68769">
        <ele>343</ele>
        <time>2018-07-06T10:42:35Z</time>
      </trkpt>
      <trkpt lat="45.93661" lon="4.6877">
        <ele>343</ele>
        <time>2018-07-06T10:42:36Z</time>
      </trkpt>
      <trkpt lat="45.93667" lon="4.6877">
        <ele>342</ele>
        <time>2018-07-06T10:42:37Z</time>
      </trkpt>
      <trkpt lat="45.93673" lon="4.68771">
        <ele>342</ele>
        <time>2018-07-06T10:42:38Z</time>
      </trkpt>
      <trkpt lat="45.93679" lon="4.68774">
        <ele>342</ele>
        <time>2018-07-06T10:42:39Z</time>
      </trkpt>
      <trkpt lat="45.93685" lon="4.68776">
        <ele>342</ele>
        <time>2018-07-06T10:42:40Z</time>
      </trkpt>
      <trkpt lat="45.9369" lon="4.68777">
        <ele>342</ele>
        <time>2018-07-06T10:42:41Z</time>
      </trkpt>
      <trkpt lat="45.93696" lon="4.68779">
        <ele>342</ele>
        <time>2018-07-06T10:42:42Z</time>
      </trkpt>
      <trkpt lat="45.93701" lon="4.68781">
        <ele>342</ele>
        <time>2018-07-06T10:42:43Z</time>
      </trkpt>
      <trkpt lat="45.93705" lon="4.68784">
        <ele>342</ele>
        <time>2018-07-06T10:42:44Z</time>
      </trkpt>
      <trkpt lat="45.9371" lon="4.68785">
        <ele>342</ele>
        <time>2018-07-06T10:42:45Z</time>
      </trkpt>
      <trkpt lat="45.93715" lon="4.68788">
        <ele>342</ele>
        <time>2018-07-06T10:42:46Z</time>
      </trkpt>
      <trkpt lat="45.93719" lon="4.6879">
        <ele>342</ele>
        <time>2018-07-06T10:42:47Z</time>
      </trkpt>
      <trkpt lat="45.93724" lon="4.68791">
        <ele>342</ele>
        <time>2018-07-06T10:42:48Z</time>
      </trkpt>
      <trkpt lat="45.9373" lon="4.68793">
        <ele>342</ele>
        <time>2018-07-06T10:42:49Z</time>
      </trkpt>
      <trkpt lat="45.93736" lon="4.68793">
        <ele>342</ele>
        <time>2018-07-06T10:42:50Z</time>
      </trkpt>
      <trkpt lat="45.93742" lon="4.68794">
        <ele>342</ele>
        <time>2018-07-06T10:42:51Z</time>
      </trkpt>
      <trkpt lat="45.93748" lon="4.68796">
        <ele>342</ele>
        <time>2018-07-06T10:42:52Z</time>
      </trkpt>
      <trkpt lat="45.93755" lon="4.68797">
        <ele>341</ele>
        <time>2018-07-06T10:42:53Z</time>
      </trkpt>
      <trkpt lat="45.9376" lon="4.68798">
        <ele>341</ele>
        <time>2018-07-06T10:42:54Z</time>
      </trkpt>
      <trkpt lat="45.93767" lon="4.68799">
        <ele>341</ele>
        <time>2018-07-06T10:42:55Z</time>
      </trkpt>
      <trkpt lat="45.93773" lon="4.68802">
        <ele>341</ele>
        <time>2018-07-06T10:42:56Z</time>
      </trkpt>
      <trkpt lat="45.93777" lon="4.68807">
        <ele>341</ele>
        <time>2018-07-06T10:42:57Z</time>
      </trkpt>
      <trkpt lat="45.93784" lon="4.68808">
        <ele>341</ele>
        <time>2018-07-06T10:42:58Z</time>
      </trkpt>
      <trkpt lat="45.93789" lon="4.68812">
        <ele>341</ele>
        <time>2018-07-06T10:42:59Z</time>
      </trkpt>
      <trkpt lat="45.93794" lon="4.68815">
        <ele>341</ele>
        <time>2018-07-06T10:43:00Z</time>
      </trkpt>
      <trkpt lat="45.938" lon="4.68818">
        <ele>341</ele>
        <time>2018-07-06T10:43:01Z</time>
      </trkpt>
      <trkpt lat="45.93806" lon="4.68821">
        <ele>341</ele>
        <time>2018-07-06T10:43:02Z</time>
      </trkpt>
      <trkpt lat="45.93812" lon="4.68825">
        <ele>341</ele>
        <time>2018-07-06T10:43:03Z</time>
      </trkpt>
      <trkpt lat="45.93818" lon="4.68829">
        <ele>341</ele>
        <time>2018-07-06T10:43:04Z</time>
      </trkpt>
      <trkpt lat="45.93824" lon="4.68834">
        <ele>342</ele>
        <time>2018-07-06T10:43:05Z</time>
      </trkpt>
      <trkpt lat="45.93831" lon="4.68836">
        <ele>342</ele>
        <time>2018-07-06T10:43:06Z</time>
      </trkpt>
      <trkpt lat="45.93836" lon="4.68838">
        <ele>342</ele>
        <time>2018-07-06T10:43:07Z</time>
      </trkpt>
      <trkpt lat="45.93842" lon="4.68842">
        <ele>342</ele>
        <time>2018-07-06T10:43:08Z</time>
      </trkpt>
      <trkpt lat="45.93847" lon="4.68845">
        <ele>342</ele>
        <time>2018-07-06T10:43:09Z</time>
      </trkpt>
      <trkpt lat="45.93853" lon="4.68848">
        <ele>342</ele>
        <time>2018-07-06T10:43:10Z</time>
      </trkpt>
      <trkpt lat="45.93857" lon="4.68852">
        <ele>342</ele>
        <time>2018-07-06T10:43:11Z</time>
      </trkpt>
      <trkpt lat="45.93862" lon="4.68856">
        <ele>342</ele>
        <time>2018-07-06T10:43:12Z</time>
      </trkpt>
      <trkpt lat="45.93866" lon="4.6886">
        <ele>342</ele>
        <time>2018-07-06T10:43:13Z</time>
      </trkpt>
      <trkpt lat="45.93871" lon="4.68862">
        <ele>342</ele>
        <time>2018-07-06T10:43:14Z</time>
      </trkpt>
      <trkpt lat="45.93876" lon="4.68864">
        <ele>343</ele>
        <time>2018-07-06T10:43:15Z</time>
      </trkpt>
      <trkpt lat="45.9388" lon="4.68867">
        <ele>343</ele>
        <time>2018-07-06T10:43:16Z</time>
      </trkpt>
      <trkpt lat="45.93885" lon="4.68871">
        <ele>343</ele>
        <time>2018-07-06T10:43:17Z</time>
      </trkpt>
      <trkpt lat="45.9389" lon="4.68874">
        <ele>343</ele>
        <time>2018-07-06T10:43:18Z</time>
      </trkpt>
      <trkpt lat="45.93895" lon="4.68876">
        <ele>342</ele>
        <time>2018-07-06T10:43:19Z</time>
      </trkpt>
      <trkpt lat="45.939" lon="4.68878">
        <ele>342</ele>
        <time>2018-07-06T10:43:20Z</time>
      </trkpt>
      <trkpt lat="45.93905" lon="4.68881">
        <ele>342</ele>
        <time>2018-07-06T10:43:21Z</time>
      </trkpt>
      <trkpt lat="45.93909" lon="4.68881">
        <ele>342</ele>
        <time>2018-07-06T10:43:22Z</time>
      </trkpt>
      <trkpt lat="45.93914" lon="4.68883">
        <ele>342</ele>
        <time>2018-07-06T10:43:23Z</time>
      </trkpt>
      <trkpt lat="45.93919" lon="4.68885">
        <ele>342</ele>
        <time>2018-07-06T10:43:24Z</time>
      </trkpt>
      <trkpt lat="45.93924" lon="4.68886">
        <ele>342</ele>
        <time>2018-07-06T10:43:25Z</time>
      </trkpt>
      <trkpt lat="45.93928" lon="4.68888">
        <ele>342</ele>
        <time>2018-07-06T10:43:26Z</time>
      </trkpt>
      <trkpt lat="45.93933" lon="4.6889">
        <ele>342</ele>
        <time>2018-07-06T10:43:27Z</time>
      </trkpt>
      <trkpt lat="45.93938" lon="4.68891">
        <ele>342</ele>
        <time>2018-07-06T10:43:28Z</time>
      </trkpt>
      <trkpt lat="45.93943" lon="4.68892">
        <ele>342</ele>
        <time>2018-07-06T10:43:29Z</time>
      </trkpt>
      <trkpt lat="45.93948" lon="4.68895">
        <ele>342</ele>
        <time>2018-07-06T10:43:30Z</time>
      </trkpt>
      <trkpt lat="45.93952" lon="4.68897">
        <ele>342</ele>
        <time>2018-07-06T10:43:31Z</time>
      </trkpt>
      <trkpt lat="45.9396" lon="4.689">
        <ele>342</ele>
        <time>2018-07-06T10:43:33Z</time>
      </trkpt>
      <trkpt lat="45.93964" lon="4.689">
        <ele>342</ele>
        <time>2018-07-06T10:43:34Z</time>
      </trkpt>
      <trkpt lat="45.93969" lon="4.68902">
        <ele>342</ele>
        <time>2018-07-06T10:43:35Z</time>
      </trkpt>
      <trkpt lat="45.93976" lon="4.68901">
        <ele>342</ele>
        <time>2018-07-06T10:43:36Z</time>
      </trkpt>
      <trkpt lat="45.93981" lon="4.68903">
        <ele>342</ele>
        <time>2018-07-06T10:43:37Z</time>
      </trkpt>
      <trkpt lat="45.93988" lon="4.68906">
        <ele>342</ele>
        <time>2018-07-06T10:43:38Z</time>
      </trkpt>
      <trkpt lat="45.93993" lon="4.68907">
        <ele>342</ele>
        <time>2018-07-06T10:43:39Z</time>
      </trkpt>
      <trkpt lat="45.93998" lon="4.68909">
        <ele>342</ele>
        <time>2018-07-06T10:43:40Z</time>
      </trkpt>
      <trkpt lat="45.94004" lon="4.68911">
        <ele>341</ele>
        <time>2018-07-06T10:43:41Z</time>
      </trkpt>
      <trkpt lat="45.9401" lon="4.68914">
        <ele>341</ele>
        <time>2018-07-06T10:43:42Z</time>
      </trkpt>
      <trkpt lat="45.94016" lon="4.68913">
        <ele>341</ele>
        <time>2018-07-06T10:43:43Z</time>
      </trkpt>
      <trkpt lat="45.9402" lon="4.68916">
        <ele>341</ele>
        <time>2018-07-06T10:43:44Z</time>
      </trkpt>
      <trkpt lat="45.94026" lon="4.68919">
        <ele>341</ele>
        <time>2018-07-06T10:43:45Z</time>
      </trkpt>
      <trkpt lat="45.94031" lon="4.68921">
        <ele>341</ele>
        <time>2018-07-06T10:43:46Z</time>
      </trkpt>
      <trkpt lat="45.94036" lon="4.68924">
        <ele>341</ele>
        <time>2018-07-06T10:43:47Z</time>
      </trkpt>
      <trkpt lat="45.9404" lon="4.68924">
        <ele>341</ele>
        <time>2018-07-06T10:43:48Z</time>
      </trkpt>
      <trkpt lat="45.94046" lon="4.68928">
        <ele>341</ele>
        <time>2018-07-06T10:43:49Z</time>
      </trkpt>
      <trkpt lat="45.9405" lon="4.68933">
        <ele>341</ele>
        <time>2018-07-06T10:43:50Z</time>
      </trkpt>
      <trkpt lat="45.94055" lon="4.68936">
        <ele>341</ele>
        <time>2018-07-06T10:43:51Z</time>
      </trkpt>
      <trkpt lat="45.94061" lon="4.68939">
        <ele>341</ele>
        <time>2018-07-06T10:43:52Z</time>
      </trkpt>
      <trkpt lat="45.94066" lon="4.68942">
        <ele>341</ele>
        <time>2018-07-06T10:43:53Z</time>
      </trkpt>
      <trkpt lat="45.94073" lon="4.68944">
        <ele>341</ele>
        <time>2018-07-06T10:43:54Z</time>
      </trkpt>
      <trkpt lat="45.9408" lon="4.68945">
        <ele>341</ele>
        <time>2018-07-06T10:43:55Z</time>
      </trkpt>
      <trkpt lat="45.94087" lon="4.68947">
        <ele>340</ele>
        <time>2018-07-06T10:43:56Z</time>
      </trkpt>
      <trkpt lat="45.94093" lon="4.68949">
        <ele>340</ele>
        <time>2018-07-06T10:43:57Z</time>
      </trkpt>
      <trkpt lat="45.941" lon="4.68951">
        <ele>340</ele>
        <time>2018-07-06T10:43:58Z</time>
      </trkpt>
      <trkpt lat="45.94107" lon="4.68953">
        <ele>340</ele>
        <time>2018-07-06T10:43:59Z</time>
      </trkpt>
      <trkpt lat="45.94112" lon="4.68956">
        <ele>340</ele>
        <time>2018-07-06T10:44:00Z</time>
      </trkpt>
      <trkpt lat="45.94118" lon="4.6896">
        <ele>340</ele>
        <time>2018-07-06T10:44:01Z</time>
      </trkpt>
      <trkpt lat="45.94124" lon="4.68962">
        <ele>340</ele>
        <time>2018-07-06T10:44:02Z</time>
      </trkpt>
      <trkpt lat="45.94129" lon="4.68964">
        <ele>340</ele>
        <time>2018-07-06T10:44:03Z</time>
      </trkpt>
      <trkpt lat="45.94135" lon="4.68967">
        <ele>340</ele>
        <time>2018-07-06T10:44:04Z</time>
      </trkpt>
      <trkpt lat="45.94141" lon="4.68969">
        <ele>340</ele>
        <time>2018-07-06T10:44:05Z</time>
      </trkpt>
      <trkpt lat="45.94147" lon="4.6897">
        <ele>340</ele>
        <time>2018-07-06T10:44:06Z</time>
      </trkpt>
      <trkpt lat="45.94153" lon="4.68974">
        <ele>340</ele>
        <time>2018-07-06T10:44:07Z</time>
      </trkpt>
      <trkpt lat="45.94158" lon="4.68975">
        <ele>340</ele>
        <time>2018-07-06T10:44:08Z</time>
      </trkpt>
      <trkpt lat="45.94163" lon="4.68979">
        <ele>340</ele>
        <time>2018-07-06T10:44:09Z</time>
      </trkpt>
      <trkpt lat="45.94169" lon="4.6898">
        <ele>339</ele>
        <time>2018-07-06T10:44:10Z</time>
      </trkpt>
      <trkpt lat="45.94175" lon="4.68982">
        <ele>339</ele>
        <time>2018-07-06T10:44:11Z</time>
      </trkpt>
      <trkpt lat="45.94181" lon="4.68984">
        <ele>339</ele>
        <time>2018-07-06T10:44:12Z</time>
      </trkpt>
      <trkpt lat="45.94188" lon="4.68984">
        <ele>339</ele>
        <time>2018-07-06T10:44:13Z</time>
      </trkpt>
      <trkpt lat="45.94194" lon="4.68986">
        <ele>338</ele>
        <time>2018-07-06T10:44:14Z</time>
      </trkpt>
      <trkpt lat="45.942" lon="4.68988">
        <ele>338</ele>
        <time>2018-07-06T10:44:15Z</time>
      </trkpt>
      <trkpt lat="45.94207" lon="4.68989">
        <ele>338</ele>
        <time>2018-07-06T10:44:16Z</time>
      </trkpt>
      <trkpt lat="45.94212" lon="4.68991">
        <ele>338</ele>
        <time>2018-07-06T10:44:17Z</time>
      </trkpt>
      <trkpt lat="45.9422" lon="4.68992">
        <ele>338</ele>
        <time>2018-07-06T10:44:18Z</time>
      </trkpt>
      <trkpt lat="45.94226" lon="4.68991">
        <ele>338</ele>
        <time>2018-07-06T10:44:19Z</time>
      </trkpt>
      <trkpt lat="45.9423" lon="4.68991">
        <ele>338</ele>
        <time>2018-07-06T10:44:20Z</time>
      </trkpt>
      <trkpt lat="45.94235" lon="4.68992">
        <ele>338</ele>
        <time>2018-07-06T10:44:21Z</time>
      </trkpt>
      <trkpt lat="45.94242" lon="4.68995">
        <ele>338</ele>
        <time>2018-07-06T10:44:22Z</time>
      </trkpt>
      <trkpt lat="45.94248" lon="4.68996">
        <ele>338</ele>
        <time>2018-07-06T10:44:23Z</time>
      </trkpt>
      <trkpt lat="45.94254" lon="4.68997">
        <ele>338</ele>
        <time>2018-07-06T10:44:24Z</time>
      </trkpt>
      <trkpt lat="45.94259" lon="4.68998">
        <ele>337</ele>
        <time>2018-07-06T10:44:25Z</time>
      </trkpt>
      <trkpt lat="45.94264" lon="4.68997">
        <ele>337</ele>
        <time>2018-07-06T10:44:26Z</time>
      </trkpt>
      <trkpt lat="45.9427" lon="4.68998">
        <ele>337</ele>
        <time>2018-07-06T10:44:27Z</time>
      </trkpt>
      <trkpt lat="45.94276" lon="4.68998">
        <ele>337</ele>
        <time>2018-07-06T10:44:28Z</time>
      </trkpt>
      <trkpt lat="45.94282" lon="4.68999">
        <ele>337</ele>
        <time>2018-07-06T10:44:29Z</time>
      </trkpt>
      <trkpt lat="45.94287" lon="4.69">
        <ele>337</ele>
        <time>2018-07-06T10:44:30Z</time>
      </trkpt>
      <trkpt lat="45.94292" lon="4.69001">
        <ele>337</ele>
        <time>2018-07-06T10:44:31Z</time>
      </trkpt>
      <trkpt lat="45.94297" lon="4.69001">
        <ele>337</ele>
        <time>2018-07-06T10:44:32Z</time>
      </trkpt>
      <trkpt lat="45.94302" lon="4.69002">
        <ele>337</ele>
        <time>2018-07-06T10:44:33Z</time>
      </trkpt>
      <trkpt lat="45.94308" lon="4.69002">
        <ele>337</ele>
        <time>2018-07-06T10:44:34Z</time>
      </trkpt>
      <trkpt lat="45.94313" lon="4.69002">
        <ele>337</ele>
        <time>2018-07-06T10:44:35Z</time>
      </trkpt>
      <trkpt lat="45.94318" lon="4.69004">
        <ele>337</ele>
        <time>2018-07-06T10:44:36Z</time>
      </trkpt>
      <trkpt lat="45.94323" lon="4.69005">
        <ele>337</ele>
        <time>2018-07-06T10:44:37Z</time>
      </trkpt>
      <trkpt lat="45.94328" lon="4.69005">
        <ele>337</ele>
        <time>2018-07-06T10:44:38Z</time>
      </trkpt>
      <trkpt lat="45.94334" lon="4.69005">
        <ele>337</ele>
        <time>2018-07-06T10:44:39Z</time>
      </trkpt>
      <trkpt lat="45.9434" lon="4.69007">
        <ele>337</ele>
        <time>2018-07-06T10:44:40Z</time>
      </trkpt>
      <trkpt lat="45.94345" lon="4.69007">
        <ele>338</ele>
        <time>2018-07-06T10:44:41Z</time>
      </trkpt>
      <trkpt lat="45.94352" lon="4.69005">
        <ele>338</ele>
        <time>2018-07-06T10:44:42Z</time>
      </trkpt>
      <trkpt lat="45.94357" lon="4.69006">
        <ele>338</ele>
        <time>2018-07-06T10:44:43Z</time>
      </trkpt>
      <trkpt lat="45.94362" lon="4.69006">
        <ele>338</ele>
        <time>2018-07-06T10:44:44Z</time>
      </trkpt>
      <trkpt lat="45.94367" lon="4.69007">
        <ele>338</ele>
        <time>2018-07-06T10:44:45Z</time>
      </trkpt>
      <trkpt lat="45.94372" lon="4.69006">
        <ele>338</ele>
        <time>2018-07-06T10:44:46Z</time>
      </trkpt>
      <trkpt lat="45.94377" lon="4.69006">
        <ele>338</ele>
        <time>2018-07-06T10:44:47Z</time>
      </trkpt>
      <trkpt lat="45.94381" lon="4.69006">
        <ele>338</ele>
        <time>2018-07-06T10:44:48Z</time>
      </trkpt>
      <trkpt lat="45.9439" lon="4.69004">
        <ele>338</ele>
        <time>2018-07-06T10:44:50Z</time>
      </trkpt>
      <trkpt lat="45.94395" lon="4.69004">
        <ele>339</ele>
        <time>2018-07-06T10:44:51Z</time>
      </trkpt>
      <trkpt lat="45.944" lon="4.69004">
        <ele>339</ele>
        <time>2018-07-06T10:44:52Z</time>
      </trkpt>
      <trkpt lat="45.94405" lon="4.69002">
        <ele>339</ele>
        <time>2018-07-06T10:44:53Z</time>
      </trkpt>
      <trkpt lat="45.9441" lon="4.69002">
        <ele>339</ele>
        <time>2018-07-06T10:44:54Z</time>
      </trkpt>
      <trkpt lat="45.94415" lon="4.69003">
        <ele>339</ele>
        <time>2018-07-06T10:44:55Z</time>
      </trkpt>
      <trkpt lat="45.94423" lon="4.69001">
        <ele>339</ele>
        <time>2018-07-06T10:44:57Z</time>
      </trkpt>
      <trkpt lat="45.94427" lon="4.69001">
        <ele>340</ele>
        <time>2018-07-06T10:44:58Z</time>
      </trkpt>
      <trkpt lat="45.94432" lon="4.69001">
        <ele>340</ele>
        <time>2018-07-06T10:44:59Z</time>
      </trkpt>
      <trkpt lat="45.94437" lon="4.69002">
        <ele>340</ele>
        <time>2018-07-06T10:45:00Z</time>
      </trkpt>
      <trkpt lat="45.94443" lon="4.69">
        <ele>338</ele>
        <time>2018-07-06T10:45:01Z</time>
      </trkpt>
      <trkpt lat="45.94448" lon="4.69001">
        <ele>340</ele>
        <time>2018-07-06T10:45:02Z</time>
      </trkpt>
      <trkpt lat="45.94453" lon="4.69001">
        <ele>340</ele>
        <time>2018-07-06T10:45:03Z</time>
      </trkpt>
      <trkpt lat="45.94458" lon="4.69001">
        <ele>340</ele>
        <time>2018-07-06T10:45:04Z</time>
      </trkpt>
      <trkpt lat="45.94463" lon="4.69001">
        <ele>341</ele>
        <time>2018-07-06T10:45:05Z</time>
      </trkpt>
      <trkpt lat="45.94468" lon="4.69003">
        <ele>341</ele>
        <time>2018-07-06T10:45:06Z</time>
      </trkpt>
      <trkpt lat="45.94473" lon="4.69003">
        <ele>341</ele>
        <time>2018-07-06T10:45:07Z</time>
      </trkpt>
      <trkpt lat="45.94477" lon="4.69006">
        <ele>341</ele>
        <time>2018-07-06T10:45:08Z</time>
      </trkpt>
      <trkpt lat="45.94482" lon="4.69007">
        <ele>341</ele>
        <time>2018-07-06T10:45:09Z</time>
      </trkpt>
      <trkpt lat="45.94487" lon="4.69008">
        <ele>341</ele>
        <time>2018-07-06T10:45:10Z</time>
      </trkpt>
      <trkpt lat="45.94492" lon="4.69008">
        <ele>341</ele>
        <time>2018-07-06T10:45:11Z</time>
      </trkpt>
      <trkpt lat="45.94497" lon="4.69009">
        <ele>341</ele>
        <time>2018-07-06T10:45:12Z</time>
      </trkpt>
      <trkpt lat="45.94503" lon="4.69009">
        <ele>341</ele>
        <time>2018-07-06T10:45:13Z</time>
      </trkpt>
      <trkpt lat="45.94507" lon="4.6901">
        <ele>341</ele>
        <time>2018-07-06T10:45:14Z</time>
      </trkpt>
      <trkpt lat="45.94512" lon="4.69012">
        <ele>341</ele>
        <time>2018-07-06T10:45:15Z</time>
      </trkpt>
      <trkpt lat="45.94517" lon="4.69013">
        <ele>342</ele>
        <time>2018-07-06T10:45:16Z</time>
      </trkpt>
      <trkpt lat="45.94526" lon="4.69016">
        <ele>342</ele>
        <time>2018-07-06T10:45:18Z</time>
      </trkpt>
      <trkpt lat="45.9453" lon="4.6902">
        <ele>342</ele>
        <time>2018-07-06T10:45:19Z</time>
      </trkpt>
      <trkpt lat="45.94535" lon="4.69021">
        <ele>342</ele>
        <time>2018-07-06T10:45:20Z</time>
      </trkpt>
      <trkpt lat="45.94539" lon="4.69022">
        <ele>342</ele>
        <time>2018-07-06T10:45:21Z</time>
      </trkpt>
      <trkpt lat="45.94548" lon="4.69022">
        <ele>342</ele>
        <time>2018-07-06T10:45:23Z</time>
      </trkpt>
      <trkpt lat="45.94552" lon="4.69024">
        <ele>342</ele>
        <time>2018-07-06T10:45:24Z</time>
      </trkpt>
      <trkpt lat="45.94557" lon="4.69026">
        <ele>342</ele>
        <time>2018-07-06T10:45:25Z</time>
      </trkpt>
      <trkpt lat="45.94561" lon="4.69028">
        <ele>342</ele>
        <time>2018-07-06T10:45:26Z</time>
      </trkpt>
      <trkpt lat="45.9457" lon="4.69027">
        <ele>342</ele>
        <time>2018-07-06T10:45:28Z</time>
      </trkpt>
      <trkpt lat="45.94574" lon="4.69029">
        <ele>342</ele>
        <time>2018-07-06T10:45:29Z</time>
      </trkpt>
      <trkpt lat="45.94579" lon="4.69031">
        <ele>342</ele>
        <time>2018-07-06T10:45:30Z</time>
      </trkpt>
      <trkpt lat="45.94584" lon="4.69033">
        <ele>342</ele>
        <time>2018-07-06T10:45:31Z</time>
      </trkpt>
      <trkpt lat="45.94589" lon="4.69035">
        <ele>342</ele>
        <time>2018-07-06T10:45:32Z</time>
      </trkpt>
      <trkpt lat="45.94594" lon="4.69036">
        <ele>342</ele>
        <time>2018-07-06T10:45:33Z</time>
      </trkpt>
      <trkpt lat="45.94602" lon="4.69041">
        <ele>342</ele>
        <time>2018-07-06T10:45:35Z</time>
      </trkpt>
      <trkpt lat="45.94606" lon="4.69042">
        <ele>342</ele>
        <time>2018-07-06T10:45:36Z</time>
      </trkpt>
      <trkpt lat="45.94611" lon="4.69044">
        <ele>342</ele>
        <time>2018-07-06T10:45:37Z</time>
      </trkpt>
      <trkpt lat="45.94617" lon="4.69042">
        <ele>342</ele>
        <time>2018-07-06T10:45:38Z</time>
      </trkpt>
      <trkpt lat="45.94626" lon="4.69045">
        <ele>342</ele>
        <time>2018-07-06T10:45:40Z</time>
      </trkpt>
      <trkpt lat="45.9463" lon="4.69047">
        <ele>342</ele>
        <time>2018-07-06T10:45:41Z</time>
      </trkpt>
      <trkpt lat="45.94637" lon="4.69051">
        <ele>342</ele>
        <time>2018-07-06T10:45:43Z</time>
      </trkpt>
      <trkpt lat="45.94641" lon="4.69054">
        <ele>342</ele>
        <time>2018-07-06T10:45:44Z</time>
      </trkpt>
      <trkpt lat="45.94645" lon="4.69056">
        <ele>342</ele>
        <time>2018-07-06T10:45:45Z</time>
      </trkpt>
      <trkpt lat="45.9465" lon="4.69058">
        <ele>342</ele>
        <time>2018-07-06T10:45:46Z</time>
      </trkpt>
      <trkpt lat="45.94655" lon="4.69061">
        <ele>342</ele>
        <time>2018-07-06T10:45:47Z</time>
      </trkpt>
      <trkpt lat="45.94659" lon="4.69062">
        <ele>342</ele>
        <time>2018-07-06T10:45:48Z</time>
      </trkpt>
      <trkpt lat="45.94664" lon="4.69064">
        <ele>342</ele>
        <time>2018-07-06T10:45:49Z</time>
      </trkpt>
      <trkpt lat="45.94668" lon="4.69066">
        <ele>342</ele>
        <time>2018-07-06T10:45:50Z</time>
      </trkpt>
      <trkpt lat="45.94677" lon="4.69068">
        <ele>342</ele>
        <time>2018-07-06T10:45:52Z</time>
      </trkpt>
      <trkpt lat="45.94681" lon="4.69068">
        <ele>342</ele>
        <time>2018-07-06T10:45:53Z</time>
      </trkpt>
      <trkpt lat="45.94686" lon="4.69069">
        <ele>342</ele>
        <time>2018-07-06T10:45:54Z</time>
      </trkpt>
      <trkpt lat="45.9469" lon="4.69071">
        <ele>342</ele>
        <time>2018-07-06T10:45:55Z</time>
      </trkpt>
      <trkpt lat="45.94695" lon="4.69074">
        <ele>342</ele>
        <time>2018-07-06T10:45:56Z</time>
      </trkpt>
      <trkpt lat="45.94701" lon="4.69076">
        <ele>342</ele>
        <time>2018-07-06T10:45:57Z</time>
      </trkpt>
      <trkpt lat="45.94706" lon="4.69075">
        <ele>342</ele>
        <time>2018-07-06T10:45:58Z</time>
      </trkpt>
      <trkpt lat="45.9471" lon="4.69077">
        <ele>343</ele>
        <time>2018-07-06T10:45:59Z</time>
      </trkpt>
      <trkpt lat="45.94715" lon="4.69079">
        <ele>343</ele>
        <time>2018-07-06T10:46:00Z</time>
      </trkpt>
      <trkpt lat="45.9472" lon="4.69081">
        <ele>343</ele>
        <time>2018-07-06T10:46:01Z</time>
      </trkpt>
      <trkpt lat="45.94724" lon="4.69082">
        <ele>343</ele>
        <time>2018-07-06T10:46:02Z</time>
      </trkpt>
      <trkpt lat="45.94729" lon="4.69084">
        <ele>344</ele>
        <time>2018-07-06T10:46:03Z</time>
      </trkpt>
      <trkpt lat="45.94734" lon="4.69083">
        <ele>344</ele>
        <time>2018-07-06T10:46:04Z</time>
      </trkpt>
      <trkpt lat="45.94739" lon="4.69085">
        <ele>345</ele>
        <time>2018-07-06T10:46:05Z</time>
      </trkpt>
      <trkpt lat="45.94745" lon="4.69088">
        <ele>345</ele>
        <time>2018-07-06T10:46:06Z</time>
      </trkpt>
      <trkpt lat="45.9475" lon="4.69089">
        <ele>345</ele>
        <time>2018-07-06T10:46:07Z</time>
      </trkpt>
      <trkpt lat="45.94755" lon="4.69091">
        <ele>345</ele>
        <time>2018-07-06T10:46:08Z</time>
      </trkpt>
      <trkpt lat="45.9476" lon="4.69093">
        <ele>345</ele>
        <time>2018-07-06T10:46:09Z</time>
      </trkpt>
      <trkpt lat="45.94765" lon="4.69097">
        <ele>344</ele>
        <time>2018-07-06T10:46:10Z</time>
      </trkpt>
      <trkpt lat="45.94769" lon="4.69098">
        <ele>344</ele>
        <time>2018-07-06T10:46:11Z</time>
      </trkpt>
      <trkpt lat="45.94773" lon="4.69099">
        <ele>344</ele>
        <time>2018-07-06T10:46:12Z</time>
      </trkpt>
      <trkpt lat="45.94779" lon="4.69101">
        <ele>344</ele>
        <time>2018-07-06T10:46:13Z</time>
      </trkpt>
      <trkpt lat="45.94784" lon="4.69103">
        <ele>344</ele>
        <time>2018-07-06T10:46:14Z</time>
      </trkpt>
      <trkpt lat="45.94789" lon="4.69106">
        <ele>344</ele>
        <time>2018-07-06T10:46:15Z</time>
      </trkpt>
      <trkpt lat="45.94794" lon="4.69106">
        <ele>344</ele>
        <time>2018-07-06T10:46:16Z</time>
      </trkpt>
      <trkpt lat="45.948" lon="4.69109">
        <ele>344</ele>
        <time>2018-07-06T10:46:17Z</time>
      </trkpt>
      <trkpt lat="45.94805" lon="4.69111">
        <ele>344</ele>
        <time>2018-07-06T10:46:18Z</time>
      </trkpt>
      <trkpt lat="45.9481" lon="4.69113">
        <ele>344</ele>
        <time>2018-07-06T10:46:19Z</time>
      </trkpt>
      <trkpt lat="45.94816" lon="4.69116">
        <ele>344</ele>
        <time>2018-07-06T10:46:20Z</time>
      </trkpt>
      <trkpt lat="45.94822" lon="4.69118">
        <ele>344</ele>
        <time>2018-07-06T10:46:21Z</time>
      </trkpt>
      <trkpt lat="45.94829" lon="4.69118">
        <ele>344</ele>
        <time>2018-07-06T10:46:22Z</time>
      </trkpt>
      <trkpt lat="45.94834" lon="4.69118">
        <ele>342</ele>
        <time>2018-07-06T10:46:23Z</time>
      </trkpt>
      <trkpt lat="45.94839" lon="4.69119">
        <ele>342</ele>
        <time>2018-07-06T10:46:24Z</time>
      </trkpt>
      <trkpt lat="45.94844" lon="4.69121">
        <ele>342</ele>
        <time>2018-07-06T10:46:25Z</time>
      </trkpt>
      <trkpt lat="45.94848" lon="4.6912">
        <ele>342</ele>
        <time>2018-07-06T10:46:26Z</time>
      </trkpt>
      <trkpt lat="45.94853" lon="4.69122">
        <ele>342</ele>
        <time>2018-07-06T10:46:27Z</time>
      </trkpt>
      <trkpt lat="45.94858" lon="4.69123">
        <ele>342</ele>
        <time>2018-07-06T10:46:28Z</time>
      </trkpt>
      <trkpt lat="45.94863" lon="4.69125">
        <ele>342</ele>
        <time>2018-07-06T10:46:29Z</time>
      </trkpt>
      <trkpt lat="45.94868" lon="4.69129">
        <ele>342</ele>
        <time>2018-07-06T10:46:30Z</time>
      </trkpt>
      <trkpt lat="45.94872" lon="4.69131">
        <ele>342</ele>
        <time>2018-07-06T10:46:31Z</time>
      </trkpt>
      <trkpt lat="45.94877" lon="4.69133">
        <ele>342</ele>
        <time>2018-07-06T10:46:32Z</time>
      </trkpt>
      <trkpt lat="45.94882" lon="4.69137">
        <ele>342</ele>
        <time>2018-07-06T10:46:33Z</time>
      </trkpt>
      <trkpt lat="45.94886" lon="4.69138">
        <ele>342</ele>
        <time>2018-07-06T10:46:34Z</time>
      </trkpt>
      <trkpt lat="45.94891" lon="4.6914">
        <ele>342</ele>
        <time>2018-07-06T10:46:35Z</time>
      </trkpt>
      <trkpt lat="45.94896" lon="4.69145">
        <ele>342</ele>
        <time>2018-07-06T10:46:36Z</time>
      </trkpt>
      <trkpt lat="45.94901" lon="4.69148">
        <ele>342</ele>
        <time>2018-07-06T10:46:37Z</time>
      </trkpt>
      <trkpt lat="45.94906" lon="4.69151">
        <ele>342</ele>
        <time>2018-07-06T10:46:38Z</time>
      </trkpt>
      <trkpt lat="45.94912" lon="4.69154">
        <ele>342</ele>
        <time>2018-07-06T10:46:39Z</time>
      </trkpt>
      <trkpt lat="45.94917" lon="4.69158">
        <ele>341</ele>
        <time>2018-07-06T10:46:40Z</time>
      </trkpt>
      <trkpt lat="45.94923" lon="4.69162">
        <ele>341</ele>
        <time>2018-07-06T10:46:41Z</time>
      </trkpt>
      <trkpt lat="45.94929" lon="4.69165">
        <ele>340</ele>
        <time>2018-07-06T10:46:42Z</time>
      </trkpt>
      <trkpt lat="45.94935" lon="4.69169">
        <ele>341</ele>
        <time>2018-07-06T10:46:43Z</time>
      </trkpt>
      <trkpt lat="45.9494" lon="4.69172">
        <ele>341</ele>
        <time>2018-07-06T10:46:44Z</time>
      </trkpt>
      <trkpt lat="45.94946" lon="4.69177">
        <ele>340</ele>
        <time>2018-07-06T10:46:45Z</time>
      </trkpt>
      <trkpt lat="45.94952" lon="4.69181">
        <ele>340</ele>
        <time>2018-07-06T10:46:46Z</time>
      </trkpt>
      <trkpt lat="45.94958" lon="4.69186">
        <ele>340</ele>
        <time>2018-07-06T10:46:47Z</time>
      </trkpt>
      <trkpt lat="45.94964" lon="4.69191">
        <ele>340</ele>
        <time>2018-07-06T10:46:48Z</time>
      </trkpt>
      <trkpt lat="45.9497" lon="4.69197">
        <ele>340</ele>
        <time>2018-07-06T10:46:49Z</time>
      </trkpt>
      <trkpt lat="45.94975" lon="4.69203">
        <ele>340</ele>
        <time>2018-07-06T10:46:50Z</time>
      </trkpt>
      <trkpt lat="45.94981" lon="4.69207">
        <ele>340</ele>
        <time>2018-07-06T10:46:51Z</time>
      </trkpt>
      <trkpt lat="45.94987" lon="4.69212">
        <ele>340</ele>
        <time>2018-07-06T10:46:52Z</time>
      </trkpt>
      <trkpt lat="45.94994" lon="4.69214">
        <ele>340</ele>
        <time>2018-07-06T10:46:53Z</time>
      </trkpt>
      <trkpt lat="45.95002" lon="4.69218">
        <ele>337</ele>
        <time>2018-07-06T10:46:54Z</time>
      </trkpt>
      <trkpt lat="45.95009" lon="4.69222">
        <ele>337</ele>
        <time>2018-07-06T10:46:55Z</time>
      </trkpt>
      <trkpt lat="45.95016" lon="4.69227">
        <ele>337</ele>
        <time>2018-07-06T10:46:56Z</time>
      </trkpt>
      <trkpt lat="45.95023" lon="4.69233">
        <ele>337</ele>
        <time>2018-07-06T10:46:57Z</time>
      </trkpt>
      <trkpt lat="45.9503" lon="4.69239">
        <ele>337</ele>
        <time>2018-07-06T10:46:58Z</time>
      </trkpt>
      <trkpt lat="45.95037" lon="4.69242">
        <ele>336</ele>
        <time>2018-07-06T10:46:59Z</time>
      </trkpt>
      <trkpt lat="45.95045" lon="4.6925">
        <ele>336</ele>
        <time>2018-07-06T10:47:00Z</time>
      </trkpt>
      <trkpt lat="45.95051" lon="4.69257">
        <ele>337</ele>
        <time>2018-07-06T10:47:01Z</time>
      </trkpt>
      <trkpt lat="45.95059" lon="4.69265">
        <ele>336</ele>
        <time>2018-07-06T10:47:02Z</time>
      </trkpt>
      <trkpt lat="45.95065" lon="4.69272">
        <ele>336</ele>
        <time>2018-07-06T10:47:03Z</time>
      </trkpt>
      <trkpt lat="45.95071" lon="4.69279">
        <ele>336</ele>
        <time>2018-07-06T10:47:04Z</time>
      </trkpt>
      <trkpt lat="45.95077" lon="4.69286">
        <ele>336</ele>
        <time>2018-07-06T10:47:05Z</time>
      </trkpt>
      <trkpt lat="45.95083" lon="4.69293">
        <ele>336</ele>
        <time>2018-07-06T10:47:06Z</time>
      </trkpt>
      <trkpt lat="45.95089" lon="4.693">
        <ele>334</ele>
        <time>2018-07-06T10:47:07Z</time>
      </trkpt>
      <trkpt lat="45.95096" lon="4.69306">
        <ele>334</ele>
        <time>2018-07-06T10:47:08Z</time>
      </trkpt>
      <trkpt lat="45.95101" lon="4.69312">
        <ele>334</ele>
        <time>2018-07-06T10:47:09Z</time>
      </trkpt>
      <trkpt lat="45.95107" lon="4.69318">
        <ele>334</ele>
        <time>2018-07-06T10:47:10Z</time>
      </trkpt>
      <trkpt lat="45.95113" lon="4.69324">
        <ele>334</ele>
        <time>2018-07-06T10:47:11Z</time>
      </trkpt>
      <trkpt lat="45.95118" lon="4.69328">
        <ele>334</ele>
        <time>2018-07-06T10:47:12Z</time>
      </trkpt>
      <trkpt lat="45.95124" lon="4.69333">
        <ele>334</ele>
        <time>2018-07-06T10:47:13Z</time>
      </trkpt>
      <trkpt lat="45.95129" lon="4.69338">
        <ele>336</ele>
        <time>2018-07-06T10:47:14Z</time>
      </trkpt>
      <trkpt lat="45.95133" lon="4.69343">
        <ele>337</ele>
        <time>2018-07-06T10:47:15Z</time>
      </trkpt>
      <trkpt lat="45.95137" lon="4.69348">
        <ele>337</ele>
        <time>2018-07-06T10:47:16Z</time>
      </trkpt>
      <trkpt lat="45.95142" lon="4.69354">
        <ele>337</ele>
        <time>2018-07-06T10:47:17Z</time>
      </trkpt>
      <trkpt lat="45.95146" lon="4.69356">
        <ele>337</ele>
        <time>2018-07-06T10:47:18Z</time>
      </trkpt>
      <trkpt lat="45.9515" lon="4.6936">
        <ele>337</ele>
        <time>2018-07-06T10:47:19Z</time>
      </trkpt>
      <trkpt lat="45.95154" lon="4.69364">
        <ele>337</ele>
        <time>2018-07-06T10:47:20Z</time>
      </trkpt>
      <trkpt lat="45.95158" lon="4.69369">
        <ele>337</ele>
        <time>2018-07-06T10:47:21Z</time>
      </trkpt>
      <trkpt lat="45.95162" lon="4.69373">
        <ele>337</ele>
        <time>2018-07-06T10:47:22Z</time>
      </trkpt>
      <trkpt lat="45.95166" lon="4.69376">
        <ele>337</ele>
        <time>2018-07-06T10:47:23Z</time>
      </trkpt>
      <trkpt lat="45.95171" lon="4.69381">
        <ele>337</ele>
        <time>2018-07-06T10:47:24Z</time>
      </trkpt>
      <trkpt lat="45.95174" lon="4.69384">
        <ele>337</ele>
        <time>2018-07-06T10:47:25Z</time>
      </trkpt>
      <trkpt lat="45.9518" lon="4.69388">
        <ele>337</ele>
        <time>2018-07-06T10:47:26Z</time>
      </trkpt>
      <trkpt lat="45.95185" lon="4.69392">
        <ele>337</ele>
        <time>2018-07-06T10:47:27Z</time>
      </trkpt>
      <trkpt lat="45.95189" lon="4.69396">
        <ele>337</ele>
        <time>2018-07-06T10:47:28Z</time>
      </trkpt>
      <trkpt lat="45.95193" lon="4.694">
        <ele>337</ele>
        <time>2018-07-06T10:47:29Z</time>
      </trkpt>
      <trkpt lat="45.95197" lon="4.69403">
        <ele>337</ele>
        <time>2018-07-06T10:47:30Z</time>
      </trkpt>
      <trkpt lat="45.95202" lon="4.69405">
        <ele>337</ele>
        <time>2018-07-06T10:47:31Z</time>
      </trkpt>
      <trkpt lat="45.95207" lon="4.69408">
        <ele>337</ele>
        <time>2018-07-06T10:47:32Z</time>
      </trkpt>
      <trkpt lat="45.95211" lon="4.6941">
        <ele>337</ele>
        <time>2018-07-06T10:47:33Z</time>
      </trkpt>
      <trkpt lat="45.95216" lon="4.69412">
        <ele>337</ele>
        <time>2018-07-06T10:47:34Z</time>
      </trkpt>
      <trkpt lat="45.9522" lon="4.69413">
        <ele>337</ele>
        <time>2018-07-06T10:47:35Z</time>
      </trkpt>
      <trkpt lat="45.95225" lon="4.69414">
        <ele>337</ele>
        <time>2018-07-06T10:47:36Z</time>
      </trkpt>
      <trkpt lat="45.95229" lon="4.69416">
        <ele>337</ele>
        <time>2018-07-06T10:47:37Z</time>
      </trkpt>
      <trkpt lat="45.95234" lon="4.69419">
        <ele>339</ele>
        <time>2018-07-06T10:47:38Z</time>
      </trkpt>
      <trkpt lat="45.95238" lon="4.6942">
        <ele>339</ele>
        <time>2018-07-06T10:47:39Z</time>
      </trkpt>
      <trkpt lat="45.95244" lon="4.69423">
        <ele>339</ele>
        <time>2018-07-06T10:47:40Z</time>
      </trkpt>
      <trkpt lat="45.95248" lon="4.69425">
        <ele>339</ele>
        <time>2018-07-06T10:47:41Z</time>
      </trkpt>
      <trkpt lat="45.95254" lon="4.69427">
        <ele>338</ele>
        <time>2018-07-06T10:47:42Z</time>
      </trkpt>
      <trkpt lat="45.95261" lon="4.69433">
        <ele>338</ele>
        <time>2018-07-06T10:47:44Z</time>
      </trkpt>
      <trkpt lat="45.95266" lon="4.69436">
        <ele>338</ele>
        <time>2018-07-06T10:47:45Z</time>
      </trkpt>
      <trkpt lat="45.95272" lon="4.69439">
        <ele>338</ele>
        <time>2018-07-06T10:47:46Z</time>
      </trkpt>
      <trkpt lat="45.95278" lon="4.69442">
        <ele>338</ele>
        <time>2018-07-06T10:47:47Z</time>
      </trkpt>
      <trkpt lat="45.95284" lon="4.69444">
        <ele>338</ele>
        <time>2018-07-06T10:47:48Z</time>
      </trkpt>
      <trkpt lat="45.9529" lon="4.69447">
        <ele>338</ele>
        <time>2018-07-06T10:47:49Z</time>
      </trkpt>
      <trkpt lat="45.95295" lon="4.69449">
        <ele>338</ele>
        <time>2018-07-06T10:47:50Z</time>
      </trkpt>
      <trkpt lat="45.95299" lon="4.69452">
        <ele>338</ele>
        <time>2018-07-06T10:47:51Z</time>
      </trkpt>
      <trkpt lat="45.95304" lon="4.69454">
        <ele>338</ele>
        <time>2018-07-06T10:47:52Z</time>
      </trkpt>
      <trkpt lat="45.95309" lon="4.69456">
        <ele>338</ele>
        <time>2018-07-06T10:47:53Z</time>
      </trkpt>
      <trkpt lat="45.95315" lon="4.69459">
        <ele>338</ele>
        <time>2018-07-06T10:47:54Z</time>
      </trkpt>
      <trkpt lat="45.9532" lon="4.69461">
        <ele>338</ele>
        <time>2018-07-06T10:47:55Z</time>
      </trkpt>
      <trkpt lat="45.95325" lon="4.69463">
        <ele>338</ele>
        <time>2018-07-06T10:47:56Z</time>
      </trkpt>
      <trkpt lat="45.95329" lon="4.69466">
        <ele>339</ele>
        <time>2018-07-06T10:47:57Z</time>
      </trkpt>
      <trkpt lat="45.95334" lon="4.69468">
        <ele>337</ele>
        <time>2018-07-06T10:47:58Z</time>
      </trkpt>
      <trkpt lat="45.95339" lon="4.6947">
        <ele>337</ele>
        <time>2018-07-06T10:47:59Z</time>
      </trkpt>
      <trkpt lat="45.95344" lon="4.69475">
        <ele>337</ele>
        <time>2018-07-06T10:48:00Z</time>
      </trkpt>
      <trkpt lat="45.95349" lon="4.69478">
        <ele>337</ele>
        <time>2018-07-06T10:48:01Z</time>
      </trkpt>
      <trkpt lat="45.95355" lon="4.69481">
        <ele>337</ele>
        <time>2018-07-06T10:48:02Z</time>
      </trkpt>
      <trkpt lat="45.9536" lon="4.69485">
        <ele>337</ele>
        <time>2018-07-06T10:48:03Z</time>
      </trkpt>
      <trkpt lat="45.95365" lon="4.6949">
        <ele>337</ele>
        <time>2018-07-06T10:48:04Z</time>
      </trkpt>
      <trkpt lat="45.95372" lon="4.69493">
        <ele>337</ele>
        <time>2018-07-06T10:48:05Z</time>
      </trkpt>
      <trkpt lat="45.95377" lon="4.69496">
        <ele>337</ele>
        <time>2018-07-06T10:48:06Z</time>
      </trkpt>
      <trkpt lat="45.95383" lon="4.695">
        <ele>337</ele>
        <time>2018-07-06T10:48:07Z</time>
      </trkpt>
      <trkpt lat="45.95389" lon="4.69503">
        <ele>340</ele>
        <time>2018-07-06T10:48:08Z</time>
      </trkpt>
      <trkpt lat="45.95395" lon="4.69507">
        <ele>339</ele>
        <time>2018-07-06T10:48:09Z</time>
      </trkpt>
      <trkpt lat="45.95401" lon="4.69512">
        <ele>339</ele>
        <time>2018-07-06T10:48:10Z</time>
      </trkpt>
      <trkpt lat="45.95407" lon="4.69517">
        <ele>339</ele>
        <time>2018-07-06T10:48:11Z</time>
      </trkpt>
      <trkpt lat="45.95413" lon="4.69521">
        <ele>339</ele>
        <time>2018-07-06T10:48:12Z</time>
      </trkpt>
      <trkpt lat="45.95417" lon="4.69526">
        <ele>337</ele>
        <time>2018-07-06T10:48:13Z</time>
      </trkpt>
      <trkpt lat="45.95422" lon="4.6953">
        <ele>337</ele>
        <time>2018-07-06T10:48:14Z</time>
      </trkpt>
      <trkpt lat="45.95427" lon="4.69533">
        <ele>337</ele>
        <time>2018-07-06T10:48:15Z</time>
      </trkpt>
      <trkpt lat="45.95432" lon="4.69536">
        <ele>337</ele>
        <time>2018-07-06T10:48:16Z</time>
      </trkpt>
      <trkpt lat="45.95438" lon="4.69539">
        <ele>337</ele>
        <time>2018-07-06T10:48:17Z</time>
      </trkpt>
      <trkpt lat="45.95443" lon="4.69542">
        <ele>337</ele>
        <time>2018-07-06T10:48:18Z</time>
      </trkpt>
      <trkpt lat="45.95451" lon="4.69545">
        <ele>337</ele>
        <time>2018-07-06T10:48:19Z</time>
      </trkpt>
      <trkpt lat="45.95458" lon="4.69548">
        <ele>337</ele>
        <time>2018-07-06T10:48:20Z</time>
      </trkpt>
      <trkpt lat="45.95464" lon="4.6955">
        <ele>337</ele>
        <time>2018-07-06T10:48:21Z</time>
      </trkpt>
      <trkpt lat="45.95469" lon="4.69552">
        <ele>336</ele>
        <time>2018-07-06T10:48:22Z</time>
      </trkpt>
      <trkpt lat="45.95476" lon="4.69555">
        <ele>336</ele>
        <time>2018-07-06T10:48:23Z</time>
      </trkpt>
      <trkpt lat="45.95482" lon="4.69558">
        <ele>336</ele>
        <time>2018-07-06T10:48:24Z</time>
      </trkpt>
      <trkpt lat="45.95488" lon="4.69562">
        <ele>336</ele>
        <time>2018-07-06T10:48:25Z</time>
      </trkpt>
      <trkpt lat="45.95495" lon="4.69564">
        <ele>337</ele>
        <time>2018-07-06T10:48:26Z</time>
      </trkpt>
      <trkpt lat="45.95502" lon="4.69567">
        <ele>334</ele>
        <time>2018-07-06T10:48:27Z</time>
      </trkpt>
      <trkpt lat="45.95508" lon="4.69569">
        <ele>334</ele>
        <time>2018-07-06T10:48:28Z</time>
      </trkpt>
      <trkpt lat="45.95514" lon="4.69572">
        <ele>334</ele>
        <time>2018-07-06T10:48:29Z</time>
      </trkpt>
      <trkpt lat="45.95521" lon="4.69575">
        <ele>333</ele>
        <time>2018-07-06T10:48:30Z</time>
      </trkpt>
      <trkpt lat="45.95527" lon="4.69579">
        <ele>333</ele>
        <time>2018-07-06T10:48:31Z</time>
      </trkpt>
      <trkpt lat="45.95534" lon="4.69581">
        <ele>332</ele>
        <time>2018-07-06T10:48:32Z</time>
      </trkpt>
      <trkpt lat="45.95541" lon="4.69584">
        <ele>332</ele>
        <time>2018-07-06T10:48:33Z</time>
      </trkpt>
      <trkpt lat="45.95548" lon="4.69587">
        <ele>331</ele>
        <time>2018-07-06T10:48:34Z</time>
      </trkpt>
      <trkpt lat="45.95555" lon="4.69591">
        <ele>331</ele>
        <time>2018-07-06T10:48:35Z</time>
      </trkpt>
      <trkpt lat="45.95563" lon="4.69594">
        <ele>330</ele>
        <time>2018-07-06T10:48:36Z</time>
      </trkpt>
      <trkpt lat="45.9557" lon="4.69598">
        <ele>330</ele>
        <time>2018-07-06T10:48:37Z</time>
      </trkpt>
      <trkpt lat="45.95577" lon="4.69602">
        <ele>330</ele>
        <time>2018-07-06T10:48:38Z</time>
      </trkpt>
      <trkpt lat="45.95586" lon="4.69606">
        <ele>328</ele>
        <time>2018-07-06T10:48:39Z</time>
      </trkpt>
      <trkpt lat="45.95593" lon="4.69608">
        <ele>328</ele>
        <time>2018-07-06T10:48:40Z</time>
      </trkpt>
      <trkpt lat="45.956" lon="4.69611">
        <ele>328</ele>
        <time>2018-07-06T10:48:41Z</time>
      </trkpt>
      <trkpt lat="45.95608" lon="4.69614">
        <ele>328</ele>
        <time>2018-07-06T10:48:42Z</time>
      </trkpt>
      <trkpt lat="45.95616" lon="4.69617">
        <ele>328</ele>
        <time>2018-07-06T10:48:43Z</time>
      </trkpt>
      <trkpt lat="45.95624" lon="4.69619">
        <ele>328</ele>
        <time>2018-07-06T10:48:44Z</time>
      </trkpt>
      <trkpt lat="45.9563" lon="4.69624">
        <ele>328</ele>
        <time>2018-07-06T10:48:45Z</time>
      </trkpt>
      <trkpt lat="45.95637" lon="4.69626">
        <ele>328</ele>
        <time>2018-07-06T10:48:46Z</time>
      </trkpt>
      <trkpt lat="45.95646" lon="4.6963">
        <ele>328</ele>
        <time>2018-07-06T10:48:47Z</time>
      </trkpt>
      <trkpt lat="45.95652" lon="4.69634">
        <ele>328</ele>
        <time>2018-07-06T10:48:48Z</time>
      </trkpt>
      <trkpt lat="45.9566" lon="4.69637">
        <ele>327</ele>
        <time>2018-07-06T10:48:49Z</time>
      </trkpt>
      <trkpt lat="45.95667" lon="4.6964">
        <ele>326</ele>
        <time>2018-07-06T10:48:50Z</time>
      </trkpt>
      <trkpt lat="45.95674" lon="4.69644">
        <ele>326</ele>
        <time>2018-07-06T10:48:51Z</time>
      </trkpt>
      <trkpt lat="45.95682" lon="4.69647">
        <ele>326</ele>
        <time>2018-07-06T10:48:52Z</time>
      </trkpt>
      <trkpt lat="45.95691" lon="4.6965">
        <ele>326</ele>
        <time>2018-07-06T10:48:53Z</time>
      </trkpt>
      <trkpt lat="45.957" lon="4.69653">
        <ele>326</ele>
        <time>2018-07-06T10:48:54Z</time>
      </trkpt>
      <trkpt lat="45.95707" lon="4.69656">
        <ele>326</ele>
        <time>2018-07-06T10:48:55Z</time>
      </trkpt>
      <trkpt lat="45.95714" lon="4.69659">
        <ele>326</ele>
        <time>2018-07-06T10:48:56Z</time>
      </trkpt>
      <trkpt lat="45.95721" lon="4.69661">
        <ele>326</ele>
        <time>2018-07-06T10:48:57Z</time>
      </trkpt>
      <trkpt lat="45.95728" lon="4.69664">
        <ele>326</ele>
        <time>2018-07-06T10:48:58Z</time>
      </trkpt>
      <trkpt lat="45.95734" lon="4.69666">
        <ele>326</ele>
        <time>2018-07-06T10:48:59Z</time>
      </trkpt>
      <trkpt lat="45.95741" lon="4.69669">
        <ele>326</ele>
        <time>2018-07-06T10:49:00Z</time>
      </trkpt>
      <trkpt lat="45.95747" lon="4.69671">
        <ele>326</ele>
        <time>2018-07-06T10:49:01Z</time>
      </trkpt>
      <trkpt lat="45.95753" lon="4.69674">
        <ele>326</ele>
        <time>2018-07-06T10:49:02Z</time>
      </trkpt>
      <trkpt lat="45.95759" lon="4.69678">
        <ele>326</ele>
        <time>2018-07-06T10:49:03Z</time>
      </trkpt>
      <trkpt lat="45.95764" lon="4.69681">
        <ele>326</ele>
        <time>2018-07-06T10:49:04Z</time>
      </trkpt>
      <trkpt lat="45.95769" lon="4.69682">
        <ele>326</ele>
        <time>2018-07-06T10:49:05Z</time>
      </trkpt>
      <trkpt lat="45.95774" lon="4.69683">
        <ele>326</ele>
        <time>2018-07-06T10:49:06Z</time>
      </trkpt>
      <trkpt lat="45.95779" lon="4.69686">
        <ele>326</ele>
        <time>2018-07-06T10:49:07Z</time>
      </trkpt>
      <trkpt lat="45.95785" lon="4.6969">
        <ele>326</ele>
        <time>2018-07-06T10:49:08Z</time>
      </trkpt>
      <trkpt lat="45.9579" lon="4.69695">
        <ele>326</ele>
        <time>2018-07-06T10:49:09Z</time>
      </trkpt>
      <trkpt lat="45.95794" lon="4.697">
        <ele>326</ele>
        <time>2018-07-06T10:49:10Z</time>
      </trkpt>
      <trkpt lat="45.95798" lon="4.69706">
        <ele>326</ele>
        <time>2018-07-06T10:49:11Z</time>
      </trkpt>
      <trkpt lat="45.95802" lon="4.69711">
        <ele>326</ele>
        <time>2018-07-06T10:49:12Z</time>
      </trkpt>
      <trkpt lat="45.95806" lon="4.69715">
        <ele>326</ele>
        <time>2018-07-06T10:49:13Z</time>
      </trkpt>
      <trkpt lat="45.95809" lon="4.69721">
        <ele>326</ele>
        <time>2018-07-06T10:49:14Z</time>
      </trkpt>
      <trkpt lat="45.95813" lon="4.69726">
        <ele>326</ele>
        <time>2018-07-06T10:49:15Z</time>
      </trkpt>
      <trkpt lat="45.95816" lon="4.69731">
        <ele>326</ele>
        <time>2018-07-06T10:49:16Z</time>
      </trkpt>
      <trkpt lat="45.9582" lon="4.69738">
        <ele>327</ele>
        <time>2018-07-06T10:49:17Z</time>
      </trkpt>
      <trkpt lat="45.95823" lon="4.69744">
        <ele>327</ele>
        <time>2018-07-06T10:49:18Z</time>
      </trkpt>
      <trkpt lat="45.95826" lon="4.6975">
        <ele>327</ele>
        <time>2018-07-06T10:49:19Z</time>
      </trkpt>
      <trkpt lat="45.9583" lon="4.69756">
        <ele>327</ele>
        <time>2018-07-06T10:49:20Z</time>
      </trkpt>
      <trkpt lat="45.95834" lon="4.69761">
        <ele>327</ele>
        <time>2018-07-06T10:49:21Z</time>
      </trkpt>
      <trkpt lat="45.95837" lon="4.69767">
        <ele>327</ele>
        <time>2018-07-06T10:49:22Z</time>
      </trkpt>
      <trkpt lat="45.95839" lon="4.69773">
        <ele>327</ele>
        <time>2018-07-06T10:49:23Z</time>
      </trkpt>
      <trkpt lat="45.95842" lon="4.69779">
        <ele>327</ele>
        <time>2018-07-06T10:49:24Z</time>
      </trkpt>
      <trkpt lat="45.95845" lon="4.69785">
        <ele>327</ele>
        <time>2018-07-06T10:49:25Z</time>
      </trkpt>
      <trkpt lat="45.95848" lon="4.6979">
        <ele>327</ele>
        <time>2018-07-06T10:49:26Z</time>
      </trkpt>
      <trkpt lat="45.95851" lon="4.69795">
        <ele>327</ele>
        <time>2018-07-06T10:49:27Z</time>
      </trkpt>
      <trkpt lat="45.95854" lon="4.69801">
        <ele>327</ele>
        <time>2018-07-06T10:49:28Z</time>
      </trkpt>
      <trkpt lat="45.95856" lon="4.69807">
        <ele>327</ele>
        <time>2018-07-06T10:49:29Z</time>
      </trkpt>
      <trkpt lat="45.95859" lon="4.69814">
        <ele>327</ele>
        <time>2018-07-06T10:49:30Z</time>
      </trkpt>
      <trkpt lat="45.95861" lon="4.69821">
        <ele>328</ele>
        <time>2018-07-06T10:49:31Z</time>
      </trkpt>
      <trkpt lat="45.95864" lon="4.69828">
        <ele>328</ele>
        <time>2018-07-06T10:49:32Z</time>
      </trkpt>
      <trkpt lat="45.95866" lon="4.69834">
        <ele>329</ele>
        <time>2018-07-06T10:49:33Z</time>
      </trkpt>
      <trkpt lat="45.95868" lon="4.69841">
        <ele>329</ele>
        <time>2018-07-06T10:49:34Z</time>
      </trkpt>
      <trkpt lat="45.95871" lon="4.69847">
        <ele>329</ele>
        <time>2018-07-06T10:49:35Z</time>
      </trkpt>
      <trkpt lat="45.95873" lon="4.69853">
        <ele>329</ele>
        <time>2018-07-06T10:49:36Z</time>
      </trkpt>
      <trkpt lat="45.95874" lon="4.69861">
        <ele>329</ele>
        <time>2018-07-06T10:49:37Z</time>
      </trkpt>
      <trkpt lat="45.95876" lon="4.69868">
        <ele>329</ele>
        <time>2018-07-06T10:49:38Z</time>
      </trkpt>
      <trkpt lat="45.9588" lon="4.69874">
        <ele>329</ele>
        <time>2018-07-06T10:49:39Z</time>
      </trkpt>
      <trkpt lat="45.95882" lon="4.69882">
        <ele>329</ele>
        <time>2018-07-06T10:49:40Z</time>
      </trkpt>
      <trkpt lat="45.95882" lon="4.69888">
        <ele>329</ele>
        <time>2018-07-06T10:49:41Z</time>
      </trkpt>
      <trkpt lat="45.95885" lon="4.69895">
        <ele>329</ele>
        <time>2018-07-06T10:49:42Z</time>
      </trkpt>
      <trkpt lat="45.95885" lon="4.69901">
        <ele>329</ele>
        <time>2018-07-06T10:49:43Z</time>
      </trkpt>
      <trkpt lat="45.95887" lon="4.69909">
        <ele>329</ele>
        <time>2018-07-06T10:49:44Z</time>
      </trkpt>
      <trkpt lat="45.95888" lon="4.69916">
        <ele>329</ele>
        <time>2018-07-06T10:49:45Z</time>
      </trkpt>
      <trkpt lat="45.95891" lon="4.69928">
        <ele>328</ele>
        <time>2018-07-06T10:49:47Z</time>
      </trkpt>
      <trkpt lat="45.95892" lon="4.69934">
        <ele>328</ele>
        <time>2018-07-06T10:49:48Z</time>
      </trkpt>
      <trkpt lat="45.95893" lon="4.6994">
        <ele>328</ele>
        <time>2018-07-06T10:49:49Z</time>
      </trkpt>
      <trkpt lat="45.95895" lon="4.69946">
        <ele>328</ele>
        <time>2018-07-06T10:49:50Z</time>
      </trkpt>
      <trkpt lat="45.95897" lon="4.69954">
        <ele>328</ele>
        <time>2018-07-06T10:49:51Z</time>
      </trkpt>
      <trkpt lat="45.95899" lon="4.69962">
        <ele>328</ele>
        <time>2018-07-06T10:49:52Z</time>
      </trkpt>
      <trkpt lat="45.95901" lon="4.6997">
        <ele>328</ele>
        <time>2018-07-06T10:49:53Z</time>
      </trkpt>
      <trkpt lat="45.95902" lon="4.69977">
        <ele>328</ele>
        <time>2018-07-06T10:49:54Z</time>
      </trkpt>
      <trkpt lat="45.95905" lon="4.69984">
        <ele>328</ele>
        <time>2018-07-06T10:49:55Z</time>
      </trkpt>
      <trkpt lat="45.95907" lon="4.69992">
        <ele>328</ele>
        <time>2018-07-06T10:49:56Z</time>
      </trkpt>
      <trkpt lat="45.95911" lon="4.7">
        <ele>328</ele>
        <time>2018-07-06T10:49:57Z</time>
      </trkpt>
      <trkpt lat="45.95914" lon="4.70007">
        <ele>328</ele>
        <time>2018-07-06T10:49:58Z</time>
      </trkpt>
      <trkpt lat="45.95917" lon="4.70014">
        <ele>328</ele>
        <time>2018-07-06T10:49:59Z</time>
      </trkpt>
      <trkpt lat="45.9592" lon="4.70022">
        <ele>328</ele>
        <time>2018-07-06T10:50:00Z</time>
      </trkpt>
      <trkpt lat="45.95922" lon="4.70028">
        <ele>328</ele>
        <time>2018-07-06T10:50:01Z</time>
      </trkpt>
      <trkpt lat="45.95925" lon="4.70034">
        <ele>328</ele>
        <time>2018-07-06T10:50:02Z</time>
      </trkpt>
      <trkpt lat="45.9593" lon="4.70041">
        <ele>328</ele>
        <time>2018-07-06T10:50:03Z</time>
      </trkpt>
      <trkpt lat="45.95934" lon="4.70047">
        <ele>328</ele>
        <time>2018-07-06T10:50:04Z</time>
      </trkpt>
      <trkpt lat="45.95939" lon="4.70053">
        <ele>328</ele>
        <time>2018-07-06T10:50:05Z</time>
      </trkpt>
      <trkpt lat="45.95943" lon="4.7006">
        <ele>328</ele>
        <time>2018-07-06T10:50:06Z</time>
      </trkpt>
      <trkpt lat="45.95948" lon="4.70066">
        <ele>328</ele>
        <time>2018-07-06T10:50:07Z</time>
      </trkpt>
      <trkpt lat="45.95952" lon="4.70073">
        <ele>328</ele>
        <time>2018-07-06T10:50:08Z</time>
      </trkpt>
      <trkpt lat="45.95957" lon="4.70079">
        <ele>328</ele>
        <time>2018-07-06T10:50:09Z</time>
      </trkpt>
      <trkpt lat="45.95961" lon="4.70084">
        <ele>328</ele>
        <time>2018-07-06T10:50:10Z</time>
      </trkpt>
      <trkpt lat="45.95965" lon="4.70085">
        <ele>328</ele>
        <time>2018-07-06T10:50:11Z</time>
      </trkpt>
      <trkpt lat="45.95969" lon="4.7009">
        <ele>328</ele>
        <time>2018-07-06T10:50:12Z</time>
      </trkpt>
      <trkpt lat="45.95973" lon="4.70097">
        <ele>328</ele>
        <time>2018-07-06T10:50:13Z</time>
      </trkpt>
      <trkpt lat="45.95978" lon="4.70102">
        <ele>328</ele>
        <time>2018-07-06T10:50:14Z</time>
      </trkpt>
      <trkpt lat="45.95982" lon="4.70106">
        <ele>328</ele>
        <time>2018-07-06T10:50:15Z</time>
      </trkpt>
      <trkpt lat="45.95986" lon="4.7011">
        <ele>328</ele>
        <time>2018-07-06T10:50:16Z</time>
      </trkpt>
      <trkpt lat="45.9599" lon="4.70115">
        <ele>328</ele>
        <time>2018-07-06T10:50:17Z</time>
      </trkpt>
      <trkpt lat="45.95994" lon="4.70119">
        <ele>328</ele>
        <time>2018-07-06T10:50:18Z</time>
      </trkpt>
      <trkpt lat="45.95999" lon="4.70122">
        <ele>328</ele>
        <time>2018-07-06T10:50:19Z</time>
      </trkpt>
      <trkpt lat="45.96004" lon="4.70127">
        <ele>328</ele>
        <time>2018-07-06T10:50:20Z</time>
      </trkpt>
      <trkpt lat="45.96008" lon="4.70131">
        <ele>328</ele>
        <time>2018-07-06T10:50:21Z</time>
      </trkpt>
      <trkpt lat="45.96012" lon="4.70136">
        <ele>328</ele>
        <time>2018-07-06T10:50:22Z</time>
      </trkpt>
      <trkpt lat="45.96016" lon="4.7014">
        <ele>329</ele>
        <time>2018-07-06T10:50:23Z</time>
      </trkpt>
      <trkpt lat="45.96024" lon="4.70144">
        <ele>329</ele>
        <time>2018-07-06T10:50:24Z</time>
      </trkpt>
      <trkpt lat="45.96028" lon="4.70149">
        <ele>329</ele>
        <time>2018-07-06T10:50:25Z</time>
      </trkpt>
      <trkpt lat="45.96032" lon="4.70152">
        <ele>329</ele>
        <time>2018-07-06T10:50:26Z</time>
      </trkpt>
      <trkpt lat="45.96038" lon="4.70159">
        <ele>329</ele>
        <time>2018-07-06T10:50:28Z</time>
      </trkpt>
      <trkpt lat="45.96043" lon="4.70162">
        <ele>328</ele>
        <time>2018-07-06T10:50:29Z</time>
      </trkpt>
      <trkpt lat="45.96046" lon="4.70166">
        <ele>328</ele>
        <time>2018-07-06T10:50:30Z</time>
      </trkpt>
      <trkpt lat="45.9605" lon="4.70169">
        <ele>327</ele>
        <time>2018-07-06T10:50:31Z</time>
      </trkpt>
      <trkpt lat="45.96055" lon="4.70174">
        <ele>327</ele>
        <time>2018-07-06T10:50:32Z</time>
      </trkpt>
      <trkpt lat="45.96059" lon="4.70178">
        <ele>327</ele>
        <time>2018-07-06T10:50:33Z</time>
      </trkpt>
      <trkpt lat="45.96063" lon="4.70182">
        <ele>327</ele>
        <time>2018-07-06T10:50:34Z</time>
      </trkpt>
      <trkpt lat="45.96068" lon="4.70187">
        <ele>327</ele>
        <time>2018-07-06T10:50:35Z</time>
      </trkpt>
      <trkpt lat="45.96072" lon="4.7019">
        <ele>327</ele>
        <time>2018-07-06T10:50:36Z</time>
      </trkpt>
      <trkpt lat="45.96078" lon="4.70192">
        <ele>327</ele>
        <time>2018-07-06T10:50:37Z</time>
      </trkpt>
      <trkpt lat="45.96083" lon="4.70196">
        <ele>327</ele>
        <time>2018-07-06T10:50:38Z</time>
      </trkpt>
      <trkpt lat="45.96088" lon="4.70201">
        <ele>327</ele>
        <time>2018-07-06T10:50:39Z</time>
      </trkpt>
      <trkpt lat="45.96093" lon="4.70206">
        <ele>327</ele>
        <time>2018-07-06T10:50:40Z</time>
      </trkpt>
      <trkpt lat="45.96098" lon="4.70211">
        <ele>327</ele>
        <time>2018-07-06T10:50:41Z</time>
      </trkpt>
      <trkpt lat="45.96104" lon="4.70216">
        <ele>327</ele>
        <time>2018-07-06T10:50:42Z</time>
      </trkpt>
      <trkpt lat="45.9611" lon="4.70218">
        <ele>327</ele>
        <time>2018-07-06T10:50:43Z</time>
      </trkpt>
      <trkpt lat="45.96115" lon="4.70223">
        <ele>327</ele>
        <time>2018-07-06T10:50:44Z</time>
      </trkpt>
      <trkpt lat="45.96121" lon="4.70228">
        <ele>327</ele>
        <time>2018-07-06T10:50:45Z</time>
      </trkpt>
      <trkpt lat="45.96126" lon="4.70234">
        <ele>327</ele>
        <time>2018-07-06T10:50:46Z</time>
      </trkpt>
      <trkpt lat="45.96132" lon="4.7024">
        <ele>327</ele>
        <time>2018-07-06T10:50:47Z</time>
      </trkpt>
      <trkpt lat="45.96138" lon="4.70245">
        <ele>327</ele>
        <time>2018-07-06T10:50:48Z</time>
      </trkpt>
      <trkpt lat="45.96144" lon="4.70251">
        <ele>324</ele>
        <time>2018-07-06T10:50:49Z</time>
      </trkpt>
      <trkpt lat="45.96151" lon="4.70255">
        <ele>325</ele>
        <time>2018-07-06T10:50:50Z</time>
      </trkpt>
      <trkpt lat="45.96155" lon="4.7026">
        <ele>325</ele>
        <time>2018-07-06T10:50:51Z</time>
      </trkpt>
      <trkpt lat="45.96161" lon="4.70267">
        <ele>324</ele>
        <time>2018-07-06T10:50:52Z</time>
      </trkpt>
      <trkpt lat="45.96166" lon="4.70273">
        <ele>324</ele>
        <time>2018-07-06T10:50:53Z</time>
      </trkpt>
      <trkpt lat="45.9617" lon="4.7028">
        <ele>327</ele>
        <time>2018-07-06T10:50:54Z</time>
      </trkpt>
      <trkpt lat="45.96176" lon="4.70286">
        <ele>326</ele>
        <time>2018-07-06T10:50:55Z</time>
      </trkpt>
      <trkpt lat="45.96179" lon="4.70291">
        <ele>326</ele>
        <time>2018-07-06T10:50:56Z</time>
      </trkpt>
      <trkpt lat="45.96184" lon="4.70298">
        <ele>326</ele>
        <time>2018-07-06T10:50:57Z</time>
      </trkpt>
      <trkpt lat="45.96188" lon="4.70304">
        <ele>326</ele>
        <time>2018-07-06T10:50:58Z</time>
      </trkpt>
      <trkpt lat="45.96193" lon="4.70312">
        <ele>325</ele>
        <time>2018-07-06T10:50:59Z</time>
      </trkpt>
      <trkpt lat="45.96198" lon="4.70318">
        <ele>326</ele>
        <time>2018-07-06T10:51:00Z</time>
      </trkpt>
      <trkpt lat="45.96203" lon="4.70326">
        <ele>326</ele>
        <time>2018-07-06T10:51:01Z</time>
      </trkpt>
      <trkpt lat="45.96208" lon="4.70334">
        <ele>321</ele>
        <time>2018-07-06T10:51:02Z</time>
      </trkpt>
      <trkpt lat="45.96213" lon="4.70343">
        <ele>321</ele>
        <time>2018-07-06T10:51:03Z</time>
      </trkpt>
      <trkpt lat="45.96218" lon="4.70353">
        <ele>321</ele>
        <time>2018-07-06T10:51:04Z</time>
      </trkpt>
      <trkpt lat="45.96223" lon="4.70361">
        <ele>321</ele>
        <time>2018-07-06T10:51:05Z</time>
      </trkpt>
      <trkpt lat="45.96228" lon="4.70369">
        <ele>321</ele>
        <time>2018-07-06T10:51:06Z</time>
      </trkpt>
      <trkpt lat="45.96233" lon="4.70378">
        <ele>320</ele>
        <time>2018-07-06T10:51:07Z</time>
      </trkpt>
      <trkpt lat="45.96238" lon="4.70385">
        <ele>320</ele>
        <time>2018-07-06T10:51:08Z</time>
      </trkpt>
      <trkpt lat="45.96243" lon="4.70392">
        <ele>320</ele>
        <time>2018-07-06T10:51:09Z</time>
      </trkpt>
      <trkpt lat="45.96248" lon="4.704">
        <ele>320</ele>
        <time>2018-07-06T10:51:10Z</time>
      </trkpt>
      <trkpt lat="45.96253" lon="4.70409">
        <ele>323</ele>
        <time>2018-07-06T10:51:11Z</time>
      </trkpt>
      <trkpt lat="45.96259" lon="4.70415">
        <ele>323</ele>
        <time>2018-07-06T10:51:12Z</time>
      </trkpt>
      <trkpt lat="45.96264" lon="4.70423">
        <ele>320</ele>
        <time>2018-07-06T10:51:13Z</time>
      </trkpt>
      <trkpt lat="45.96269" lon="4.70431">
        <ele>321</ele>
        <time>2018-07-06T10:51:14Z</time>
      </trkpt>
      <trkpt lat="45.96275" lon="4.70438">
        <ele>321</ele>
        <time>2018-07-06T10:51:15Z</time>
      </trkpt>
      <trkpt lat="45.9628" lon="4.70446">
        <ele>321</ele>
        <time>2018-07-06T10:51:16Z</time>
      </trkpt>
      <trkpt lat="45.96285" lon="4.70453">
        <ele>321</ele>
        <time>2018-07-06T10:51:17Z</time>
      </trkpt>
      <trkpt lat="45.9629" lon="4.70462">
        <ele>321</ele>
        <time>2018-07-06T10:51:18Z</time>
      </trkpt>
      <trkpt lat="45.96296" lon="4.70469">
        <ele>320</ele>
        <time>2018-07-06T10:51:19Z</time>
      </trkpt>
      <trkpt lat="45.96301" lon="4.70476">
        <ele>320</ele>
        <time>2018-07-06T10:51:20Z</time>
      </trkpt>
      <trkpt lat="45.96306" lon="4.70484">
        <ele>320</ele>
        <time>2018-07-06T10:51:21Z</time>
      </trkpt>
      <trkpt lat="45.96311" lon="4.70492">
        <ele>320</ele>
        <time>2018-07-06T10:51:22Z</time>
      </trkpt>
      <trkpt lat="45.96317" lon="4.705">
        <ele>320</ele>
        <time>2018-07-06T10:51:23Z</time>
      </trkpt>
      <trkpt lat="45.96324" lon="4.70507">
        <ele>317</ele>
        <time>2018-07-06T10:51:24Z</time>
      </trkpt>
      <trkpt lat="45.9633" lon="4.70514">
        <ele>317</ele>
        <time>2018-07-06T10:51:25Z</time>
      </trkpt>
      <trkpt lat="45.96335" lon="4.70522">
        <ele>319</ele>
        <time>2018-07-06T10:51:26Z</time>
      </trkpt>
      <trkpt lat="45.96341" lon="4.70529">
        <ele>319</ele>
        <time>2018-07-06T10:51:27Z</time>
      </trkpt>
      <trkpt lat="45.96347" lon="4.7054">
        <ele>318</ele>
        <time>2018-07-06T10:51:28Z</time>
      </trkpt>
      <trkpt lat="45.96354" lon="4.70546">
        <ele>318</ele>
        <time>2018-07-06T10:51:29Z</time>
      </trkpt>
      <trkpt lat="45.9636" lon="4.70554">
        <ele>318</ele>
        <time>2018-07-06T10:51:30Z</time>
      </trkpt>
      <trkpt lat="45.96367" lon="4.70562">
        <ele>318</ele>
        <time>2018-07-06T10:51:31Z</time>
      </trkpt>
      <trkpt lat="45.96373" lon="4.70569">
        <ele>318</ele>
        <time>2018-07-06T10:51:32Z</time>
      </trkpt>
      <trkpt lat="45.9638" lon="4.70578">
        <ele>318</ele>
        <time>2018-07-06T10:51:33Z</time>
      </trkpt>
      <trkpt lat="45.96386" lon="4.70586">
        <ele>312</ele>
        <time>2018-07-06T10:51:34Z</time>
      </trkpt>
      <trkpt lat="45.96392" lon="4.70593">
        <ele>313</ele>
        <time>2018-07-06T10:51:35Z</time>
      </trkpt>
      <trkpt lat="45.96399" lon="4.70602">
        <ele>313</ele>
        <time>2018-07-06T10:51:36Z</time>
      </trkpt>
      <trkpt lat="45.96406" lon="4.70609">
        <ele>312</ele>
        <time>2018-07-06T10:51:37Z</time>
      </trkpt>
      <trkpt lat="45.96414" lon="4.70617">
        <ele>312</ele>
        <time>2018-07-06T10:51:38Z</time>
      </trkpt>
      <trkpt lat="45.96418" lon="4.70626">
        <ele>314</ele>
        <time>2018-07-06T10:51:39Z</time>
      </trkpt>
      <trkpt lat="45.96425" lon="4.70635">
        <ele>313</ele>
        <time>2018-07-06T10:51:40Z</time>
      </trkpt>
      <trkpt lat="45.96434" lon="4.70644">
        <ele>312</ele>
        <time>2018-07-06T10:51:41Z</time>
      </trkpt>
      <trkpt lat="45.96442" lon="4.70653">
        <ele>312</ele>
        <time>2018-07-06T10:51:42Z</time>
      </trkpt>
      <trkpt lat="45.9645" lon="4.70661">
        <ele>312</ele>
        <time>2018-07-06T10:51:43Z</time>
      </trkpt>
      <trkpt lat="45.96458" lon="4.70668">
        <ele>305</ele>
        <time>2018-07-06T10:51:44Z</time>
      </trkpt>
      <trkpt lat="45.96467" lon="4.70676">
        <ele>305</ele>
        <time>2018-07-06T10:51:45Z</time>
      </trkpt>
      <trkpt lat="45.96476" lon="4.70682">
        <ele>306</ele>
        <time>2018-07-06T10:51:46Z</time>
      </trkpt>
      <trkpt lat="45.96484" lon="4.70689">
        <ele>306</ele>
        <time>2018-07-06T10:51:47Z</time>
      </trkpt>
      <trkpt lat="45.96492" lon="4.70698">
        <ele>305</ele>
        <time>2018-07-06T10:51:48Z</time>
      </trkpt>
      <trkpt lat="45.96501" lon="4.70706">
        <ele>306</ele>
        <time>2018-07-06T10:51:49Z</time>
      </trkpt>
      <trkpt lat="45.9651" lon="4.70713">
        <ele>306</ele>
        <time>2018-07-06T10:51:50Z</time>
      </trkpt>
      <trkpt lat="45.9652" lon="4.70722">
        <ele>305</ele>
        <time>2018-07-06T10:51:51Z</time>
      </trkpt>
      <trkpt lat="45.96529" lon="4.7073">
        <ele>305</ele>
        <time>2018-07-06T10:51:52Z</time>
      </trkpt>
      <trkpt lat="45.9654" lon="4.70737">
        <ele>305</ele>
        <time>2018-07-06T10:51:53Z</time>
      </trkpt>
      <trkpt lat="45.96549" lon="4.70744">
        <ele>305</ele>
        <time>2018-07-06T10:51:54Z</time>
      </trkpt>
      <trkpt lat="45.96559" lon="4.70752">
        <ele>299</ele>
        <time>2018-07-06T10:51:55Z</time>
      </trkpt>
      <trkpt lat="45.96569" lon="4.70759">
        <ele>299</ele>
        <time>2018-07-06T10:51:56Z</time>
      </trkpt>
      <trkpt lat="45.96579" lon="4.70767">
        <ele>299</ele>
        <time>2018-07-06T10:51:57Z</time>
      </trkpt>
      <trkpt lat="45.96588" lon="4.70774">
        <ele>300</ele>
        <time>2018-07-06T10:51:58Z</time>
      </trkpt>
      <trkpt lat="45.96598" lon="4.70782">
        <ele>299</ele>
        <time>2018-07-06T10:51:59Z</time>
      </trkpt>
      <trkpt lat="45.96608" lon="4.7079">
        <ele>298</ele>
        <time>2018-07-06T10:52:00Z</time>
      </trkpt>
      <trkpt lat="45.96618" lon="4.70797">
        <ele>298</ele>
        <time>2018-07-06T10:52:01Z</time>
      </trkpt>
      <trkpt lat="45.96628" lon="4.70804">
        <ele>298</ele>
        <time>2018-07-06T10:52:02Z</time>
      </trkpt>
      <trkpt lat="45.9664" lon="4.70806">
        <ele>298</ele>
        <time>2018-07-06T10:52:03Z</time>
      </trkpt>
      <trkpt lat="45.9665" lon="4.70813">
        <ele>297</ele>
        <time>2018-07-06T10:52:04Z</time>
      </trkpt>
      <trkpt lat="45.9666" lon="4.7082">
        <ele>297</ele>
        <time>2018-07-06T10:52:05Z</time>
      </trkpt>
      <trkpt lat="45.96669" lon="4.70828">
        <ele>296</ele>
        <time>2018-07-06T10:52:06Z</time>
      </trkpt>
      <trkpt lat="45.96679" lon="4.70835">
        <ele>292</ele>
        <time>2018-07-06T10:52:07Z</time>
      </trkpt>
      <trkpt lat="45.96691" lon="4.70841">
        <ele>291</ele>
        <time>2018-07-06T10:52:08Z</time>
      </trkpt>
      <trkpt lat="45.96701" lon="4.70849">
        <ele>290</ele>
        <time>2018-07-06T10:52:09Z</time>
      </trkpt>
      <trkpt lat="45.96711" lon="4.70856">
        <ele>290</ele>
        <time>2018-07-06T10:52:10Z</time>
      </trkpt>
      <trkpt lat="45.96722" lon="4.70864">
        <ele>289</ele>
        <time>2018-07-06T10:52:11Z</time>
      </trkpt>
      <trkpt lat="45.96732" lon="4.7087">
        <ele>289</ele>
        <time>2018-07-06T10:52:12Z</time>
      </trkpt>
      <trkpt lat="45.96743" lon="4.70876">
        <ele>288</ele>
        <time>2018-07-06T10:52:13Z</time>
      </trkpt>
      <trkpt lat="45.96753" lon="4.70882">
        <ele>289</ele>
        <time>2018-07-06T10:52:14Z</time>
      </trkpt>
      <trkpt lat="45.96763" lon="4.7089">
        <ele>288</ele>
        <time>2018-07-06T10:52:15Z</time>
      </trkpt>
      <trkpt lat="45.96774" lon="4.70898">
        <ele>288</ele>
        <time>2018-07-06T10:52:16Z</time>
      </trkpt>
      <trkpt lat="45.96784" lon="4.70905">
        <ele>288</ele>
        <time>2018-07-06T10:52:17Z</time>
      </trkpt>
      <trkpt lat="45.96795" lon="4.70911">
        <ele>288</ele>
        <time>2018-07-06T10:52:18Z</time>
      </trkpt>
      <trkpt lat="45.96805" lon="4.70918">
        <ele>281</ele>
        <time>2018-07-06T10:52:19Z</time>
      </trkpt>
      <trkpt lat="45.96816" lon="4.70922">
        <ele>282</ele>
        <time>2018-07-06T10:52:20Z</time>
      </trkpt>
      <trkpt lat="45.96825" lon="4.70928">
        <ele>282</ele>
        <time>2018-07-06T10:52:21Z</time>
      </trkpt>
      <trkpt lat="45.96835" lon="4.70934">
        <ele>282</ele>
        <time>2018-07-06T10:52:22Z</time>
      </trkpt>
      <trkpt lat="45.96845" lon="4.70942">
        <ele>281</ele>
        <time>2018-07-06T10:52:23Z</time>
      </trkpt>
      <trkpt lat="45.96855" lon="4.70949">
        <ele>280</ele>
        <time>2018-07-06T10:52:24Z</time>
      </trkpt>
      <trkpt lat="45.96865" lon="4.70956">
        <ele>279</ele>
        <time>2018-07-06T10:52:25Z</time>
      </trkpt>
      <trkpt lat="45.96875" lon="4.70961">
        <ele>279</ele>
        <time>2018-07-06T10:52:26Z</time>
      </trkpt>
      <trkpt lat="45.96885" lon="4.70967">
        <ele>279</ele>
        <time>2018-07-06T10:52:27Z</time>
      </trkpt>
      <trkpt lat="45.96895" lon="4.7097">
        <ele>278</ele>
        <time>2018-07-06T10:52:28Z</time>
      </trkpt>
      <trkpt lat="45.96906" lon="4.70973">
        <ele>278</ele>
        <time>2018-07-06T10:52:29Z</time>
      </trkpt>
      <trkpt lat="45.96917" lon="4.70974">
        <ele>276</ele>
        <time>2018-07-06T10:52:30Z</time>
      </trkpt>
      <trkpt lat="45.96929" lon="4.70977">
        <ele>276</ele>
        <time>2018-07-06T10:52:31Z</time>
      </trkpt>
      <trkpt lat="45.9694" lon="4.7098">
        <ele>275</ele>
        <time>2018-07-06T10:52:32Z</time>
      </trkpt>
      <trkpt lat="45.96951" lon="4.70983">
        <ele>275</ele>
        <time>2018-07-06T10:52:33Z</time>
      </trkpt>
      <trkpt lat="45.96962" lon="4.70984">
        <ele>275</ele>
        <time>2018-07-06T10:52:34Z</time>
      </trkpt>
      <trkpt lat="45.96973" lon="4.70985">
        <ele>274</ele>
        <time>2018-07-06T10:52:35Z</time>
      </trkpt>
      <trkpt lat="45.96984" lon="4.70986">
        <ele>273</ele>
        <time>2018-07-06T10:52:36Z</time>
      </trkpt>
      <trkpt lat="45.96996" lon="4.70986">
        <ele>272</ele>
        <time>2018-07-06T10:52:37Z</time>
      </trkpt>
      <trkpt lat="45.97007" lon="4.70987">
        <ele>269</ele>
        <time>2018-07-06T10:52:38Z</time>
      </trkpt>
      <trkpt lat="45.97017" lon="4.70986">
        <ele>269</ele>
        <time>2018-07-06T10:52:39Z</time>
      </trkpt>
      <trkpt lat="45.97028" lon="4.70986">
        <ele>269</ele>
        <time>2018-07-06T10:52:40Z</time>
      </trkpt>
      <trkpt lat="45.9704" lon="4.70985">
        <ele>269</ele>
        <time>2018-07-06T10:52:41Z</time>
      </trkpt>
      <trkpt lat="45.97051" lon="4.70985">
        <ele>269</ele>
        <time>2018-07-06T10:52:42Z</time>
      </trkpt>
      <trkpt lat="45.97063" lon="4.70982">
        <ele>268</ele>
        <time>2018-07-06T10:52:43Z</time>
      </trkpt>
      <trkpt lat="45.97074" lon="4.70979">
        <ele>268</ele>
        <time>2018-07-06T10:52:44Z</time>
      </trkpt>
      <trkpt lat="45.97084" lon="4.70976">
        <ele>265</ele>
        <time>2018-07-06T10:52:45Z</time>
      </trkpt>
      <trkpt lat="45.97095" lon="4.70973">
        <ele>264</ele>
        <time>2018-07-06T10:52:46Z</time>
      </trkpt>
      <trkpt lat="45.97105" lon="4.70969">
        <ele>264</ele>
        <time>2018-07-06T10:52:47Z</time>
      </trkpt>
      <trkpt lat="45.97115" lon="4.70966">
        <ele>264</ele>
        <time>2018-07-06T10:52:48Z</time>
      </trkpt>
      <trkpt lat="45.97125" lon="4.70962">
        <ele>264</ele>
        <time>2018-07-06T10:52:49Z</time>
      </trkpt>
      <trkpt lat="45.97135" lon="4.70958">
        <ele>264</ele>
        <time>2018-07-06T10:52:50Z</time>
      </trkpt>
      <trkpt lat="45.97144" lon="4.70955">
        <ele>263</ele>
        <time>2018-07-06T10:52:51Z</time>
      </trkpt>
      <trkpt lat="45.97152" lon="4.7095">
        <ele>263</ele>
        <time>2018-07-06T10:52:52Z</time>
      </trkpt>
      <trkpt lat="45.9716" lon="4.70949">
        <ele>263</ele>
        <time>2018-07-06T10:52:53Z</time>
      </trkpt>
      <trkpt lat="45.97167" lon="4.70947">
        <ele>258</ele>
        <time>2018-07-06T10:52:54Z</time>
      </trkpt>
      <trkpt lat="45.97175" lon="4.7094">
        <ele>258</ele>
        <time>2018-07-06T10:52:55Z</time>
      </trkpt>
      <trkpt lat="45.97183" lon="4.70936">
        <ele>258</ele>
        <time>2018-07-06T10:52:56Z</time>
      </trkpt>
      <trkpt lat="45.9719" lon="4.70931">
        <ele>258</ele>
        <time>2018-07-06T10:52:57Z</time>
      </trkpt>
      <trkpt lat="45.97199" lon="4.70923">
        <ele>257</ele>
        <time>2018-07-06T10:52:58Z</time>
      </trkpt>
      <trkpt lat="45.97207" lon="4.70916">
        <ele>260</ele>
        <time>2018-07-06T10:52:59Z</time>
      </trkpt>
      <trkpt lat="45.97216" lon="4.70907">
        <ele>259</ele>
        <time>2018-07-06T10:53:00Z</time>
      </trkpt>
      <trkpt lat="45.97222" lon="4.709">
        <ele>259</ele>
        <time>2018-07-06T10:53:01Z</time>
      </trkpt>
      <trkpt lat="45.97229" lon="4.70892">
        <ele>259</ele>
        <time>2018-07-06T10:53:02Z</time>
      </trkpt>
      <trkpt lat="45.97235" lon="4.70885">
        <ele>259</ele>
        <time>2018-07-06T10:53:03Z</time>
      </trkpt>
      <trkpt lat="45.97241" lon="4.70875">
        <ele>259</ele>
        <time>2018-07-06T10:53:04Z</time>
      </trkpt>
      <trkpt lat="45.97248" lon="4.70866">
        <ele>259</ele>
        <time>2018-07-06T10:53:05Z</time>
      </trkpt>
      <trkpt lat="45.97255" lon="4.70857">
        <ele>253</ele>
        <time>2018-07-06T10:53:06Z</time>
      </trkpt>
      <trkpt lat="45.97261" lon="4.70847">
        <ele>254</ele>
        <time>2018-07-06T10:53:07Z</time>
      </trkpt>
      <trkpt lat="45.97268" lon="4.70835">
        <ele>254</ele>
        <time>2018-07-06T10:53:08Z</time>
      </trkpt>
      <trkpt lat="45.97274" lon="4.70826">
        <ele>255</ele>
        <time>2018-07-06T10:53:09Z</time>
      </trkpt>
      <trkpt lat="45.97281" lon="4.70817">
        <ele>254</ele>
        <time>2018-07-06T10:53:10Z</time>
      </trkpt>
      <trkpt lat="45.97287" lon="4.70806">
        <ele>254</ele>
        <time>2018-07-06T10:53:11Z</time>
      </trkpt>
      <trkpt lat="45.97293" lon="4.70798">
        <ele>254</ele>
        <time>2018-07-06T10:53:12Z</time>
      </trkpt>
      <trkpt lat="45.973" lon="4.70793">
        <ele>253</ele>
        <time>2018-07-06T10:53:13Z</time>
      </trkpt>
      <trkpt lat="45.97306" lon="4.70787">
        <ele>253</ele>
        <time>2018-07-06T10:53:14Z</time>
      </trkpt>
      <trkpt lat="45.97312" lon="4.7078">
        <ele>253</ele>
        <time>2018-07-06T10:53:15Z</time>
      </trkpt>
      <trkpt lat="45.97318" lon="4.70775">
        <ele>252</ele>
        <time>2018-07-06T10:53:16Z</time>
      </trkpt>
      <trkpt lat="45.97325" lon="4.7077">
        <ele>252</ele>
        <time>2018-07-06T10:53:17Z</time>
      </trkpt>
      <trkpt lat="45.97333" lon="4.70766">
        <ele>251</ele>
        <time>2018-07-06T10:53:18Z</time>
      </trkpt>
      <trkpt lat="45.97341" lon="4.70763">
        <ele>247</ele>
        <time>2018-07-06T10:53:19Z</time>
      </trkpt>
      <trkpt lat="45.97349" lon="4.70759">
        <ele>246</ele>
        <time>2018-07-06T10:53:20Z</time>
      </trkpt>
      <trkpt lat="45.97357" lon="4.70755">
        <ele>245</ele>
        <time>2018-07-06T10:53:21Z</time>
      </trkpt>
      <trkpt lat="45.97364" lon="4.70753">
        <ele>245</ele>
        <time>2018-07-06T10:53:22Z</time>
      </trkpt>
      <trkpt lat="45.97372" lon="4.7075">
        <ele>244</ele>
        <time>2018-07-06T10:53:23Z</time>
      </trkpt>
      <trkpt lat="45.9738" lon="4.70749">
        <ele>244</ele>
        <time>2018-07-06T10:53:24Z</time>
      </trkpt>
      <trkpt lat="45.97387" lon="4.70749">
        <ele>243</ele>
        <time>2018-07-06T10:53:25Z</time>
      </trkpt>
      <trkpt lat="45.97396" lon="4.70749">
        <ele>243</ele>
        <time>2018-07-06T10:53:26Z</time>
      </trkpt>
      <trkpt lat="45.97404" lon="4.70749">
        <ele>242</ele>
        <time>2018-07-06T10:53:27Z</time>
      </trkpt>
      <trkpt lat="45.97412" lon="4.70751">
        <ele>241</ele>
        <time>2018-07-06T10:53:28Z</time>
      </trkpt>
      <trkpt lat="45.97421" lon="4.70751">
        <ele>239</ele>
        <time>2018-07-06T10:53:29Z</time>
      </trkpt>
      <trkpt lat="45.97429" lon="4.7075">
        <ele>239</ele>
        <time>2018-07-06T10:53:30Z</time>
      </trkpt>
      <trkpt lat="45.97439" lon="4.70752">
        <ele>238</ele>
        <time>2018-07-06T10:53:31Z</time>
      </trkpt>
      <trkpt lat="45.97447" lon="4.70753">
        <ele>238</ele>
        <time>2018-07-06T10:53:32Z</time>
      </trkpt>
      <trkpt lat="45.97455" lon="4.70754">
        <ele>237</ele>
        <time>2018-07-06T10:53:33Z</time>
      </trkpt>
      <trkpt lat="45.97463" lon="4.70751">
        <ele>237</ele>
        <time>2018-07-06T10:53:34Z</time>
      </trkpt>
      <trkpt lat="45.97471" lon="4.7075">
        <ele>237</ele>
        <time>2018-07-06T10:53:35Z</time>
      </trkpt>
      <trkpt lat="45.97479" lon="4.70749">
        <ele>237</ele>
        <time>2018-07-06T10:53:36Z</time>
      </trkpt>
      <trkpt lat="45.97486" lon="4.70747">
        <ele>237</ele>
        <time>2018-07-06T10:53:37Z</time>
      </trkpt>
      <trkpt lat="45.97493" lon="4.70742">
        <ele>237</ele>
        <time>2018-07-06T10:53:38Z</time>
      </trkpt>
      <trkpt lat="45.975" lon="4.7074">
        <ele>237</ele>
        <time>2018-07-06T10:53:39Z</time>
      </trkpt>
      <trkpt lat="45.97508" lon="4.70737">
        <ele>235</ele>
        <time>2018-07-06T10:53:40Z</time>
      </trkpt>
      <trkpt lat="45.97515" lon="4.70737">
        <ele>235</ele>
        <time>2018-07-06T10:53:41Z</time>
      </trkpt>
      <trkpt lat="45.97521" lon="4.70737">
        <ele>234</ele>
        <time>2018-07-06T10:53:42Z</time>
      </trkpt>
      <trkpt lat="45.97527" lon="4.70736">
        <ele>234</ele>
        <time>2018-07-06T10:53:43Z</time>
      </trkpt>
      <trkpt lat="45.97532" lon="4.70735">
        <ele>234</ele>
        <time>2018-07-06T10:53:44Z</time>
      </trkpt>
      <trkpt lat="45.97539" lon="4.70734">
        <ele>234</ele>
        <time>2018-07-06T10:53:45Z</time>
      </trkpt>
      <trkpt lat="45.97544" lon="4.70732">
        <ele>233</ele>
        <time>2018-07-06T10:53:46Z</time>
      </trkpt>
      <trkpt lat="45.97554" lon="4.70731">
        <ele>233</ele>
        <time>2018-07-06T10:53:47Z</time>
      </trkpt>
      <trkpt lat="45.97559" lon="4.70731">
        <ele>233</ele>
        <time>2018-07-06T10:53:48Z</time>
      </trkpt>
      <trkpt lat="45.97567" lon="4.70729">
        <ele>233</ele>
        <time>2018-07-06T10:53:49Z</time>
      </trkpt>
      <trkpt lat="45.97574" lon="4.70727">
        <ele>232</ele>
        <time>2018-07-06T10:53:50Z</time>
      </trkpt>
      <trkpt lat="45.97581" lon="4.70727">
        <ele>232</ele>
        <time>2018-07-06T10:53:51Z</time>
      </trkpt>
      <trkpt lat="45.97589" lon="4.70729">
        <ele>229</ele>
        <time>2018-07-06T10:53:52Z</time>
      </trkpt>
      <trkpt lat="45.97596" lon="4.7073">
        <ele>229</ele>
        <time>2018-07-06T10:53:53Z</time>
      </trkpt>
      <trkpt lat="45.97603" lon="4.70731">
        <ele>229</ele>
        <time>2018-07-06T10:53:54Z</time>
      </trkpt>
      <trkpt lat="45.97611" lon="4.70732">
        <ele>229</ele>
        <time>2018-07-06T10:53:55Z</time>
      </trkpt>
      <trkpt lat="45.97619" lon="4.70734">
        <ele>228</ele>
        <time>2018-07-06T10:53:56Z</time>
      </trkpt>
      <trkpt lat="45.97628" lon="4.70735">
        <ele>228</ele>
        <time>2018-07-06T10:53:57Z</time>
      </trkpt>
      <trkpt lat="45.97636" lon="4.70738">
        <ele>227</ele>
        <time>2018-07-06T10:53:58Z</time>
      </trkpt>
      <trkpt lat="45.97644" lon="4.70742">
        <ele>227</ele>
        <time>2018-07-06T10:53:59Z</time>
      </trkpt>
      <trkpt lat="45.97651" lon="4.70744">
        <ele>226</ele>
        <time>2018-07-06T10:54:00Z</time>
      </trkpt>
      <trkpt lat="45.9766" lon="4.70748">
        <ele>225</ele>
        <time>2018-07-06T10:54:01Z</time>
      </trkpt>
      <trkpt lat="45.97669" lon="4.70749">
        <ele>224</ele>
        <time>2018-07-06T10:54:02Z</time>
      </trkpt>
      <trkpt lat="45.97677" lon="4.70751">
        <ele>224</ele>
        <time>2018-07-06T10:54:03Z</time>
      </trkpt>
      <trkpt lat="45.97685" lon="4.70753">
        <ele>223</ele>
        <time>2018-07-06T10:54:04Z</time>
      </trkpt>
      <trkpt lat="45.97693" lon="4.70757">
        <ele>223</ele>
        <time>2018-07-06T10:54:05Z</time>
      </trkpt>
      <trkpt lat="45.97701" lon="4.7076">
        <ele>223</ele>
        <time>2018-07-06T10:54:06Z</time>
      </trkpt>
      <trkpt lat="45.9771" lon="4.70762">
        <ele>223</ele>
        <time>2018-07-06T10:54:07Z</time>
      </trkpt>
      <trkpt lat="45.97718" lon="4.70766">
        <ele>222</ele>
        <time>2018-07-06T10:54:08Z</time>
      </trkpt>
      <trkpt lat="45.97727" lon="4.7077">
        <ele>222</ele>
        <time>2018-07-06T10:54:09Z</time>
      </trkpt>
      <trkpt lat="45.97735" lon="4.70773">
        <ele>222</ele>
        <time>2018-07-06T10:54:10Z</time>
      </trkpt>
      <trkpt lat="45.97742" lon="4.70776">
        <ele>222</ele>
        <time>2018-07-06T10:54:11Z</time>
      </trkpt>
      <trkpt lat="45.97749" lon="4.70779">
        <ele>222</ele>
        <time>2018-07-06T10:54:12Z</time>
      </trkpt>
      <trkpt lat="45.97756" lon="4.70781">
        <ele>221</ele>
        <time>2018-07-06T10:54:13Z</time>
      </trkpt>
      <trkpt lat="45.97763" lon="4.70783">
        <ele>221</ele>
        <time>2018-07-06T10:54:14Z</time>
      </trkpt>
      <trkpt lat="45.9777" lon="4.70784">
        <ele>221</ele>
        <time>2018-07-06T10:54:15Z</time>
      </trkpt>
      <trkpt lat="45.97777" lon="4.70786">
        <ele>221</ele>
        <time>2018-07-06T10:54:16Z</time>
      </trkpt>
      <trkpt lat="45.97784" lon="4.70788">
        <ele>221</ele>
        <time>2018-07-06T10:54:17Z</time>
      </trkpt>
      <trkpt lat="45.9779" lon="4.70792">
        <ele>221</ele>
        <time>2018-07-06T10:54:18Z</time>
      </trkpt>
      <trkpt lat="45.97795" lon="4.70796">
        <ele>221</ele>
        <time>2018-07-06T10:54:19Z</time>
      </trkpt>
      <trkpt lat="45.97799" lon="4.70802">
        <ele>221</ele>
        <time>2018-07-06T10:54:20Z</time>
      </trkpt>
      <trkpt lat="45.97804" lon="4.70809">
        <ele>221</ele>
        <time>2018-07-06T10:54:21Z</time>
      </trkpt>
      <trkpt lat="45.97809" lon="4.70816">
        <ele>221</ele>
        <time>2018-07-06T10:54:22Z</time>
      </trkpt>
      <trkpt lat="45.97812" lon="4.70824">
        <ele>221</ele>
        <time>2018-07-06T10:54:23Z</time>
      </trkpt>
      <trkpt lat="45.97814" lon="4.70832">
        <ele>221</ele>
        <time>2018-07-06T10:54:24Z</time>
      </trkpt>
      <trkpt lat="45.97815" lon="4.70841">
        <ele>220</ele>
        <time>2018-07-06T10:54:25Z</time>
      </trkpt>
      <trkpt lat="45.97816" lon="4.70852">
        <ele>220</ele>
        <time>2018-07-06T10:54:26Z</time>
      </trkpt>
      <trkpt lat="45.97818" lon="4.70862">
        <ele>220</ele>
        <time>2018-07-06T10:54:27Z</time>
      </trkpt>
      <trkpt lat="45.97819" lon="4.70872">
        <ele>220</ele>
        <time>2018-07-06T10:54:28Z</time>
      </trkpt>
      <trkpt lat="45.97819" lon="4.70882">
        <ele>220</ele>
        <time>2018-07-06T10:54:29Z</time>
      </trkpt>
      <trkpt lat="45.9782" lon="4.70893">
        <ele>220</ele>
        <time>2018-07-06T10:54:30Z</time>
      </trkpt>
      <trkpt lat="45.9782" lon="4.70903">
        <ele>220</ele>
        <time>2018-07-06T10:54:31Z</time>
      </trkpt>
      <trkpt lat="45.97819" lon="4.70914">
        <ele>219</ele>
        <time>2018-07-06T10:54:32Z</time>
      </trkpt>
      <trkpt lat="45.9782" lon="4.70924">
        <ele>219</ele>
        <time>2018-07-06T10:54:33Z</time>
      </trkpt>
      <trkpt lat="45.97822" lon="4.70936">
        <ele>218</ele>
        <time>2018-07-06T10:54:34Z</time>
      </trkpt>
      <trkpt lat="45.97825" lon="4.70945">
        <ele>218</ele>
        <time>2018-07-06T10:54:35Z</time>
      </trkpt>
      <trkpt lat="45.97829" lon="4.70956">
        <ele>218</ele>
        <time>2018-07-06T10:54:36Z</time>
      </trkpt>
      <trkpt lat="45.97831" lon="4.70966">
        <ele>218</ele>
        <time>2018-07-06T10:54:37Z</time>
      </trkpt>
      <trkpt lat="45.97832" lon="4.70979">
        <ele>217</ele>
        <time>2018-07-06T10:54:38Z</time>
      </trkpt>
      <trkpt lat="45.97834" lon="4.70991">
        <ele>217</ele>
        <time>2018-07-06T10:54:39Z</time>
      </trkpt>
      <trkpt lat="45.97836" lon="4.71004">
        <ele>216</ele>
        <time>2018-07-06T10:54:40Z</time>
      </trkpt>
      <trkpt lat="45.97837" lon="4.71017">
        <ele>216</ele>
        <time>2018-07-06T10:54:41Z</time>
      </trkpt>
      <trkpt lat="45.97838" lon="4.7103">
        <ele>216</ele>
        <time>2018-07-06T10:54:42Z</time>
      </trkpt>
      <trkpt lat="45.97839" lon="4.71043">
        <ele>215</ele>
        <time>2018-07-06T10:54:43Z</time>
      </trkpt>
      <trkpt lat="45.9784" lon="4.71055">
        <ele>215</ele>
        <time>2018-07-06T10:54:44Z</time>
      </trkpt>
      <trkpt lat="45.97841" lon="4.71068">
        <ele>215</ele>
        <time>2018-07-06T10:54:45Z</time>
      </trkpt>
      <trkpt lat="45.97842" lon="4.7108">
        <ele>215</ele>
        <time>2018-07-06T10:54:46Z</time>
      </trkpt>
      <trkpt lat="45.97844" lon="4.71093">
        <ele>213</ele>
        <time>2018-07-06T10:54:47Z</time>
      </trkpt>
      <trkpt lat="45.97845" lon="4.71103">
        <ele>213</ele>
        <time>2018-07-06T10:54:48Z</time>
      </trkpt>
      <trkpt lat="45.97846" lon="4.71112">
        <ele>213</ele>
        <time>2018-07-06T10:54:49Z</time>
      </trkpt>
      <trkpt lat="45.97847" lon="4.7112">
        <ele>213</ele>
        <time>2018-07-06T10:54:50Z</time>
      </trkpt>
      <trkpt lat="45.97847" lon="4.7113">
        <ele>212</ele>
        <time>2018-07-06T10:54:51Z</time>
      </trkpt>
      <trkpt lat="45.97847" lon="4.71139">
        <ele>212</ele>
        <time>2018-07-06T10:54:52Z</time>
      </trkpt>
      <trkpt lat="45.97849" lon="4.71146">
        <ele>212</ele>
        <time>2018-07-06T10:54:53Z</time>
      </trkpt>
      <trkpt lat="45.9785" lon="4.71156">
        <ele>212</ele>
        <time>2018-07-06T10:54:54Z</time>
      </trkpt>
      <trkpt lat="45.97849" lon="4.71163">
        <ele>212</ele>
        <time>2018-07-06T10:54:55Z</time>
      </trkpt>
      <trkpt lat="45.97849" lon="4.71171">
        <ele>210</ele>
        <time>2018-07-06T10:54:56Z</time>
      </trkpt>
      <trkpt lat="45.9785" lon="4.7118">
        <ele>209</ele>
        <time>2018-07-06T10:54:57Z</time>
      </trkpt>
      <trkpt lat="45.97852" lon="4.7119">
        <ele>209</ele>
        <time>2018-07-06T10:54:58Z</time>
      </trkpt>
      <trkpt lat="45.97853" lon="4.71201">
        <ele>209</ele>
        <time>2018-07-06T10:54:59Z</time>
      </trkpt>
      <trkpt lat="45.97853" lon="4.71211">
        <ele>208</ele>
        <time>2018-07-06T10:55:00Z</time>
      </trkpt>
      <trkpt lat="45.97853" lon="4.71222">
        <ele>208</ele>
        <time>2018-07-06T10:55:01Z</time>
      </trkpt>
      <trkpt lat="45.97852" lon="4.71233">
        <ele>208</ele>
        <time>2018-07-06T10:55:02Z</time>
      </trkpt>
      <trkpt lat="45.97852" lon="4.71245">
        <ele>208</ele>
        <time>2018-07-06T10:55:03Z</time>
      </trkpt>
      <trkpt lat="45.97852" lon="4.71255">
        <ele>207</ele>
        <time>2018-07-06T10:55:04Z</time>
      </trkpt>
      <trkpt lat="45.97852" lon="4.71267">
        <ele>206</ele>
        <time>2018-07-06T10:55:05Z</time>
      </trkpt>
      <trkpt lat="45.97851" lon="4.71279">
        <ele>206</ele>
        <time>2018-07-06T10:55:06Z</time>
      </trkpt>
      <trkpt lat="45.97855" lon="4.71295">
        <ele>206</ele>
        <time>2018-07-06T10:55:07Z</time>
      </trkpt>
      <trkpt lat="45.97855" lon="4.71307">
        <ele>205</ele>
        <time>2018-07-06T10:55:08Z</time>
      </trkpt>
      <trkpt lat="45.97854" lon="4.71319">
        <ele>205</ele>
        <time>2018-07-06T10:55:09Z</time>
      </trkpt>
      <trkpt lat="45.97854" lon="4.7133">
        <ele>205</ele>
        <time>2018-07-06T10:55:10Z</time>
      </trkpt>
      <trkpt lat="45.97853" lon="4.71344">
        <ele>204</ele>
        <time>2018-07-06T10:55:11Z</time>
      </trkpt>
      <trkpt lat="45.97853" lon="4.71356">
        <ele>204</ele>
        <time>2018-07-06T10:55:12Z</time>
      </trkpt>
      <trkpt lat="45.97853" lon="4.71368">
        <ele>203</ele>
        <time>2018-07-06T10:55:13Z</time>
      </trkpt>
      <trkpt lat="45.97855" lon="4.71379">
        <ele>203</ele>
        <time>2018-07-06T10:55:14Z</time>
      </trkpt>
      <trkpt lat="45.97855" lon="4.71391">
        <ele>203</ele>
        <time>2018-07-06T10:55:15Z</time>
      </trkpt>
      <trkpt lat="45.97856" lon="4.71403">
        <ele>203</ele>
        <time>2018-07-06T10:55:16Z</time>
      </trkpt>
      <trkpt lat="45.97857" lon="4.71412">
        <ele>203</ele>
        <time>2018-07-06T10:55:17Z</time>
      </trkpt>
      <trkpt lat="45.97858" lon="4.71422">
        <ele>201</ele>
        <time>2018-07-06T10:55:18Z</time>
      </trkpt>
      <trkpt lat="45.97861" lon="4.71432">
        <ele>201</ele>
        <time>2018-07-06T10:55:19Z</time>
      </trkpt>
      <trkpt lat="45.97861" lon="4.71442">
        <ele>201</ele>
        <time>2018-07-06T10:55:20Z</time>
      </trkpt>
      <trkpt lat="45.97863" lon="4.71454">
        <ele>201</ele>
        <time>2018-07-06T10:55:21Z</time>
      </trkpt>
      <trkpt lat="45.97865" lon="4.71465">
        <ele>201</ele>
        <time>2018-07-06T10:55:22Z</time>
      </trkpt>
      <trkpt lat="45.97867" lon="4.71478">
        <ele>201</ele>
        <time>2018-07-06T10:55:23Z</time>
      </trkpt>
      <trkpt lat="45.97869" lon="4.71489">
        <ele>201</ele>
        <time>2018-07-06T10:55:24Z</time>
      </trkpt>
      <trkpt lat="45.97872" lon="4.71502">
        <ele>199</ele>
        <time>2018-07-06T10:55:25Z</time>
      </trkpt>
      <trkpt lat="45.97874" lon="4.71513">
        <ele>199</ele>
        <time>2018-07-06T10:55:26Z</time>
      </trkpt>
      <trkpt lat="45.97875" lon="4.71523">
        <ele>199</ele>
        <time>2018-07-06T10:55:27Z</time>
      </trkpt>
      <trkpt lat="45.97876" lon="4.71533">
        <ele>199</ele>
        <time>2018-07-06T10:55:28Z</time>
      </trkpt>
      <trkpt lat="45.97876" lon="4.71545">
        <ele>199</ele>
        <time>2018-07-06T10:55:29Z</time>
      </trkpt>
      <trkpt lat="45.97878" lon="4.71557">
        <ele>198</ele>
        <time>2018-07-06T10:55:30Z</time>
      </trkpt>
      <trkpt lat="45.97879" lon="4.71569">
        <ele>198</ele>
        <time>2018-07-06T10:55:31Z</time>
      </trkpt>
      <trkpt lat="45.97879" lon="4.71581">
        <ele>198</ele>
        <time>2018-07-06T10:55:32Z</time>
      </trkpt>
      <trkpt lat="45.9788" lon="4.71593">
        <ele>197</ele>
        <time>2018-07-06T10:55:33Z</time>
      </trkpt>
      <trkpt lat="45.9788" lon="4.71605">
        <ele>197</ele>
        <time>2018-07-06T10:55:34Z</time>
      </trkpt>
      <trkpt lat="45.97881" lon="4.71617">
        <ele>197</ele>
        <time>2018-07-06T10:55:35Z</time>
      </trkpt>
      <trkpt lat="45.97878" lon="4.71629">
        <ele>197</ele>
        <time>2018-07-06T10:55:36Z</time>
      </trkpt>
      <trkpt lat="45.97877" lon="4.71641">
        <ele>197</ele>
        <time>2018-07-06T10:55:37Z</time>
      </trkpt>
      <trkpt lat="45.97875" lon="4.71652">
        <ele>197</ele>
        <time>2018-07-06T10:55:38Z</time>
      </trkpt>
      <trkpt lat="45.97874" lon="4.71663">
        <ele>197</ele>
        <time>2018-07-06T10:55:39Z</time>
      </trkpt>
      <trkpt lat="45.97871" lon="4.71673">
        <ele>196</ele>
        <time>2018-07-06T10:55:40Z</time>
      </trkpt>
      <trkpt lat="45.97869" lon="4.71679">
        <ele>196</ele>
        <time>2018-07-06T10:55:41Z</time>
      </trkpt>
      <trkpt lat="45.97867" lon="4.71687">
        <ele>196</ele>
        <time>2018-07-06T10:55:42Z</time>
      </trkpt>
      <trkpt lat="45.97868" lon="4.71696">
        <ele>196</ele>
        <time>2018-07-06T10:55:43Z</time>
      </trkpt>
      <trkpt lat="45.97866" lon="4.71705">
        <ele>196</ele>
        <time>2018-07-06T10:55:45Z</time>
      </trkpt>
      <trkpt lat="45.97862" lon="4.71712">
        <ele>196</ele>
        <time>2018-07-06T10:55:46Z</time>
      </trkpt>
      <trkpt lat="45.9786" lon="4.71717">
        <ele>196</ele>
        <time>2018-07-06T10:55:47Z</time>
      </trkpt>
      <trkpt lat="45.97856" lon="4.71722">
        <ele>196</ele>
        <time>2018-07-06T10:55:48Z</time>
      </trkpt>
      <trkpt lat="45.97852" lon="4.71729">
        <ele>196</ele>
        <time>2018-07-06T10:55:49Z</time>
      </trkpt>
      <trkpt lat="45.97849" lon="4.71735">
        <ele>196</ele>
        <time>2018-07-06T10:55:50Z</time>
      </trkpt>
      <trkpt lat="45.97845" lon="4.71737">
        <ele>195</ele>
        <time>2018-07-06T10:55:51Z</time>
      </trkpt>
      <trkpt lat="45.97841" lon="4.71743">
        <ele>195</ele>
        <time>2018-07-06T10:55:52Z</time>
      </trkpt>
      <trkpt lat="45.97836" lon="4.71745">
        <ele>195</ele>
        <time>2018-07-06T10:55:53Z</time>
      </trkpt>
      <trkpt lat="45.97832" lon="4.71746">
        <ele>195</ele>
        <time>2018-07-06T10:55:54Z</time>
      </trkpt>
      <trkpt lat="45.97825" lon="4.71744">
        <ele>196</ele>
        <time>2018-07-06T10:55:55Z</time>
      </trkpt>
      <trkpt lat="45.97819" lon="4.71743">
        <ele>196</ele>
        <time>2018-07-06T10:55:56Z</time>
      </trkpt>
      <trkpt lat="45.97812" lon="4.71741">
        <ele>196</ele>
        <time>2018-07-06T10:55:57Z</time>
      </trkpt>
      <trkpt lat="45.97805" lon="4.71741">
        <ele>196</ele>
        <time>2018-07-06T10:55:58Z</time>
      </trkpt>
      <trkpt lat="45.978" lon="4.7174">
        <ele>196</ele>
        <time>2018-07-06T10:55:59Z</time>
      </trkpt>
      <trkpt lat="45.97794" lon="4.71739">
        <ele>196</ele>
        <time>2018-07-06T10:56:00Z</time>
      </trkpt>
      <trkpt lat="45.97788" lon="4.71739">
        <ele>196</ele>
        <time>2018-07-06T10:56:01Z</time>
      </trkpt>
      <trkpt lat="45.97782" lon="4.71739">
        <ele>196</ele>
        <time>2018-07-06T10:56:02Z</time>
      </trkpt>
      <trkpt lat="45.97777" lon="4.71736">
        <ele>196</ele>
        <time>2018-07-06T10:56:03Z</time>
      </trkpt>
      <trkpt lat="45.97769" lon="4.71735">
        <ele>196</ele>
        <time>2018-07-06T10:56:04Z</time>
      </trkpt>
      <trkpt lat="45.97765" lon="4.71733">
        <ele>196</ele>
        <time>2018-07-06T10:56:05Z</time>
      </trkpt>
      <trkpt lat="45.97758" lon="4.71733">
        <ele>196</ele>
        <time>2018-07-06T10:56:06Z</time>
      </trkpt>
      <trkpt lat="45.97752" lon="4.71734">
        <ele>196</ele>
        <time>2018-07-06T10:56:07Z</time>
      </trkpt>
      <trkpt lat="45.97746" lon="4.71734">
        <ele>196</ele>
        <time>2018-07-06T10:56:08Z</time>
      </trkpt>
      <trkpt lat="45.9774" lon="4.71734">
        <ele>196</ele>
        <time>2018-07-06T10:56:09Z</time>
      </trkpt>
      <trkpt lat="45.97734" lon="4.71732">
        <ele>196</ele>
        <time>2018-07-06T10:56:10Z</time>
      </trkpt>
      <trkpt lat="45.97728" lon="4.71733">
        <ele>196</ele>
        <time>2018-07-06T10:56:11Z</time>
      </trkpt>
      <trkpt lat="45.97723" lon="4.71733">
        <ele>196</ele>
        <time>2018-07-06T10:56:12Z</time>
      </trkpt>
      <trkpt lat="45.97717" lon="4.71732">
        <ele>196</ele>
        <time>2018-07-06T10:56:13Z</time>
      </trkpt>
      <trkpt lat="45.97711" lon="4.71731">
        <ele>196</ele>
        <time>2018-07-06T10:56:14Z</time>
      </trkpt>
      <trkpt lat="45.97706" lon="4.7173">
        <ele>196</ele>
        <time>2018-07-06T10:56:15Z</time>
      </trkpt>
      <trkpt lat="45.97701" lon="4.71728">
        <ele>196</ele>
        <time>2018-07-06T10:56:16Z</time>
      </trkpt>
      <trkpt lat="45.97696" lon="4.71727">
        <ele>196</ele>
        <time>2018-07-06T10:56:17Z</time>
      </trkpt>
      <trkpt lat="45.97691" lon="4.71724">
        <ele>196</ele>
        <time>2018-07-06T10:56:18Z</time>
      </trkpt>
      <trkpt lat="45.97686" lon="4.71722">
        <ele>196</ele>
        <time>2018-07-06T10:56:19Z</time>
      </trkpt>
      <trkpt lat="45.97681" lon="4.71721">
        <ele>196</ele>
        <time>2018-07-06T10:56:20Z</time>
      </trkpt>
      <trkpt lat="45.97674" lon="4.71721">
        <ele>196</ele>
        <time>2018-07-06T10:56:21Z</time>
      </trkpt>
      <trkpt lat="45.97667" lon="4.71722">
        <ele>196</ele>
        <time>2018-07-06T10:56:22Z</time>
      </trkpt>
      <trkpt lat="45.97661" lon="4.71721">
        <ele>196</ele>
        <time>2018-07-06T10:56:23Z</time>
      </trkpt>
      <trkpt lat="45.97656" lon="4.7172">
        <ele>196</ele>
        <time>2018-07-06T10:56:24Z</time>
      </trkpt>
      <trkpt lat="45.97648" lon="4.71717">
        <ele>197</ele>
        <time>2018-07-06T10:56:26Z</time>
      </trkpt>
      <trkpt lat="45.97643" lon="4.71717">
        <ele>197</ele>
        <time>2018-07-06T10:56:27Z</time>
      </trkpt>
      <trkpt lat="45.97638" lon="4.71715">
        <ele>197</ele>
        <time>2018-07-06T10:56:28Z</time>
      </trkpt>
      <trkpt lat="45.97635" lon="4.71707">
        <ele>197</ele>
        <time>2018-07-06T10:56:29Z</time>
      </trkpt>
      <trkpt lat="45.97632" lon="4.71703">
        <ele>197</ele>
        <time>2018-07-06T10:56:30Z</time>
      </trkpt>
      <trkpt lat="45.97627" lon="4.717">
        <ele>197</ele>
        <time>2018-07-06T10:56:31Z</time>
      </trkpt>
      <trkpt lat="45.97622" lon="4.71697">
        <ele>197</ele>
        <time>2018-07-06T10:56:32Z</time>
      </trkpt>
      <trkpt lat="45.97616" lon="4.71698">
        <ele>197</ele>
        <time>2018-07-06T10:56:33Z</time>
      </trkpt>
      <trkpt lat="45.97612" lon="4.717">
        <ele>197</ele>
        <time>2018-07-06T10:56:34Z</time>
      </trkpt>
      <trkpt lat="45.97607" lon="4.71704">
        <ele>197</ele>
        <time>2018-07-06T10:56:35Z</time>
      </trkpt>
      <trkpt lat="45.97603" lon="4.71708">
        <ele>197</ele>
        <time>2018-07-06T10:56:36Z</time>
      </trkpt>
      <trkpt lat="45.97594" lon="4.71714">
        <ele>197</ele>
        <time>2018-07-06T10:56:37Z</time>
      </trkpt>
      <trkpt lat="45.9759" lon="4.71716">
        <ele>197</ele>
        <time>2018-07-06T10:56:38Z</time>
      </trkpt>
      <trkpt lat="45.97584" lon="4.71716">
        <ele>197</ele>
        <time>2018-07-06T10:56:39Z</time>
      </trkpt>
      <trkpt lat="45.97579" lon="4.71716">
        <ele>198</ele>
        <time>2018-07-06T10:56:40Z</time>
      </trkpt>
      <trkpt lat="45.97573" lon="4.71715">
        <ele>198</ele>
        <time>2018-07-06T10:56:41Z</time>
      </trkpt>
      <trkpt lat="45.97566" lon="4.71715">
        <ele>198</ele>
        <time>2018-07-06T10:56:42Z</time>
      </trkpt>
      <trkpt lat="45.9756" lon="4.71715">
        <ele>198</ele>
        <time>2018-07-06T10:56:43Z</time>
      </trkpt>
      <trkpt lat="45.97554" lon="4.71714">
        <ele>198</ele>
        <time>2018-07-06T10:56:44Z</time>
      </trkpt>
      <trkpt lat="45.97548" lon="4.71714">
        <ele>198</ele>
        <time>2018-07-06T10:56:45Z</time>
      </trkpt>
      <trkpt lat="45.97543" lon="4.71713">
        <ele>198</ele>
        <time>2018-07-06T10:56:46Z</time>
      </trkpt>
      <trkpt lat="45.97537" lon="4.71712">
        <ele>198</ele>
        <time>2018-07-06T10:56:47Z</time>
      </trkpt>
      <trkpt lat="45.97532" lon="4.71711">
        <ele>198</ele>
        <time>2018-07-06T10:56:48Z</time>
      </trkpt>
      <trkpt lat="45.97527" lon="4.71712">
        <ele>199</ele>
        <time>2018-07-06T10:56:49Z</time>
      </trkpt>
      <trkpt lat="45.97523" lon="4.71711">
        <ele>199</ele>
        <time>2018-07-06T10:56:50Z</time>
      </trkpt>
      <trkpt lat="45.97518" lon="4.7171">
        <ele>199</ele>
        <time>2018-07-06T10:56:51Z</time>
      </trkpt>
      <trkpt lat="45.97513" lon="4.71708">
        <ele>199</ele>
        <time>2018-07-06T10:56:52Z</time>
      </trkpt>
      <trkpt lat="45.97506" lon="4.71709">
        <ele>199</ele>
        <time>2018-07-06T10:56:53Z</time>
      </trkpt>
      <trkpt lat="45.975" lon="4.71709">
        <ele>198</ele>
        <time>2018-07-06T10:56:54Z</time>
      </trkpt>
      <trkpt lat="45.97494" lon="4.7171">
        <ele>198</ele>
        <time>2018-07-06T10:56:55Z</time>
      </trkpt>
      <trkpt lat="45.97488" lon="4.7171">
        <ele>198</ele>
        <time>2018-07-06T10:56:56Z</time>
      </trkpt>
      <trkpt lat="45.97482" lon="4.7171">
        <ele>198</ele>
        <time>2018-07-06T10:56:57Z</time>
      </trkpt>
      <trkpt lat="45.97476" lon="4.71707">
        <ele>198</ele>
        <time>2018-07-06T10:56:58Z</time>
      </trkpt>
      <trkpt lat="45.97471" lon="4.71705">
        <ele>198</ele>
        <time>2018-07-06T10:56:59Z</time>
      </trkpt>
      <trkpt lat="45.97464" lon="4.71704">
        <ele>198</ele>
        <time>2018-07-06T10:57:00Z</time>
      </trkpt>
      <trkpt lat="45.97458" lon="4.71703">
        <ele>197</ele>
        <time>2018-07-06T10:57:01Z</time>
      </trkpt>
      <trkpt lat="45.97451" lon="4.71705">
        <ele>197</ele>
        <time>2018-07-06T10:57:02Z</time>
      </trkpt>
      <trkpt lat="45.97446" lon="4.71704">
        <ele>197</ele>
        <time>2018-07-06T10:57:03Z</time>
      </trkpt>
      <trkpt lat="45.9744" lon="4.71704">
        <ele>197</ele>
        <time>2018-07-06T10:57:04Z</time>
      </trkpt>
      <trkpt lat="45.97435" lon="4.71704">
        <ele>197</ele>
        <time>2018-07-06T10:57:05Z</time>
      </trkpt>
      <trkpt lat="45.97429" lon="4.71704">
        <ele>197</ele>
        <time>2018-07-06T10:57:06Z</time>
      </trkpt>
      <trkpt lat="45.97424" lon="4.71705">
        <ele>197</ele>
        <time>2018-07-06T10:57:07Z</time>
      </trkpt>
      <trkpt lat="45.97417" lon="4.71707">
        <ele>195</ele>
        <time>2018-07-06T10:57:08Z</time>
      </trkpt>
      <trkpt lat="45.9741" lon="4.71707">
        <ele>195</ele>
        <time>2018-07-06T10:57:09Z</time>
      </trkpt>
      <trkpt lat="45.97405" lon="4.71705">
        <ele>195</ele>
        <time>2018-07-06T10:57:10Z</time>
      </trkpt>
      <trkpt lat="45.97399" lon="4.71705">
        <ele>195</ele>
        <time>2018-07-06T10:57:11Z</time>
      </trkpt>
      <trkpt lat="45.97392" lon="4.71704">
        <ele>195</ele>
        <time>2018-07-06T10:57:12Z</time>
      </trkpt>
      <trkpt lat="45.97386" lon="4.71704">
        <ele>195</ele>
        <time>2018-07-06T10:57:13Z</time>
      </trkpt>
      <trkpt lat="45.9738" lon="4.71703">
        <ele>195</ele>
        <time>2018-07-06T10:57:14Z</time>
      </trkpt>
      <trkpt lat="45.97374" lon="4.71702">
        <ele>195</ele>
        <time>2018-07-06T10:57:15Z</time>
      </trkpt>
      <trkpt lat="45.97368" lon="4.71702">
        <ele>195</ele>
        <time>2018-07-06T10:57:16Z</time>
      </trkpt>
      <trkpt lat="45.97362" lon="4.71703">
        <ele>195</ele>
        <time>2018-07-06T10:57:17Z</time>
      </trkpt>
      <trkpt lat="45.97356" lon="4.71702">
        <ele>195</ele>
        <time>2018-07-06T10:57:18Z</time>
      </trkpt>
      <trkpt lat="45.9735" lon="4.717">
        <ele>196</ele>
        <time>2018-07-06T10:57:19Z</time>
      </trkpt>
      <trkpt lat="45.97345" lon="4.717">
        <ele>196</ele>
        <time>2018-07-06T10:57:20Z</time>
      </trkpt>
      <trkpt lat="45.97339" lon="4.71699">
        <ele>196</ele>
        <time>2018-07-06T10:57:21Z</time>
      </trkpt>
      <trkpt lat="45.97331" lon="4.71698">
        <ele>196</ele>
        <time>2018-07-06T10:57:23Z</time>
      </trkpt>
      <trkpt lat="45.97327" lon="4.71696">
        <ele>196</ele>
        <time>2018-07-06T10:57:24Z</time>
      </trkpt>
      <trkpt lat="45.9732" lon="4.71691">
        <ele>196</ele>
        <time>2018-07-06T10:57:26Z</time>
      </trkpt>
      <trkpt lat="45.97315" lon="4.71688">
        <ele>196</ele>
        <time>2018-07-06T10:57:27Z</time>
      </trkpt>
      <trkpt lat="45.9731" lon="4.71686">
        <ele>197</ele>
        <time>2018-07-06T10:57:28Z</time>
      </trkpt>
      <trkpt lat="45.97303" lon="4.71688">
        <ele>197</ele>
        <time>2018-07-06T10:57:29Z</time>
      </trkpt>
      <trkpt lat="45.97298" lon="4.71689">
        <ele>197</ele>
        <time>2018-07-06T10:57:30Z</time>
      </trkpt>
      <trkpt lat="45.97293" lon="4.71692">
        <ele>197</ele>
        <time>2018-07-06T10:57:31Z</time>
      </trkpt>
      <trkpt lat="45.97287" lon="4.71697">
        <ele>197</ele>
        <time>2018-07-06T10:57:32Z</time>
      </trkpt>
      <trkpt lat="45.97281" lon="4.71697">
        <ele>197</ele>
        <time>2018-07-06T10:57:33Z</time>
      </trkpt>
      <trkpt lat="45.97275" lon="4.71699">
        <ele>197</ele>
        <time>2018-07-06T10:57:34Z</time>
      </trkpt>
      <trkpt lat="45.97268" lon="4.71697">
        <ele>197</ele>
        <time>2018-07-06T10:57:35Z</time>
      </trkpt>
      <trkpt lat="45.97262" lon="4.71696">
        <ele>197</ele>
        <time>2018-07-06T10:57:36Z</time>
      </trkpt>
      <trkpt lat="45.97257" lon="4.71693">
        <ele>197</ele>
        <time>2018-07-06T10:57:37Z</time>
      </trkpt>
      <trkpt lat="45.9725" lon="4.71692">
        <ele>197</ele>
        <time>2018-07-06T10:57:38Z</time>
      </trkpt>
      <trkpt lat="45.97243" lon="4.71691">
        <ele>197</ele>
        <time>2018-07-06T10:57:39Z</time>
      </trkpt>
      <trkpt lat="45.97236" lon="4.71691">
        <ele>197</ele>
        <time>2018-07-06T10:57:40Z</time>
      </trkpt>
      <trkpt lat="45.97228" lon="4.71691">
        <ele>197</ele>
        <time>2018-07-06T10:57:41Z</time>
      </trkpt>
      <trkpt lat="45.97222" lon="4.71687">
        <ele>197</ele>
        <time>2018-07-06T10:57:42Z</time>
      </trkpt>
      <trkpt lat="45.97216" lon="4.71686">
        <ele>197</ele>
        <time>2018-07-06T10:57:43Z</time>
      </trkpt>
      <trkpt lat="45.97209" lon="4.71685">
        <ele>197</ele>
        <time>2018-07-06T10:57:44Z</time>
      </trkpt>
      <trkpt lat="45.97204" lon="4.71686">
        <ele>197</ele>
        <time>2018-07-06T10:57:45Z</time>
      </trkpt>
      <trkpt lat="45.97198" lon="4.71685">
        <ele>197</ele>
        <time>2018-07-06T10:57:46Z</time>
      </trkpt>
      <trkpt lat="45.97192" lon="4.71685">
        <ele>197</ele>
        <time>2018-07-06T10:57:47Z</time>
      </trkpt>
      <trkpt lat="45.97185" lon="4.71685">
        <ele>197</ele>
        <time>2018-07-06T10:57:48Z</time>
      </trkpt>
      <trkpt lat="45.97178" lon="4.71685">
        <ele>197</ele>
        <time>2018-07-06T10:57:49Z</time>
      </trkpt>
      <trkpt lat="45.97172" lon="4.71684">
        <ele>197</ele>
        <time>2018-07-06T10:57:50Z</time>
      </trkpt>
      <trkpt lat="45.97166" lon="4.71684">
        <ele>196</ele>
        <time>2018-07-06T10:57:51Z</time>
      </trkpt>
      <trkpt lat="45.97159" lon="4.71684">
        <ele>196</ele>
        <time>2018-07-06T10:57:52Z</time>
      </trkpt>
      <trkpt lat="45.97152" lon="4.71684">
        <ele>196</ele>
        <time>2018-07-06T10:57:53Z</time>
      </trkpt>
      <trkpt lat="45.97144" lon="4.71685">
        <ele>195</ele>
        <time>2018-07-06T10:57:54Z</time>
      </trkpt>
      <trkpt lat="45.97139" lon="4.71683">
        <ele>195</ele>
        <time>2018-07-06T10:57:55Z</time>
      </trkpt>
      <trkpt lat="45.97131" lon="4.71686">
        <ele>195</ele>
        <time>2018-07-06T10:57:56Z</time>
      </trkpt>
      <trkpt lat="45.97124" lon="4.71687">
        <ele>195</ele>
        <time>2018-07-06T10:57:57Z</time>
      </trkpt>
      <trkpt lat="45.97117" lon="4.71687">
        <ele>194</ele>
        <time>2018-07-06T10:57:58Z</time>
      </trkpt>
      <trkpt lat="45.9711" lon="4.71688">
        <ele>194</ele>
        <time>2018-07-06T10:57:59Z</time>
      </trkpt>
      <trkpt lat="45.97103" lon="4.71688">
        <ele>194</ele>
        <time>2018-07-06T10:58:00Z</time>
      </trkpt>
      <trkpt lat="45.97094" lon="4.71687">
        <ele>194</ele>
        <time>2018-07-06T10:58:01Z</time>
      </trkpt>
      <trkpt lat="45.97086" lon="4.71685">
        <ele>194</ele>
        <time>2018-07-06T10:58:02Z</time>
      </trkpt>
      <trkpt lat="45.97078" lon="4.71684">
        <ele>193</ele>
        <time>2018-07-06T10:58:03Z</time>
      </trkpt>
      <trkpt lat="45.9707" lon="4.71682">
        <ele>193</ele>
        <time>2018-07-06T10:58:04Z</time>
      </trkpt>
      <trkpt lat="45.97063" lon="4.71681">
        <ele>193</ele>
        <time>2018-07-06T10:58:05Z</time>
      </trkpt>
      <trkpt lat="45.97055" lon="4.71679">
        <ele>193</ele>
        <time>2018-07-06T10:58:06Z</time>
      </trkpt>
      <trkpt lat="45.97048" lon="4.71678">
        <ele>193</ele>
        <time>2018-07-06T10:58:07Z</time>
      </trkpt>
      <trkpt lat="45.97042" lon="4.71676">
        <ele>193</ele>
        <time>2018-07-06T10:58:08Z</time>
      </trkpt>
      <trkpt lat="45.97034" lon="4.71676">
        <ele>193</ele>
        <time>2018-07-06T10:58:09Z</time>
      </trkpt>
      <trkpt lat="45.97025" lon="4.71676">
        <ele>193</ele>
        <time>2018-07-06T10:58:10Z</time>
      </trkpt>
      <trkpt lat="45.97019" lon="4.71676">
        <ele>193</ele>
        <time>2018-07-06T10:58:11Z</time>
      </trkpt>
      <trkpt lat="45.97012" lon="4.71676">
        <ele>193</ele>
        <time>2018-07-06T10:58:12Z</time>
      </trkpt>
      <trkpt lat="45.97005" lon="4.71676">
        <ele>193</ele>
        <time>2018-07-06T10:58:13Z</time>
      </trkpt>
      <trkpt lat="45.96998" lon="4.71675">
        <ele>193</ele>
        <time>2018-07-06T10:58:14Z</time>
      </trkpt>
      <trkpt lat="45.96991" lon="4.71676">
        <ele>193</ele>
        <time>2018-07-06T10:58:15Z</time>
      </trkpt>
      <trkpt lat="45.96985" lon="4.71675">
        <ele>192</ele>
        <time>2018-07-06T10:58:16Z</time>
      </trkpt>
      <trkpt lat="45.96979" lon="4.71674">
        <ele>192</ele>
        <time>2018-07-06T10:58:17Z</time>
      </trkpt>
      <trkpt lat="45.96972" lon="4.71673">
        <ele>192</ele>
        <time>2018-07-06T10:58:18Z</time>
      </trkpt>
      <trkpt lat="45.96966" lon="4.71674">
        <ele>192</ele>
        <time>2018-07-06T10:58:19Z</time>
      </trkpt>
      <trkpt lat="45.96959" lon="4.71672">
        <ele>192</ele>
        <time>2018-07-06T10:58:20Z</time>
      </trkpt>
      <trkpt lat="45.96951" lon="4.71672">
        <ele>192</ele>
        <time>2018-07-06T10:58:21Z</time>
      </trkpt>
      <trkpt lat="45.96943" lon="4.71672">
        <ele>192</ele>
        <time>2018-07-06T10:58:22Z</time>
      </trkpt>
      <trkpt lat="45.96936" lon="4.71673">
        <ele>193</ele>
        <time>2018-07-06T10:58:23Z</time>
      </trkpt>
      <trkpt lat="45.96929" lon="4.71671">
        <ele>193</ele>
        <time>2018-07-06T10:58:24Z</time>
      </trkpt>
      <trkpt lat="45.96922" lon="4.71671">
        <ele>194</ele>
        <time>2018-07-06T10:58:25Z</time>
      </trkpt>
      <trkpt lat="45.96915" lon="4.71671">
        <ele>194</ele>
        <time>2018-07-06T10:58:26Z</time>
      </trkpt>
      <trkpt lat="45.96908" lon="4.7167">
        <ele>193</ele>
        <time>2018-07-06T10:58:27Z</time>
      </trkpt>
      <trkpt lat="45.969" lon="4.7167">
        <ele>192</ele>
        <time>2018-07-06T10:58:28Z</time>
      </trkpt>
      <trkpt lat="45.96892" lon="4.71668">
        <ele>191</ele>
        <time>2018-07-06T10:58:29Z</time>
      </trkpt>
      <trkpt lat="45.96884" lon="4.71666">
        <ele>195</ele>
        <time>2018-07-06T10:58:30Z</time>
      </trkpt>
      <trkpt lat="45.96878" lon="4.71665">
        <ele>195</ele>
        <time>2018-07-06T10:58:31Z</time>
      </trkpt>
      <trkpt lat="45.96871" lon="4.71664">
        <ele>195</ele>
        <time>2018-07-06T10:58:32Z</time>
      </trkpt>
      <trkpt lat="45.96863" lon="4.71663">
        <ele>195</ele>
        <time>2018-07-06T10:58:33Z</time>
      </trkpt>
      <trkpt lat="45.96855" lon="4.71659">
        <ele>194</ele>
        <time>2018-07-06T10:58:34Z</time>
      </trkpt>
      <trkpt lat="45.96849" lon="4.71657">
        <ele>194</ele>
        <time>2018-07-06T10:58:35Z</time>
      </trkpt>
      <trkpt lat="45.96841" lon="4.71657">
        <ele>194</ele>
        <time>2018-07-06T10:58:36Z</time>
      </trkpt>
      <trkpt lat="45.96833" lon="4.71654">
        <ele>193</ele>
        <time>2018-07-06T10:58:37Z</time>
      </trkpt>
      <trkpt lat="45.96826" lon="4.71655">
        <ele>193</ele>
        <time>2018-07-06T10:58:38Z</time>
      </trkpt>
      <trkpt lat="45.9682" lon="4.71655">
        <ele>193</ele>
        <time>2018-07-06T10:58:39Z</time>
      </trkpt>
      <trkpt lat="45.96813" lon="4.71655">
        <ele>193</ele>
        <time>2018-07-06T10:58:40Z</time>
      </trkpt>
      <trkpt lat="45.96805" lon="4.71654">
        <ele>193</ele>
        <time>2018-07-06T10:58:41Z</time>
      </trkpt>
      <trkpt lat="45.96798" lon="4.71654">
        <ele>193</ele>
        <time>2018-07-06T10:58:42Z</time>
      </trkpt>
      <trkpt lat="45.96791" lon="4.71653">
        <ele>192</ele>
        <time>2018-07-06T10:58:43Z</time>
      </trkpt>
      <trkpt lat="45.96784" lon="4.71653">
        <ele>192</ele>
        <time>2018-07-06T10:58:44Z</time>
      </trkpt>
      <trkpt lat="45.96777" lon="4.71651">
        <ele>192</ele>
        <time>2018-07-06T10:58:45Z</time>
      </trkpt>
      <trkpt lat="45.9677" lon="4.7165">
        <ele>192</ele>
        <time>2018-07-06T10:58:46Z</time>
      </trkpt>
      <trkpt lat="45.96766" lon="4.71648">
        <ele>192</ele>
        <time>2018-07-06T10:58:47Z</time>
      </trkpt>
      <trkpt lat="45.96757" lon="4.71648">
        <ele>191</ele>
        <time>2018-07-06T10:58:48Z</time>
      </trkpt>
      <trkpt lat="45.9675" lon="4.71646">
        <ele>191</ele>
        <time>2018-07-06T10:58:49Z</time>
      </trkpt>
      <trkpt lat="45.96743" lon="4.71645">
        <ele>190</ele>
        <time>2018-07-06T10:58:50Z</time>
      </trkpt>
      <trkpt lat="45.96735" lon="4.71644">
        <ele>190</ele>
        <time>2018-07-06T10:58:51Z</time>
      </trkpt>
      <trkpt lat="45.96726" lon="4.71642">
        <ele>190</ele>
        <time>2018-07-06T10:58:52Z</time>
      </trkpt>
      <trkpt lat="45.96718" lon="4.71641">
        <ele>190</ele>
        <time>2018-07-06T10:58:53Z</time>
      </trkpt>
      <trkpt lat="45.9671" lon="4.71639">
        <ele>190</ele>
        <time>2018-07-06T10:58:54Z</time>
      </trkpt>
      <trkpt lat="45.96702" lon="4.71638">
        <ele>190</ele>
        <time>2018-07-06T10:58:55Z</time>
      </trkpt>
      <trkpt lat="45.96694" lon="4.71636">
        <ele>190</ele>
        <time>2018-07-06T10:58:56Z</time>
      </trkpt>
      <trkpt lat="45.96688" lon="4.71633">
        <ele>190</ele>
        <time>2018-07-06T10:58:57Z</time>
      </trkpt>
      <trkpt lat="45.9668" lon="4.71634">
        <ele>190</ele>
        <time>2018-07-06T10:58:58Z</time>
      </trkpt>
      <trkpt lat="45.96672" lon="4.71633">
        <ele>190</ele>
        <time>2018-07-06T10:58:59Z</time>
      </trkpt>
      <trkpt lat="45.96665" lon="4.71633">
        <ele>188</ele>
        <time>2018-07-06T10:59:00Z</time>
      </trkpt>
      <trkpt lat="45.96657" lon="4.71632">
        <ele>188</ele>
        <time>2018-07-06T10:59:01Z</time>
      </trkpt>
      <trkpt lat="45.96649" lon="4.7163">
        <ele>188</ele>
        <time>2018-07-06T10:59:02Z</time>
      </trkpt>
      <trkpt lat="45.9664" lon="4.71629">
        <ele>188</ele>
        <time>2018-07-06T10:59:03Z</time>
      </trkpt>
      <trkpt lat="45.96633" lon="4.71627">
        <ele>188</ele>
        <time>2018-07-06T10:59:04Z</time>
      </trkpt>
      <trkpt lat="45.96625" lon="4.71625">
        <ele>188</ele>
        <time>2018-07-06T10:59:05Z</time>
      </trkpt>
      <trkpt lat="45.96617" lon="4.71624">
        <ele>188</ele>
        <time>2018-07-06T10:59:06Z</time>
      </trkpt>
      <trkpt lat="45.96611" lon="4.71622">
        <ele>188</ele>
        <time>2018-07-06T10:59:07Z</time>
      </trkpt>
      <trkpt lat="45.96603" lon="4.71621">
        <ele>187</ele>
        <time>2018-07-06T10:59:08Z</time>
      </trkpt>
      <trkpt lat="45.96596" lon="4.71621">
        <ele>187</ele>
        <time>2018-07-06T10:59:09Z</time>
      </trkpt>
      <trkpt lat="45.96589" lon="4.71619">
        <ele>187</ele>
        <time>2018-07-06T10:59:10Z</time>
      </trkpt>
      <trkpt lat="45.96581" lon="4.71618">
        <ele>185</ele>
        <time>2018-07-06T10:59:11Z</time>
      </trkpt>
      <trkpt lat="45.96575" lon="4.71618">
        <ele>185</ele>
        <time>2018-07-06T10:59:12Z</time>
      </trkpt>
      <trkpt lat="45.96568" lon="4.71619">
        <ele>185</ele>
        <time>2018-07-06T10:59:13Z</time>
      </trkpt>
      <trkpt lat="45.96561" lon="4.71617">
        <ele>185</ele>
        <time>2018-07-06T10:59:14Z</time>
      </trkpt>
      <trkpt lat="45.96554" lon="4.71615">
        <ele>185</ele>
        <time>2018-07-06T10:59:15Z</time>
      </trkpt>
      <trkpt lat="45.96549" lon="4.7161">
        <ele>185</ele>
        <time>2018-07-06T10:59:16Z</time>
      </trkpt>
      <trkpt lat="45.96542" lon="4.71603">
        <ele>185</ele>
        <time>2018-07-06T10:59:17Z</time>
      </trkpt>
      <trkpt lat="45.96535" lon="4.71597">
        <ele>185</ele>
        <time>2018-07-06T10:59:18Z</time>
      </trkpt>
      <trkpt lat="45.96529" lon="4.71595">
        <ele>185</ele>
        <time>2018-07-06T10:59:19Z</time>
      </trkpt>
      <trkpt lat="45.96524" lon="4.71594">
        <ele>185</ele>
        <time>2018-07-06T10:59:20Z</time>
      </trkpt>
      <trkpt lat="45.96521" lon="4.71586">
        <ele>185</ele>
        <time>2018-07-06T10:59:21Z</time>
      </trkpt>
      <trkpt lat="45.96515" lon="4.71583">
        <ele>187</ele>
        <time>2018-07-06T10:59:22Z</time>
      </trkpt>
      <trkpt lat="45.96505" lon="4.71585">
        <ele>185</ele>
        <time>2018-07-06T10:59:23Z</time>
      </trkpt>
      <trkpt lat="45.96498" lon="4.71584">
        <ele>185</ele>
        <time>2018-07-06T10:59:24Z</time>
      </trkpt>
      <trkpt lat="45.9649" lon="4.71584">
        <ele>184</ele>
        <time>2018-07-06T10:59:25Z</time>
      </trkpt>
      <trkpt lat="45.96483" lon="4.71584">
        <ele>184</ele>
        <time>2018-07-06T10:59:26Z</time>
      </trkpt>
      <trkpt lat="45.96473" lon="4.71585">
        <ele>184</ele>
        <time>2018-07-06T10:59:27Z</time>
      </trkpt>
      <trkpt lat="45.96464" lon="4.71587">
        <ele>183</ele>
        <time>2018-07-06T10:59:28Z</time>
      </trkpt>
      <trkpt lat="45.96457" lon="4.71585">
        <ele>183</ele>
        <time>2018-07-06T10:59:29Z</time>
      </trkpt>
      <trkpt lat="45.96449" lon="4.71585">
        <ele>183</ele>
        <time>2018-07-06T10:59:30Z</time>
      </trkpt>
      <trkpt lat="45.96442" lon="4.71584">
        <ele>184</ele>
        <time>2018-07-06T10:59:31Z</time>
      </trkpt>
      <trkpt lat="45.96434" lon="4.71583">
        <ele>186</ele>
        <time>2018-07-06T10:59:32Z</time>
      </trkpt>
      <trkpt lat="45.96427" lon="4.71583">
        <ele>186</ele>
        <time>2018-07-06T10:59:33Z</time>
      </trkpt>
      <trkpt lat="45.96419" lon="4.71586">
        <ele>185</ele>
        <time>2018-07-06T10:59:34Z</time>
      </trkpt>
      <trkpt lat="45.96413" lon="4.71584">
        <ele>184</ele>
        <time>2018-07-06T10:59:35Z</time>
      </trkpt>
      <trkpt lat="45.96407" lon="4.71583">
        <ele>184</ele>
        <time>2018-07-06T10:59:36Z</time>
      </trkpt>
      <trkpt lat="45.964" lon="4.71582">
        <ele>186</ele>
        <time>2018-07-06T10:59:37Z</time>
      </trkpt>
      <trkpt lat="45.96391" lon="4.71583">
        <ele>186</ele>
        <time>2018-07-06T10:59:38Z</time>
      </trkpt>
      <trkpt lat="45.96385" lon="4.71583">
        <ele>186</ele>
        <time>2018-07-06T10:59:39Z</time>
      </trkpt>
      <trkpt lat="45.96378" lon="4.71583">
        <ele>186</ele>
        <time>2018-07-06T10:59:40Z</time>
      </trkpt>
      <trkpt lat="45.96371" lon="4.71581">
        <ele>186</ele>
        <time>2018-07-06T10:59:41Z</time>
      </trkpt>
      <trkpt lat="45.96364" lon="4.7158">
        <ele>185</ele>
        <time>2018-07-06T10:59:42Z</time>
      </trkpt>
      <trkpt lat="45.96355" lon="4.71579">
        <ele>185</ele>
        <time>2018-07-06T10:59:43Z</time>
      </trkpt>
      <trkpt lat="45.96348" lon="4.71578">
        <ele>185</ele>
        <time>2018-07-06T10:59:44Z</time>
      </trkpt>
      <trkpt lat="45.9634" lon="4.71576">
        <ele>184</ele>
        <time>2018-07-06T10:59:45Z</time>
      </trkpt>
      <trkpt lat="45.96333" lon="4.71574">
        <ele>184</ele>
        <time>2018-07-06T10:59:46Z</time>
      </trkpt>
      <trkpt lat="45.96326" lon="4.71573">
        <ele>184</ele>
        <time>2018-07-06T10:59:47Z</time>
      </trkpt>
      <trkpt lat="45.96319" lon="4.71572">
        <ele>184</ele>
        <time>2018-07-06T10:59:48Z</time>
      </trkpt>
      <trkpt lat="45.9631" lon="4.71574">
        <ele>184</ele>
        <time>2018-07-06T10:59:49Z</time>
      </trkpt>
      <trkpt lat="45.96303" lon="4.71573">
        <ele>184</ele>
        <time>2018-07-06T10:59:50Z</time>
      </trkpt>
      <trkpt lat="45.96297" lon="4.71573">
        <ele>184</ele>
        <time>2018-07-06T10:59:51Z</time>
      </trkpt>
      <trkpt lat="45.96289" lon="4.71572">
        <ele>184</ele>
        <time>2018-07-06T10:59:52Z</time>
      </trkpt>
      <trkpt lat="45.96279" lon="4.71572">
        <ele>184</ele>
        <time>2018-07-06T10:59:53Z</time>
      </trkpt>
      <trkpt lat="45.96272" lon="4.71571">
        <ele>184</ele>
        <time>2018-07-06T10:59:54Z</time>
      </trkpt>
      <trkpt lat="45.96264" lon="4.71569">
        <ele>183</ele>
        <time>2018-07-06T10:59:55Z</time>
      </trkpt>
      <trkpt lat="45.96256" lon="4.71569">
        <ele>183</ele>
        <time>2018-07-06T10:59:56Z</time>
      </trkpt>
      <trkpt lat="45.96248" lon="4.71567">
        <ele>183</ele>
        <time>2018-07-06T10:59:57Z</time>
      </trkpt>
      <trkpt lat="45.96241" lon="4.71565">
        <ele>183</ele>
        <time>2018-07-06T10:59:58Z</time>
      </trkpt>
      <trkpt lat="45.96233" lon="4.71565">
        <ele>183</ele>
        <time>2018-07-06T10:59:59Z</time>
      </trkpt>
      <trkpt lat="45.96227" lon="4.71564">
        <ele>183</ele>
        <time>2018-07-06T11:00:00Z</time>
      </trkpt>
      <trkpt lat="45.96221" lon="4.71563">
        <ele>183</ele>
        <time>2018-07-06T11:00:01Z</time>
      </trkpt>
      <trkpt lat="45.96213" lon="4.71562">
        <ele>183</ele>
        <time>2018-07-06T11:00:02Z</time>
      </trkpt>
      <trkpt lat="45.96207" lon="4.71561">
        <ele>183</ele>
        <time>2018-07-06T11:00:03Z</time>
      </trkpt>
      <trkpt lat="45.96201" lon="4.71561">
        <ele>183</ele>
        <time>2018-07-06T11:00:04Z</time>
      </trkpt>
      <trkpt lat="45.96195" lon="4.7156">
        <ele>183</ele>
        <time>2018-07-06T11:00:05Z</time>
      </trkpt>
      <trkpt lat="45.9619" lon="4.71559">
        <ele>183</ele>
        <time>2018-07-06T11:00:06Z</time>
      </trkpt>
      <trkpt lat="45.96185" lon="4.71558">
        <ele>183</ele>
        <time>2018-07-06T11:00:07Z</time>
      </trkpt>
      <trkpt lat="45.96178" lon="4.71556">
        <ele>183</ele>
        <time>2018-07-06T11:00:08Z</time>
      </trkpt>
      <trkpt lat="45.96172" lon="4.71553">
        <ele>183</ele>
        <time>2018-07-06T11:00:09Z</time>
      </trkpt>
      <trkpt lat="45.96166" lon="4.71552">
        <ele>184</ele>
        <time>2018-07-06T11:00:10Z</time>
      </trkpt>
      <trkpt lat="45.96161" lon="4.71551">
        <ele>184</ele>
        <time>2018-07-06T11:00:11Z</time>
      </trkpt>
      <trkpt lat="45.96155" lon="4.71551">
        <ele>184</ele>
        <time>2018-07-06T11:00:12Z</time>
      </trkpt>
      <trkpt lat="45.9615" lon="4.7155">
        <ele>184</ele>
        <time>2018-07-06T11:00:13Z</time>
      </trkpt>
      <trkpt lat="45.96143" lon="4.7155">
        <ele>184</ele>
        <time>2018-07-06T11:00:14Z</time>
      </trkpt>
      <trkpt lat="45.96136" lon="4.71548">
        <ele>184</ele>
        <time>2018-07-06T11:00:15Z</time>
      </trkpt>
      <trkpt lat="45.9613" lon="4.71548">
        <ele>184</ele>
        <time>2018-07-06T11:00:16Z</time>
      </trkpt>
      <trkpt lat="45.96124" lon="4.71546">
        <ele>185</ele>
        <time>2018-07-06T11:00:17Z</time>
      </trkpt>
      <trkpt lat="45.96118" lon="4.71545">
        <ele>185</ele>
        <time>2018-07-06T11:00:18Z</time>
      </trkpt>
      <trkpt lat="45.9611" lon="4.71544">
        <ele>185</ele>
        <time>2018-07-06T11:00:19Z</time>
      </trkpt>
      <trkpt lat="45.96104" lon="4.71543">
        <ele>185</ele>
        <time>2018-07-06T11:00:20Z</time>
      </trkpt>
      <trkpt lat="45.96098" lon="4.71542">
        <ele>185</ele>
        <time>2018-07-06T11:00:21Z</time>
      </trkpt>
      <trkpt lat="45.96092" lon="4.71541">
        <ele>185</ele>
        <time>2018-07-06T11:00:22Z</time>
      </trkpt>
      <trkpt lat="45.96085" lon="4.7154">
        <ele>185</ele>
        <time>2018-07-06T11:00:23Z</time>
      </trkpt>
      <trkpt lat="45.9608" lon="4.71539">
        <ele>185</ele>
        <time>2018-07-06T11:00:24Z</time>
      </trkpt>
      <trkpt lat="45.96075" lon="4.71537">
        <ele>186</ele>
        <time>2018-07-06T11:00:25Z</time>
      </trkpt>
      <trkpt lat="45.96068" lon="4.71535">
        <ele>186</ele>
        <time>2018-07-06T11:00:26Z</time>
      </trkpt>
      <trkpt lat="45.96063" lon="4.71534">
        <ele>186</ele>
        <time>2018-07-06T11:00:27Z</time>
      </trkpt>
      <trkpt lat="45.96056" lon="4.71534">
        <ele>186</ele>
        <time>2018-07-06T11:00:28Z</time>
      </trkpt>
      <trkpt lat="45.96049" lon="4.71532">
        <ele>186</ele>
        <time>2018-07-06T11:00:29Z</time>
      </trkpt>
      <trkpt lat="45.96043" lon="4.71531">
        <ele>186</ele>
        <time>2018-07-06T11:00:30Z</time>
      </trkpt>
      <trkpt lat="45.96038" lon="4.7153">
        <ele>186</ele>
        <time>2018-07-06T11:00:31Z</time>
      </trkpt>
      <trkpt lat="45.96032" lon="4.71528">
        <ele>186</ele>
        <time>2018-07-06T11:00:32Z</time>
      </trkpt>
      <trkpt lat="45.96026" lon="4.71526">
        <ele>186</ele>
        <time>2018-07-06T11:00:33Z</time>
      </trkpt>
      <trkpt lat="45.96021" lon="4.71526">
        <ele>186</ele>
        <time>2018-07-06T11:00:34Z</time>
      </trkpt>
      <trkpt lat="45.96014" lon="4.71525">
        <ele>186</ele>
        <time>2018-07-06T11:00:35Z</time>
      </trkpt>
      <trkpt lat="45.96009" lon="4.71523">
        <ele>186</ele>
        <time>2018-07-06T11:00:36Z</time>
      </trkpt>
      <trkpt lat="45.96004" lon="4.71521">
        <ele>186</ele>
        <time>2018-07-06T11:00:37Z</time>
      </trkpt>
      <trkpt lat="45.95998" lon="4.71518">
        <ele>186</ele>
        <time>2018-07-06T11:00:38Z</time>
      </trkpt>
      <trkpt lat="45.95993" lon="4.71515">
        <ele>186</ele>
        <time>2018-07-06T11:00:39Z</time>
      </trkpt>
      <trkpt lat="45.95987" lon="4.71514">
        <ele>185</ele>
        <time>2018-07-06T11:00:40Z</time>
      </trkpt>
      <trkpt lat="45.95983" lon="4.71514">
        <ele>185</ele>
        <time>2018-07-06T11:00:41Z</time>
      </trkpt>
      <trkpt lat="45.95977" lon="4.71517">
        <ele>185</ele>
        <time>2018-07-06T11:00:42Z</time>
      </trkpt>
      <trkpt lat="45.9597" lon="4.71519">
        <ele>184</ele>
        <time>2018-07-06T11:00:43Z</time>
      </trkpt>
      <trkpt lat="45.95963" lon="4.71522">
        <ele>184</ele>
        <time>2018-07-06T11:00:44Z</time>
      </trkpt>
      <trkpt lat="45.95958" lon="4.71524">
        <ele>184</ele>
        <time>2018-07-06T11:00:45Z</time>
      </trkpt>
      <trkpt lat="45.95952" lon="4.71524">
        <ele>184</ele>
        <time>2018-07-06T11:00:46Z</time>
      </trkpt>
      <trkpt lat="45.95945" lon="4.71526">
        <ele>184</ele>
        <time>2018-07-06T11:00:47Z</time>
      </trkpt>
      <trkpt lat="45.95938" lon="4.71526">
        <ele>184</ele>
        <time>2018-07-06T11:00:48Z</time>
      </trkpt>
      <trkpt lat="45.9593" lon="4.71525">
        <ele>184</ele>
        <time>2018-07-06T11:00:49Z</time>
      </trkpt>
      <trkpt lat="45.95922" lon="4.71524">
        <ele>184</ele>
        <time>2018-07-06T11:00:50Z</time>
      </trkpt>
      <trkpt lat="45.95915" lon="4.71526">
        <ele>182</ele>
        <time>2018-07-06T11:00:51Z</time>
      </trkpt>
      <trkpt lat="45.95907" lon="4.71525">
        <ele>182</ele>
        <time>2018-07-06T11:00:52Z</time>
      </trkpt>
      <trkpt lat="45.959" lon="4.71524">
        <ele>182</ele>
        <time>2018-07-06T11:00:53Z</time>
      </trkpt>
      <trkpt lat="45.95893" lon="4.71523">
        <ele>182</ele>
        <time>2018-07-06T11:00:54Z</time>
      </trkpt>
      <trkpt lat="45.95886" lon="4.71523">
        <ele>182</ele>
        <time>2018-07-06T11:00:55Z</time>
      </trkpt>
      <trkpt lat="45.95879" lon="4.71522">
        <ele>182</ele>
        <time>2018-07-06T11:00:56Z</time>
      </trkpt>
      <trkpt lat="45.95871" lon="4.71522">
        <ele>182</ele>
        <time>2018-07-06T11:00:57Z</time>
      </trkpt>
      <trkpt lat="45.95864" lon="4.71522">
        <ele>182</ele>
        <time>2018-07-06T11:00:58Z</time>
      </trkpt>
      <trkpt lat="45.95858" lon="4.71524">
        <ele>182</ele>
        <time>2018-07-06T11:00:59Z</time>
      </trkpt>
      <trkpt lat="45.9585" lon="4.71527">
        <ele>182</ele>
        <time>2018-07-06T11:01:00Z</time>
      </trkpt>
      <trkpt lat="45.95842" lon="4.71527">
        <ele>182</ele>
        <time>2018-07-06T11:01:01Z</time>
      </trkpt>
      <trkpt lat="45.95835" lon="4.71526">
        <ele>182</ele>
        <time>2018-07-06T11:01:02Z</time>
      </trkpt>
      <trkpt lat="45.95828" lon="4.71525">
        <ele>181</ele>
        <time>2018-07-06T11:01:03Z</time>
      </trkpt>
      <trkpt lat="45.95819" lon="4.71526">
        <ele>181</ele>
        <time>2018-07-06T11:01:04Z</time>
      </trkpt>
      <trkpt lat="45.9581" lon="4.71525">
        <ele>181</ele>
        <time>2018-07-06T11:01:05Z</time>
      </trkpt>
      <trkpt lat="45.95801" lon="4.71524">
        <ele>181</ele>
        <time>2018-07-06T11:01:06Z</time>
      </trkpt>
      <trkpt lat="45.95793" lon="4.71523">
        <ele>181</ele>
        <time>2018-07-06T11:01:07Z</time>
      </trkpt>
      <trkpt lat="45.95784" lon="4.71522">
        <ele>181</ele>
        <time>2018-07-06T11:01:08Z</time>
      </trkpt>
      <trkpt lat="45.95776" lon="4.71522">
        <ele>181</ele>
        <time>2018-07-06T11:01:09Z</time>
      </trkpt>
      <trkpt lat="45.95767" lon="4.71521">
        <ele>181</ele>
        <time>2018-07-06T11:01:10Z</time>
      </trkpt>
      <trkpt lat="45.95759" lon="4.71523">
        <ele>181</ele>
        <time>2018-07-06T11:01:11Z</time>
      </trkpt>
      <trkpt lat="45.95751" lon="4.71523">
        <ele>181</ele>
        <time>2018-07-06T11:01:12Z</time>
      </trkpt>
      <trkpt lat="45.95743" lon="4.71521">
        <ele>180</ele>
        <time>2018-07-06T11:01:13Z</time>
      </trkpt>
      <trkpt lat="45.95735" lon="4.7152">
        <ele>180</ele>
        <time>2018-07-06T11:01:14Z</time>
      </trkpt>
      <trkpt lat="45.95727" lon="4.71518">
        <ele>180</ele>
        <time>2018-07-06T11:01:15Z</time>
      </trkpt>
      <trkpt lat="45.95719" lon="4.71518">
        <ele>180</ele>
        <time>2018-07-06T11:01:16Z</time>
      </trkpt>
      <trkpt lat="45.9571" lon="4.71517">
        <ele>180</ele>
        <time>2018-07-06T11:01:17Z</time>
      </trkpt>
      <trkpt lat="45.95702" lon="4.71515">
        <ele>180</ele>
        <time>2018-07-06T11:01:18Z</time>
      </trkpt>
      <trkpt lat="45.95693" lon="4.71515">
        <ele>180</ele>
        <time>2018-07-06T11:01:19Z</time>
      </trkpt>
      <trkpt lat="45.95685" lon="4.71511">
        <ele>181</ele>
        <time>2018-07-06T11:01:20Z</time>
      </trkpt>
      <trkpt lat="45.95676" lon="4.7151">
        <ele>181</ele>
        <time>2018-07-06T11:01:21Z</time>
      </trkpt>
      <trkpt lat="45.95668" lon="4.71509">
        <ele>181</ele>
        <time>2018-07-06T11:01:22Z</time>
      </trkpt>
      <trkpt lat="45.95659" lon="4.71507">
        <ele>181</ele>
        <time>2018-07-06T11:01:23Z</time>
      </trkpt>
      <trkpt lat="45.95651" lon="4.71508">
        <ele>180</ele>
        <time>2018-07-06T11:01:24Z</time>
      </trkpt>
      <trkpt lat="45.95643" lon="4.71508">
        <ele>180</ele>
        <time>2018-07-06T11:01:25Z</time>
      </trkpt>
      <trkpt lat="45.95634" lon="4.71506">
        <ele>180</ele>
        <time>2018-07-06T11:01:26Z</time>
      </trkpt>
      <trkpt lat="45.95626" lon="4.71506">
        <ele>180</ele>
        <time>2018-07-06T11:01:27Z</time>
      </trkpt>
      <trkpt lat="45.95617" lon="4.71506">
        <ele>179</ele>
        <time>2018-07-06T11:01:28Z</time>
      </trkpt>
      <trkpt lat="45.95608" lon="4.71504">
        <ele>179</ele>
        <time>2018-07-06T11:01:29Z</time>
      </trkpt>
      <trkpt lat="45.95601" lon="4.71505">
        <ele>179</ele>
        <time>2018-07-06T11:01:30Z</time>
      </trkpt>
      <trkpt lat="45.95593" lon="4.71505">
        <ele>180</ele>
        <time>2018-07-06T11:01:31Z</time>
      </trkpt>
      <trkpt lat="45.95584" lon="4.71506">
        <ele>180</ele>
        <time>2018-07-06T11:01:32Z</time>
      </trkpt>
      <trkpt lat="45.95577" lon="4.71505">
        <ele>179</ele>
        <time>2018-07-06T11:01:33Z</time>
      </trkpt>
      <trkpt lat="45.95568" lon="4.71502">
        <ele>179</ele>
        <time>2018-07-06T11:01:34Z</time>
      </trkpt>
      <trkpt lat="45.95561" lon="4.71501">
        <ele>178</ele>
        <time>2018-07-06T11:01:35Z</time>
      </trkpt>
      <trkpt lat="45.95553" lon="4.715">
        <ele>179</ele>
        <time>2018-07-06T11:01:36Z</time>
      </trkpt>
      <trkpt lat="45.95546" lon="4.71499">
        <ele>179</ele>
        <time>2018-07-06T11:01:37Z</time>
      </trkpt>
      <trkpt lat="45.95539" lon="4.71502">
        <ele>177</ele>
        <time>2018-07-06T11:01:38Z</time>
      </trkpt>
      <trkpt lat="45.95532" lon="4.71501">
        <ele>177</ele>
        <time>2018-07-06T11:01:39Z</time>
      </trkpt>
      <trkpt lat="45.95525" lon="4.71501">
        <ele>177</ele>
        <time>2018-07-06T11:01:40Z</time>
      </trkpt>
      <trkpt lat="45.95518" lon="4.715">
        <ele>177</ele>
        <time>2018-07-06T11:01:41Z</time>
      </trkpt>
      <trkpt lat="45.9551" lon="4.715">
        <ele>177</ele>
        <time>2018-07-06T11:01:42Z</time>
      </trkpt>
      <trkpt lat="45.95502" lon="4.71499">
        <ele>177</ele>
        <time>2018-07-06T11:01:43Z</time>
      </trkpt>
      <trkpt lat="45.95495" lon="4.71498">
        <ele>177</ele>
        <time>2018-07-06T11:01:44Z</time>
      </trkpt>
      <trkpt lat="45.95488" lon="4.71498">
        <ele>177</ele>
        <time>2018-07-06T11:01:45Z</time>
      </trkpt>
      <trkpt lat="45.95481" lon="4.71495">
        <ele>176</ele>
        <time>2018-07-06T11:01:46Z</time>
      </trkpt>
      <trkpt lat="45.95473" lon="4.71495">
        <ele>176</ele>
        <time>2018-07-06T11:01:47Z</time>
      </trkpt>
      <trkpt lat="45.95466" lon="4.71494">
        <ele>176</ele>
        <time>2018-07-06T11:01:48Z</time>
      </trkpt>
      <trkpt lat="45.95458" lon="4.71494">
        <ele>176</ele>
        <time>2018-07-06T11:01:49Z</time>
      </trkpt>
      <trkpt lat="45.95451" lon="4.71492">
        <ele>176</ele>
        <time>2018-07-06T11:01:50Z</time>
      </trkpt>
      <trkpt lat="45.95444" lon="4.71491">
        <ele>176</ele>
        <time>2018-07-06T11:01:51Z</time>
      </trkpt>
      <trkpt lat="45.95436" lon="4.7149">
        <ele>175</ele>
        <time>2018-07-06T11:01:52Z</time>
      </trkpt>
      <trkpt lat="45.95429" lon="4.71489">
        <ele>175</ele>
        <time>2018-07-06T11:01:53Z</time>
      </trkpt>
      <trkpt lat="45.95421" lon="4.71488">
        <ele>175</ele>
        <time>2018-07-06T11:01:54Z</time>
      </trkpt>
      <trkpt lat="45.95414" lon="4.71488">
        <ele>175</ele>
        <time>2018-07-06T11:01:55Z</time>
      </trkpt>
      <trkpt lat="45.95406" lon="4.71488">
        <ele>175</ele>
        <time>2018-07-06T11:01:56Z</time>
      </trkpt>
      <trkpt lat="45.95398" lon="4.71488">
        <ele>175</ele>
        <time>2018-07-06T11:01:57Z</time>
      </trkpt>
      <trkpt lat="45.9539" lon="4.71486">
        <ele>175</ele>
        <time>2018-07-06T11:01:58Z</time>
      </trkpt>
      <trkpt lat="45.95382" lon="4.71485">
        <ele>175</ele>
        <time>2018-07-06T11:01:59Z</time>
      </trkpt>
      <trkpt lat="45.95375" lon="4.71483">
        <ele>175</ele>
        <time>2018-07-06T11:02:00Z</time>
      </trkpt>
      <trkpt lat="45.95367" lon="4.71483">
        <ele>175</ele>
        <time>2018-07-06T11:02:01Z</time>
      </trkpt>
      <trkpt lat="45.95359" lon="4.71485">
        <ele>175</ele>
        <time>2018-07-06T11:02:02Z</time>
      </trkpt>
      <trkpt lat="45.95352" lon="4.71485">
        <ele>175</ele>
        <time>2018-07-06T11:02:03Z</time>
      </trkpt>
      <trkpt lat="45.95344" lon="4.71484">
        <ele>175</ele>
        <time>2018-07-06T11:02:04Z</time>
      </trkpt>
      <trkpt lat="45.95336" lon="4.71483">
        <ele>175</ele>
        <time>2018-07-06T11:02:05Z</time>
      </trkpt>
      <trkpt lat="45.95327" lon="4.71484">
        <ele>175</ele>
        <time>2018-07-06T11:02:06Z</time>
      </trkpt>
      <trkpt lat="45.95319" lon="4.71483">
        <ele>175</ele>
        <time>2018-07-06T11:02:07Z</time>
      </trkpt>
      <trkpt lat="45.95311" lon="4.71483">
        <ele>175</ele>
        <time>2018-07-06T11:02:08Z</time>
      </trkpt>
      <trkpt lat="45.95303" lon="4.71482">
        <ele>175</ele>
        <time>2018-07-06T11:02:09Z</time>
      </trkpt>
      <trkpt lat="45.95296" lon="4.71481">
        <ele>176</ele>
        <time>2018-07-06T11:02:10Z</time>
      </trkpt>
      <trkpt lat="45.95288" lon="4.71481">
        <ele>176</ele>
        <time>2018-07-06T11:02:11Z</time>
      </trkpt>
      <trkpt lat="45.95281" lon="4.71479">
        <ele>176</ele>
        <time>2018-07-06T11:02:12Z</time>
      </trkpt>
      <trkpt lat="45.95274" lon="4.71479">
        <ele>176</ele>
        <time>2018-07-06T11:02:13Z</time>
      </trkpt>
      <trkpt lat="45.95267" lon="4.71479">
        <ele>176</ele>
        <time>2018-07-06T11:02:14Z</time>
      </trkpt>
      <trkpt lat="45.95261" lon="4.7148">
        <ele>176</ele>
        <time>2018-07-06T11:02:15Z</time>
      </trkpt>
      <trkpt lat="45.95255" lon="4.7148">
        <ele>176</ele>
        <time>2018-07-06T11:02:16Z</time>
      </trkpt>
      <trkpt lat="45.95248" lon="4.71479">
        <ele>177</ele>
        <time>2018-07-06T11:02:17Z</time>
      </trkpt>
      <trkpt lat="45.95241" lon="4.71479">
        <ele>177</ele>
        <time>2018-07-06T11:02:18Z</time>
      </trkpt>
      <trkpt lat="45.95235" lon="4.71478">
        <ele>177</ele>
        <time>2018-07-06T11:02:19Z</time>
      </trkpt>
      <trkpt lat="45.95229" lon="4.71478">
        <ele>177</ele>
        <time>2018-07-06T11:02:20Z</time>
      </trkpt>
      <trkpt lat="45.95222" lon="4.71477">
        <ele>177</ele>
        <time>2018-07-06T11:02:21Z</time>
      </trkpt>
      <trkpt lat="45.95215" lon="4.71476">
        <ele>177</ele>
        <time>2018-07-06T11:02:22Z</time>
      </trkpt>
      <trkpt lat="45.95209" lon="4.71476">
        <ele>177</ele>
        <time>2018-07-06T11:02:23Z</time>
      </trkpt>
      <trkpt lat="45.95202" lon="4.71475">
        <ele>177</ele>
        <time>2018-07-06T11:02:24Z</time>
      </trkpt>
      <trkpt lat="45.95196" lon="4.71474">
        <ele>177</ele>
        <time>2018-07-06T11:02:25Z</time>
      </trkpt>
      <trkpt lat="45.95189" lon="4.71475">
        <ele>177</ele>
        <time>2018-07-06T11:02:26Z</time>
      </trkpt>
      <trkpt lat="45.95182" lon="4.71475">
        <ele>177</ele>
        <time>2018-07-06T11:02:27Z</time>
      </trkpt>
      <trkpt lat="45.95175" lon="4.71475">
        <ele>177</ele>
        <time>2018-07-06T11:02:28Z</time>
      </trkpt>
      <trkpt lat="45.95169" lon="4.71474">
        <ele>177</ele>
        <time>2018-07-06T11:02:29Z</time>
      </trkpt>
      <trkpt lat="45.95163" lon="4.71473">
        <ele>178</ele>
        <time>2018-07-06T11:02:30Z</time>
      </trkpt>
      <trkpt lat="45.95157" lon="4.71473">
        <ele>178</ele>
        <time>2018-07-06T11:02:31Z</time>
      </trkpt>
      <trkpt lat="45.9515" lon="4.71473">
        <ele>178</ele>
        <time>2018-07-06T11:02:32Z</time>
      </trkpt>
      <trkpt lat="45.95144" lon="4.71472">
        <ele>178</ele>
        <time>2018-07-06T11:02:33Z</time>
      </trkpt>
      <trkpt lat="45.95137" lon="4.71471">
        <ele>178</ele>
        <time>2018-07-06T11:02:34Z</time>
      </trkpt>
      <trkpt lat="45.95131" lon="4.71473">
        <ele>178</ele>
        <time>2018-07-06T11:02:35Z</time>
      </trkpt>
      <trkpt lat="45.95125" lon="4.71473">
        <ele>178</ele>
        <time>2018-07-06T11:02:36Z</time>
      </trkpt>
      <trkpt lat="45.95119" lon="4.71474">
        <ele>179</ele>
        <time>2018-07-06T11:02:37Z</time>
      </trkpt>
      <trkpt lat="45.95114" lon="4.71472">
        <ele>179</ele>
        <time>2018-07-06T11:02:38Z</time>
      </trkpt>
      <trkpt lat="45.95108" lon="4.71473">
        <ele>179</ele>
        <time>2018-07-06T11:02:39Z</time>
      </trkpt>
      <trkpt lat="45.95102" lon="4.71473">
        <ele>179</ele>
        <time>2018-07-06T11:02:40Z</time>
      </trkpt>
      <trkpt lat="45.95096" lon="4.71471">
        <ele>179</ele>
        <time>2018-07-06T11:02:41Z</time>
      </trkpt>
      <trkpt lat="45.9509" lon="4.7147">
        <ele>179</ele>
        <time>2018-07-06T11:02:42Z</time>
      </trkpt>
      <trkpt lat="45.95085" lon="4.71468">
        <ele>179</ele>
        <time>2018-07-06T11:02:43Z</time>
      </trkpt>
      <trkpt lat="45.95079" lon="4.71467">
        <ele>181</ele>
        <time>2018-07-06T11:02:44Z</time>
      </trkpt>
      <trkpt lat="45.95072" lon="4.71466">
        <ele>181</ele>
        <time>2018-07-06T11:02:45Z</time>
      </trkpt>
      <trkpt lat="45.95067" lon="4.71465">
        <ele>181</ele>
        <time>2018-07-06T11:02:46Z</time>
      </trkpt>
      <trkpt lat="45.95061" lon="4.71464">
        <ele>181</ele>
        <time>2018-07-06T11:02:47Z</time>
      </trkpt>
      <trkpt lat="45.95056" lon="4.71465">
        <ele>181</ele>
        <time>2018-07-06T11:02:48Z</time>
      </trkpt>
      <trkpt lat="45.9505" lon="4.71464">
        <ele>181</ele>
        <time>2018-07-06T11:02:49Z</time>
      </trkpt>
      <trkpt lat="45.95045" lon="4.71464">
        <ele>182</ele>
        <time>2018-07-06T11:02:50Z</time>
      </trkpt>
      <trkpt lat="45.95037" lon="4.71461">
        <ele>182</ele>
        <time>2018-07-06T11:02:52Z</time>
      </trkpt>
      <trkpt lat="45.95034" lon="4.71461">
        <ele>182</ele>
        <time>2018-07-06T11:02:53Z</time>
      </trkpt>
      <trkpt lat="45.95027" lon="4.71462">
        <ele>182</ele>
        <time>2018-07-06T11:02:55Z</time>
      </trkpt>
      <trkpt lat="45.95023" lon="4.71462">
        <ele>182</ele>
        <time>2018-07-06T11:02:56Z</time>
      </trkpt>
      <trkpt lat="45.95015" lon="4.71461">
        <ele>182</ele>
        <time>2018-07-06T11:02:58Z</time>
      </trkpt>
      <trkpt lat="45.95011" lon="4.7146">
        <ele>182</ele>
        <time>2018-07-06T11:02:59Z</time>
      </trkpt>
      <trkpt lat="45.95003" lon="4.71455">
        <ele>183</ele>
        <time>2018-07-06T11:03:01Z</time>
      </trkpt>
      <trkpt lat="45.94998" lon="4.71454">
        <ele>184</ele>
        <time>2018-07-06T11:03:02Z</time>
      </trkpt>
      <trkpt lat="45.94995" lon="4.71449">
        <ele>184</ele>
        <time>2018-07-06T11:03:03Z</time>
      </trkpt>
      <trkpt lat="45.9499" lon="4.71444">
        <ele>184</ele>
        <time>2018-07-06T11:03:04Z</time>
      </trkpt>
      <trkpt lat="45.94988" lon="4.71439">
        <ele>185</ele>
        <time>2018-07-06T11:03:05Z</time>
      </trkpt>
      <trkpt lat="45.94983" lon="4.71434">
        <ele>185</ele>
        <time>2018-07-06T11:03:06Z</time>
      </trkpt>
      <trkpt lat="45.94978" lon="4.71429">
        <ele>185</ele>
        <time>2018-07-06T11:03:07Z</time>
      </trkpt>
      <trkpt lat="45.94972" lon="4.71428">
        <ele>185</ele>
        <time>2018-07-06T11:03:08Z</time>
      </trkpt>
      <trkpt lat="45.94966" lon="4.71428">
        <ele>185</ele>
        <time>2018-07-06T11:03:09Z</time>
      </trkpt>
      <trkpt lat="45.94961" lon="4.71429">
        <ele>185</ele>
        <time>2018-07-06T11:03:10Z</time>
      </trkpt>
      <trkpt lat="45.94956" lon="4.71433">
        <ele>184</ele>
        <time>2018-07-06T11:03:11Z</time>
      </trkpt>
      <trkpt lat="45.94952" lon="4.71438">
        <ele>184</ele>
        <time>2018-07-06T11:03:12Z</time>
      </trkpt>
      <trkpt lat="45.94948" lon="4.71443">
        <ele>184</ele>
        <time>2018-07-06T11:03:13Z</time>
      </trkpt>
      <trkpt lat="45.94944" lon="4.71449">
        <ele>184</ele>
        <time>2018-07-06T11:03:14Z</time>
      </trkpt>
      <trkpt lat="45.9494" lon="4.71451">
        <ele>184</ele>
        <time>2018-07-06T11:03:15Z</time>
      </trkpt>
      <trkpt lat="45.94934" lon="4.71454">
        <ele>184</ele>
        <time>2018-07-06T11:03:16Z</time>
      </trkpt>
      <trkpt lat="45.94926" lon="4.71456">
        <ele>184</ele>
        <time>2018-07-06T11:03:17Z</time>
      </trkpt>
      <trkpt lat="45.94918" lon="4.71457">
        <ele>184</ele>
        <time>2018-07-06T11:03:18Z</time>
      </trkpt>
      <trkpt lat="45.94913" lon="4.71457">
        <ele>184</ele>
        <time>2018-07-06T11:03:19Z</time>
      </trkpt>
      <trkpt lat="45.94907" lon="4.71456">
        <ele>184</ele>
        <time>2018-07-06T11:03:20Z</time>
      </trkpt>
      <trkpt lat="45.94901" lon="4.71454">
        <ele>184</ele>
        <time>2018-07-06T11:03:21Z</time>
      </trkpt>
      <trkpt lat="45.94894" lon="4.71454">
        <ele>184</ele>
        <time>2018-07-06T11:03:22Z</time>
      </trkpt>
      <trkpt lat="45.94888" lon="4.71453">
        <ele>184</ele>
        <time>2018-07-06T11:03:23Z</time>
      </trkpt>
      <trkpt lat="45.94882" lon="4.71453">
        <ele>184</ele>
        <time>2018-07-06T11:03:24Z</time>
      </trkpt>
      <trkpt lat="45.94878" lon="4.7145">
        <ele>184</ele>
        <time>2018-07-06T11:03:25Z</time>
      </trkpt>
      <trkpt lat="45.94873" lon="4.7145">
        <ele>184</ele>
        <time>2018-07-06T11:03:26Z</time>
      </trkpt>
      <trkpt lat="45.94869" lon="4.71451">
        <ele>184</ele>
        <time>2018-07-06T11:03:27Z</time>
      </trkpt>
      <trkpt lat="45.94863" lon="4.7145">
        <ele>184</ele>
        <time>2018-07-06T11:03:28Z</time>
      </trkpt>
      <trkpt lat="45.94858" lon="4.71449">
        <ele>184</ele>
        <time>2018-07-06T11:03:29Z</time>
      </trkpt>
      <trkpt lat="45.94851" lon="4.7145">
        <ele>184</ele>
        <time>2018-07-06T11:03:30Z</time>
      </trkpt>
      <trkpt lat="45.94846" lon="4.71451">
        <ele>184</ele>
        <time>2018-07-06T11:03:31Z</time>
      </trkpt>
      <trkpt lat="45.9484" lon="4.7145">
        <ele>184</ele>
        <time>2018-07-06T11:03:32Z</time>
      </trkpt>
      <trkpt lat="45.94835" lon="4.71449">
        <ele>184</ele>
        <time>2018-07-06T11:03:33Z</time>
      </trkpt>
      <trkpt lat="45.94829" lon="4.71448">
        <ele>184</ele>
        <time>2018-07-06T11:03:34Z</time>
      </trkpt>
      <trkpt lat="45.94823" lon="4.71447">
        <ele>184</ele>
        <time>2018-07-06T11:03:35Z</time>
      </trkpt>
      <trkpt lat="45.94817" lon="4.71446">
        <ele>184</ele>
        <time>2018-07-06T11:03:36Z</time>
      </trkpt>
      <trkpt lat="45.94811" lon="4.71444">
        <ele>184</ele>
        <time>2018-07-06T11:03:37Z</time>
      </trkpt>
      <trkpt lat="45.94805" lon="4.71444">
        <ele>184</ele>
        <time>2018-07-06T11:03:38Z</time>
      </trkpt>
      <trkpt lat="45.948" lon="4.71441">
        <ele>184</ele>
        <time>2018-07-06T11:03:39Z</time>
      </trkpt>
      <trkpt lat="45.94794" lon="4.71441">
        <ele>184</ele>
        <time>2018-07-06T11:03:40Z</time>
      </trkpt>
      <trkpt lat="45.94789" lon="4.71442">
        <ele>184</ele>
        <time>2018-07-06T11:03:41Z</time>
      </trkpt>
      <trkpt lat="45.94783" lon="4.71442">
        <ele>184</ele>
        <time>2018-07-06T11:03:42Z</time>
      </trkpt>
      <trkpt lat="45.94775" lon="4.71443">
        <ele>184</ele>
        <time>2018-07-06T11:03:43Z</time>
      </trkpt>
      <trkpt lat="45.94771" lon="4.71442">
        <ele>184</ele>
        <time>2018-07-06T11:03:44Z</time>
      </trkpt>
      <trkpt lat="45.94764" lon="4.7144">
        <ele>184</ele>
        <time>2018-07-06T11:03:45Z</time>
      </trkpt>
      <trkpt lat="45.94758" lon="4.71439">
        <ele>184</ele>
        <time>2018-07-06T11:03:46Z</time>
      </trkpt>
      <trkpt lat="45.94754" lon="4.71438">
        <ele>184</ele>
        <time>2018-07-06T11:03:47Z</time>
      </trkpt>
      <trkpt lat="45.94748" lon="4.71437">
        <ele>183</ele>
        <time>2018-07-06T11:03:48Z</time>
      </trkpt>
      <trkpt lat="45.94743" lon="4.71436">
        <ele>183</ele>
        <time>2018-07-06T11:03:49Z</time>
      </trkpt>
      <trkpt lat="45.94737" lon="4.71435">
        <ele>183</ele>
        <time>2018-07-06T11:03:50Z</time>
      </trkpt>
      <trkpt lat="45.94732" lon="4.71435">
        <ele>183</ele>
        <time>2018-07-06T11:03:51Z</time>
      </trkpt>
      <trkpt lat="45.94724" lon="4.71438">
        <ele>183</ele>
        <time>2018-07-06T11:03:52Z</time>
      </trkpt>
      <trkpt lat="45.94718" lon="4.71437">
        <ele>183</ele>
        <time>2018-07-06T11:03:53Z</time>
      </trkpt>
      <trkpt lat="45.94713" lon="4.71436">
        <ele>182</ele>
        <time>2018-07-06T11:03:54Z</time>
      </trkpt>
      <trkpt lat="45.94707" lon="4.71437">
        <ele>182</ele>
        <time>2018-07-06T11:03:55Z</time>
      </trkpt>
      <trkpt lat="45.94703" lon="4.71438">
        <ele>182</ele>
        <time>2018-07-06T11:03:56Z</time>
      </trkpt>
      <trkpt lat="45.94698" lon="4.71437">
        <ele>182</ele>
        <time>2018-07-06T11:03:57Z</time>
      </trkpt>
      <trkpt lat="45.94692" lon="4.71436">
        <ele>182</ele>
        <time>2018-07-06T11:03:58Z</time>
      </trkpt>
      <trkpt lat="45.94687" lon="4.71435">
        <ele>182</ele>
        <time>2018-07-06T11:03:59Z</time>
      </trkpt>
      <trkpt lat="45.94681" lon="4.71435">
        <ele>182</ele>
        <time>2018-07-06T11:04:00Z</time>
      </trkpt>
      <trkpt lat="45.94675" lon="4.71436">
        <ele>182</ele>
        <time>2018-07-06T11:04:01Z</time>
      </trkpt>
      <trkpt lat="45.94671" lon="4.71437">
        <ele>182</ele>
        <time>2018-07-06T11:04:02Z</time>
      </trkpt>
      <trkpt lat="45.94664" lon="4.71436">
        <ele>182</ele>
        <time>2018-07-06T11:04:03Z</time>
      </trkpt>
      <trkpt lat="45.94657" lon="4.71437">
        <ele>182</ele>
        <time>2018-07-06T11:04:04Z</time>
      </trkpt>
      <trkpt lat="45.9465" lon="4.71437">
        <ele>182</ele>
        <time>2018-07-06T11:04:05Z</time>
      </trkpt>
      <trkpt lat="45.94645" lon="4.71435">
        <ele>182</ele>
        <time>2018-07-06T11:04:06Z</time>
      </trkpt>
      <trkpt lat="45.94639" lon="4.71435">
        <ele>182</ele>
        <time>2018-07-06T11:04:07Z</time>
      </trkpt>
      <trkpt lat="45.94634" lon="4.71434">
        <ele>182</ele>
        <time>2018-07-06T11:04:08Z</time>
      </trkpt>
      <trkpt lat="45.94628" lon="4.71434">
        <ele>182</ele>
        <time>2018-07-06T11:04:09Z</time>
      </trkpt>
      <trkpt lat="45.94622" lon="4.71432">
        <ele>182</ele>
        <time>2018-07-06T11:04:10Z</time>
      </trkpt>
      <trkpt lat="45.94616" lon="4.71431">
        <ele>182</ele>
        <time>2018-07-06T11:04:11Z</time>
      </trkpt>
      <trkpt lat="45.9461" lon="4.71432">
        <ele>182</ele>
        <time>2018-07-06T11:04:12Z</time>
      </trkpt>
      <trkpt lat="45.94603" lon="4.71432">
        <ele>182</ele>
        <time>2018-07-06T11:04:13Z</time>
      </trkpt>
      <trkpt lat="45.94597" lon="4.7143">
        <ele>183</ele>
        <time>2018-07-06T11:04:14Z</time>
      </trkpt>
      <trkpt lat="45.9459" lon="4.71429">
        <ele>183</ele>
        <time>2018-07-06T11:04:15Z</time>
      </trkpt>
      <trkpt lat="45.94583" lon="4.7143">
        <ele>183</ele>
        <time>2018-07-06T11:04:16Z</time>
      </trkpt>
      <trkpt lat="45.94577" lon="4.71431">
        <ele>183</ele>
        <time>2018-07-06T11:04:17Z</time>
      </trkpt>
      <trkpt lat="45.9457" lon="4.7143">
        <ele>182</ele>
        <time>2018-07-06T11:04:18Z</time>
      </trkpt>
      <trkpt lat="45.94564" lon="4.71432">
        <ele>182</ele>
        <time>2018-07-06T11:04:19Z</time>
      </trkpt>
      <trkpt lat="45.94558" lon="4.71435">
        <ele>181</ele>
        <time>2018-07-06T11:04:20Z</time>
      </trkpt>
      <trkpt lat="45.94552" lon="4.71437">
        <ele>181</ele>
        <time>2018-07-06T11:04:21Z</time>
      </trkpt>
      <trkpt lat="45.94545" lon="4.71441">
        <ele>181</ele>
        <time>2018-07-06T11:04:22Z</time>
      </trkpt>
      <trkpt lat="45.94538" lon="4.71444">
        <ele>181</ele>
        <time>2018-07-06T11:04:23Z</time>
      </trkpt>
      <trkpt lat="45.94531" lon="4.71445">
        <ele>180</ele>
        <time>2018-07-06T11:04:24Z</time>
      </trkpt>
      <trkpt lat="45.94524" lon="4.71445">
        <ele>180</ele>
        <time>2018-07-06T11:04:25Z</time>
      </trkpt>
      <trkpt lat="45.94517" lon="4.71448">
        <ele>180</ele>
        <time>2018-07-06T11:04:26Z</time>
      </trkpt>
      <trkpt lat="45.94511" lon="4.71448">
        <ele>180</ele>
        <time>2018-07-06T11:04:27Z</time>
      </trkpt>
      <trkpt lat="45.94503" lon="4.71451">
        <ele>180</ele>
        <time>2018-07-06T11:04:28Z</time>
      </trkpt>
      <trkpt lat="45.94496" lon="4.71455">
        <ele>179</ele>
        <time>2018-07-06T11:04:29Z</time>
      </trkpt>
      <trkpt lat="45.94488" lon="4.71456">
        <ele>179</ele>
        <time>2018-07-06T11:04:30Z</time>
      </trkpt>
      <trkpt lat="45.94481" lon="4.71458">
        <ele>179</ele>
        <time>2018-07-06T11:04:31Z</time>
      </trkpt>
      <trkpt lat="45.94473" lon="4.7146">
        <ele>179</ele>
        <time>2018-07-06T11:04:32Z</time>
      </trkpt>
      <trkpt lat="45.94466" lon="4.71465">
        <ele>179</ele>
        <time>2018-07-06T11:04:33Z</time>
      </trkpt>
      <trkpt lat="45.94459" lon="4.71469">
        <ele>179</ele>
        <time>2018-07-06T11:04:34Z</time>
      </trkpt>
      <trkpt lat="45.9445" lon="4.71471">
        <ele>179</ele>
        <time>2018-07-06T11:04:35Z</time>
      </trkpt>
      <trkpt lat="45.94444" lon="4.71472">
        <ele>179</ele>
        <time>2018-07-06T11:04:36Z</time>
      </trkpt>
      <trkpt lat="45.94436" lon="4.71475">
        <ele>179</ele>
        <time>2018-07-06T11:04:37Z</time>
      </trkpt>
      <trkpt lat="45.9443" lon="4.71481">
        <ele>179</ele>
        <time>2018-07-06T11:04:38Z</time>
      </trkpt>
      <trkpt lat="45.94423" lon="4.71483">
        <ele>178</ele>
        <time>2018-07-06T11:04:39Z</time>
      </trkpt>
      <trkpt lat="45.94414" lon="4.71487">
        <ele>178</ele>
        <time>2018-07-06T11:04:40Z</time>
      </trkpt>
      <trkpt lat="45.94406" lon="4.71491">
        <ele>178</ele>
        <time>2018-07-06T11:04:41Z</time>
      </trkpt>
      <trkpt lat="45.94397" lon="4.71493">
        <ele>178</ele>
        <time>2018-07-06T11:04:42Z</time>
      </trkpt>
      <trkpt lat="45.94392" lon="4.71496">
        <ele>177</ele>
        <time>2018-07-06T11:04:43Z</time>
      </trkpt>
      <trkpt lat="45.94384" lon="4.715">
        <ele>177</ele>
        <time>2018-07-06T11:04:44Z</time>
      </trkpt>
      <trkpt lat="45.94376" lon="4.71503">
        <ele>177</ele>
        <time>2018-07-06T11:04:45Z</time>
      </trkpt>
      <trkpt lat="45.94368" lon="4.71506">
        <ele>176</ele>
        <time>2018-07-06T11:04:46Z</time>
      </trkpt>
      <trkpt lat="45.94359" lon="4.7151">
        <ele>176</ele>
        <time>2018-07-06T11:04:47Z</time>
      </trkpt>
      <trkpt lat="45.94354" lon="4.71512">
        <ele>176</ele>
        <time>2018-07-06T11:04:48Z</time>
      </trkpt>
      <trkpt lat="45.94347" lon="4.71516">
        <ele>176</ele>
        <time>2018-07-06T11:04:49Z</time>
      </trkpt>
      <trkpt lat="45.94337" lon="4.71517">
        <ele>176</ele>
        <time>2018-07-06T11:04:50Z</time>
      </trkpt>
      <trkpt lat="45.9433" lon="4.71519">
        <ele>176</ele>
        <time>2018-07-06T11:04:51Z</time>
      </trkpt>
      <trkpt lat="45.94322" lon="4.71522">
        <ele>176</ele>
        <time>2018-07-06T11:04:52Z</time>
      </trkpt>
      <trkpt lat="45.94312" lon="4.71528">
        <ele>175</ele>
        <time>2018-07-06T11:04:53Z</time>
      </trkpt>
      <trkpt lat="45.94303" lon="4.71532">
        <ele>175</ele>
        <time>2018-07-06T11:04:54Z</time>
      </trkpt>
      <trkpt lat="45.94294" lon="4.71536">
        <ele>175</ele>
        <time>2018-07-06T11:04:55Z</time>
      </trkpt>
      <trkpt lat="45.94287" lon="4.71539">
        <ele>175</ele>
        <time>2018-07-06T11:04:56Z</time>
      </trkpt>
      <trkpt lat="45.94279" lon="4.71543">
        <ele>175</ele>
        <time>2018-07-06T11:04:57Z</time>
      </trkpt>
      <trkpt lat="45.94271" lon="4.71545">
        <ele>175</ele>
        <time>2018-07-06T11:04:58Z</time>
      </trkpt>
      <trkpt lat="45.94264" lon="4.71549">
        <ele>175</ele>
        <time>2018-07-06T11:04:59Z</time>
      </trkpt>
      <trkpt lat="45.94256" lon="4.71551">
        <ele>175</ele>
        <time>2018-07-06T11:05:00Z</time>
      </trkpt>
      <trkpt lat="45.94249" lon="4.71556">
        <ele>174</ele>
        <time>2018-07-06T11:05:01Z</time>
      </trkpt>
      <trkpt lat="45.94242" lon="4.71557">
        <ele>174</ele>
        <time>2018-07-06T11:05:02Z</time>
      </trkpt>
      <trkpt lat="45.94235" lon="4.7156">
        <ele>174</ele>
        <time>2018-07-06T11:05:03Z</time>
      </trkpt>
      <trkpt lat="45.94228" lon="4.71563">
        <ele>174</ele>
        <time>2018-07-06T11:05:04Z</time>
      </trkpt>
      <trkpt lat="45.94221" lon="4.71565">
        <ele>174</ele>
        <time>2018-07-06T11:05:05Z</time>
      </trkpt>
      <trkpt lat="45.94214" lon="4.7157">
        <ele>174</ele>
        <time>2018-07-06T11:05:06Z</time>
      </trkpt>
      <trkpt lat="45.94207" lon="4.71573">
        <ele>174</ele>
        <time>2018-07-06T11:05:07Z</time>
      </trkpt>
      <trkpt lat="45.942" lon="4.71575">
        <ele>174</ele>
        <time>2018-07-06T11:05:08Z</time>
      </trkpt>
      <trkpt lat="45.94193" lon="4.71578">
        <ele>174</ele>
        <time>2018-07-06T11:05:09Z</time>
      </trkpt>
      <trkpt lat="45.94187" lon="4.71581">
        <ele>174</ele>
        <time>2018-07-06T11:05:10Z</time>
      </trkpt>
      <trkpt lat="45.9418" lon="4.71584">
        <ele>174</ele>
        <time>2018-07-06T11:05:11Z</time>
      </trkpt>
      <trkpt lat="45.94173" lon="4.71588">
        <ele>174</ele>
        <time>2018-07-06T11:05:12Z</time>
      </trkpt>
      <trkpt lat="45.94166" lon="4.71592">
        <ele>174</ele>
        <time>2018-07-06T11:05:13Z</time>
      </trkpt>
      <trkpt lat="45.94159" lon="4.71595">
        <ele>173</ele>
        <time>2018-07-06T11:05:14Z</time>
      </trkpt>
      <trkpt lat="45.94151" lon="4.71599">
        <ele>173</ele>
        <time>2018-07-06T11:05:15Z</time>
      </trkpt>
      <trkpt lat="45.94145" lon="4.71602">
        <ele>173</ele>
        <time>2018-07-06T11:05:16Z</time>
      </trkpt>
      <trkpt lat="45.94138" lon="4.71605">
        <ele>173</ele>
        <time>2018-07-06T11:05:17Z</time>
      </trkpt>
      <trkpt lat="45.94133" lon="4.71607">
        <ele>173</ele>
        <time>2018-07-06T11:05:18Z</time>
      </trkpt>
      <trkpt lat="45.94127" lon="4.71609">
        <ele>173</ele>
        <time>2018-07-06T11:05:19Z</time>
      </trkpt>
      <trkpt lat="45.94119" lon="4.71613">
        <ele>173</ele>
        <time>2018-07-06T11:05:20Z</time>
      </trkpt>
      <trkpt lat="45.94113" lon="4.71615">
        <ele>173</ele>
        <time>2018-07-06T11:05:21Z</time>
      </trkpt>
      <trkpt lat="45.94106" lon="4.71617">
        <ele>173</ele>
        <time>2018-07-06T11:05:22Z</time>
      </trkpt>
      <trkpt lat="45.941" lon="4.71619">
        <ele>173</ele>
        <time>2018-07-06T11:05:23Z</time>
      </trkpt>
      <trkpt lat="45.94094" lon="4.71619">
        <ele>173</ele>
        <time>2018-07-06T11:05:24Z</time>
      </trkpt>
      <trkpt lat="45.94087" lon="4.7162">
        <ele>173</ele>
        <time>2018-07-06T11:05:25Z</time>
      </trkpt>
      <trkpt lat="45.94081" lon="4.71622">
        <ele>174</ele>
        <time>2018-07-06T11:05:26Z</time>
      </trkpt>
      <trkpt lat="45.94074" lon="4.71624">
        <ele>174</ele>
        <time>2018-07-06T11:05:27Z</time>
      </trkpt>
      <trkpt lat="45.94068" lon="4.71627">
        <ele>174</ele>
        <time>2018-07-06T11:05:28Z</time>
      </trkpt>
      <trkpt lat="45.94061" lon="4.71629">
        <ele>174</ele>
        <time>2018-07-06T11:05:29Z</time>
      </trkpt>
      <trkpt lat="45.94054" lon="4.71632">
        <ele>174</ele>
        <time>2018-07-06T11:05:30Z</time>
      </trkpt>
      <trkpt lat="45.94049" lon="4.71634">
        <ele>175</ele>
        <time>2018-07-06T11:05:31Z</time>
      </trkpt>
      <trkpt lat="45.94043" lon="4.71635">
        <ele>175</ele>
        <time>2018-07-06T11:05:32Z</time>
      </trkpt>
      <trkpt lat="45.94038" lon="4.71637">
        <ele>175</ele>
        <time>2018-07-06T11:05:33Z</time>
      </trkpt>
      <trkpt lat="45.94032" lon="4.71639">
        <ele>175</ele>
        <time>2018-07-06T11:05:34Z</time>
      </trkpt>
      <trkpt lat="45.94027" lon="4.71642">
        <ele>175</ele>
        <time>2018-07-06T11:05:35Z</time>
      </trkpt>
      <trkpt lat="45.94023" lon="4.71644">
        <ele>175</ele>
        <time>2018-07-06T11:05:36Z</time>
      </trkpt>
      <trkpt lat="45.94016" lon="4.71646">
        <ele>176</ele>
        <time>2018-07-06T11:05:37Z</time>
      </trkpt>
      <trkpt lat="45.94011" lon="4.71648">
        <ele>176</ele>
        <time>2018-07-06T11:05:38Z</time>
      </trkpt>
      <trkpt lat="45.94006" lon="4.71652">
        <ele>176</ele>
        <time>2018-07-06T11:05:39Z</time>
      </trkpt>
      <trkpt lat="45.94" lon="4.71651">
        <ele>177</ele>
        <time>2018-07-06T11:05:40Z</time>
      </trkpt>
      <trkpt lat="45.93995" lon="4.71653">
        <ele>177</ele>
        <time>2018-07-06T11:05:41Z</time>
      </trkpt>
      <trkpt lat="45.93988" lon="4.71655">
        <ele>177</ele>
        <time>2018-07-06T11:05:42Z</time>
      </trkpt>
      <trkpt lat="45.93982" lon="4.71657">
        <ele>177</ele>
        <time>2018-07-06T11:05:43Z</time>
      </trkpt>
      <trkpt lat="45.93976" lon="4.71661">
        <ele>177</ele>
        <time>2018-07-06T11:05:44Z</time>
      </trkpt>
      <trkpt lat="45.9397" lon="4.71662">
        <ele>177</ele>
        <time>2018-07-06T11:05:45Z</time>
      </trkpt>
      <trkpt lat="45.93963" lon="4.71665">
        <ele>177</ele>
        <time>2018-07-06T11:05:46Z</time>
      </trkpt>
      <trkpt lat="45.93957" lon="4.71667">
        <ele>175</ele>
        <time>2018-07-06T11:05:47Z</time>
      </trkpt>
      <trkpt lat="45.93951" lon="4.71669">
        <ele>175</ele>
        <time>2018-07-06T11:05:48Z</time>
      </trkpt>
      <trkpt lat="45.93946" lon="4.71671">
        <ele>175</ele>
        <time>2018-07-06T11:05:49Z</time>
      </trkpt>
      <trkpt lat="45.9394" lon="4.71674">
        <ele>175</ele>
        <time>2018-07-06T11:05:50Z</time>
      </trkpt>
      <trkpt lat="45.93932" lon="4.71676">
        <ele>175</ele>
        <time>2018-07-06T11:05:51Z</time>
      </trkpt>
      <trkpt lat="45.93926" lon="4.71678">
        <ele>175</ele>
        <time>2018-07-06T11:05:52Z</time>
      </trkpt>
      <trkpt lat="45.93921" lon="4.71681">
        <ele>175</ele>
        <time>2018-07-06T11:05:53Z</time>
      </trkpt>
      <trkpt lat="45.93915" lon="4.71684">
        <ele>175</ele>
        <time>2018-07-06T11:05:54Z</time>
      </trkpt>
      <trkpt lat="45.93908" lon="4.71687">
        <ele>174</ele>
        <time>2018-07-06T11:05:55Z</time>
      </trkpt>
      <trkpt lat="45.93902" lon="4.7169">
        <ele>174</ele>
        <time>2018-07-06T11:05:56Z</time>
      </trkpt>
      <trkpt lat="45.93895" lon="4.7169">
        <ele>174</ele>
        <time>2018-07-06T11:05:57Z</time>
      </trkpt>
      <trkpt lat="45.93889" lon="4.71695">
        <ele>174</ele>
        <time>2018-07-06T11:05:58Z</time>
      </trkpt>
      <trkpt lat="45.93884" lon="4.71694">
        <ele>174</ele>
        <time>2018-07-06T11:05:59Z</time>
      </trkpt>
      <trkpt lat="45.93878" lon="4.71697">
        <ele>174</ele>
        <time>2018-07-06T11:06:00Z</time>
      </trkpt>
      <trkpt lat="45.93871" lon="4.71702">
        <ele>174</ele>
        <time>2018-07-06T11:06:01Z</time>
      </trkpt>
      <trkpt lat="45.93865" lon="4.71703">
        <ele>174</ele>
        <time>2018-07-06T11:06:02Z</time>
      </trkpt>
      <trkpt lat="45.93859" lon="4.71706">
        <ele>174</ele>
        <time>2018-07-06T11:06:03Z</time>
      </trkpt>
      <trkpt lat="45.93854" lon="4.71709">
        <ele>174</ele>
        <time>2018-07-06T11:06:04Z</time>
      </trkpt>
      <trkpt lat="45.93847" lon="4.71711">
        <ele>174</ele>
        <time>2018-07-06T11:06:05Z</time>
      </trkpt>
      <trkpt lat="45.93842" lon="4.71713">
        <ele>174</ele>
        <time>2018-07-06T11:06:06Z</time>
      </trkpt>
      <trkpt lat="45.93835" lon="4.71717">
        <ele>175</ele>
        <time>2018-07-06T11:06:07Z</time>
      </trkpt>
      <trkpt lat="45.93829" lon="4.71721">
        <ele>175</ele>
        <time>2018-07-06T11:06:08Z</time>
      </trkpt>
      <trkpt lat="45.93825" lon="4.71724">
        <ele>175</ele>
        <time>2018-07-06T11:06:09Z</time>
      </trkpt>
      <trkpt lat="45.93819" lon="4.71726">
        <ele>175</ele>
        <time>2018-07-06T11:06:10Z</time>
      </trkpt>
      <trkpt lat="45.93813" lon="4.71728">
        <ele>175</ele>
        <time>2018-07-06T11:06:11Z</time>
      </trkpt>
      <trkpt lat="45.93806" lon="4.71729">
        <ele>175</ele>
        <time>2018-07-06T11:06:12Z</time>
      </trkpt>
      <trkpt lat="45.93799" lon="4.71731">
        <ele>175</ele>
        <time>2018-07-06T11:06:13Z</time>
      </trkpt>
      <trkpt lat="45.93793" lon="4.71733">
        <ele>175</ele>
        <time>2018-07-06T11:06:14Z</time>
      </trkpt>
      <trkpt lat="45.93788" lon="4.71735">
        <ele>175</ele>
        <time>2018-07-06T11:06:15Z</time>
      </trkpt>
      <trkpt lat="45.93782" lon="4.71738">
        <ele>175</ele>
        <time>2018-07-06T11:06:16Z</time>
      </trkpt>
      <trkpt lat="45.93776" lon="4.7174">
        <ele>175</ele>
        <time>2018-07-06T11:06:17Z</time>
      </trkpt>
      <trkpt lat="45.9377" lon="4.71742">
        <ele>175</ele>
        <time>2018-07-06T11:06:18Z</time>
      </trkpt>
      <trkpt lat="45.93763" lon="4.71744">
        <ele>175</ele>
        <time>2018-07-06T11:06:19Z</time>
      </trkpt>
      <trkpt lat="45.93758" lon="4.71743">
        <ele>175</ele>
        <time>2018-07-06T11:06:20Z</time>
      </trkpt>
      <trkpt lat="45.93753" lon="4.71745">
        <ele>175</ele>
        <time>2018-07-06T11:06:21Z</time>
      </trkpt>
      <trkpt lat="45.93745" lon="4.7175">
        <ele>175</ele>
        <time>2018-07-06T11:06:22Z</time>
      </trkpt>
      <trkpt lat="45.93739" lon="4.71753">
        <ele>175</ele>
        <time>2018-07-06T11:06:23Z</time>
      </trkpt>
      <trkpt lat="45.93733" lon="4.71758">
        <ele>176</ele>
        <time>2018-07-06T11:06:24Z</time>
      </trkpt>
      <trkpt lat="45.93727" lon="4.71762">
        <ele>176</ele>
        <time>2018-07-06T11:06:25Z</time>
      </trkpt>
      <trkpt lat="45.93722" lon="4.71767">
        <ele>176</ele>
        <time>2018-07-06T11:06:26Z</time>
      </trkpt>
      <trkpt lat="45.93717" lon="4.71773">
        <ele>176</ele>
        <time>2018-07-06T11:06:27Z</time>
      </trkpt>
      <trkpt lat="45.93713" lon="4.71781">
        <ele>176</ele>
        <time>2018-07-06T11:06:28Z</time>
      </trkpt>
      <trkpt lat="45.9371" lon="4.71788">
        <ele>176</ele>
        <time>2018-07-06T11:06:29Z</time>
      </trkpt>
      <trkpt lat="45.93708" lon="4.71797">
        <ele>176</ele>
        <time>2018-07-06T11:06:30Z</time>
      </trkpt>
      <trkpt lat="45.93705" lon="4.71805">
        <ele>176</ele>
        <time>2018-07-06T11:06:31Z</time>
      </trkpt>
      <trkpt lat="45.93703" lon="4.71815">
        <ele>176</ele>
        <time>2018-07-06T11:06:32Z</time>
      </trkpt>
      <trkpt lat="45.93699" lon="4.71822">
        <ele>176</ele>
        <time>2018-07-06T11:06:33Z</time>
      </trkpt>
      <trkpt lat="45.93695" lon="4.71832">
        <ele>176</ele>
        <time>2018-07-06T11:06:34Z</time>
      </trkpt>
      <trkpt lat="45.93692" lon="4.7184">
        <ele>175</ele>
        <time>2018-07-06T11:06:35Z</time>
      </trkpt>
      <trkpt lat="45.93689" lon="4.71848">
        <ele>175</ele>
        <time>2018-07-06T11:06:36Z</time>
      </trkpt>
      <trkpt lat="45.93686" lon="4.71855">
        <ele>175</ele>
        <time>2018-07-06T11:06:37Z</time>
      </trkpt>
      <trkpt lat="45.93682" lon="4.71863">
        <ele>175</ele>
        <time>2018-07-06T11:06:38Z</time>
      </trkpt>
      <trkpt lat="45.93679" lon="4.71873">
        <ele>175</ele>
        <time>2018-07-06T11:06:39Z</time>
      </trkpt>
      <trkpt lat="45.93676" lon="4.71879">
        <ele>175</ele>
        <time>2018-07-06T11:06:40Z</time>
      </trkpt>
      <trkpt lat="45.93673" lon="4.71887">
        <ele>175</ele>
        <time>2018-07-06T11:06:41Z</time>
      </trkpt>
      <trkpt lat="45.93671" lon="4.71895">
        <ele>175</ele>
        <time>2018-07-06T11:06:42Z</time>
      </trkpt>
      <trkpt lat="45.93666" lon="4.71903">
        <ele>176</ele>
        <time>2018-07-06T11:06:43Z</time>
      </trkpt>
      <trkpt lat="45.93662" lon="4.71914">
        <ele>175</ele>
        <time>2018-07-06T11:06:44Z</time>
      </trkpt>
      <trkpt lat="45.93657" lon="4.71923">
        <ele>175</ele>
        <time>2018-07-06T11:06:45Z</time>
      </trkpt>
      <trkpt lat="45.93654" lon="4.71933">
        <ele>175</ele>
        <time>2018-07-06T11:06:46Z</time>
      </trkpt>
      <trkpt lat="45.93651" lon="4.71941">
        <ele>175</ele>
        <time>2018-07-06T11:06:47Z</time>
      </trkpt>
      <trkpt lat="45.93648" lon="4.71951">
        <ele>175</ele>
        <time>2018-07-06T11:06:48Z</time>
      </trkpt>
      <trkpt lat="45.93644" lon="4.71959">
        <ele>175</ele>
        <time>2018-07-06T11:06:49Z</time>
      </trkpt>
      <trkpt lat="45.93641" lon="4.71967">
        <ele>175</ele>
        <time>2018-07-06T11:06:50Z</time>
      </trkpt>
      <trkpt lat="45.93639" lon="4.71976">
        <ele>175</ele>
        <time>2018-07-06T11:06:51Z</time>
      </trkpt>
      <trkpt lat="45.93636" lon="4.71985">
        <ele>175</ele>
        <time>2018-07-06T11:06:52Z</time>
      </trkpt>
      <trkpt lat="45.93635" lon="4.71996">
        <ele>175</ele>
        <time>2018-07-06T11:06:53Z</time>
      </trkpt>
      <trkpt lat="45.93633" lon="4.72005">
        <ele>174</ele>
        <time>2018-07-06T11:06:54Z</time>
      </trkpt>
      <trkpt lat="45.9363" lon="4.72014">
        <ele>175</ele>
        <time>2018-07-06T11:06:55Z</time>
      </trkpt>
      <trkpt lat="45.93625" lon="4.7202">
        <ele>175</ele>
        <time>2018-07-06T11:06:56Z</time>
      </trkpt>
      <trkpt lat="45.93621" lon="4.72029">
        <ele>175</ele>
        <time>2018-07-06T11:06:57Z</time>
      </trkpt>
      <trkpt lat="45.93618" lon="4.72036">
        <ele>175</ele>
        <time>2018-07-06T11:06:58Z</time>
      </trkpt>
      <trkpt lat="45.93615" lon="4.72045">
        <ele>175</ele>
        <time>2018-07-06T11:06:59Z</time>
      </trkpt>
      <trkpt lat="45.93613" lon="4.72053">
        <ele>175</ele>
        <time>2018-07-06T11:07:00Z</time>
      </trkpt>
      <trkpt lat="45.93609" lon="4.72059">
        <ele>175</ele>
        <time>2018-07-06T11:07:01Z</time>
      </trkpt>
      <trkpt lat="45.93607" lon="4.72069">
        <ele>175</ele>
        <time>2018-07-06T11:07:02Z</time>
      </trkpt>
      <trkpt lat="45.93603" lon="4.72077">
        <ele>175</ele>
        <time>2018-07-06T11:07:03Z</time>
      </trkpt>
      <trkpt lat="45.93601" lon="4.72086">
        <ele>175</ele>
        <time>2018-07-06T11:07:04Z</time>
      </trkpt>
      <trkpt lat="45.93597" lon="4.72092">
        <ele>175</ele>
        <time>2018-07-06T11:07:05Z</time>
      </trkpt>
      <trkpt lat="45.93596" lon="4.721">
        <ele>174</ele>
        <time>2018-07-06T11:07:06Z</time>
      </trkpt>
      <trkpt lat="45.93592" lon="4.72107">
        <ele>174</ele>
        <time>2018-07-06T11:07:07Z</time>
      </trkpt>
      <trkpt lat="45.93588" lon="4.72113">
        <ele>174</ele>
        <time>2018-07-06T11:07:08Z</time>
      </trkpt>
      <trkpt lat="45.93586" lon="4.7212">
        <ele>174</ele>
        <time>2018-07-06T11:07:09Z</time>
      </trkpt>
      <trkpt lat="45.93581" lon="4.72126">
        <ele>174</ele>
        <time>2018-07-06T11:07:10Z</time>
      </trkpt>
      <trkpt lat="45.93577" lon="4.72133">
        <ele>174</ele>
        <time>2018-07-06T11:07:11Z</time>
      </trkpt>
      <trkpt lat="45.93575" lon="4.72141">
        <ele>174</ele>
        <time>2018-07-06T11:07:12Z</time>
      </trkpt>
      <trkpt lat="45.93572" lon="4.72148">
        <ele>174</ele>
        <time>2018-07-06T11:07:13Z</time>
      </trkpt>
      <trkpt lat="45.93568" lon="4.72156">
        <ele>174</ele>
        <time>2018-07-06T11:07:14Z</time>
      </trkpt>
      <trkpt lat="45.93567" lon="4.72165">
        <ele>174</ele>
        <time>2018-07-06T11:07:15Z</time>
      </trkpt>
      <trkpt lat="45.93564" lon="4.72173">
        <ele>173</ele>
        <time>2018-07-06T11:07:16Z</time>
      </trkpt>
      <trkpt lat="45.93563" lon="4.72182">
        <ele>173</ele>
        <time>2018-07-06T11:07:17Z</time>
      </trkpt>
      <trkpt lat="45.9356" lon="4.7219">
        <ele>173</ele>
        <time>2018-07-06T11:07:18Z</time>
      </trkpt>
      <trkpt lat="45.93558" lon="4.72198">
        <ele>173</ele>
        <time>2018-07-06T11:07:19Z</time>
      </trkpt>
      <trkpt lat="45.93554" lon="4.72204">
        <ele>173</ele>
        <time>2018-07-06T11:07:20Z</time>
      </trkpt>
      <trkpt lat="45.93551" lon="4.72212">
        <ele>173</ele>
        <time>2018-07-06T11:07:21Z</time>
      </trkpt>
      <trkpt lat="45.93548" lon="4.7222">
        <ele>172</ele>
        <time>2018-07-06T11:07:22Z</time>
      </trkpt>
      <trkpt lat="45.93545" lon="4.72228">
        <ele>172</ele>
        <time>2018-07-06T11:07:23Z</time>
      </trkpt>
      <trkpt lat="45.93541" lon="4.72235">
        <ele>172</ele>
        <time>2018-07-06T11:07:24Z</time>
      </trkpt>
      <trkpt lat="45.93538" lon="4.72242">
        <ele>172</ele>
        <time>2018-07-06T11:07:25Z</time>
      </trkpt>
      <trkpt lat="45.93535" lon="4.7225">
        <ele>172</ele>
        <time>2018-07-06T11:07:26Z</time>
      </trkpt>
      <trkpt lat="45.93532" lon="4.72257">
        <ele>172</ele>
        <time>2018-07-06T11:07:27Z</time>
      </trkpt>
      <trkpt lat="45.93529" lon="4.72262">
        <ele>172</ele>
        <time>2018-07-06T11:07:28Z</time>
      </trkpt>
      <trkpt lat="45.93526" lon="4.72269">
        <ele>172</ele>
        <time>2018-07-06T11:07:29Z</time>
      </trkpt>
      <trkpt lat="45.93523" lon="4.72276">
        <ele>172</ele>
        <time>2018-07-06T11:07:30Z</time>
      </trkpt>
      <trkpt lat="45.9352" lon="4.72283">
        <ele>172</ele>
        <time>2018-07-06T11:07:31Z</time>
      </trkpt>
      <trkpt lat="45.93516" lon="4.72289">
        <ele>172</ele>
        <time>2018-07-06T11:07:32Z</time>
      </trkpt>
      <trkpt lat="45.93512" lon="4.72295">
        <ele>172</ele>
        <time>2018-07-06T11:07:33Z</time>
      </trkpt>
      <trkpt lat="45.93508" lon="4.72303">
        <ele>172</ele>
        <time>2018-07-06T11:07:34Z</time>
      </trkpt>
      <trkpt lat="45.93504" lon="4.7231">
        <ele>173</ele>
        <time>2018-07-06T11:07:35Z</time>
      </trkpt>
      <trkpt lat="45.93499" lon="4.72316">
        <ele>173</ele>
        <time>2018-07-06T11:07:36Z</time>
      </trkpt>
      <trkpt lat="45.93494" lon="4.72324">
        <ele>173</ele>
        <time>2018-07-06T11:07:37Z</time>
      </trkpt>
      <trkpt lat="45.9349" lon="4.72333">
        <ele>173</ele>
        <time>2018-07-06T11:07:38Z</time>
      </trkpt>
      <trkpt lat="45.93486" lon="4.72342">
        <ele>173</ele>
        <time>2018-07-06T11:07:39Z</time>
      </trkpt>
      <trkpt lat="45.93481" lon="4.72348">
        <ele>173</ele>
        <time>2018-07-06T11:07:40Z</time>
      </trkpt>
      <trkpt lat="45.93475" lon="4.72355">
        <ele>173</ele>
        <time>2018-07-06T11:07:41Z</time>
      </trkpt>
      <trkpt lat="45.9347" lon="4.72361">
        <ele>173</ele>
        <time>2018-07-06T11:07:42Z</time>
      </trkpt>
      <trkpt lat="45.93466" lon="4.72367">
        <ele>173</ele>
        <time>2018-07-06T11:07:43Z</time>
      </trkpt>
      <trkpt lat="45.93461" lon="4.72373">
        <ele>173</ele>
        <time>2018-07-06T11:07:44Z</time>
      </trkpt>
      <trkpt lat="45.93456" lon="4.7238">
        <ele>173</ele>
        <time>2018-07-06T11:07:45Z</time>
      </trkpt>
      <trkpt lat="45.93451" lon="4.72386">
        <ele>173</ele>
        <time>2018-07-06T11:07:46Z</time>
      </trkpt>
      <trkpt lat="45.93445" lon="4.7239">
        <ele>173</ele>
        <time>2018-07-06T11:07:47Z</time>
      </trkpt>
      <trkpt lat="45.9344" lon="4.72396">
        <ele>173</ele>
        <time>2018-07-06T11:07:48Z</time>
      </trkpt>
      <trkpt lat="45.93435" lon="4.72397">
        <ele>173</ele>
        <time>2018-07-06T11:07:49Z</time>
      </trkpt>
      <trkpt lat="45.93427" lon="4.72399">
        <ele>174</ele>
        <time>2018-07-06T11:07:50Z</time>
      </trkpt>
      <trkpt lat="45.93421" lon="4.72401">
        <ele>174</ele>
        <time>2018-07-06T11:07:51Z</time>
      </trkpt>
      <trkpt lat="45.93415" lon="4.72405">
        <ele>174</ele>
        <time>2018-07-06T11:07:52Z</time>
      </trkpt>
      <trkpt lat="45.93409" lon="4.72408">
        <ele>174</ele>
        <time>2018-07-06T11:07:53Z</time>
      </trkpt>
      <trkpt lat="45.93405" lon="4.72406">
        <ele>174</ele>
        <time>2018-07-06T11:07:54Z</time>
      </trkpt>
      <trkpt lat="45.934" lon="4.72406">
        <ele>174</ele>
        <time>2018-07-06T11:07:55Z</time>
      </trkpt>
      <trkpt lat="45.93394" lon="4.72408">
        <ele>174</ele>
        <time>2018-07-06T11:07:56Z</time>
      </trkpt>
      <trkpt lat="45.93389" lon="4.72409">
        <ele>174</ele>
        <time>2018-07-06T11:07:57Z</time>
      </trkpt>
      <trkpt lat="45.93383" lon="4.72414">
        <ele>174</ele>
        <time>2018-07-06T11:07:58Z</time>
      </trkpt>
      <trkpt lat="45.9338" lon="4.72419">
        <ele>173</ele>
        <time>2018-07-06T11:07:59Z</time>
      </trkpt>
      <trkpt lat="45.9338" lon="4.72425">
        <ele>173</ele>
        <time>2018-07-06T11:08:00Z</time>
      </trkpt>
      <trkpt lat="45.93383" lon="4.72433">
        <ele>173</ele>
        <time>2018-07-06T11:08:01Z</time>
      </trkpt>
      <trkpt lat="45.93387" lon="4.72437">
        <ele>173</ele>
        <time>2018-07-06T11:08:02Z</time>
      </trkpt>
      <trkpt lat="45.93389" lon="4.72444">
        <ele>173</ele>
        <time>2018-07-06T11:08:03Z</time>
      </trkpt>
      <trkpt lat="45.9339" lon="4.72452">
        <ele>173</ele>
        <time>2018-07-06T11:08:04Z</time>
      </trkpt>
      <trkpt lat="45.9339" lon="4.7246">
        <ele>173</ele>
        <time>2018-07-06T11:08:05Z</time>
      </trkpt>
      <trkpt lat="45.93383" lon="4.72467">
        <ele>173</ele>
        <time>2018-07-06T11:08:06Z</time>
      </trkpt>
      <trkpt lat="45.93379" lon="4.72475">
        <ele>173</ele>
        <time>2018-07-06T11:08:07Z</time>
      </trkpt>
      <trkpt lat="45.93373" lon="4.72479">
        <ele>173</ele>
        <time>2018-07-06T11:08:08Z</time>
      </trkpt>
      <trkpt lat="45.93367" lon="4.72482">
        <ele>173</ele>
        <time>2018-07-06T11:08:09Z</time>
      </trkpt>
      <trkpt lat="45.93362" lon="4.72486">
        <ele>173</ele>
        <time>2018-07-06T11:08:10Z</time>
      </trkpt>
      <trkpt lat="45.93357" lon="4.72486">
        <ele>173</ele>
        <time>2018-07-06T11:08:11Z</time>
      </trkpt>
      <trkpt lat="45.9335" lon="4.72498">
        <ele>173</ele>
        <time>2018-07-06T11:08:12Z</time>
      </trkpt>
      <trkpt lat="45.93347" lon="4.72504">
        <ele>172</ele>
        <time>2018-07-06T11:08:13Z</time>
      </trkpt>
      <trkpt lat="45.93342" lon="4.7251">
        <ele>172</ele>
        <time>2018-07-06T11:08:14Z</time>
      </trkpt>
      <trkpt lat="45.93337" lon="4.72515">
        <ele>172</ele>
        <time>2018-07-06T11:08:15Z</time>
      </trkpt>
      <trkpt lat="45.93333" lon="4.72521">
        <ele>172</ele>
        <time>2018-07-06T11:08:16Z</time>
      </trkpt>
      <trkpt lat="45.93329" lon="4.72527">
        <ele>172</ele>
        <time>2018-07-06T11:08:17Z</time>
      </trkpt>
      <trkpt lat="45.93325" lon="4.72534">
        <ele>172</ele>
        <time>2018-07-06T11:08:18Z</time>
      </trkpt>
      <trkpt lat="45.9332" lon="4.7254">
        <ele>172</ele>
        <time>2018-07-06T11:08:19Z</time>
      </trkpt>
      <trkpt lat="45.93316" lon="4.72545">
        <ele>172</ele>
        <time>2018-07-06T11:08:20Z</time>
      </trkpt>
      <trkpt lat="45.9331" lon="4.72551">
        <ele>172</ele>
        <time>2018-07-06T11:08:21Z</time>
      </trkpt>
      <trkpt lat="45.93305" lon="4.72556">
        <ele>172</ele>
        <time>2018-07-06T11:08:22Z</time>
      </trkpt>
      <trkpt lat="45.93301" lon="4.7256">
        <ele>172</ele>
        <time>2018-07-06T11:08:23Z</time>
      </trkpt>
      <trkpt lat="45.93297" lon="4.72566">
        <ele>172</ele>
        <time>2018-07-06T11:08:24Z</time>
      </trkpt>
      <trkpt lat="45.93291" lon="4.72572">
        <ele>172</ele>
        <time>2018-07-06T11:08:25Z</time>
      </trkpt>
      <trkpt lat="45.93286" lon="4.72578">
        <ele>172</ele>
        <time>2018-07-06T11:08:26Z</time>
      </trkpt>
      <trkpt lat="45.93281" lon="4.72584">
        <ele>170</ele>
        <time>2018-07-06T11:08:27Z</time>
      </trkpt>
      <trkpt lat="45.93275" lon="4.7259">
        <ele>170</ele>
        <time>2018-07-06T11:08:28Z</time>
      </trkpt>
      <trkpt lat="45.93271" lon="4.72595">
        <ele>170</ele>
        <time>2018-07-06T11:08:29Z</time>
      </trkpt>
      <trkpt lat="45.93266" lon="4.72602">
        <ele>170</ele>
        <time>2018-07-06T11:08:30Z</time>
      </trkpt>
      <trkpt lat="45.93261" lon="4.72608">
        <ele>170</ele>
        <time>2018-07-06T11:08:31Z</time>
      </trkpt>
      <trkpt lat="45.93256" lon="4.72615">
        <ele>170</ele>
        <time>2018-07-06T11:08:32Z</time>
      </trkpt>
      <trkpt lat="45.93251" lon="4.7262">
        <ele>170</ele>
        <time>2018-07-06T11:08:33Z</time>
      </trkpt>
      <trkpt lat="45.93246" lon="4.72625">
        <ele>170</ele>
        <time>2018-07-06T11:08:34Z</time>
      </trkpt>
      <trkpt lat="45.93241" lon="4.7263">
        <ele>170</ele>
        <time>2018-07-06T11:08:35Z</time>
      </trkpt>
      <trkpt lat="45.93236" lon="4.72637">
        <ele>170</ele>
        <time>2018-07-06T11:08:36Z</time>
      </trkpt>
      <trkpt lat="45.93231" lon="4.72643">
        <ele>170</ele>
        <time>2018-07-06T11:08:37Z</time>
      </trkpt>
      <trkpt lat="45.93226" lon="4.72649">
        <ele>170</ele>
        <time>2018-07-06T11:08:38Z</time>
      </trkpt>
      <trkpt lat="45.93221" lon="4.72654">
        <ele>170</ele>
        <time>2018-07-06T11:08:39Z</time>
      </trkpt>
      <trkpt lat="45.93216" lon="4.7266">
        <ele>170</ele>
        <time>2018-07-06T11:08:40Z</time>
      </trkpt>
      <trkpt lat="45.93211" lon="4.72666">
        <ele>170</ele>
        <time>2018-07-06T11:08:41Z</time>
      </trkpt>
      <trkpt lat="45.93206" lon="4.72671">
        <ele>169</ele>
        <time>2018-07-06T11:08:42Z</time>
      </trkpt>
      <trkpt lat="45.93202" lon="4.72677">
        <ele>169</ele>
        <time>2018-07-06T11:08:43Z</time>
      </trkpt>
      <trkpt lat="45.93199" lon="4.72681">
        <ele>169</ele>
        <time>2018-07-06T11:08:44Z</time>
      </trkpt>
      <trkpt lat="45.93193" lon="4.72687">
        <ele>169</ele>
        <time>2018-07-06T11:08:45Z</time>
      </trkpt>
      <trkpt lat="45.93189" lon="4.72694">
        <ele>169</ele>
        <time>2018-07-06T11:08:46Z</time>
      </trkpt>
      <trkpt lat="45.93183" lon="4.727">
        <ele>169</ele>
        <time>2018-07-06T11:08:47Z</time>
      </trkpt>
      <trkpt lat="45.93179" lon="4.72709">
        <ele>169</ele>
        <time>2018-07-06T11:08:48Z</time>
      </trkpt>
      <trkpt lat="45.93173" lon="4.72715">
        <ele>170</ele>
        <time>2018-07-06T11:08:49Z</time>
      </trkpt>
      <trkpt lat="45.93169" lon="4.72719">
        <ele>170</ele>
        <time>2018-07-06T11:08:50Z</time>
      </trkpt>
      <trkpt lat="45.93164" lon="4.72725">
        <ele>170</ele>
        <time>2018-07-06T11:08:51Z</time>
      </trkpt>
      <trkpt lat="45.93159" lon="4.72732">
        <ele>170</ele>
        <time>2018-07-06T11:08:52Z</time>
      </trkpt>
      <trkpt lat="45.93154" lon="4.72737">
        <ele>170</ele>
        <time>2018-07-06T11:08:53Z</time>
      </trkpt>
      <trkpt lat="45.93149" lon="4.72743">
        <ele>170</ele>
        <time>2018-07-06T11:08:54Z</time>
      </trkpt>
      <trkpt lat="45.93144" lon="4.72748">
        <ele>170</ele>
        <time>2018-07-06T11:08:55Z</time>
      </trkpt>
      <trkpt lat="45.93139" lon="4.72753">
        <ele>171</ele>
        <time>2018-07-06T11:08:56Z</time>
      </trkpt>
      <trkpt lat="45.93133" lon="4.72759">
        <ele>171</ele>
        <time>2018-07-06T11:08:57Z</time>
      </trkpt>
      <trkpt lat="45.93129" lon="4.72764">
        <ele>171</ele>
        <time>2018-07-06T11:08:58Z</time>
      </trkpt>
      <trkpt lat="45.93124" lon="4.7277">
        <ele>171</ele>
        <time>2018-07-06T11:08:59Z</time>
      </trkpt>
      <trkpt lat="45.9312" lon="4.72777">
        <ele>171</ele>
        <time>2018-07-06T11:09:00Z</time>
      </trkpt>
      <trkpt lat="45.93115" lon="4.72785">
        <ele>171</ele>
        <time>2018-07-06T11:09:01Z</time>
      </trkpt>
      <trkpt lat="45.9311" lon="4.72791">
        <ele>171</ele>
        <time>2018-07-06T11:09:02Z</time>
      </trkpt>
      <trkpt lat="45.93104" lon="4.72797">
        <ele>171</ele>
        <time>2018-07-06T11:09:03Z</time>
      </trkpt>
      <trkpt lat="45.93098" lon="4.72802">
        <ele>171</ele>
        <time>2018-07-06T11:09:04Z</time>
      </trkpt>
      <trkpt lat="45.93093" lon="4.72807">
        <ele>172</ele>
        <time>2018-07-06T11:09:05Z</time>
      </trkpt>
      <trkpt lat="45.93088" lon="4.72813">
        <ele>172</ele>
        <time>2018-07-06T11:09:06Z</time>
      </trkpt>
      <trkpt lat="45.93045" lon="4.72864">
        <ele>172</ele>
        <time>2018-07-06T11:09:15Z</time>
      </trkpt>
      <trkpt lat="45.93038" lon="4.72871">
        <ele>172</ele>
        <time>2018-07-06T11:09:16Z</time>
      </trkpt>
      <trkpt lat="45.93033" lon="4.72876">
        <ele>172</ele>
        <time>2018-07-06T11:09:17Z</time>
      </trkpt>
      <trkpt lat="45.93029" lon="4.72879">
        <ele>172</ele>
        <time>2018-07-06T11:09:18Z</time>
      </trkpt>
      <trkpt lat="45.93024" lon="4.72884">
        <ele>172</ele>
        <time>2018-07-06T11:09:19Z</time>
      </trkpt>
      <trkpt lat="45.93019" lon="4.7289">
        <ele>172</ele>
        <time>2018-07-06T11:09:20Z</time>
      </trkpt>
      <trkpt lat="45.93015" lon="4.72896">
        <ele>172</ele>
        <time>2018-07-06T11:09:21Z</time>
      </trkpt>
      <trkpt lat="45.93011" lon="4.72902">
        <ele>172</ele>
        <time>2018-07-06T11:09:22Z</time>
      </trkpt>
      <trkpt lat="45.93006" lon="4.72907">
        <ele>171</ele>
        <time>2018-07-06T11:09:23Z</time>
      </trkpt>
      <trkpt lat="45.93001" lon="4.72913">
        <ele>171</ele>
        <time>2018-07-06T11:09:24Z</time>
      </trkpt>
      <trkpt lat="45.92996" lon="4.72918">
        <ele>171</ele>
        <time>2018-07-06T11:09:25Z</time>
      </trkpt>
      <trkpt lat="45.9299" lon="4.72927">
        <ele>171</ele>
        <time>2018-07-06T11:09:26Z</time>
      </trkpt>
      <trkpt lat="45.92985" lon="4.72932">
        <ele>171</ele>
        <time>2018-07-06T11:09:27Z</time>
      </trkpt>
      <trkpt lat="45.9298" lon="4.72936">
        <ele>171</ele>
        <time>2018-07-06T11:09:28Z</time>
      </trkpt>
      <trkpt lat="45.92975" lon="4.72942">
        <ele>171</ele>
        <time>2018-07-06T11:09:29Z</time>
      </trkpt>
      <trkpt lat="45.92971" lon="4.72947">
        <ele>171</ele>
        <time>2018-07-06T11:09:30Z</time>
      </trkpt>
      <trkpt lat="45.92966" lon="4.72951">
        <ele>171</ele>
        <time>2018-07-06T11:09:31Z</time>
      </trkpt>
      <trkpt lat="45.92961" lon="4.72956">
        <ele>171</ele>
        <time>2018-07-06T11:09:32Z</time>
      </trkpt>
      <trkpt lat="45.92957" lon="4.72961">
        <ele>171</ele>
        <time>2018-07-06T11:09:33Z</time>
      </trkpt>
      <trkpt lat="45.92952" lon="4.72967">
        <ele>171</ele>
        <time>2018-07-06T11:09:34Z</time>
      </trkpt>
      <trkpt lat="45.92949" lon="4.72975">
        <ele>171</ele>
        <time>2018-07-06T11:09:35Z</time>
      </trkpt>
      <trkpt lat="45.92945" lon="4.7298">
        <ele>171</ele>
        <time>2018-07-06T11:09:36Z</time>
      </trkpt>
      <trkpt lat="45.9294" lon="4.72985">
        <ele>171</ele>
        <time>2018-07-06T11:09:37Z</time>
      </trkpt>
      <trkpt lat="45.92936" lon="4.72991">
        <ele>172</ele>
        <time>2018-07-06T11:09:38Z</time>
      </trkpt>
      <trkpt lat="45.92931" lon="4.72998">
        <ele>172</ele>
        <time>2018-07-06T11:09:39Z</time>
      </trkpt>
      <trkpt lat="45.92925" lon="4.73005">
        <ele>172</ele>
        <time>2018-07-06T11:09:40Z</time>
      </trkpt>
      <trkpt lat="45.92921" lon="4.73009">
        <ele>172</ele>
        <time>2018-07-06T11:09:41Z</time>
      </trkpt>
      <trkpt lat="45.92916" lon="4.73013">
        <ele>172</ele>
        <time>2018-07-06T11:09:42Z</time>
      </trkpt>
      <trkpt lat="45.92911" lon="4.73023">
        <ele>172</ele>
        <time>2018-07-06T11:09:43Z</time>
      </trkpt>
      <trkpt lat="45.92906" lon="4.73029">
        <ele>172</ele>
        <time>2018-07-06T11:09:44Z</time>
      </trkpt>
      <trkpt lat="45.92903" lon="4.73035">
        <ele>172</ele>
        <time>2018-07-06T11:09:45Z</time>
      </trkpt>
      <trkpt lat="45.92899" lon="4.73041">
        <ele>172</ele>
        <time>2018-07-06T11:09:46Z</time>
      </trkpt>
      <trkpt lat="45.92895" lon="4.73047">
        <ele>172</ele>
        <time>2018-07-06T11:09:47Z</time>
      </trkpt>
      <trkpt lat="45.92891" lon="4.73052">
        <ele>172</ele>
        <time>2018-07-06T11:09:48Z</time>
      </trkpt>
      <trkpt lat="45.92887" lon="4.73057">
        <ele>172</ele>
        <time>2018-07-06T11:09:49Z</time>
      </trkpt>
      <trkpt lat="45.92883" lon="4.73063">
        <ele>172</ele>
        <time>2018-07-06T11:09:50Z</time>
      </trkpt>
      <trkpt lat="45.92879" lon="4.73068">
        <ele>172</ele>
        <time>2018-07-06T11:09:51Z</time>
      </trkpt>
      <trkpt lat="45.92875" lon="4.73074">
        <ele>172</ele>
        <time>2018-07-06T11:09:52Z</time>
      </trkpt>
      <trkpt lat="45.92871" lon="4.73079">
        <ele>172</ele>
        <time>2018-07-06T11:09:53Z</time>
      </trkpt>
      <trkpt lat="45.92868" lon="4.73084">
        <ele>172</ele>
        <time>2018-07-06T11:09:54Z</time>
      </trkpt>
      <trkpt lat="45.92864" lon="4.7309">
        <ele>171</ele>
        <time>2018-07-06T11:09:55Z</time>
      </trkpt>
      <trkpt lat="45.9286" lon="4.73094">
        <ele>171</ele>
        <time>2018-07-06T11:09:56Z</time>
      </trkpt>
      <trkpt lat="45.92856" lon="4.73098">
        <ele>171</ele>
        <time>2018-07-06T11:09:57Z</time>
      </trkpt>
      <trkpt lat="45.9285" lon="4.731">
        <ele>171</ele>
        <time>2018-07-06T11:09:59Z</time>
      </trkpt>
      <trkpt lat="45.92847" lon="4.73096">
        <ele>171</ele>
        <time>2018-07-06T11:10:00Z</time>
      </trkpt>
      <trkpt lat="45.92847" lon="4.73086">
        <ele>171</ele>
        <time>2018-07-06T11:10:02Z</time>
      </trkpt>
      <trkpt lat="45.92844" lon="4.73079">
        <ele>171</ele>
        <time>2018-07-06T11:10:03Z</time>
      </trkpt>
      <trkpt lat="45.92843" lon="4.73071">
        <ele>171</ele>
        <time>2018-07-06T11:10:04Z</time>
      </trkpt>
      <trkpt lat="45.92839" lon="4.73063">
        <ele>171</ele>
        <time>2018-07-06T11:10:05Z</time>
      </trkpt>
      <trkpt lat="45.92838" lon="4.73054">
        <ele>171</ele>
        <time>2018-07-06T11:10:06Z</time>
      </trkpt>
      <trkpt lat="45.92836" lon="4.73046">
        <ele>171</ele>
        <time>2018-07-06T11:10:07Z</time>
      </trkpt>
      <trkpt lat="45.92835" lon="4.73038">
        <ele>171</ele>
        <time>2018-07-06T11:10:08Z</time>
      </trkpt>
      <trkpt lat="45.92833" lon="4.7303">
        <ele>170</ele>
        <time>2018-07-06T11:10:09Z</time>
      </trkpt>
      <trkpt lat="45.92833" lon="4.73023">
        <ele>170</ele>
        <time>2018-07-06T11:10:10Z</time>
      </trkpt>
      <trkpt lat="45.92833" lon="4.73015">
        <ele>170</ele>
        <time>2018-07-06T11:10:11Z</time>
      </trkpt>
      <trkpt lat="45.92834" lon="4.73008">
        <ele>170</ele>
        <time>2018-07-06T11:10:12Z</time>
      </trkpt>
      <trkpt lat="45.92833" lon="4.73001">
        <ele>170</ele>
        <time>2018-07-06T11:10:13Z</time>
      </trkpt>
      <trkpt lat="45.92831" lon="4.72992">
        <ele>170</ele>
        <time>2018-07-06T11:10:14Z</time>
      </trkpt>
      <trkpt lat="45.92831" lon="4.72984">
        <ele>170</ele>
        <time>2018-07-06T11:10:15Z</time>
      </trkpt>
      <trkpt lat="45.92828" lon="4.72976">
        <ele>170</ele>
        <time>2018-07-06T11:10:16Z</time>
      </trkpt>
      <trkpt lat="45.92828" lon="4.72968">
        <ele>170</ele>
        <time>2018-07-06T11:10:17Z</time>
      </trkpt>
      <trkpt lat="45.92827" lon="4.72959">
        <ele>170</ele>
        <time>2018-07-06T11:10:18Z</time>
      </trkpt>
      <trkpt lat="45.92826" lon="4.72951">
        <ele>170</ele>
        <time>2018-07-06T11:10:19Z</time>
      </trkpt>
      <trkpt lat="45.92825" lon="4.72942">
        <ele>170</ele>
        <time>2018-07-06T11:10:20Z</time>
      </trkpt>
      <trkpt lat="45.92826" lon="4.72936">
        <ele>170</ele>
        <time>2018-07-06T11:10:21Z</time>
      </trkpt>
      <trkpt lat="45.92825" lon="4.72928">
        <ele>170</ele>
        <time>2018-07-06T11:10:22Z</time>
      </trkpt>
      <trkpt lat="45.92825" lon="4.72922">
        <ele>170</ele>
        <time>2018-07-06T11:10:23Z</time>
      </trkpt>
      <trkpt lat="45.92823" lon="4.72912">
        <ele>170</ele>
        <time>2018-07-06T11:10:24Z</time>
      </trkpt>
      <trkpt lat="45.92822" lon="4.72904">
        <ele>170</ele>
        <time>2018-07-06T11:10:25Z</time>
      </trkpt>
      <trkpt lat="45.92821" lon="4.72896">
        <ele>170</ele>
        <time>2018-07-06T11:10:26Z</time>
      </trkpt>
      <trkpt lat="45.9282" lon="4.72889">
        <ele>170</ele>
        <time>2018-07-06T11:10:27Z</time>
      </trkpt>
      <trkpt lat="45.92818" lon="4.72882">
        <ele>170</ele>
        <time>2018-07-06T11:10:28Z</time>
      </trkpt>
      <trkpt lat="45.92817" lon="4.72873">
        <ele>170</ele>
        <time>2018-07-06T11:10:29Z</time>
      </trkpt>
      <trkpt lat="45.92815" lon="4.72866">
        <ele>170</ele>
        <time>2018-07-06T11:10:30Z</time>
      </trkpt>
      <trkpt lat="45.92813" lon="4.7286">
        <ele>170</ele>
        <time>2018-07-06T11:10:31Z</time>
      </trkpt>
      <trkpt lat="45.92812" lon="4.72853">
        <ele>170</ele>
        <time>2018-07-06T11:10:32Z</time>
      </trkpt>
      <trkpt lat="45.92807" lon="4.72844">
        <ele>170</ele>
        <time>2018-07-06T11:10:33Z</time>
      </trkpt>
      <trkpt lat="45.92802" lon="4.72834">
        <ele>170</ele>
        <time>2018-07-06T11:10:34Z</time>
      </trkpt>
      <trkpt lat="45.92802" lon="4.72827">
        <ele>170</ele>
        <time>2018-07-06T11:10:35Z</time>
      </trkpt>
      <trkpt lat="45.928" lon="4.7282">
        <ele>170</ele>
        <time>2018-07-06T11:10:36Z</time>
      </trkpt>
      <trkpt lat="45.928" lon="4.72813">
        <ele>170</ele>
        <time>2018-07-06T11:10:37Z</time>
      </trkpt>
      <trkpt lat="45.92797" lon="4.72805">
        <ele>170</ele>
        <time>2018-07-06T11:10:38Z</time>
      </trkpt>
      <trkpt lat="45.92796" lon="4.72798">
        <ele>170</ele>
        <time>2018-07-06T11:10:39Z</time>
      </trkpt>
      <trkpt lat="45.92793" lon="4.72789">
        <ele>171</ele>
        <time>2018-07-06T11:10:41Z</time>
      </trkpt>
      <trkpt lat="45.9279" lon="4.72786">
        <ele>171</ele>
        <time>2018-07-06T11:10:42Z</time>
      </trkpt>
      <trkpt lat="45.92783" lon="4.7279">
        <ele>170</ele>
        <time>2018-07-06T11:10:45Z</time>
      </trkpt>
      <trkpt lat="45.92779" lon="4.72792">
        <ele>170</ele>
        <time>2018-07-06T11:10:46Z</time>
      </trkpt>
      <trkpt lat="45.92775" lon="4.72794">
        <ele>170</ele>
        <time>2018-07-06T11:10:47Z</time>
      </trkpt>
      <trkpt lat="45.9277" lon="4.72797">
        <ele>170</ele>
        <time>2018-07-06T11:10:48Z</time>
      </trkpt>
      <trkpt lat="45.92765" lon="4.72801">
        <ele>170</ele>
        <time>2018-07-06T11:10:49Z</time>
      </trkpt>
      <trkpt lat="45.92761" lon="4.72804">
        <ele>170</ele>
        <time>2018-07-06T11:10:50Z</time>
      </trkpt>
      <trkpt lat="45.92756" lon="4.72809">
        <ele>170</ele>
        <time>2018-07-06T11:10:51Z</time>
      </trkpt>
      <trkpt lat="45.92751" lon="4.72814">
        <ele>170</ele>
        <time>2018-07-06T11:10:52Z</time>
      </trkpt>
      <trkpt lat="45.92746" lon="4.72818">
        <ele>169</ele>
        <time>2018-07-06T11:10:53Z</time>
      </trkpt>
      <trkpt lat="45.92742" lon="4.72822">
        <ele>169</ele>
        <time>2018-07-06T11:10:54Z</time>
      </trkpt>
      <trkpt lat="45.92736" lon="4.72826">
        <ele>169</ele>
        <time>2018-07-06T11:10:55Z</time>
      </trkpt>
      <trkpt lat="45.92731" lon="4.7283">
        <ele>169</ele>
        <time>2018-07-06T11:10:56Z</time>
      </trkpt>
      <trkpt lat="45.92726" lon="4.72832">
        <ele>170</ele>
        <time>2018-07-06T11:10:57Z</time>
      </trkpt>
      <trkpt lat="45.92721" lon="4.72836">
        <ele>169</ele>
        <time>2018-07-06T11:10:58Z</time>
      </trkpt>
      <trkpt lat="45.92716" lon="4.72844">
        <ele>169</ele>
        <time>2018-07-06T11:10:59Z</time>
      </trkpt>
      <trkpt lat="45.9271" lon="4.72849">
        <ele>169</ele>
        <time>2018-07-06T11:11:00Z</time>
      </trkpt>
      <trkpt lat="45.92704" lon="4.72854">
        <ele>169</ele>
        <time>2018-07-06T11:11:01Z</time>
      </trkpt>
      <trkpt lat="45.92699" lon="4.72854">
        <ele>169</ele>
        <time>2018-07-06T11:11:02Z</time>
      </trkpt>
      <trkpt lat="45.92694" lon="4.72858">
        <ele>169</ele>
        <time>2018-07-06T11:11:03Z</time>
      </trkpt>
      <trkpt lat="45.92688" lon="4.72863">
        <ele>169</ele>
        <time>2018-07-06T11:11:04Z</time>
      </trkpt>
      <trkpt lat="45.92682" lon="4.72868">
        <ele>169</ele>
        <time>2018-07-06T11:11:05Z</time>
      </trkpt>
      <trkpt lat="45.92677" lon="4.72872">
        <ele>169</ele>
        <time>2018-07-06T11:11:06Z</time>
      </trkpt>
      <trkpt lat="45.92669" lon="4.72877">
        <ele>170</ele>
        <time>2018-07-06T11:11:07Z</time>
      </trkpt>
      <trkpt lat="45.92663" lon="4.72882">
        <ele>169</ele>
        <time>2018-07-06T11:11:08Z</time>
      </trkpt>
      <trkpt lat="45.92658" lon="4.72887">
        <ele>169</ele>
        <time>2018-07-06T11:11:09Z</time>
      </trkpt>
      <trkpt lat="45.92652" lon="4.72891">
        <ele>169</ele>
        <time>2018-07-06T11:11:10Z</time>
      </trkpt>
      <trkpt lat="45.92647" lon="4.72895">
        <ele>169</ele>
        <time>2018-07-06T11:11:11Z</time>
      </trkpt>
      <trkpt lat="45.92642" lon="4.72899">
        <ele>169</ele>
        <time>2018-07-06T11:11:12Z</time>
      </trkpt>
      <trkpt lat="45.92636" lon="4.72903">
        <ele>169</ele>
        <time>2018-07-06T11:11:13Z</time>
      </trkpt>
      <trkpt lat="45.9263" lon="4.72907">
        <ele>169</ele>
        <time>2018-07-06T11:11:14Z</time>
      </trkpt>
      <trkpt lat="45.92623" lon="4.72912">
        <ele>169</ele>
        <time>2018-07-06T11:11:15Z</time>
      </trkpt>
      <trkpt lat="45.9262" lon="4.72921">
        <ele>169</ele>
        <time>2018-07-06T11:11:16Z</time>
      </trkpt>
      <trkpt lat="45.92613" lon="4.72926">
        <ele>169</ele>
        <time>2018-07-06T11:11:17Z</time>
      </trkpt>
      <trkpt lat="45.92607" lon="4.72932">
        <ele>169</ele>
        <time>2018-07-06T11:11:18Z</time>
      </trkpt>
      <trkpt lat="45.926" lon="4.72938">
        <ele>169</ele>
        <time>2018-07-06T11:11:19Z</time>
      </trkpt>
      <trkpt lat="45.92595" lon="4.72944">
        <ele>169</ele>
        <time>2018-07-06T11:11:20Z</time>
      </trkpt>
      <trkpt lat="45.92589" lon="4.72952">
        <ele>169</ele>
        <time>2018-07-06T11:11:21Z</time>
      </trkpt>
      <trkpt lat="45.92584" lon="4.72959">
        <ele>169</ele>
        <time>2018-07-06T11:11:22Z</time>
      </trkpt>
      <trkpt lat="45.92578" lon="4.72967">
        <ele>169</ele>
        <time>2018-07-06T11:11:23Z</time>
      </trkpt>
      <trkpt lat="45.92572" lon="4.72973">
        <ele>169</ele>
        <time>2018-07-06T11:11:24Z</time>
      </trkpt>
      <trkpt lat="45.92566" lon="4.72978">
        <ele>169</ele>
        <time>2018-07-06T11:11:25Z</time>
      </trkpt>
      <trkpt lat="45.9256" lon="4.72983">
        <ele>169</ele>
        <time>2018-07-06T11:11:26Z</time>
      </trkpt>
      <trkpt lat="45.92555" lon="4.72997">
        <ele>169</ele>
        <time>2018-07-06T11:11:27Z</time>
      </trkpt>
      <trkpt lat="45.92549" lon="4.73003">
        <ele>169</ele>
        <time>2018-07-06T11:11:28Z</time>
      </trkpt>
      <trkpt lat="45.92543" lon="4.73008">
        <ele>169</ele>
        <time>2018-07-06T11:11:29Z</time>
      </trkpt>
      <trkpt lat="45.92538" lon="4.73015">
        <ele>169</ele>
        <time>2018-07-06T11:11:30Z</time>
      </trkpt>
      <trkpt lat="45.92532" lon="4.7302">
        <ele>169</ele>
        <time>2018-07-06T11:11:31Z</time>
      </trkpt>
      <trkpt lat="45.92527" lon="4.73026">
        <ele>169</ele>
        <time>2018-07-06T11:11:32Z</time>
      </trkpt>
      <trkpt lat="45.92521" lon="4.73032">
        <ele>169</ele>
        <time>2018-07-06T11:11:33Z</time>
      </trkpt>
      <trkpt lat="45.92514" lon="4.73036">
        <ele>169</ele>
        <time>2018-07-06T11:11:34Z</time>
      </trkpt>
      <trkpt lat="45.92508" lon="4.73041">
        <ele>169</ele>
        <time>2018-07-06T11:11:35Z</time>
      </trkpt>
      <trkpt lat="45.92502" lon="4.73046">
        <ele>170</ele>
        <time>2018-07-06T11:11:36Z</time>
      </trkpt>
      <trkpt lat="45.92496" lon="4.7305">
        <ele>170</ele>
        <time>2018-07-06T11:11:37Z</time>
      </trkpt>
      <trkpt lat="45.92489" lon="4.73054">
        <ele>170</ele>
        <time>2018-07-06T11:11:38Z</time>
      </trkpt>
      <trkpt lat="45.92483" lon="4.73058">
        <ele>170</ele>
        <time>2018-07-06T11:11:39Z</time>
      </trkpt>
      <trkpt lat="45.92477" lon="4.73062">
        <ele>170</ele>
        <time>2018-07-06T11:11:40Z</time>
      </trkpt>
      <trkpt lat="45.92472" lon="4.73068">
        <ele>170</ele>
        <time>2018-07-06T11:11:41Z</time>
      </trkpt>
      <trkpt lat="45.92466" lon="4.73073">
        <ele>170</ele>
        <time>2018-07-06T11:11:42Z</time>
      </trkpt>
      <trkpt lat="45.92462" lon="4.73082">
        <ele>170</ele>
        <time>2018-07-06T11:11:43Z</time>
      </trkpt>
      <trkpt lat="45.92456" lon="4.73082">
        <ele>170</ele>
        <time>2018-07-06T11:11:44Z</time>
      </trkpt>
      <trkpt lat="45.92451" lon="4.73086">
        <ele>170</ele>
        <time>2018-07-06T11:11:45Z</time>
      </trkpt>
      <trkpt lat="45.92445" lon="4.73092">
        <ele>170</ele>
        <time>2018-07-06T11:11:46Z</time>
      </trkpt>
      <trkpt lat="45.9244" lon="4.73096">
        <ele>170</ele>
        <time>2018-07-06T11:11:47Z</time>
      </trkpt>
      <trkpt lat="45.92435" lon="4.73101">
        <ele>171</ele>
        <time>2018-07-06T11:11:48Z</time>
      </trkpt>
      <trkpt lat="45.9243" lon="4.73109">
        <ele>170</ele>
        <time>2018-07-06T11:11:49Z</time>
      </trkpt>
      <trkpt lat="45.92425" lon="4.73113">
        <ele>170</ele>
        <time>2018-07-06T11:11:50Z</time>
      </trkpt>
      <trkpt lat="45.92421" lon="4.73119">
        <ele>170</ele>
        <time>2018-07-06T11:11:51Z</time>
      </trkpt>
      <trkpt lat="45.92416" lon="4.73124">
        <ele>171</ele>
        <time>2018-07-06T11:11:52Z</time>
      </trkpt>
      <trkpt lat="45.92412" lon="4.73129">
        <ele>171</ele>
        <time>2018-07-06T11:11:53Z</time>
      </trkpt>
      <trkpt lat="45.9241" lon="4.73136">
        <ele>171</ele>
        <time>2018-07-06T11:11:54Z</time>
      </trkpt>
      <trkpt lat="45.92408" lon="4.73144">
        <ele>171</ele>
        <time>2018-07-06T11:11:55Z</time>
      </trkpt>
      <trkpt lat="45.92406" lon="4.73152">
        <ele>171</ele>
        <time>2018-07-06T11:11:56Z</time>
      </trkpt>
      <trkpt lat="45.92405" lon="4.73158">
        <ele>170</ele>
        <time>2018-07-06T11:11:57Z</time>
      </trkpt>
      <trkpt lat="45.92405" lon="4.73166">
        <ele>170</ele>
        <time>2018-07-06T11:11:58Z</time>
      </trkpt>
      <trkpt lat="45.92405" lon="4.73175">
        <ele>171</ele>
        <time>2018-07-06T11:11:59Z</time>
      </trkpt>
      <trkpt lat="45.92405" lon="4.73182">
        <ele>171</ele>
        <time>2018-07-06T11:12:00Z</time>
      </trkpt>
      <trkpt lat="45.92405" lon="4.7319">
        <ele>171</ele>
        <time>2018-07-06T11:12:01Z</time>
      </trkpt>
      <trkpt lat="45.92406" lon="4.73199">
        <ele>171</ele>
        <time>2018-07-06T11:12:02Z</time>
      </trkpt>
      <trkpt lat="45.92405" lon="4.73208">
        <ele>171</ele>
        <time>2018-07-06T11:12:03Z</time>
      </trkpt>
      <trkpt lat="45.92407" lon="4.73217">
        <ele>171</ele>
        <time>2018-07-06T11:12:04Z</time>
      </trkpt>
      <trkpt lat="45.92409" lon="4.73226">
        <ele>171</ele>
        <time>2018-07-06T11:12:05Z</time>
      </trkpt>
      <trkpt lat="45.92409" lon="4.73235">
        <ele>171</ele>
        <time>2018-07-06T11:12:06Z</time>
      </trkpt>
      <trkpt lat="45.92409" lon="4.73244">
        <ele>171</ele>
        <time>2018-07-06T11:12:07Z</time>
      </trkpt>
      <trkpt lat="45.9241" lon="4.73252">
        <ele>171</ele>
        <time>2018-07-06T11:12:08Z</time>
      </trkpt>
      <trkpt lat="45.92411" lon="4.73262">
        <ele>171</ele>
        <time>2018-07-06T11:12:09Z</time>
      </trkpt>
      <trkpt lat="45.92411" lon="4.73271">
        <ele>171</ele>
        <time>2018-07-06T11:12:10Z</time>
      </trkpt>
      <trkpt lat="45.92413" lon="4.73278">
        <ele>171</ele>
        <time>2018-07-06T11:12:11Z</time>
      </trkpt>
      <trkpt lat="45.92414" lon="4.73287">
        <ele>171</ele>
        <time>2018-07-06T11:12:12Z</time>
      </trkpt>
      <trkpt lat="45.92415" lon="4.73295">
        <ele>171</ele>
        <time>2018-07-06T11:12:13Z</time>
      </trkpt>
      <trkpt lat="45.92416" lon="4.73303">
        <ele>171</ele>
        <time>2018-07-06T11:12:14Z</time>
      </trkpt>
      <trkpt lat="45.92416" lon="4.73312">
        <ele>171</ele>
        <time>2018-07-06T11:12:15Z</time>
      </trkpt>
      <trkpt lat="45.92416" lon="4.7332">
        <ele>171</ele>
        <time>2018-07-06T11:12:16Z</time>
      </trkpt>
      <trkpt lat="45.92417" lon="4.73329">
        <ele>171</ele>
        <time>2018-07-06T11:12:17Z</time>
      </trkpt>
      <trkpt lat="45.92417" lon="4.73337">
        <ele>171</ele>
        <time>2018-07-06T11:12:18Z</time>
      </trkpt>
      <trkpt lat="45.92419" lon="4.73346">
        <ele>171</ele>
        <time>2018-07-06T11:12:19Z</time>
      </trkpt>
      <trkpt lat="45.9242" lon="4.73356">
        <ele>171</ele>
        <time>2018-07-06T11:12:20Z</time>
      </trkpt>
      <trkpt lat="45.92421" lon="4.73364">
        <ele>172</ele>
        <time>2018-07-06T11:12:21Z</time>
      </trkpt>
      <trkpt lat="45.92424" lon="4.73374">
        <ele>172</ele>
        <time>2018-07-06T11:12:22Z</time>
      </trkpt>
      <trkpt lat="45.92425" lon="4.73382">
        <ele>172</ele>
        <time>2018-07-06T11:12:23Z</time>
      </trkpt>
      <trkpt lat="45.92427" lon="4.7339">
        <ele>172</ele>
        <time>2018-07-06T11:12:24Z</time>
      </trkpt>
      <trkpt lat="45.9243" lon="4.73398">
        <ele>172</ele>
        <time>2018-07-06T11:12:25Z</time>
      </trkpt>
      <trkpt lat="45.92433" lon="4.73406">
        <ele>172</ele>
        <time>2018-07-06T11:12:26Z</time>
      </trkpt>
      <trkpt lat="45.92437" lon="4.73412">
        <ele>172</ele>
        <time>2018-07-06T11:12:27Z</time>
      </trkpt>
      <trkpt lat="45.92444" lon="4.73419">
        <ele>173</ele>
        <time>2018-07-06T11:12:29Z</time>
      </trkpt>
      <trkpt lat="45.92449" lon="4.73421">
        <ele>173</ele>
        <time>2018-07-06T11:12:30Z</time>
      </trkpt>
      <trkpt lat="45.92453" lon="4.73425">
        <ele>173</ele>
        <time>2018-07-06T11:12:31Z</time>
      </trkpt>
      <trkpt lat="45.92456" lon="4.7343">
        <ele>173</ele>
        <time>2018-07-06T11:12:32Z</time>
      </trkpt>
      <trkpt lat="45.9246" lon="4.73436">
        <ele>173</ele>
        <time>2018-07-06T11:12:33Z</time>
      </trkpt>
      <trkpt lat="45.92463" lon="4.73443">
        <ele>173</ele>
        <time>2018-07-06T11:12:34Z</time>
      </trkpt>
      <trkpt lat="45.92465" lon="4.7345">
        <ele>173</ele>
        <time>2018-07-06T11:12:35Z</time>
      </trkpt>
      <trkpt lat="45.92467" lon="4.73459">
        <ele>173</ele>
        <time>2018-07-06T11:12:36Z</time>
      </trkpt>
      <trkpt lat="45.9247" lon="4.73467">
        <ele>173</ele>
        <time>2018-07-06T11:12:37Z</time>
      </trkpt>
      <trkpt lat="45.92467" lon="4.73475">
        <ele>173</ele>
        <time>2018-07-06T11:12:38Z</time>
      </trkpt>
      <trkpt lat="45.92467" lon="4.73483">
        <ele>173</ele>
        <time>2018-07-06T11:12:39Z</time>
      </trkpt>
      <trkpt lat="45.92466" lon="4.73493">
        <ele>173</ele>
        <time>2018-07-06T11:12:40Z</time>
      </trkpt>
      <trkpt lat="45.92466" lon="4.73501">
        <ele>174</ele>
        <time>2018-07-06T11:12:41Z</time>
      </trkpt>
      <trkpt lat="45.92466" lon="4.7351">
        <ele>174</ele>
        <time>2018-07-06T11:12:42Z</time>
      </trkpt>
      <trkpt lat="45.92466" lon="4.73518">
        <ele>174</ele>
        <time>2018-07-06T11:12:43Z</time>
      </trkpt>
      <trkpt lat="45.92465" lon="4.73525">
        <ele>174</ele>
        <time>2018-07-06T11:12:44Z</time>
      </trkpt>
      <trkpt lat="45.92466" lon="4.73533">
        <ele>174</ele>
        <time>2018-07-06T11:12:45Z</time>
      </trkpt>
      <trkpt lat="45.92466" lon="4.73541">
        <ele>174</ele>
        <time>2018-07-06T11:12:46Z</time>
      </trkpt>
      <trkpt lat="45.92465" lon="4.73548">
        <ele>173</ele>
        <time>2018-07-06T11:12:47Z</time>
      </trkpt>
      <trkpt lat="45.92465" lon="4.73556">
        <ele>173</ele>
        <time>2018-07-06T11:12:48Z</time>
      </trkpt>
      <trkpt lat="45.92466" lon="4.73565">
        <ele>173</ele>
        <time>2018-07-06T11:12:49Z</time>
      </trkpt>
      <trkpt lat="45.92466" lon="4.73574">
        <ele>173</ele>
        <time>2018-07-06T11:12:50Z</time>
      </trkpt>
      <trkpt lat="45.92467" lon="4.73583">
        <ele>173</ele>
        <time>2018-07-06T11:12:51Z</time>
      </trkpt>
      <trkpt lat="45.92469" lon="4.73593">
        <ele>174</ele>
        <time>2018-07-06T11:12:52Z</time>
      </trkpt>
      <trkpt lat="45.92469" lon="4.73602">
        <ele>174</ele>
        <time>2018-07-06T11:12:53Z</time>
      </trkpt>
      <trkpt lat="45.92469" lon="4.73611">
        <ele>174</ele>
        <time>2018-07-06T11:12:54Z</time>
      </trkpt>
      <trkpt lat="45.9247" lon="4.7362">
        <ele>174</ele>
        <time>2018-07-06T11:12:55Z</time>
      </trkpt>
      <trkpt lat="45.92471" lon="4.73629">
        <ele>174</ele>
        <time>2018-07-06T11:12:56Z</time>
      </trkpt>
      <trkpt lat="45.9247" lon="4.73635">
        <ele>174</ele>
        <time>2018-07-06T11:12:57Z</time>
      </trkpt>
      <trkpt lat="45.92469" lon="4.73643">
        <ele>174</ele>
        <time>2018-07-06T11:12:58Z</time>
      </trkpt>
      <trkpt lat="45.92469" lon="4.73652">
        <ele>174</ele>
        <time>2018-07-06T11:12:59Z</time>
      </trkpt>
      <trkpt lat="45.92466" lon="4.73659">
        <ele>174</ele>
        <time>2018-07-06T11:13:00Z</time>
      </trkpt>
      <trkpt lat="45.92466" lon="4.73666">
        <ele>174</ele>
        <time>2018-07-06T11:13:01Z</time>
      </trkpt>
      <trkpt lat="45.92465" lon="4.73675">
        <ele>174</ele>
        <time>2018-07-06T11:13:02Z</time>
      </trkpt>
      <trkpt lat="45.92464" lon="4.73686">
        <ele>174</ele>
        <time>2018-07-06T11:13:04Z</time>
      </trkpt>
      <trkpt lat="45.92462" lon="4.73692">
        <ele>174</ele>
        <time>2018-07-06T11:13:05Z</time>
      </trkpt>
      <trkpt lat="45.92462" lon="4.73705">
        <ele>174</ele>
        <time>2018-07-06T11:13:10Z</time>
      </trkpt>
      <trkpt lat="45.92461" lon="4.73705">
        <ele>174</ele>
        <time>2018-07-06T11:13:11Z</time>
      </trkpt>
      <trkpt lat="45.92459" lon="4.73708">
        <ele>174</ele>
        <time>2018-07-06T11:13:42.723Z</time>
      </trkpt>
    </trkseg>
  </trk>
</gpx>